<?xml version="1.0" encoding="UTF-8" standalone="no" ?>
<gpx xmlns="http://www.topografix.com/GPX/1/1" xmlns:xsi="http://www.w3.org/2001/XMLSchema-instance" xsi:schemaLocation="http://www.topografix.com/GPX/1/1 http://www.topografix.com/GPX/1/1/gpx.xsd" version="1.1" creator="VisuGPX - https://www.visugpx.com">
  <metadata>
    <name>43 KM randochimilin 2023</name>
    <desc><![CDATA[itinéraire de la rando organisé par l'usep de chimilin, 02 avril 2023.]]></desc>
  </metadata>
  <trk>
    <name><![CDATA[43 KM randochimilin 2023_1]]></name>
    <extensions>
      <line xmlns="http://www.topografix.com/GPX/gpx_style/0/2">
        <color>0000FF</color>
        <width>4</width>
      </line>
    </extensions>
    <trkseg>
      <trkpt lat="45.57668" lon="5.60035">
        <ele>258</ele>
        <time>2023-02-14T08:08:24.000Z</time>
      </trkpt>
      <trkpt lat="45.57667" lon="5.60035">
        <ele>258</ele>
        <time>2023-02-14T08:08:25.000Z</time>
      </trkpt>
      <trkpt lat="45.57665" lon="5.60035">
        <ele>257</ele>
        <time>2023-02-14T08:08:26.000Z</time>
      </trkpt>
      <trkpt lat="45.57663" lon="5.60034">
        <ele>257</ele>
        <time>2023-02-14T08:08:27.000Z</time>
      </trkpt>
      <trkpt lat="45.57661" lon="5.60032">
        <ele>257</ele>
        <time>2023-02-14T08:08:28.000Z</time>
      </trkpt>
      <trkpt lat="45.57659" lon="5.6003">
        <ele>257</ele>
        <time>2023-02-14T08:08:29.000Z</time>
      </trkpt>
      <trkpt lat="45.57658" lon="5.60026">
        <ele>256</ele>
        <time>2023-02-14T08:08:30.000Z</time>
      </trkpt>
      <trkpt lat="45.57657" lon="5.60022">
        <ele>257</ele>
        <time>2023-02-14T08:08:31.000Z</time>
      </trkpt>
      <trkpt lat="45.57656" lon="5.60017">
        <ele>257</ele>
        <time>2023-02-14T08:08:32.000Z</time>
      </trkpt>
      <trkpt lat="45.57656" lon="5.60013">
        <ele>257</ele>
        <time>2023-02-14T08:08:33.000Z</time>
      </trkpt>
      <trkpt lat="45.57655" lon="5.60009">
        <ele>256</ele>
        <time>2023-02-14T08:08:34.000Z</time>
      </trkpt>
      <trkpt lat="45.57655" lon="5.60004">
        <ele>256</ele>
        <time>2023-02-14T08:08:35.000Z</time>
      </trkpt>
      <trkpt lat="45.57653" lon="5.6">
        <ele>256</ele>
        <time>2023-02-14T08:08:36.000Z</time>
      </trkpt>
      <trkpt lat="45.57652" lon="5.59996">
        <ele>257</ele>
        <time>2023-02-14T08:08:37.000Z</time>
      </trkpt>
      <trkpt lat="45.5765" lon="5.59992">
        <ele>256</ele>
        <time>2023-02-14T08:08:38.000Z</time>
      </trkpt>
      <trkpt lat="45.57649" lon="5.59988">
        <ele>256</ele>
        <time>2023-02-14T08:08:39.000Z</time>
      </trkpt>
      <trkpt lat="45.57648" lon="5.59985">
        <ele>256</ele>
        <time>2023-02-14T08:08:40.000Z</time>
      </trkpt>
      <trkpt lat="45.57647" lon="5.59982">
        <ele>256</ele>
        <time>2023-02-14T08:08:41.000Z</time>
      </trkpt>
      <trkpt lat="45.57647" lon="5.5998">
        <ele>256</ele>
        <time>2023-02-14T08:08:42.000Z</time>
      </trkpt>
      <trkpt lat="45.57646" lon="5.59977">
        <ele>256</ele>
        <time>2023-02-14T08:08:43.000Z</time>
      </trkpt>
      <trkpt lat="45.57646" lon="5.59974">
        <ele>255</ele>
        <time>2023-02-14T08:08:44.000Z</time>
      </trkpt>
      <trkpt lat="45.57646" lon="5.59971">
        <ele>252</ele>
        <time>2023-02-14T08:08:45.000Z</time>
      </trkpt>
      <trkpt lat="45.57647" lon="5.59969">
        <ele>252</ele>
        <time>2023-02-14T08:08:46.000Z</time>
      </trkpt>
      <trkpt lat="45.57647" lon="5.59967">
        <ele>251</ele>
        <time>2023-02-14T08:08:47.000Z</time>
      </trkpt>
      <trkpt lat="45.57648" lon="5.59965">
        <ele>251</ele>
        <time>2023-02-14T08:08:48.000Z</time>
      </trkpt>
      <trkpt lat="45.57648" lon="5.59964">
        <ele>252</ele>
        <time>2023-02-14T08:08:49.000Z</time>
      </trkpt>
      <trkpt lat="45.57648" lon="5.59962">
        <ele>256</ele>
        <time>2023-02-14T08:09:06.797Z</time>
      </trkpt>
      <trkpt lat="45.57648" lon="5.59962">
        <ele>256</ele>
        <time>2023-02-14T08:09:07.797Z</time>
      </trkpt>
      <trkpt lat="45.57648" lon="5.59962">
        <ele>257</ele>
        <time>2023-02-14T08:09:08.797Z</time>
      </trkpt>
      <trkpt lat="45.57648" lon="5.59962">
        <ele>256</ele>
        <time>2023-02-14T08:09:09.797Z</time>
      </trkpt>
      <trkpt lat="45.57648" lon="5.59961">
        <ele>257</ele>
        <time>2023-02-14T08:09:10.797Z</time>
      </trkpt>
      <trkpt lat="45.57649" lon="5.59961">
        <ele>257</ele>
        <time>2023-02-14T08:09:11.797Z</time>
      </trkpt>
      <trkpt lat="45.5765" lon="5.5996">
        <ele>257</ele>
        <time>2023-02-14T08:09:12.797Z</time>
      </trkpt>
      <trkpt lat="45.57651" lon="5.5996">
        <ele>256</ele>
        <time>2023-02-14T08:09:13.797Z</time>
      </trkpt>
      <trkpt lat="45.57653" lon="5.59959">
        <ele>256</ele>
        <time>2023-02-14T08:09:14.797Z</time>
      </trkpt>
      <trkpt lat="45.57655" lon="5.59959">
        <ele>257</ele>
        <time>2023-02-14T08:09:15.797Z</time>
      </trkpt>
      <trkpt lat="45.57657" lon="5.59959">
        <ele>257</ele>
        <time>2023-02-14T08:09:16.797Z</time>
      </trkpt>
      <trkpt lat="45.57659" lon="5.59959">
        <ele>258</ele>
        <time>2023-02-14T08:09:17.797Z</time>
      </trkpt>
      <trkpt lat="45.57662" lon="5.59959">
        <ele>258</ele>
        <time>2023-02-14T08:09:18.797Z</time>
      </trkpt>
      <trkpt lat="45.57664" lon="5.59959">
        <ele>258</ele>
        <time>2023-02-14T08:09:19.797Z</time>
      </trkpt>
      <trkpt lat="45.57666" lon="5.59959">
        <ele>259</ele>
        <time>2023-02-14T08:09:20.797Z</time>
      </trkpt>
      <trkpt lat="45.57669" lon="5.59959">
        <ele>259</ele>
        <time>2023-02-14T08:09:21.797Z</time>
      </trkpt>
      <trkpt lat="45.57671" lon="5.59959">
        <ele>258</ele>
        <time>2023-02-14T08:09:22.797Z</time>
      </trkpt>
      <trkpt lat="45.57673" lon="5.59959">
        <ele>258</ele>
        <time>2023-02-14T08:09:23.797Z</time>
      </trkpt>
      <trkpt lat="45.57675" lon="5.59959">
        <ele>259</ele>
        <time>2023-02-14T08:09:24.797Z</time>
      </trkpt>
      <trkpt lat="45.57677" lon="5.59958">
        <ele>260</ele>
        <time>2023-02-14T08:09:25.797Z</time>
      </trkpt>
      <trkpt lat="45.57679" lon="5.59956">
        <ele>260</ele>
        <time>2023-02-14T08:09:26.797Z</time>
      </trkpt>
      <trkpt lat="45.5768" lon="5.59953">
        <ele>260</ele>
        <time>2023-02-14T08:09:27.797Z</time>
      </trkpt>
      <trkpt lat="45.57681" lon="5.59951">
        <ele>260</ele>
        <time>2023-02-14T08:09:28.797Z</time>
      </trkpt>
      <trkpt lat="45.57681" lon="5.59948">
        <ele>260</ele>
        <time>2023-02-14T08:09:29.797Z</time>
      </trkpt>
      <trkpt lat="45.57682" lon="5.59945">
        <ele>260</ele>
        <time>2023-02-14T08:09:30.797Z</time>
      </trkpt>
      <trkpt lat="45.57682" lon="5.59942">
        <ele>260</ele>
        <time>2023-02-14T08:09:31.797Z</time>
      </trkpt>
      <trkpt lat="45.57683" lon="5.59939">
        <ele>260</ele>
        <time>2023-02-14T08:09:32.797Z</time>
      </trkpt>
      <trkpt lat="45.57683" lon="5.59936">
        <ele>260</ele>
        <time>2023-02-14T08:09:33.797Z</time>
      </trkpt>
      <trkpt lat="45.57684" lon="5.59932">
        <ele>260</ele>
        <time>2023-02-14T08:09:34.797Z</time>
      </trkpt>
      <trkpt lat="45.57684" lon="5.59929">
        <ele>260</ele>
        <time>2023-02-14T08:09:35.797Z</time>
      </trkpt>
      <trkpt lat="45.57685" lon="5.59926">
        <ele>260</ele>
        <time>2023-02-14T08:09:36.797Z</time>
      </trkpt>
      <trkpt lat="45.57686" lon="5.59923">
        <ele>260</ele>
        <time>2023-02-14T08:09:37.797Z</time>
      </trkpt>
      <trkpt lat="45.57686" lon="5.59919">
        <ele>260</ele>
        <time>2023-02-14T08:09:38.797Z</time>
      </trkpt>
      <trkpt lat="45.57687" lon="5.59916">
        <ele>259</ele>
        <time>2023-02-14T08:09:39.797Z</time>
      </trkpt>
      <trkpt lat="45.57688" lon="5.59912">
        <ele>259</ele>
        <time>2023-02-14T08:09:40.797Z</time>
      </trkpt>
      <trkpt lat="45.57689" lon="5.59908">
        <ele>259</ele>
        <time>2023-02-14T08:09:41.797Z</time>
      </trkpt>
      <trkpt lat="45.5769" lon="5.59904">
        <ele>259</ele>
        <time>2023-02-14T08:09:42.797Z</time>
      </trkpt>
      <trkpt lat="45.57691" lon="5.599">
        <ele>259</ele>
        <time>2023-02-14T08:09:43.797Z</time>
      </trkpt>
      <trkpt lat="45.57692" lon="5.59896">
        <ele>259</ele>
        <time>2023-02-14T08:09:44.797Z</time>
      </trkpt>
      <trkpt lat="45.57693" lon="5.59893">
        <ele>259</ele>
        <time>2023-02-14T08:09:45.797Z</time>
      </trkpt>
      <trkpt lat="45.57693" lon="5.59889">
        <ele>259</ele>
        <time>2023-02-14T08:09:46.797Z</time>
      </trkpt>
      <trkpt lat="45.57694" lon="5.59885">
        <ele>259</ele>
        <time>2023-02-14T08:09:47.797Z</time>
      </trkpt>
      <trkpt lat="45.57694" lon="5.59881">
        <ele>259</ele>
        <time>2023-02-14T08:09:48.797Z</time>
      </trkpt>
      <trkpt lat="45.57694" lon="5.59877">
        <ele>259</ele>
        <time>2023-02-14T08:09:49.797Z</time>
      </trkpt>
      <trkpt lat="45.57694" lon="5.59873">
        <ele>258</ele>
        <time>2023-02-14T08:09:50.797Z</time>
      </trkpt>
      <trkpt lat="45.57694" lon="5.59869">
        <ele>259</ele>
        <time>2023-02-14T08:09:51.797Z</time>
      </trkpt>
      <trkpt lat="45.57693" lon="5.59865">
        <ele>259</ele>
        <time>2023-02-14T08:09:52.797Z</time>
      </trkpt>
      <trkpt lat="45.57692" lon="5.59861">
        <ele>259</ele>
        <time>2023-02-14T08:09:53.797Z</time>
      </trkpt>
      <trkpt lat="45.57691" lon="5.59858">
        <ele>259</ele>
        <time>2023-02-14T08:09:54.797Z</time>
      </trkpt>
      <trkpt lat="45.5769" lon="5.59854">
        <ele>259</ele>
        <time>2023-02-14T08:09:55.797Z</time>
      </trkpt>
      <trkpt lat="45.57688" lon="5.59852">
        <ele>258</ele>
        <time>2023-02-14T08:09:56.797Z</time>
      </trkpt>
      <trkpt lat="45.57686" lon="5.59849">
        <ele>257</ele>
        <time>2023-02-14T08:09:57.797Z</time>
      </trkpt>
      <trkpt lat="45.57684" lon="5.59847">
        <ele>258</ele>
        <time>2023-02-14T08:09:58.797Z</time>
      </trkpt>
      <trkpt lat="45.57682" lon="5.59844">
        <ele>258</ele>
        <time>2023-02-14T08:09:59.797Z</time>
      </trkpt>
      <trkpt lat="45.5768" lon="5.59842">
        <ele>258</ele>
        <time>2023-02-14T08:10:00.797Z</time>
      </trkpt>
      <trkpt lat="45.57678" lon="5.59839">
        <ele>258</ele>
        <time>2023-02-14T08:10:01.797Z</time>
      </trkpt>
      <trkpt lat="45.57676" lon="5.59837">
        <ele>258</ele>
        <time>2023-02-14T08:10:02.797Z</time>
      </trkpt>
      <trkpt lat="45.57674" lon="5.59835">
        <ele>258</ele>
        <time>2023-02-14T08:10:03.797Z</time>
      </trkpt>
      <trkpt lat="45.57673" lon="5.59832">
        <ele>258</ele>
        <time>2023-02-14T08:10:04.797Z</time>
      </trkpt>
      <trkpt lat="45.57671" lon="5.5983">
        <ele>258</ele>
        <time>2023-02-14T08:10:05.797Z</time>
      </trkpt>
      <trkpt lat="45.57669" lon="5.59828">
        <ele>257</ele>
        <time>2023-02-14T08:10:06.797Z</time>
      </trkpt>
      <trkpt lat="45.57667" lon="5.59826">
        <ele>257</ele>
        <time>2023-02-14T08:10:07.797Z</time>
      </trkpt>
      <trkpt lat="45.57665" lon="5.59824">
        <ele>258</ele>
        <time>2023-02-14T08:10:08.797Z</time>
      </trkpt>
      <trkpt lat="45.57663" lon="5.59821">
        <ele>258</ele>
        <time>2023-02-14T08:10:09.797Z</time>
      </trkpt>
      <trkpt lat="45.57661" lon="5.59819">
        <ele>257</ele>
        <time>2023-02-14T08:10:10.797Z</time>
      </trkpt>
      <trkpt lat="45.57659" lon="5.59817">
        <ele>257</ele>
        <time>2023-02-14T08:10:11.797Z</time>
      </trkpt>
      <trkpt lat="45.57657" lon="5.59815">
        <ele>257</ele>
        <time>2023-02-14T08:10:12.797Z</time>
      </trkpt>
      <trkpt lat="45.57655" lon="5.59813">
        <ele>257</ele>
        <time>2023-02-14T08:10:13.797Z</time>
      </trkpt>
      <trkpt lat="45.57653" lon="5.59812">
        <ele>257</ele>
        <time>2023-02-14T08:10:14.797Z</time>
      </trkpt>
      <trkpt lat="45.5765" lon="5.59811">
        <ele>257</ele>
        <time>2023-02-14T08:10:15.797Z</time>
      </trkpt>
      <trkpt lat="45.57648" lon="5.59809">
        <ele>257</ele>
        <time>2023-02-14T08:10:16.797Z</time>
      </trkpt>
      <trkpt lat="45.57645" lon="5.59808">
        <ele>257</ele>
        <time>2023-02-14T08:10:17.797Z</time>
      </trkpt>
      <trkpt lat="45.57643" lon="5.59807">
        <ele>258</ele>
        <time>2023-02-14T08:10:18.797Z</time>
      </trkpt>
      <trkpt lat="45.5764" lon="5.59806">
        <ele>258</ele>
        <time>2023-02-14T08:10:19.797Z</time>
      </trkpt>
      <trkpt lat="45.57638" lon="5.59805">
        <ele>258</ele>
        <time>2023-02-14T08:10:20.797Z</time>
      </trkpt>
      <trkpt lat="45.57635" lon="5.59804">
        <ele>258</ele>
        <time>2023-02-14T08:10:21.797Z</time>
      </trkpt>
      <trkpt lat="45.57633" lon="5.59803">
        <ele>258</ele>
        <time>2023-02-14T08:10:22.797Z</time>
      </trkpt>
      <trkpt lat="45.5763" lon="5.59802">
        <ele>259</ele>
        <time>2023-02-14T08:10:23.797Z</time>
      </trkpt>
      <trkpt lat="45.57627" lon="5.59801">
        <ele>259</ele>
        <time>2023-02-14T08:10:24.797Z</time>
      </trkpt>
      <trkpt lat="45.57625" lon="5.59799">
        <ele>259</ele>
        <time>2023-02-14T08:10:25.797Z</time>
      </trkpt>
      <trkpt lat="45.57622" lon="5.59798">
        <ele>259</ele>
        <time>2023-02-14T08:10:26.797Z</time>
      </trkpt>
      <trkpt lat="45.57619" lon="5.59796">
        <ele>259</ele>
        <time>2023-02-14T08:10:27.797Z</time>
      </trkpt>
      <trkpt lat="45.57617" lon="5.59795">
        <ele>259</ele>
        <time>2023-02-14T08:10:28.797Z</time>
      </trkpt>
      <trkpt lat="45.57614" lon="5.59794">
        <ele>260</ele>
        <time>2023-02-14T08:10:29.797Z</time>
      </trkpt>
      <trkpt lat="45.57612" lon="5.59793">
        <ele>260</ele>
        <time>2023-02-14T08:10:30.797Z</time>
      </trkpt>
      <trkpt lat="45.5761" lon="5.59792">
        <ele>260</ele>
        <time>2023-02-14T08:10:31.797Z</time>
      </trkpt>
      <trkpt lat="45.57607" lon="5.5979">
        <ele>260</ele>
        <time>2023-02-14T08:10:32.797Z</time>
      </trkpt>
      <trkpt lat="45.57605" lon="5.59789">
        <ele>260</ele>
        <time>2023-02-14T08:10:33.797Z</time>
      </trkpt>
      <trkpt lat="45.57602" lon="5.59788">
        <ele>261</ele>
        <time>2023-02-14T08:10:34.797Z</time>
      </trkpt>
      <trkpt lat="45.576" lon="5.59786">
        <ele>261</ele>
        <time>2023-02-14T08:10:35.797Z</time>
      </trkpt>
      <trkpt lat="45.57598" lon="5.59785">
        <ele>261</ele>
        <time>2023-02-14T08:10:36.797Z</time>
      </trkpt>
      <trkpt lat="45.57595" lon="5.59784">
        <ele>261</ele>
        <time>2023-02-14T08:10:37.797Z</time>
      </trkpt>
      <trkpt lat="45.57592" lon="5.59782">
        <ele>261</ele>
        <time>2023-02-14T08:10:38.797Z</time>
      </trkpt>
      <trkpt lat="45.5759" lon="5.59781">
        <ele>262</ele>
        <time>2023-02-14T08:10:39.797Z</time>
      </trkpt>
      <trkpt lat="45.57587" lon="5.5978">
        <ele>262</ele>
        <time>2023-02-14T08:10:40.797Z</time>
      </trkpt>
      <trkpt lat="45.57585" lon="5.59779">
        <ele>262</ele>
        <time>2023-02-14T08:10:41.797Z</time>
      </trkpt>
      <trkpt lat="45.57583" lon="5.59777">
        <ele>262</ele>
        <time>2023-02-14T08:10:42.797Z</time>
      </trkpt>
      <trkpt lat="45.5758" lon="5.59776">
        <ele>262</ele>
        <time>2023-02-14T08:10:43.797Z</time>
      </trkpt>
      <trkpt lat="45.57578" lon="5.59774">
        <ele>262</ele>
        <time>2023-02-14T08:10:44.797Z</time>
      </trkpt>
      <trkpt lat="45.57575" lon="5.59773">
        <ele>262</ele>
        <time>2023-02-14T08:10:45.797Z</time>
      </trkpt>
      <trkpt lat="45.57573" lon="5.59771">
        <ele>262</ele>
        <time>2023-02-14T08:10:46.797Z</time>
      </trkpt>
      <trkpt lat="45.5757" lon="5.59769">
        <ele>262</ele>
        <time>2023-02-14T08:10:47.797Z</time>
      </trkpt>
      <trkpt lat="45.57568" lon="5.59767">
        <ele>262</ele>
        <time>2023-02-14T08:10:48.797Z</time>
      </trkpt>
      <trkpt lat="45.57565" lon="5.59765">
        <ele>262</ele>
        <time>2023-02-14T08:10:49.797Z</time>
      </trkpt>
      <trkpt lat="45.57562" lon="5.59762">
        <ele>262</ele>
        <time>2023-02-14T08:10:50.797Z</time>
      </trkpt>
      <trkpt lat="45.57559" lon="5.59759">
        <ele>262</ele>
        <time>2023-02-14T08:10:51.797Z</time>
      </trkpt>
      <trkpt lat="45.57556" lon="5.59756">
        <ele>261</ele>
        <time>2023-02-14T08:10:52.797Z</time>
      </trkpt>
      <trkpt lat="45.57553" lon="5.59753">
        <ele>261</ele>
        <time>2023-02-14T08:10:53.797Z</time>
      </trkpt>
      <trkpt lat="45.5755" lon="5.5975">
        <ele>261</ele>
        <time>2023-02-14T08:10:54.797Z</time>
      </trkpt>
      <trkpt lat="45.57546" lon="5.59747">
        <ele>261</ele>
        <time>2023-02-14T08:10:55.797Z</time>
      </trkpt>
      <trkpt lat="45.57543" lon="5.59743">
        <ele>260</ele>
        <time>2023-02-14T08:10:56.797Z</time>
      </trkpt>
      <trkpt lat="45.57539" lon="5.5974">
        <ele>260</ele>
        <time>2023-02-14T08:10:57.797Z</time>
      </trkpt>
      <trkpt lat="45.57535" lon="5.59736">
        <ele>260</ele>
        <time>2023-02-14T08:10:58.797Z</time>
      </trkpt>
      <trkpt lat="45.57531" lon="5.59732">
        <ele>260</ele>
        <time>2023-02-14T08:10:59.797Z</time>
      </trkpt>
      <trkpt lat="45.57527" lon="5.59728">
        <ele>260</ele>
        <time>2023-02-14T08:11:00.797Z</time>
      </trkpt>
      <trkpt lat="45.57523" lon="5.59725">
        <ele>260</ele>
        <time>2023-02-14T08:11:01.797Z</time>
      </trkpt>
      <trkpt lat="45.57519" lon="5.59721">
        <ele>260</ele>
        <time>2023-02-14T08:11:02.797Z</time>
      </trkpt>
      <trkpt lat="45.57515" lon="5.59717">
        <ele>260</ele>
        <time>2023-02-14T08:11:03.797Z</time>
      </trkpt>
      <trkpt lat="45.57512" lon="5.59713">
        <ele>260</ele>
        <time>2023-02-14T08:11:04.797Z</time>
      </trkpt>
      <trkpt lat="45.57508" lon="5.5971">
        <ele>260</ele>
        <time>2023-02-14T08:11:05.797Z</time>
      </trkpt>
      <trkpt lat="45.57504" lon="5.59706">
        <ele>260</ele>
        <time>2023-02-14T08:11:06.797Z</time>
      </trkpt>
      <trkpt lat="45.57501" lon="5.59702">
        <ele>260</ele>
        <time>2023-02-14T08:11:07.797Z</time>
      </trkpt>
      <trkpt lat="45.57497" lon="5.59699">
        <ele>260</ele>
        <time>2023-02-14T08:11:08.797Z</time>
      </trkpt>
      <trkpt lat="45.57494" lon="5.59696">
        <ele>260</ele>
        <time>2023-02-14T08:11:09.797Z</time>
      </trkpt>
      <trkpt lat="45.5749" lon="5.59693">
        <ele>260</ele>
        <time>2023-02-14T08:11:10.797Z</time>
      </trkpt>
      <trkpt lat="45.57487" lon="5.5969">
        <ele>260</ele>
        <time>2023-02-14T08:11:11.797Z</time>
      </trkpt>
      <trkpt lat="45.57483" lon="5.59688">
        <ele>260</ele>
        <time>2023-02-14T08:11:12.797Z</time>
      </trkpt>
      <trkpt lat="45.57479" lon="5.59685">
        <ele>260</ele>
        <time>2023-02-14T08:11:13.797Z</time>
      </trkpt>
      <trkpt lat="45.57475" lon="5.59682">
        <ele>261</ele>
        <time>2023-02-14T08:11:14.797Z</time>
      </trkpt>
      <trkpt lat="45.57472" lon="5.5968">
        <ele>261</ele>
        <time>2023-02-14T08:11:15.797Z</time>
      </trkpt>
      <trkpt lat="45.57469" lon="5.59678">
        <ele>261</ele>
        <time>2023-02-14T08:11:16.797Z</time>
      </trkpt>
      <trkpt lat="45.57465" lon="5.59675">
        <ele>261</ele>
        <time>2023-02-14T08:11:17.797Z</time>
      </trkpt>
      <trkpt lat="45.57462" lon="5.59673">
        <ele>261</ele>
        <time>2023-02-14T08:11:18.797Z</time>
      </trkpt>
      <trkpt lat="45.57459" lon="5.5967">
        <ele>260</ele>
        <time>2023-02-14T08:11:19.797Z</time>
      </trkpt>
      <trkpt lat="45.57455" lon="5.59668">
        <ele>261</ele>
        <time>2023-02-14T08:11:20.797Z</time>
      </trkpt>
      <trkpt lat="45.57452" lon="5.59666">
        <ele>261</ele>
        <time>2023-02-14T08:11:21.797Z</time>
      </trkpt>
      <trkpt lat="45.57449" lon="5.59664">
        <ele>261</ele>
        <time>2023-02-14T08:11:22.797Z</time>
      </trkpt>
      <trkpt lat="45.57446" lon="5.59662">
        <ele>261</ele>
        <time>2023-02-14T08:11:23.797Z</time>
      </trkpt>
      <trkpt lat="45.57442" lon="5.59659">
        <ele>261</ele>
        <time>2023-02-14T08:11:24.797Z</time>
      </trkpt>
      <trkpt lat="45.57439" lon="5.59657">
        <ele>262</ele>
        <time>2023-02-14T08:11:25.797Z</time>
      </trkpt>
      <trkpt lat="45.57436" lon="5.59655">
        <ele>262</ele>
        <time>2023-02-14T08:11:26.797Z</time>
      </trkpt>
      <trkpt lat="45.57433" lon="5.59653">
        <ele>262</ele>
        <time>2023-02-14T08:11:27.797Z</time>
      </trkpt>
      <trkpt lat="45.5743" lon="5.59651">
        <ele>262</ele>
        <time>2023-02-14T08:11:28.797Z</time>
      </trkpt>
      <trkpt lat="45.57427" lon="5.59649">
        <ele>262</ele>
        <time>2023-02-14T08:11:29.797Z</time>
      </trkpt>
      <trkpt lat="45.57425" lon="5.59648">
        <ele>262</ele>
        <time>2023-02-14T08:11:30.797Z</time>
      </trkpt>
      <trkpt lat="45.57422" lon="5.59646">
        <ele>262</ele>
        <time>2023-02-14T08:11:31.797Z</time>
      </trkpt>
      <trkpt lat="45.5742" lon="5.59645">
        <ele>263</ele>
        <time>2023-02-14T08:11:32.797Z</time>
      </trkpt>
      <trkpt lat="45.57417" lon="5.59643">
        <ele>263</ele>
        <time>2023-02-14T08:11:33.797Z</time>
      </trkpt>
      <trkpt lat="45.57416" lon="5.5964">
        <ele>262</ele>
        <time>2023-02-14T08:11:34.797Z</time>
      </trkpt>
      <trkpt lat="45.57415" lon="5.59636">
        <ele>261</ele>
        <time>2023-02-14T08:11:35.797Z</time>
      </trkpt>
      <trkpt lat="45.57415" lon="5.59632">
        <ele>261</ele>
        <time>2023-02-14T08:11:36.797Z</time>
      </trkpt>
      <trkpt lat="45.57416" lon="5.59629">
        <ele>261</ele>
        <time>2023-02-14T08:11:37.797Z</time>
      </trkpt>
      <trkpt lat="45.57416" lon="5.59625">
        <ele>261</ele>
        <time>2023-02-14T08:11:38.797Z</time>
      </trkpt>
      <trkpt lat="45.57417" lon="5.59622">
        <ele>261</ele>
        <time>2023-02-14T08:11:39.797Z</time>
      </trkpt>
      <trkpt lat="45.57418" lon="5.59618">
        <ele>261</ele>
        <time>2023-02-14T08:11:40.797Z</time>
      </trkpt>
      <trkpt lat="45.5742" lon="5.59613">
        <ele>261</ele>
        <time>2023-02-14T08:11:41.797Z</time>
      </trkpt>
      <trkpt lat="45.57421" lon="5.59609">
        <ele>261</ele>
        <time>2023-02-14T08:11:42.797Z</time>
      </trkpt>
      <trkpt lat="45.57423" lon="5.59605">
        <ele>261</ele>
        <time>2023-02-14T08:11:43.797Z</time>
      </trkpt>
      <trkpt lat="45.57424" lon="5.596">
        <ele>261</ele>
        <time>2023-02-14T08:11:44.797Z</time>
      </trkpt>
      <trkpt lat="45.57426" lon="5.59595">
        <ele>261</ele>
        <time>2023-02-14T08:11:45.797Z</time>
      </trkpt>
      <trkpt lat="45.57428" lon="5.5959">
        <ele>261</ele>
        <time>2023-02-14T08:11:46.797Z</time>
      </trkpt>
      <trkpt lat="45.5743" lon="5.59585">
        <ele>261</ele>
        <time>2023-02-14T08:11:47.797Z</time>
      </trkpt>
      <trkpt lat="45.57432" lon="5.5958">
        <ele>261</ele>
        <time>2023-02-14T08:11:48.797Z</time>
      </trkpt>
      <trkpt lat="45.57434" lon="5.59575">
        <ele>261</ele>
        <time>2023-02-14T08:11:49.797Z</time>
      </trkpt>
      <trkpt lat="45.57436" lon="5.5957">
        <ele>261</ele>
        <time>2023-02-14T08:11:50.797Z</time>
      </trkpt>
      <trkpt lat="45.57438" lon="5.59564">
        <ele>261</ele>
        <time>2023-02-14T08:11:51.797Z</time>
      </trkpt>
      <trkpt lat="45.5744" lon="5.59559">
        <ele>261</ele>
        <time>2023-02-14T08:11:52.797Z</time>
      </trkpt>
      <trkpt lat="45.57442" lon="5.59554">
        <ele>261</ele>
        <time>2023-02-14T08:11:53.797Z</time>
      </trkpt>
      <trkpt lat="45.57445" lon="5.59548">
        <ele>261</ele>
        <time>2023-02-14T08:11:54.797Z</time>
      </trkpt>
      <trkpt lat="45.57447" lon="5.59543">
        <ele>261</ele>
        <time>2023-02-14T08:11:55.797Z</time>
      </trkpt>
      <trkpt lat="45.57449" lon="5.59537">
        <ele>261</ele>
        <time>2023-02-14T08:11:56.797Z</time>
      </trkpt>
      <trkpt lat="45.57451" lon="5.59531">
        <ele>260</ele>
        <time>2023-02-14T08:11:57.797Z</time>
      </trkpt>
      <trkpt lat="45.57453" lon="5.59525">
        <ele>260</ele>
        <time>2023-02-14T08:11:58.797Z</time>
      </trkpt>
      <trkpt lat="45.57455" lon="5.59519">
        <ele>260</ele>
        <time>2023-02-14T08:11:59.797Z</time>
      </trkpt>
      <trkpt lat="45.57458" lon="5.59513">
        <ele>260</ele>
        <time>2023-02-14T08:12:00.797Z</time>
      </trkpt>
      <trkpt lat="45.5746" lon="5.59507">
        <ele>260</ele>
        <time>2023-02-14T08:12:01.797Z</time>
      </trkpt>
      <trkpt lat="45.57463" lon="5.59501">
        <ele>260</ele>
        <time>2023-02-14T08:12:02.797Z</time>
      </trkpt>
      <trkpt lat="45.57465" lon="5.59494">
        <ele>260</ele>
        <time>2023-02-14T08:12:03.797Z</time>
      </trkpt>
      <trkpt lat="45.57468" lon="5.59487">
        <ele>260</ele>
        <time>2023-02-14T08:12:04.797Z</time>
      </trkpt>
      <trkpt lat="45.5747" lon="5.59481">
        <ele>260</ele>
        <time>2023-02-14T08:12:05.797Z</time>
      </trkpt>
      <trkpt lat="45.57473" lon="5.59474">
        <ele>259</ele>
        <time>2023-02-14T08:12:06.797Z</time>
      </trkpt>
      <trkpt lat="45.57475" lon="5.59467">
        <ele>259</ele>
        <time>2023-02-14T08:12:07.797Z</time>
      </trkpt>
      <trkpt lat="45.57477" lon="5.5946">
        <ele>259</ele>
        <time>2023-02-14T08:12:08.797Z</time>
      </trkpt>
      <trkpt lat="45.5748" lon="5.59453">
        <ele>259</ele>
        <time>2023-02-14T08:12:09.797Z</time>
      </trkpt>
      <trkpt lat="45.57482" lon="5.59446">
        <ele>259</ele>
        <time>2023-02-14T08:12:10.797Z</time>
      </trkpt>
      <trkpt lat="45.57485" lon="5.59439">
        <ele>259</ele>
        <time>2023-02-14T08:12:11.797Z</time>
      </trkpt>
      <trkpt lat="45.57487" lon="5.59432">
        <ele>259</ele>
        <time>2023-02-14T08:12:12.797Z</time>
      </trkpt>
      <trkpt lat="45.57489" lon="5.59425">
        <ele>259</ele>
        <time>2023-02-14T08:12:13.797Z</time>
      </trkpt>
      <trkpt lat="45.5749" lon="5.59418">
        <ele>259</ele>
        <time>2023-02-14T08:12:14.797Z</time>
      </trkpt>
      <trkpt lat="45.57492" lon="5.59411">
        <ele>259</ele>
        <time>2023-02-14T08:12:15.797Z</time>
      </trkpt>
      <trkpt lat="45.57493" lon="5.59404">
        <ele>259</ele>
        <time>2023-02-14T08:12:16.797Z</time>
      </trkpt>
      <trkpt lat="45.57495" lon="5.59397">
        <ele>260</ele>
        <time>2023-02-14T08:12:17.797Z</time>
      </trkpt>
      <trkpt lat="45.57496" lon="5.5939">
        <ele>260</ele>
        <time>2023-02-14T08:12:18.797Z</time>
      </trkpt>
      <trkpt lat="45.57497" lon="5.59384">
        <ele>260</ele>
        <time>2023-02-14T08:12:19.797Z</time>
      </trkpt>
      <trkpt lat="45.57498" lon="5.59377">
        <ele>260</ele>
        <time>2023-02-14T08:12:20.797Z</time>
      </trkpt>
      <trkpt lat="45.57499" lon="5.59371">
        <ele>260</ele>
        <time>2023-02-14T08:12:21.797Z</time>
      </trkpt>
      <trkpt lat="45.575" lon="5.59365">
        <ele>260</ele>
        <time>2023-02-14T08:12:22.797Z</time>
      </trkpt>
      <trkpt lat="45.575" lon="5.59359">
        <ele>261</ele>
        <time>2023-02-14T08:12:23.797Z</time>
      </trkpt>
      <trkpt lat="45.57501" lon="5.59354">
        <ele>261</ele>
        <time>2023-02-14T08:12:24.797Z</time>
      </trkpt>
      <trkpt lat="45.57502" lon="5.59348">
        <ele>261</ele>
        <time>2023-02-14T08:12:25.797Z</time>
      </trkpt>
      <trkpt lat="45.57503" lon="5.59343">
        <ele>261</ele>
        <time>2023-02-14T08:12:26.797Z</time>
      </trkpt>
      <trkpt lat="45.57503" lon="5.59337">
        <ele>261</ele>
        <time>2023-02-14T08:12:27.797Z</time>
      </trkpt>
      <trkpt lat="45.57504" lon="5.59331">
        <ele>261</ele>
        <time>2023-02-14T08:12:28.797Z</time>
      </trkpt>
      <trkpt lat="45.57504" lon="5.59326">
        <ele>261</ele>
        <time>2023-02-14T08:12:29.797Z</time>
      </trkpt>
      <trkpt lat="45.57505" lon="5.5932">
        <ele>261</ele>
        <time>2023-02-14T08:12:30.797Z</time>
      </trkpt>
      <trkpt lat="45.57506" lon="5.59314">
        <ele>261</ele>
        <time>2023-02-14T08:12:31.797Z</time>
      </trkpt>
      <trkpt lat="45.57506" lon="5.59308">
        <ele>261</ele>
        <time>2023-02-14T08:12:32.797Z</time>
      </trkpt>
      <trkpt lat="45.57507" lon="5.59302">
        <ele>261</ele>
        <time>2023-02-14T08:12:33.797Z</time>
      </trkpt>
      <trkpt lat="45.57508" lon="5.59296">
        <ele>261</ele>
        <time>2023-02-14T08:12:34.797Z</time>
      </trkpt>
      <trkpt lat="45.57509" lon="5.5929">
        <ele>260</ele>
        <time>2023-02-14T08:12:35.797Z</time>
      </trkpt>
      <trkpt lat="45.57509" lon="5.59283">
        <ele>260</ele>
        <time>2023-02-14T08:12:36.797Z</time>
      </trkpt>
      <trkpt lat="45.5751" lon="5.59277">
        <ele>260</ele>
        <time>2023-02-14T08:12:37.797Z</time>
      </trkpt>
      <trkpt lat="45.57512" lon="5.59271">
        <ele>260</ele>
        <time>2023-02-14T08:12:38.797Z</time>
      </trkpt>
      <trkpt lat="45.57513" lon="5.59264">
        <ele>260</ele>
        <time>2023-02-14T08:12:39.797Z</time>
      </trkpt>
      <trkpt lat="45.57514" lon="5.59258">
        <ele>260</ele>
        <time>2023-02-14T08:12:40.797Z</time>
      </trkpt>
      <trkpt lat="45.57515" lon="5.59252">
        <ele>260</ele>
        <time>2023-02-14T08:12:41.797Z</time>
      </trkpt>
      <trkpt lat="45.57516" lon="5.59245">
        <ele>260</ele>
        <time>2023-02-14T08:12:42.797Z</time>
      </trkpt>
      <trkpt lat="45.57517" lon="5.59239">
        <ele>260</ele>
        <time>2023-02-14T08:12:43.797Z</time>
      </trkpt>
      <trkpt lat="45.57517" lon="5.59233">
        <ele>260</ele>
        <time>2023-02-14T08:12:44.797Z</time>
      </trkpt>
      <trkpt lat="45.57517" lon="5.59226">
        <ele>260</ele>
        <time>2023-02-14T08:12:45.797Z</time>
      </trkpt>
      <trkpt lat="45.57517" lon="5.5922">
        <ele>260</ele>
        <time>2023-02-14T08:12:46.797Z</time>
      </trkpt>
      <trkpt lat="45.57517" lon="5.59214">
        <ele>260</ele>
        <time>2023-02-14T08:12:47.797Z</time>
      </trkpt>
      <trkpt lat="45.57516" lon="5.59208">
        <ele>260</ele>
        <time>2023-02-14T08:12:48.797Z</time>
      </trkpt>
      <trkpt lat="45.57515" lon="5.59202">
        <ele>260</ele>
        <time>2023-02-14T08:12:49.797Z</time>
      </trkpt>
      <trkpt lat="45.57514" lon="5.59196">
        <ele>260</ele>
        <time>2023-02-14T08:12:50.797Z</time>
      </trkpt>
      <trkpt lat="45.57513" lon="5.5919">
        <ele>260</ele>
        <time>2023-02-14T08:12:51.797Z</time>
      </trkpt>
      <trkpt lat="45.57511" lon="5.59184">
        <ele>259</ele>
        <time>2023-02-14T08:12:52.797Z</time>
      </trkpt>
      <trkpt lat="45.5751" lon="5.59178">
        <ele>259</ele>
        <time>2023-02-14T08:12:53.797Z</time>
      </trkpt>
      <trkpt lat="45.57508" lon="5.59172">
        <ele>259</ele>
        <time>2023-02-14T08:12:54.797Z</time>
      </trkpt>
      <trkpt lat="45.57506" lon="5.59165">
        <ele>258</ele>
        <time>2023-02-14T08:12:55.797Z</time>
      </trkpt>
      <trkpt lat="45.57504" lon="5.59158">
        <ele>258</ele>
        <time>2023-02-14T08:12:56.797Z</time>
      </trkpt>
      <trkpt lat="45.57501" lon="5.59151">
        <ele>257</ele>
        <time>2023-02-14T08:12:57.797Z</time>
      </trkpt>
      <trkpt lat="45.57499" lon="5.59144">
        <ele>257</ele>
        <time>2023-02-14T08:12:58.797Z</time>
      </trkpt>
      <trkpt lat="45.57497" lon="5.59137">
        <ele>257</ele>
        <time>2023-02-14T08:12:59.797Z</time>
      </trkpt>
      <trkpt lat="45.57495" lon="5.59129">
        <ele>256</ele>
        <time>2023-02-14T08:13:00.797Z</time>
      </trkpt>
      <trkpt lat="45.57493" lon="5.59121">
        <ele>256</ele>
        <time>2023-02-14T08:13:01.797Z</time>
      </trkpt>
      <trkpt lat="45.57491" lon="5.59112">
        <ele>256</ele>
        <time>2023-02-14T08:13:02.797Z</time>
      </trkpt>
      <trkpt lat="45.5749" lon="5.59103">
        <ele>256</ele>
        <time>2023-02-14T08:13:03.797Z</time>
      </trkpt>
      <trkpt lat="45.57489" lon="5.59094">
        <ele>256</ele>
        <time>2023-02-14T08:13:04.797Z</time>
      </trkpt>
      <trkpt lat="45.57488" lon="5.59086">
        <ele>256</ele>
        <time>2023-02-14T08:13:05.797Z</time>
      </trkpt>
      <trkpt lat="45.57487" lon="5.59078">
        <ele>256</ele>
        <time>2023-02-14T08:13:06.797Z</time>
      </trkpt>
      <trkpt lat="45.57486" lon="5.5907">
        <ele>256</ele>
        <time>2023-02-14T08:13:07.797Z</time>
      </trkpt>
      <trkpt lat="45.57485" lon="5.59062">
        <ele>256</ele>
        <time>2023-02-14T08:13:08.797Z</time>
      </trkpt>
      <trkpt lat="45.57483" lon="5.59055">
        <ele>256</ele>
        <time>2023-02-14T08:13:09.797Z</time>
      </trkpt>
      <trkpt lat="45.57482" lon="5.59048">
        <ele>256</ele>
        <time>2023-02-14T08:13:10.797Z</time>
      </trkpt>
      <trkpt lat="45.5748" lon="5.59041">
        <ele>256</ele>
        <time>2023-02-14T08:13:11.797Z</time>
      </trkpt>
      <trkpt lat="45.57479" lon="5.59035">
        <ele>256</ele>
        <time>2023-02-14T08:13:12.797Z</time>
      </trkpt>
      <trkpt lat="45.57477" lon="5.59029">
        <ele>256</ele>
        <time>2023-02-14T08:13:13.797Z</time>
      </trkpt>
      <trkpt lat="45.57475" lon="5.59023">
        <ele>256</ele>
        <time>2023-02-14T08:13:14.797Z</time>
      </trkpt>
      <trkpt lat="45.57472" lon="5.59017">
        <ele>256</ele>
        <time>2023-02-14T08:13:15.797Z</time>
      </trkpt>
      <trkpt lat="45.5747" lon="5.59011">
        <ele>256</ele>
        <time>2023-02-14T08:13:16.797Z</time>
      </trkpt>
      <trkpt lat="45.57468" lon="5.59005">
        <ele>257</ele>
        <time>2023-02-14T08:13:17.797Z</time>
      </trkpt>
      <trkpt lat="45.57466" lon="5.59">
        <ele>256</ele>
        <time>2023-02-14T08:13:18.797Z</time>
      </trkpt>
      <trkpt lat="45.57464" lon="5.58994">
        <ele>257</ele>
        <time>2023-02-14T08:13:19.797Z</time>
      </trkpt>
      <trkpt lat="45.57461" lon="5.58989">
        <ele>256</ele>
        <time>2023-02-14T08:13:20.797Z</time>
      </trkpt>
      <trkpt lat="45.57459" lon="5.58984">
        <ele>256</ele>
        <time>2023-02-14T08:13:21.797Z</time>
      </trkpt>
      <trkpt lat="45.57457" lon="5.58978">
        <ele>256</ele>
        <time>2023-02-14T08:13:22.797Z</time>
      </trkpt>
      <trkpt lat="45.57455" lon="5.58973">
        <ele>256</ele>
        <time>2023-02-14T08:13:23.797Z</time>
      </trkpt>
      <trkpt lat="45.57452" lon="5.58968">
        <ele>257</ele>
        <time>2023-02-14T08:13:24.797Z</time>
      </trkpt>
      <trkpt lat="45.5745" lon="5.58964">
        <ele>257</ele>
        <time>2023-02-14T08:13:25.797Z</time>
      </trkpt>
      <trkpt lat="45.57448" lon="5.58959">
        <ele>256</ele>
        <time>2023-02-14T08:13:26.797Z</time>
      </trkpt>
      <trkpt lat="45.57446" lon="5.58955">
        <ele>257</ele>
        <time>2023-02-14T08:13:27.797Z</time>
      </trkpt>
      <trkpt lat="45.57444" lon="5.5895">
        <ele>257</ele>
        <time>2023-02-14T08:13:28.797Z</time>
      </trkpt>
      <trkpt lat="45.57442" lon="5.58946">
        <ele>257</ele>
        <time>2023-02-14T08:13:29.797Z</time>
      </trkpt>
      <trkpt lat="45.5744" lon="5.58941">
        <ele>257</ele>
        <time>2023-02-14T08:13:30.797Z</time>
      </trkpt>
      <trkpt lat="45.57438" lon="5.58937">
        <ele>257</ele>
        <time>2023-02-14T08:13:31.797Z</time>
      </trkpt>
      <trkpt lat="45.57436" lon="5.58933">
        <ele>258</ele>
        <time>2023-02-14T08:13:32.797Z</time>
      </trkpt>
      <trkpt lat="45.57434" lon="5.58928">
        <ele>258</ele>
        <time>2023-02-14T08:13:33.797Z</time>
      </trkpt>
      <trkpt lat="45.57432" lon="5.58924">
        <ele>258</ele>
        <time>2023-02-14T08:13:34.797Z</time>
      </trkpt>
      <trkpt lat="45.5743" lon="5.5892">
        <ele>258</ele>
        <time>2023-02-14T08:13:35.797Z</time>
      </trkpt>
      <trkpt lat="45.57427" lon="5.58916">
        <ele>259</ele>
        <time>2023-02-14T08:13:36.797Z</time>
      </trkpt>
      <trkpt lat="45.57425" lon="5.58913">
        <ele>259</ele>
        <time>2023-02-14T08:13:37.797Z</time>
      </trkpt>
      <trkpt lat="45.57422" lon="5.58909">
        <ele>259</ele>
        <time>2023-02-14T08:13:38.797Z</time>
      </trkpt>
      <trkpt lat="45.5742" lon="5.58906">
        <ele>259</ele>
        <time>2023-02-14T08:13:39.797Z</time>
      </trkpt>
      <trkpt lat="45.57418" lon="5.58903">
        <ele>260</ele>
        <time>2023-02-14T08:13:40.797Z</time>
      </trkpt>
      <trkpt lat="45.57415" lon="5.589">
        <ele>260</ele>
        <time>2023-02-14T08:13:41.797Z</time>
      </trkpt>
      <trkpt lat="45.57413" lon="5.58897">
        <ele>260</ele>
        <time>2023-02-14T08:13:42.797Z</time>
      </trkpt>
      <trkpt lat="45.57411" lon="5.58894">
        <ele>261</ele>
        <time>2023-02-14T08:13:43.797Z</time>
      </trkpt>
      <trkpt lat="45.57408" lon="5.58892">
        <ele>261</ele>
        <time>2023-02-14T08:13:44.797Z</time>
      </trkpt>
      <trkpt lat="45.57406" lon="5.58889">
        <ele>261</ele>
        <time>2023-02-14T08:13:45.797Z</time>
      </trkpt>
      <trkpt lat="45.57404" lon="5.58887">
        <ele>261</ele>
        <time>2023-02-14T08:13:46.797Z</time>
      </trkpt>
      <trkpt lat="45.57401" lon="5.58884">
        <ele>262</ele>
        <time>2023-02-14T08:13:47.797Z</time>
      </trkpt>
      <trkpt lat="45.57399" lon="5.58882">
        <ele>262</ele>
        <time>2023-02-14T08:13:48.797Z</time>
      </trkpt>
      <trkpt lat="45.57396" lon="5.58879">
        <ele>262</ele>
        <time>2023-02-14T08:13:49.797Z</time>
      </trkpt>
      <trkpt lat="45.57394" lon="5.58876">
        <ele>262</ele>
        <time>2023-02-14T08:13:50.797Z</time>
      </trkpt>
      <trkpt lat="45.57391" lon="5.58873">
        <ele>262</ele>
        <time>2023-02-14T08:13:51.797Z</time>
      </trkpt>
      <trkpt lat="45.57388" lon="5.58869">
        <ele>262</ele>
        <time>2023-02-14T08:13:52.797Z</time>
      </trkpt>
      <trkpt lat="45.57385" lon="5.58866">
        <ele>262</ele>
        <time>2023-02-14T08:13:53.797Z</time>
      </trkpt>
      <trkpt lat="45.57382" lon="5.58863">
        <ele>262</ele>
        <time>2023-02-14T08:13:54.797Z</time>
      </trkpt>
      <trkpt lat="45.57379" lon="5.58859">
        <ele>262</ele>
        <time>2023-02-14T08:13:55.797Z</time>
      </trkpt>
      <trkpt lat="45.57376" lon="5.58856">
        <ele>263</ele>
        <time>2023-02-14T08:13:56.797Z</time>
      </trkpt>
      <trkpt lat="45.57373" lon="5.58853">
        <ele>263</ele>
        <time>2023-02-14T08:13:57.797Z</time>
      </trkpt>
      <trkpt lat="45.57371" lon="5.5885">
        <ele>262</ele>
        <time>2023-02-14T08:13:58.797Z</time>
      </trkpt>
      <trkpt lat="45.57368" lon="5.58847">
        <ele>263</ele>
        <time>2023-02-14T08:13:59.797Z</time>
      </trkpt>
      <trkpt lat="45.57364" lon="5.58844">
        <ele>262</ele>
        <time>2023-02-14T08:14:00.797Z</time>
      </trkpt>
      <trkpt lat="45.5736" lon="5.58841">
        <ele>261</ele>
        <time>2023-02-14T08:14:01.797Z</time>
      </trkpt>
      <trkpt lat="45.57356" lon="5.58838">
        <ele>260</ele>
        <time>2023-02-14T08:14:02.797Z</time>
      </trkpt>
      <trkpt lat="45.57353" lon="5.58836">
        <ele>259</ele>
        <time>2023-02-14T08:14:03.797Z</time>
      </trkpt>
      <trkpt lat="45.57349" lon="5.58833">
        <ele>259</ele>
        <time>2023-02-14T08:14:04.797Z</time>
      </trkpt>
      <trkpt lat="45.57345" lon="5.5883">
        <ele>259</ele>
        <time>2023-02-14T08:14:05.797Z</time>
      </trkpt>
      <trkpt lat="45.57341" lon="5.58827">
        <ele>259</ele>
        <time>2023-02-14T08:14:06.797Z</time>
      </trkpt>
      <trkpt lat="45.57337" lon="5.58824">
        <ele>259</ele>
        <time>2023-02-14T08:14:07.797Z</time>
      </trkpt>
      <trkpt lat="45.57333" lon="5.58821">
        <ele>259</ele>
        <time>2023-02-14T08:14:08.797Z</time>
      </trkpt>
      <trkpt lat="45.57329" lon="5.58818">
        <ele>259</ele>
        <time>2023-02-14T08:14:09.797Z</time>
      </trkpt>
      <trkpt lat="45.57326" lon="5.58816">
        <ele>259</ele>
        <time>2023-02-14T08:14:10.797Z</time>
      </trkpt>
      <trkpt lat="45.57322" lon="5.58813">
        <ele>259</ele>
        <time>2023-02-14T08:14:11.797Z</time>
      </trkpt>
      <trkpt lat="45.57318" lon="5.5881">
        <ele>259</ele>
        <time>2023-02-14T08:14:12.797Z</time>
      </trkpt>
      <trkpt lat="45.57314" lon="5.58807">
        <ele>259</ele>
        <time>2023-02-14T08:14:13.797Z</time>
      </trkpt>
      <trkpt lat="45.5731" lon="5.58804">
        <ele>259</ele>
        <time>2023-02-14T08:14:14.797Z</time>
      </trkpt>
      <trkpt lat="45.57307" lon="5.58801">
        <ele>259</ele>
        <time>2023-02-14T08:14:15.797Z</time>
      </trkpt>
      <trkpt lat="45.57303" lon="5.58798">
        <ele>259</ele>
        <time>2023-02-14T08:14:16.797Z</time>
      </trkpt>
      <trkpt lat="45.573" lon="5.58795">
        <ele>259</ele>
        <time>2023-02-14T08:14:17.797Z</time>
      </trkpt>
      <trkpt lat="45.57296" lon="5.58791">
        <ele>259</ele>
        <time>2023-02-14T08:14:18.797Z</time>
      </trkpt>
      <trkpt lat="45.57293" lon="5.58788">
        <ele>259</ele>
        <time>2023-02-14T08:14:19.797Z</time>
      </trkpt>
      <trkpt lat="45.57289" lon="5.58784">
        <ele>260</ele>
        <time>2023-02-14T08:14:20.797Z</time>
      </trkpt>
      <trkpt lat="45.57286" lon="5.5878">
        <ele>260</ele>
        <time>2023-02-14T08:14:21.797Z</time>
      </trkpt>
      <trkpt lat="45.57283" lon="5.58776">
        <ele>260</ele>
        <time>2023-02-14T08:14:22.797Z</time>
      </trkpt>
      <trkpt lat="45.5728" lon="5.58772">
        <ele>260</ele>
        <time>2023-02-14T08:14:23.797Z</time>
      </trkpt>
      <trkpt lat="45.57277" lon="5.58767">
        <ele>260</ele>
        <time>2023-02-14T08:14:24.797Z</time>
      </trkpt>
      <trkpt lat="45.57274" lon="5.58763">
        <ele>260</ele>
        <time>2023-02-14T08:14:25.797Z</time>
      </trkpt>
      <trkpt lat="45.57272" lon="5.58758">
        <ele>261</ele>
        <time>2023-02-14T08:14:26.797Z</time>
      </trkpt>
      <trkpt lat="45.57269" lon="5.58754">
        <ele>261</ele>
        <time>2023-02-14T08:14:27.797Z</time>
      </trkpt>
      <trkpt lat="45.57266" lon="5.5875">
        <ele>261</ele>
        <time>2023-02-14T08:14:28.797Z</time>
      </trkpt>
      <trkpt lat="45.57263" lon="5.58746">
        <ele>261</ele>
        <time>2023-02-14T08:14:29.797Z</time>
      </trkpt>
      <trkpt lat="45.5726" lon="5.58742">
        <ele>261</ele>
        <time>2023-02-14T08:14:30.797Z</time>
      </trkpt>
      <trkpt lat="45.57257" lon="5.58738">
        <ele>261</ele>
        <time>2023-02-14T08:14:31.797Z</time>
      </trkpt>
      <trkpt lat="45.57254" lon="5.58735">
        <ele>261</ele>
        <time>2023-02-14T08:14:32.797Z</time>
      </trkpt>
      <trkpt lat="45.5725" lon="5.58732">
        <ele>261</ele>
        <time>2023-02-14T08:14:33.797Z</time>
      </trkpt>
      <trkpt lat="45.57247" lon="5.58729">
        <ele>262</ele>
        <time>2023-02-14T08:14:34.797Z</time>
      </trkpt>
      <trkpt lat="45.57244" lon="5.58726">
        <ele>262</ele>
        <time>2023-02-14T08:14:35.797Z</time>
      </trkpt>
      <trkpt lat="45.57241" lon="5.58723">
        <ele>262</ele>
        <time>2023-02-14T08:14:36.797Z</time>
      </trkpt>
      <trkpt lat="45.57237" lon="5.5872">
        <ele>262</ele>
        <time>2023-02-14T08:14:37.797Z</time>
      </trkpt>
      <trkpt lat="45.57234" lon="5.58717">
        <ele>262</ele>
        <time>2023-02-14T08:14:38.797Z</time>
      </trkpt>
      <trkpt lat="45.57231" lon="5.58714">
        <ele>262</ele>
        <time>2023-02-14T08:14:39.797Z</time>
      </trkpt>
      <trkpt lat="45.57227" lon="5.58712">
        <ele>262</ele>
        <time>2023-02-14T08:14:40.797Z</time>
      </trkpt>
      <trkpt lat="45.57224" lon="5.58709">
        <ele>262</ele>
        <time>2023-02-14T08:14:41.797Z</time>
      </trkpt>
      <trkpt lat="45.57221" lon="5.58707">
        <ele>262</ele>
        <time>2023-02-14T08:14:42.797Z</time>
      </trkpt>
      <trkpt lat="45.57218" lon="5.58704">
        <ele>262</ele>
        <time>2023-02-14T08:14:43.797Z</time>
      </trkpt>
      <trkpt lat="45.57215" lon="5.58701">
        <ele>262</ele>
        <time>2023-02-14T08:14:44.797Z</time>
      </trkpt>
      <trkpt lat="45.57212" lon="5.58699">
        <ele>262</ele>
        <time>2023-02-14T08:14:45.797Z</time>
      </trkpt>
      <trkpt lat="45.57209" lon="5.58696">
        <ele>263</ele>
        <time>2023-02-14T08:14:46.797Z</time>
      </trkpt>
      <trkpt lat="45.57206" lon="5.58693">
        <ele>263</ele>
        <time>2023-02-14T08:14:47.797Z</time>
      </trkpt>
      <trkpt lat="45.57203" lon="5.5869">
        <ele>263</ele>
        <time>2023-02-14T08:14:48.797Z</time>
      </trkpt>
      <trkpt lat="45.572" lon="5.58687">
        <ele>263</ele>
        <time>2023-02-14T08:14:49.797Z</time>
      </trkpt>
      <trkpt lat="45.57198" lon="5.58683">
        <ele>263</ele>
        <time>2023-02-14T08:14:50.797Z</time>
      </trkpt>
      <trkpt lat="45.57197" lon="5.58679">
        <ele>262</ele>
        <time>2023-02-14T08:14:51.797Z</time>
      </trkpt>
      <trkpt lat="45.57196" lon="5.58675">
        <ele>263</ele>
        <time>2023-02-14T08:14:52.797Z</time>
      </trkpt>
      <trkpt lat="45.57197" lon="5.58671">
        <ele>263</ele>
        <time>2023-02-14T08:14:53.797Z</time>
      </trkpt>
      <trkpt lat="45.57199" lon="5.58669">
        <ele>262</ele>
        <time>2023-02-14T08:14:54.797Z</time>
      </trkpt>
      <trkpt lat="45.57201" lon="5.58667">
        <ele>261</ele>
        <time>2023-02-14T08:14:55.797Z</time>
      </trkpt>
      <trkpt lat="45.57203" lon="5.58666">
        <ele>261</ele>
        <time>2023-02-14T08:14:56.797Z</time>
      </trkpt>
      <trkpt lat="45.57206" lon="5.58665">
        <ele>261</ele>
        <time>2023-02-14T08:14:57.797Z</time>
      </trkpt>
      <trkpt lat="45.57209" lon="5.58663">
        <ele>261</ele>
        <time>2023-02-14T08:14:58.797Z</time>
      </trkpt>
      <trkpt lat="45.57212" lon="5.58662">
        <ele>261</ele>
        <time>2023-02-14T08:14:59.797Z</time>
      </trkpt>
      <trkpt lat="45.57216" lon="5.5866">
        <ele>260</ele>
        <time>2023-02-14T08:15:00.797Z</time>
      </trkpt>
      <trkpt lat="45.5722" lon="5.58658">
        <ele>260</ele>
        <time>2023-02-14T08:15:01.797Z</time>
      </trkpt>
      <trkpt lat="45.57224" lon="5.58655">
        <ele>259</ele>
        <time>2023-02-14T08:15:02.797Z</time>
      </trkpt>
      <trkpt lat="45.57228" lon="5.58653">
        <ele>260</ele>
        <time>2023-02-14T08:15:03.797Z</time>
      </trkpt>
      <trkpt lat="45.57232" lon="5.5865">
        <ele>260</ele>
        <time>2023-02-14T08:15:04.797Z</time>
      </trkpt>
      <trkpt lat="45.57236" lon="5.58647">
        <ele>260</ele>
        <time>2023-02-14T08:15:05.797Z</time>
      </trkpt>
      <trkpt lat="45.5724" lon="5.58645">
        <ele>259</ele>
        <time>2023-02-14T08:15:06.797Z</time>
      </trkpt>
      <trkpt lat="45.57243" lon="5.58642">
        <ele>259</ele>
        <time>2023-02-14T08:15:07.797Z</time>
      </trkpt>
      <trkpt lat="45.57247" lon="5.58639">
        <ele>259</ele>
        <time>2023-02-14T08:15:08.797Z</time>
      </trkpt>
      <trkpt lat="45.5725" lon="5.58636">
        <ele>259</ele>
        <time>2023-02-14T08:15:09.797Z</time>
      </trkpt>
      <trkpt lat="45.57254" lon="5.58633">
        <ele>259</ele>
        <time>2023-02-14T08:15:10.797Z</time>
      </trkpt>
      <trkpt lat="45.57257" lon="5.5863">
        <ele>259</ele>
        <time>2023-02-14T08:15:11.797Z</time>
      </trkpt>
      <trkpt lat="45.5726" lon="5.58628">
        <ele>260</ele>
        <time>2023-02-14T08:15:12.797Z</time>
      </trkpt>
      <trkpt lat="45.57263" lon="5.58625">
        <ele>260</ele>
        <time>2023-02-14T08:15:13.797Z</time>
      </trkpt>
      <trkpt lat="45.57266" lon="5.58622">
        <ele>260</ele>
        <time>2023-02-14T08:15:14.797Z</time>
      </trkpt>
      <trkpt lat="45.57269" lon="5.58619">
        <ele>260</ele>
        <time>2023-02-14T08:15:15.797Z</time>
      </trkpt>
      <trkpt lat="45.57272" lon="5.58616">
        <ele>260</ele>
        <time>2023-02-14T08:15:16.797Z</time>
      </trkpt>
      <trkpt lat="45.57274" lon="5.58613">
        <ele>260</ele>
        <time>2023-02-14T08:15:17.797Z</time>
      </trkpt>
      <trkpt lat="45.57277" lon="5.58611">
        <ele>260</ele>
        <time>2023-02-14T08:15:18.797Z</time>
      </trkpt>
      <trkpt lat="45.5728" lon="5.58608">
        <ele>260</ele>
        <time>2023-02-14T08:15:19.797Z</time>
      </trkpt>
      <trkpt lat="45.57282" lon="5.58605">
        <ele>260</ele>
        <time>2023-02-14T08:15:20.797Z</time>
      </trkpt>
      <trkpt lat="45.57284" lon="5.58602">
        <ele>261</ele>
        <time>2023-02-14T08:15:21.797Z</time>
      </trkpt>
      <trkpt lat="45.57286" lon="5.586">
        <ele>261</ele>
        <time>2023-02-14T08:15:22.797Z</time>
      </trkpt>
      <trkpt lat="45.57289" lon="5.58597">
        <ele>261</ele>
        <time>2023-02-14T08:15:23.797Z</time>
      </trkpt>
      <trkpt lat="45.57291" lon="5.58595">
        <ele>261</ele>
        <time>2023-02-14T08:15:24.797Z</time>
      </trkpt>
      <trkpt lat="45.57294" lon="5.58592">
        <ele>261</ele>
        <time>2023-02-14T08:15:25.797Z</time>
      </trkpt>
      <trkpt lat="45.57296" lon="5.58589">
        <ele>262</ele>
        <time>2023-02-14T08:15:26.797Z</time>
      </trkpt>
      <trkpt lat="45.57298" lon="5.58586">
        <ele>262</ele>
        <time>2023-02-14T08:15:27.797Z</time>
      </trkpt>
      <trkpt lat="45.57301" lon="5.58583">
        <ele>262</ele>
        <time>2023-02-14T08:15:28.797Z</time>
      </trkpt>
      <trkpt lat="45.57303" lon="5.5858">
        <ele>262</ele>
        <time>2023-02-14T08:15:29.797Z</time>
      </trkpt>
      <trkpt lat="45.57305" lon="5.58577">
        <ele>262</ele>
        <time>2023-02-14T08:15:30.797Z</time>
      </trkpt>
      <trkpt lat="45.57307" lon="5.58574">
        <ele>263</ele>
        <time>2023-02-14T08:15:31.797Z</time>
      </trkpt>
      <trkpt lat="45.57309" lon="5.58571">
        <ele>263</ele>
        <time>2023-02-14T08:15:32.797Z</time>
      </trkpt>
      <trkpt lat="45.57311" lon="5.58568">
        <ele>263</ele>
        <time>2023-02-14T08:15:33.797Z</time>
      </trkpt>
      <trkpt lat="45.57313" lon="5.58565">
        <ele>263</ele>
        <time>2023-02-14T08:15:34.797Z</time>
      </trkpt>
      <trkpt lat="45.57315" lon="5.58562">
        <ele>263</ele>
        <time>2023-02-14T08:15:35.797Z</time>
      </trkpt>
      <trkpt lat="45.57317" lon="5.58559">
        <ele>264</ele>
        <time>2023-02-14T08:15:36.797Z</time>
      </trkpt>
      <trkpt lat="45.57319" lon="5.58556">
        <ele>264</ele>
        <time>2023-02-14T08:15:37.797Z</time>
      </trkpt>
      <trkpt lat="45.57321" lon="5.58553">
        <ele>264</ele>
        <time>2023-02-14T08:15:38.797Z</time>
      </trkpt>
      <trkpt lat="45.57323" lon="5.5855">
        <ele>264</ele>
        <time>2023-02-14T08:15:39.797Z</time>
      </trkpt>
      <trkpt lat="45.57325" lon="5.58548">
        <ele>265</ele>
        <time>2023-02-14T08:15:40.797Z</time>
      </trkpt>
      <trkpt lat="45.57328" lon="5.58545">
        <ele>265</ele>
        <time>2023-02-14T08:15:41.797Z</time>
      </trkpt>
      <trkpt lat="45.5733" lon="5.58543">
        <ele>265</ele>
        <time>2023-02-14T08:15:42.797Z</time>
      </trkpt>
      <trkpt lat="45.57332" lon="5.58541">
        <ele>265</ele>
        <time>2023-02-14T08:15:43.797Z</time>
      </trkpt>
      <trkpt lat="45.57334" lon="5.58538">
        <ele>265</ele>
        <time>2023-02-14T08:15:44.797Z</time>
      </trkpt>
      <trkpt lat="45.57336" lon="5.58536">
        <ele>265</ele>
        <time>2023-02-14T08:15:45.797Z</time>
      </trkpt>
      <trkpt lat="45.57339" lon="5.58535">
        <ele>265</ele>
        <time>2023-02-14T08:15:46.797Z</time>
      </trkpt>
      <trkpt lat="45.57343" lon="5.58534">
        <ele>265</ele>
        <time>2023-02-14T08:15:47.797Z</time>
      </trkpt>
      <trkpt lat="45.57346" lon="5.58532">
        <ele>265</ele>
        <time>2023-02-14T08:15:48.797Z</time>
      </trkpt>
      <trkpt lat="45.57349" lon="5.58531">
        <ele>265</ele>
        <time>2023-02-14T08:15:49.797Z</time>
      </trkpt>
      <trkpt lat="45.57352" lon="5.5853">
        <ele>265</ele>
        <time>2023-02-14T08:15:50.797Z</time>
      </trkpt>
      <trkpt lat="45.57356" lon="5.58529">
        <ele>265</ele>
        <time>2023-02-14T08:15:51.797Z</time>
      </trkpt>
      <trkpt lat="45.57359" lon="5.58529">
        <ele>265</ele>
        <time>2023-02-14T08:15:52.797Z</time>
      </trkpt>
      <trkpt lat="45.57363" lon="5.58529">
        <ele>265</ele>
        <time>2023-02-14T08:15:53.797Z</time>
      </trkpt>
      <trkpt lat="45.57367" lon="5.58529">
        <ele>265</ele>
        <time>2023-02-14T08:15:54.797Z</time>
      </trkpt>
      <trkpt lat="45.5737" lon="5.58529">
        <ele>265</ele>
        <time>2023-02-14T08:15:55.797Z</time>
      </trkpt>
      <trkpt lat="45.57374" lon="5.58528">
        <ele>265</ele>
        <time>2023-02-14T08:15:56.797Z</time>
      </trkpt>
      <trkpt lat="45.57377" lon="5.58528">
        <ele>265</ele>
        <time>2023-02-14T08:15:57.797Z</time>
      </trkpt>
      <trkpt lat="45.5738" lon="5.58526">
        <ele>264</ele>
        <time>2023-02-14T08:15:58.797Z</time>
      </trkpt>
      <trkpt lat="45.57383" lon="5.58523">
        <ele>263</ele>
        <time>2023-02-14T08:15:59.797Z</time>
      </trkpt>
      <trkpt lat="45.57386" lon="5.58519">
        <ele>263</ele>
        <time>2023-02-14T08:16:00.797Z</time>
      </trkpt>
      <trkpt lat="45.57387" lon="5.58516">
        <ele>264</ele>
        <time>2023-02-14T08:16:01.797Z</time>
      </trkpt>
      <trkpt lat="45.57387" lon="5.58513">
        <ele>264</ele>
        <time>2023-02-14T08:16:02.797Z</time>
      </trkpt>
      <trkpt lat="45.57387" lon="5.5851">
        <ele>264</ele>
        <time>2023-02-14T08:16:03.797Z</time>
      </trkpt>
      <trkpt lat="45.57386" lon="5.58506">
        <ele>265</ele>
        <time>2023-02-14T08:16:04.797Z</time>
      </trkpt>
      <trkpt lat="45.57387" lon="5.58504">
        <ele>265</ele>
        <time>2023-02-14T08:16:05.797Z</time>
      </trkpt>
      <trkpt lat="45.57387" lon="5.58501">
        <ele>265</ele>
        <time>2023-02-14T08:16:06.797Z</time>
      </trkpt>
      <trkpt lat="45.57387" lon="5.58498">
        <ele>265</ele>
        <time>2023-02-14T08:16:07.797Z</time>
      </trkpt>
      <trkpt lat="45.57387" lon="5.58496">
        <ele>266</ele>
        <time>2023-02-14T08:16:08.797Z</time>
      </trkpt>
      <trkpt lat="45.57387" lon="5.58493">
        <ele>266</ele>
        <time>2023-02-14T08:16:09.797Z</time>
      </trkpt>
      <trkpt lat="45.57388" lon="5.5849">
        <ele>266</ele>
        <time>2023-02-14T08:16:10.797Z</time>
      </trkpt>
      <trkpt lat="45.57388" lon="5.58487">
        <ele>266</ele>
        <time>2023-02-14T08:16:11.797Z</time>
      </trkpt>
      <trkpt lat="45.57388" lon="5.58484">
        <ele>267</ele>
        <time>2023-02-14T08:16:12.797Z</time>
      </trkpt>
      <trkpt lat="45.57388" lon="5.58481">
        <ele>267</ele>
        <time>2023-02-14T08:16:13.797Z</time>
      </trkpt>
      <trkpt lat="45.57388" lon="5.58478">
        <ele>267</ele>
        <time>2023-02-14T08:16:14.797Z</time>
      </trkpt>
      <trkpt lat="45.57389" lon="5.58475">
        <ele>267</ele>
        <time>2023-02-14T08:16:15.797Z</time>
      </trkpt>
      <trkpt lat="45.57389" lon="5.58472">
        <ele>267</ele>
        <time>2023-02-14T08:16:16.797Z</time>
      </trkpt>
      <trkpt lat="45.57389" lon="5.58469">
        <ele>267</ele>
        <time>2023-02-14T08:16:17.797Z</time>
      </trkpt>
      <trkpt lat="45.5739" lon="5.58466">
        <ele>267</ele>
        <time>2023-02-14T08:16:18.797Z</time>
      </trkpt>
      <trkpt lat="45.5739" lon="5.58463">
        <ele>267</ele>
        <time>2023-02-14T08:16:19.797Z</time>
      </trkpt>
      <trkpt lat="45.57391" lon="5.5846">
        <ele>268</ele>
        <time>2023-02-14T08:16:20.797Z</time>
      </trkpt>
      <trkpt lat="45.57391" lon="5.58457">
        <ele>268</ele>
        <time>2023-02-14T08:16:21.797Z</time>
      </trkpt>
      <trkpt lat="45.57392" lon="5.58454">
        <ele>268</ele>
        <time>2023-02-14T08:16:22.797Z</time>
      </trkpt>
      <trkpt lat="45.57392" lon="5.58451">
        <ele>268</ele>
        <time>2023-02-14T08:16:23.797Z</time>
      </trkpt>
      <trkpt lat="45.57393" lon="5.58448">
        <ele>269</ele>
        <time>2023-02-14T08:16:24.797Z</time>
      </trkpt>
      <trkpt lat="45.57393" lon="5.58445">
        <ele>269</ele>
        <time>2023-02-14T08:16:25.797Z</time>
      </trkpt>
      <trkpt lat="45.57394" lon="5.58442">
        <ele>269</ele>
        <time>2023-02-14T08:16:26.797Z</time>
      </trkpt>
      <trkpt lat="45.57394" lon="5.58439">
        <ele>269</ele>
        <time>2023-02-14T08:16:27.797Z</time>
      </trkpt>
      <trkpt lat="45.57395" lon="5.58436">
        <ele>269</ele>
        <time>2023-02-14T08:16:28.797Z</time>
      </trkpt>
      <trkpt lat="45.57395" lon="5.58433">
        <ele>270</ele>
        <time>2023-02-14T08:16:29.797Z</time>
      </trkpt>
      <trkpt lat="45.57395" lon="5.5843">
        <ele>270</ele>
        <time>2023-02-14T08:16:30.797Z</time>
      </trkpt>
      <trkpt lat="45.57396" lon="5.58427">
        <ele>270</ele>
        <time>2023-02-14T08:16:31.797Z</time>
      </trkpt>
      <trkpt lat="45.57397" lon="5.58424">
        <ele>270</ele>
        <time>2023-02-14T08:16:32.797Z</time>
      </trkpt>
      <trkpt lat="45.57397" lon="5.58421">
        <ele>270</ele>
        <time>2023-02-14T08:16:33.797Z</time>
      </trkpt>
      <trkpt lat="45.57398" lon="5.58418">
        <ele>270</ele>
        <time>2023-02-14T08:16:34.797Z</time>
      </trkpt>
      <trkpt lat="45.57399" lon="5.58415">
        <ele>270</ele>
        <time>2023-02-14T08:16:35.797Z</time>
      </trkpt>
      <trkpt lat="45.574" lon="5.58413">
        <ele>270</ele>
        <time>2023-02-14T08:16:36.797Z</time>
      </trkpt>
      <trkpt lat="45.57401" lon="5.5841">
        <ele>270</ele>
        <time>2023-02-14T08:16:37.797Z</time>
      </trkpt>
      <trkpt lat="45.57401" lon="5.58407">
        <ele>270</ele>
        <time>2023-02-14T08:16:38.797Z</time>
      </trkpt>
      <trkpt lat="45.57402" lon="5.58404">
        <ele>270</ele>
        <time>2023-02-14T08:16:39.797Z</time>
      </trkpt>
      <trkpt lat="45.57403" lon="5.58401">
        <ele>270</ele>
        <time>2023-02-14T08:16:40.797Z</time>
      </trkpt>
      <trkpt lat="45.57404" lon="5.58399">
        <ele>271</ele>
        <time>2023-02-14T08:16:41.797Z</time>
      </trkpt>
      <trkpt lat="45.57405" lon="5.58396">
        <ele>271</ele>
        <time>2023-02-14T08:16:42.797Z</time>
      </trkpt>
      <trkpt lat="45.57406" lon="5.58393">
        <ele>271</ele>
        <time>2023-02-14T08:16:43.797Z</time>
      </trkpt>
      <trkpt lat="45.57406" lon="5.5839">
        <ele>272</ele>
        <time>2023-02-14T08:16:44.797Z</time>
      </trkpt>
      <trkpt lat="45.57407" lon="5.58387">
        <ele>272</ele>
        <time>2023-02-14T08:16:45.797Z</time>
      </trkpt>
      <trkpt lat="45.57408" lon="5.58384">
        <ele>273</ele>
        <time>2023-02-14T08:16:46.797Z</time>
      </trkpt>
      <trkpt lat="45.57408" lon="5.58381">
        <ele>273</ele>
        <time>2023-02-14T08:16:47.797Z</time>
      </trkpt>
      <trkpt lat="45.57409" lon="5.58378">
        <ele>274</ele>
        <time>2023-02-14T08:16:48.797Z</time>
      </trkpt>
      <trkpt lat="45.5741" lon="5.58376">
        <ele>274</ele>
        <time>2023-02-14T08:16:49.797Z</time>
      </trkpt>
      <trkpt lat="45.57411" lon="5.58373">
        <ele>275</ele>
        <time>2023-02-14T08:16:50.797Z</time>
      </trkpt>
      <trkpt lat="45.57412" lon="5.5837">
        <ele>275</ele>
        <time>2023-02-14T08:16:51.797Z</time>
      </trkpt>
      <trkpt lat="45.57413" lon="5.58367">
        <ele>275</ele>
        <time>2023-02-14T08:16:52.797Z</time>
      </trkpt>
      <trkpt lat="45.57414" lon="5.58364">
        <ele>275</ele>
        <time>2023-02-14T08:16:53.797Z</time>
      </trkpt>
      <trkpt lat="45.57415" lon="5.58361">
        <ele>275</ele>
        <time>2023-02-14T08:16:54.797Z</time>
      </trkpt>
      <trkpt lat="45.57416" lon="5.58358">
        <ele>276</ele>
        <time>2023-02-14T08:16:55.797Z</time>
      </trkpt>
      <trkpt lat="45.57417" lon="5.58355">
        <ele>276</ele>
        <time>2023-02-14T08:16:56.797Z</time>
      </trkpt>
      <trkpt lat="45.57418" lon="5.58352">
        <ele>276</ele>
        <time>2023-02-14T08:16:57.797Z</time>
      </trkpt>
      <trkpt lat="45.57419" lon="5.58349">
        <ele>277</ele>
        <time>2023-02-14T08:16:58.797Z</time>
      </trkpt>
      <trkpt lat="45.57419" lon="5.58346">
        <ele>277</ele>
        <time>2023-02-14T08:16:59.797Z</time>
      </trkpt>
      <trkpt lat="45.5742" lon="5.58343">
        <ele>278</ele>
        <time>2023-02-14T08:17:00.797Z</time>
      </trkpt>
      <trkpt lat="45.57421" lon="5.5834">
        <ele>278</ele>
        <time>2023-02-14T08:17:01.797Z</time>
      </trkpt>
      <trkpt lat="45.57422" lon="5.58337">
        <ele>278</ele>
        <time>2023-02-14T08:17:02.797Z</time>
      </trkpt>
      <trkpt lat="45.57423" lon="5.58335">
        <ele>279</ele>
        <time>2023-02-14T08:17:03.797Z</time>
      </trkpt>
      <trkpt lat="45.57424" lon="5.58332">
        <ele>279</ele>
        <time>2023-02-14T08:17:04.797Z</time>
      </trkpt>
      <trkpt lat="45.57424" lon="5.58329">
        <ele>280</ele>
        <time>2023-02-14T08:17:05.797Z</time>
      </trkpt>
      <trkpt lat="45.57425" lon="5.58325">
        <ele>280</ele>
        <time>2023-02-14T08:17:06.797Z</time>
      </trkpt>
      <trkpt lat="45.57425" lon="5.58322">
        <ele>280</ele>
        <time>2023-02-14T08:17:07.797Z</time>
      </trkpt>
      <trkpt lat="45.57426" lon="5.58319">
        <ele>281</ele>
        <time>2023-02-14T08:17:08.797Z</time>
      </trkpt>
      <trkpt lat="45.57427" lon="5.58316">
        <ele>281</ele>
        <time>2023-02-14T08:17:09.797Z</time>
      </trkpt>
      <trkpt lat="45.57428" lon="5.58313">
        <ele>282</ele>
        <time>2023-02-14T08:17:10.797Z</time>
      </trkpt>
      <trkpt lat="45.57428" lon="5.5831">
        <ele>282</ele>
        <time>2023-02-14T08:17:11.797Z</time>
      </trkpt>
      <trkpt lat="45.57429" lon="5.58307">
        <ele>283</ele>
        <time>2023-02-14T08:17:12.797Z</time>
      </trkpt>
      <trkpt lat="45.57429" lon="5.58304">
        <ele>283</ele>
        <time>2023-02-14T08:17:13.797Z</time>
      </trkpt>
      <trkpt lat="45.5743" lon="5.58301">
        <ele>283</ele>
        <time>2023-02-14T08:17:14.797Z</time>
      </trkpt>
      <trkpt lat="45.57431" lon="5.58298">
        <ele>283</ele>
        <time>2023-02-14T08:17:15.797Z</time>
      </trkpt>
      <trkpt lat="45.57431" lon="5.58295">
        <ele>284</ele>
        <time>2023-02-14T08:17:16.797Z</time>
      </trkpt>
      <trkpt lat="45.57431" lon="5.58292">
        <ele>284</ele>
        <time>2023-02-14T08:17:17.797Z</time>
      </trkpt>
      <trkpt lat="45.57432" lon="5.58289">
        <ele>284</ele>
        <time>2023-02-14T08:17:18.797Z</time>
      </trkpt>
      <trkpt lat="45.57432" lon="5.58286">
        <ele>284</ele>
        <time>2023-02-14T08:17:19.797Z</time>
      </trkpt>
      <trkpt lat="45.57432" lon="5.58283">
        <ele>285</ele>
        <time>2023-02-14T08:17:20.797Z</time>
      </trkpt>
      <trkpt lat="45.57432" lon="5.58279">
        <ele>284</ele>
        <time>2023-02-14T08:17:21.797Z</time>
      </trkpt>
      <trkpt lat="45.57433" lon="5.58276">
        <ele>284</ele>
        <time>2023-02-14T08:17:22.797Z</time>
      </trkpt>
      <trkpt lat="45.57433" lon="5.58273">
        <ele>284</ele>
        <time>2023-02-14T08:17:23.797Z</time>
      </trkpt>
      <trkpt lat="45.57434" lon="5.5827">
        <ele>284</ele>
        <time>2023-02-14T08:17:24.797Z</time>
      </trkpt>
      <trkpt lat="45.57435" lon="5.58267">
        <ele>283</ele>
        <time>2023-02-14T08:17:25.797Z</time>
      </trkpt>
      <trkpt lat="45.57436" lon="5.58263">
        <ele>283</ele>
        <time>2023-02-14T08:17:26.797Z</time>
      </trkpt>
      <trkpt lat="45.57437" lon="5.5826">
        <ele>283</ele>
        <time>2023-02-14T08:17:27.797Z</time>
      </trkpt>
      <trkpt lat="45.57438" lon="5.58257">
        <ele>284</ele>
        <time>2023-02-14T08:17:28.797Z</time>
      </trkpt>
      <trkpt lat="45.57438" lon="5.58254">
        <ele>284</ele>
        <time>2023-02-14T08:17:29.797Z</time>
      </trkpt>
      <trkpt lat="45.57439" lon="5.58251">
        <ele>284</ele>
        <time>2023-02-14T08:17:30.797Z</time>
      </trkpt>
      <trkpt lat="45.57439" lon="5.58248">
        <ele>284</ele>
        <time>2023-02-14T08:17:31.797Z</time>
      </trkpt>
      <trkpt lat="45.5744" lon="5.58245">
        <ele>284</ele>
        <time>2023-02-14T08:17:32.797Z</time>
      </trkpt>
      <trkpt lat="45.57441" lon="5.58242">
        <ele>284</ele>
        <time>2023-02-14T08:17:33.797Z</time>
      </trkpt>
      <trkpt lat="45.57442" lon="5.58239">
        <ele>284</ele>
        <time>2023-02-14T08:17:34.797Z</time>
      </trkpt>
      <trkpt lat="45.57443" lon="5.58235">
        <ele>285</ele>
        <time>2023-02-14T08:17:35.797Z</time>
      </trkpt>
      <trkpt lat="45.57443" lon="5.58232">
        <ele>285</ele>
        <time>2023-02-14T08:17:36.797Z</time>
      </trkpt>
      <trkpt lat="45.57444" lon="5.58229">
        <ele>285</ele>
        <time>2023-02-14T08:17:37.797Z</time>
      </trkpt>
      <trkpt lat="45.57445" lon="5.58226">
        <ele>285</ele>
        <time>2023-02-14T08:17:38.797Z</time>
      </trkpt>
      <trkpt lat="45.57445" lon="5.58223">
        <ele>285</ele>
        <time>2023-02-14T08:17:39.797Z</time>
      </trkpt>
      <trkpt lat="45.57446" lon="5.5822">
        <ele>285</ele>
        <time>2023-02-14T08:17:40.797Z</time>
      </trkpt>
      <trkpt lat="45.57446" lon="5.58217">
        <ele>285</ele>
        <time>2023-02-14T08:17:41.797Z</time>
      </trkpt>
      <trkpt lat="45.57447" lon="5.58214">
        <ele>285</ele>
        <time>2023-02-14T08:17:42.797Z</time>
      </trkpt>
      <trkpt lat="45.57447" lon="5.5821">
        <ele>285</ele>
        <time>2023-02-14T08:17:43.797Z</time>
      </trkpt>
      <trkpt lat="45.57447" lon="5.58207">
        <ele>285</ele>
        <time>2023-02-14T08:17:44.797Z</time>
      </trkpt>
      <trkpt lat="45.57447" lon="5.58204">
        <ele>285</ele>
        <time>2023-02-14T08:17:45.797Z</time>
      </trkpt>
      <trkpt lat="45.57447" lon="5.58201">
        <ele>286</ele>
        <time>2023-02-14T08:17:46.797Z</time>
      </trkpt>
      <trkpt lat="45.57447" lon="5.58198">
        <ele>286</ele>
        <time>2023-02-14T08:17:47.797Z</time>
      </trkpt>
      <trkpt lat="45.57447" lon="5.58195">
        <ele>285</ele>
        <time>2023-02-14T08:17:48.797Z</time>
      </trkpt>
      <trkpt lat="45.57448" lon="5.58191">
        <ele>286</ele>
        <time>2023-02-14T08:17:49.797Z</time>
      </trkpt>
      <trkpt lat="45.57448" lon="5.58188">
        <ele>285</ele>
        <time>2023-02-14T08:17:50.797Z</time>
      </trkpt>
      <trkpt lat="45.57449" lon="5.58185">
        <ele>285</ele>
        <time>2023-02-14T08:17:51.797Z</time>
      </trkpt>
      <trkpt lat="45.5745" lon="5.58182">
        <ele>285</ele>
        <time>2023-02-14T08:17:52.797Z</time>
      </trkpt>
      <trkpt lat="45.57451" lon="5.58179">
        <ele>285</ele>
        <time>2023-02-14T08:17:53.797Z</time>
      </trkpt>
      <trkpt lat="45.57451" lon="5.58175">
        <ele>285</ele>
        <time>2023-02-14T08:17:54.797Z</time>
      </trkpt>
      <trkpt lat="45.57451" lon="5.58172">
        <ele>285</ele>
        <time>2023-02-14T08:17:55.797Z</time>
      </trkpt>
      <trkpt lat="45.57452" lon="5.58169">
        <ele>285</ele>
        <time>2023-02-14T08:17:56.797Z</time>
      </trkpt>
      <trkpt lat="45.57452" lon="5.58166">
        <ele>285</ele>
        <time>2023-02-14T08:17:57.797Z</time>
      </trkpt>
      <trkpt lat="45.57453" lon="5.58162">
        <ele>285</ele>
        <time>2023-02-14T08:17:58.797Z</time>
      </trkpt>
      <trkpt lat="45.57453" lon="5.58159">
        <ele>285</ele>
        <time>2023-02-14T08:17:59.797Z</time>
      </trkpt>
      <trkpt lat="45.57453" lon="5.58155">
        <ele>284</ele>
        <time>2023-02-14T08:18:00.797Z</time>
      </trkpt>
      <trkpt lat="45.57453" lon="5.58152">
        <ele>284</ele>
        <time>2023-02-14T08:18:01.797Z</time>
      </trkpt>
      <trkpt lat="45.57454" lon="5.58149">
        <ele>284</ele>
        <time>2023-02-14T08:18:02.797Z</time>
      </trkpt>
      <trkpt lat="45.57454" lon="5.58145">
        <ele>284</ele>
        <time>2023-02-14T08:18:03.797Z</time>
      </trkpt>
      <trkpt lat="45.57454" lon="5.58142">
        <ele>285</ele>
        <time>2023-02-14T08:18:04.797Z</time>
      </trkpt>
      <trkpt lat="45.57454" lon="5.58138">
        <ele>285</ele>
        <time>2023-02-14T08:18:05.797Z</time>
      </trkpt>
      <trkpt lat="45.57455" lon="5.58135">
        <ele>285</ele>
        <time>2023-02-14T08:18:06.797Z</time>
      </trkpt>
      <trkpt lat="45.57456" lon="5.58131">
        <ele>285</ele>
        <time>2023-02-14T08:18:07.797Z</time>
      </trkpt>
      <trkpt lat="45.57456" lon="5.58127">
        <ele>285</ele>
        <time>2023-02-14T08:18:08.797Z</time>
      </trkpt>
      <trkpt lat="45.57457" lon="5.58124">
        <ele>285</ele>
        <time>2023-02-14T08:18:09.797Z</time>
      </trkpt>
      <trkpt lat="45.57457" lon="5.5812">
        <ele>285</ele>
        <time>2023-02-14T08:18:10.797Z</time>
      </trkpt>
      <trkpt lat="45.57458" lon="5.58116">
        <ele>285</ele>
        <time>2023-02-14T08:18:11.797Z</time>
      </trkpt>
      <trkpt lat="45.57459" lon="5.58113">
        <ele>285</ele>
        <time>2023-02-14T08:18:12.797Z</time>
      </trkpt>
      <trkpt lat="45.5746" lon="5.58109">
        <ele>285</ele>
        <time>2023-02-14T08:18:13.797Z</time>
      </trkpt>
      <trkpt lat="45.57461" lon="5.58105">
        <ele>285</ele>
        <time>2023-02-14T08:18:14.797Z</time>
      </trkpt>
      <trkpt lat="45.57461" lon="5.58101">
        <ele>286</ele>
        <time>2023-02-14T08:18:15.797Z</time>
      </trkpt>
      <trkpt lat="45.57461" lon="5.58097">
        <ele>286</ele>
        <time>2023-02-14T08:18:16.797Z</time>
      </trkpt>
      <trkpt lat="45.57462" lon="5.58093">
        <ele>286</ele>
        <time>2023-02-14T08:18:17.797Z</time>
      </trkpt>
      <trkpt lat="45.57462" lon="5.58089">
        <ele>286</ele>
        <time>2023-02-14T08:18:18.797Z</time>
      </trkpt>
      <trkpt lat="45.57463" lon="5.58086">
        <ele>286</ele>
        <time>2023-02-14T08:18:19.797Z</time>
      </trkpt>
      <trkpt lat="45.57463" lon="5.58082">
        <ele>285</ele>
        <time>2023-02-14T08:18:20.797Z</time>
      </trkpt>
      <trkpt lat="45.57463" lon="5.58079">
        <ele>285</ele>
        <time>2023-02-14T08:18:21.797Z</time>
      </trkpt>
      <trkpt lat="45.57463" lon="5.58075">
        <ele>285</ele>
        <time>2023-02-14T08:18:22.797Z</time>
      </trkpt>
      <trkpt lat="45.57463" lon="5.58072">
        <ele>286</ele>
        <time>2023-02-14T08:18:23.797Z</time>
      </trkpt>
      <trkpt lat="45.57463" lon="5.58069">
        <ele>286</ele>
        <time>2023-02-14T08:18:24.797Z</time>
      </trkpt>
      <trkpt lat="45.57463" lon="5.58065">
        <ele>286</ele>
        <time>2023-02-14T08:18:25.797Z</time>
      </trkpt>
      <trkpt lat="45.57464" lon="5.58061">
        <ele>287</ele>
        <time>2023-02-14T08:18:26.797Z</time>
      </trkpt>
      <trkpt lat="45.57465" lon="5.58058">
        <ele>287</ele>
        <time>2023-02-14T08:18:27.797Z</time>
      </trkpt>
      <trkpt lat="45.57466" lon="5.58055">
        <ele>287</ele>
        <time>2023-02-14T08:18:28.797Z</time>
      </trkpt>
      <trkpt lat="45.57467" lon="5.58052">
        <ele>287</ele>
        <time>2023-02-14T08:18:29.797Z</time>
      </trkpt>
      <trkpt lat="45.57468" lon="5.58049">
        <ele>288</ele>
        <time>2023-02-14T08:18:30.797Z</time>
      </trkpt>
      <trkpt lat="45.57469" lon="5.58046">
        <ele>288</ele>
        <time>2023-02-14T08:18:31.797Z</time>
      </trkpt>
      <trkpt lat="45.5747" lon="5.58042">
        <ele>288</ele>
        <time>2023-02-14T08:18:32.797Z</time>
      </trkpt>
      <trkpt lat="45.5747" lon="5.58039">
        <ele>288</ele>
        <time>2023-02-14T08:18:33.797Z</time>
      </trkpt>
      <trkpt lat="45.57471" lon="5.58037">
        <ele>288</ele>
        <time>2023-02-14T08:18:34.797Z</time>
      </trkpt>
      <trkpt lat="45.57471" lon="5.58034">
        <ele>289</ele>
        <time>2023-02-14T08:18:35.797Z</time>
      </trkpt>
      <trkpt lat="45.57471" lon="5.58031">
        <ele>289</ele>
        <time>2023-02-14T08:18:36.797Z</time>
      </trkpt>
      <trkpt lat="45.57472" lon="5.58028">
        <ele>288</ele>
        <time>2023-02-14T08:18:37.797Z</time>
      </trkpt>
      <trkpt lat="45.57473" lon="5.58025">
        <ele>288</ele>
        <time>2023-02-14T08:18:38.797Z</time>
      </trkpt>
      <trkpt lat="45.57473" lon="5.58023">
        <ele>288</ele>
        <time>2023-02-14T08:18:39.797Z</time>
      </trkpt>
      <trkpt lat="45.57474" lon="5.5802">
        <ele>288</ele>
        <time>2023-02-14T08:18:40.797Z</time>
      </trkpt>
      <trkpt lat="45.57475" lon="5.58017">
        <ele>288</ele>
        <time>2023-02-14T08:18:41.797Z</time>
      </trkpt>
      <trkpt lat="45.57475" lon="5.58014">
        <ele>288</ele>
        <time>2023-02-14T08:18:42.797Z</time>
      </trkpt>
      <trkpt lat="45.57475" lon="5.58012">
        <ele>288</ele>
        <time>2023-02-14T08:18:43.797Z</time>
      </trkpt>
      <trkpt lat="45.57476" lon="5.58009">
        <ele>288</ele>
        <time>2023-02-14T08:18:44.797Z</time>
      </trkpt>
      <trkpt lat="45.57477" lon="5.58006">
        <ele>288</ele>
        <time>2023-02-14T08:18:45.797Z</time>
      </trkpt>
      <trkpt lat="45.57478" lon="5.58004">
        <ele>288</ele>
        <time>2023-02-14T08:18:46.797Z</time>
      </trkpt>
      <trkpt lat="45.57479" lon="5.58001">
        <ele>288</ele>
        <time>2023-02-14T08:18:47.797Z</time>
      </trkpt>
      <trkpt lat="45.5748" lon="5.57998">
        <ele>288</ele>
        <time>2023-02-14T08:18:48.797Z</time>
      </trkpt>
      <trkpt lat="45.57481" lon="5.57996">
        <ele>288</ele>
        <time>2023-02-14T08:18:49.797Z</time>
      </trkpt>
      <trkpt lat="45.57481" lon="5.57993">
        <ele>288</ele>
        <time>2023-02-14T08:18:50.797Z</time>
      </trkpt>
      <trkpt lat="45.57482" lon="5.5799">
        <ele>288</ele>
        <time>2023-02-14T08:18:51.797Z</time>
      </trkpt>
      <trkpt lat="45.57483" lon="5.57987">
        <ele>288</ele>
        <time>2023-02-14T08:18:52.797Z</time>
      </trkpt>
      <trkpt lat="45.57484" lon="5.57985">
        <ele>288</ele>
        <time>2023-02-14T08:18:53.797Z</time>
      </trkpt>
      <trkpt lat="45.57484" lon="5.57982">
        <ele>288</ele>
        <time>2023-02-14T08:18:54.797Z</time>
      </trkpt>
      <trkpt lat="45.57484" lon="5.57979">
        <ele>288</ele>
        <time>2023-02-14T08:18:55.797Z</time>
      </trkpt>
      <trkpt lat="45.57484" lon="5.57976">
        <ele>289</ele>
        <time>2023-02-14T08:18:56.797Z</time>
      </trkpt>
      <trkpt lat="45.57484" lon="5.57973">
        <ele>289</ele>
        <time>2023-02-14T08:18:57.797Z</time>
      </trkpt>
      <trkpt lat="45.57484" lon="5.5797">
        <ele>289</ele>
        <time>2023-02-14T08:18:58.797Z</time>
      </trkpt>
      <trkpt lat="45.57485" lon="5.57967">
        <ele>289</ele>
        <time>2023-02-14T08:18:59.797Z</time>
      </trkpt>
      <trkpt lat="45.57486" lon="5.57965">
        <ele>289</ele>
        <time>2023-02-14T08:19:00.797Z</time>
      </trkpt>
      <trkpt lat="45.57486" lon="5.57961">
        <ele>288</ele>
        <time>2023-02-14T08:19:01.797Z</time>
      </trkpt>
      <trkpt lat="45.57487" lon="5.57958">
        <ele>288</ele>
        <time>2023-02-14T08:19:02.797Z</time>
      </trkpt>
      <trkpt lat="45.57488" lon="5.57955">
        <ele>289</ele>
        <time>2023-02-14T08:19:03.797Z</time>
      </trkpt>
      <trkpt lat="45.57489" lon="5.57952">
        <ele>289</ele>
        <time>2023-02-14T08:19:04.797Z</time>
      </trkpt>
      <trkpt lat="45.57489" lon="5.57949">
        <ele>289</ele>
        <time>2023-02-14T08:19:05.797Z</time>
      </trkpt>
      <trkpt lat="45.5749" lon="5.57945">
        <ele>290</ele>
        <time>2023-02-14T08:19:06.797Z</time>
      </trkpt>
      <trkpt lat="45.57491" lon="5.57942">
        <ele>290</ele>
        <time>2023-02-14T08:19:07.797Z</time>
      </trkpt>
      <trkpt lat="45.57491" lon="5.57939">
        <ele>290</ele>
        <time>2023-02-14T08:19:08.797Z</time>
      </trkpt>
      <trkpt lat="45.57492" lon="5.57935">
        <ele>290</ele>
        <time>2023-02-14T08:19:09.797Z</time>
      </trkpt>
      <trkpt lat="45.57492" lon="5.57931">
        <ele>291</ele>
        <time>2023-02-14T08:19:10.797Z</time>
      </trkpt>
      <trkpt lat="45.57493" lon="5.57928">
        <ele>291</ele>
        <time>2023-02-14T08:19:11.797Z</time>
      </trkpt>
      <trkpt lat="45.57493" lon="5.57924">
        <ele>291</ele>
        <time>2023-02-14T08:19:12.797Z</time>
      </trkpt>
      <trkpt lat="45.57492" lon="5.5792">
        <ele>291</ele>
        <time>2023-02-14T08:19:13.797Z</time>
      </trkpt>
      <trkpt lat="45.57492" lon="5.57917">
        <ele>292</ele>
        <time>2023-02-14T08:19:14.797Z</time>
      </trkpt>
      <trkpt lat="45.57492" lon="5.57913">
        <ele>293</ele>
        <time>2023-02-14T08:19:15.797Z</time>
      </trkpt>
      <trkpt lat="45.57492" lon="5.57908">
        <ele>294</ele>
        <time>2023-02-14T08:19:16.797Z</time>
      </trkpt>
      <trkpt lat="45.57492" lon="5.57904">
        <ele>294</ele>
        <time>2023-02-14T08:19:17.797Z</time>
      </trkpt>
      <trkpt lat="45.57492" lon="5.579">
        <ele>295</ele>
        <time>2023-02-14T08:19:18.797Z</time>
      </trkpt>
      <trkpt lat="45.57493" lon="5.57896">
        <ele>295</ele>
        <time>2023-02-14T08:19:19.797Z</time>
      </trkpt>
      <trkpt lat="45.57493" lon="5.57892">
        <ele>295</ele>
        <time>2023-02-14T08:19:20.797Z</time>
      </trkpt>
      <trkpt lat="45.57494" lon="5.57888">
        <ele>295</ele>
        <time>2023-02-14T08:19:21.797Z</time>
      </trkpt>
      <trkpt lat="45.57495" lon="5.57884">
        <ele>295</ele>
        <time>2023-02-14T08:19:22.797Z</time>
      </trkpt>
      <trkpt lat="45.57496" lon="5.5788">
        <ele>296</ele>
        <time>2023-02-14T08:19:23.797Z</time>
      </trkpt>
      <trkpt lat="45.57496" lon="5.57876">
        <ele>297</ele>
        <time>2023-02-14T08:19:24.797Z</time>
      </trkpt>
      <trkpt lat="45.57497" lon="5.57872">
        <ele>297</ele>
        <time>2023-02-14T08:19:25.797Z</time>
      </trkpt>
      <trkpt lat="45.57497" lon="5.57868">
        <ele>297</ele>
        <time>2023-02-14T08:19:26.797Z</time>
      </trkpt>
      <trkpt lat="45.57498" lon="5.57864">
        <ele>297</ele>
        <time>2023-02-14T08:19:27.797Z</time>
      </trkpt>
      <trkpt lat="45.57499" lon="5.5786">
        <ele>298</ele>
        <time>2023-02-14T08:19:28.797Z</time>
      </trkpt>
      <trkpt lat="45.575" lon="5.57857">
        <ele>298</ele>
        <time>2023-02-14T08:19:29.797Z</time>
      </trkpt>
      <trkpt lat="45.57501" lon="5.57854">
        <ele>298</ele>
        <time>2023-02-14T08:19:30.797Z</time>
      </trkpt>
      <trkpt lat="45.57501" lon="5.57851">
        <ele>298</ele>
        <time>2023-02-14T08:19:31.797Z</time>
      </trkpt>
      <trkpt lat="45.57501" lon="5.57848">
        <ele>298</ele>
        <time>2023-02-14T08:19:32.797Z</time>
      </trkpt>
      <trkpt lat="45.57501" lon="5.57844">
        <ele>299</ele>
        <time>2023-02-14T08:19:33.797Z</time>
      </trkpt>
      <trkpt lat="45.57502" lon="5.5784">
        <ele>299</ele>
        <time>2023-02-14T08:19:34.797Z</time>
      </trkpt>
      <trkpt lat="45.57503" lon="5.57836">
        <ele>300</ele>
        <time>2023-02-14T08:19:35.797Z</time>
      </trkpt>
      <trkpt lat="45.57504" lon="5.57832">
        <ele>300</ele>
        <time>2023-02-14T08:19:36.797Z</time>
      </trkpt>
      <trkpt lat="45.57505" lon="5.57828">
        <ele>300</ele>
        <time>2023-02-14T08:19:37.797Z</time>
      </trkpt>
      <trkpt lat="45.57505" lon="5.57825">
        <ele>300</ele>
        <time>2023-02-14T08:19:38.797Z</time>
      </trkpt>
      <trkpt lat="45.57507" lon="5.57821">
        <ele>300</ele>
        <time>2023-02-14T08:19:39.797Z</time>
      </trkpt>
      <trkpt lat="45.57508" lon="5.57818">
        <ele>300</ele>
        <time>2023-02-14T08:19:40.797Z</time>
      </trkpt>
      <trkpt lat="45.57509" lon="5.57815">
        <ele>300</ele>
        <time>2023-02-14T08:19:41.797Z</time>
      </trkpt>
      <trkpt lat="45.57509" lon="5.57812">
        <ele>300</ele>
        <time>2023-02-14T08:19:42.797Z</time>
      </trkpt>
      <trkpt lat="45.5751" lon="5.57809">
        <ele>300</ele>
        <time>2023-02-14T08:19:43.797Z</time>
      </trkpt>
      <trkpt lat="45.5751" lon="5.57807">
        <ele>300</ele>
        <time>2023-02-14T08:19:44.797Z</time>
      </trkpt>
      <trkpt lat="45.57511" lon="5.57804">
        <ele>301</ele>
        <time>2023-02-14T08:19:45.797Z</time>
      </trkpt>
      <trkpt lat="45.57511" lon="5.57801">
        <ele>301</ele>
        <time>2023-02-14T08:19:46.797Z</time>
      </trkpt>
      <trkpt lat="45.57512" lon="5.57799">
        <ele>302</ele>
        <time>2023-02-14T08:19:47.797Z</time>
      </trkpt>
      <trkpt lat="45.57512" lon="5.57796">
        <ele>302</ele>
        <time>2023-02-14T08:19:48.797Z</time>
      </trkpt>
      <trkpt lat="45.57513" lon="5.57793">
        <ele>302</ele>
        <time>2023-02-14T08:19:49.797Z</time>
      </trkpt>
      <trkpt lat="45.57514" lon="5.5779">
        <ele>302</ele>
        <time>2023-02-14T08:19:50.797Z</time>
      </trkpt>
      <trkpt lat="45.57515" lon="5.57787">
        <ele>302</ele>
        <time>2023-02-14T08:19:51.797Z</time>
      </trkpt>
      <trkpt lat="45.57515" lon="5.57784">
        <ele>302</ele>
        <time>2023-02-14T08:19:52.797Z</time>
      </trkpt>
      <trkpt lat="45.57516" lon="5.5778">
        <ele>302</ele>
        <time>2023-02-14T08:19:53.797Z</time>
      </trkpt>
      <trkpt lat="45.57515" lon="5.57777">
        <ele>303</ele>
        <time>2023-02-14T08:19:54.797Z</time>
      </trkpt>
      <trkpt lat="45.57515" lon="5.57773">
        <ele>304</ele>
        <time>2023-02-14T08:19:55.797Z</time>
      </trkpt>
      <trkpt lat="45.57515" lon="5.57769">
        <ele>304</ele>
        <time>2023-02-14T08:19:56.797Z</time>
      </trkpt>
      <trkpt lat="45.57514" lon="5.57765">
        <ele>304</ele>
        <time>2023-02-14T08:19:57.797Z</time>
      </trkpt>
      <trkpt lat="45.57514" lon="5.57761">
        <ele>305</ele>
        <time>2023-02-14T08:19:58.797Z</time>
      </trkpt>
      <trkpt lat="45.57515" lon="5.57757">
        <ele>305</ele>
        <time>2023-02-14T08:19:59.797Z</time>
      </trkpt>
      <trkpt lat="45.57515" lon="5.57753">
        <ele>305</ele>
        <time>2023-02-14T08:20:00.797Z</time>
      </trkpt>
      <trkpt lat="45.57515" lon="5.57749">
        <ele>306</ele>
        <time>2023-02-14T08:20:01.797Z</time>
      </trkpt>
      <trkpt lat="45.57515" lon="5.57745">
        <ele>306</ele>
        <time>2023-02-14T08:20:02.797Z</time>
      </trkpt>
      <trkpt lat="45.57516" lon="5.57741">
        <ele>306</ele>
        <time>2023-02-14T08:20:03.797Z</time>
      </trkpt>
      <trkpt lat="45.57517" lon="5.57737">
        <ele>306</ele>
        <time>2023-02-14T08:20:04.797Z</time>
      </trkpt>
      <trkpt lat="45.57518" lon="5.57734">
        <ele>306</ele>
        <time>2023-02-14T08:20:05.797Z</time>
      </trkpt>
      <trkpt lat="45.57519" lon="5.5773">
        <ele>306</ele>
        <time>2023-02-14T08:20:06.797Z</time>
      </trkpt>
      <trkpt lat="45.57519" lon="5.57727">
        <ele>306</ele>
        <time>2023-02-14T08:20:07.797Z</time>
      </trkpt>
      <trkpt lat="45.5752" lon="5.57723">
        <ele>306</ele>
        <time>2023-02-14T08:20:08.797Z</time>
      </trkpt>
      <trkpt lat="45.57521" lon="5.5772">
        <ele>306</ele>
        <time>2023-02-14T08:20:09.797Z</time>
      </trkpt>
      <trkpt lat="45.57522" lon="5.57717">
        <ele>307</ele>
        <time>2023-02-14T08:20:10.797Z</time>
      </trkpt>
      <trkpt lat="45.57523" lon="5.57714">
        <ele>307</ele>
        <time>2023-02-14T08:20:11.797Z</time>
      </trkpt>
      <trkpt lat="45.57524" lon="5.57711">
        <ele>307</ele>
        <time>2023-02-14T08:20:12.797Z</time>
      </trkpt>
      <trkpt lat="45.57525" lon="5.57708">
        <ele>307</ele>
        <time>2023-02-14T08:20:13.797Z</time>
      </trkpt>
      <trkpt lat="45.57526" lon="5.57706">
        <ele>307</ele>
        <time>2023-02-14T08:20:14.797Z</time>
      </trkpt>
      <trkpt lat="45.57526" lon="5.57703">
        <ele>307</ele>
        <time>2023-02-14T08:20:15.797Z</time>
      </trkpt>
      <trkpt lat="45.57527" lon="5.577">
        <ele>307</ele>
        <time>2023-02-14T08:20:16.797Z</time>
      </trkpt>
      <trkpt lat="45.57528" lon="5.57697">
        <ele>307</ele>
        <time>2023-02-14T08:20:17.797Z</time>
      </trkpt>
      <trkpt lat="45.5753" lon="5.57694">
        <ele>306</ele>
        <time>2023-02-14T08:20:18.797Z</time>
      </trkpt>
      <trkpt lat="45.57531" lon="5.57692">
        <ele>306</ele>
        <time>2023-02-14T08:20:19.797Z</time>
      </trkpt>
      <trkpt lat="45.57532" lon="5.57689">
        <ele>305</ele>
        <time>2023-02-14T08:20:20.797Z</time>
      </trkpt>
      <trkpt lat="45.57533" lon="5.57686">
        <ele>305</ele>
        <time>2023-02-14T08:20:21.797Z</time>
      </trkpt>
      <trkpt lat="45.57534" lon="5.57683">
        <ele>305</ele>
        <time>2023-02-14T08:20:22.797Z</time>
      </trkpt>
      <trkpt lat="45.57535" lon="5.5768">
        <ele>305</ele>
        <time>2023-02-14T08:20:23.797Z</time>
      </trkpt>
      <trkpt lat="45.57536" lon="5.57677">
        <ele>305</ele>
        <time>2023-02-14T08:20:24.797Z</time>
      </trkpt>
      <trkpt lat="45.57537" lon="5.57674">
        <ele>305</ele>
        <time>2023-02-14T08:20:25.797Z</time>
      </trkpt>
      <trkpt lat="45.57538" lon="5.57671">
        <ele>305</ele>
        <time>2023-02-14T08:20:26.797Z</time>
      </trkpt>
      <trkpt lat="45.57539" lon="5.57668">
        <ele>305</ele>
        <time>2023-02-14T08:20:27.797Z</time>
      </trkpt>
      <trkpt lat="45.5754" lon="5.57665">
        <ele>305</ele>
        <time>2023-02-14T08:20:28.797Z</time>
      </trkpt>
      <trkpt lat="45.57541" lon="5.57662">
        <ele>305</ele>
        <time>2023-02-14T08:20:29.797Z</time>
      </trkpt>
      <trkpt lat="45.57542" lon="5.57659">
        <ele>305</ele>
        <time>2023-02-14T08:20:30.797Z</time>
      </trkpt>
      <trkpt lat="45.57543" lon="5.57656">
        <ele>305</ele>
        <time>2023-02-14T08:20:31.797Z</time>
      </trkpt>
      <trkpt lat="45.57544" lon="5.57653">
        <ele>305</ele>
        <time>2023-02-14T08:20:32.797Z</time>
      </trkpt>
      <trkpt lat="45.57545" lon="5.5765">
        <ele>305</ele>
        <time>2023-02-14T08:20:33.797Z</time>
      </trkpt>
      <trkpt lat="45.57546" lon="5.57648">
        <ele>305</ele>
        <time>2023-02-14T08:20:34.797Z</time>
      </trkpt>
      <trkpt lat="45.57547" lon="5.57645">
        <ele>305</ele>
        <time>2023-02-14T08:20:35.797Z</time>
      </trkpt>
      <trkpt lat="45.57548" lon="5.57641">
        <ele>305</ele>
        <time>2023-02-14T08:20:36.797Z</time>
      </trkpt>
      <trkpt lat="45.57549" lon="5.57638">
        <ele>304</ele>
        <time>2023-02-14T08:20:37.797Z</time>
      </trkpt>
      <trkpt lat="45.5755" lon="5.57635">
        <ele>304</ele>
        <time>2023-02-14T08:20:38.797Z</time>
      </trkpt>
      <trkpt lat="45.57551" lon="5.57632">
        <ele>305</ele>
        <time>2023-02-14T08:20:39.797Z</time>
      </trkpt>
      <trkpt lat="45.57553" lon="5.57629">
        <ele>304</ele>
        <time>2023-02-14T08:20:40.797Z</time>
      </trkpt>
      <trkpt lat="45.57554" lon="5.57626">
        <ele>303</ele>
        <time>2023-02-14T08:20:41.797Z</time>
      </trkpt>
      <trkpt lat="45.57556" lon="5.57623">
        <ele>303</ele>
        <time>2023-02-14T08:20:42.797Z</time>
      </trkpt>
      <trkpt lat="45.57557" lon="5.5762">
        <ele>303</ele>
        <time>2023-02-14T08:20:43.797Z</time>
      </trkpt>
      <trkpt lat="45.57559" lon="5.57617">
        <ele>303</ele>
        <time>2023-02-14T08:20:44.797Z</time>
      </trkpt>
      <trkpt lat="45.5756" lon="5.57614">
        <ele>303</ele>
        <time>2023-02-14T08:20:45.797Z</time>
      </trkpt>
      <trkpt lat="45.57561" lon="5.57611">
        <ele>303</ele>
        <time>2023-02-14T08:20:46.797Z</time>
      </trkpt>
      <trkpt lat="45.57563" lon="5.57608">
        <ele>302</ele>
        <time>2023-02-14T08:20:47.797Z</time>
      </trkpt>
      <trkpt lat="45.57564" lon="5.57605">
        <ele>301</ele>
        <time>2023-02-14T08:20:48.797Z</time>
      </trkpt>
      <trkpt lat="45.57565" lon="5.57602">
        <ele>301</ele>
        <time>2023-02-14T08:20:49.797Z</time>
      </trkpt>
      <trkpt lat="45.57566" lon="5.57599">
        <ele>300</ele>
        <time>2023-02-14T08:20:50.797Z</time>
      </trkpt>
      <trkpt lat="45.57568" lon="5.57596">
        <ele>300</ele>
        <time>2023-02-14T08:20:51.797Z</time>
      </trkpt>
      <trkpt lat="45.57569" lon="5.57592">
        <ele>300</ele>
        <time>2023-02-14T08:20:52.797Z</time>
      </trkpt>
      <trkpt lat="45.5757" lon="5.57589">
        <ele>300</ele>
        <time>2023-02-14T08:20:53.797Z</time>
      </trkpt>
      <trkpt lat="45.57571" lon="5.57586">
        <ele>300</ele>
        <time>2023-02-14T08:20:54.797Z</time>
      </trkpt>
      <trkpt lat="45.57572" lon="5.57583">
        <ele>300</ele>
        <time>2023-02-14T08:20:55.797Z</time>
      </trkpt>
      <trkpt lat="45.57573" lon="5.5758">
        <ele>299</ele>
        <time>2023-02-14T08:20:56.797Z</time>
      </trkpt>
      <trkpt lat="45.57574" lon="5.57576">
        <ele>299</ele>
        <time>2023-02-14T08:20:57.797Z</time>
      </trkpt>
      <trkpt lat="45.57574" lon="5.57573">
        <ele>299</ele>
        <time>2023-02-14T08:20:58.797Z</time>
      </trkpt>
      <trkpt lat="45.57575" lon="5.5757">
        <ele>299</ele>
        <time>2023-02-14T08:20:59.797Z</time>
      </trkpt>
      <trkpt lat="45.57576" lon="5.57566">
        <ele>299</ele>
        <time>2023-02-14T08:21:00.797Z</time>
      </trkpt>
      <trkpt lat="45.57577" lon="5.57563">
        <ele>299</ele>
        <time>2023-02-14T08:21:01.797Z</time>
      </trkpt>
      <trkpt lat="45.57577" lon="5.57559">
        <ele>300</ele>
        <time>2023-02-14T08:21:02.797Z</time>
      </trkpt>
      <trkpt lat="45.57578" lon="5.57556">
        <ele>300</ele>
        <time>2023-02-14T08:21:03.797Z</time>
      </trkpt>
      <trkpt lat="45.57579" lon="5.57553">
        <ele>300</ele>
        <time>2023-02-14T08:21:04.797Z</time>
      </trkpt>
      <trkpt lat="45.5758" lon="5.57549">
        <ele>300</ele>
        <time>2023-02-14T08:21:05.797Z</time>
      </trkpt>
      <trkpt lat="45.57581" lon="5.57546">
        <ele>300</ele>
        <time>2023-02-14T08:21:06.797Z</time>
      </trkpt>
      <trkpt lat="45.57582" lon="5.57543">
        <ele>301</ele>
        <time>2023-02-14T08:21:07.797Z</time>
      </trkpt>
      <trkpt lat="45.57582" lon="5.57539">
        <ele>301</ele>
        <time>2023-02-14T08:21:08.797Z</time>
      </trkpt>
      <trkpt lat="45.57583" lon="5.57536">
        <ele>301</ele>
        <time>2023-02-14T08:21:09.797Z</time>
      </trkpt>
      <trkpt lat="45.57583" lon="5.57533">
        <ele>302</ele>
        <time>2023-02-14T08:21:10.797Z</time>
      </trkpt>
      <trkpt lat="45.57584" lon="5.5753">
        <ele>303</ele>
        <time>2023-02-14T08:21:11.797Z</time>
      </trkpt>
      <trkpt lat="45.57584" lon="5.57526">
        <ele>303</ele>
        <time>2023-02-14T08:21:12.797Z</time>
      </trkpt>
      <trkpt lat="45.57585" lon="5.57522">
        <ele>304</ele>
        <time>2023-02-14T08:21:13.797Z</time>
      </trkpt>
      <trkpt lat="45.57585" lon="5.57518">
        <ele>305</ele>
        <time>2023-02-14T08:21:14.797Z</time>
      </trkpt>
      <trkpt lat="45.57585" lon="5.57515">
        <ele>305</ele>
        <time>2023-02-14T08:21:15.797Z</time>
      </trkpt>
      <trkpt lat="45.57586" lon="5.57511">
        <ele>306</ele>
        <time>2023-02-14T08:21:16.797Z</time>
      </trkpt>
      <trkpt lat="45.57586" lon="5.57508">
        <ele>306</ele>
        <time>2023-02-14T08:21:17.797Z</time>
      </trkpt>
      <trkpt lat="45.57586" lon="5.57505">
        <ele>307</ele>
        <time>2023-02-14T08:21:18.797Z</time>
      </trkpt>
      <trkpt lat="45.57586" lon="5.57501">
        <ele>307</ele>
        <time>2023-02-14T08:21:19.797Z</time>
      </trkpt>
      <trkpt lat="45.57586" lon="5.57498">
        <ele>307</ele>
        <time>2023-02-14T08:21:20.797Z</time>
      </trkpt>
      <trkpt lat="45.57586" lon="5.57495">
        <ele>308</ele>
        <time>2023-02-14T08:21:21.797Z</time>
      </trkpt>
      <trkpt lat="45.57586" lon="5.57492">
        <ele>308</ele>
        <time>2023-02-14T08:21:22.797Z</time>
      </trkpt>
      <trkpt lat="45.57586" lon="5.57489">
        <ele>309</ele>
        <time>2023-02-14T08:21:23.797Z</time>
      </trkpt>
      <trkpt lat="45.57586" lon="5.57485">
        <ele>309</ele>
        <time>2023-02-14T08:21:24.797Z</time>
      </trkpt>
      <trkpt lat="45.57586" lon="5.57482">
        <ele>309</ele>
        <time>2023-02-14T08:21:25.797Z</time>
      </trkpt>
      <trkpt lat="45.57586" lon="5.57478">
        <ele>309</ele>
        <time>2023-02-14T08:21:26.797Z</time>
      </trkpt>
      <trkpt lat="45.57586" lon="5.57475">
        <ele>310</ele>
        <time>2023-02-14T08:21:27.797Z</time>
      </trkpt>
      <trkpt lat="45.57586" lon="5.57472">
        <ele>310</ele>
        <time>2023-02-14T08:21:28.797Z</time>
      </trkpt>
      <trkpt lat="45.57586" lon="5.57469">
        <ele>310</ele>
        <time>2023-02-14T08:21:29.797Z</time>
      </trkpt>
      <trkpt lat="45.57586" lon="5.57466">
        <ele>311</ele>
        <time>2023-02-14T08:21:30.797Z</time>
      </trkpt>
      <trkpt lat="45.57585" lon="5.57462">
        <ele>311</ele>
        <time>2023-02-14T08:21:31.797Z</time>
      </trkpt>
      <trkpt lat="45.57585" lon="5.57459">
        <ele>311</ele>
        <time>2023-02-14T08:21:32.797Z</time>
      </trkpt>
      <trkpt lat="45.57585" lon="5.57456">
        <ele>311</ele>
        <time>2023-02-14T08:21:33.797Z</time>
      </trkpt>
      <trkpt lat="45.57585" lon="5.57452">
        <ele>311</ele>
        <time>2023-02-14T08:21:34.797Z</time>
      </trkpt>
      <trkpt lat="45.57585" lon="5.57449">
        <ele>311</ele>
        <time>2023-02-14T08:21:35.797Z</time>
      </trkpt>
      <trkpt lat="45.57586" lon="5.57445">
        <ele>311</ele>
        <time>2023-02-14T08:21:36.797Z</time>
      </trkpt>
      <trkpt lat="45.57586" lon="5.57442">
        <ele>311</ele>
        <time>2023-02-14T08:21:37.797Z</time>
      </trkpt>
      <trkpt lat="45.57586" lon="5.57438">
        <ele>311</ele>
        <time>2023-02-14T08:21:38.797Z</time>
      </trkpt>
      <trkpt lat="45.57586" lon="5.57435">
        <ele>311</ele>
        <time>2023-02-14T08:21:39.797Z</time>
      </trkpt>
      <trkpt lat="45.57586" lon="5.57431">
        <ele>311</ele>
        <time>2023-02-14T08:21:40.797Z</time>
      </trkpt>
      <trkpt lat="45.57586" lon="5.57427">
        <ele>311</ele>
        <time>2023-02-14T08:21:41.797Z</time>
      </trkpt>
      <trkpt lat="45.57586" lon="5.57424">
        <ele>311</ele>
        <time>2023-02-14T08:21:42.797Z</time>
      </trkpt>
      <trkpt lat="45.57585" lon="5.5742">
        <ele>311</ele>
        <time>2023-02-14T08:21:43.797Z</time>
      </trkpt>
      <trkpt lat="45.57585" lon="5.57416">
        <ele>311</ele>
        <time>2023-02-14T08:21:44.797Z</time>
      </trkpt>
      <trkpt lat="45.57585" lon="5.57412">
        <ele>312</ele>
        <time>2023-02-14T08:21:45.797Z</time>
      </trkpt>
      <trkpt lat="45.57585" lon="5.57409">
        <ele>311</ele>
        <time>2023-02-14T08:21:46.797Z</time>
      </trkpt>
      <trkpt lat="45.57585" lon="5.57405">
        <ele>311</ele>
        <time>2023-02-14T08:21:47.797Z</time>
      </trkpt>
      <trkpt lat="45.57585" lon="5.57401">
        <ele>311</ele>
        <time>2023-02-14T08:21:48.797Z</time>
      </trkpt>
      <trkpt lat="45.57586" lon="5.57397">
        <ele>311</ele>
        <time>2023-02-14T08:21:49.797Z</time>
      </trkpt>
      <trkpt lat="45.57586" lon="5.57394">
        <ele>311</ele>
        <time>2023-02-14T08:21:50.797Z</time>
      </trkpt>
      <trkpt lat="45.57586" lon="5.5739">
        <ele>312</ele>
        <time>2023-02-14T08:21:51.797Z</time>
      </trkpt>
      <trkpt lat="45.57586" lon="5.57386">
        <ele>311</ele>
        <time>2023-02-14T08:21:52.797Z</time>
      </trkpt>
      <trkpt lat="45.57587" lon="5.57382">
        <ele>311</ele>
        <time>2023-02-14T08:21:53.797Z</time>
      </trkpt>
      <trkpt lat="45.57587" lon="5.57378">
        <ele>311</ele>
        <time>2023-02-14T08:21:54.797Z</time>
      </trkpt>
      <trkpt lat="45.57588" lon="5.57374">
        <ele>311</ele>
        <time>2023-02-14T08:21:55.797Z</time>
      </trkpt>
      <trkpt lat="45.57588" lon="5.5737">
        <ele>311</ele>
        <time>2023-02-14T08:21:56.797Z</time>
      </trkpt>
      <trkpt lat="45.57589" lon="5.57366">
        <ele>311</ele>
        <time>2023-02-14T08:21:57.797Z</time>
      </trkpt>
      <trkpt lat="45.57589" lon="5.57362">
        <ele>312</ele>
        <time>2023-02-14T08:21:58.797Z</time>
      </trkpt>
      <trkpt lat="45.57589" lon="5.57359">
        <ele>312</ele>
        <time>2023-02-14T08:21:59.797Z</time>
      </trkpt>
      <trkpt lat="45.57589" lon="5.57355">
        <ele>312</ele>
        <time>2023-02-14T08:22:00.797Z</time>
      </trkpt>
      <trkpt lat="45.5759" lon="5.57351">
        <ele>312</ele>
        <time>2023-02-14T08:22:01.797Z</time>
      </trkpt>
      <trkpt lat="45.5759" lon="5.57347">
        <ele>312</ele>
        <time>2023-02-14T08:22:02.797Z</time>
      </trkpt>
      <trkpt lat="45.57591" lon="5.57344">
        <ele>313</ele>
        <time>2023-02-14T08:22:03.797Z</time>
      </trkpt>
      <trkpt lat="45.57591" lon="5.5734">
        <ele>313</ele>
        <time>2023-02-14T08:22:04.797Z</time>
      </trkpt>
      <trkpt lat="45.57591" lon="5.57337">
        <ele>314</ele>
        <time>2023-02-14T08:22:05.797Z</time>
      </trkpt>
      <trkpt lat="45.57591" lon="5.57333">
        <ele>314</ele>
        <time>2023-02-14T08:22:06.797Z</time>
      </trkpt>
      <trkpt lat="45.57591" lon="5.5733">
        <ele>314</ele>
        <time>2023-02-14T08:22:07.797Z</time>
      </trkpt>
      <trkpt lat="45.57592" lon="5.57327">
        <ele>314</ele>
        <time>2023-02-14T08:22:08.797Z</time>
      </trkpt>
      <trkpt lat="45.57593" lon="5.57324">
        <ele>315</ele>
        <time>2023-02-14T08:22:09.797Z</time>
      </trkpt>
      <trkpt lat="45.57594" lon="5.57321">
        <ele>315</ele>
        <time>2023-02-14T08:22:10.797Z</time>
      </trkpt>
      <trkpt lat="45.57595" lon="5.57317">
        <ele>315</ele>
        <time>2023-02-14T08:22:11.797Z</time>
      </trkpt>
      <trkpt lat="45.57596" lon="5.57314">
        <ele>315</ele>
        <time>2023-02-14T08:22:12.797Z</time>
      </trkpt>
      <trkpt lat="45.57597" lon="5.57311">
        <ele>314</ele>
        <time>2023-02-14T08:22:13.797Z</time>
      </trkpt>
      <trkpt lat="45.57598" lon="5.57308">
        <ele>314</ele>
        <time>2023-02-14T08:22:14.797Z</time>
      </trkpt>
      <trkpt lat="45.57599" lon="5.57305">
        <ele>314</ele>
        <time>2023-02-14T08:22:15.797Z</time>
      </trkpt>
      <trkpt lat="45.576" lon="5.57302">
        <ele>314</ele>
        <time>2023-02-14T08:22:16.797Z</time>
      </trkpt>
      <trkpt lat="45.57601" lon="5.57299">
        <ele>314</ele>
        <time>2023-02-14T08:22:17.797Z</time>
      </trkpt>
      <trkpt lat="45.57602" lon="5.57297">
        <ele>314</ele>
        <time>2023-02-14T08:22:18.797Z</time>
      </trkpt>
      <trkpt lat="45.57602" lon="5.57295">
        <ele>314</ele>
        <time>2023-02-14T08:22:19.797Z</time>
      </trkpt>
      <trkpt lat="45.57603" lon="5.57292">
        <ele>314</ele>
        <time>2023-02-14T08:22:20.797Z</time>
      </trkpt>
      <trkpt lat="45.57604" lon="5.5729">
        <ele>314</ele>
        <time>2023-02-14T08:22:21.797Z</time>
      </trkpt>
      <trkpt lat="45.57605" lon="5.57287">
        <ele>314</ele>
        <time>2023-02-14T08:22:22.797Z</time>
      </trkpt>
      <trkpt lat="45.57605" lon="5.57285">
        <ele>313</ele>
        <time>2023-02-14T08:22:23.797Z</time>
      </trkpt>
      <trkpt lat="45.57606" lon="5.57282">
        <ele>313</ele>
        <time>2023-02-14T08:22:24.797Z</time>
      </trkpt>
      <trkpt lat="45.57607" lon="5.57279">
        <ele>313</ele>
        <time>2023-02-14T08:22:25.797Z</time>
      </trkpt>
      <trkpt lat="45.57608" lon="5.57276">
        <ele>313</ele>
        <time>2023-02-14T08:22:26.797Z</time>
      </trkpt>
      <trkpt lat="45.57609" lon="5.57273">
        <ele>313</ele>
        <time>2023-02-14T08:22:27.797Z</time>
      </trkpt>
      <trkpt lat="45.5761" lon="5.5727">
        <ele>313</ele>
        <time>2023-02-14T08:22:28.797Z</time>
      </trkpt>
      <trkpt lat="45.57611" lon="5.57267">
        <ele>313</ele>
        <time>2023-02-14T08:22:29.797Z</time>
      </trkpt>
      <trkpt lat="45.57612" lon="5.57264">
        <ele>313</ele>
        <time>2023-02-14T08:22:30.797Z</time>
      </trkpt>
      <trkpt lat="45.57613" lon="5.57261">
        <ele>313</ele>
        <time>2023-02-14T08:22:31.797Z</time>
      </trkpt>
      <trkpt lat="45.57614" lon="5.57259">
        <ele>314</ele>
        <time>2023-02-14T08:22:32.797Z</time>
      </trkpt>
      <trkpt lat="45.57616" lon="5.57256">
        <ele>314</ele>
        <time>2023-02-14T08:22:33.797Z</time>
      </trkpt>
      <trkpt lat="45.57617" lon="5.57254">
        <ele>314</ele>
        <time>2023-02-14T08:22:34.797Z</time>
      </trkpt>
      <trkpt lat="45.57619" lon="5.57251">
        <ele>313</ele>
        <time>2023-02-14T08:22:35.797Z</time>
      </trkpt>
      <trkpt lat="45.5762" lon="5.57249">
        <ele>313</ele>
        <time>2023-02-14T08:22:36.797Z</time>
      </trkpt>
      <trkpt lat="45.57621" lon="5.57246">
        <ele>312</ele>
        <time>2023-02-14T08:22:37.797Z</time>
      </trkpt>
      <trkpt lat="45.57622" lon="5.57243">
        <ele>312</ele>
        <time>2023-02-14T08:22:38.797Z</time>
      </trkpt>
      <trkpt lat="45.57623" lon="5.57241">
        <ele>312</ele>
        <time>2023-02-14T08:22:39.797Z</time>
      </trkpt>
      <trkpt lat="45.57625" lon="5.57239">
        <ele>311</ele>
        <time>2023-02-14T08:22:40.797Z</time>
      </trkpt>
      <trkpt lat="45.57627" lon="5.57236">
        <ele>311</ele>
        <time>2023-02-14T08:22:41.797Z</time>
      </trkpt>
      <trkpt lat="45.57628" lon="5.57234">
        <ele>310</ele>
        <time>2023-02-14T08:22:42.797Z</time>
      </trkpt>
      <trkpt lat="45.5763" lon="5.57231">
        <ele>310</ele>
        <time>2023-02-14T08:22:43.797Z</time>
      </trkpt>
      <trkpt lat="45.57631" lon="5.57229">
        <ele>309</ele>
        <time>2023-02-14T08:22:44.797Z</time>
      </trkpt>
      <trkpt lat="45.57632" lon="5.57226">
        <ele>309</ele>
        <time>2023-02-14T08:22:45.797Z</time>
      </trkpt>
      <trkpt lat="45.57633" lon="5.57224">
        <ele>309</ele>
        <time>2023-02-14T08:22:46.797Z</time>
      </trkpt>
      <trkpt lat="45.57634" lon="5.57221">
        <ele>309</ele>
        <time>2023-02-14T08:22:47.797Z</time>
      </trkpt>
      <trkpt lat="45.57635" lon="5.57218">
        <ele>309</ele>
        <time>2023-02-14T08:22:48.797Z</time>
      </trkpt>
      <trkpt lat="45.57635" lon="5.57215">
        <ele>309</ele>
        <time>2023-02-14T08:22:49.797Z</time>
      </trkpt>
      <trkpt lat="45.57636" lon="5.57212">
        <ele>309</ele>
        <time>2023-02-14T08:22:50.797Z</time>
      </trkpt>
      <trkpt lat="45.57636" lon="5.57209">
        <ele>310</ele>
        <time>2023-02-14T08:22:51.797Z</time>
      </trkpt>
      <trkpt lat="45.57637" lon="5.57205">
        <ele>310</ele>
        <time>2023-02-14T08:22:52.797Z</time>
      </trkpt>
      <trkpt lat="45.57637" lon="5.57202">
        <ele>310</ele>
        <time>2023-02-14T08:22:53.797Z</time>
      </trkpt>
      <trkpt lat="45.57638" lon="5.57199">
        <ele>310</ele>
        <time>2023-02-14T08:22:54.797Z</time>
      </trkpt>
      <trkpt lat="45.57638" lon="5.57195">
        <ele>311</ele>
        <time>2023-02-14T08:22:55.797Z</time>
      </trkpt>
      <trkpt lat="45.57638" lon="5.57192">
        <ele>311</ele>
        <time>2023-02-14T08:22:56.797Z</time>
      </trkpt>
      <trkpt lat="45.57639" lon="5.57189">
        <ele>311</ele>
        <time>2023-02-14T08:22:57.797Z</time>
      </trkpt>
      <trkpt lat="45.57639" lon="5.57187">
        <ele>311</ele>
        <time>2023-02-14T08:22:58.797Z</time>
      </trkpt>
      <trkpt lat="45.5764" lon="5.57184">
        <ele>311</ele>
        <time>2023-02-14T08:22:59.797Z</time>
      </trkpt>
      <trkpt lat="45.5764" lon="5.57181">
        <ele>311</ele>
        <time>2023-02-14T08:23:00.797Z</time>
      </trkpt>
      <trkpt lat="45.57641" lon="5.57177">
        <ele>311</ele>
        <time>2023-02-14T08:23:01.797Z</time>
      </trkpt>
      <trkpt lat="45.57641" lon="5.57174">
        <ele>311</ele>
        <time>2023-02-14T08:23:02.797Z</time>
      </trkpt>
      <trkpt lat="45.57641" lon="5.57171">
        <ele>311</ele>
        <time>2023-02-14T08:23:03.797Z</time>
      </trkpt>
      <trkpt lat="45.57642" lon="5.57169">
        <ele>311</ele>
        <time>2023-02-14T08:23:04.797Z</time>
      </trkpt>
      <trkpt lat="45.57642" lon="5.57166">
        <ele>311</ele>
        <time>2023-02-14T08:23:05.797Z</time>
      </trkpt>
      <trkpt lat="45.57642" lon="5.57162">
        <ele>311</ele>
        <time>2023-02-14T08:23:06.797Z</time>
      </trkpt>
      <trkpt lat="45.57642" lon="5.57159">
        <ele>311</ele>
        <time>2023-02-14T08:23:07.797Z</time>
      </trkpt>
      <trkpt lat="45.57642" lon="5.57156">
        <ele>312</ele>
        <time>2023-02-14T08:23:08.797Z</time>
      </trkpt>
      <trkpt lat="45.57642" lon="5.57153">
        <ele>312</ele>
        <time>2023-02-14T08:23:09.797Z</time>
      </trkpt>
      <trkpt lat="45.57643" lon="5.57151">
        <ele>312</ele>
        <time>2023-02-14T08:23:10.797Z</time>
      </trkpt>
      <trkpt lat="45.57643" lon="5.57148">
        <ele>312</ele>
        <time>2023-02-14T08:23:11.797Z</time>
      </trkpt>
      <trkpt lat="45.57643" lon="5.57145">
        <ele>313</ele>
        <time>2023-02-14T08:23:12.797Z</time>
      </trkpt>
      <trkpt lat="45.57642" lon="5.57142">
        <ele>313</ele>
        <time>2023-02-14T08:23:13.797Z</time>
      </trkpt>
      <trkpt lat="45.57642" lon="5.57139">
        <ele>313</ele>
        <time>2023-02-14T08:23:14.797Z</time>
      </trkpt>
      <trkpt lat="45.57642" lon="5.57136">
        <ele>312</ele>
        <time>2023-02-14T08:23:15.797Z</time>
      </trkpt>
      <trkpt lat="45.57641" lon="5.57133">
        <ele>312</ele>
        <time>2023-02-14T08:23:16.797Z</time>
      </trkpt>
      <trkpt lat="45.57641" lon="5.5713">
        <ele>312</ele>
        <time>2023-02-14T08:23:17.797Z</time>
      </trkpt>
      <trkpt lat="45.5764" lon="5.57127">
        <ele>312</ele>
        <time>2023-02-14T08:23:18.797Z</time>
      </trkpt>
      <trkpt lat="45.5764" lon="5.57125">
        <ele>312</ele>
        <time>2023-02-14T08:23:19.797Z</time>
      </trkpt>
      <trkpt lat="45.57639" lon="5.57122">
        <ele>313</ele>
        <time>2023-02-14T08:23:20.797Z</time>
      </trkpt>
      <trkpt lat="45.57639" lon="5.57119">
        <ele>313</ele>
        <time>2023-02-14T08:23:21.797Z</time>
      </trkpt>
      <trkpt lat="45.57638" lon="5.57116">
        <ele>313</ele>
        <time>2023-02-14T08:23:22.797Z</time>
      </trkpt>
      <trkpt lat="45.57637" lon="5.57113">
        <ele>314</ele>
        <time>2023-02-14T08:23:23.797Z</time>
      </trkpt>
      <trkpt lat="45.57637" lon="5.5711">
        <ele>314</ele>
        <time>2023-02-14T08:23:24.797Z</time>
      </trkpt>
      <trkpt lat="45.57636" lon="5.57107">
        <ele>315</ele>
        <time>2023-02-14T08:23:25.797Z</time>
      </trkpt>
      <trkpt lat="45.57636" lon="5.57104">
        <ele>315</ele>
        <time>2023-02-14T08:23:26.797Z</time>
      </trkpt>
      <trkpt lat="45.57636" lon="5.57101">
        <ele>315</ele>
        <time>2023-02-14T08:23:27.797Z</time>
      </trkpt>
      <trkpt lat="45.57636" lon="5.57099">
        <ele>315</ele>
        <time>2023-02-14T08:23:28.797Z</time>
      </trkpt>
      <trkpt lat="45.57635" lon="5.57096">
        <ele>315</ele>
        <time>2023-02-14T08:23:29.797Z</time>
      </trkpt>
      <trkpt lat="45.57634" lon="5.57093">
        <ele>316</ele>
        <time>2023-02-14T08:23:30.797Z</time>
      </trkpt>
      <trkpt lat="45.57633" lon="5.5709">
        <ele>316</ele>
        <time>2023-02-14T08:23:31.797Z</time>
      </trkpt>
      <trkpt lat="45.57633" lon="5.57088">
        <ele>316</ele>
        <time>2023-02-14T08:23:32.797Z</time>
      </trkpt>
      <trkpt lat="45.57633" lon="5.57085">
        <ele>316</ele>
        <time>2023-02-14T08:23:33.797Z</time>
      </trkpt>
      <trkpt lat="45.57632" lon="5.57082">
        <ele>317</ele>
        <time>2023-02-14T08:23:34.797Z</time>
      </trkpt>
      <trkpt lat="45.57632" lon="5.57079">
        <ele>317</ele>
        <time>2023-02-14T08:23:35.797Z</time>
      </trkpt>
      <trkpt lat="45.57632" lon="5.57076">
        <ele>318</ele>
        <time>2023-02-14T08:23:36.797Z</time>
      </trkpt>
      <trkpt lat="45.57633" lon="5.57073">
        <ele>318</ele>
        <time>2023-02-14T08:23:37.797Z</time>
      </trkpt>
      <trkpt lat="45.57633" lon="5.5707">
        <ele>318</ele>
        <time>2023-02-14T08:23:38.797Z</time>
      </trkpt>
      <trkpt lat="45.57633" lon="5.57068">
        <ele>318</ele>
        <time>2023-02-14T08:23:39.797Z</time>
      </trkpt>
      <trkpt lat="45.57633" lon="5.57065">
        <ele>318</ele>
        <time>2023-02-14T08:23:40.797Z</time>
      </trkpt>
      <trkpt lat="45.57634" lon="5.57063">
        <ele>318</ele>
        <time>2023-02-14T08:23:41.797Z</time>
      </trkpt>
      <trkpt lat="45.57634" lon="5.5706">
        <ele>318</ele>
        <time>2023-02-14T08:23:42.797Z</time>
      </trkpt>
      <trkpt lat="45.57635" lon="5.57058">
        <ele>318</ele>
        <time>2023-02-14T08:23:43.797Z</time>
      </trkpt>
      <trkpt lat="45.57635" lon="5.57055">
        <ele>318</ele>
        <time>2023-02-14T08:23:44.797Z</time>
      </trkpt>
      <trkpt lat="45.57635" lon="5.57053">
        <ele>319</ele>
        <time>2023-02-14T08:23:45.797Z</time>
      </trkpt>
      <trkpt lat="45.57636" lon="5.57051">
        <ele>319</ele>
        <time>2023-02-14T08:23:46.797Z</time>
      </trkpt>
      <trkpt lat="45.57637" lon="5.57049">
        <ele>319</ele>
        <time>2023-02-14T08:23:47.797Z</time>
      </trkpt>
      <trkpt lat="45.57637" lon="5.57047">
        <ele>319</ele>
        <time>2023-02-14T08:23:48.797Z</time>
      </trkpt>
      <trkpt lat="45.57638" lon="5.57045">
        <ele>319</ele>
        <time>2023-02-14T08:23:49.797Z</time>
      </trkpt>
      <trkpt lat="45.57638" lon="5.57044">
        <ele>319</ele>
        <time>2023-02-14T08:23:50.797Z</time>
      </trkpt>
      <trkpt lat="45.57639" lon="5.57042">
        <ele>319</ele>
        <time>2023-02-14T08:23:51.797Z</time>
      </trkpt>
      <trkpt lat="45.57639" lon="5.5704">
        <ele>319</ele>
        <time>2023-02-14T08:23:52.797Z</time>
      </trkpt>
      <trkpt lat="45.5764" lon="5.57038">
        <ele>320</ele>
        <time>2023-02-14T08:23:53.797Z</time>
      </trkpt>
      <trkpt lat="45.57641" lon="5.57036">
        <ele>320</ele>
        <time>2023-02-14T08:23:54.797Z</time>
      </trkpt>
      <trkpt lat="45.57641" lon="5.57034">
        <ele>320</ele>
        <time>2023-02-14T08:23:55.797Z</time>
      </trkpt>
      <trkpt lat="45.57642" lon="5.57032">
        <ele>320</ele>
        <time>2023-02-14T08:23:56.797Z</time>
      </trkpt>
      <trkpt lat="45.57642" lon="5.5703">
        <ele>321</ele>
        <time>2023-02-14T08:23:57.797Z</time>
      </trkpt>
      <trkpt lat="45.57642" lon="5.57028">
        <ele>321</ele>
        <time>2023-02-14T08:23:58.797Z</time>
      </trkpt>
      <trkpt lat="45.57642" lon="5.57026">
        <ele>322</ele>
        <time>2023-02-14T08:23:59.797Z</time>
      </trkpt>
      <trkpt lat="45.57642" lon="5.57024">
        <ele>322</ele>
        <time>2023-02-14T08:24:00.797Z</time>
      </trkpt>
      <trkpt lat="45.57642" lon="5.57022">
        <ele>323</ele>
        <time>2023-02-14T08:24:01.797Z</time>
      </trkpt>
      <trkpt lat="45.57643" lon="5.5702">
        <ele>323</ele>
        <time>2023-02-14T08:24:02.797Z</time>
      </trkpt>
      <trkpt lat="45.57643" lon="5.57018">
        <ele>323</ele>
        <time>2023-02-14T08:24:03.797Z</time>
      </trkpt>
      <trkpt lat="45.57644" lon="5.57016">
        <ele>324</ele>
        <time>2023-02-14T08:24:04.797Z</time>
      </trkpt>
      <trkpt lat="45.57644" lon="5.57014">
        <ele>324</ele>
        <time>2023-02-14T08:24:05.797Z</time>
      </trkpt>
      <trkpt lat="45.57644" lon="5.57012">
        <ele>324</ele>
        <time>2023-02-14T08:24:06.797Z</time>
      </trkpt>
      <trkpt lat="45.57645" lon="5.5701">
        <ele>325</ele>
        <time>2023-02-14T08:24:07.797Z</time>
      </trkpt>
      <trkpt lat="45.57645" lon="5.57009">
        <ele>325</ele>
        <time>2023-02-14T08:24:08.797Z</time>
      </trkpt>
      <trkpt lat="45.57646" lon="5.57007">
        <ele>325</ele>
        <time>2023-02-14T08:24:09.797Z</time>
      </trkpt>
      <trkpt lat="45.57646" lon="5.57005">
        <ele>325</ele>
        <time>2023-02-14T08:24:10.797Z</time>
      </trkpt>
      <trkpt lat="45.57647" lon="5.57003">
        <ele>326</ele>
        <time>2023-02-14T08:24:11.797Z</time>
      </trkpt>
      <trkpt lat="45.57647" lon="5.57001">
        <ele>326</ele>
        <time>2023-02-14T08:24:12.797Z</time>
      </trkpt>
      <trkpt lat="45.57648" lon="5.56999">
        <ele>326</ele>
        <time>2023-02-14T08:24:13.797Z</time>
      </trkpt>
      <trkpt lat="45.57648" lon="5.56997">
        <ele>327</ele>
        <time>2023-02-14T08:24:14.797Z</time>
      </trkpt>
      <trkpt lat="45.57649" lon="5.56995">
        <ele>327</ele>
        <time>2023-02-14T08:24:15.797Z</time>
      </trkpt>
      <trkpt lat="45.57649" lon="5.56993">
        <ele>327</ele>
        <time>2023-02-14T08:24:16.797Z</time>
      </trkpt>
      <trkpt lat="45.57649" lon="5.56991">
        <ele>327</ele>
        <time>2023-02-14T08:24:17.797Z</time>
      </trkpt>
      <trkpt lat="45.5765" lon="5.56989">
        <ele>327</ele>
        <time>2023-02-14T08:24:18.797Z</time>
      </trkpt>
      <trkpt lat="45.5765" lon="5.56988">
        <ele>328</ele>
        <time>2023-02-14T08:24:19.797Z</time>
      </trkpt>
      <trkpt lat="45.57651" lon="5.56986">
        <ele>328</ele>
        <time>2023-02-14T08:24:20.797Z</time>
      </trkpt>
      <trkpt lat="45.57651" lon="5.56984">
        <ele>328</ele>
        <time>2023-02-14T08:24:21.797Z</time>
      </trkpt>
      <trkpt lat="45.57651" lon="5.56982">
        <ele>328</ele>
        <time>2023-02-14T08:24:22.797Z</time>
      </trkpt>
      <trkpt lat="45.57652" lon="5.5698">
        <ele>328</ele>
        <time>2023-02-14T08:24:23.797Z</time>
      </trkpt>
      <trkpt lat="45.57652" lon="5.56978">
        <ele>328</ele>
        <time>2023-02-14T08:24:24.797Z</time>
      </trkpt>
      <trkpt lat="45.57653" lon="5.56976">
        <ele>328</ele>
        <time>2023-02-14T08:24:25.797Z</time>
      </trkpt>
      <trkpt lat="45.57653" lon="5.56974">
        <ele>328</ele>
        <time>2023-02-14T08:24:26.797Z</time>
      </trkpt>
      <trkpt lat="45.57654" lon="5.56973">
        <ele>329</ele>
        <time>2023-02-14T08:24:27.797Z</time>
      </trkpt>
      <trkpt lat="45.57654" lon="5.56971">
        <ele>329</ele>
        <time>2023-02-14T08:24:28.797Z</time>
      </trkpt>
      <trkpt lat="45.57654" lon="5.56969">
        <ele>329</ele>
        <time>2023-02-14T08:24:29.797Z</time>
      </trkpt>
      <trkpt lat="45.57655" lon="5.56967">
        <ele>329</ele>
        <time>2023-02-14T08:24:30.797Z</time>
      </trkpt>
      <trkpt lat="45.57655" lon="5.56965">
        <ele>329</ele>
        <time>2023-02-14T08:24:31.797Z</time>
      </trkpt>
      <trkpt lat="45.57655" lon="5.56963">
        <ele>329</ele>
        <time>2023-02-14T08:24:32.797Z</time>
      </trkpt>
      <trkpt lat="45.57656" lon="5.56961">
        <ele>329</ele>
        <time>2023-02-14T08:24:33.797Z</time>
      </trkpt>
      <trkpt lat="45.57656" lon="5.56959">
        <ele>329</ele>
        <time>2023-02-14T08:24:34.797Z</time>
      </trkpt>
      <trkpt lat="45.57656" lon="5.56957">
        <ele>330</ele>
        <time>2023-02-14T08:24:35.797Z</time>
      </trkpt>
      <trkpt lat="45.57656" lon="5.56955">
        <ele>330</ele>
        <time>2023-02-14T08:24:36.797Z</time>
      </trkpt>
      <trkpt lat="45.57656" lon="5.56953">
        <ele>330</ele>
        <time>2023-02-14T08:24:37.797Z</time>
      </trkpt>
      <trkpt lat="45.57656" lon="5.56951">
        <ele>330</ele>
        <time>2023-02-14T08:24:38.797Z</time>
      </trkpt>
      <trkpt lat="45.57656" lon="5.56948">
        <ele>330</ele>
        <time>2023-02-14T08:24:39.797Z</time>
      </trkpt>
      <trkpt lat="45.57656" lon="5.56946">
        <ele>330</ele>
        <time>2023-02-14T08:24:40.797Z</time>
      </trkpt>
      <trkpt lat="45.57656" lon="5.56944">
        <ele>330</ele>
        <time>2023-02-14T08:24:41.797Z</time>
      </trkpt>
      <trkpt lat="45.57656" lon="5.56942">
        <ele>330</ele>
        <time>2023-02-14T08:24:42.797Z</time>
      </trkpt>
      <trkpt lat="45.57656" lon="5.5694">
        <ele>330</ele>
        <time>2023-02-14T08:24:43.797Z</time>
      </trkpt>
      <trkpt lat="45.57656" lon="5.56937">
        <ele>330</ele>
        <time>2023-02-14T08:24:44.797Z</time>
      </trkpt>
      <trkpt lat="45.57655" lon="5.56935">
        <ele>331</ele>
        <time>2023-02-14T08:24:45.797Z</time>
      </trkpt>
      <trkpt lat="45.57655" lon="5.56932">
        <ele>331</ele>
        <time>2023-02-14T08:24:46.797Z</time>
      </trkpt>
      <trkpt lat="45.57655" lon="5.5693">
        <ele>331</ele>
        <time>2023-02-14T08:24:47.797Z</time>
      </trkpt>
      <trkpt lat="45.57655" lon="5.56927">
        <ele>331</ele>
        <time>2023-02-14T08:24:48.797Z</time>
      </trkpt>
      <trkpt lat="45.57655" lon="5.56924">
        <ele>331</ele>
        <time>2023-02-14T08:24:49.797Z</time>
      </trkpt>
      <trkpt lat="45.57655" lon="5.56922">
        <ele>331</ele>
        <time>2023-02-14T08:24:50.797Z</time>
      </trkpt>
      <trkpt lat="45.57655" lon="5.56919">
        <ele>331</ele>
        <time>2023-02-14T08:24:51.797Z</time>
      </trkpt>
      <trkpt lat="45.57655" lon="5.56916">
        <ele>331</ele>
        <time>2023-02-14T08:24:52.797Z</time>
      </trkpt>
      <trkpt lat="45.57655" lon="5.56913">
        <ele>331</ele>
        <time>2023-02-14T08:24:53.797Z</time>
      </trkpt>
      <trkpt lat="45.57655" lon="5.5691">
        <ele>331</ele>
        <time>2023-02-14T08:24:54.797Z</time>
      </trkpt>
      <trkpt lat="45.57655" lon="5.56907">
        <ele>331</ele>
        <time>2023-02-14T08:24:55.797Z</time>
      </trkpt>
      <trkpt lat="45.57655" lon="5.56904">
        <ele>331</ele>
        <time>2023-02-14T08:24:56.797Z</time>
      </trkpt>
      <trkpt lat="45.57655" lon="5.56901">
        <ele>331</ele>
        <time>2023-02-14T08:24:57.797Z</time>
      </trkpt>
      <trkpt lat="45.57655" lon="5.56898">
        <ele>331</ele>
        <time>2023-02-14T08:24:58.797Z</time>
      </trkpt>
      <trkpt lat="45.57655" lon="5.56894">
        <ele>331</ele>
        <time>2023-02-14T08:24:59.797Z</time>
      </trkpt>
      <trkpt lat="45.57655" lon="5.56892">
        <ele>331</ele>
        <time>2023-02-14T08:25:00.797Z</time>
      </trkpt>
      <trkpt lat="45.57655" lon="5.56889">
        <ele>331</ele>
        <time>2023-02-14T08:25:01.797Z</time>
      </trkpt>
      <trkpt lat="45.57655" lon="5.56886">
        <ele>331</ele>
        <time>2023-02-14T08:25:02.797Z</time>
      </trkpt>
      <trkpt lat="45.57655" lon="5.56883">
        <ele>331</ele>
        <time>2023-02-14T08:25:03.797Z</time>
      </trkpt>
      <trkpt lat="45.57655" lon="5.56879">
        <ele>332</ele>
        <time>2023-02-14T08:25:04.797Z</time>
      </trkpt>
      <trkpt lat="45.57655" lon="5.56876">
        <ele>332</ele>
        <time>2023-02-14T08:25:05.797Z</time>
      </trkpt>
      <trkpt lat="45.57655" lon="5.56873">
        <ele>332</ele>
        <time>2023-02-14T08:25:06.797Z</time>
      </trkpt>
      <trkpt lat="45.57655" lon="5.5687">
        <ele>332</ele>
        <time>2023-02-14T08:25:07.797Z</time>
      </trkpt>
      <trkpt lat="45.57655" lon="5.56867">
        <ele>332</ele>
        <time>2023-02-14T08:25:08.797Z</time>
      </trkpt>
      <trkpt lat="45.57655" lon="5.56864">
        <ele>332</ele>
        <time>2023-02-14T08:25:09.797Z</time>
      </trkpt>
      <trkpt lat="45.57655" lon="5.56861">
        <ele>332</ele>
        <time>2023-02-14T08:25:10.797Z</time>
      </trkpt>
      <trkpt lat="45.57656" lon="5.56859">
        <ele>332</ele>
        <time>2023-02-14T08:25:11.797Z</time>
      </trkpt>
      <trkpt lat="45.57657" lon="5.56857">
        <ele>332</ele>
        <time>2023-02-14T08:25:12.797Z</time>
      </trkpt>
      <trkpt lat="45.57659" lon="5.56856">
        <ele>332</ele>
        <time>2023-02-14T08:25:13.797Z</time>
      </trkpt>
      <trkpt lat="45.57661" lon="5.56857">
        <ele>332</ele>
        <time>2023-02-14T08:25:14.797Z</time>
      </trkpt>
      <trkpt lat="45.57664" lon="5.56858">
        <ele>332</ele>
        <time>2023-02-14T08:25:15.797Z</time>
      </trkpt>
      <trkpt lat="45.57666" lon="5.56859">
        <ele>332</ele>
        <time>2023-02-14T08:25:16.797Z</time>
      </trkpt>
      <trkpt lat="45.57668" lon="5.56861">
        <ele>332</ele>
        <time>2023-02-14T08:25:17.797Z</time>
      </trkpt>
      <trkpt lat="45.57669" lon="5.56862">
        <ele>332</ele>
        <time>2023-02-14T08:25:18.797Z</time>
      </trkpt>
      <trkpt lat="45.57671" lon="5.56863">
        <ele>333</ele>
        <time>2023-02-14T08:25:19.797Z</time>
      </trkpt>
      <trkpt lat="45.57673" lon="5.56864">
        <ele>333</ele>
        <time>2023-02-14T08:25:20.797Z</time>
      </trkpt>
      <trkpt lat="45.57675" lon="5.56865">
        <ele>333</ele>
        <time>2023-02-14T08:25:21.797Z</time>
      </trkpt>
      <trkpt lat="45.57677" lon="5.56866">
        <ele>333</ele>
        <time>2023-02-14T08:25:22.797Z</time>
      </trkpt>
      <trkpt lat="45.57679" lon="5.56867">
        <ele>334</ele>
        <time>2023-02-14T08:25:23.797Z</time>
      </trkpt>
      <trkpt lat="45.57681" lon="5.56867">
        <ele>334</ele>
        <time>2023-02-14T08:25:24.797Z</time>
      </trkpt>
      <trkpt lat="45.57683" lon="5.56868">
        <ele>334</ele>
        <time>2023-02-14T08:25:25.797Z</time>
      </trkpt>
      <trkpt lat="45.57686" lon="5.56868">
        <ele>334</ele>
        <time>2023-02-14T08:25:26.797Z</time>
      </trkpt>
      <trkpt lat="45.57688" lon="5.56868">
        <ele>334</ele>
        <time>2023-02-14T08:25:27.797Z</time>
      </trkpt>
      <trkpt lat="45.5769" lon="5.56869">
        <ele>334</ele>
        <time>2023-02-14T08:25:28.797Z</time>
      </trkpt>
      <trkpt lat="45.57692" lon="5.5687">
        <ele>334</ele>
        <time>2023-02-14T08:25:29.797Z</time>
      </trkpt>
      <trkpt lat="45.57693" lon="5.56872">
        <ele>334</ele>
        <time>2023-02-14T08:25:30.797Z</time>
      </trkpt>
      <trkpt lat="45.57695" lon="5.56873">
        <ele>334</ele>
        <time>2023-02-14T08:25:31.797Z</time>
      </trkpt>
      <trkpt lat="45.57697" lon="5.56874">
        <ele>334</ele>
        <time>2023-02-14T08:25:32.797Z</time>
      </trkpt>
      <trkpt lat="45.57699" lon="5.56875">
        <ele>335</ele>
        <time>2023-02-14T08:25:33.797Z</time>
      </trkpt>
      <trkpt lat="45.57701" lon="5.56875">
        <ele>335</ele>
        <time>2023-02-14T08:25:34.797Z</time>
      </trkpt>
      <trkpt lat="45.57703" lon="5.56876">
        <ele>335</ele>
        <time>2023-02-14T08:25:35.797Z</time>
      </trkpt>
      <trkpt lat="45.57705" lon="5.56876">
        <ele>335</ele>
        <time>2023-02-14T08:25:36.797Z</time>
      </trkpt>
      <trkpt lat="45.57706" lon="5.56877">
        <ele>335</ele>
        <time>2023-02-14T08:25:37.797Z</time>
      </trkpt>
      <trkpt lat="45.57708" lon="5.56877">
        <ele>336</ele>
        <time>2023-02-14T08:25:38.797Z</time>
      </trkpt>
      <trkpt lat="45.5771" lon="5.56878">
        <ele>336</ele>
        <time>2023-02-14T08:25:39.797Z</time>
      </trkpt>
      <trkpt lat="45.57712" lon="5.56879">
        <ele>336</ele>
        <time>2023-02-14T08:25:40.797Z</time>
      </trkpt>
      <trkpt lat="45.57714" lon="5.5688">
        <ele>337</ele>
        <time>2023-02-14T08:25:41.797Z</time>
      </trkpt>
      <trkpt lat="45.57716" lon="5.5688">
        <ele>337</ele>
        <time>2023-02-14T08:25:42.797Z</time>
      </trkpt>
      <trkpt lat="45.57718" lon="5.56881">
        <ele>337</ele>
        <time>2023-02-14T08:25:43.797Z</time>
      </trkpt>
      <trkpt lat="45.5772" lon="5.56881">
        <ele>337</ele>
        <time>2023-02-14T08:25:44.797Z</time>
      </trkpt>
      <trkpt lat="45.57722" lon="5.56882">
        <ele>337</ele>
        <time>2023-02-14T08:25:45.797Z</time>
      </trkpt>
      <trkpt lat="45.57723" lon="5.56882">
        <ele>338</ele>
        <time>2023-02-14T08:25:46.797Z</time>
      </trkpt>
      <trkpt lat="45.57725" lon="5.56883">
        <ele>338</ele>
        <time>2023-02-14T08:25:47.797Z</time>
      </trkpt>
      <trkpt lat="45.57727" lon="5.56884">
        <ele>338</ele>
        <time>2023-02-14T08:25:48.797Z</time>
      </trkpt>
      <trkpt lat="45.57729" lon="5.56884">
        <ele>338</ele>
        <time>2023-02-14T08:25:49.797Z</time>
      </trkpt>
      <trkpt lat="45.57731" lon="5.56885">
        <ele>339</ele>
        <time>2023-02-14T08:25:50.797Z</time>
      </trkpt>
      <trkpt lat="45.57733" lon="5.56886">
        <ele>339</ele>
        <time>2023-02-14T08:25:51.797Z</time>
      </trkpt>
      <trkpt lat="45.57735" lon="5.56886">
        <ele>339</ele>
        <time>2023-02-14T08:25:52.797Z</time>
      </trkpt>
      <trkpt lat="45.57736" lon="5.56887">
        <ele>340</ele>
        <time>2023-02-14T08:25:53.797Z</time>
      </trkpt>
      <trkpt lat="45.57738" lon="5.56888">
        <ele>340</ele>
        <time>2023-02-14T08:25:54.797Z</time>
      </trkpt>
      <trkpt lat="45.5774" lon="5.56889">
        <ele>340</ele>
        <time>2023-02-14T08:25:55.797Z</time>
      </trkpt>
      <trkpt lat="45.57742" lon="5.5689">
        <ele>340</ele>
        <time>2023-02-14T08:25:56.797Z</time>
      </trkpt>
      <trkpt lat="45.57744" lon="5.56891">
        <ele>340</ele>
        <time>2023-02-14T08:25:57.797Z</time>
      </trkpt>
      <trkpt lat="45.57745" lon="5.56892">
        <ele>340</ele>
        <time>2023-02-14T08:25:58.797Z</time>
      </trkpt>
      <trkpt lat="45.57747" lon="5.56893">
        <ele>340</ele>
        <time>2023-02-14T08:25:59.797Z</time>
      </trkpt>
      <trkpt lat="45.57749" lon="5.56894">
        <ele>340</ele>
        <time>2023-02-14T08:26:00.797Z</time>
      </trkpt>
      <trkpt lat="45.57751" lon="5.56895">
        <ele>341</ele>
        <time>2023-02-14T08:26:01.797Z</time>
      </trkpt>
      <trkpt lat="45.57752" lon="5.56896">
        <ele>341</ele>
        <time>2023-02-14T08:26:02.797Z</time>
      </trkpt>
      <trkpt lat="45.57754" lon="5.56897">
        <ele>341</ele>
        <time>2023-02-14T08:26:03.797Z</time>
      </trkpt>
      <trkpt lat="45.57756" lon="5.56897">
        <ele>341</ele>
        <time>2023-02-14T08:26:04.797Z</time>
      </trkpt>
      <trkpt lat="45.57758" lon="5.56898">
        <ele>341</ele>
        <time>2023-02-14T08:26:05.797Z</time>
      </trkpt>
      <trkpt lat="45.5776" lon="5.56898">
        <ele>341</ele>
        <time>2023-02-14T08:26:06.797Z</time>
      </trkpt>
      <trkpt lat="45.57762" lon="5.56898">
        <ele>341</ele>
        <time>2023-02-14T08:26:07.797Z</time>
      </trkpt>
      <trkpt lat="45.57765" lon="5.56899">
        <ele>341</ele>
        <time>2023-02-14T08:26:08.797Z</time>
      </trkpt>
      <trkpt lat="45.57767" lon="5.56899">
        <ele>341</ele>
        <time>2023-02-14T08:26:09.797Z</time>
      </trkpt>
      <trkpt lat="45.57769" lon="5.56899">
        <ele>341</ele>
        <time>2023-02-14T08:26:10.797Z</time>
      </trkpt>
      <trkpt lat="45.57772" lon="5.56899">
        <ele>341</ele>
        <time>2023-02-14T08:26:11.797Z</time>
      </trkpt>
      <trkpt lat="45.57775" lon="5.569">
        <ele>341</ele>
        <time>2023-02-14T08:26:12.797Z</time>
      </trkpt>
      <trkpt lat="45.57777" lon="5.569">
        <ele>341</ele>
        <time>2023-02-14T08:26:13.797Z</time>
      </trkpt>
      <trkpt lat="45.5778" lon="5.56901">
        <ele>341</ele>
        <time>2023-02-14T08:26:14.797Z</time>
      </trkpt>
      <trkpt lat="45.57783" lon="5.56901">
        <ele>341</ele>
        <time>2023-02-14T08:26:15.797Z</time>
      </trkpt>
      <trkpt lat="45.57785" lon="5.56901">
        <ele>341</ele>
        <time>2023-02-14T08:26:16.797Z</time>
      </trkpt>
      <trkpt lat="45.57788" lon="5.56902">
        <ele>341</ele>
        <time>2023-02-14T08:26:17.797Z</time>
      </trkpt>
      <trkpt lat="45.57791" lon="5.56902">
        <ele>341</ele>
        <time>2023-02-14T08:26:18.797Z</time>
      </trkpt>
      <trkpt lat="45.57794" lon="5.56903">
        <ele>341</ele>
        <time>2023-02-14T08:26:19.797Z</time>
      </trkpt>
      <trkpt lat="45.57797" lon="5.56903">
        <ele>341</ele>
        <time>2023-02-14T08:26:20.797Z</time>
      </trkpt>
      <trkpt lat="45.578" lon="5.56903">
        <ele>341</ele>
        <time>2023-02-14T08:26:21.797Z</time>
      </trkpt>
      <trkpt lat="45.57802" lon="5.56903">
        <ele>341</ele>
        <time>2023-02-14T08:26:22.797Z</time>
      </trkpt>
      <trkpt lat="45.57805" lon="5.56904">
        <ele>342</ele>
        <time>2023-02-14T08:26:23.797Z</time>
      </trkpt>
      <trkpt lat="45.57808" lon="5.56904">
        <ele>342</ele>
        <time>2023-02-14T08:26:24.797Z</time>
      </trkpt>
      <trkpt lat="45.57811" lon="5.56904">
        <ele>342</ele>
        <time>2023-02-14T08:26:25.797Z</time>
      </trkpt>
      <trkpt lat="45.57814" lon="5.56904">
        <ele>342</ele>
        <time>2023-02-14T08:26:26.797Z</time>
      </trkpt>
      <trkpt lat="45.57816" lon="5.56904">
        <ele>342</ele>
        <time>2023-02-14T08:26:27.797Z</time>
      </trkpt>
      <trkpt lat="45.57819" lon="5.56904">
        <ele>342</ele>
        <time>2023-02-14T08:26:28.797Z</time>
      </trkpt>
      <trkpt lat="45.57822" lon="5.56904">
        <ele>342</ele>
        <time>2023-02-14T08:26:29.797Z</time>
      </trkpt>
      <trkpt lat="45.57825" lon="5.56904">
        <ele>342</ele>
        <time>2023-02-14T08:26:30.797Z</time>
      </trkpt>
      <trkpt lat="45.57828" lon="5.56903">
        <ele>342</ele>
        <time>2023-02-14T08:26:31.797Z</time>
      </trkpt>
      <trkpt lat="45.57831" lon="5.56903">
        <ele>342</ele>
        <time>2023-02-14T08:26:32.797Z</time>
      </trkpt>
      <trkpt lat="45.57834" lon="5.56903">
        <ele>342</ele>
        <time>2023-02-14T08:26:33.797Z</time>
      </trkpt>
      <trkpt lat="45.57836" lon="5.56902">
        <ele>342</ele>
        <time>2023-02-14T08:26:34.797Z</time>
      </trkpt>
      <trkpt lat="45.57839" lon="5.56902">
        <ele>342</ele>
        <time>2023-02-14T08:26:35.797Z</time>
      </trkpt>
      <trkpt lat="45.57842" lon="5.56901">
        <ele>343</ele>
        <time>2023-02-14T08:26:36.797Z</time>
      </trkpt>
      <trkpt lat="45.57845" lon="5.569">
        <ele>343</ele>
        <time>2023-02-14T08:26:37.797Z</time>
      </trkpt>
      <trkpt lat="45.57848" lon="5.56899">
        <ele>343</ele>
        <time>2023-02-14T08:26:38.797Z</time>
      </trkpt>
      <trkpt lat="45.57851" lon="5.56898">
        <ele>343</ele>
        <time>2023-02-14T08:26:39.797Z</time>
      </trkpt>
      <trkpt lat="45.57854" lon="5.56897">
        <ele>342</ele>
        <time>2023-02-14T08:26:40.797Z</time>
      </trkpt>
      <trkpt lat="45.57857" lon="5.56897">
        <ele>342</ele>
        <time>2023-02-14T08:26:41.797Z</time>
      </trkpt>
      <trkpt lat="45.5786" lon="5.56896">
        <ele>342</ele>
        <time>2023-02-14T08:26:42.797Z</time>
      </trkpt>
      <trkpt lat="45.57863" lon="5.56895">
        <ele>342</ele>
        <time>2023-02-14T08:26:43.797Z</time>
      </trkpt>
      <trkpt lat="45.57866" lon="5.56894">
        <ele>342</ele>
        <time>2023-02-14T08:26:44.797Z</time>
      </trkpt>
      <trkpt lat="45.5787" lon="5.56892">
        <ele>342</ele>
        <time>2023-02-14T08:26:45.797Z</time>
      </trkpt>
      <trkpt lat="45.57873" lon="5.56891">
        <ele>342</ele>
        <time>2023-02-14T08:26:46.797Z</time>
      </trkpt>
      <trkpt lat="45.57876" lon="5.56889">
        <ele>342</ele>
        <time>2023-02-14T08:26:47.797Z</time>
      </trkpt>
      <trkpt lat="45.5788" lon="5.56887">
        <ele>342</ele>
        <time>2023-02-14T08:26:48.797Z</time>
      </trkpt>
      <trkpt lat="45.57883" lon="5.56885">
        <ele>342</ele>
        <time>2023-02-14T08:26:49.797Z</time>
      </trkpt>
      <trkpt lat="45.57887" lon="5.56883">
        <ele>342</ele>
        <time>2023-02-14T08:26:50.797Z</time>
      </trkpt>
      <trkpt lat="45.5789" lon="5.56881">
        <ele>342</ele>
        <time>2023-02-14T08:26:51.797Z</time>
      </trkpt>
      <trkpt lat="45.57893" lon="5.56878">
        <ele>341</ele>
        <time>2023-02-14T08:26:52.797Z</time>
      </trkpt>
      <trkpt lat="45.57897" lon="5.56876">
        <ele>341</ele>
        <time>2023-02-14T08:26:53.797Z</time>
      </trkpt>
      <trkpt lat="45.579" lon="5.56873">
        <ele>341</ele>
        <time>2023-02-14T08:26:54.797Z</time>
      </trkpt>
      <trkpt lat="45.57903" lon="5.5687">
        <ele>341</ele>
        <time>2023-02-14T08:26:55.797Z</time>
      </trkpt>
      <trkpt lat="45.57906" lon="5.56866">
        <ele>341</ele>
        <time>2023-02-14T08:26:56.797Z</time>
      </trkpt>
      <trkpt lat="45.57909" lon="5.56862">
        <ele>341</ele>
        <time>2023-02-14T08:26:57.797Z</time>
      </trkpt>
      <trkpt lat="45.57912" lon="5.56858">
        <ele>341</ele>
        <time>2023-02-14T08:26:58.797Z</time>
      </trkpt>
      <trkpt lat="45.57916" lon="5.56854">
        <ele>341</ele>
        <time>2023-02-14T08:26:59.797Z</time>
      </trkpt>
      <trkpt lat="45.57919" lon="5.56851">
        <ele>341</ele>
        <time>2023-02-14T08:27:00.797Z</time>
      </trkpt>
      <trkpt lat="45.57922" lon="5.56847">
        <ele>341</ele>
        <time>2023-02-14T08:27:01.797Z</time>
      </trkpt>
      <trkpt lat="45.57925" lon="5.56843">
        <ele>340</ele>
        <time>2023-02-14T08:27:02.797Z</time>
      </trkpt>
      <trkpt lat="45.57928" lon="5.56839">
        <ele>340</ele>
        <time>2023-02-14T08:27:03.797Z</time>
      </trkpt>
      <trkpt lat="45.5793" lon="5.56835">
        <ele>340</ele>
        <time>2023-02-14T08:27:04.797Z</time>
      </trkpt>
      <trkpt lat="45.57933" lon="5.5683">
        <ele>340</ele>
        <time>2023-02-14T08:27:05.797Z</time>
      </trkpt>
      <trkpt lat="45.57936" lon="5.56826">
        <ele>340</ele>
        <time>2023-02-14T08:27:06.797Z</time>
      </trkpt>
      <trkpt lat="45.57939" lon="5.56823">
        <ele>340</ele>
        <time>2023-02-14T08:27:07.797Z</time>
      </trkpt>
      <trkpt lat="45.57942" lon="5.56819">
        <ele>340</ele>
        <time>2023-02-14T08:27:08.797Z</time>
      </trkpt>
      <trkpt lat="45.57944" lon="5.56815">
        <ele>340</ele>
        <time>2023-02-14T08:27:09.797Z</time>
      </trkpt>
      <trkpt lat="45.57947" lon="5.56811">
        <ele>340</ele>
        <time>2023-02-14T08:27:10.797Z</time>
      </trkpt>
      <trkpt lat="45.57949" lon="5.56808">
        <ele>340</ele>
        <time>2023-02-14T08:27:11.797Z</time>
      </trkpt>
      <trkpt lat="45.57952" lon="5.56805">
        <ele>340</ele>
        <time>2023-02-14T08:27:12.797Z</time>
      </trkpt>
      <trkpt lat="45.57955" lon="5.56801">
        <ele>340</ele>
        <time>2023-02-14T08:27:13.797Z</time>
      </trkpt>
      <trkpt lat="45.57957" lon="5.56798">
        <ele>340</ele>
        <time>2023-02-14T08:27:14.797Z</time>
      </trkpt>
      <trkpt lat="45.5796" lon="5.56794">
        <ele>340</ele>
        <time>2023-02-14T08:27:15.797Z</time>
      </trkpt>
      <trkpt lat="45.57963" lon="5.56791">
        <ele>340</ele>
        <time>2023-02-14T08:27:16.797Z</time>
      </trkpt>
      <trkpt lat="45.57966" lon="5.56787">
        <ele>339</ele>
        <time>2023-02-14T08:27:17.797Z</time>
      </trkpt>
      <trkpt lat="45.57968" lon="5.56783">
        <ele>339</ele>
        <time>2023-02-14T08:27:18.797Z</time>
      </trkpt>
      <trkpt lat="45.57972" lon="5.5678">
        <ele>339</ele>
        <time>2023-02-14T08:27:19.797Z</time>
      </trkpt>
      <trkpt lat="45.57975" lon="5.56776">
        <ele>339</ele>
        <time>2023-02-14T08:27:20.797Z</time>
      </trkpt>
      <trkpt lat="45.57978" lon="5.56772">
        <ele>339</ele>
        <time>2023-02-14T08:27:21.797Z</time>
      </trkpt>
      <trkpt lat="45.57981" lon="5.56769">
        <ele>339</ele>
        <time>2023-02-14T08:27:22.797Z</time>
      </trkpt>
      <trkpt lat="45.57984" lon="5.56765">
        <ele>339</ele>
        <time>2023-02-14T08:27:23.797Z</time>
      </trkpt>
      <trkpt lat="45.57988" lon="5.56762">
        <ele>339</ele>
        <time>2023-02-14T08:27:24.797Z</time>
      </trkpt>
      <trkpt lat="45.57991" lon="5.56759">
        <ele>338</ele>
        <time>2023-02-14T08:27:25.797Z</time>
      </trkpt>
      <trkpt lat="45.57995" lon="5.56756">
        <ele>338</ele>
        <time>2023-02-14T08:27:26.797Z</time>
      </trkpt>
      <trkpt lat="45.57999" lon="5.56753">
        <ele>338</ele>
        <time>2023-02-14T08:27:27.797Z</time>
      </trkpt>
      <trkpt lat="45.58003" lon="5.5675">
        <ele>338</ele>
        <time>2023-02-14T08:27:28.797Z</time>
      </trkpt>
      <trkpt lat="45.58007" lon="5.56747">
        <ele>338</ele>
        <time>2023-02-14T08:27:29.797Z</time>
      </trkpt>
      <trkpt lat="45.58011" lon="5.56744">
        <ele>338</ele>
        <time>2023-02-14T08:27:30.797Z</time>
      </trkpt>
      <trkpt lat="45.58015" lon="5.56741">
        <ele>338</ele>
        <time>2023-02-14T08:27:31.797Z</time>
      </trkpt>
      <trkpt lat="45.58019" lon="5.56739">
        <ele>337</ele>
        <time>2023-02-14T08:27:32.797Z</time>
      </trkpt>
      <trkpt lat="45.58023" lon="5.56736">
        <ele>337</ele>
        <time>2023-02-14T08:27:33.797Z</time>
      </trkpt>
      <trkpt lat="45.58028" lon="5.56733">
        <ele>337</ele>
        <time>2023-02-14T08:27:34.797Z</time>
      </trkpt>
      <trkpt lat="45.58032" lon="5.56731">
        <ele>337</ele>
        <time>2023-02-14T08:27:35.797Z</time>
      </trkpt>
      <trkpt lat="45.58037" lon="5.56728">
        <ele>337</ele>
        <time>2023-02-14T08:27:36.797Z</time>
      </trkpt>
      <trkpt lat="45.58041" lon="5.56726">
        <ele>337</ele>
        <time>2023-02-14T08:27:37.797Z</time>
      </trkpt>
      <trkpt lat="45.58046" lon="5.56723">
        <ele>337</ele>
        <time>2023-02-14T08:27:38.797Z</time>
      </trkpt>
      <trkpt lat="45.58051" lon="5.56721">
        <ele>336</ele>
        <time>2023-02-14T08:27:39.797Z</time>
      </trkpt>
      <trkpt lat="45.58056" lon="5.56718">
        <ele>336</ele>
        <time>2023-02-14T08:27:40.797Z</time>
      </trkpt>
      <trkpt lat="45.58061" lon="5.56716">
        <ele>336</ele>
        <time>2023-02-14T08:27:41.797Z</time>
      </trkpt>
      <trkpt lat="45.58066" lon="5.56713">
        <ele>336</ele>
        <time>2023-02-14T08:27:42.797Z</time>
      </trkpt>
      <trkpt lat="45.58071" lon="5.56711">
        <ele>336</ele>
        <time>2023-02-14T08:27:43.797Z</time>
      </trkpt>
      <trkpt lat="45.58076" lon="5.56708">
        <ele>336</ele>
        <time>2023-02-14T08:27:44.797Z</time>
      </trkpt>
      <trkpt lat="45.58081" lon="5.56706">
        <ele>336</ele>
        <time>2023-02-14T08:27:45.797Z</time>
      </trkpt>
      <trkpt lat="45.58086" lon="5.56704">
        <ele>336</ele>
        <time>2023-02-14T08:27:46.797Z</time>
      </trkpt>
      <trkpt lat="45.58091" lon="5.56702">
        <ele>336</ele>
        <time>2023-02-14T08:27:47.797Z</time>
      </trkpt>
      <trkpt lat="45.58096" lon="5.567">
        <ele>335</ele>
        <time>2023-02-14T08:27:48.797Z</time>
      </trkpt>
      <trkpt lat="45.581" lon="5.56698">
        <ele>336</ele>
        <time>2023-02-14T08:27:49.797Z</time>
      </trkpt>
      <trkpt lat="45.58104" lon="5.56696">
        <ele>335</ele>
        <time>2023-02-14T08:27:50.797Z</time>
      </trkpt>
      <trkpt lat="45.58108" lon="5.56694">
        <ele>335</ele>
        <time>2023-02-14T08:27:51.797Z</time>
      </trkpt>
      <trkpt lat="45.58112" lon="5.56693">
        <ele>335</ele>
        <time>2023-02-14T08:27:52.797Z</time>
      </trkpt>
      <trkpt lat="45.58116" lon="5.56693">
        <ele>335</ele>
        <time>2023-02-14T08:27:53.797Z</time>
      </trkpt>
      <trkpt lat="45.5812" lon="5.56693">
        <ele>335</ele>
        <time>2023-02-14T08:27:54.797Z</time>
      </trkpt>
      <trkpt lat="45.58124" lon="5.56694">
        <ele>335</ele>
        <time>2023-02-14T08:27:55.797Z</time>
      </trkpt>
      <trkpt lat="45.58128" lon="5.56694">
        <ele>335</ele>
        <time>2023-02-14T08:27:56.797Z</time>
      </trkpt>
      <trkpt lat="45.58131" lon="5.56695">
        <ele>335</ele>
        <time>2023-02-14T08:27:57.797Z</time>
      </trkpt>
      <trkpt lat="45.58135" lon="5.56697">
        <ele>334</ele>
        <time>2023-02-14T08:27:58.797Z</time>
      </trkpt>
      <trkpt lat="45.58139" lon="5.56699">
        <ele>334</ele>
        <time>2023-02-14T08:27:59.797Z</time>
      </trkpt>
      <trkpt lat="45.58142" lon="5.56703">
        <ele>335</ele>
        <time>2023-02-14T08:28:00.797Z</time>
      </trkpt>
      <trkpt lat="45.58145" lon="5.56708">
        <ele>335</ele>
        <time>2023-02-14T08:28:01.797Z</time>
      </trkpt>
      <trkpt lat="45.58147" lon="5.56713">
        <ele>335</ele>
        <time>2023-02-14T08:28:02.797Z</time>
      </trkpt>
      <trkpt lat="45.58149" lon="5.56718">
        <ele>335</ele>
        <time>2023-02-14T08:28:03.797Z</time>
      </trkpt>
      <trkpt lat="45.58151" lon="5.56724">
        <ele>335</ele>
        <time>2023-02-14T08:28:04.797Z</time>
      </trkpt>
      <trkpt lat="45.58153" lon="5.56729">
        <ele>335</ele>
        <time>2023-02-14T08:28:05.797Z</time>
      </trkpt>
      <trkpt lat="45.58155" lon="5.56734">
        <ele>335</ele>
        <time>2023-02-14T08:28:06.797Z</time>
      </trkpt>
      <trkpt lat="45.58156" lon="5.56739">
        <ele>335</ele>
        <time>2023-02-14T08:28:07.797Z</time>
      </trkpt>
      <trkpt lat="45.58158" lon="5.56744">
        <ele>335</ele>
        <time>2023-02-14T08:28:08.797Z</time>
      </trkpt>
      <trkpt lat="45.5816" lon="5.56749">
        <ele>335</ele>
        <time>2023-02-14T08:28:09.797Z</time>
      </trkpt>
      <trkpt lat="45.58162" lon="5.56754">
        <ele>335</ele>
        <time>2023-02-14T08:28:10.797Z</time>
      </trkpt>
      <trkpt lat="45.58164" lon="5.56759">
        <ele>335</ele>
        <time>2023-02-14T08:28:11.797Z</time>
      </trkpt>
      <trkpt lat="45.58167" lon="5.56763">
        <ele>336</ele>
        <time>2023-02-14T08:28:12.797Z</time>
      </trkpt>
      <trkpt lat="45.58169" lon="5.56767">
        <ele>336</ele>
        <time>2023-02-14T08:28:13.797Z</time>
      </trkpt>
      <trkpt lat="45.58172" lon="5.56771">
        <ele>335</ele>
        <time>2023-02-14T08:28:14.797Z</time>
      </trkpt>
      <trkpt lat="45.58174" lon="5.56774">
        <ele>336</ele>
        <time>2023-02-14T08:28:15.797Z</time>
      </trkpt>
      <trkpt lat="45.58177" lon="5.56777">
        <ele>335</ele>
        <time>2023-02-14T08:28:16.797Z</time>
      </trkpt>
      <trkpt lat="45.58179" lon="5.56781">
        <ele>335</ele>
        <time>2023-02-14T08:28:17.797Z</time>
      </trkpt>
      <trkpt lat="45.58182" lon="5.56784">
        <ele>336</ele>
        <time>2023-02-14T08:28:18.797Z</time>
      </trkpt>
      <trkpt lat="45.58184" lon="5.56787">
        <ele>336</ele>
        <time>2023-02-14T08:28:19.797Z</time>
      </trkpt>
      <trkpt lat="45.58187" lon="5.56791">
        <ele>336</ele>
        <time>2023-02-14T08:28:20.797Z</time>
      </trkpt>
      <trkpt lat="45.58189" lon="5.56794">
        <ele>336</ele>
        <time>2023-02-14T08:28:21.797Z</time>
      </trkpt>
      <trkpt lat="45.58192" lon="5.56798">
        <ele>335</ele>
        <time>2023-02-14T08:28:22.797Z</time>
      </trkpt>
      <trkpt lat="45.58195" lon="5.56802">
        <ele>335</ele>
        <time>2023-02-14T08:28:23.797Z</time>
      </trkpt>
      <trkpt lat="45.58198" lon="5.56806">
        <ele>336</ele>
        <time>2023-02-14T08:28:24.797Z</time>
      </trkpt>
      <trkpt lat="45.58201" lon="5.56809">
        <ele>336</ele>
        <time>2023-02-14T08:28:25.797Z</time>
      </trkpt>
      <trkpt lat="45.58205" lon="5.56813">
        <ele>336</ele>
        <time>2023-02-14T08:28:26.797Z</time>
      </trkpt>
      <trkpt lat="45.58209" lon="5.56816">
        <ele>336</ele>
        <time>2023-02-14T08:28:27.797Z</time>
      </trkpt>
      <trkpt lat="45.58213" lon="5.56819">
        <ele>336</ele>
        <time>2023-02-14T08:28:28.797Z</time>
      </trkpt>
      <trkpt lat="45.58218" lon="5.56822">
        <ele>336</ele>
        <time>2023-02-14T08:28:29.797Z</time>
      </trkpt>
      <trkpt lat="45.58222" lon="5.56825">
        <ele>335</ele>
        <time>2023-02-14T08:28:30.797Z</time>
      </trkpt>
      <trkpt lat="45.58227" lon="5.56827">
        <ele>335</ele>
        <time>2023-02-14T08:28:31.797Z</time>
      </trkpt>
      <trkpt lat="45.58231" lon="5.56829">
        <ele>334</ele>
        <time>2023-02-14T08:28:32.797Z</time>
      </trkpt>
      <trkpt lat="45.58237" lon="5.56831">
        <ele>334</ele>
        <time>2023-02-14T08:28:33.797Z</time>
      </trkpt>
      <trkpt lat="45.58242" lon="5.56832">
        <ele>333</ele>
        <time>2023-02-14T08:28:34.797Z</time>
      </trkpt>
      <trkpt lat="45.58247" lon="5.56833">
        <ele>333</ele>
        <time>2023-02-14T08:28:35.797Z</time>
      </trkpt>
      <trkpt lat="45.58253" lon="5.56834">
        <ele>334</ele>
        <time>2023-02-14T08:28:36.797Z</time>
      </trkpt>
      <trkpt lat="45.58259" lon="5.56835">
        <ele>334</ele>
        <time>2023-02-14T08:28:37.797Z</time>
      </trkpt>
      <trkpt lat="45.58265" lon="5.56835">
        <ele>334</ele>
        <time>2023-02-14T08:28:38.797Z</time>
      </trkpt>
      <trkpt lat="45.5827" lon="5.56835">
        <ele>334</ele>
        <time>2023-02-14T08:28:39.797Z</time>
      </trkpt>
      <trkpt lat="45.58277" lon="5.56835">
        <ele>333</ele>
        <time>2023-02-14T08:28:40.797Z</time>
      </trkpt>
      <trkpt lat="45.58283" lon="5.56833">
        <ele>332</ele>
        <time>2023-02-14T08:28:41.797Z</time>
      </trkpt>
      <trkpt lat="45.58289" lon="5.56831">
        <ele>332</ele>
        <time>2023-02-14T08:28:42.797Z</time>
      </trkpt>
      <trkpt lat="45.58295" lon="5.56829">
        <ele>332</ele>
        <time>2023-02-14T08:28:43.797Z</time>
      </trkpt>
      <trkpt lat="45.58301" lon="5.56828">
        <ele>332</ele>
        <time>2023-02-14T08:28:44.797Z</time>
      </trkpt>
      <trkpt lat="45.58307" lon="5.56826">
        <ele>332</ele>
        <time>2023-02-14T08:28:45.797Z</time>
      </trkpt>
      <trkpt lat="45.58313" lon="5.56824">
        <ele>332</ele>
        <time>2023-02-14T08:28:46.797Z</time>
      </trkpt>
      <trkpt lat="45.58318" lon="5.56822">
        <ele>331</ele>
        <time>2023-02-14T08:28:47.797Z</time>
      </trkpt>
      <trkpt lat="45.58324" lon="5.56821">
        <ele>332</ele>
        <time>2023-02-14T08:28:48.797Z</time>
      </trkpt>
      <trkpt lat="45.58329" lon="5.56819">
        <ele>332</ele>
        <time>2023-02-14T08:28:49.797Z</time>
      </trkpt>
      <trkpt lat="45.58334" lon="5.56818">
        <ele>332</ele>
        <time>2023-02-14T08:28:50.797Z</time>
      </trkpt>
      <trkpt lat="45.58339" lon="5.56817">
        <ele>332</ele>
        <time>2023-02-14T08:28:51.797Z</time>
      </trkpt>
      <trkpt lat="45.58343" lon="5.56816">
        <ele>332</ele>
        <time>2023-02-14T08:28:52.797Z</time>
      </trkpt>
      <trkpt lat="45.58348" lon="5.56815">
        <ele>332</ele>
        <time>2023-02-14T08:28:53.797Z</time>
      </trkpt>
      <trkpt lat="45.58353" lon="5.56814">
        <ele>332</ele>
        <time>2023-02-14T08:28:54.797Z</time>
      </trkpt>
      <trkpt lat="45.58358" lon="5.56814">
        <ele>331</ele>
        <time>2023-02-14T08:28:55.797Z</time>
      </trkpt>
      <trkpt lat="45.58363" lon="5.56813">
        <ele>331</ele>
        <time>2023-02-14T08:28:56.797Z</time>
      </trkpt>
      <trkpt lat="45.58369" lon="5.56813">
        <ele>331</ele>
        <time>2023-02-14T08:28:57.797Z</time>
      </trkpt>
      <trkpt lat="45.58375" lon="5.56813">
        <ele>331</ele>
        <time>2023-02-14T08:28:58.797Z</time>
      </trkpt>
      <trkpt lat="45.58381" lon="5.56814">
        <ele>330</ele>
        <time>2023-02-14T08:28:59.797Z</time>
      </trkpt>
      <trkpt lat="45.58387" lon="5.56815">
        <ele>330</ele>
        <time>2023-02-14T08:29:00.797Z</time>
      </trkpt>
      <trkpt lat="45.58393" lon="5.56816">
        <ele>329</ele>
        <time>2023-02-14T08:29:01.797Z</time>
      </trkpt>
      <trkpt lat="45.584" lon="5.56817">
        <ele>328</ele>
        <time>2023-02-14T08:29:02.797Z</time>
      </trkpt>
      <trkpt lat="45.58407" lon="5.56816">
        <ele>329</ele>
        <time>2023-02-14T08:29:03.797Z</time>
      </trkpt>
      <trkpt lat="45.58414" lon="5.56814">
        <ele>327</ele>
        <time>2023-02-14T08:29:04.797Z</time>
      </trkpt>
      <trkpt lat="45.5842" lon="5.5681">
        <ele>327</ele>
        <time>2023-02-14T08:29:05.797Z</time>
      </trkpt>
      <trkpt lat="45.58427" lon="5.56805">
        <ele>327</ele>
        <time>2023-02-14T08:29:06.797Z</time>
      </trkpt>
      <trkpt lat="45.58433" lon="5.56801">
        <ele>327</ele>
        <time>2023-02-14T08:29:07.797Z</time>
      </trkpt>
      <trkpt lat="45.5844" lon="5.56795">
        <ele>326</ele>
        <time>2023-02-14T08:29:08.797Z</time>
      </trkpt>
      <trkpt lat="45.58447" lon="5.5679">
        <ele>325</ele>
        <time>2023-02-14T08:29:09.797Z</time>
      </trkpt>
      <trkpt lat="45.58454" lon="5.56786">
        <ele>325</ele>
        <time>2023-02-14T08:29:10.797Z</time>
      </trkpt>
      <trkpt lat="45.58461" lon="5.56781">
        <ele>325</ele>
        <time>2023-02-14T08:29:11.797Z</time>
      </trkpt>
      <trkpt lat="45.58468" lon="5.56777">
        <ele>324</ele>
        <time>2023-02-14T08:29:12.797Z</time>
      </trkpt>
      <trkpt lat="45.58475" lon="5.56774">
        <ele>324</ele>
        <time>2023-02-14T08:29:13.797Z</time>
      </trkpt>
      <trkpt lat="45.58482" lon="5.5677">
        <ele>323</ele>
        <time>2023-02-14T08:29:14.797Z</time>
      </trkpt>
      <trkpt lat="45.58489" lon="5.56766">
        <ele>323</ele>
        <time>2023-02-14T08:29:15.797Z</time>
      </trkpt>
      <trkpt lat="45.58497" lon="5.56762">
        <ele>321</ele>
        <time>2023-02-14T08:29:16.797Z</time>
      </trkpt>
      <trkpt lat="45.58505" lon="5.56758">
        <ele>321</ele>
        <time>2023-02-14T08:29:17.797Z</time>
      </trkpt>
      <trkpt lat="45.58512" lon="5.56754">
        <ele>321</ele>
        <time>2023-02-14T08:29:18.797Z</time>
      </trkpt>
      <trkpt lat="45.58519" lon="5.5675">
        <ele>320</ele>
        <time>2023-02-14T08:29:19.797Z</time>
      </trkpt>
      <trkpt lat="45.58526" lon="5.56746">
        <ele>320</ele>
        <time>2023-02-14T08:29:20.797Z</time>
      </trkpt>
      <trkpt lat="45.58534" lon="5.56743">
        <ele>320</ele>
        <time>2023-02-14T08:29:21.797Z</time>
      </trkpt>
      <trkpt lat="45.58541" lon="5.56741">
        <ele>321</ele>
        <time>2023-02-14T08:29:22.797Z</time>
      </trkpt>
      <trkpt lat="45.58548" lon="5.56741">
        <ele>320</ele>
        <time>2023-02-14T08:29:23.797Z</time>
      </trkpt>
      <trkpt lat="45.58556" lon="5.56743">
        <ele>319</ele>
        <time>2023-02-14T08:29:24.797Z</time>
      </trkpt>
      <trkpt lat="45.58564" lon="5.56746">
        <ele>318</ele>
        <time>2023-02-14T08:29:25.797Z</time>
      </trkpt>
      <trkpt lat="45.58573" lon="5.56748">
        <ele>317</ele>
        <time>2023-02-14T08:29:26.797Z</time>
      </trkpt>
      <trkpt lat="45.58581" lon="5.56751">
        <ele>317</ele>
        <time>2023-02-14T08:29:27.797Z</time>
      </trkpt>
      <trkpt lat="45.5859" lon="5.56754">
        <ele>316</ele>
        <time>2023-02-14T08:29:28.797Z</time>
      </trkpt>
      <trkpt lat="45.58598" lon="5.56757">
        <ele>315</ele>
        <time>2023-02-14T08:29:29.797Z</time>
      </trkpt>
      <trkpt lat="45.58607" lon="5.5676">
        <ele>315</ele>
        <time>2023-02-14T08:29:30.797Z</time>
      </trkpt>
      <trkpt lat="45.58616" lon="5.56764">
        <ele>314</ele>
        <time>2023-02-14T08:29:31.797Z</time>
      </trkpt>
      <trkpt lat="45.58625" lon="5.56768">
        <ele>313</ele>
        <time>2023-02-14T08:29:32.797Z</time>
      </trkpt>
      <trkpt lat="45.58634" lon="5.56772">
        <ele>312</ele>
        <time>2023-02-14T08:29:33.797Z</time>
      </trkpt>
      <trkpt lat="45.58642" lon="5.56775">
        <ele>312</ele>
        <time>2023-02-14T08:29:34.797Z</time>
      </trkpt>
      <trkpt lat="45.58649" lon="5.56779">
        <ele>312</ele>
        <time>2023-02-14T08:29:35.797Z</time>
      </trkpt>
      <trkpt lat="45.58656" lon="5.56782">
        <ele>310</ele>
        <time>2023-02-14T08:29:36.797Z</time>
      </trkpt>
      <trkpt lat="45.58662" lon="5.56783">
        <ele>310</ele>
        <time>2023-02-14T08:29:37.797Z</time>
      </trkpt>
      <trkpt lat="45.58667" lon="5.56782">
        <ele>310</ele>
        <time>2023-02-14T08:29:38.797Z</time>
      </trkpt>
      <trkpt lat="45.58672" lon="5.56778">
        <ele>309</ele>
        <time>2023-02-14T08:29:39.797Z</time>
      </trkpt>
      <trkpt lat="45.58675" lon="5.56772">
        <ele>308</ele>
        <time>2023-02-14T08:29:40.797Z</time>
      </trkpt>
      <trkpt lat="45.58678" lon="5.56766">
        <ele>310</ele>
        <time>2023-02-14T08:29:41.797Z</time>
      </trkpt>
      <trkpt lat="45.58678" lon="5.56759">
        <ele>311</ele>
        <time>2023-02-14T08:29:42.797Z</time>
      </trkpt>
      <trkpt lat="45.58677" lon="5.56753">
        <ele>311</ele>
        <time>2023-02-14T08:29:43.797Z</time>
      </trkpt>
      <trkpt lat="45.58675" lon="5.56748">
        <ele>311</ele>
        <time>2023-02-14T08:29:44.797Z</time>
      </trkpt>
      <trkpt lat="45.58674" lon="5.56742">
        <ele>312</ele>
        <time>2023-02-14T08:29:45.797Z</time>
      </trkpt>
      <trkpt lat="45.58673" lon="5.56737">
        <ele>311</ele>
        <time>2023-02-14T08:29:46.797Z</time>
      </trkpt>
      <trkpt lat="45.58673" lon="5.56732">
        <ele>311</ele>
        <time>2023-02-14T08:29:47.797Z</time>
      </trkpt>
      <trkpt lat="45.58673" lon="5.56727">
        <ele>311</ele>
        <time>2023-02-14T08:29:48.797Z</time>
      </trkpt>
      <trkpt lat="45.58674" lon="5.56722">
        <ele>311</ele>
        <time>2023-02-14T08:29:49.797Z</time>
      </trkpt>
      <trkpt lat="45.58674" lon="5.56716">
        <ele>311</ele>
        <time>2023-02-14T08:29:50.797Z</time>
      </trkpt>
      <trkpt lat="45.58674" lon="5.5671">
        <ele>311</ele>
        <time>2023-02-14T08:29:51.797Z</time>
      </trkpt>
      <trkpt lat="45.58674" lon="5.56704">
        <ele>311</ele>
        <time>2023-02-14T08:29:52.797Z</time>
      </trkpt>
      <trkpt lat="45.58675" lon="5.56698">
        <ele>311</ele>
        <time>2023-02-14T08:29:53.797Z</time>
      </trkpt>
      <trkpt lat="45.58675" lon="5.56692">
        <ele>311</ele>
        <time>2023-02-14T08:29:54.797Z</time>
      </trkpt>
      <trkpt lat="45.58675" lon="5.56686">
        <ele>311</ele>
        <time>2023-02-14T08:29:55.797Z</time>
      </trkpt>
      <trkpt lat="45.58676" lon="5.5668">
        <ele>311</ele>
        <time>2023-02-14T08:29:56.797Z</time>
      </trkpt>
      <trkpt lat="45.58677" lon="5.56673">
        <ele>311</ele>
        <time>2023-02-14T08:29:57.797Z</time>
      </trkpt>
      <trkpt lat="45.58677" lon="5.56667">
        <ele>311</ele>
        <time>2023-02-14T08:29:58.797Z</time>
      </trkpt>
      <trkpt lat="45.58678" lon="5.56661">
        <ele>311</ele>
        <time>2023-02-14T08:29:59.797Z</time>
      </trkpt>
      <trkpt lat="45.58678" lon="5.56655">
        <ele>312</ele>
        <time>2023-02-14T08:30:00.797Z</time>
      </trkpt>
      <trkpt lat="45.58679" lon="5.56649">
        <ele>312</ele>
        <time>2023-02-14T08:30:01.797Z</time>
      </trkpt>
      <trkpt lat="45.58679" lon="5.56644">
        <ele>312</ele>
        <time>2023-02-14T08:30:02.797Z</time>
      </trkpt>
      <trkpt lat="45.5868" lon="5.56638">
        <ele>312</ele>
        <time>2023-02-14T08:30:03.797Z</time>
      </trkpt>
      <trkpt lat="45.5868" lon="5.56633">
        <ele>312</ele>
        <time>2023-02-14T08:30:04.797Z</time>
      </trkpt>
      <trkpt lat="45.58681" lon="5.56627">
        <ele>312</ele>
        <time>2023-02-14T08:30:05.797Z</time>
      </trkpt>
      <trkpt lat="45.58682" lon="5.56622">
        <ele>312</ele>
        <time>2023-02-14T08:30:06.797Z</time>
      </trkpt>
      <trkpt lat="45.58682" lon="5.56617">
        <ele>313</ele>
        <time>2023-02-14T08:30:07.797Z</time>
      </trkpt>
      <trkpt lat="45.58683" lon="5.56611">
        <ele>313</ele>
        <time>2023-02-14T08:30:08.797Z</time>
      </trkpt>
      <trkpt lat="45.58684" lon="5.56606">
        <ele>313</ele>
        <time>2023-02-14T08:30:09.797Z</time>
      </trkpt>
      <trkpt lat="45.58684" lon="5.566">
        <ele>313</ele>
        <time>2023-02-14T08:30:10.797Z</time>
      </trkpt>
      <trkpt lat="45.58685" lon="5.56595">
        <ele>313</ele>
        <time>2023-02-14T08:30:11.797Z</time>
      </trkpt>
      <trkpt lat="45.58685" lon="5.5659">
        <ele>313</ele>
        <time>2023-02-14T08:30:12.797Z</time>
      </trkpt>
      <trkpt lat="45.58686" lon="5.56584">
        <ele>314</ele>
        <time>2023-02-14T08:30:13.797Z</time>
      </trkpt>
      <trkpt lat="45.58687" lon="5.56579">
        <ele>314</ele>
        <time>2023-02-14T08:30:14.797Z</time>
      </trkpt>
      <trkpt lat="45.58687" lon="5.56574">
        <ele>314</ele>
        <time>2023-02-14T08:30:15.797Z</time>
      </trkpt>
      <trkpt lat="45.58688" lon="5.56569">
        <ele>314</ele>
        <time>2023-02-14T08:30:16.797Z</time>
      </trkpt>
      <trkpt lat="45.58688" lon="5.56563">
        <ele>314</ele>
        <time>2023-02-14T08:30:17.797Z</time>
      </trkpt>
      <trkpt lat="45.58688" lon="5.56558">
        <ele>314</ele>
        <time>2023-02-14T08:30:18.797Z</time>
      </trkpt>
      <trkpt lat="45.58689" lon="5.56553">
        <ele>314</ele>
        <time>2023-02-14T08:30:19.797Z</time>
      </trkpt>
      <trkpt lat="45.58689" lon="5.56548">
        <ele>314</ele>
        <time>2023-02-14T08:30:20.797Z</time>
      </trkpt>
      <trkpt lat="45.5869" lon="5.56543">
        <ele>314</ele>
        <time>2023-02-14T08:30:21.797Z</time>
      </trkpt>
      <trkpt lat="45.5869" lon="5.56538">
        <ele>314</ele>
        <time>2023-02-14T08:30:22.797Z</time>
      </trkpt>
      <trkpt lat="45.58691" lon="5.56533">
        <ele>314</ele>
        <time>2023-02-14T08:30:23.797Z</time>
      </trkpt>
      <trkpt lat="45.58691" lon="5.56528">
        <ele>314</ele>
        <time>2023-02-14T08:30:24.797Z</time>
      </trkpt>
      <trkpt lat="45.58692" lon="5.56523">
        <ele>314</ele>
        <time>2023-02-14T08:30:25.797Z</time>
      </trkpt>
      <trkpt lat="45.58693" lon="5.56517">
        <ele>313</ele>
        <time>2023-02-14T08:30:26.797Z</time>
      </trkpt>
      <trkpt lat="45.58695" lon="5.56513">
        <ele>313</ele>
        <time>2023-02-14T08:30:27.797Z</time>
      </trkpt>
      <trkpt lat="45.58698" lon="5.56509">
        <ele>311</ele>
        <time>2023-02-14T08:30:28.797Z</time>
      </trkpt>
      <trkpt lat="45.58703" lon="5.56507">
        <ele>311</ele>
        <time>2023-02-14T08:30:29.797Z</time>
      </trkpt>
      <trkpt lat="45.58709" lon="5.56507">
        <ele>311</ele>
        <time>2023-02-14T08:30:30.797Z</time>
      </trkpt>
      <trkpt lat="45.58715" lon="5.56509">
        <ele>310</ele>
        <time>2023-02-14T08:30:31.797Z</time>
      </trkpt>
      <trkpt lat="45.58721" lon="5.5651">
        <ele>310</ele>
        <time>2023-02-14T08:30:32.797Z</time>
      </trkpt>
      <trkpt lat="45.58726" lon="5.56512">
        <ele>310</ele>
        <time>2023-02-14T08:30:33.797Z</time>
      </trkpt>
      <trkpt lat="45.58732" lon="5.56513">
        <ele>310</ele>
        <time>2023-02-14T08:30:34.797Z</time>
      </trkpt>
      <trkpt lat="45.58737" lon="5.56515">
        <ele>309</ele>
        <time>2023-02-14T08:30:35.797Z</time>
      </trkpt>
      <trkpt lat="45.58741" lon="5.56517">
        <ele>309</ele>
        <time>2023-02-14T08:30:36.797Z</time>
      </trkpt>
      <trkpt lat="45.58745" lon="5.5652">
        <ele>309</ele>
        <time>2023-02-14T08:30:37.797Z</time>
      </trkpt>
      <trkpt lat="45.58747" lon="5.56526">
        <ele>310</ele>
        <time>2023-02-14T08:30:38.797Z</time>
      </trkpt>
      <trkpt lat="45.58747" lon="5.56533">
        <ele>309</ele>
        <time>2023-02-14T08:30:39.797Z</time>
      </trkpt>
      <trkpt lat="45.58747" lon="5.5654">
        <ele>309</ele>
        <time>2023-02-14T08:30:40.797Z</time>
      </trkpt>
      <trkpt lat="45.58746" lon="5.56546">
        <ele>309</ele>
        <time>2023-02-14T08:30:41.797Z</time>
      </trkpt>
      <trkpt lat="45.58745" lon="5.56553">
        <ele>309</ele>
        <time>2023-02-14T08:30:42.797Z</time>
      </trkpt>
      <trkpt lat="45.58744" lon="5.56559">
        <ele>309</ele>
        <time>2023-02-14T08:30:43.797Z</time>
      </trkpt>
      <trkpt lat="45.58742" lon="5.56565">
        <ele>309</ele>
        <time>2023-02-14T08:30:44.797Z</time>
      </trkpt>
      <trkpt lat="45.58741" lon="5.56571">
        <ele>309</ele>
        <time>2023-02-14T08:30:45.797Z</time>
      </trkpt>
      <trkpt lat="45.58739" lon="5.56577">
        <ele>308</ele>
        <time>2023-02-14T08:30:46.797Z</time>
      </trkpt>
      <trkpt lat="45.58738" lon="5.56583">
        <ele>308</ele>
        <time>2023-02-14T08:30:47.797Z</time>
      </trkpt>
      <trkpt lat="45.58737" lon="5.56589">
        <ele>308</ele>
        <time>2023-02-14T08:30:48.797Z</time>
      </trkpt>
      <trkpt lat="45.58735" lon="5.56595">
        <ele>308</ele>
        <time>2023-02-14T08:30:49.797Z</time>
      </trkpt>
      <trkpt lat="45.58734" lon="5.56601">
        <ele>308</ele>
        <time>2023-02-14T08:30:50.797Z</time>
      </trkpt>
      <trkpt lat="45.58733" lon="5.56607">
        <ele>308</ele>
        <time>2023-02-14T08:30:51.797Z</time>
      </trkpt>
      <trkpt lat="45.58733" lon="5.56613">
        <ele>308</ele>
        <time>2023-02-14T08:30:52.797Z</time>
      </trkpt>
      <trkpt lat="45.58734" lon="5.56618">
        <ele>309</ele>
        <time>2023-02-14T08:30:53.797Z</time>
      </trkpt>
      <trkpt lat="45.58735" lon="5.56623">
        <ele>309</ele>
        <time>2023-02-14T08:30:54.797Z</time>
      </trkpt>
      <trkpt lat="45.58737" lon="5.56628">
        <ele>309</ele>
        <time>2023-02-14T08:30:55.797Z</time>
      </trkpt>
      <trkpt lat="45.5874" lon="5.56631">
        <ele>310</ele>
        <time>2023-02-14T08:30:56.797Z</time>
      </trkpt>
      <trkpt lat="45.58742" lon="5.56634">
        <ele>310</ele>
        <time>2023-02-14T08:30:57.797Z</time>
      </trkpt>
      <trkpt lat="45.58745" lon="5.56637">
        <ele>310</ele>
        <time>2023-02-14T08:30:58.797Z</time>
      </trkpt>
      <trkpt lat="45.58748" lon="5.5664">
        <ele>310</ele>
        <time>2023-02-14T08:30:59.797Z</time>
      </trkpt>
      <trkpt lat="45.58751" lon="5.56642">
        <ele>311</ele>
        <time>2023-02-14T08:31:00.797Z</time>
      </trkpt>
      <trkpt lat="45.58754" lon="5.56645">
        <ele>311</ele>
        <time>2023-02-14T08:31:01.797Z</time>
      </trkpt>
      <trkpt lat="45.58757" lon="5.56647">
        <ele>311</ele>
        <time>2023-02-14T08:31:02.797Z</time>
      </trkpt>
      <trkpt lat="45.58761" lon="5.56649">
        <ele>311</ele>
        <time>2023-02-14T08:31:03.797Z</time>
      </trkpt>
      <trkpt lat="45.58764" lon="5.56652">
        <ele>311</ele>
        <time>2023-02-14T08:31:04.797Z</time>
      </trkpt>
      <trkpt lat="45.58767" lon="5.56654">
        <ele>311</ele>
        <time>2023-02-14T08:31:05.797Z</time>
      </trkpt>
      <trkpt lat="45.58769" lon="5.56657">
        <ele>311</ele>
        <time>2023-02-14T08:31:06.797Z</time>
      </trkpt>
      <trkpt lat="45.58772" lon="5.56659">
        <ele>311</ele>
        <time>2023-02-14T08:31:07.797Z</time>
      </trkpt>
      <trkpt lat="45.58775" lon="5.56662">
        <ele>311</ele>
        <time>2023-02-14T08:31:08.797Z</time>
      </trkpt>
      <trkpt lat="45.58778" lon="5.56664">
        <ele>311</ele>
        <time>2023-02-14T08:31:09.797Z</time>
      </trkpt>
      <trkpt lat="45.58781" lon="5.56667">
        <ele>311</ele>
        <time>2023-02-14T08:31:10.797Z</time>
      </trkpt>
      <trkpt lat="45.58783" lon="5.5667">
        <ele>311</ele>
        <time>2023-02-14T08:31:11.797Z</time>
      </trkpt>
      <trkpt lat="45.58786" lon="5.56672">
        <ele>311</ele>
        <time>2023-02-14T08:31:12.797Z</time>
      </trkpt>
      <trkpt lat="45.58789" lon="5.56675">
        <ele>311</ele>
        <time>2023-02-14T08:31:13.797Z</time>
      </trkpt>
      <trkpt lat="45.58791" lon="5.56678">
        <ele>311</ele>
        <time>2023-02-14T08:31:14.797Z</time>
      </trkpt>
      <trkpt lat="45.58794" lon="5.56681">
        <ele>311</ele>
        <time>2023-02-14T08:31:15.797Z</time>
      </trkpt>
      <trkpt lat="45.58796" lon="5.56684">
        <ele>311</ele>
        <time>2023-02-14T08:31:16.797Z</time>
      </trkpt>
      <trkpt lat="45.58799" lon="5.56687">
        <ele>311</ele>
        <time>2023-02-14T08:31:17.797Z</time>
      </trkpt>
      <trkpt lat="45.58801" lon="5.56691">
        <ele>310</ele>
        <time>2023-02-14T08:31:18.797Z</time>
      </trkpt>
      <trkpt lat="45.58803" lon="5.56694">
        <ele>310</ele>
        <time>2023-02-14T08:31:19.797Z</time>
      </trkpt>
      <trkpt lat="45.58806" lon="5.56697">
        <ele>310</ele>
        <time>2023-02-14T08:31:20.797Z</time>
      </trkpt>
      <trkpt lat="45.58808" lon="5.567">
        <ele>309</ele>
        <time>2023-02-14T08:31:21.797Z</time>
      </trkpt>
      <trkpt lat="45.5881" lon="5.56704">
        <ele>309</ele>
        <time>2023-02-14T08:31:22.797Z</time>
      </trkpt>
      <trkpt lat="45.58813" lon="5.56707">
        <ele>309</ele>
        <time>2023-02-14T08:31:23.797Z</time>
      </trkpt>
      <trkpt lat="45.58816" lon="5.56711">
        <ele>308</ele>
        <time>2023-02-14T08:31:24.797Z</time>
      </trkpt>
      <trkpt lat="45.58819" lon="5.56716">
        <ele>308</ele>
        <time>2023-02-14T08:31:25.797Z</time>
      </trkpt>
      <trkpt lat="45.58822" lon="5.56721">
        <ele>308</ele>
        <time>2023-02-14T08:31:26.797Z</time>
      </trkpt>
      <trkpt lat="45.58825" lon="5.56726">
        <ele>307</ele>
        <time>2023-02-14T08:31:27.797Z</time>
      </trkpt>
      <trkpt lat="45.58828" lon="5.56732">
        <ele>307</ele>
        <time>2023-02-14T08:31:28.797Z</time>
      </trkpt>
      <trkpt lat="45.58832" lon="5.56737">
        <ele>307</ele>
        <time>2023-02-14T08:31:29.797Z</time>
      </trkpt>
      <trkpt lat="45.58835" lon="5.56742">
        <ele>307</ele>
        <time>2023-02-14T08:31:30.797Z</time>
      </trkpt>
      <trkpt lat="45.58838" lon="5.56746">
        <ele>307</ele>
        <time>2023-02-14T08:31:31.797Z</time>
      </trkpt>
      <trkpt lat="45.58842" lon="5.56749">
        <ele>307</ele>
        <time>2023-02-14T08:31:32.797Z</time>
      </trkpt>
      <trkpt lat="45.58845" lon="5.56752">
        <ele>307</ele>
        <time>2023-02-14T08:31:33.797Z</time>
      </trkpt>
      <trkpt lat="45.58848" lon="5.56753">
        <ele>307</ele>
        <time>2023-02-14T08:31:34.797Z</time>
      </trkpt>
      <trkpt lat="45.5885" lon="5.56755">
        <ele>308</ele>
        <time>2023-02-14T08:31:35.797Z</time>
      </trkpt>
      <trkpt lat="45.58853" lon="5.56756">
        <ele>308</ele>
        <time>2023-02-14T08:31:36.797Z</time>
      </trkpt>
      <trkpt lat="45.58855" lon="5.56757">
        <ele>309</ele>
        <time>2023-02-14T08:31:37.797Z</time>
      </trkpt>
      <trkpt lat="45.58857" lon="5.56759">
        <ele>309</ele>
        <time>2023-02-14T08:31:38.797Z</time>
      </trkpt>
      <trkpt lat="45.58859" lon="5.5676">
        <ele>309</ele>
        <time>2023-02-14T08:31:39.797Z</time>
      </trkpt>
      <trkpt lat="45.58861" lon="5.56761">
        <ele>310</ele>
        <time>2023-02-14T08:31:40.797Z</time>
      </trkpt>
      <trkpt lat="45.58863" lon="5.56762">
        <ele>310</ele>
        <time>2023-02-14T08:31:41.797Z</time>
      </trkpt>
      <trkpt lat="45.58865" lon="5.56763">
        <ele>310</ele>
        <time>2023-02-14T08:31:42.797Z</time>
      </trkpt>
      <trkpt lat="45.58867" lon="5.56764">
        <ele>310</ele>
        <time>2023-02-14T08:31:43.797Z</time>
      </trkpt>
      <trkpt lat="45.58869" lon="5.56765">
        <ele>311</ele>
        <time>2023-02-14T08:31:44.797Z</time>
      </trkpt>
      <trkpt lat="45.58871" lon="5.56767">
        <ele>311</ele>
        <time>2023-02-14T08:31:45.797Z</time>
      </trkpt>
      <trkpt lat="45.58873" lon="5.56769">
        <ele>311</ele>
        <time>2023-02-14T08:31:46.797Z</time>
      </trkpt>
      <trkpt lat="45.58875" lon="5.56771">
        <ele>311</ele>
        <time>2023-02-14T08:31:47.797Z</time>
      </trkpt>
      <trkpt lat="45.58876" lon="5.56773">
        <ele>311</ele>
        <time>2023-02-14T08:31:48.797Z</time>
      </trkpt>
      <trkpt lat="45.58878" lon="5.56776">
        <ele>312</ele>
        <time>2023-02-14T08:31:49.797Z</time>
      </trkpt>
      <trkpt lat="45.58879" lon="5.56779">
        <ele>312</ele>
        <time>2023-02-14T08:31:50.797Z</time>
      </trkpt>
      <trkpt lat="45.5888" lon="5.56782">
        <ele>312</ele>
        <time>2023-02-14T08:31:51.797Z</time>
      </trkpt>
      <trkpt lat="45.5888" lon="5.56785">
        <ele>312</ele>
        <time>2023-02-14T08:31:52.797Z</time>
      </trkpt>
      <trkpt lat="45.58881" lon="5.56788">
        <ele>312</ele>
        <time>2023-02-14T08:31:53.797Z</time>
      </trkpt>
      <trkpt lat="45.58881" lon="5.56791">
        <ele>312</ele>
        <time>2023-02-14T08:31:54.797Z</time>
      </trkpt>
      <trkpt lat="45.58882" lon="5.56793">
        <ele>312</ele>
        <time>2023-02-14T08:31:55.797Z</time>
      </trkpt>
      <trkpt lat="45.58882" lon="5.56796">
        <ele>313</ele>
        <time>2023-02-14T08:31:56.797Z</time>
      </trkpt>
      <trkpt lat="45.58883" lon="5.56798">
        <ele>313</ele>
        <time>2023-02-14T08:31:57.797Z</time>
      </trkpt>
      <trkpt lat="45.58885" lon="5.568">
        <ele>313</ele>
        <time>2023-02-14T08:31:58.797Z</time>
      </trkpt>
      <trkpt lat="45.58886" lon="5.56802">
        <ele>313</ele>
        <time>2023-02-14T08:31:59.797Z</time>
      </trkpt>
      <trkpt lat="45.58888" lon="5.56802">
        <ele>313</ele>
        <time>2023-02-14T08:32:00.797Z</time>
      </trkpt>
      <trkpt lat="45.5889" lon="5.56802">
        <ele>312</ele>
        <time>2023-02-14T08:32:01.797Z</time>
      </trkpt>
      <trkpt lat="45.58892" lon="5.56801">
        <ele>312</ele>
        <time>2023-02-14T08:32:02.797Z</time>
      </trkpt>
      <trkpt lat="45.58894" lon="5.568">
        <ele>312</ele>
        <time>2023-02-14T08:32:03.797Z</time>
      </trkpt>
      <trkpt lat="45.58896" lon="5.56799">
        <ele>312</ele>
        <time>2023-02-14T08:32:04.797Z</time>
      </trkpt>
      <trkpt lat="45.58898" lon="5.56798">
        <ele>312</ele>
        <time>2023-02-14T08:32:05.797Z</time>
      </trkpt>
      <trkpt lat="45.589" lon="5.56797">
        <ele>312</ele>
        <time>2023-02-14T08:32:06.797Z</time>
      </trkpt>
      <trkpt lat="45.58902" lon="5.56796">
        <ele>313</ele>
        <time>2023-02-14T08:32:07.797Z</time>
      </trkpt>
      <trkpt lat="45.58903" lon="5.56795">
        <ele>313</ele>
        <time>2023-02-14T08:32:08.797Z</time>
      </trkpt>
      <trkpt lat="45.58905" lon="5.56794">
        <ele>313</ele>
        <time>2023-02-14T08:32:09.797Z</time>
      </trkpt>
      <trkpt lat="45.58907" lon="5.56792">
        <ele>313</ele>
        <time>2023-02-14T08:32:10.797Z</time>
      </trkpt>
      <trkpt lat="45.58908" lon="5.56791">
        <ele>313</ele>
        <time>2023-02-14T08:32:11.797Z</time>
      </trkpt>
      <trkpt lat="45.5891" lon="5.56789">
        <ele>313</ele>
        <time>2023-02-14T08:32:12.797Z</time>
      </trkpt>
      <trkpt lat="45.58912" lon="5.56788">
        <ele>313</ele>
        <time>2023-02-14T08:32:13.797Z</time>
      </trkpt>
      <trkpt lat="45.58913" lon="5.56786">
        <ele>313</ele>
        <time>2023-02-14T08:32:14.797Z</time>
      </trkpt>
      <trkpt lat="45.58915" lon="5.56785">
        <ele>313</ele>
        <time>2023-02-14T08:32:15.797Z</time>
      </trkpt>
      <trkpt lat="45.58917" lon="5.56784">
        <ele>313</ele>
        <time>2023-02-14T08:32:16.797Z</time>
      </trkpt>
      <trkpt lat="45.58919" lon="5.56782">
        <ele>313</ele>
        <time>2023-02-14T08:32:17.797Z</time>
      </trkpt>
      <trkpt lat="45.58921" lon="5.56781">
        <ele>313</ele>
        <time>2023-02-14T08:32:18.797Z</time>
      </trkpt>
      <trkpt lat="45.58923" lon="5.5678">
        <ele>313</ele>
        <time>2023-02-14T08:32:19.797Z</time>
      </trkpt>
      <trkpt lat="45.58925" lon="5.56778">
        <ele>313</ele>
        <time>2023-02-14T08:32:20.797Z</time>
      </trkpt>
      <trkpt lat="45.58927" lon="5.56777">
        <ele>313</ele>
        <time>2023-02-14T08:32:21.797Z</time>
      </trkpt>
      <trkpt lat="45.58929" lon="5.56776">
        <ele>313</ele>
        <time>2023-02-14T08:32:22.797Z</time>
      </trkpt>
      <trkpt lat="45.58931" lon="5.56775">
        <ele>313</ele>
        <time>2023-02-14T08:32:23.797Z</time>
      </trkpt>
      <trkpt lat="45.58934" lon="5.56773">
        <ele>313</ele>
        <time>2023-02-14T08:32:24.797Z</time>
      </trkpt>
      <trkpt lat="45.58936" lon="5.56772">
        <ele>313</ele>
        <time>2023-02-14T08:32:25.797Z</time>
      </trkpt>
      <trkpt lat="45.58938" lon="5.56771">
        <ele>313</ele>
        <time>2023-02-14T08:32:26.797Z</time>
      </trkpt>
      <trkpt lat="45.5894" lon="5.5677">
        <ele>313</ele>
        <time>2023-02-14T08:32:27.797Z</time>
      </trkpt>
      <trkpt lat="45.58942" lon="5.56769">
        <ele>313</ele>
        <time>2023-02-14T08:32:28.797Z</time>
      </trkpt>
      <trkpt lat="45.58945" lon="5.56768">
        <ele>313</ele>
        <time>2023-02-14T08:32:29.797Z</time>
      </trkpt>
      <trkpt lat="45.58947" lon="5.56767">
        <ele>313</ele>
        <time>2023-02-14T08:32:30.797Z</time>
      </trkpt>
      <trkpt lat="45.58949" lon="5.56767">
        <ele>313</ele>
        <time>2023-02-14T08:32:31.797Z</time>
      </trkpt>
      <trkpt lat="45.58951" lon="5.56766">
        <ele>313</ele>
        <time>2023-02-14T08:32:32.797Z</time>
      </trkpt>
      <trkpt lat="45.58953" lon="5.56765">
        <ele>313</ele>
        <time>2023-02-14T08:32:33.797Z</time>
      </trkpt>
      <trkpt lat="45.58955" lon="5.56763">
        <ele>313</ele>
        <time>2023-02-14T08:32:34.797Z</time>
      </trkpt>
      <trkpt lat="45.58957" lon="5.56762">
        <ele>313</ele>
        <time>2023-02-14T08:32:35.797Z</time>
      </trkpt>
      <trkpt lat="45.58959" lon="5.5676">
        <ele>313</ele>
        <time>2023-02-14T08:32:36.797Z</time>
      </trkpt>
      <trkpt lat="45.58961" lon="5.56758">
        <ele>313</ele>
        <time>2023-02-14T08:32:37.797Z</time>
      </trkpt>
      <trkpt lat="45.58963" lon="5.56756">
        <ele>313</ele>
        <time>2023-02-14T08:32:38.797Z</time>
      </trkpt>
      <trkpt lat="45.58965" lon="5.56754">
        <ele>313</ele>
        <time>2023-02-14T08:32:39.797Z</time>
      </trkpt>
      <trkpt lat="45.58967" lon="5.56752">
        <ele>313</ele>
        <time>2023-02-14T08:32:40.797Z</time>
      </trkpt>
      <trkpt lat="45.58969" lon="5.56751">
        <ele>313</ele>
        <time>2023-02-14T08:32:41.797Z</time>
      </trkpt>
      <trkpt lat="45.58971" lon="5.5675">
        <ele>312</ele>
        <time>2023-02-14T08:32:42.797Z</time>
      </trkpt>
      <trkpt lat="45.58974" lon="5.5675">
        <ele>311</ele>
        <time>2023-02-14T08:32:43.797Z</time>
      </trkpt>
      <trkpt lat="45.58977" lon="5.5675">
        <ele>311</ele>
        <time>2023-02-14T08:32:44.797Z</time>
      </trkpt>
      <trkpt lat="45.5898" lon="5.56752">
        <ele>311</ele>
        <time>2023-02-14T08:32:45.797Z</time>
      </trkpt>
      <trkpt lat="45.58983" lon="5.56753">
        <ele>310</ele>
        <time>2023-02-14T08:32:46.797Z</time>
      </trkpt>
      <trkpt lat="45.58987" lon="5.56756">
        <ele>310</ele>
        <time>2023-02-14T08:32:47.797Z</time>
      </trkpt>
      <trkpt lat="45.58992" lon="5.56758">
        <ele>309</ele>
        <time>2023-02-14T08:32:48.797Z</time>
      </trkpt>
      <trkpt lat="45.58997" lon="5.56761">
        <ele>308</ele>
        <time>2023-02-14T08:32:49.797Z</time>
      </trkpt>
      <trkpt lat="45.59002" lon="5.56763">
        <ele>308</ele>
        <time>2023-02-14T08:32:50.797Z</time>
      </trkpt>
      <trkpt lat="45.59007" lon="5.56766">
        <ele>308</ele>
        <time>2023-02-14T08:32:51.797Z</time>
      </trkpt>
      <trkpt lat="45.59012" lon="5.56767">
        <ele>306</ele>
        <time>2023-02-14T08:32:52.797Z</time>
      </trkpt>
      <trkpt lat="45.59017" lon="5.56768">
        <ele>306</ele>
        <time>2023-02-14T08:32:53.797Z</time>
      </trkpt>
      <trkpt lat="45.59022" lon="5.56769">
        <ele>306</ele>
        <time>2023-02-14T08:32:54.797Z</time>
      </trkpt>
      <trkpt lat="45.59027" lon="5.56769">
        <ele>304</ele>
        <time>2023-02-14T08:32:55.797Z</time>
      </trkpt>
      <trkpt lat="45.59032" lon="5.56768">
        <ele>303</ele>
        <time>2023-02-14T08:32:56.797Z</time>
      </trkpt>
      <trkpt lat="45.59036" lon="5.56766">
        <ele>302</ele>
        <time>2023-02-14T08:32:57.797Z</time>
      </trkpt>
      <trkpt lat="45.5904" lon="5.56765">
        <ele>302</ele>
        <time>2023-02-14T08:32:58.797Z</time>
      </trkpt>
      <trkpt lat="45.59045" lon="5.56763">
        <ele>301</ele>
        <time>2023-02-14T08:32:59.797Z</time>
      </trkpt>
      <trkpt lat="45.59049" lon="5.56761">
        <ele>299</ele>
        <time>2023-02-14T08:33:00.797Z</time>
      </trkpt>
      <trkpt lat="45.59054" lon="5.56758">
        <ele>298</ele>
        <time>2023-02-14T08:33:01.797Z</time>
      </trkpt>
      <trkpt lat="45.59059" lon="5.56756">
        <ele>297</ele>
        <time>2023-02-14T08:33:02.797Z</time>
      </trkpt>
      <trkpt lat="45.59065" lon="5.56754">
        <ele>296</ele>
        <time>2023-02-14T08:33:03.797Z</time>
      </trkpt>
      <trkpt lat="45.59072" lon="5.56753">
        <ele>296</ele>
        <time>2023-02-14T08:33:04.797Z</time>
      </trkpt>
      <trkpt lat="45.59078" lon="5.56754">
        <ele>295</ele>
        <time>2023-02-14T08:33:05.797Z</time>
      </trkpt>
      <trkpt lat="45.59085" lon="5.56755">
        <ele>293</ele>
        <time>2023-02-14T08:33:06.797Z</time>
      </trkpt>
      <trkpt lat="45.59091" lon="5.56757">
        <ele>292</ele>
        <time>2023-02-14T08:33:07.797Z</time>
      </trkpt>
      <trkpt lat="45.59097" lon="5.56759">
        <ele>291</ele>
        <time>2023-02-14T08:33:08.797Z</time>
      </trkpt>
      <trkpt lat="45.59102" lon="5.56761">
        <ele>291</ele>
        <time>2023-02-14T08:33:09.797Z</time>
      </trkpt>
      <trkpt lat="45.59107" lon="5.56764">
        <ele>290</ele>
        <time>2023-02-14T08:33:10.797Z</time>
      </trkpt>
      <trkpt lat="45.59112" lon="5.56767">
        <ele>290</ele>
        <time>2023-02-14T08:33:11.797Z</time>
      </trkpt>
      <trkpt lat="45.59117" lon="5.56772">
        <ele>290</ele>
        <time>2023-02-14T08:33:12.797Z</time>
      </trkpt>
      <trkpt lat="45.59121" lon="5.56776">
        <ele>290</ele>
        <time>2023-02-14T08:33:13.797Z</time>
      </trkpt>
      <trkpt lat="45.59125" lon="5.56781">
        <ele>289</ele>
        <time>2023-02-14T08:33:14.797Z</time>
      </trkpt>
      <trkpt lat="45.5913" lon="5.56785">
        <ele>288</ele>
        <time>2023-02-14T08:33:15.797Z</time>
      </trkpt>
      <trkpt lat="45.59133" lon="5.5679">
        <ele>286</ele>
        <time>2023-02-14T08:33:16.797Z</time>
      </trkpt>
      <trkpt lat="45.59137" lon="5.56795">
        <ele>286</ele>
        <time>2023-02-14T08:33:17.797Z</time>
      </trkpt>
      <trkpt lat="45.59139" lon="5.56801">
        <ele>286</ele>
        <time>2023-02-14T08:33:18.797Z</time>
      </trkpt>
      <trkpt lat="45.59141" lon="5.56809">
        <ele>289</ele>
        <time>2023-02-14T08:33:19.797Z</time>
      </trkpt>
      <trkpt lat="45.59141" lon="5.56817">
        <ele>288</ele>
        <time>2023-02-14T08:33:20.797Z</time>
      </trkpt>
      <trkpt lat="45.5914" lon="5.56824">
        <ele>287</ele>
        <time>2023-02-14T08:33:21.797Z</time>
      </trkpt>
      <trkpt lat="45.59138" lon="5.56829">
        <ele>287</ele>
        <time>2023-02-14T08:33:22.797Z</time>
      </trkpt>
      <trkpt lat="45.59137" lon="5.56834">
        <ele>287</ele>
        <time>2023-02-14T08:33:23.797Z</time>
      </trkpt>
      <trkpt lat="45.59136" lon="5.56839">
        <ele>286</ele>
        <time>2023-02-14T08:33:24.797Z</time>
      </trkpt>
      <trkpt lat="45.59134" lon="5.56844">
        <ele>286</ele>
        <time>2023-02-14T08:33:25.797Z</time>
      </trkpt>
      <trkpt lat="45.59133" lon="5.5685">
        <ele>286</ele>
        <time>2023-02-14T08:33:26.797Z</time>
      </trkpt>
      <trkpt lat="45.59131" lon="5.56856">
        <ele>286</ele>
        <time>2023-02-14T08:33:27.797Z</time>
      </trkpt>
      <trkpt lat="45.5913" lon="5.56861">
        <ele>286</ele>
        <time>2023-02-14T08:33:28.797Z</time>
      </trkpt>
      <trkpt lat="45.59128" lon="5.56866">
        <ele>286</ele>
        <time>2023-02-14T08:33:29.797Z</time>
      </trkpt>
      <trkpt lat="45.59127" lon="5.56871">
        <ele>285</ele>
        <time>2023-02-14T08:33:30.797Z</time>
      </trkpt>
      <trkpt lat="45.59126" lon="5.56877">
        <ele>285</ele>
        <time>2023-02-14T08:33:31.797Z</time>
      </trkpt>
      <trkpt lat="45.59125" lon="5.56882">
        <ele>285</ele>
        <time>2023-02-14T08:33:32.797Z</time>
      </trkpt>
      <trkpt lat="45.59124" lon="5.56888">
        <ele>284</ele>
        <time>2023-02-14T08:33:33.797Z</time>
      </trkpt>
      <trkpt lat="45.59124" lon="5.56894">
        <ele>284</ele>
        <time>2023-02-14T08:33:34.797Z</time>
      </trkpt>
      <trkpt lat="45.59123" lon="5.56899">
        <ele>283</ele>
        <time>2023-02-14T08:33:35.797Z</time>
      </trkpt>
      <trkpt lat="45.59122" lon="5.56906">
        <ele>283</ele>
        <time>2023-02-14T08:33:36.797Z</time>
      </trkpt>
      <trkpt lat="45.59121" lon="5.56912">
        <ele>283</ele>
        <time>2023-02-14T08:33:37.797Z</time>
      </trkpt>
      <trkpt lat="45.59121" lon="5.56919">
        <ele>282</ele>
        <time>2023-02-14T08:33:38.797Z</time>
      </trkpt>
      <trkpt lat="45.5912" lon="5.56926">
        <ele>281</ele>
        <time>2023-02-14T08:33:39.797Z</time>
      </trkpt>
      <trkpt lat="45.5912" lon="5.56933">
        <ele>280</ele>
        <time>2023-02-14T08:33:40.797Z</time>
      </trkpt>
      <trkpt lat="45.59119" lon="5.56941">
        <ele>280</ele>
        <time>2023-02-14T08:33:41.797Z</time>
      </trkpt>
      <trkpt lat="45.59118" lon="5.56948">
        <ele>279</ele>
        <time>2023-02-14T08:33:42.797Z</time>
      </trkpt>
      <trkpt lat="45.59118" lon="5.56956">
        <ele>279</ele>
        <time>2023-02-14T08:33:43.797Z</time>
      </trkpt>
      <trkpt lat="45.59117" lon="5.56964">
        <ele>278</ele>
        <time>2023-02-14T08:33:44.797Z</time>
      </trkpt>
      <trkpt lat="45.59117" lon="5.56971">
        <ele>279</ele>
        <time>2023-02-14T08:33:45.797Z</time>
      </trkpt>
      <trkpt lat="45.59116" lon="5.56979">
        <ele>279</ele>
        <time>2023-02-14T08:33:46.797Z</time>
      </trkpt>
      <trkpt lat="45.59115" lon="5.56987">
        <ele>278</ele>
        <time>2023-02-14T08:33:47.797Z</time>
      </trkpt>
      <trkpt lat="45.59115" lon="5.56995">
        <ele>279</ele>
        <time>2023-02-14T08:33:48.797Z</time>
      </trkpt>
      <trkpt lat="45.59113" lon="5.57002">
        <ele>279</ele>
        <time>2023-02-14T08:33:49.797Z</time>
      </trkpt>
      <trkpt lat="45.59112" lon="5.5701">
        <ele>279</ele>
        <time>2023-02-14T08:33:50.797Z</time>
      </trkpt>
      <trkpt lat="45.5911" lon="5.57017">
        <ele>280</ele>
        <time>2023-02-14T08:33:51.797Z</time>
      </trkpt>
      <trkpt lat="45.59108" lon="5.57024">
        <ele>281</ele>
        <time>2023-02-14T08:33:52.797Z</time>
      </trkpt>
      <trkpt lat="45.59107" lon="5.57031">
        <ele>281</ele>
        <time>2023-02-14T08:33:53.797Z</time>
      </trkpt>
      <trkpt lat="45.59105" lon="5.57038">
        <ele>281</ele>
        <time>2023-02-14T08:33:54.797Z</time>
      </trkpt>
      <trkpt lat="45.59104" lon="5.57044">
        <ele>281</ele>
        <time>2023-02-14T08:33:55.797Z</time>
      </trkpt>
      <trkpt lat="45.59103" lon="5.57051">
        <ele>281</ele>
        <time>2023-02-14T08:33:56.797Z</time>
      </trkpt>
      <trkpt lat="45.59101" lon="5.57057">
        <ele>282</ele>
        <time>2023-02-14T08:33:57.797Z</time>
      </trkpt>
      <trkpt lat="45.591" lon="5.57063">
        <ele>282</ele>
        <time>2023-02-14T08:33:58.797Z</time>
      </trkpt>
      <trkpt lat="45.59099" lon="5.57069">
        <ele>283</ele>
        <time>2023-02-14T08:33:59.797Z</time>
      </trkpt>
      <trkpt lat="45.59098" lon="5.57075">
        <ele>283</ele>
        <time>2023-02-14T08:34:00.797Z</time>
      </trkpt>
      <trkpt lat="45.59097" lon="5.57081">
        <ele>284</ele>
        <time>2023-02-14T08:34:01.797Z</time>
      </trkpt>
      <trkpt lat="45.59096" lon="5.57087">
        <ele>284</ele>
        <time>2023-02-14T08:34:02.797Z</time>
      </trkpt>
      <trkpt lat="45.59095" lon="5.57092">
        <ele>284</ele>
        <time>2023-02-14T08:34:03.797Z</time>
      </trkpt>
      <trkpt lat="45.59094" lon="5.57098">
        <ele>284</ele>
        <time>2023-02-14T08:34:04.797Z</time>
      </trkpt>
      <trkpt lat="45.59094" lon="5.57104">
        <ele>284</ele>
        <time>2023-02-14T08:34:05.797Z</time>
      </trkpt>
      <trkpt lat="45.59093" lon="5.5711">
        <ele>284</ele>
        <time>2023-02-14T08:34:06.797Z</time>
      </trkpt>
      <trkpt lat="45.59092" lon="5.57116">
        <ele>284</ele>
        <time>2023-02-14T08:34:07.797Z</time>
      </trkpt>
      <trkpt lat="45.59092" lon="5.57123">
        <ele>284</ele>
        <time>2023-02-14T08:34:08.797Z</time>
      </trkpt>
      <trkpt lat="45.59092" lon="5.57129">
        <ele>284</ele>
        <time>2023-02-14T08:34:09.797Z</time>
      </trkpt>
      <trkpt lat="45.59092" lon="5.57135">
        <ele>284</ele>
        <time>2023-02-14T08:34:10.797Z</time>
      </trkpt>
      <trkpt lat="45.59092" lon="5.57142">
        <ele>284</ele>
        <time>2023-02-14T08:34:11.797Z</time>
      </trkpt>
      <trkpt lat="45.59092" lon="5.57147">
        <ele>284</ele>
        <time>2023-02-14T08:34:12.797Z</time>
      </trkpt>
      <trkpt lat="45.59092" lon="5.57153">
        <ele>283</ele>
        <time>2023-02-14T08:34:13.797Z</time>
      </trkpt>
      <trkpt lat="45.59092" lon="5.57158">
        <ele>284</ele>
        <time>2023-02-14T08:34:14.797Z</time>
      </trkpt>
      <trkpt lat="45.59092" lon="5.57163">
        <ele>283</ele>
        <time>2023-02-14T08:34:15.797Z</time>
      </trkpt>
      <trkpt lat="45.59093" lon="5.57167">
        <ele>283</ele>
        <time>2023-02-14T08:34:16.797Z</time>
      </trkpt>
      <trkpt lat="45.59094" lon="5.57172">
        <ele>283</ele>
        <time>2023-02-14T08:34:17.797Z</time>
      </trkpt>
      <trkpt lat="45.59094" lon="5.57177">
        <ele>283</ele>
        <time>2023-02-14T08:34:18.797Z</time>
      </trkpt>
      <trkpt lat="45.59096" lon="5.57181">
        <ele>283</ele>
        <time>2023-02-14T08:34:19.797Z</time>
      </trkpt>
      <trkpt lat="45.59097" lon="5.57185">
        <ele>283</ele>
        <time>2023-02-14T08:34:20.797Z</time>
      </trkpt>
      <trkpt lat="45.59098" lon="5.5719">
        <ele>283</ele>
        <time>2023-02-14T08:34:21.797Z</time>
      </trkpt>
      <trkpt lat="45.59098" lon="5.57195">
        <ele>283</ele>
        <time>2023-02-14T08:34:22.797Z</time>
      </trkpt>
      <trkpt lat="45.59099" lon="5.572">
        <ele>283</ele>
        <time>2023-02-14T08:34:23.797Z</time>
      </trkpt>
      <trkpt lat="45.591" lon="5.57204">
        <ele>282</ele>
        <time>2023-02-14T08:34:24.797Z</time>
      </trkpt>
      <trkpt lat="45.591" lon="5.5721">
        <ele>283</ele>
        <time>2023-02-14T08:34:25.797Z</time>
      </trkpt>
      <trkpt lat="45.59101" lon="5.57215">
        <ele>284</ele>
        <time>2023-02-14T08:34:26.797Z</time>
      </trkpt>
      <trkpt lat="45.59101" lon="5.57221">
        <ele>284</ele>
        <time>2023-02-14T08:34:27.797Z</time>
      </trkpt>
      <trkpt lat="45.59101" lon="5.57226">
        <ele>285</ele>
        <time>2023-02-14T08:34:28.797Z</time>
      </trkpt>
      <trkpt lat="45.59101" lon="5.57231">
        <ele>285</ele>
        <time>2023-02-14T08:34:29.797Z</time>
      </trkpt>
      <trkpt lat="45.591" lon="5.57237">
        <ele>286</ele>
        <time>2023-02-14T08:34:30.797Z</time>
      </trkpt>
      <trkpt lat="45.591" lon="5.57242">
        <ele>286</ele>
        <time>2023-02-14T08:34:31.797Z</time>
      </trkpt>
      <trkpt lat="45.591" lon="5.57246">
        <ele>286</ele>
        <time>2023-02-14T08:34:32.797Z</time>
      </trkpt>
      <trkpt lat="45.59099" lon="5.57251">
        <ele>286</ele>
        <time>2023-02-14T08:34:33.797Z</time>
      </trkpt>
      <trkpt lat="45.59099" lon="5.57256">
        <ele>286</ele>
        <time>2023-02-14T08:34:34.797Z</time>
      </trkpt>
      <trkpt lat="45.59098" lon="5.5726">
        <ele>286</ele>
        <time>2023-02-14T08:34:35.797Z</time>
      </trkpt>
      <trkpt lat="45.59098" lon="5.57265">
        <ele>287</ele>
        <time>2023-02-14T08:34:36.797Z</time>
      </trkpt>
      <trkpt lat="45.59097" lon="5.57269">
        <ele>287</ele>
        <time>2023-02-14T08:34:37.797Z</time>
      </trkpt>
      <trkpt lat="45.59096" lon="5.57274">
        <ele>286</ele>
        <time>2023-02-14T08:34:38.797Z</time>
      </trkpt>
      <trkpt lat="45.59095" lon="5.57279">
        <ele>287</ele>
        <time>2023-02-14T08:34:39.797Z</time>
      </trkpt>
      <trkpt lat="45.59094" lon="5.57283">
        <ele>287</ele>
        <time>2023-02-14T08:34:40.797Z</time>
      </trkpt>
      <trkpt lat="45.59092" lon="5.57288">
        <ele>287</ele>
        <time>2023-02-14T08:34:41.797Z</time>
      </trkpt>
      <trkpt lat="45.59091" lon="5.57293">
        <ele>287</ele>
        <time>2023-02-14T08:34:42.797Z</time>
      </trkpt>
      <trkpt lat="45.59091" lon="5.57297">
        <ele>287</ele>
        <time>2023-02-14T08:34:43.797Z</time>
      </trkpt>
      <trkpt lat="45.5909" lon="5.57302">
        <ele>287</ele>
        <time>2023-02-14T08:34:44.797Z</time>
      </trkpt>
      <trkpt lat="45.59089" lon="5.57307">
        <ele>287</ele>
        <time>2023-02-14T08:34:45.797Z</time>
      </trkpt>
      <trkpt lat="45.59088" lon="5.57312">
        <ele>287</ele>
        <time>2023-02-14T08:34:46.797Z</time>
      </trkpt>
      <trkpt lat="45.59087" lon="5.57317">
        <ele>287</ele>
        <time>2023-02-14T08:34:47.797Z</time>
      </trkpt>
      <trkpt lat="45.59086" lon="5.57322">
        <ele>287</ele>
        <time>2023-02-14T08:34:48.797Z</time>
      </trkpt>
      <trkpt lat="45.59085" lon="5.57327">
        <ele>287</ele>
        <time>2023-02-14T08:34:49.797Z</time>
      </trkpt>
      <trkpt lat="45.59084" lon="5.57332">
        <ele>288</ele>
        <time>2023-02-14T08:34:50.797Z</time>
      </trkpt>
      <trkpt lat="45.59083" lon="5.57336">
        <ele>288</ele>
        <time>2023-02-14T08:34:51.797Z</time>
      </trkpt>
      <trkpt lat="45.59082" lon="5.57341">
        <ele>288</ele>
        <time>2023-02-14T08:34:52.797Z</time>
      </trkpt>
      <trkpt lat="45.59082" lon="5.57346">
        <ele>288</ele>
        <time>2023-02-14T08:34:53.797Z</time>
      </trkpt>
      <trkpt lat="45.5908" lon="5.5735">
        <ele>289</ele>
        <time>2023-02-14T08:34:54.797Z</time>
      </trkpt>
      <trkpt lat="45.59079" lon="5.57355">
        <ele>289</ele>
        <time>2023-02-14T08:34:55.797Z</time>
      </trkpt>
      <trkpt lat="45.59078" lon="5.5736">
        <ele>288</ele>
        <time>2023-02-14T08:34:56.797Z</time>
      </trkpt>
      <trkpt lat="45.59077" lon="5.57365">
        <ele>289</ele>
        <time>2023-02-14T08:34:57.797Z</time>
      </trkpt>
      <trkpt lat="45.59076" lon="5.5737">
        <ele>289</ele>
        <time>2023-02-14T08:34:58.797Z</time>
      </trkpt>
      <trkpt lat="45.59075" lon="5.57374">
        <ele>289</ele>
        <time>2023-02-14T08:34:59.797Z</time>
      </trkpt>
      <trkpt lat="45.59074" lon="5.57379">
        <ele>288</ele>
        <time>2023-02-14T08:35:00.797Z</time>
      </trkpt>
      <trkpt lat="45.59073" lon="5.57384">
        <ele>288</ele>
        <time>2023-02-14T08:35:01.797Z</time>
      </trkpt>
      <trkpt lat="45.59071" lon="5.57389">
        <ele>288</ele>
        <time>2023-02-14T08:35:02.797Z</time>
      </trkpt>
      <trkpt lat="45.5907" lon="5.57394">
        <ele>288</ele>
        <time>2023-02-14T08:35:03.797Z</time>
      </trkpt>
      <trkpt lat="45.59069" lon="5.57399">
        <ele>288</ele>
        <time>2023-02-14T08:35:04.797Z</time>
      </trkpt>
      <trkpt lat="45.59068" lon="5.57404">
        <ele>288</ele>
        <time>2023-02-14T08:35:05.797Z</time>
      </trkpt>
      <trkpt lat="45.59067" lon="5.57409">
        <ele>288</ele>
        <time>2023-02-14T08:35:06.797Z</time>
      </trkpt>
      <trkpt lat="45.59066" lon="5.57414">
        <ele>288</ele>
        <time>2023-02-14T08:35:07.797Z</time>
      </trkpt>
      <trkpt lat="45.59066" lon="5.57419">
        <ele>289</ele>
        <time>2023-02-14T08:35:08.797Z</time>
      </trkpt>
      <trkpt lat="45.59065" lon="5.57424">
        <ele>289</ele>
        <time>2023-02-14T08:35:09.797Z</time>
      </trkpt>
      <trkpt lat="45.59064" lon="5.57429">
        <ele>289</ele>
        <time>2023-02-14T08:35:10.797Z</time>
      </trkpt>
      <trkpt lat="45.59063" lon="5.57433">
        <ele>289</ele>
        <time>2023-02-14T08:35:11.797Z</time>
      </trkpt>
      <trkpt lat="45.59062" lon="5.57438">
        <ele>289</ele>
        <time>2023-02-14T08:35:12.797Z</time>
      </trkpt>
      <trkpt lat="45.59061" lon="5.57443">
        <ele>289</ele>
        <time>2023-02-14T08:35:13.797Z</time>
      </trkpt>
      <trkpt lat="45.5906" lon="5.57447">
        <ele>289</ele>
        <time>2023-02-14T08:35:14.797Z</time>
      </trkpt>
      <trkpt lat="45.5906" lon="5.57452">
        <ele>289</ele>
        <time>2023-02-14T08:35:15.797Z</time>
      </trkpt>
      <trkpt lat="45.59059" lon="5.57457">
        <ele>289</ele>
        <time>2023-02-14T08:35:16.797Z</time>
      </trkpt>
      <trkpt lat="45.59058" lon="5.57461">
        <ele>290</ele>
        <time>2023-02-14T08:35:17.797Z</time>
      </trkpt>
      <trkpt lat="45.59057" lon="5.57466">
        <ele>290</ele>
        <time>2023-02-14T08:35:18.797Z</time>
      </trkpt>
      <trkpt lat="45.59056" lon="5.5747">
        <ele>290</ele>
        <time>2023-02-14T08:35:19.797Z</time>
      </trkpt>
      <trkpt lat="45.59055" lon="5.57474">
        <ele>290</ele>
        <time>2023-02-14T08:35:20.797Z</time>
      </trkpt>
      <trkpt lat="45.59054" lon="5.57479">
        <ele>290</ele>
        <time>2023-02-14T08:35:21.797Z</time>
      </trkpt>
      <trkpt lat="45.59053" lon="5.57483">
        <ele>290</ele>
        <time>2023-02-14T08:35:22.797Z</time>
      </trkpt>
      <trkpt lat="45.59052" lon="5.57487">
        <ele>290</ele>
        <time>2023-02-14T08:35:23.797Z</time>
      </trkpt>
      <trkpt lat="45.59051" lon="5.57491">
        <ele>290</ele>
        <time>2023-02-14T08:35:24.797Z</time>
      </trkpt>
      <trkpt lat="45.59051" lon="5.57494">
        <ele>290</ele>
        <time>2023-02-14T08:35:25.797Z</time>
      </trkpt>
      <trkpt lat="45.59052" lon="5.57498">
        <ele>291</ele>
        <time>2023-02-14T08:35:26.797Z</time>
      </trkpt>
      <trkpt lat="45.59054" lon="5.57501">
        <ele>291</ele>
        <time>2023-02-14T08:35:27.797Z</time>
      </trkpt>
      <trkpt lat="45.59057" lon="5.57504">
        <ele>291</ele>
        <time>2023-02-14T08:35:28.797Z</time>
      </trkpt>
      <trkpt lat="45.59059" lon="5.57506">
        <ele>291</ele>
        <time>2023-02-14T08:35:29.797Z</time>
      </trkpt>
      <trkpt lat="45.59062" lon="5.57508">
        <ele>291</ele>
        <time>2023-02-14T08:35:30.797Z</time>
      </trkpt>
      <trkpt lat="45.59065" lon="5.5751">
        <ele>291</ele>
        <time>2023-02-14T08:35:31.797Z</time>
      </trkpt>
      <trkpt lat="45.59068" lon="5.57512">
        <ele>291</ele>
        <time>2023-02-14T08:35:32.797Z</time>
      </trkpt>
      <trkpt lat="45.59071" lon="5.57514">
        <ele>290</ele>
        <time>2023-02-14T08:35:33.797Z</time>
      </trkpt>
      <trkpt lat="45.59075" lon="5.57516">
        <ele>290</ele>
        <time>2023-02-14T08:35:34.797Z</time>
      </trkpt>
      <trkpt lat="45.59079" lon="5.57518">
        <ele>290</ele>
        <time>2023-02-14T08:35:35.797Z</time>
      </trkpt>
      <trkpt lat="45.59084" lon="5.5752">
        <ele>289</ele>
        <time>2023-02-14T08:35:36.797Z</time>
      </trkpt>
      <trkpt lat="45.59088" lon="5.57522">
        <ele>289</ele>
        <time>2023-02-14T08:35:37.797Z</time>
      </trkpt>
      <trkpt lat="45.59094" lon="5.57524">
        <ele>288</ele>
        <time>2023-02-14T08:35:38.797Z</time>
      </trkpt>
      <trkpt lat="45.59099" lon="5.57526">
        <ele>287</ele>
        <time>2023-02-14T08:35:39.797Z</time>
      </trkpt>
      <trkpt lat="45.59105" lon="5.57527">
        <ele>287</ele>
        <time>2023-02-14T08:35:40.797Z</time>
      </trkpt>
      <trkpt lat="45.59111" lon="5.57527">
        <ele>286</ele>
        <time>2023-02-14T08:35:41.797Z</time>
      </trkpt>
      <trkpt lat="45.59118" lon="5.57527">
        <ele>285</ele>
        <time>2023-02-14T08:35:42.797Z</time>
      </trkpt>
      <trkpt lat="45.59124" lon="5.57527">
        <ele>285</ele>
        <time>2023-02-14T08:35:43.797Z</time>
      </trkpt>
      <trkpt lat="45.5913" lon="5.57526">
        <ele>284</ele>
        <time>2023-02-14T08:35:44.797Z</time>
      </trkpt>
      <trkpt lat="45.59136" lon="5.57525">
        <ele>283</ele>
        <time>2023-02-14T08:35:45.797Z</time>
      </trkpt>
      <trkpt lat="45.59142" lon="5.57523">
        <ele>283</ele>
        <time>2023-02-14T08:35:46.797Z</time>
      </trkpt>
      <trkpt lat="45.59148" lon="5.57521">
        <ele>282</ele>
        <time>2023-02-14T08:35:47.797Z</time>
      </trkpt>
      <trkpt lat="45.59154" lon="5.57517">
        <ele>281</ele>
        <time>2023-02-14T08:35:48.797Z</time>
      </trkpt>
      <trkpt lat="45.5916" lon="5.57512">
        <ele>280</ele>
        <time>2023-02-14T08:35:49.797Z</time>
      </trkpt>
      <trkpt lat="45.59166" lon="5.57506">
        <ele>279</ele>
        <time>2023-02-14T08:35:50.797Z</time>
      </trkpt>
      <trkpt lat="45.59171" lon="5.575">
        <ele>278</ele>
        <time>2023-02-14T08:35:51.797Z</time>
      </trkpt>
      <trkpt lat="45.59177" lon="5.57495">
        <ele>276</ele>
        <time>2023-02-14T08:35:52.797Z</time>
      </trkpt>
      <trkpt lat="45.59184" lon="5.57491">
        <ele>274</ele>
        <time>2023-02-14T08:35:53.797Z</time>
      </trkpt>
      <trkpt lat="45.59191" lon="5.57488">
        <ele>272</ele>
        <time>2023-02-14T08:35:54.797Z</time>
      </trkpt>
      <trkpt lat="45.59199" lon="5.57487">
        <ele>272</ele>
        <time>2023-02-14T08:35:55.797Z</time>
      </trkpt>
      <trkpt lat="45.59206" lon="5.57486">
        <ele>271</ele>
        <time>2023-02-14T08:35:56.797Z</time>
      </trkpt>
      <trkpt lat="45.59214" lon="5.57486">
        <ele>270</ele>
        <time>2023-02-14T08:35:57.797Z</time>
      </trkpt>
      <trkpt lat="45.59222" lon="5.57487">
        <ele>269</ele>
        <time>2023-02-14T08:35:58.797Z</time>
      </trkpt>
      <trkpt lat="45.5923" lon="5.57489">
        <ele>268</ele>
        <time>2023-02-14T08:35:59.797Z</time>
      </trkpt>
      <trkpt lat="45.59237" lon="5.57491">
        <ele>267</ele>
        <time>2023-02-14T08:36:00.797Z</time>
      </trkpt>
      <trkpt lat="45.59245" lon="5.57492">
        <ele>266</ele>
        <time>2023-02-14T08:36:01.797Z</time>
      </trkpt>
      <trkpt lat="45.59253" lon="5.57492">
        <ele>265</ele>
        <time>2023-02-14T08:36:02.797Z</time>
      </trkpt>
      <trkpt lat="45.59262" lon="5.57492">
        <ele>264</ele>
        <time>2023-02-14T08:36:03.797Z</time>
      </trkpt>
      <trkpt lat="45.5927" lon="5.57489">
        <ele>263</ele>
        <time>2023-02-14T08:36:04.797Z</time>
      </trkpt>
      <trkpt lat="45.59278" lon="5.57486">
        <ele>261</ele>
        <time>2023-02-14T08:36:05.797Z</time>
      </trkpt>
      <trkpt lat="45.59286" lon="5.57481">
        <ele>258</ele>
        <time>2023-02-14T08:36:06.797Z</time>
      </trkpt>
      <trkpt lat="45.59294" lon="5.57476">
        <ele>256</ele>
        <time>2023-02-14T08:36:07.797Z</time>
      </trkpt>
      <trkpt lat="45.59301" lon="5.57468">
        <ele>259</ele>
        <time>2023-02-14T08:36:08.797Z</time>
      </trkpt>
      <trkpt lat="45.59308" lon="5.5746">
        <ele>259</ele>
        <time>2023-02-14T08:36:09.797Z</time>
      </trkpt>
      <trkpt lat="45.59313" lon="5.57451">
        <ele>259</ele>
        <time>2023-02-14T08:36:10.797Z</time>
      </trkpt>
      <trkpt lat="45.59319" lon="5.57444">
        <ele>259</ele>
        <time>2023-02-14T08:36:11.797Z</time>
      </trkpt>
      <trkpt lat="45.59324" lon="5.57437">
        <ele>259</ele>
        <time>2023-02-14T08:36:12.797Z</time>
      </trkpt>
      <trkpt lat="45.59329" lon="5.5743">
        <ele>259</ele>
        <time>2023-02-14T08:36:13.797Z</time>
      </trkpt>
      <trkpt lat="45.59333" lon="5.57424">
        <ele>259</ele>
        <time>2023-02-14T08:36:14.797Z</time>
      </trkpt>
      <trkpt lat="45.59337" lon="5.57418">
        <ele>259</ele>
        <time>2023-02-14T08:36:15.797Z</time>
      </trkpt>
      <trkpt lat="45.5934" lon="5.57413">
        <ele>258</ele>
        <time>2023-02-14T08:36:16.797Z</time>
      </trkpt>
      <trkpt lat="45.59343" lon="5.57409">
        <ele>256</ele>
        <time>2023-02-14T08:36:17.797Z</time>
      </trkpt>
      <trkpt lat="45.59346" lon="5.57405">
        <ele>255</ele>
        <time>2023-02-14T08:36:18.797Z</time>
      </trkpt>
      <trkpt lat="45.59348" lon="5.57401">
        <ele>255</ele>
        <time>2023-02-14T08:36:19.797Z</time>
      </trkpt>
      <trkpt lat="45.59351" lon="5.57397">
        <ele>256</ele>
        <time>2023-02-14T08:36:20.797Z</time>
      </trkpt>
      <trkpt lat="45.59353" lon="5.57394">
        <ele>256</ele>
        <time>2023-02-14T08:36:21.797Z</time>
      </trkpt>
      <trkpt lat="45.59355" lon="5.5739">
        <ele>256</ele>
        <time>2023-02-14T08:36:22.797Z</time>
      </trkpt>
      <trkpt lat="45.59356" lon="5.57387">
        <ele>257</ele>
        <time>2023-02-14T08:36:23.797Z</time>
      </trkpt>
      <trkpt lat="45.59358" lon="5.57383">
        <ele>258</ele>
        <time>2023-02-14T08:36:24.797Z</time>
      </trkpt>
      <trkpt lat="45.59359" lon="5.57379">
        <ele>258</ele>
        <time>2023-02-14T08:36:25.797Z</time>
      </trkpt>
      <trkpt lat="45.5936" lon="5.57375">
        <ele>259</ele>
        <time>2023-02-14T08:36:26.797Z</time>
      </trkpt>
      <trkpt lat="45.59361" lon="5.57372">
        <ele>259</ele>
        <time>2023-02-14T08:36:27.797Z</time>
      </trkpt>
      <trkpt lat="45.59363" lon="5.57368">
        <ele>259</ele>
        <time>2023-02-14T08:36:28.797Z</time>
      </trkpt>
      <trkpt lat="45.59364" lon="5.57365">
        <ele>260</ele>
        <time>2023-02-14T08:36:29.797Z</time>
      </trkpt>
      <trkpt lat="45.59364" lon="5.57361">
        <ele>261</ele>
        <time>2023-02-14T08:36:30.797Z</time>
      </trkpt>
      <trkpt lat="45.59365" lon="5.57357">
        <ele>261</ele>
        <time>2023-02-14T08:36:31.797Z</time>
      </trkpt>
      <trkpt lat="45.59366" lon="5.57353">
        <ele>261</ele>
        <time>2023-02-14T08:36:32.797Z</time>
      </trkpt>
      <trkpt lat="45.59367" lon="5.5735">
        <ele>262</ele>
        <time>2023-02-14T08:36:33.797Z</time>
      </trkpt>
      <trkpt lat="45.59368" lon="5.57346">
        <ele>263</ele>
        <time>2023-02-14T08:36:34.797Z</time>
      </trkpt>
      <trkpt lat="45.5937" lon="5.57343">
        <ele>263</ele>
        <time>2023-02-14T08:36:35.797Z</time>
      </trkpt>
      <trkpt lat="45.59371" lon="5.57339">
        <ele>263</ele>
        <time>2023-02-14T08:36:36.797Z</time>
      </trkpt>
      <trkpt lat="45.59372" lon="5.57336">
        <ele>264</ele>
        <time>2023-02-14T08:36:37.797Z</time>
      </trkpt>
      <trkpt lat="45.59373" lon="5.57333">
        <ele>265</ele>
        <time>2023-02-14T08:36:38.797Z</time>
      </trkpt>
      <trkpt lat="45.59374" lon="5.57329">
        <ele>265</ele>
        <time>2023-02-14T08:36:39.797Z</time>
      </trkpt>
      <trkpt lat="45.59375" lon="5.57326">
        <ele>266</ele>
        <time>2023-02-14T08:36:40.797Z</time>
      </trkpt>
      <trkpt lat="45.59377" lon="5.57322">
        <ele>266</ele>
        <time>2023-02-14T08:36:41.797Z</time>
      </trkpt>
      <trkpt lat="45.59378" lon="5.57319">
        <ele>266</ele>
        <time>2023-02-14T08:36:42.797Z</time>
      </trkpt>
      <trkpt lat="45.59379" lon="5.57316">
        <ele>267</ele>
        <time>2023-02-14T08:36:43.797Z</time>
      </trkpt>
      <trkpt lat="45.5938" lon="5.57313">
        <ele>267</ele>
        <time>2023-02-14T08:36:44.797Z</time>
      </trkpt>
      <trkpt lat="45.59381" lon="5.5731">
        <ele>267</ele>
        <time>2023-02-14T08:36:45.797Z</time>
      </trkpt>
      <trkpt lat="45.59383" lon="5.57307">
        <ele>268</ele>
        <time>2023-02-14T08:36:46.797Z</time>
      </trkpt>
      <trkpt lat="45.59384" lon="5.57305">
        <ele>268</ele>
        <time>2023-02-14T08:36:47.797Z</time>
      </trkpt>
      <trkpt lat="45.59385" lon="5.57302">
        <ele>268</ele>
        <time>2023-02-14T08:36:48.797Z</time>
      </trkpt>
      <trkpt lat="45.59387" lon="5.573">
        <ele>269</ele>
        <time>2023-02-14T08:36:49.797Z</time>
      </trkpt>
      <trkpt lat="45.59388" lon="5.57298">
        <ele>269</ele>
        <time>2023-02-14T08:36:50.797Z</time>
      </trkpt>
      <trkpt lat="45.5939" lon="5.57295">
        <ele>269</ele>
        <time>2023-02-14T08:36:51.797Z</time>
      </trkpt>
      <trkpt lat="45.59391" lon="5.57294">
        <ele>270</ele>
        <time>2023-02-14T08:36:52.797Z</time>
      </trkpt>
      <trkpt lat="45.59393" lon="5.57292">
        <ele>270</ele>
        <time>2023-02-14T08:36:53.797Z</time>
      </trkpt>
      <trkpt lat="45.59395" lon="5.57291">
        <ele>270</ele>
        <time>2023-02-14T08:36:54.797Z</time>
      </trkpt>
      <trkpt lat="45.59398" lon="5.5729">
        <ele>270</ele>
        <time>2023-02-14T08:36:55.797Z</time>
      </trkpt>
      <trkpt lat="45.594" lon="5.5729">
        <ele>271</ele>
        <time>2023-02-14T08:36:56.797Z</time>
      </trkpt>
      <trkpt lat="45.59402" lon="5.5729">
        <ele>271</ele>
        <time>2023-02-14T08:36:57.797Z</time>
      </trkpt>
      <trkpt lat="45.59405" lon="5.5729">
        <ele>271</ele>
        <time>2023-02-14T08:36:58.797Z</time>
      </trkpt>
      <trkpt lat="45.59407" lon="5.57291">
        <ele>271</ele>
        <time>2023-02-14T08:36:59.797Z</time>
      </trkpt>
      <trkpt lat="45.59409" lon="5.57291">
        <ele>271</ele>
        <time>2023-02-14T08:37:00.797Z</time>
      </trkpt>
      <trkpt lat="45.59412" lon="5.57291">
        <ele>271</ele>
        <time>2023-02-14T08:37:01.797Z</time>
      </trkpt>
      <trkpt lat="45.59414" lon="5.57292">
        <ele>271</ele>
        <time>2023-02-14T08:37:02.797Z</time>
      </trkpt>
      <trkpt lat="45.59416" lon="5.57292">
        <ele>272</ele>
        <time>2023-02-14T08:37:03.797Z</time>
      </trkpt>
      <trkpt lat="45.59418" lon="5.57293">
        <ele>272</ele>
        <time>2023-02-14T08:37:04.797Z</time>
      </trkpt>
      <trkpt lat="45.5942" lon="5.57293">
        <ele>272</ele>
        <time>2023-02-14T08:37:05.797Z</time>
      </trkpt>
      <trkpt lat="45.59421" lon="5.57294">
        <ele>273</ele>
        <time>2023-02-14T08:37:06.797Z</time>
      </trkpt>
      <trkpt lat="45.59423" lon="5.57295">
        <ele>273</ele>
        <time>2023-02-14T08:37:07.797Z</time>
      </trkpt>
      <trkpt lat="45.59425" lon="5.57295">
        <ele>273</ele>
        <time>2023-02-14T08:37:08.797Z</time>
      </trkpt>
      <trkpt lat="45.59427" lon="5.57296">
        <ele>273</ele>
        <time>2023-02-14T08:37:09.797Z</time>
      </trkpt>
      <trkpt lat="45.59428" lon="5.57297">
        <ele>274</ele>
        <time>2023-02-14T08:37:10.797Z</time>
      </trkpt>
      <trkpt lat="45.5943" lon="5.57297">
        <ele>274</ele>
        <time>2023-02-14T08:37:11.797Z</time>
      </trkpt>
      <trkpt lat="45.59431" lon="5.57298">
        <ele>274</ele>
        <time>2023-02-14T08:37:12.797Z</time>
      </trkpt>
      <trkpt lat="45.59433" lon="5.57299">
        <ele>274</ele>
        <time>2023-02-14T08:37:13.797Z</time>
      </trkpt>
      <trkpt lat="45.59434" lon="5.573">
        <ele>275</ele>
        <time>2023-02-14T08:37:14.797Z</time>
      </trkpt>
      <trkpt lat="45.59436" lon="5.573">
        <ele>275</ele>
        <time>2023-02-14T08:37:15.797Z</time>
      </trkpt>
      <trkpt lat="45.59437" lon="5.57301">
        <ele>275</ele>
        <time>2023-02-14T08:37:16.797Z</time>
      </trkpt>
      <trkpt lat="45.59438" lon="5.57302">
        <ele>275</ele>
        <time>2023-02-14T08:37:17.797Z</time>
      </trkpt>
      <trkpt lat="45.5944" lon="5.57303">
        <ele>275</ele>
        <time>2023-02-14T08:37:18.797Z</time>
      </trkpt>
      <trkpt lat="45.59441" lon="5.57304">
        <ele>276</ele>
        <time>2023-02-14T08:37:19.797Z</time>
      </trkpt>
      <trkpt lat="45.59443" lon="5.57304">
        <ele>276</ele>
        <time>2023-02-14T08:37:20.797Z</time>
      </trkpt>
      <trkpt lat="45.59444" lon="5.57305">
        <ele>276</ele>
        <time>2023-02-14T08:37:21.797Z</time>
      </trkpt>
      <trkpt lat="45.59446" lon="5.57305">
        <ele>276</ele>
        <time>2023-02-14T08:37:22.797Z</time>
      </trkpt>
      <trkpt lat="45.59447" lon="5.57306">
        <ele>277</ele>
        <time>2023-02-14T08:37:23.797Z</time>
      </trkpt>
      <trkpt lat="45.59449" lon="5.57307">
        <ele>277</ele>
        <time>2023-02-14T08:37:24.797Z</time>
      </trkpt>
      <trkpt lat="45.5945" lon="5.57307">
        <ele>277</ele>
        <time>2023-02-14T08:37:25.797Z</time>
      </trkpt>
      <trkpt lat="45.59452" lon="5.57308">
        <ele>277</ele>
        <time>2023-02-14T08:37:26.797Z</time>
      </trkpt>
      <trkpt lat="45.59453" lon="5.57309">
        <ele>278</ele>
        <time>2023-02-14T08:37:27.797Z</time>
      </trkpt>
      <trkpt lat="45.59455" lon="5.57309">
        <ele>278</ele>
        <time>2023-02-14T08:37:28.797Z</time>
      </trkpt>
      <trkpt lat="45.59456" lon="5.5731">
        <ele>279</ele>
        <time>2023-02-14T08:37:29.797Z</time>
      </trkpt>
      <trkpt lat="45.59457" lon="5.5731">
        <ele>279</ele>
        <time>2023-02-14T08:37:30.797Z</time>
      </trkpt>
      <trkpt lat="45.59458" lon="5.57311">
        <ele>279</ele>
        <time>2023-02-14T08:37:31.797Z</time>
      </trkpt>
      <trkpt lat="45.59459" lon="5.57311">
        <ele>280</ele>
        <time>2023-02-14T08:37:32.797Z</time>
      </trkpt>
      <trkpt lat="45.59461" lon="5.57312">
        <ele>280</ele>
        <time>2023-02-14T08:37:33.797Z</time>
      </trkpt>
      <trkpt lat="45.59462" lon="5.57312">
        <ele>280</ele>
        <time>2023-02-14T08:37:34.797Z</time>
      </trkpt>
      <trkpt lat="45.59463" lon="5.57313">
        <ele>281</ele>
        <time>2023-02-14T08:37:35.797Z</time>
      </trkpt>
      <trkpt lat="45.59464" lon="5.57313">
        <ele>281</ele>
        <time>2023-02-14T08:37:36.797Z</time>
      </trkpt>
      <trkpt lat="45.59466" lon="5.57314">
        <ele>281</ele>
        <time>2023-02-14T08:37:37.797Z</time>
      </trkpt>
      <trkpt lat="45.59467" lon="5.57314">
        <ele>281</ele>
        <time>2023-02-14T08:37:38.797Z</time>
      </trkpt>
      <trkpt lat="45.59468" lon="5.57314">
        <ele>281</ele>
        <time>2023-02-14T08:37:39.797Z</time>
      </trkpt>
      <trkpt lat="45.5947" lon="5.57315">
        <ele>282</ele>
        <time>2023-02-14T08:37:40.797Z</time>
      </trkpt>
      <trkpt lat="45.59471" lon="5.57315">
        <ele>283</ele>
        <time>2023-02-14T08:37:41.797Z</time>
      </trkpt>
      <trkpt lat="45.59472" lon="5.57316">
        <ele>283</ele>
        <time>2023-02-14T08:37:42.797Z</time>
      </trkpt>
      <trkpt lat="45.59473" lon="5.57316">
        <ele>283</ele>
        <time>2023-02-14T08:37:43.797Z</time>
      </trkpt>
      <trkpt lat="45.59475" lon="5.57316">
        <ele>283</ele>
        <time>2023-02-14T08:37:44.797Z</time>
      </trkpt>
      <trkpt lat="45.59476" lon="5.57316">
        <ele>283</ele>
        <time>2023-02-14T08:37:45.797Z</time>
      </trkpt>
      <trkpt lat="45.59477" lon="5.57316">
        <ele>284</ele>
        <time>2023-02-14T08:37:46.797Z</time>
      </trkpt>
      <trkpt lat="45.59479" lon="5.57316">
        <ele>284</ele>
        <time>2023-02-14T08:37:47.797Z</time>
      </trkpt>
      <trkpt lat="45.5948" lon="5.57317">
        <ele>284</ele>
        <time>2023-02-14T08:37:48.797Z</time>
      </trkpt>
      <trkpt lat="45.59481" lon="5.57316">
        <ele>284</ele>
        <time>2023-02-14T08:37:49.797Z</time>
      </trkpt>
      <trkpt lat="45.59483" lon="5.57316">
        <ele>284</ele>
        <time>2023-02-14T08:37:50.797Z</time>
      </trkpt>
      <trkpt lat="45.59484" lon="5.57316">
        <ele>284</ele>
        <time>2023-02-14T08:37:51.797Z</time>
      </trkpt>
      <trkpt lat="45.59485" lon="5.57315">
        <ele>285</ele>
        <time>2023-02-14T08:37:52.797Z</time>
      </trkpt>
      <trkpt lat="45.59486" lon="5.57314">
        <ele>285</ele>
        <time>2023-02-14T08:37:53.797Z</time>
      </trkpt>
      <trkpt lat="45.59487" lon="5.57313">
        <ele>285</ele>
        <time>2023-02-14T08:37:54.797Z</time>
      </trkpt>
      <trkpt lat="45.59488" lon="5.57312">
        <ele>285</ele>
        <time>2023-02-14T08:37:55.797Z</time>
      </trkpt>
      <trkpt lat="45.59489" lon="5.57312">
        <ele>285</ele>
        <time>2023-02-14T08:37:56.797Z</time>
      </trkpt>
      <trkpt lat="45.5949" lon="5.57311">
        <ele>285</ele>
        <time>2023-02-14T08:37:57.797Z</time>
      </trkpt>
      <trkpt lat="45.59492" lon="5.5731">
        <ele>285</ele>
        <time>2023-02-14T08:37:58.797Z</time>
      </trkpt>
      <trkpt lat="45.59493" lon="5.57309">
        <ele>285</ele>
        <time>2023-02-14T08:37:59.797Z</time>
      </trkpt>
      <trkpt lat="45.59494" lon="5.57308">
        <ele>285</ele>
        <time>2023-02-14T08:38:00.797Z</time>
      </trkpt>
      <trkpt lat="45.59496" lon="5.57307">
        <ele>286</ele>
        <time>2023-02-14T08:38:01.797Z</time>
      </trkpt>
      <trkpt lat="45.59498" lon="5.57308">
        <ele>286</ele>
        <time>2023-02-14T08:38:02.797Z</time>
      </trkpt>
      <trkpt lat="45.59499" lon="5.57309">
        <ele>286</ele>
        <time>2023-02-14T08:38:03.797Z</time>
      </trkpt>
      <trkpt lat="45.595" lon="5.57311">
        <ele>285</ele>
        <time>2023-02-14T08:38:04.797Z</time>
      </trkpt>
      <trkpt lat="45.59501" lon="5.57314">
        <ele>285</ele>
        <time>2023-02-14T08:38:05.797Z</time>
      </trkpt>
      <trkpt lat="45.59501" lon="5.57316">
        <ele>285</ele>
        <time>2023-02-14T08:38:06.797Z</time>
      </trkpt>
      <trkpt lat="45.59503" lon="5.57318">
        <ele>286</ele>
        <time>2023-02-14T08:38:07.797Z</time>
      </trkpt>
      <trkpt lat="45.59504" lon="5.57319">
        <ele>285</ele>
        <time>2023-02-14T08:38:08.797Z</time>
      </trkpt>
      <trkpt lat="45.59506" lon="5.5732">
        <ele>285</ele>
        <time>2023-02-14T08:38:09.797Z</time>
      </trkpt>
      <trkpt lat="45.59507" lon="5.5732">
        <ele>285</ele>
        <time>2023-02-14T08:38:10.797Z</time>
      </trkpt>
      <trkpt lat="45.59509" lon="5.57321">
        <ele>286</ele>
        <time>2023-02-14T08:38:11.797Z</time>
      </trkpt>
      <trkpt lat="45.5951" lon="5.57321">
        <ele>286</ele>
        <time>2023-02-14T08:38:12.797Z</time>
      </trkpt>
      <trkpt lat="45.59512" lon="5.57321">
        <ele>286</ele>
        <time>2023-02-14T08:38:13.797Z</time>
      </trkpt>
      <trkpt lat="45.59513" lon="5.57321">
        <ele>286</ele>
        <time>2023-02-14T08:38:14.797Z</time>
      </trkpt>
      <trkpt lat="45.59515" lon="5.5732">
        <ele>286</ele>
        <time>2023-02-14T08:38:15.797Z</time>
      </trkpt>
      <trkpt lat="45.59516" lon="5.5732">
        <ele>286</ele>
        <time>2023-02-14T08:38:16.797Z</time>
      </trkpt>
      <trkpt lat="45.59517" lon="5.5732">
        <ele>287</ele>
        <time>2023-02-14T08:38:17.797Z</time>
      </trkpt>
      <trkpt lat="45.59519" lon="5.57319">
        <ele>287</ele>
        <time>2023-02-14T08:38:18.797Z</time>
      </trkpt>
      <trkpt lat="45.5952" lon="5.57319">
        <ele>287</ele>
        <time>2023-02-14T08:38:19.797Z</time>
      </trkpt>
      <trkpt lat="45.59521" lon="5.57319">
        <ele>287</ele>
        <time>2023-02-14T08:38:20.797Z</time>
      </trkpt>
      <trkpt lat="45.59522" lon="5.57318">
        <ele>288</ele>
        <time>2023-02-14T08:38:21.797Z</time>
      </trkpt>
      <trkpt lat="45.59524" lon="5.57318">
        <ele>288</ele>
        <time>2023-02-14T08:38:22.797Z</time>
      </trkpt>
      <trkpt lat="45.59525" lon="5.57317">
        <ele>288</ele>
        <time>2023-02-14T08:38:23.797Z</time>
      </trkpt>
      <trkpt lat="45.59526" lon="5.57317">
        <ele>289</ele>
        <time>2023-02-14T08:38:24.797Z</time>
      </trkpt>
      <trkpt lat="45.59528" lon="5.57317">
        <ele>289</ele>
        <time>2023-02-14T08:38:25.797Z</time>
      </trkpt>
      <trkpt lat="45.59529" lon="5.57316">
        <ele>289</ele>
        <time>2023-02-14T08:38:26.797Z</time>
      </trkpt>
      <trkpt lat="45.5953" lon="5.57316">
        <ele>289</ele>
        <time>2023-02-14T08:38:27.797Z</time>
      </trkpt>
      <trkpt lat="45.59532" lon="5.57315">
        <ele>289</ele>
        <time>2023-02-14T08:38:28.797Z</time>
      </trkpt>
      <trkpt lat="45.59533" lon="5.57314">
        <ele>289</ele>
        <time>2023-02-14T08:38:29.797Z</time>
      </trkpt>
      <trkpt lat="45.59534" lon="5.57313">
        <ele>289</ele>
        <time>2023-02-14T08:38:30.797Z</time>
      </trkpt>
      <trkpt lat="45.59535" lon="5.57313">
        <ele>289</ele>
        <time>2023-02-14T08:38:31.797Z</time>
      </trkpt>
      <trkpt lat="45.59536" lon="5.57312">
        <ele>290</ele>
        <time>2023-02-14T08:38:32.797Z</time>
      </trkpt>
      <trkpt lat="45.59538" lon="5.57311">
        <ele>290</ele>
        <time>2023-02-14T08:38:33.797Z</time>
      </trkpt>
      <trkpt lat="45.59539" lon="5.5731">
        <ele>290</ele>
        <time>2023-02-14T08:38:34.797Z</time>
      </trkpt>
      <trkpt lat="45.5954" lon="5.57309">
        <ele>290</ele>
        <time>2023-02-14T08:38:35.797Z</time>
      </trkpt>
      <trkpt lat="45.59541" lon="5.57308">
        <ele>290</ele>
        <time>2023-02-14T08:38:36.797Z</time>
      </trkpt>
      <trkpt lat="45.59542" lon="5.57307">
        <ele>290</ele>
        <time>2023-02-14T08:38:37.797Z</time>
      </trkpt>
      <trkpt lat="45.59543" lon="5.57307">
        <ele>291</ele>
        <time>2023-02-14T08:38:38.797Z</time>
      </trkpt>
      <trkpt lat="45.59544" lon="5.57306">
        <ele>291</ele>
        <time>2023-02-14T08:38:39.797Z</time>
      </trkpt>
      <trkpt lat="45.59545" lon="5.57305">
        <ele>291</ele>
        <time>2023-02-14T08:38:40.797Z</time>
      </trkpt>
      <trkpt lat="45.59546" lon="5.57304">
        <ele>291</ele>
        <time>2023-02-14T08:38:41.797Z</time>
      </trkpt>
      <trkpt lat="45.59547" lon="5.57303">
        <ele>291</ele>
        <time>2023-02-14T08:38:42.797Z</time>
      </trkpt>
      <trkpt lat="45.59548" lon="5.57302">
        <ele>291</ele>
        <time>2023-02-14T08:38:43.797Z</time>
      </trkpt>
      <trkpt lat="45.5955" lon="5.57301">
        <ele>291</ele>
        <time>2023-02-14T08:38:44.797Z</time>
      </trkpt>
      <trkpt lat="45.59551" lon="5.573">
        <ele>292</ele>
        <time>2023-02-14T08:38:45.797Z</time>
      </trkpt>
      <trkpt lat="45.59552" lon="5.57299">
        <ele>292</ele>
        <time>2023-02-14T08:38:46.797Z</time>
      </trkpt>
      <trkpt lat="45.59553" lon="5.57298">
        <ele>292</ele>
        <time>2023-02-14T08:38:47.797Z</time>
      </trkpt>
      <trkpt lat="45.59554" lon="5.57297">
        <ele>292</ele>
        <time>2023-02-14T08:38:48.797Z</time>
      </trkpt>
      <trkpt lat="45.59555" lon="5.57296">
        <ele>293</ele>
        <time>2023-02-14T08:38:49.797Z</time>
      </trkpt>
      <trkpt lat="45.59556" lon="5.57295">
        <ele>293</ele>
        <time>2023-02-14T08:38:50.797Z</time>
      </trkpt>
      <trkpt lat="45.59557" lon="5.57294">
        <ele>293</ele>
        <time>2023-02-14T08:38:51.797Z</time>
      </trkpt>
      <trkpt lat="45.59559" lon="5.57293">
        <ele>293</ele>
        <time>2023-02-14T08:38:52.797Z</time>
      </trkpt>
      <trkpt lat="45.5956" lon="5.57292">
        <ele>294</ele>
        <time>2023-02-14T08:38:53.797Z</time>
      </trkpt>
      <trkpt lat="45.59561" lon="5.57292">
        <ele>294</ele>
        <time>2023-02-14T08:38:54.797Z</time>
      </trkpt>
      <trkpt lat="45.59562" lon="5.57291">
        <ele>294</ele>
        <time>2023-02-14T08:38:55.797Z</time>
      </trkpt>
      <trkpt lat="45.59564" lon="5.5729">
        <ele>295</ele>
        <time>2023-02-14T08:38:56.797Z</time>
      </trkpt>
      <trkpt lat="45.59565" lon="5.5729">
        <ele>295</ele>
        <time>2023-02-14T08:38:57.797Z</time>
      </trkpt>
      <trkpt lat="45.59567" lon="5.57289">
        <ele>295</ele>
        <time>2023-02-14T08:38:58.797Z</time>
      </trkpt>
      <trkpt lat="45.59568" lon="5.57288">
        <ele>295</ele>
        <time>2023-02-14T08:38:59.797Z</time>
      </trkpt>
      <trkpt lat="45.59569" lon="5.57287">
        <ele>295</ele>
        <time>2023-02-14T08:39:00.797Z</time>
      </trkpt>
      <trkpt lat="45.5957" lon="5.57287">
        <ele>296</ele>
        <time>2023-02-14T08:39:01.797Z</time>
      </trkpt>
      <trkpt lat="45.59572" lon="5.57286">
        <ele>296</ele>
        <time>2023-02-14T08:39:02.797Z</time>
      </trkpt>
      <trkpt lat="45.59573" lon="5.57285">
        <ele>296</ele>
        <time>2023-02-14T08:39:03.797Z</time>
      </trkpt>
      <trkpt lat="45.59574" lon="5.57284">
        <ele>296</ele>
        <time>2023-02-14T08:39:04.797Z</time>
      </trkpt>
      <trkpt lat="45.59576" lon="5.57283">
        <ele>296</ele>
        <time>2023-02-14T08:39:05.797Z</time>
      </trkpt>
      <trkpt lat="45.59577" lon="5.57282">
        <ele>296</ele>
        <time>2023-02-14T08:39:06.797Z</time>
      </trkpt>
      <trkpt lat="45.59579" lon="5.57281">
        <ele>297</ele>
        <time>2023-02-14T08:39:07.797Z</time>
      </trkpt>
      <trkpt lat="45.5958" lon="5.57279">
        <ele>297</ele>
        <time>2023-02-14T08:39:08.797Z</time>
      </trkpt>
      <trkpt lat="45.59581" lon="5.57278">
        <ele>297</ele>
        <time>2023-02-14T08:39:09.797Z</time>
      </trkpt>
      <trkpt lat="45.59583" lon="5.57276">
        <ele>297</ele>
        <time>2023-02-14T08:39:10.797Z</time>
      </trkpt>
      <trkpt lat="45.59584" lon="5.57274">
        <ele>297</ele>
        <time>2023-02-14T08:39:11.797Z</time>
      </trkpt>
      <trkpt lat="45.59585" lon="5.57272">
        <ele>298</ele>
        <time>2023-02-14T08:39:12.797Z</time>
      </trkpt>
      <trkpt lat="45.59587" lon="5.5727">
        <ele>298</ele>
        <time>2023-02-14T08:39:13.797Z</time>
      </trkpt>
      <trkpt lat="45.59588" lon="5.57269">
        <ele>298</ele>
        <time>2023-02-14T08:39:14.797Z</time>
      </trkpt>
      <trkpt lat="45.5959" lon="5.57267">
        <ele>298</ele>
        <time>2023-02-14T08:39:15.797Z</time>
      </trkpt>
      <trkpt lat="45.59591" lon="5.57265">
        <ele>298</ele>
        <time>2023-02-14T08:39:16.797Z</time>
      </trkpt>
      <trkpt lat="45.59592" lon="5.57262">
        <ele>298</ele>
        <time>2023-02-14T08:39:17.797Z</time>
      </trkpt>
      <trkpt lat="45.59593" lon="5.5726">
        <ele>298</ele>
        <time>2023-02-14T08:39:18.797Z</time>
      </trkpt>
      <trkpt lat="45.59595" lon="5.57259">
        <ele>298</ele>
        <time>2023-02-14T08:39:19.797Z</time>
      </trkpt>
      <trkpt lat="45.59597" lon="5.57258">
        <ele>298</ele>
        <time>2023-02-14T08:39:20.797Z</time>
      </trkpt>
      <trkpt lat="45.59599" lon="5.57259">
        <ele>298</ele>
        <time>2023-02-14T08:39:21.797Z</time>
      </trkpt>
      <trkpt lat="45.59602" lon="5.57261">
        <ele>298</ele>
        <time>2023-02-14T08:39:22.797Z</time>
      </trkpt>
      <trkpt lat="45.59604" lon="5.57263">
        <ele>298</ele>
        <time>2023-02-14T08:39:23.797Z</time>
      </trkpt>
      <trkpt lat="45.59605" lon="5.57265">
        <ele>298</ele>
        <time>2023-02-14T08:39:24.797Z</time>
      </trkpt>
      <trkpt lat="45.59607" lon="5.57267">
        <ele>298</ele>
        <time>2023-02-14T08:39:25.797Z</time>
      </trkpt>
      <trkpt lat="45.59608" lon="5.57268">
        <ele>299</ele>
        <time>2023-02-14T08:39:26.797Z</time>
      </trkpt>
      <trkpt lat="45.5961" lon="5.5727">
        <ele>299</ele>
        <time>2023-02-14T08:39:27.797Z</time>
      </trkpt>
      <trkpt lat="45.59611" lon="5.57272">
        <ele>299</ele>
        <time>2023-02-14T08:39:28.797Z</time>
      </trkpt>
      <trkpt lat="45.59612" lon="5.57274">
        <ele>298</ele>
        <time>2023-02-14T08:39:29.797Z</time>
      </trkpt>
      <trkpt lat="45.59614" lon="5.57276">
        <ele>298</ele>
        <time>2023-02-14T08:39:30.797Z</time>
      </trkpt>
      <trkpt lat="45.59615" lon="5.57278">
        <ele>298</ele>
        <time>2023-02-14T08:39:31.797Z</time>
      </trkpt>
      <trkpt lat="45.59616" lon="5.5728">
        <ele>299</ele>
        <time>2023-02-14T08:39:32.797Z</time>
      </trkpt>
      <trkpt lat="45.59617" lon="5.57282">
        <ele>299</ele>
        <time>2023-02-14T08:39:33.797Z</time>
      </trkpt>
      <trkpt lat="45.59619" lon="5.57283">
        <ele>299</ele>
        <time>2023-02-14T08:39:34.797Z</time>
      </trkpt>
      <trkpt lat="45.5962" lon="5.57285">
        <ele>300</ele>
        <time>2023-02-14T08:39:35.797Z</time>
      </trkpt>
      <trkpt lat="45.59621" lon="5.57287">
        <ele>300</ele>
        <time>2023-02-14T08:39:36.797Z</time>
      </trkpt>
      <trkpt lat="45.59623" lon="5.57289">
        <ele>301</ele>
        <time>2023-02-14T08:39:37.797Z</time>
      </trkpt>
      <trkpt lat="45.59624" lon="5.57291">
        <ele>301</ele>
        <time>2023-02-14T08:39:38.797Z</time>
      </trkpt>
      <trkpt lat="45.59626" lon="5.57293">
        <ele>302</ele>
        <time>2023-02-14T08:39:39.797Z</time>
      </trkpt>
      <trkpt lat="45.59627" lon="5.57295">
        <ele>302</ele>
        <time>2023-02-14T08:39:40.797Z</time>
      </trkpt>
      <trkpt lat="45.59629" lon="5.57297">
        <ele>302</ele>
        <time>2023-02-14T08:39:41.797Z</time>
      </trkpt>
      <trkpt lat="45.5963" lon="5.57299">
        <ele>303</ele>
        <time>2023-02-14T08:39:42.797Z</time>
      </trkpt>
      <trkpt lat="45.59632" lon="5.57301">
        <ele>303</ele>
        <time>2023-02-14T08:39:43.797Z</time>
      </trkpt>
      <trkpt lat="45.59633" lon="5.57303">
        <ele>303</ele>
        <time>2023-02-14T08:39:44.797Z</time>
      </trkpt>
      <trkpt lat="45.59635" lon="5.57305">
        <ele>303</ele>
        <time>2023-02-14T08:39:45.797Z</time>
      </trkpt>
      <trkpt lat="45.59636" lon="5.57307">
        <ele>304</ele>
        <time>2023-02-14T08:39:46.797Z</time>
      </trkpt>
      <trkpt lat="45.59637" lon="5.57309">
        <ele>304</ele>
        <time>2023-02-14T08:39:47.797Z</time>
      </trkpt>
      <trkpt lat="45.59639" lon="5.57311">
        <ele>304</ele>
        <time>2023-02-14T08:39:48.797Z</time>
      </trkpt>
      <trkpt lat="45.59641" lon="5.57313">
        <ele>304</ele>
        <time>2023-02-14T08:39:49.797Z</time>
      </trkpt>
      <trkpt lat="45.59642" lon="5.57315">
        <ele>304</ele>
        <time>2023-02-14T08:39:50.797Z</time>
      </trkpt>
      <trkpt lat="45.59644" lon="5.57317">
        <ele>303</ele>
        <time>2023-02-14T08:39:51.797Z</time>
      </trkpt>
      <trkpt lat="45.59645" lon="5.57319">
        <ele>303</ele>
        <time>2023-02-14T08:39:52.797Z</time>
      </trkpt>
      <trkpt lat="45.59647" lon="5.57321">
        <ele>303</ele>
        <time>2023-02-14T08:39:53.797Z</time>
      </trkpt>
      <trkpt lat="45.59649" lon="5.57323">
        <ele>304</ele>
        <time>2023-02-14T08:39:54.797Z</time>
      </trkpt>
      <trkpt lat="45.59651" lon="5.57325">
        <ele>304</ele>
        <time>2023-02-14T08:39:55.797Z</time>
      </trkpt>
      <trkpt lat="45.59653" lon="5.57327">
        <ele>304</ele>
        <time>2023-02-14T08:39:56.797Z</time>
      </trkpt>
      <trkpt lat="45.59655" lon="5.57329">
        <ele>304</ele>
        <time>2023-02-14T08:39:57.797Z</time>
      </trkpt>
      <trkpt lat="45.59657" lon="5.57331">
        <ele>304</ele>
        <time>2023-02-14T08:39:58.797Z</time>
      </trkpt>
      <trkpt lat="45.59659" lon="5.57333">
        <ele>304</ele>
        <time>2023-02-14T08:39:59.797Z</time>
      </trkpt>
      <trkpt lat="45.59661" lon="5.57335">
        <ele>304</ele>
        <time>2023-02-14T08:40:00.797Z</time>
      </trkpt>
      <trkpt lat="45.59663" lon="5.57337">
        <ele>304</ele>
        <time>2023-02-14T08:40:01.797Z</time>
      </trkpt>
      <trkpt lat="45.59665" lon="5.57339">
        <ele>304</ele>
        <time>2023-02-14T08:40:02.797Z</time>
      </trkpt>
      <trkpt lat="45.59667" lon="5.57341">
        <ele>304</ele>
        <time>2023-02-14T08:40:03.797Z</time>
      </trkpt>
      <trkpt lat="45.5967" lon="5.57344">
        <ele>304</ele>
        <time>2023-02-14T08:40:04.797Z</time>
      </trkpt>
      <trkpt lat="45.59672" lon="5.57346">
        <ele>304</ele>
        <time>2023-02-14T08:40:05.797Z</time>
      </trkpt>
      <trkpt lat="45.59675" lon="5.57348">
        <ele>305</ele>
        <time>2023-02-14T08:40:06.797Z</time>
      </trkpt>
      <trkpt lat="45.59677" lon="5.57351">
        <ele>305</ele>
        <time>2023-02-14T08:40:07.797Z</time>
      </trkpt>
      <trkpt lat="45.5968" lon="5.57353">
        <ele>305</ele>
        <time>2023-02-14T08:40:08.797Z</time>
      </trkpt>
      <trkpt lat="45.59682" lon="5.57356">
        <ele>305</ele>
        <time>2023-02-14T08:40:09.797Z</time>
      </trkpt>
      <trkpt lat="45.59685" lon="5.57358">
        <ele>305</ele>
        <time>2023-02-14T08:40:10.797Z</time>
      </trkpt>
      <trkpt lat="45.59688" lon="5.57361">
        <ele>305</ele>
        <time>2023-02-14T08:40:11.797Z</time>
      </trkpt>
      <trkpt lat="45.5969" lon="5.57364">
        <ele>305</ele>
        <time>2023-02-14T08:40:12.797Z</time>
      </trkpt>
      <trkpt lat="45.59693" lon="5.57366">
        <ele>305</ele>
        <time>2023-02-14T08:40:13.797Z</time>
      </trkpt>
      <trkpt lat="45.59696" lon="5.57369">
        <ele>305</ele>
        <time>2023-02-14T08:40:14.797Z</time>
      </trkpt>
      <trkpt lat="45.59699" lon="5.57372">
        <ele>305</ele>
        <time>2023-02-14T08:40:15.797Z</time>
      </trkpt>
      <trkpt lat="45.59702" lon="5.57375">
        <ele>305</ele>
        <time>2023-02-14T08:40:16.797Z</time>
      </trkpt>
      <trkpt lat="45.59705" lon="5.57378">
        <ele>305</ele>
        <time>2023-02-14T08:40:17.797Z</time>
      </trkpt>
      <trkpt lat="45.59708" lon="5.57381">
        <ele>305</ele>
        <time>2023-02-14T08:40:18.797Z</time>
      </trkpt>
      <trkpt lat="45.59711" lon="5.57384">
        <ele>305</ele>
        <time>2023-02-14T08:40:19.797Z</time>
      </trkpt>
      <trkpt lat="45.59714" lon="5.57387">
        <ele>305</ele>
        <time>2023-02-14T08:40:20.797Z</time>
      </trkpt>
      <trkpt lat="45.59717" lon="5.5739">
        <ele>305</ele>
        <time>2023-02-14T08:40:21.797Z</time>
      </trkpt>
      <trkpt lat="45.5972" lon="5.57393">
        <ele>305</ele>
        <time>2023-02-14T08:40:22.797Z</time>
      </trkpt>
      <trkpt lat="45.59723" lon="5.57396">
        <ele>305</ele>
        <time>2023-02-14T08:40:23.797Z</time>
      </trkpt>
      <trkpt lat="45.59726" lon="5.57399">
        <ele>304</ele>
        <time>2023-02-14T08:40:24.797Z</time>
      </trkpt>
      <trkpt lat="45.59728" lon="5.57401">
        <ele>304</ele>
        <time>2023-02-14T08:40:25.797Z</time>
      </trkpt>
      <trkpt lat="45.59731" lon="5.57403">
        <ele>304</ele>
        <time>2023-02-14T08:40:26.797Z</time>
      </trkpt>
      <trkpt lat="45.59733" lon="5.57405">
        <ele>304</ele>
        <time>2023-02-14T08:40:27.797Z</time>
      </trkpt>
      <trkpt lat="45.59735" lon="5.57406">
        <ele>304</ele>
        <time>2023-02-14T08:40:28.797Z</time>
      </trkpt>
      <trkpt lat="45.59737" lon="5.57408">
        <ele>304</ele>
        <time>2023-02-14T08:40:29.797Z</time>
      </trkpt>
      <trkpt lat="45.59738" lon="5.57409">
        <ele>304</ele>
        <time>2023-02-14T08:40:30.797Z</time>
      </trkpt>
      <trkpt lat="45.59739" lon="5.5741">
        <ele>304</ele>
        <time>2023-02-14T08:40:31.797Z</time>
      </trkpt>
      <trkpt lat="45.5974" lon="5.57411">
        <ele>304</ele>
        <time>2023-02-14T08:40:32.797Z</time>
      </trkpt>
      <trkpt lat="45.59741" lon="5.57412">
        <ele>304</ele>
        <time>2023-02-14T08:40:33.797Z</time>
      </trkpt>
      <trkpt lat="45.59742" lon="5.57413">
        <ele>303</ele>
        <time>2023-02-14T08:40:34.797Z</time>
      </trkpt>
      <trkpt lat="45.59743" lon="5.57413">
        <ele>303</ele>
        <time>2023-02-14T08:40:35.797Z</time>
      </trkpt>
      <trkpt lat="45.59744" lon="5.57413">
        <ele>303</ele>
        <time>2023-02-14T08:40:36.797Z</time>
      </trkpt>
      <trkpt lat="45.59746" lon="5.57412">
        <ele>302</ele>
        <time>2023-02-14T08:40:37.797Z</time>
      </trkpt>
      <trkpt lat="45.59747" lon="5.57411">
        <ele>302</ele>
        <time>2023-02-14T08:40:38.797Z</time>
      </trkpt>
      <trkpt lat="45.59749" lon="5.57409">
        <ele>302</ele>
        <time>2023-02-14T08:40:39.797Z</time>
      </trkpt>
      <trkpt lat="45.59751" lon="5.57405">
        <ele>302</ele>
        <time>2023-02-14T08:40:40.797Z</time>
      </trkpt>
      <trkpt lat="45.59753" lon="5.57402">
        <ele>302</ele>
        <time>2023-02-14T08:40:41.797Z</time>
      </trkpt>
      <trkpt lat="45.59756" lon="5.57398">
        <ele>302</ele>
        <time>2023-02-14T08:40:42.797Z</time>
      </trkpt>
      <trkpt lat="45.59758" lon="5.57394">
        <ele>302</ele>
        <time>2023-02-14T08:40:43.797Z</time>
      </trkpt>
      <trkpt lat="45.59761" lon="5.5739">
        <ele>302</ele>
        <time>2023-02-14T08:40:44.797Z</time>
      </trkpt>
      <trkpt lat="45.59763" lon="5.57386">
        <ele>302</ele>
        <time>2023-02-14T08:40:45.797Z</time>
      </trkpt>
      <trkpt lat="45.59767" lon="5.57381">
        <ele>302</ele>
        <time>2023-02-14T08:40:46.797Z</time>
      </trkpt>
      <trkpt lat="45.5977" lon="5.57376">
        <ele>301</ele>
        <time>2023-02-14T08:40:47.797Z</time>
      </trkpt>
      <trkpt lat="45.59773" lon="5.57371">
        <ele>301</ele>
        <time>2023-02-14T08:40:48.797Z</time>
      </trkpt>
      <trkpt lat="45.59776" lon="5.57366">
        <ele>301</ele>
        <time>2023-02-14T08:40:49.797Z</time>
      </trkpt>
      <trkpt lat="45.59779" lon="5.5736">
        <ele>301</ele>
        <time>2023-02-14T08:40:50.797Z</time>
      </trkpt>
      <trkpt lat="45.59783" lon="5.57355">
        <ele>300</ele>
        <time>2023-02-14T08:40:51.797Z</time>
      </trkpt>
      <trkpt lat="45.59787" lon="5.57349">
        <ele>299</ele>
        <time>2023-02-14T08:40:52.797Z</time>
      </trkpt>
      <trkpt lat="45.59791" lon="5.57344">
        <ele>299</ele>
        <time>2023-02-14T08:40:53.797Z</time>
      </trkpt>
      <trkpt lat="45.59794" lon="5.57338">
        <ele>298</ele>
        <time>2023-02-14T08:40:54.797Z</time>
      </trkpt>
      <trkpt lat="45.59798" lon="5.57331">
        <ele>298</ele>
        <time>2023-02-14T08:40:55.797Z</time>
      </trkpt>
      <trkpt lat="45.59802" lon="5.57324">
        <ele>297</ele>
        <time>2023-02-14T08:40:56.797Z</time>
      </trkpt>
      <trkpt lat="45.59806" lon="5.57316">
        <ele>297</ele>
        <time>2023-02-14T08:40:57.797Z</time>
      </trkpt>
      <trkpt lat="45.59811" lon="5.57308">
        <ele>296</ele>
        <time>2023-02-14T08:40:58.797Z</time>
      </trkpt>
      <trkpt lat="45.59815" lon="5.573">
        <ele>296</ele>
        <time>2023-02-14T08:40:59.797Z</time>
      </trkpt>
      <trkpt lat="45.59819" lon="5.57291">
        <ele>296</ele>
        <time>2023-02-14T08:41:00.797Z</time>
      </trkpt>
      <trkpt lat="45.59822" lon="5.57283">
        <ele>295</ele>
        <time>2023-02-14T08:41:01.797Z</time>
      </trkpt>
      <trkpt lat="45.59826" lon="5.57274">
        <ele>295</ele>
        <time>2023-02-14T08:41:02.797Z</time>
      </trkpt>
      <trkpt lat="45.5983" lon="5.57266">
        <ele>294</ele>
        <time>2023-02-14T08:41:03.797Z</time>
      </trkpt>
      <trkpt lat="45.59834" lon="5.57258">
        <ele>294</ele>
        <time>2023-02-14T08:41:04.797Z</time>
      </trkpt>
      <trkpt lat="45.59838" lon="5.5725">
        <ele>294</ele>
        <time>2023-02-14T08:41:05.797Z</time>
      </trkpt>
      <trkpt lat="45.59842" lon="5.57242">
        <ele>293</ele>
        <time>2023-02-14T08:41:06.797Z</time>
      </trkpt>
      <trkpt lat="45.59846" lon="5.57234">
        <ele>293</ele>
        <time>2023-02-14T08:41:07.797Z</time>
      </trkpt>
      <trkpt lat="45.5985" lon="5.57226">
        <ele>293</ele>
        <time>2023-02-14T08:41:08.797Z</time>
      </trkpt>
      <trkpt lat="45.59854" lon="5.57217">
        <ele>292</ele>
        <time>2023-02-14T08:41:09.797Z</time>
      </trkpt>
      <trkpt lat="45.59859" lon="5.57209">
        <ele>292</ele>
        <time>2023-02-14T08:41:10.797Z</time>
      </trkpt>
      <trkpt lat="45.59863" lon="5.57201">
        <ele>291</ele>
        <time>2023-02-14T08:41:11.797Z</time>
      </trkpt>
      <trkpt lat="45.59868" lon="5.57193">
        <ele>291</ele>
        <time>2023-02-14T08:41:12.797Z</time>
      </trkpt>
      <trkpt lat="45.59872" lon="5.57185">
        <ele>290</ele>
        <time>2023-02-14T08:41:13.797Z</time>
      </trkpt>
      <trkpt lat="45.59876" lon="5.57177">
        <ele>290</ele>
        <time>2023-02-14T08:41:14.797Z</time>
      </trkpt>
      <trkpt lat="45.59881" lon="5.5717">
        <ele>290</ele>
        <time>2023-02-14T08:41:15.797Z</time>
      </trkpt>
      <trkpt lat="45.59886" lon="5.57162">
        <ele>289</ele>
        <time>2023-02-14T08:41:16.797Z</time>
      </trkpt>
      <trkpt lat="45.5989" lon="5.57155">
        <ele>289</ele>
        <time>2023-02-14T08:41:17.797Z</time>
      </trkpt>
      <trkpt lat="45.59895" lon="5.57149">
        <ele>289</ele>
        <time>2023-02-14T08:41:18.797Z</time>
      </trkpt>
      <trkpt lat="45.599" lon="5.57142">
        <ele>288</ele>
        <time>2023-02-14T08:41:19.797Z</time>
      </trkpt>
      <trkpt lat="45.59904" lon="5.57135">
        <ele>288</ele>
        <time>2023-02-14T08:41:20.797Z</time>
      </trkpt>
      <trkpt lat="45.59909" lon="5.57128">
        <ele>287</ele>
        <time>2023-02-14T08:41:21.797Z</time>
      </trkpt>
      <trkpt lat="45.59914" lon="5.57121">
        <ele>286</ele>
        <time>2023-02-14T08:41:22.797Z</time>
      </trkpt>
      <trkpt lat="45.59919" lon="5.57114">
        <ele>285</ele>
        <time>2023-02-14T08:41:23.797Z</time>
      </trkpt>
      <trkpt lat="45.59924" lon="5.57107">
        <ele>284</ele>
        <time>2023-02-14T08:41:24.797Z</time>
      </trkpt>
      <trkpt lat="45.5993" lon="5.571">
        <ele>283</ele>
        <time>2023-02-14T08:41:25.797Z</time>
      </trkpt>
      <trkpt lat="45.59936" lon="5.57094">
        <ele>283</ele>
        <time>2023-02-14T08:41:26.797Z</time>
      </trkpt>
      <trkpt lat="45.59943" lon="5.57088">
        <ele>284</ele>
        <time>2023-02-14T08:41:27.797Z</time>
      </trkpt>
      <trkpt lat="45.5995" lon="5.57083">
        <ele>283</ele>
        <time>2023-02-14T08:41:28.797Z</time>
      </trkpt>
      <trkpt lat="45.59958" lon="5.57079">
        <ele>282</ele>
        <time>2023-02-14T08:41:29.797Z</time>
      </trkpt>
      <trkpt lat="45.59966" lon="5.57076">
        <ele>281</ele>
        <time>2023-02-14T08:41:30.797Z</time>
      </trkpt>
      <trkpt lat="45.59974" lon="5.57076">
        <ele>282</ele>
        <time>2023-02-14T08:41:31.797Z</time>
      </trkpt>
      <trkpt lat="45.59983" lon="5.57077">
        <ele>281</ele>
        <time>2023-02-14T08:41:32.797Z</time>
      </trkpt>
      <trkpt lat="45.59991" lon="5.57078">
        <ele>282</ele>
        <time>2023-02-14T08:41:33.797Z</time>
      </trkpt>
      <trkpt lat="45.59999" lon="5.57081">
        <ele>281</ele>
        <time>2023-02-14T08:41:34.797Z</time>
      </trkpt>
      <trkpt lat="45.60006" lon="5.57083">
        <ele>282</ele>
        <time>2023-02-14T08:41:35.797Z</time>
      </trkpt>
      <trkpt lat="45.60013" lon="5.57086">
        <ele>282</ele>
        <time>2023-02-14T08:41:36.797Z</time>
      </trkpt>
      <trkpt lat="45.6002" lon="5.57089">
        <ele>282</ele>
        <time>2023-02-14T08:41:37.797Z</time>
      </trkpt>
      <trkpt lat="45.60026" lon="5.57094">
        <ele>281</ele>
        <time>2023-02-14T08:41:38.797Z</time>
      </trkpt>
      <trkpt lat="45.60032" lon="5.57098">
        <ele>281</ele>
        <time>2023-02-14T08:41:39.797Z</time>
      </trkpt>
      <trkpt lat="45.60037" lon="5.57102">
        <ele>281</ele>
        <time>2023-02-14T08:41:40.797Z</time>
      </trkpt>
      <trkpt lat="45.60042" lon="5.57106">
        <ele>283</ele>
        <time>2023-02-14T08:41:41.797Z</time>
      </trkpt>
      <trkpt lat="45.60046" lon="5.57109">
        <ele>283</ele>
        <time>2023-02-14T08:41:42.797Z</time>
      </trkpt>
      <trkpt lat="45.6005" lon="5.57112">
        <ele>284</ele>
        <time>2023-02-14T08:41:43.797Z</time>
      </trkpt>
      <trkpt lat="45.60054" lon="5.57115">
        <ele>284</ele>
        <time>2023-02-14T08:41:44.797Z</time>
      </trkpt>
      <trkpt lat="45.60058" lon="5.57117">
        <ele>285</ele>
        <time>2023-02-14T08:41:45.797Z</time>
      </trkpt>
      <trkpt lat="45.60061" lon="5.57119">
        <ele>285</ele>
        <time>2023-02-14T08:41:46.797Z</time>
      </trkpt>
      <trkpt lat="45.60064" lon="5.5712">
        <ele>285</ele>
        <time>2023-02-14T08:41:47.797Z</time>
      </trkpt>
      <trkpt lat="45.60067" lon="5.57122">
        <ele>285</ele>
        <time>2023-02-14T08:41:48.797Z</time>
      </trkpt>
      <trkpt lat="45.6007" lon="5.57124">
        <ele>286</ele>
        <time>2023-02-14T08:41:49.797Z</time>
      </trkpt>
      <trkpt lat="45.60073" lon="5.57125">
        <ele>286</ele>
        <time>2023-02-14T08:41:50.797Z</time>
      </trkpt>
      <trkpt lat="45.60076" lon="5.57127">
        <ele>286</ele>
        <time>2023-02-14T08:41:51.797Z</time>
      </trkpt>
      <trkpt lat="45.60079" lon="5.57129">
        <ele>287</ele>
        <time>2023-02-14T08:41:52.797Z</time>
      </trkpt>
      <trkpt lat="45.60082" lon="5.57131">
        <ele>287</ele>
        <time>2023-02-14T08:41:53.797Z</time>
      </trkpt>
      <trkpt lat="45.60085" lon="5.57133">
        <ele>287</ele>
        <time>2023-02-14T08:41:54.797Z</time>
      </trkpt>
      <trkpt lat="45.60088" lon="5.57135">
        <ele>287</ele>
        <time>2023-02-14T08:41:55.797Z</time>
      </trkpt>
      <trkpt lat="45.60091" lon="5.57136">
        <ele>287</ele>
        <time>2023-02-14T08:41:56.797Z</time>
      </trkpt>
      <trkpt lat="45.60094" lon="5.57138">
        <ele>288</ele>
        <time>2023-02-14T08:41:57.797Z</time>
      </trkpt>
      <trkpt lat="45.60097" lon="5.5714">
        <ele>288</ele>
        <time>2023-02-14T08:41:58.797Z</time>
      </trkpt>
      <trkpt lat="45.601" lon="5.57142">
        <ele>288</ele>
        <time>2023-02-14T08:41:59.797Z</time>
      </trkpt>
      <trkpt lat="45.60102" lon="5.57144">
        <ele>288</ele>
        <time>2023-02-14T08:42:00.797Z</time>
      </trkpt>
      <trkpt lat="45.60105" lon="5.57145">
        <ele>288</ele>
        <time>2023-02-14T08:42:01.797Z</time>
      </trkpt>
      <trkpt lat="45.60108" lon="5.57147">
        <ele>289</ele>
        <time>2023-02-14T08:42:02.797Z</time>
      </trkpt>
      <trkpt lat="45.60111" lon="5.57149">
        <ele>289</ele>
        <time>2023-02-14T08:42:03.797Z</time>
      </trkpt>
      <trkpt lat="45.60113" lon="5.5715">
        <ele>289</ele>
        <time>2023-02-14T08:42:04.797Z</time>
      </trkpt>
      <trkpt lat="45.60116" lon="5.57152">
        <ele>289</ele>
        <time>2023-02-14T08:42:05.797Z</time>
      </trkpt>
      <trkpt lat="45.60119" lon="5.57154">
        <ele>289</ele>
        <time>2023-02-14T08:42:06.797Z</time>
      </trkpt>
      <trkpt lat="45.60121" lon="5.57156">
        <ele>289</ele>
        <time>2023-02-14T08:42:07.797Z</time>
      </trkpt>
      <trkpt lat="45.60124" lon="5.57157">
        <ele>290</ele>
        <time>2023-02-14T08:42:08.797Z</time>
      </trkpt>
      <trkpt lat="45.60127" lon="5.57159">
        <ele>290</ele>
        <time>2023-02-14T08:42:09.797Z</time>
      </trkpt>
      <trkpt lat="45.60129" lon="5.57161">
        <ele>290</ele>
        <time>2023-02-14T08:42:10.797Z</time>
      </trkpt>
      <trkpt lat="45.60132" lon="5.57162">
        <ele>290</ele>
        <time>2023-02-14T08:42:11.797Z</time>
      </trkpt>
      <trkpt lat="45.60135" lon="5.57164">
        <ele>290</ele>
        <time>2023-02-14T08:42:12.797Z</time>
      </trkpt>
      <trkpt lat="45.60137" lon="5.57166">
        <ele>290</ele>
        <time>2023-02-14T08:42:13.797Z</time>
      </trkpt>
      <trkpt lat="45.6014" lon="5.57167">
        <ele>291</ele>
        <time>2023-02-14T08:42:14.797Z</time>
      </trkpt>
      <trkpt lat="45.60143" lon="5.57169">
        <ele>291</ele>
        <time>2023-02-14T08:42:15.797Z</time>
      </trkpt>
      <trkpt lat="45.60146" lon="5.57171">
        <ele>291</ele>
        <time>2023-02-14T08:42:16.797Z</time>
      </trkpt>
      <trkpt lat="45.60149" lon="5.57172">
        <ele>291</ele>
        <time>2023-02-14T08:42:17.797Z</time>
      </trkpt>
      <trkpt lat="45.60152" lon="5.57174">
        <ele>290</ele>
        <time>2023-02-14T08:42:18.797Z</time>
      </trkpt>
      <trkpt lat="45.60155" lon="5.57176">
        <ele>291</ele>
        <time>2023-02-14T08:42:19.797Z</time>
      </trkpt>
      <trkpt lat="45.60158" lon="5.57178">
        <ele>291</ele>
        <time>2023-02-14T08:42:20.797Z</time>
      </trkpt>
      <trkpt lat="45.60161" lon="5.5718">
        <ele>291</ele>
        <time>2023-02-14T08:42:21.797Z</time>
      </trkpt>
      <trkpt lat="45.60165" lon="5.57182">
        <ele>291</ele>
        <time>2023-02-14T08:42:22.797Z</time>
      </trkpt>
      <trkpt lat="45.60168" lon="5.57184">
        <ele>291</ele>
        <time>2023-02-14T08:42:23.797Z</time>
      </trkpt>
      <trkpt lat="45.60171" lon="5.57186">
        <ele>291</ele>
        <time>2023-02-14T08:42:24.797Z</time>
      </trkpt>
      <trkpt lat="45.60175" lon="5.57188">
        <ele>290</ele>
        <time>2023-02-14T08:42:25.797Z</time>
      </trkpt>
      <trkpt lat="45.60178" lon="5.5719">
        <ele>290</ele>
        <time>2023-02-14T08:42:26.797Z</time>
      </trkpt>
      <trkpt lat="45.60182" lon="5.57192">
        <ele>290</ele>
        <time>2023-02-14T08:42:27.797Z</time>
      </trkpt>
      <trkpt lat="45.60186" lon="5.57194">
        <ele>290</ele>
        <time>2023-02-14T08:42:28.797Z</time>
      </trkpt>
      <trkpt lat="45.6019" lon="5.57196">
        <ele>290</ele>
        <time>2023-02-14T08:42:29.797Z</time>
      </trkpt>
      <trkpt lat="45.60195" lon="5.57199">
        <ele>289</ele>
        <time>2023-02-14T08:42:30.797Z</time>
      </trkpt>
      <trkpt lat="45.60199" lon="5.57202">
        <ele>289</ele>
        <time>2023-02-14T08:42:31.797Z</time>
      </trkpt>
      <trkpt lat="45.60204" lon="5.57205">
        <ele>289</ele>
        <time>2023-02-14T08:42:32.797Z</time>
      </trkpt>
      <trkpt lat="45.60209" lon="5.57208">
        <ele>288</ele>
        <time>2023-02-14T08:42:33.797Z</time>
      </trkpt>
      <trkpt lat="45.60214" lon="5.57212">
        <ele>288</ele>
        <time>2023-02-14T08:42:34.797Z</time>
      </trkpt>
      <trkpt lat="45.60219" lon="5.57216">
        <ele>287</ele>
        <time>2023-02-14T08:42:35.797Z</time>
      </trkpt>
      <trkpt lat="45.60225" lon="5.5722">
        <ele>287</ele>
        <time>2023-02-14T08:42:36.797Z</time>
      </trkpt>
      <trkpt lat="45.6023" lon="5.57225">
        <ele>287</ele>
        <time>2023-02-14T08:42:37.797Z</time>
      </trkpt>
      <trkpt lat="45.60236" lon="5.57229">
        <ele>286</ele>
        <time>2023-02-14T08:42:38.797Z</time>
      </trkpt>
      <trkpt lat="45.60241" lon="5.57234">
        <ele>286</ele>
        <time>2023-02-14T08:42:39.797Z</time>
      </trkpt>
      <trkpt lat="45.60247" lon="5.57238">
        <ele>286</ele>
        <time>2023-02-14T08:42:40.797Z</time>
      </trkpt>
      <trkpt lat="45.60253" lon="5.57242">
        <ele>285</ele>
        <time>2023-02-14T08:42:41.797Z</time>
      </trkpt>
      <trkpt lat="45.60258" lon="5.57246">
        <ele>285</ele>
        <time>2023-02-14T08:42:42.797Z</time>
      </trkpt>
      <trkpt lat="45.60263" lon="5.57251">
        <ele>285</ele>
        <time>2023-02-14T08:42:43.797Z</time>
      </trkpt>
      <trkpt lat="45.60269" lon="5.57255">
        <ele>285</ele>
        <time>2023-02-14T08:42:44.797Z</time>
      </trkpt>
      <trkpt lat="45.60273" lon="5.57259">
        <ele>285</ele>
        <time>2023-02-14T08:42:45.797Z</time>
      </trkpt>
      <trkpt lat="45.60278" lon="5.57263">
        <ele>285</ele>
        <time>2023-02-14T08:42:46.797Z</time>
      </trkpt>
      <trkpt lat="45.60283" lon="5.57268">
        <ele>285</ele>
        <time>2023-02-14T08:42:47.797Z</time>
      </trkpt>
      <trkpt lat="45.60287" lon="5.57272">
        <ele>285</ele>
        <time>2023-02-14T08:42:48.797Z</time>
      </trkpt>
      <trkpt lat="45.60291" lon="5.57276">
        <ele>284</ele>
        <time>2023-02-14T08:42:49.797Z</time>
      </trkpt>
      <trkpt lat="45.60295" lon="5.57279">
        <ele>284</ele>
        <time>2023-02-14T08:42:50.797Z</time>
      </trkpt>
      <trkpt lat="45.60299" lon="5.57281">
        <ele>285</ele>
        <time>2023-02-14T08:42:51.797Z</time>
      </trkpt>
      <trkpt lat="45.60302" lon="5.57282">
        <ele>286</ele>
        <time>2023-02-14T08:42:52.797Z</time>
      </trkpt>
      <trkpt lat="45.60304" lon="5.57283">
        <ele>285</ele>
        <time>2023-02-14T08:42:53.797Z</time>
      </trkpt>
      <trkpt lat="45.60304" lon="5.57283">
        <ele>285</ele>
        <time>2023-02-14T08:42:54.797Z</time>
      </trkpt>
      <trkpt lat="45.60305" lon="5.57283">
        <ele>285</ele>
        <time>2023-02-14T08:42:55.797Z</time>
      </trkpt>
      <trkpt lat="45.60305" lon="5.57283">
        <ele>285</ele>
        <time>2023-02-14T08:42:56.797Z</time>
      </trkpt>
      <trkpt lat="45.60306" lon="5.57283">
        <ele>285</ele>
        <time>2023-02-14T08:42:57.797Z</time>
      </trkpt>
      <trkpt lat="45.60307" lon="5.57283">
        <ele>285</ele>
        <time>2023-02-14T08:42:58.797Z</time>
      </trkpt>
      <trkpt lat="45.60309" lon="5.57282">
        <ele>284</ele>
        <time>2023-02-14T08:42:59.797Z</time>
      </trkpt>
      <trkpt lat="45.6031" lon="5.5728">
        <ele>284</ele>
        <time>2023-02-14T08:43:00.797Z</time>
      </trkpt>
      <trkpt lat="45.60312" lon="5.57277">
        <ele>283</ele>
        <time>2023-02-14T08:43:01.797Z</time>
      </trkpt>
      <trkpt lat="45.60313" lon="5.57274">
        <ele>283</ele>
        <time>2023-02-14T08:43:02.797Z</time>
      </trkpt>
      <trkpt lat="45.60314" lon="5.5727">
        <ele>283</ele>
        <time>2023-02-14T08:43:03.797Z</time>
      </trkpt>
      <trkpt lat="45.60316" lon="5.57266">
        <ele>283</ele>
        <time>2023-02-14T08:43:04.797Z</time>
      </trkpt>
      <trkpt lat="45.60317" lon="5.57261">
        <ele>283</ele>
        <time>2023-02-14T08:43:05.797Z</time>
      </trkpt>
      <trkpt lat="45.60319" lon="5.57257">
        <ele>283</ele>
        <time>2023-02-14T08:43:06.797Z</time>
      </trkpt>
      <trkpt lat="45.60321" lon="5.57252">
        <ele>283</ele>
        <time>2023-02-14T08:43:07.797Z</time>
      </trkpt>
      <trkpt lat="45.60323" lon="5.57247">
        <ele>283</ele>
        <time>2023-02-14T08:43:08.797Z</time>
      </trkpt>
      <trkpt lat="45.60325" lon="5.57242">
        <ele>282</ele>
        <time>2023-02-14T08:43:09.797Z</time>
      </trkpt>
      <trkpt lat="45.60327" lon="5.57236">
        <ele>282</ele>
        <time>2023-02-14T08:43:10.797Z</time>
      </trkpt>
      <trkpt lat="45.60329" lon="5.5723">
        <ele>281</ele>
        <time>2023-02-14T08:43:11.797Z</time>
      </trkpt>
      <trkpt lat="45.60333" lon="5.57226">
        <ele>281</ele>
        <time>2023-02-14T08:43:12.797Z</time>
      </trkpt>
      <trkpt lat="45.60339" lon="5.57225">
        <ele>281</ele>
        <time>2023-02-14T08:43:13.797Z</time>
      </trkpt>
      <trkpt lat="45.60345" lon="5.57226">
        <ele>281</ele>
        <time>2023-02-14T08:43:14.797Z</time>
      </trkpt>
      <trkpt lat="45.6035" lon="5.57229">
        <ele>281</ele>
        <time>2023-02-14T08:43:15.797Z</time>
      </trkpt>
      <trkpt lat="45.60355" lon="5.57232">
        <ele>281</ele>
        <time>2023-02-14T08:43:16.797Z</time>
      </trkpt>
      <trkpt lat="45.60361" lon="5.57235">
        <ele>280</ele>
        <time>2023-02-14T08:43:17.797Z</time>
      </trkpt>
      <trkpt lat="45.60366" lon="5.57238">
        <ele>280</ele>
        <time>2023-02-14T08:43:18.797Z</time>
      </trkpt>
      <trkpt lat="45.60371" lon="5.57239">
        <ele>279</ele>
        <time>2023-02-14T08:43:19.797Z</time>
      </trkpt>
      <trkpt lat="45.60377" lon="5.57239">
        <ele>278</ele>
        <time>2023-02-14T08:43:20.797Z</time>
      </trkpt>
      <trkpt lat="45.60383" lon="5.57237">
        <ele>277</ele>
        <time>2023-02-14T08:43:21.797Z</time>
      </trkpt>
      <trkpt lat="45.6039" lon="5.57234">
        <ele>276</ele>
        <time>2023-02-14T08:43:22.797Z</time>
      </trkpt>
      <trkpt lat="45.60396" lon="5.5723">
        <ele>275</ele>
        <time>2023-02-14T08:43:23.797Z</time>
      </trkpt>
      <trkpt lat="45.60402" lon="5.57226">
        <ele>275</ele>
        <time>2023-02-14T08:43:24.797Z</time>
      </trkpt>
      <trkpt lat="45.60408" lon="5.57222">
        <ele>274</ele>
        <time>2023-02-14T08:43:25.797Z</time>
      </trkpt>
      <trkpt lat="45.60413" lon="5.57218">
        <ele>274</ele>
        <time>2023-02-14T08:43:26.797Z</time>
      </trkpt>
      <trkpt lat="45.60419" lon="5.57215">
        <ele>273</ele>
        <time>2023-02-14T08:43:27.797Z</time>
      </trkpt>
      <trkpt lat="45.60425" lon="5.57211">
        <ele>272</ele>
        <time>2023-02-14T08:43:28.797Z</time>
      </trkpt>
      <trkpt lat="45.60432" lon="5.57208">
        <ele>272</ele>
        <time>2023-02-14T08:43:29.797Z</time>
      </trkpt>
      <trkpt lat="45.60438" lon="5.57205">
        <ele>270</ele>
        <time>2023-02-14T08:43:30.797Z</time>
      </trkpt>
      <trkpt lat="45.60445" lon="5.57203">
        <ele>269</ele>
        <time>2023-02-14T08:43:31.797Z</time>
      </trkpt>
      <trkpt lat="45.60452" lon="5.57201">
        <ele>267</ele>
        <time>2023-02-14T08:43:32.797Z</time>
      </trkpt>
      <trkpt lat="45.60458" lon="5.572">
        <ele>266</ele>
        <time>2023-02-14T08:43:33.797Z</time>
      </trkpt>
      <trkpt lat="45.60465" lon="5.57198">
        <ele>265</ele>
        <time>2023-02-14T08:43:34.797Z</time>
      </trkpt>
      <trkpt lat="45.6047" lon="5.57194">
        <ele>264</ele>
        <time>2023-02-14T08:43:35.797Z</time>
      </trkpt>
      <trkpt lat="45.60476" lon="5.5719">
        <ele>265</ele>
        <time>2023-02-14T08:43:36.797Z</time>
      </trkpt>
      <trkpt lat="45.6048" lon="5.57183">
        <ele>265</ele>
        <time>2023-02-14T08:43:37.797Z</time>
      </trkpt>
      <trkpt lat="45.60483" lon="5.57175">
        <ele>265</ele>
        <time>2023-02-14T08:43:38.797Z</time>
      </trkpt>
      <trkpt lat="45.60484" lon="5.57168">
        <ele>264</ele>
        <time>2023-02-14T08:43:39.797Z</time>
      </trkpt>
      <trkpt lat="45.60486" lon="5.57161">
        <ele>264</ele>
        <time>2023-02-14T08:43:40.797Z</time>
      </trkpt>
      <trkpt lat="45.60487" lon="5.57155">
        <ele>264</ele>
        <time>2023-02-14T08:43:41.797Z</time>
      </trkpt>
      <trkpt lat="45.60488" lon="5.57151">
        <ele>264</ele>
        <time>2023-02-14T08:43:42.797Z</time>
      </trkpt>
      <trkpt lat="45.60489" lon="5.57148">
        <ele>265</ele>
        <time>2023-02-14T08:43:43.797Z</time>
      </trkpt>
      <trkpt lat="45.60492" lon="5.57146">
        <ele>265</ele>
        <time>2023-02-14T08:43:44.797Z</time>
      </trkpt>
      <trkpt lat="45.60495" lon="5.57145">
        <ele>265</ele>
        <time>2023-02-14T08:43:45.797Z</time>
      </trkpt>
      <trkpt lat="45.60498" lon="5.57144">
        <ele>266</ele>
        <time>2023-02-14T08:43:46.797Z</time>
      </trkpt>
      <trkpt lat="45.60502" lon="5.57144">
        <ele>267</ele>
        <time>2023-02-14T08:43:47.797Z</time>
      </trkpt>
      <trkpt lat="45.60506" lon="5.57144">
        <ele>267</ele>
        <time>2023-02-14T08:43:48.797Z</time>
      </trkpt>
      <trkpt lat="45.6051" lon="5.57144">
        <ele>267</ele>
        <time>2023-02-14T08:43:49.797Z</time>
      </trkpt>
      <trkpt lat="45.60514" lon="5.57143">
        <ele>266</ele>
        <time>2023-02-14T08:43:50.797Z</time>
      </trkpt>
      <trkpt lat="45.60518" lon="5.57142">
        <ele>266</ele>
        <time>2023-02-14T08:43:51.797Z</time>
      </trkpt>
      <trkpt lat="45.60523" lon="5.57141">
        <ele>266</ele>
        <time>2023-02-14T08:43:52.797Z</time>
      </trkpt>
      <trkpt lat="45.60527" lon="5.5714">
        <ele>265</ele>
        <time>2023-02-14T08:43:53.797Z</time>
      </trkpt>
      <trkpt lat="45.60532" lon="5.57138">
        <ele>265</ele>
        <time>2023-02-14T08:43:54.797Z</time>
      </trkpt>
      <trkpt lat="45.60537" lon="5.57137">
        <ele>264</ele>
        <time>2023-02-14T08:43:55.797Z</time>
      </trkpt>
      <trkpt lat="45.60542" lon="5.57136">
        <ele>264</ele>
        <time>2023-02-14T08:43:56.797Z</time>
      </trkpt>
      <trkpt lat="45.60547" lon="5.57135">
        <ele>264</ele>
        <time>2023-02-14T08:43:57.797Z</time>
      </trkpt>
      <trkpt lat="45.60552" lon="5.57135">
        <ele>264</ele>
        <time>2023-02-14T08:43:58.797Z</time>
      </trkpt>
      <trkpt lat="45.60557" lon="5.57135">
        <ele>264</ele>
        <time>2023-02-14T08:43:59.797Z</time>
      </trkpt>
      <trkpt lat="45.60562" lon="5.57135">
        <ele>264</ele>
        <time>2023-02-14T08:44:00.797Z</time>
      </trkpt>
      <trkpt lat="45.60566" lon="5.57135">
        <ele>263</ele>
        <time>2023-02-14T08:44:01.797Z</time>
      </trkpt>
      <trkpt lat="45.60571" lon="5.57136">
        <ele>263</ele>
        <time>2023-02-14T08:44:02.797Z</time>
      </trkpt>
      <trkpt lat="45.60576" lon="5.57136">
        <ele>263</ele>
        <time>2023-02-14T08:44:03.797Z</time>
      </trkpt>
      <trkpt lat="45.60581" lon="5.57136">
        <ele>263</ele>
        <time>2023-02-14T08:44:04.797Z</time>
      </trkpt>
      <trkpt lat="45.60586" lon="5.57137">
        <ele>263</ele>
        <time>2023-02-14T08:44:05.797Z</time>
      </trkpt>
      <trkpt lat="45.60591" lon="5.57137">
        <ele>263</ele>
        <time>2023-02-14T08:44:06.797Z</time>
      </trkpt>
      <trkpt lat="45.60596" lon="5.57137">
        <ele>263</ele>
        <time>2023-02-14T08:44:07.797Z</time>
      </trkpt>
      <trkpt lat="45.60601" lon="5.57138">
        <ele>262</ele>
        <time>2023-02-14T08:44:08.797Z</time>
      </trkpt>
      <trkpt lat="45.60605" lon="5.57138">
        <ele>261</ele>
        <time>2023-02-14T08:44:09.797Z</time>
      </trkpt>
      <trkpt lat="45.60609" lon="5.57138">
        <ele>260</ele>
        <time>2023-02-14T08:44:10.797Z</time>
      </trkpt>
      <trkpt lat="45.60612" lon="5.57137">
        <ele>259</ele>
        <time>2023-02-14T08:44:11.797Z</time>
      </trkpt>
      <trkpt lat="45.60614" lon="5.57135">
        <ele>258</ele>
        <time>2023-02-14T08:44:12.797Z</time>
      </trkpt>
      <trkpt lat="45.60617" lon="5.57133">
        <ele>258</ele>
        <time>2023-02-14T08:44:13.797Z</time>
      </trkpt>
      <trkpt lat="45.60619" lon="5.57131">
        <ele>257</ele>
        <time>2023-02-14T08:44:14.797Z</time>
      </trkpt>
      <trkpt lat="45.60622" lon="5.57129">
        <ele>257</ele>
        <time>2023-02-14T08:44:15.797Z</time>
      </trkpt>
      <trkpt lat="45.60623" lon="5.57126">
        <ele>255</ele>
        <time>2023-02-14T08:44:16.797Z</time>
      </trkpt>
      <trkpt lat="45.60625" lon="5.57123">
        <ele>255</ele>
        <time>2023-02-14T08:44:17.797Z</time>
      </trkpt>
      <trkpt lat="45.60626" lon="5.57121">
        <ele>254</ele>
        <time>2023-02-14T08:44:18.797Z</time>
      </trkpt>
      <trkpt lat="45.60628" lon="5.57119">
        <ele>254</ele>
        <time>2023-02-14T08:44:19.797Z</time>
      </trkpt>
      <trkpt lat="45.6063" lon="5.57117">
        <ele>254</ele>
        <time>2023-02-14T08:44:20.797Z</time>
      </trkpt>
      <trkpt lat="45.60632" lon="5.57114">
        <ele>253</ele>
        <time>2023-02-14T08:44:21.797Z</time>
      </trkpt>
      <trkpt lat="45.60635" lon="5.57112">
        <ele>251</ele>
        <time>2023-02-14T08:44:22.797Z</time>
      </trkpt>
      <trkpt lat="45.60637" lon="5.57109">
        <ele>250</ele>
        <time>2023-02-14T08:44:23.797Z</time>
      </trkpt>
      <trkpt lat="45.6064" lon="5.57106">
        <ele>248</ele>
        <time>2023-02-14T08:44:24.797Z</time>
      </trkpt>
      <trkpt lat="45.60642" lon="5.57103">
        <ele>248</ele>
        <time>2023-02-14T08:44:25.797Z</time>
      </trkpt>
      <trkpt lat="45.60644" lon="5.571">
        <ele>246</ele>
        <time>2023-02-14T08:44:26.797Z</time>
      </trkpt>
      <trkpt lat="45.60647" lon="5.57096">
        <ele>245</ele>
        <time>2023-02-14T08:44:27.797Z</time>
      </trkpt>
      <trkpt lat="45.60649" lon="5.57092">
        <ele>244</ele>
        <time>2023-02-14T08:44:28.797Z</time>
      </trkpt>
      <trkpt lat="45.60651" lon="5.57089">
        <ele>243</ele>
        <time>2023-02-14T08:44:29.797Z</time>
      </trkpt>
      <trkpt lat="45.60653" lon="5.57085">
        <ele>243</ele>
        <time>2023-02-14T08:44:30.797Z</time>
      </trkpt>
      <trkpt lat="45.60654" lon="5.5708">
        <ele>243</ele>
        <time>2023-02-14T08:44:31.797Z</time>
      </trkpt>
      <trkpt lat="45.60655" lon="5.57074">
        <ele>242</ele>
        <time>2023-02-14T08:44:32.797Z</time>
      </trkpt>
      <trkpt lat="45.60657" lon="5.57069">
        <ele>241</ele>
        <time>2023-02-14T08:44:33.797Z</time>
      </trkpt>
      <trkpt lat="45.60658" lon="5.57065">
        <ele>240</ele>
        <time>2023-02-14T08:44:34.797Z</time>
      </trkpt>
      <trkpt lat="45.60659" lon="5.57061">
        <ele>240</ele>
        <time>2023-02-14T08:44:35.797Z</time>
      </trkpt>
      <trkpt lat="45.6066" lon="5.57057">
        <ele>240</ele>
        <time>2023-02-14T08:44:36.797Z</time>
      </trkpt>
      <trkpt lat="45.60661" lon="5.57052">
        <ele>240</ele>
        <time>2023-02-14T08:44:37.797Z</time>
      </trkpt>
      <trkpt lat="45.60662" lon="5.57048">
        <ele>240</ele>
        <time>2023-02-14T08:44:38.797Z</time>
      </trkpt>
      <trkpt lat="45.60663" lon="5.57044">
        <ele>241</ele>
        <time>2023-02-14T08:44:39.797Z</time>
      </trkpt>
      <trkpt lat="45.60664" lon="5.5704">
        <ele>242</ele>
        <time>2023-02-14T08:44:40.797Z</time>
      </trkpt>
      <trkpt lat="45.60665" lon="5.57037">
        <ele>243</ele>
        <time>2023-02-14T08:44:41.797Z</time>
      </trkpt>
      <trkpt lat="45.60666" lon="5.57033">
        <ele>244</ele>
        <time>2023-02-14T08:44:42.797Z</time>
      </trkpt>
      <trkpt lat="45.60668" lon="5.5703">
        <ele>244</ele>
        <time>2023-02-14T08:44:43.797Z</time>
      </trkpt>
      <trkpt lat="45.60669" lon="5.57027">
        <ele>245</ele>
        <time>2023-02-14T08:44:44.797Z</time>
      </trkpt>
      <trkpt lat="45.6067" lon="5.57024">
        <ele>247</ele>
        <time>2023-02-14T08:44:45.797Z</time>
      </trkpt>
      <trkpt lat="45.60671" lon="5.57021">
        <ele>248</ele>
        <time>2023-02-14T08:44:46.797Z</time>
      </trkpt>
      <trkpt lat="45.60672" lon="5.57018">
        <ele>249</ele>
        <time>2023-02-14T08:44:47.797Z</time>
      </trkpt>
      <trkpt lat="45.60673" lon="5.57015">
        <ele>249</ele>
        <time>2023-02-14T08:44:48.797Z</time>
      </trkpt>
      <trkpt lat="45.60673" lon="5.57012">
        <ele>249</ele>
        <time>2023-02-14T08:44:49.797Z</time>
      </trkpt>
      <trkpt lat="45.60675" lon="5.57009">
        <ele>249</ele>
        <time>2023-02-14T08:44:50.797Z</time>
      </trkpt>
      <trkpt lat="45.60677" lon="5.57007">
        <ele>247</ele>
        <time>2023-02-14T08:44:51.797Z</time>
      </trkpt>
      <trkpt lat="45.6068" lon="5.57007">
        <ele>248</ele>
        <time>2023-02-14T08:44:52.797Z</time>
      </trkpt>
      <trkpt lat="45.60683" lon="5.57006">
        <ele>249</ele>
        <time>2023-02-14T08:44:53.797Z</time>
      </trkpt>
      <trkpt lat="45.60686" lon="5.57006">
        <ele>249</ele>
        <time>2023-02-14T08:44:54.797Z</time>
      </trkpt>
      <trkpt lat="45.60688" lon="5.57006">
        <ele>248</ele>
        <time>2023-02-14T08:44:55.797Z</time>
      </trkpt>
      <trkpt lat="45.6069" lon="5.57006">
        <ele>248</ele>
        <time>2023-02-14T08:44:56.797Z</time>
      </trkpt>
      <trkpt lat="45.60693" lon="5.57006">
        <ele>248</ele>
        <time>2023-02-14T08:44:57.797Z</time>
      </trkpt>
      <trkpt lat="45.60695" lon="5.57007">
        <ele>247</ele>
        <time>2023-02-14T08:44:58.797Z</time>
      </trkpt>
      <trkpt lat="45.60697" lon="5.57007">
        <ele>246</ele>
        <time>2023-02-14T08:44:59.797Z</time>
      </trkpt>
      <trkpt lat="45.60699" lon="5.57008">
        <ele>246</ele>
        <time>2023-02-14T08:45:00.797Z</time>
      </trkpt>
      <trkpt lat="45.60701" lon="5.57008">
        <ele>245</ele>
        <time>2023-02-14T08:45:01.797Z</time>
      </trkpt>
      <trkpt lat="45.60704" lon="5.57009">
        <ele>245</ele>
        <time>2023-02-14T08:45:02.797Z</time>
      </trkpt>
      <trkpt lat="45.60706" lon="5.57009">
        <ele>244</ele>
        <time>2023-02-14T08:45:03.797Z</time>
      </trkpt>
      <trkpt lat="45.60708" lon="5.57011">
        <ele>243</ele>
        <time>2023-02-14T08:45:04.797Z</time>
      </trkpt>
      <trkpt lat="45.6071" lon="5.57013">
        <ele>241</ele>
        <time>2023-02-14T08:45:05.797Z</time>
      </trkpt>
      <trkpt lat="45.60712" lon="5.57015">
        <ele>240</ele>
        <time>2023-02-14T08:45:06.797Z</time>
      </trkpt>
      <trkpt lat="45.60713" lon="5.57016">
        <ele>239</ele>
        <time>2023-02-14T08:45:07.797Z</time>
      </trkpt>
      <trkpt lat="45.60715" lon="5.57017">
        <ele>237</ele>
        <time>2023-02-14T08:45:08.797Z</time>
      </trkpt>
      <trkpt lat="45.60718" lon="5.57018">
        <ele>236</ele>
        <time>2023-02-14T08:45:09.797Z</time>
      </trkpt>
      <trkpt lat="45.6072" lon="5.57019">
        <ele>236</ele>
        <time>2023-02-14T08:45:10.797Z</time>
      </trkpt>
      <trkpt lat="45.60722" lon="5.5702">
        <ele>235</ele>
        <time>2023-02-14T08:45:11.797Z</time>
      </trkpt>
      <trkpt lat="45.60725" lon="5.5702">
        <ele>234</ele>
        <time>2023-02-14T08:45:12.797Z</time>
      </trkpt>
      <trkpt lat="45.60727" lon="5.57021">
        <ele>232</ele>
        <time>2023-02-14T08:45:13.797Z</time>
      </trkpt>
      <trkpt lat="45.6073" lon="5.57022">
        <ele>231</ele>
        <time>2023-02-14T08:45:14.797Z</time>
      </trkpt>
      <trkpt lat="45.60732" lon="5.57023">
        <ele>230</ele>
        <time>2023-02-14T08:45:15.797Z</time>
      </trkpt>
      <trkpt lat="45.60735" lon="5.57024">
        <ele>229</ele>
        <time>2023-02-14T08:45:16.797Z</time>
      </trkpt>
      <trkpt lat="45.60738" lon="5.57025">
        <ele>228</ele>
        <time>2023-02-14T08:45:17.797Z</time>
      </trkpt>
      <trkpt lat="45.6074" lon="5.57026">
        <ele>227</ele>
        <time>2023-02-14T08:45:18.797Z</time>
      </trkpt>
      <trkpt lat="45.60743" lon="5.57028">
        <ele>225</ele>
        <time>2023-02-14T08:45:19.797Z</time>
      </trkpt>
      <trkpt lat="45.60746" lon="5.5703">
        <ele>224</ele>
        <time>2023-02-14T08:45:20.797Z</time>
      </trkpt>
      <trkpt lat="45.60749" lon="5.57031">
        <ele>223</ele>
        <time>2023-02-14T08:45:21.797Z</time>
      </trkpt>
      <trkpt lat="45.60752" lon="5.57033">
        <ele>223</ele>
        <time>2023-02-14T08:45:22.797Z</time>
      </trkpt>
      <trkpt lat="45.60755" lon="5.57034">
        <ele>224</ele>
        <time>2023-02-14T08:45:23.797Z</time>
      </trkpt>
      <trkpt lat="45.60758" lon="5.57034">
        <ele>224</ele>
        <time>2023-02-14T08:45:24.797Z</time>
      </trkpt>
      <trkpt lat="45.6076" lon="5.57033">
        <ele>223</ele>
        <time>2023-02-14T08:45:25.797Z</time>
      </trkpt>
      <trkpt lat="45.60762" lon="5.57031">
        <ele>222</ele>
        <time>2023-02-14T08:45:26.797Z</time>
      </trkpt>
      <trkpt lat="45.60763" lon="5.57029">
        <ele>220</ele>
        <time>2023-02-14T08:45:27.797Z</time>
      </trkpt>
      <trkpt lat="45.60765" lon="5.57027">
        <ele>219</ele>
        <time>2023-02-14T08:45:28.797Z</time>
      </trkpt>
      <trkpt lat="45.60766" lon="5.57024">
        <ele>218</ele>
        <time>2023-02-14T08:45:29.797Z</time>
      </trkpt>
      <trkpt lat="45.60768" lon="5.57022">
        <ele>218</ele>
        <time>2023-02-14T08:45:30.797Z</time>
      </trkpt>
      <trkpt lat="45.60769" lon="5.57019">
        <ele>218</ele>
        <time>2023-02-14T08:45:31.797Z</time>
      </trkpt>
      <trkpt lat="45.6077" lon="5.57016">
        <ele>219</ele>
        <time>2023-02-14T08:45:32.797Z</time>
      </trkpt>
      <trkpt lat="45.60772" lon="5.57014">
        <ele>220</ele>
        <time>2023-02-14T08:45:33.797Z</time>
      </trkpt>
      <trkpt lat="45.60774" lon="5.57011">
        <ele>220</ele>
        <time>2023-02-14T08:45:34.797Z</time>
      </trkpt>
      <trkpt lat="45.60777" lon="5.57009">
        <ele>219</ele>
        <time>2023-02-14T08:45:35.797Z</time>
      </trkpt>
      <trkpt lat="45.60779" lon="5.57007">
        <ele>218</ele>
        <time>2023-02-14T08:45:36.797Z</time>
      </trkpt>
      <trkpt lat="45.60781" lon="5.57004">
        <ele>217</ele>
        <time>2023-02-14T08:45:37.797Z</time>
      </trkpt>
      <trkpt lat="45.60783" lon="5.57002">
        <ele>216</ele>
        <time>2023-02-14T08:45:38.797Z</time>
      </trkpt>
      <trkpt lat="45.60785" lon="5.56999">
        <ele>215</ele>
        <time>2023-02-14T08:45:39.797Z</time>
      </trkpt>
      <trkpt lat="45.60788" lon="5.56996">
        <ele>215</ele>
        <time>2023-02-14T08:45:40.797Z</time>
      </trkpt>
      <trkpt lat="45.6079" lon="5.56993">
        <ele>216</ele>
        <time>2023-02-14T08:45:41.797Z</time>
      </trkpt>
      <trkpt lat="45.60792" lon="5.5699">
        <ele>216</ele>
        <time>2023-02-14T08:45:42.797Z</time>
      </trkpt>
      <trkpt lat="45.60794" lon="5.56987">
        <ele>215</ele>
        <time>2023-02-14T08:45:43.797Z</time>
      </trkpt>
      <trkpt lat="45.60796" lon="5.56984">
        <ele>214</ele>
        <time>2023-02-14T08:45:44.797Z</time>
      </trkpt>
      <trkpt lat="45.60799" lon="5.56981">
        <ele>213</ele>
        <time>2023-02-14T08:45:45.797Z</time>
      </trkpt>
      <trkpt lat="45.60801" lon="5.56977">
        <ele>213</ele>
        <time>2023-02-14T08:45:46.797Z</time>
      </trkpt>
      <trkpt lat="45.60803" lon="5.56973">
        <ele>211</ele>
        <time>2023-02-14T08:45:47.797Z</time>
      </trkpt>
      <trkpt lat="45.60805" lon="5.56969">
        <ele>211</ele>
        <time>2023-02-14T08:45:48.797Z</time>
      </trkpt>
      <trkpt lat="45.60807" lon="5.56966">
        <ele>210</ele>
        <time>2023-02-14T08:45:49.797Z</time>
      </trkpt>
      <trkpt lat="45.6081" lon="5.56963">
        <ele>210</ele>
        <time>2023-02-14T08:45:50.797Z</time>
      </trkpt>
      <trkpt lat="45.60812" lon="5.5696">
        <ele>210</ele>
        <time>2023-02-14T08:45:51.797Z</time>
      </trkpt>
      <trkpt lat="45.60815" lon="5.56957">
        <ele>209</ele>
        <time>2023-02-14T08:45:52.797Z</time>
      </trkpt>
      <trkpt lat="45.60818" lon="5.56953">
        <ele>207</ele>
        <time>2023-02-14T08:45:53.797Z</time>
      </trkpt>
      <trkpt lat="45.6082" lon="5.5695">
        <ele>207</ele>
        <time>2023-02-14T08:45:54.797Z</time>
      </trkpt>
      <trkpt lat="45.60823" lon="5.56946">
        <ele>206</ele>
        <time>2023-02-14T08:45:55.797Z</time>
      </trkpt>
      <trkpt lat="45.60825" lon="5.56943">
        <ele>206</ele>
        <time>2023-02-14T08:45:56.797Z</time>
      </trkpt>
      <trkpt lat="45.60827" lon="5.5694">
        <ele>206</ele>
        <time>2023-02-14T08:45:57.797Z</time>
      </trkpt>
      <trkpt lat="45.60829" lon="5.56938">
        <ele>206</ele>
        <time>2023-02-14T08:45:58.797Z</time>
      </trkpt>
      <trkpt lat="45.60832" lon="5.56935">
        <ele>206</ele>
        <time>2023-02-14T08:45:59.797Z</time>
      </trkpt>
      <trkpt lat="45.60834" lon="5.56932">
        <ele>206</ele>
        <time>2023-02-14T08:46:00.797Z</time>
      </trkpt>
      <trkpt lat="45.60837" lon="5.56929">
        <ele>205</ele>
        <time>2023-02-14T08:46:01.797Z</time>
      </trkpt>
      <trkpt lat="45.6084" lon="5.56926">
        <ele>204</ele>
        <time>2023-02-14T08:46:02.797Z</time>
      </trkpt>
      <trkpt lat="45.60843" lon="5.56922">
        <ele>204</ele>
        <time>2023-02-14T08:46:03.797Z</time>
      </trkpt>
      <trkpt lat="45.60846" lon="5.56917">
        <ele>203</ele>
        <time>2023-02-14T08:46:04.797Z</time>
      </trkpt>
      <trkpt lat="45.60848" lon="5.56913">
        <ele>203</ele>
        <time>2023-02-14T08:46:05.797Z</time>
      </trkpt>
      <trkpt lat="45.6085" lon="5.56909">
        <ele>203</ele>
        <time>2023-02-14T08:46:06.797Z</time>
      </trkpt>
      <trkpt lat="45.60851" lon="5.56905">
        <ele>203</ele>
        <time>2023-02-14T08:46:07.797Z</time>
      </trkpt>
      <trkpt lat="45.60854" lon="5.56902">
        <ele>203</ele>
        <time>2023-02-14T08:46:08.797Z</time>
      </trkpt>
      <trkpt lat="45.60856" lon="5.56897">
        <ele>204</ele>
        <time>2023-02-14T08:46:09.797Z</time>
      </trkpt>
      <trkpt lat="45.60857" lon="5.56892">
        <ele>204</ele>
        <time>2023-02-14T08:46:10.797Z</time>
      </trkpt>
      <trkpt lat="45.60858" lon="5.56887">
        <ele>205</ele>
        <time>2023-02-14T08:46:11.797Z</time>
      </trkpt>
      <trkpt lat="45.6086" lon="5.56883">
        <ele>205</ele>
        <time>2023-02-14T08:46:12.797Z</time>
      </trkpt>
      <trkpt lat="45.60862" lon="5.56879">
        <ele>205</ele>
        <time>2023-02-14T08:46:13.797Z</time>
      </trkpt>
      <trkpt lat="45.60864" lon="5.56875">
        <ele>204</ele>
        <time>2023-02-14T08:46:14.797Z</time>
      </trkpt>
      <trkpt lat="45.60866" lon="5.56871">
        <ele>203</ele>
        <time>2023-02-14T08:46:15.797Z</time>
      </trkpt>
      <trkpt lat="45.60868" lon="5.56868">
        <ele>203</ele>
        <time>2023-02-14T08:46:16.797Z</time>
      </trkpt>
      <trkpt lat="45.6087" lon="5.56864">
        <ele>203</ele>
        <time>2023-02-14T08:46:17.797Z</time>
      </trkpt>
      <trkpt lat="45.60872" lon="5.5686">
        <ele>203</ele>
        <time>2023-02-14T08:46:18.797Z</time>
      </trkpt>
      <trkpt lat="45.60874" lon="5.56856">
        <ele>204</ele>
        <time>2023-02-14T08:46:19.797Z</time>
      </trkpt>
      <trkpt lat="45.60875" lon="5.56852">
        <ele>205</ele>
        <time>2023-02-14T08:46:20.797Z</time>
      </trkpt>
      <trkpt lat="45.60876" lon="5.56848">
        <ele>205</ele>
        <time>2023-02-14T08:46:21.797Z</time>
      </trkpt>
      <trkpt lat="45.60876" lon="5.56843">
        <ele>206</ele>
        <time>2023-02-14T08:46:22.797Z</time>
      </trkpt>
      <trkpt lat="45.60877" lon="5.5684">
        <ele>207</ele>
        <time>2023-02-14T08:46:23.797Z</time>
      </trkpt>
      <trkpt lat="45.60877" lon="5.56836">
        <ele>207</ele>
        <time>2023-02-14T08:46:24.797Z</time>
      </trkpt>
      <trkpt lat="45.60877" lon="5.56832">
        <ele>207</ele>
        <time>2023-02-14T08:46:25.797Z</time>
      </trkpt>
      <trkpt lat="45.60877" lon="5.56828">
        <ele>207</ele>
        <time>2023-02-14T08:46:26.797Z</time>
      </trkpt>
      <trkpt lat="45.60878" lon="5.56825">
        <ele>206</ele>
        <time>2023-02-14T08:46:27.797Z</time>
      </trkpt>
      <trkpt lat="45.60879" lon="5.56822">
        <ele>205</ele>
        <time>2023-02-14T08:46:28.797Z</time>
      </trkpt>
      <trkpt lat="45.60881" lon="5.56818">
        <ele>205</ele>
        <time>2023-02-14T08:46:29.797Z</time>
      </trkpt>
      <trkpt lat="45.60882" lon="5.56814">
        <ele>206</ele>
        <time>2023-02-14T08:46:30.797Z</time>
      </trkpt>
      <trkpt lat="45.60883" lon="5.56811">
        <ele>206</ele>
        <time>2023-02-14T08:46:31.797Z</time>
      </trkpt>
      <trkpt lat="45.60883" lon="5.56807">
        <ele>207</ele>
        <time>2023-02-14T08:46:32.797Z</time>
      </trkpt>
      <trkpt lat="45.60883" lon="5.56804">
        <ele>206</ele>
        <time>2023-02-14T08:46:33.797Z</time>
      </trkpt>
      <trkpt lat="45.60882" lon="5.56801">
        <ele>206</ele>
        <time>2023-02-14T08:46:34.797Z</time>
      </trkpt>
      <trkpt lat="45.60881" lon="5.56798">
        <ele>205</ele>
        <time>2023-02-14T08:46:35.797Z</time>
      </trkpt>
      <trkpt lat="45.60879" lon="5.56795">
        <ele>205</ele>
        <time>2023-02-14T08:46:36.797Z</time>
      </trkpt>
      <trkpt lat="45.60878" lon="5.56792">
        <ele>205</ele>
        <time>2023-02-14T08:46:37.797Z</time>
      </trkpt>
      <trkpt lat="45.60876" lon="5.56788">
        <ele>205</ele>
        <time>2023-02-14T08:46:38.797Z</time>
      </trkpt>
      <trkpt lat="45.60875" lon="5.56784">
        <ele>205</ele>
        <time>2023-02-14T08:46:39.797Z</time>
      </trkpt>
      <trkpt lat="45.60874" lon="5.5678">
        <ele>205</ele>
        <time>2023-02-14T08:46:40.797Z</time>
      </trkpt>
      <trkpt lat="45.60873" lon="5.56777">
        <ele>205</ele>
        <time>2023-02-14T08:46:41.797Z</time>
      </trkpt>
      <trkpt lat="45.60872" lon="5.56774">
        <ele>205</ele>
        <time>2023-02-14T08:46:42.797Z</time>
      </trkpt>
      <trkpt lat="45.6087" lon="5.56771">
        <ele>205</ele>
        <time>2023-02-14T08:46:43.797Z</time>
      </trkpt>
      <trkpt lat="45.60869" lon="5.56769">
        <ele>206</ele>
        <time>2023-02-14T08:46:44.797Z</time>
      </trkpt>
      <trkpt lat="45.60868" lon="5.56766">
        <ele>206</ele>
        <time>2023-02-14T08:46:45.797Z</time>
      </trkpt>
      <trkpt lat="45.60867" lon="5.56763">
        <ele>206</ele>
        <time>2023-02-14T08:46:46.797Z</time>
      </trkpt>
      <trkpt lat="45.60865" lon="5.56761">
        <ele>206</ele>
        <time>2023-02-14T08:46:47.797Z</time>
      </trkpt>
      <trkpt lat="45.60864" lon="5.56759">
        <ele>207</ele>
        <time>2023-02-14T08:46:48.797Z</time>
      </trkpt>
      <trkpt lat="45.60864" lon="5.56756">
        <ele>207</ele>
        <time>2023-02-14T08:46:49.797Z</time>
      </trkpt>
      <trkpt lat="45.60863" lon="5.56754">
        <ele>207</ele>
        <time>2023-02-14T08:46:50.797Z</time>
      </trkpt>
      <trkpt lat="45.60861" lon="5.56751">
        <ele>208</ele>
        <time>2023-02-14T08:46:51.797Z</time>
      </trkpt>
      <trkpt lat="45.6086" lon="5.56748">
        <ele>208</ele>
        <time>2023-02-14T08:46:52.797Z</time>
      </trkpt>
      <trkpt lat="45.6086" lon="5.56746">
        <ele>209</ele>
        <time>2023-02-14T08:46:53.797Z</time>
      </trkpt>
      <trkpt lat="45.6086" lon="5.56745">
        <ele>210</ele>
        <time>2023-02-14T08:46:54.797Z</time>
      </trkpt>
      <trkpt lat="45.60861" lon="5.56744">
        <ele>212</ele>
        <time>2023-02-14T08:46:55.797Z</time>
      </trkpt>
      <trkpt lat="45.60862" lon="5.56743">
        <ele>213</ele>
        <time>2023-02-14T08:46:56.797Z</time>
      </trkpt>
      <trkpt lat="45.60862" lon="5.56742">
        <ele>214</ele>
        <time>2023-02-14T08:46:57.797Z</time>
      </trkpt>
      <trkpt lat="45.60863" lon="5.56741">
        <ele>214</ele>
        <time>2023-02-14T08:46:58.797Z</time>
      </trkpt>
      <trkpt lat="45.60863" lon="5.5674">
        <ele>214</ele>
        <time>2023-02-14T08:46:59.797Z</time>
      </trkpt>
      <trkpt lat="45.60864" lon="5.56739">
        <ele>214</ele>
        <time>2023-02-14T08:47:00.797Z</time>
      </trkpt>
      <trkpt lat="45.60864" lon="5.56738">
        <ele>215</ele>
        <time>2023-02-14T08:47:01.797Z</time>
      </trkpt>
      <trkpt lat="45.60864" lon="5.56737">
        <ele>215</ele>
        <time>2023-02-14T08:47:02.797Z</time>
      </trkpt>
      <trkpt lat="45.60865" lon="5.56735">
        <ele>216</ele>
        <time>2023-02-14T08:47:03.797Z</time>
      </trkpt>
      <trkpt lat="45.60865" lon="5.56734">
        <ele>216</ele>
        <time>2023-02-14T08:47:04.797Z</time>
      </trkpt>
      <trkpt lat="45.60865" lon="5.56734">
        <ele>217</ele>
        <time>2023-02-14T08:47:05.797Z</time>
      </trkpt>
      <trkpt lat="45.60866" lon="5.56733">
        <ele>218</ele>
        <time>2023-02-14T08:47:06.797Z</time>
      </trkpt>
      <trkpt lat="45.60866" lon="5.56732">
        <ele>219</ele>
        <time>2023-02-14T08:47:07.797Z</time>
      </trkpt>
      <trkpt lat="45.60867" lon="5.56731">
        <ele>220</ele>
        <time>2023-02-14T08:47:08.797Z</time>
      </trkpt>
      <trkpt lat="45.60867" lon="5.56731">
        <ele>220</ele>
        <time>2023-02-14T08:47:09.797Z</time>
      </trkpt>
      <trkpt lat="45.60867" lon="5.5673">
        <ele>221</ele>
        <time>2023-02-14T08:47:10.797Z</time>
      </trkpt>
      <trkpt lat="45.60868" lon="5.5673">
        <ele>222</ele>
        <time>2023-02-14T08:47:11.797Z</time>
      </trkpt>
      <trkpt lat="45.60868" lon="5.56729">
        <ele>222</ele>
        <time>2023-02-14T08:47:12.797Z</time>
      </trkpt>
      <trkpt lat="45.60868" lon="5.56729">
        <ele>223</ele>
        <time>2023-02-14T08:47:13.797Z</time>
      </trkpt>
      <trkpt lat="45.60868" lon="5.56728">
        <ele>223</ele>
        <time>2023-02-14T08:47:14.797Z</time>
      </trkpt>
      <trkpt lat="45.60869" lon="5.56727">
        <ele>223</ele>
        <time>2023-02-14T08:47:15.797Z</time>
      </trkpt>
      <trkpt lat="45.60869" lon="5.56726">
        <ele>224</ele>
        <time>2023-02-14T08:47:16.797Z</time>
      </trkpt>
      <trkpt lat="45.6087" lon="5.56725">
        <ele>223</ele>
        <time>2023-02-14T08:47:17.797Z</time>
      </trkpt>
      <trkpt lat="45.60872" lon="5.56724">
        <ele>224</ele>
        <time>2023-02-14T08:47:18.797Z</time>
      </trkpt>
      <trkpt lat="45.60873" lon="5.56722">
        <ele>224</ele>
        <time>2023-02-14T08:47:19.797Z</time>
      </trkpt>
      <trkpt lat="45.60874" lon="5.5672">
        <ele>224</ele>
        <time>2023-02-14T08:47:20.797Z</time>
      </trkpt>
      <trkpt lat="45.60875" lon="5.56719">
        <ele>224</ele>
        <time>2023-02-14T08:47:21.797Z</time>
      </trkpt>
      <trkpt lat="45.60876" lon="5.56717">
        <ele>223</ele>
        <time>2023-02-14T08:47:22.797Z</time>
      </trkpt>
      <trkpt lat="45.60877" lon="5.56715">
        <ele>224</ele>
        <time>2023-02-14T08:47:23.797Z</time>
      </trkpt>
      <trkpt lat="45.60878" lon="5.56713">
        <ele>224</ele>
        <time>2023-02-14T08:47:24.797Z</time>
      </trkpt>
      <trkpt lat="45.6088" lon="5.56711">
        <ele>224</ele>
        <time>2023-02-14T08:47:25.797Z</time>
      </trkpt>
      <trkpt lat="45.60882" lon="5.56709">
        <ele>224</ele>
        <time>2023-02-14T08:47:26.797Z</time>
      </trkpt>
      <trkpt lat="45.60885" lon="5.56707">
        <ele>224</ele>
        <time>2023-02-14T08:47:27.797Z</time>
      </trkpt>
      <trkpt lat="45.60887" lon="5.56704">
        <ele>223</ele>
        <time>2023-02-14T08:47:28.797Z</time>
      </trkpt>
      <trkpt lat="45.60889" lon="5.56702">
        <ele>223</ele>
        <time>2023-02-14T08:47:29.797Z</time>
      </trkpt>
      <trkpt lat="45.60892" lon="5.56699">
        <ele>223</ele>
        <time>2023-02-14T08:47:30.797Z</time>
      </trkpt>
      <trkpt lat="45.60895" lon="5.56696">
        <ele>223</ele>
        <time>2023-02-14T08:47:31.797Z</time>
      </trkpt>
      <trkpt lat="45.60898" lon="5.56693">
        <ele>222</ele>
        <time>2023-02-14T08:47:32.797Z</time>
      </trkpt>
      <trkpt lat="45.609" lon="5.56689">
        <ele>222</ele>
        <time>2023-02-14T08:47:33.797Z</time>
      </trkpt>
      <trkpt lat="45.60903" lon="5.56686">
        <ele>222</ele>
        <time>2023-02-14T08:47:34.797Z</time>
      </trkpt>
      <trkpt lat="45.60906" lon="5.56683">
        <ele>221</ele>
        <time>2023-02-14T08:47:35.797Z</time>
      </trkpt>
      <trkpt lat="45.60908" lon="5.56679">
        <ele>220</ele>
        <time>2023-02-14T08:47:36.797Z</time>
      </trkpt>
      <trkpt lat="45.60912" lon="5.56676">
        <ele>220</ele>
        <time>2023-02-14T08:47:37.797Z</time>
      </trkpt>
      <trkpt lat="45.60915" lon="5.56673">
        <ele>220</ele>
        <time>2023-02-14T08:47:38.797Z</time>
      </trkpt>
      <trkpt lat="45.60918" lon="5.56669">
        <ele>219</ele>
        <time>2023-02-14T08:47:39.797Z</time>
      </trkpt>
      <trkpt lat="45.60922" lon="5.56665">
        <ele>219</ele>
        <time>2023-02-14T08:47:40.797Z</time>
      </trkpt>
      <trkpt lat="45.60926" lon="5.56661">
        <ele>219</ele>
        <time>2023-02-14T08:47:41.797Z</time>
      </trkpt>
      <trkpt lat="45.6093" lon="5.56656">
        <ele>218</ele>
        <time>2023-02-14T08:47:42.797Z</time>
      </trkpt>
      <trkpt lat="45.60935" lon="5.56651">
        <ele>217</ele>
        <time>2023-02-14T08:47:43.797Z</time>
      </trkpt>
      <trkpt lat="45.6094" lon="5.56646">
        <ele>216</ele>
        <time>2023-02-14T08:47:44.797Z</time>
      </trkpt>
      <trkpt lat="45.60945" lon="5.56641">
        <ele>216</ele>
        <time>2023-02-14T08:47:45.797Z</time>
      </trkpt>
      <trkpt lat="45.6095" lon="5.56634">
        <ele>215</ele>
        <time>2023-02-14T08:47:46.797Z</time>
      </trkpt>
      <trkpt lat="45.60955" lon="5.56628">
        <ele>214</ele>
        <time>2023-02-14T08:47:47.797Z</time>
      </trkpt>
      <trkpt lat="45.6096" lon="5.56622">
        <ele>213</ele>
        <time>2023-02-14T08:47:48.797Z</time>
      </trkpt>
      <trkpt lat="45.60965" lon="5.56616">
        <ele>211</ele>
        <time>2023-02-14T08:47:49.797Z</time>
      </trkpt>
      <trkpt lat="45.60969" lon="5.5661">
        <ele>210</ele>
        <time>2023-02-14T08:47:50.797Z</time>
      </trkpt>
      <trkpt lat="45.60974" lon="5.56605">
        <ele>210</ele>
        <time>2023-02-14T08:47:51.797Z</time>
      </trkpt>
      <trkpt lat="45.6098" lon="5.56601">
        <ele>209</ele>
        <time>2023-02-14T08:47:52.797Z</time>
      </trkpt>
      <trkpt lat="45.60986" lon="5.56598">
        <ele>207</ele>
        <time>2023-02-14T08:47:53.797Z</time>
      </trkpt>
      <trkpt lat="45.60994" lon="5.56599">
        <ele>207</ele>
        <time>2023-02-14T08:47:54.797Z</time>
      </trkpt>
      <trkpt lat="45.61001" lon="5.56602">
        <ele>206</ele>
        <time>2023-02-14T08:47:55.797Z</time>
      </trkpt>
      <trkpt lat="45.61007" lon="5.56608">
        <ele>205</ele>
        <time>2023-02-14T08:47:56.797Z</time>
      </trkpt>
      <trkpt lat="45.61011" lon="5.56617">
        <ele>205</ele>
        <time>2023-02-14T08:47:57.797Z</time>
      </trkpt>
      <trkpt lat="45.61013" lon="5.56627">
        <ele>206</ele>
        <time>2023-02-14T08:47:58.797Z</time>
      </trkpt>
      <trkpt lat="45.61015" lon="5.56638">
        <ele>207</ele>
        <time>2023-02-14T08:47:59.797Z</time>
      </trkpt>
      <trkpt lat="45.61016" lon="5.56649">
        <ele>207</ele>
        <time>2023-02-14T08:48:00.797Z</time>
      </trkpt>
      <trkpt lat="45.61017" lon="5.5666">
        <ele>207</ele>
        <time>2023-02-14T08:48:01.797Z</time>
      </trkpt>
      <trkpt lat="45.61017" lon="5.5667">
        <ele>207</ele>
        <time>2023-02-14T08:48:02.797Z</time>
      </trkpt>
      <trkpt lat="45.61018" lon="5.5668">
        <ele>207</ele>
        <time>2023-02-14T08:48:03.797Z</time>
      </trkpt>
      <trkpt lat="45.61021" lon="5.56689">
        <ele>208</ele>
        <time>2023-02-14T08:48:04.797Z</time>
      </trkpt>
      <trkpt lat="45.61024" lon="5.56697">
        <ele>207</ele>
        <time>2023-02-14T08:48:05.797Z</time>
      </trkpt>
      <trkpt lat="45.61028" lon="5.56704">
        <ele>207</ele>
        <time>2023-02-14T08:48:06.797Z</time>
      </trkpt>
      <trkpt lat="45.61033" lon="5.56709">
        <ele>206</ele>
        <time>2023-02-14T08:48:07.797Z</time>
      </trkpt>
      <trkpt lat="45.61038" lon="5.56714">
        <ele>206</ele>
        <time>2023-02-14T08:48:08.797Z</time>
      </trkpt>
      <trkpt lat="45.61044" lon="5.5672">
        <ele>205</ele>
        <time>2023-02-14T08:48:09.797Z</time>
      </trkpt>
      <trkpt lat="45.61049" lon="5.56725">
        <ele>205</ele>
        <time>2023-02-14T08:48:10.797Z</time>
      </trkpt>
      <trkpt lat="45.61054" lon="5.5673">
        <ele>205</ele>
        <time>2023-02-14T08:48:11.797Z</time>
      </trkpt>
      <trkpt lat="45.61059" lon="5.56735">
        <ele>205</ele>
        <time>2023-02-14T08:48:12.797Z</time>
      </trkpt>
      <trkpt lat="45.61065" lon="5.56739">
        <ele>205</ele>
        <time>2023-02-14T08:48:13.797Z</time>
      </trkpt>
      <trkpt lat="45.61069" lon="5.56744">
        <ele>205</ele>
        <time>2023-02-14T08:48:14.797Z</time>
      </trkpt>
      <trkpt lat="45.61074" lon="5.56749">
        <ele>205</ele>
        <time>2023-02-14T08:48:15.797Z</time>
      </trkpt>
      <trkpt lat="45.61079" lon="5.56753">
        <ele>205</ele>
        <time>2023-02-14T08:48:16.797Z</time>
      </trkpt>
      <trkpt lat="45.61083" lon="5.56757">
        <ele>205</ele>
        <time>2023-02-14T08:48:17.797Z</time>
      </trkpt>
      <trkpt lat="45.61088" lon="5.5676">
        <ele>205</ele>
        <time>2023-02-14T08:48:18.797Z</time>
      </trkpt>
      <trkpt lat="45.61093" lon="5.5676">
        <ele>206</ele>
        <time>2023-02-14T08:48:19.797Z</time>
      </trkpt>
      <trkpt lat="45.61098" lon="5.56759">
        <ele>206</ele>
        <time>2023-02-14T08:48:20.797Z</time>
      </trkpt>
      <trkpt lat="45.61102" lon="5.56755">
        <ele>207</ele>
        <time>2023-02-14T08:48:21.797Z</time>
      </trkpt>
      <trkpt lat="45.61105" lon="5.5675">
        <ele>207</ele>
        <time>2023-02-14T08:48:22.797Z</time>
      </trkpt>
      <trkpt lat="45.61109" lon="5.56744">
        <ele>207</ele>
        <time>2023-02-14T08:48:23.797Z</time>
      </trkpt>
      <trkpt lat="45.61112" lon="5.56738">
        <ele>207</ele>
        <time>2023-02-14T08:48:24.797Z</time>
      </trkpt>
      <trkpt lat="45.61115" lon="5.56732">
        <ele>208</ele>
        <time>2023-02-14T08:48:25.797Z</time>
      </trkpt>
      <trkpt lat="45.61118" lon="5.56726">
        <ele>208</ele>
        <time>2023-02-14T08:48:26.797Z</time>
      </trkpt>
      <trkpt lat="45.61121" lon="5.5672">
        <ele>208</ele>
        <time>2023-02-14T08:48:27.797Z</time>
      </trkpt>
      <trkpt lat="45.61124" lon="5.56714">
        <ele>208</ele>
        <time>2023-02-14T08:48:28.797Z</time>
      </trkpt>
      <trkpt lat="45.61127" lon="5.56708">
        <ele>209</ele>
        <time>2023-02-14T08:48:29.797Z</time>
      </trkpt>
      <trkpt lat="45.6113" lon="5.56702">
        <ele>209</ele>
        <time>2023-02-14T08:48:30.797Z</time>
      </trkpt>
      <trkpt lat="45.61133" lon="5.56696">
        <ele>209</ele>
        <time>2023-02-14T08:48:31.797Z</time>
      </trkpt>
      <trkpt lat="45.61136" lon="5.5669">
        <ele>209</ele>
        <time>2023-02-14T08:48:32.797Z</time>
      </trkpt>
      <trkpt lat="45.61139" lon="5.56684">
        <ele>209</ele>
        <time>2023-02-14T08:48:33.797Z</time>
      </trkpt>
      <trkpt lat="45.61142" lon="5.56678">
        <ele>209</ele>
        <time>2023-02-14T08:48:34.797Z</time>
      </trkpt>
      <trkpt lat="45.61145" lon="5.56672">
        <ele>210</ele>
        <time>2023-02-14T08:48:35.797Z</time>
      </trkpt>
      <trkpt lat="45.61147" lon="5.56666">
        <ele>210</ele>
        <time>2023-02-14T08:48:36.797Z</time>
      </trkpt>
      <trkpt lat="45.6115" lon="5.5666">
        <ele>210</ele>
        <time>2023-02-14T08:48:37.797Z</time>
      </trkpt>
      <trkpt lat="45.61153" lon="5.56654">
        <ele>210</ele>
        <time>2023-02-14T08:48:38.797Z</time>
      </trkpt>
      <trkpt lat="45.61155" lon="5.56648">
        <ele>211</ele>
        <time>2023-02-14T08:48:39.797Z</time>
      </trkpt>
      <trkpt lat="45.61158" lon="5.56643">
        <ele>211</ele>
        <time>2023-02-14T08:48:40.797Z</time>
      </trkpt>
      <trkpt lat="45.6116" lon="5.56637">
        <ele>211</ele>
        <time>2023-02-14T08:48:41.797Z</time>
      </trkpt>
      <trkpt lat="45.61163" lon="5.56632">
        <ele>211</ele>
        <time>2023-02-14T08:48:42.797Z</time>
      </trkpt>
      <trkpt lat="45.61166" lon="5.56627">
        <ele>211</ele>
        <time>2023-02-14T08:48:43.797Z</time>
      </trkpt>
      <trkpt lat="45.61168" lon="5.56622">
        <ele>211</ele>
        <time>2023-02-14T08:48:44.797Z</time>
      </trkpt>
      <trkpt lat="45.61171" lon="5.56618">
        <ele>210</ele>
        <time>2023-02-14T08:48:45.797Z</time>
      </trkpt>
      <trkpt lat="45.61174" lon="5.56613">
        <ele>211</ele>
        <time>2023-02-14T08:48:46.797Z</time>
      </trkpt>
      <trkpt lat="45.61176" lon="5.56608">
        <ele>211</ele>
        <time>2023-02-14T08:48:47.797Z</time>
      </trkpt>
      <trkpt lat="45.61179" lon="5.56603">
        <ele>211</ele>
        <time>2023-02-14T08:48:48.797Z</time>
      </trkpt>
      <trkpt lat="45.61182" lon="5.56598">
        <ele>211</ele>
        <time>2023-02-14T08:48:49.797Z</time>
      </trkpt>
      <trkpt lat="45.61184" lon="5.56593">
        <ele>211</ele>
        <time>2023-02-14T08:48:50.797Z</time>
      </trkpt>
      <trkpt lat="45.61187" lon="5.56587">
        <ele>211</ele>
        <time>2023-02-14T08:48:51.797Z</time>
      </trkpt>
      <trkpt lat="45.61189" lon="5.56582">
        <ele>211</ele>
        <time>2023-02-14T08:48:52.797Z</time>
      </trkpt>
      <trkpt lat="45.61192" lon="5.56577">
        <ele>210</ele>
        <time>2023-02-14T08:48:53.797Z</time>
      </trkpt>
      <trkpt lat="45.61194" lon="5.56571">
        <ele>210</ele>
        <time>2023-02-14T08:48:54.797Z</time>
      </trkpt>
      <trkpt lat="45.61197" lon="5.56565">
        <ele>210</ele>
        <time>2023-02-14T08:48:55.797Z</time>
      </trkpt>
      <trkpt lat="45.612" lon="5.5656">
        <ele>210</ele>
        <time>2023-02-14T08:48:56.797Z</time>
      </trkpt>
      <trkpt lat="45.61203" lon="5.56554">
        <ele>210</ele>
        <time>2023-02-14T08:48:57.797Z</time>
      </trkpt>
      <trkpt lat="45.61205" lon="5.56548">
        <ele>210</ele>
        <time>2023-02-14T08:48:58.797Z</time>
      </trkpt>
      <trkpt lat="45.61208" lon="5.56543">
        <ele>210</ele>
        <time>2023-02-14T08:48:59.797Z</time>
      </trkpt>
      <trkpt lat="45.61211" lon="5.56537">
        <ele>210</ele>
        <time>2023-02-14T08:49:00.797Z</time>
      </trkpt>
      <trkpt lat="45.61214" lon="5.56531">
        <ele>210</ele>
        <time>2023-02-14T08:49:01.797Z</time>
      </trkpt>
      <trkpt lat="45.61216" lon="5.56525">
        <ele>210</ele>
        <time>2023-02-14T08:49:02.797Z</time>
      </trkpt>
      <trkpt lat="45.61219" lon="5.56518">
        <ele>210</ele>
        <time>2023-02-14T08:49:03.797Z</time>
      </trkpt>
      <trkpt lat="45.61222" lon="5.56512">
        <ele>210</ele>
        <time>2023-02-14T08:49:04.797Z</time>
      </trkpt>
      <trkpt lat="45.61225" lon="5.56506">
        <ele>210</ele>
        <time>2023-02-14T08:49:05.797Z</time>
      </trkpt>
      <trkpt lat="45.61228" lon="5.565">
        <ele>210</ele>
        <time>2023-02-14T08:49:06.797Z</time>
      </trkpt>
      <trkpt lat="45.6123" lon="5.56494">
        <ele>210</ele>
        <time>2023-02-14T08:49:07.797Z</time>
      </trkpt>
      <trkpt lat="45.61233" lon="5.56488">
        <ele>210</ele>
        <time>2023-02-14T08:49:08.797Z</time>
      </trkpt>
      <trkpt lat="45.61236" lon="5.56483">
        <ele>210</ele>
        <time>2023-02-14T08:49:09.797Z</time>
      </trkpt>
      <trkpt lat="45.61239" lon="5.56478">
        <ele>210</ele>
        <time>2023-02-14T08:49:10.797Z</time>
      </trkpt>
      <trkpt lat="45.61242" lon="5.56472">
        <ele>210</ele>
        <time>2023-02-14T08:49:11.797Z</time>
      </trkpt>
      <trkpt lat="45.61245" lon="5.56467">
        <ele>210</ele>
        <time>2023-02-14T08:49:12.797Z</time>
      </trkpt>
      <trkpt lat="45.61249" lon="5.56462">
        <ele>210</ele>
        <time>2023-02-14T08:49:13.797Z</time>
      </trkpt>
      <trkpt lat="45.61252" lon="5.56457">
        <ele>210</ele>
        <time>2023-02-14T08:49:14.797Z</time>
      </trkpt>
      <trkpt lat="45.61256" lon="5.56453">
        <ele>210</ele>
        <time>2023-02-14T08:49:15.797Z</time>
      </trkpt>
      <trkpt lat="45.6126" lon="5.56448">
        <ele>210</ele>
        <time>2023-02-14T08:49:16.797Z</time>
      </trkpt>
      <trkpt lat="45.61264" lon="5.56445">
        <ele>210</ele>
        <time>2023-02-14T08:49:17.797Z</time>
      </trkpt>
      <trkpt lat="45.61268" lon="5.56441">
        <ele>210</ele>
        <time>2023-02-14T08:49:18.797Z</time>
      </trkpt>
      <trkpt lat="45.61273" lon="5.56438">
        <ele>210</ele>
        <time>2023-02-14T08:49:19.797Z</time>
      </trkpt>
      <trkpt lat="45.61277" lon="5.56435">
        <ele>210</ele>
        <time>2023-02-14T08:49:20.797Z</time>
      </trkpt>
      <trkpt lat="45.61281" lon="5.56432">
        <ele>210</ele>
        <time>2023-02-14T08:49:21.797Z</time>
      </trkpt>
      <trkpt lat="45.61286" lon="5.56429">
        <ele>210</ele>
        <time>2023-02-14T08:49:22.797Z</time>
      </trkpt>
      <trkpt lat="45.6129" lon="5.56426">
        <ele>209</ele>
        <time>2023-02-14T08:49:23.797Z</time>
      </trkpt>
      <trkpt lat="45.61294" lon="5.56424">
        <ele>209</ele>
        <time>2023-02-14T08:49:24.797Z</time>
      </trkpt>
      <trkpt lat="45.61299" lon="5.56421">
        <ele>209</ele>
        <time>2023-02-14T08:49:25.797Z</time>
      </trkpt>
      <trkpt lat="45.61303" lon="5.56418">
        <ele>209</ele>
        <time>2023-02-14T08:49:26.797Z</time>
      </trkpt>
      <trkpt lat="45.61308" lon="5.56416">
        <ele>209</ele>
        <time>2023-02-14T08:49:27.797Z</time>
      </trkpt>
      <trkpt lat="45.61312" lon="5.56414">
        <ele>209</ele>
        <time>2023-02-14T08:49:28.797Z</time>
      </trkpt>
      <trkpt lat="45.61317" lon="5.56411">
        <ele>209</ele>
        <time>2023-02-14T08:49:29.797Z</time>
      </trkpt>
      <trkpt lat="45.61321" lon="5.56409">
        <ele>209</ele>
        <time>2023-02-14T08:49:30.797Z</time>
      </trkpt>
      <trkpt lat="45.61325" lon="5.56406">
        <ele>209</ele>
        <time>2023-02-14T08:49:31.797Z</time>
      </trkpt>
      <trkpt lat="45.61329" lon="5.56404">
        <ele>210</ele>
        <time>2023-02-14T08:49:32.797Z</time>
      </trkpt>
      <trkpt lat="45.61333" lon="5.56402">
        <ele>210</ele>
        <time>2023-02-14T08:49:33.797Z</time>
      </trkpt>
      <trkpt lat="45.61338" lon="5.56399">
        <ele>210</ele>
        <time>2023-02-14T08:49:34.797Z</time>
      </trkpt>
      <trkpt lat="45.61342" lon="5.56397">
        <ele>210</ele>
        <time>2023-02-14T08:49:35.797Z</time>
      </trkpt>
      <trkpt lat="45.61346" lon="5.56395">
        <ele>210</ele>
        <time>2023-02-14T08:49:36.797Z</time>
      </trkpt>
      <trkpt lat="45.6135" lon="5.56392">
        <ele>210</ele>
        <time>2023-02-14T08:49:37.797Z</time>
      </trkpt>
      <trkpt lat="45.61355" lon="5.5639">
        <ele>210</ele>
        <time>2023-02-14T08:49:38.797Z</time>
      </trkpt>
      <trkpt lat="45.61359" lon="5.56387">
        <ele>210</ele>
        <time>2023-02-14T08:49:39.797Z</time>
      </trkpt>
      <trkpt lat="45.61363" lon="5.56385">
        <ele>210</ele>
        <time>2023-02-14T08:49:40.797Z</time>
      </trkpt>
      <trkpt lat="45.61368" lon="5.56382">
        <ele>210</ele>
        <time>2023-02-14T08:49:41.797Z</time>
      </trkpt>
      <trkpt lat="45.61372" lon="5.56379">
        <ele>210</ele>
        <time>2023-02-14T08:49:42.797Z</time>
      </trkpt>
      <trkpt lat="45.61376" lon="5.56377">
        <ele>210</ele>
        <time>2023-02-14T08:49:43.797Z</time>
      </trkpt>
      <trkpt lat="45.61381" lon="5.56375">
        <ele>210</ele>
        <time>2023-02-14T08:49:44.797Z</time>
      </trkpt>
      <trkpt lat="45.61386" lon="5.56372">
        <ele>210</ele>
        <time>2023-02-14T08:49:45.797Z</time>
      </trkpt>
      <trkpt lat="45.6139" lon="5.5637">
        <ele>210</ele>
        <time>2023-02-14T08:49:46.797Z</time>
      </trkpt>
      <trkpt lat="45.61395" lon="5.56367">
        <ele>210</ele>
        <time>2023-02-14T08:49:47.797Z</time>
      </trkpt>
      <trkpt lat="45.61399" lon="5.56364">
        <ele>210</ele>
        <time>2023-02-14T08:49:48.797Z</time>
      </trkpt>
      <trkpt lat="45.61404" lon="5.56362">
        <ele>211</ele>
        <time>2023-02-14T08:49:49.797Z</time>
      </trkpt>
      <trkpt lat="45.61409" lon="5.56359">
        <ele>211</ele>
        <time>2023-02-14T08:49:50.797Z</time>
      </trkpt>
      <trkpt lat="45.61413" lon="5.56356">
        <ele>211</ele>
        <time>2023-02-14T08:49:51.797Z</time>
      </trkpt>
      <trkpt lat="45.61418" lon="5.56354">
        <ele>210</ele>
        <time>2023-02-14T08:49:52.797Z</time>
      </trkpt>
      <trkpt lat="45.61423" lon="5.56352">
        <ele>210</ele>
        <time>2023-02-14T08:49:53.797Z</time>
      </trkpt>
      <trkpt lat="45.61427" lon="5.56349">
        <ele>210</ele>
        <time>2023-02-14T08:49:54.797Z</time>
      </trkpt>
      <trkpt lat="45.61432" lon="5.56346">
        <ele>210</ele>
        <time>2023-02-14T08:49:55.797Z</time>
      </trkpt>
      <trkpt lat="45.61436" lon="5.56344">
        <ele>210</ele>
        <time>2023-02-14T08:49:56.797Z</time>
      </trkpt>
      <trkpt lat="45.61441" lon="5.56341">
        <ele>210</ele>
        <time>2023-02-14T08:49:57.797Z</time>
      </trkpt>
      <trkpt lat="45.61446" lon="5.56338">
        <ele>210</ele>
        <time>2023-02-14T08:49:58.797Z</time>
      </trkpt>
      <trkpt lat="45.6145" lon="5.56336">
        <ele>210</ele>
        <time>2023-02-14T08:49:59.797Z</time>
      </trkpt>
      <trkpt lat="45.61454" lon="5.56333">
        <ele>209</ele>
        <time>2023-02-14T08:50:00.797Z</time>
      </trkpt>
      <trkpt lat="45.61459" lon="5.5633">
        <ele>209</ele>
        <time>2023-02-14T08:50:01.797Z</time>
      </trkpt>
      <trkpt lat="45.61463" lon="5.56327">
        <ele>209</ele>
        <time>2023-02-14T08:50:02.797Z</time>
      </trkpt>
      <trkpt lat="45.61468" lon="5.56324">
        <ele>209</ele>
        <time>2023-02-14T08:50:03.797Z</time>
      </trkpt>
      <trkpt lat="45.61473" lon="5.56322">
        <ele>209</ele>
        <time>2023-02-14T08:50:04.797Z</time>
      </trkpt>
      <trkpt lat="45.61477" lon="5.56319">
        <ele>209</ele>
        <time>2023-02-14T08:50:05.797Z</time>
      </trkpt>
      <trkpt lat="45.61482" lon="5.56317">
        <ele>209</ele>
        <time>2023-02-14T08:50:06.797Z</time>
      </trkpt>
      <trkpt lat="45.61487" lon="5.56314">
        <ele>209</ele>
        <time>2023-02-14T08:50:07.797Z</time>
      </trkpt>
      <trkpt lat="45.61491" lon="5.56311">
        <ele>209</ele>
        <time>2023-02-14T08:50:08.797Z</time>
      </trkpt>
      <trkpt lat="45.61496" lon="5.56309">
        <ele>210</ele>
        <time>2023-02-14T08:50:09.797Z</time>
      </trkpt>
      <trkpt lat="45.61501" lon="5.56306">
        <ele>210</ele>
        <time>2023-02-14T08:50:10.797Z</time>
      </trkpt>
      <trkpt lat="45.61506" lon="5.56304">
        <ele>210</ele>
        <time>2023-02-14T08:50:11.797Z</time>
      </trkpt>
      <trkpt lat="45.61511" lon="5.56301">
        <ele>210</ele>
        <time>2023-02-14T08:50:12.797Z</time>
      </trkpt>
      <trkpt lat="45.61516" lon="5.56298">
        <ele>210</ele>
        <time>2023-02-14T08:50:13.797Z</time>
      </trkpt>
      <trkpt lat="45.6152" lon="5.56295">
        <ele>210</ele>
        <time>2023-02-14T08:50:14.797Z</time>
      </trkpt>
      <trkpt lat="45.61525" lon="5.56293">
        <ele>210</ele>
        <time>2023-02-14T08:50:15.797Z</time>
      </trkpt>
      <trkpt lat="45.61529" lon="5.5629">
        <ele>210</ele>
        <time>2023-02-14T08:50:16.797Z</time>
      </trkpt>
      <trkpt lat="45.61534" lon="5.56288">
        <ele>210</ele>
        <time>2023-02-14T08:50:17.797Z</time>
      </trkpt>
      <trkpt lat="45.61539" lon="5.56286">
        <ele>210</ele>
        <time>2023-02-14T08:50:18.797Z</time>
      </trkpt>
      <trkpt lat="45.61543" lon="5.56283">
        <ele>210</ele>
        <time>2023-02-14T08:50:19.797Z</time>
      </trkpt>
      <trkpt lat="45.61548" lon="5.56282">
        <ele>210</ele>
        <time>2023-02-14T08:50:20.797Z</time>
      </trkpt>
      <trkpt lat="45.61553" lon="5.56282">
        <ele>210</ele>
        <time>2023-02-14T08:50:21.797Z</time>
      </trkpt>
      <trkpt lat="45.61557" lon="5.56285">
        <ele>210</ele>
        <time>2023-02-14T08:50:22.797Z</time>
      </trkpt>
      <trkpt lat="45.6156" lon="5.5629">
        <ele>211</ele>
        <time>2023-02-14T08:50:23.797Z</time>
      </trkpt>
      <trkpt lat="45.61563" lon="5.56296">
        <ele>211</ele>
        <time>2023-02-14T08:50:24.797Z</time>
      </trkpt>
      <trkpt lat="45.61566" lon="5.56302">
        <ele>211</ele>
        <time>2023-02-14T08:50:25.797Z</time>
      </trkpt>
      <trkpt lat="45.61569" lon="5.56307">
        <ele>211</ele>
        <time>2023-02-14T08:50:26.797Z</time>
      </trkpt>
      <trkpt lat="45.61571" lon="5.56313">
        <ele>211</ele>
        <time>2023-02-14T08:50:27.797Z</time>
      </trkpt>
      <trkpt lat="45.61574" lon="5.56318">
        <ele>211</ele>
        <time>2023-02-14T08:50:28.797Z</time>
      </trkpt>
      <trkpt lat="45.61577" lon="5.56324">
        <ele>211</ele>
        <time>2023-02-14T08:50:29.797Z</time>
      </trkpt>
      <trkpt lat="45.61579" lon="5.56329">
        <ele>211</ele>
        <time>2023-02-14T08:50:30.797Z</time>
      </trkpt>
      <trkpt lat="45.61582" lon="5.56333">
        <ele>211</ele>
        <time>2023-02-14T08:50:31.797Z</time>
      </trkpt>
      <trkpt lat="45.61585" lon="5.56337">
        <ele>211</ele>
        <time>2023-02-14T08:50:32.797Z</time>
      </trkpt>
      <trkpt lat="45.61587" lon="5.56341">
        <ele>211</ele>
        <time>2023-02-14T08:50:33.797Z</time>
      </trkpt>
      <trkpt lat="45.6159" lon="5.56346">
        <ele>211</ele>
        <time>2023-02-14T08:50:34.797Z</time>
      </trkpt>
      <trkpt lat="45.61592" lon="5.56351">
        <ele>211</ele>
        <time>2023-02-14T08:50:35.797Z</time>
      </trkpt>
      <trkpt lat="45.61593" lon="5.56357">
        <ele>211</ele>
        <time>2023-02-14T08:50:36.797Z</time>
      </trkpt>
      <trkpt lat="45.61593" lon="5.56363">
        <ele>211</ele>
        <time>2023-02-14T08:50:37.797Z</time>
      </trkpt>
      <trkpt lat="45.61591" lon="5.5637">
        <ele>211</ele>
        <time>2023-02-14T08:50:38.797Z</time>
      </trkpt>
      <trkpt lat="45.61589" lon="5.56376">
        <ele>210</ele>
        <time>2023-02-14T08:50:39.797Z</time>
      </trkpt>
      <trkpt lat="45.61587" lon="5.56382">
        <ele>211</ele>
        <time>2023-02-14T08:50:40.797Z</time>
      </trkpt>
      <trkpt lat="45.61584" lon="5.56388">
        <ele>211</ele>
        <time>2023-02-14T08:50:41.797Z</time>
      </trkpt>
      <trkpt lat="45.61582" lon="5.56394">
        <ele>210</ele>
        <time>2023-02-14T08:50:42.797Z</time>
      </trkpt>
      <trkpt lat="45.61579" lon="5.564">
        <ele>210</ele>
        <time>2023-02-14T08:50:43.797Z</time>
      </trkpt>
      <trkpt lat="45.61577" lon="5.56405">
        <ele>211</ele>
        <time>2023-02-14T08:50:44.797Z</time>
      </trkpt>
      <trkpt lat="45.61574" lon="5.5641">
        <ele>211</ele>
        <time>2023-02-14T08:50:45.797Z</time>
      </trkpt>
      <trkpt lat="45.61571" lon="5.56415">
        <ele>211</ele>
        <time>2023-02-14T08:50:46.797Z</time>
      </trkpt>
      <trkpt lat="45.61569" lon="5.56421">
        <ele>211</ele>
        <time>2023-02-14T08:50:47.797Z</time>
      </trkpt>
      <trkpt lat="45.61566" lon="5.56426">
        <ele>211</ele>
        <time>2023-02-14T08:50:48.797Z</time>
      </trkpt>
      <trkpt lat="45.61564" lon="5.56432">
        <ele>211</ele>
        <time>2023-02-14T08:50:49.797Z</time>
      </trkpt>
      <trkpt lat="45.61562" lon="5.56438">
        <ele>211</ele>
        <time>2023-02-14T08:50:50.797Z</time>
      </trkpt>
      <trkpt lat="45.6156" lon="5.56443">
        <ele>211</ele>
        <time>2023-02-14T08:50:51.797Z</time>
      </trkpt>
      <trkpt lat="45.61557" lon="5.56449">
        <ele>211</ele>
        <time>2023-02-14T08:50:52.797Z</time>
      </trkpt>
      <trkpt lat="45.61555" lon="5.56455">
        <ele>211</ele>
        <time>2023-02-14T08:50:53.797Z</time>
      </trkpt>
      <trkpt lat="45.61552" lon="5.5646">
        <ele>211</ele>
        <time>2023-02-14T08:50:54.797Z</time>
      </trkpt>
      <trkpt lat="45.6155" lon="5.56466">
        <ele>211</ele>
        <time>2023-02-14T08:50:55.797Z</time>
      </trkpt>
      <trkpt lat="45.61547" lon="5.56472">
        <ele>211</ele>
        <time>2023-02-14T08:50:56.797Z</time>
      </trkpt>
      <trkpt lat="45.61545" lon="5.56477">
        <ele>211</ele>
        <time>2023-02-14T08:50:57.797Z</time>
      </trkpt>
      <trkpt lat="45.61542" lon="5.56482">
        <ele>211</ele>
        <time>2023-02-14T08:50:58.797Z</time>
      </trkpt>
      <trkpt lat="45.61539" lon="5.56487">
        <ele>211</ele>
        <time>2023-02-14T08:50:59.797Z</time>
      </trkpt>
      <trkpt lat="45.61537" lon="5.56493">
        <ele>211</ele>
        <time>2023-02-14T08:51:00.797Z</time>
      </trkpt>
      <trkpt lat="45.61534" lon="5.56497">
        <ele>211</ele>
        <time>2023-02-14T08:51:01.797Z</time>
      </trkpt>
      <trkpt lat="45.61531" lon="5.56502">
        <ele>211</ele>
        <time>2023-02-14T08:51:02.797Z</time>
      </trkpt>
      <trkpt lat="45.61529" lon="5.56508">
        <ele>211</ele>
        <time>2023-02-14T08:51:03.797Z</time>
      </trkpt>
      <trkpt lat="45.61526" lon="5.56513">
        <ele>211</ele>
        <time>2023-02-14T08:51:04.797Z</time>
      </trkpt>
      <trkpt lat="45.61524" lon="5.56518">
        <ele>211</ele>
        <time>2023-02-14T08:51:05.797Z</time>
      </trkpt>
      <trkpt lat="45.61522" lon="5.56523">
        <ele>211</ele>
        <time>2023-02-14T08:51:06.797Z</time>
      </trkpt>
      <trkpt lat="45.61519" lon="5.56529">
        <ele>211</ele>
        <time>2023-02-14T08:51:07.797Z</time>
      </trkpt>
      <trkpt lat="45.61517" lon="5.56535">
        <ele>211</ele>
        <time>2023-02-14T08:51:08.797Z</time>
      </trkpt>
      <trkpt lat="45.61515" lon="5.5654">
        <ele>211</ele>
        <time>2023-02-14T08:51:09.797Z</time>
      </trkpt>
      <trkpt lat="45.61512" lon="5.56545">
        <ele>211</ele>
        <time>2023-02-14T08:51:10.797Z</time>
      </trkpt>
      <trkpt lat="45.6151" lon="5.56551">
        <ele>211</ele>
        <time>2023-02-14T08:51:11.797Z</time>
      </trkpt>
      <trkpt lat="45.61507" lon="5.56556">
        <ele>211</ele>
        <time>2023-02-14T08:51:12.797Z</time>
      </trkpt>
      <trkpt lat="45.61505" lon="5.56562">
        <ele>211</ele>
        <time>2023-02-14T08:51:13.797Z</time>
      </trkpt>
      <trkpt lat="45.61503" lon="5.56567">
        <ele>211</ele>
        <time>2023-02-14T08:51:14.797Z</time>
      </trkpt>
      <trkpt lat="45.615" lon="5.56573">
        <ele>211</ele>
        <time>2023-02-14T08:51:15.797Z</time>
      </trkpt>
      <trkpt lat="45.61498" lon="5.56578">
        <ele>211</ele>
        <time>2023-02-14T08:51:16.797Z</time>
      </trkpt>
      <trkpt lat="45.61496" lon="5.56584">
        <ele>211</ele>
        <time>2023-02-14T08:51:17.797Z</time>
      </trkpt>
      <trkpt lat="45.61493" lon="5.56589">
        <ele>211</ele>
        <time>2023-02-14T08:51:18.797Z</time>
      </trkpt>
      <trkpt lat="45.61491" lon="5.56595">
        <ele>211</ele>
        <time>2023-02-14T08:51:19.797Z</time>
      </trkpt>
      <trkpt lat="45.61489" lon="5.566">
        <ele>211</ele>
        <time>2023-02-14T08:51:20.797Z</time>
      </trkpt>
      <trkpt lat="45.61486" lon="5.56605">
        <ele>211</ele>
        <time>2023-02-14T08:51:21.797Z</time>
      </trkpt>
      <trkpt lat="45.61484" lon="5.56611">
        <ele>211</ele>
        <time>2023-02-14T08:51:22.797Z</time>
      </trkpt>
      <trkpt lat="45.61482" lon="5.56616">
        <ele>211</ele>
        <time>2023-02-14T08:51:23.797Z</time>
      </trkpt>
      <trkpt lat="45.6148" lon="5.56621">
        <ele>211</ele>
        <time>2023-02-14T08:51:24.797Z</time>
      </trkpt>
      <trkpt lat="45.61477" lon="5.56626">
        <ele>211</ele>
        <time>2023-02-14T08:51:25.797Z</time>
      </trkpt>
      <trkpt lat="45.61475" lon="5.56632">
        <ele>211</ele>
        <time>2023-02-14T08:51:26.797Z</time>
      </trkpt>
      <trkpt lat="45.61473" lon="5.56637">
        <ele>211</ele>
        <time>2023-02-14T08:51:27.797Z</time>
      </trkpt>
      <trkpt lat="45.61471" lon="5.56642">
        <ele>211</ele>
        <time>2023-02-14T08:51:28.797Z</time>
      </trkpt>
      <trkpt lat="45.61469" lon="5.56648">
        <ele>211</ele>
        <time>2023-02-14T08:51:29.797Z</time>
      </trkpt>
      <trkpt lat="45.61467" lon="5.56653">
        <ele>211</ele>
        <time>2023-02-14T08:51:30.797Z</time>
      </trkpt>
      <trkpt lat="45.61464" lon="5.56658">
        <ele>211</ele>
        <time>2023-02-14T08:51:31.797Z</time>
      </trkpt>
      <trkpt lat="45.61462" lon="5.56663">
        <ele>211</ele>
        <time>2023-02-14T08:51:32.797Z</time>
      </trkpt>
      <trkpt lat="45.6146" lon="5.56668">
        <ele>211</ele>
        <time>2023-02-14T08:51:33.797Z</time>
      </trkpt>
      <trkpt lat="45.61457" lon="5.56673">
        <ele>211</ele>
        <time>2023-02-14T08:51:34.797Z</time>
      </trkpt>
      <trkpt lat="45.61455" lon="5.56678">
        <ele>211</ele>
        <time>2023-02-14T08:51:35.797Z</time>
      </trkpt>
      <trkpt lat="45.61452" lon="5.56683">
        <ele>211</ele>
        <time>2023-02-14T08:51:36.797Z</time>
      </trkpt>
      <trkpt lat="45.6145" lon="5.56689">
        <ele>211</ele>
        <time>2023-02-14T08:51:37.797Z</time>
      </trkpt>
      <trkpt lat="45.61448" lon="5.56694">
        <ele>210</ele>
        <time>2023-02-14T08:51:38.797Z</time>
      </trkpt>
      <trkpt lat="45.61446" lon="5.56699">
        <ele>210</ele>
        <time>2023-02-14T08:51:39.797Z</time>
      </trkpt>
      <trkpt lat="45.61445" lon="5.56705">
        <ele>210</ele>
        <time>2023-02-14T08:51:40.797Z</time>
      </trkpt>
      <trkpt lat="45.61444" lon="5.5671">
        <ele>210</ele>
        <time>2023-02-14T08:51:41.797Z</time>
      </trkpt>
      <trkpt lat="45.61444" lon="5.56715">
        <ele>211</ele>
        <time>2023-02-14T08:51:42.797Z</time>
      </trkpt>
      <trkpt lat="45.61445" lon="5.56719">
        <ele>211</ele>
        <time>2023-02-14T08:51:43.797Z</time>
      </trkpt>
      <trkpt lat="45.61448" lon="5.56723">
        <ele>211</ele>
        <time>2023-02-14T08:51:44.797Z</time>
      </trkpt>
      <trkpt lat="45.61451" lon="5.56726">
        <ele>211</ele>
        <time>2023-02-14T08:51:45.797Z</time>
      </trkpt>
      <trkpt lat="45.61455" lon="5.56729">
        <ele>211</ele>
        <time>2023-02-14T08:51:46.797Z</time>
      </trkpt>
      <trkpt lat="45.61458" lon="5.56732">
        <ele>211</ele>
        <time>2023-02-14T08:51:47.797Z</time>
      </trkpt>
      <trkpt lat="45.61462" lon="5.56735">
        <ele>211</ele>
        <time>2023-02-14T08:51:48.797Z</time>
      </trkpt>
      <trkpt lat="45.61465" lon="5.56738">
        <ele>211</ele>
        <time>2023-02-14T08:51:49.797Z</time>
      </trkpt>
      <trkpt lat="45.61469" lon="5.56741">
        <ele>212</ele>
        <time>2023-02-14T08:51:50.797Z</time>
      </trkpt>
      <trkpt lat="45.61472" lon="5.56744">
        <ele>212</ele>
        <time>2023-02-14T08:51:51.797Z</time>
      </trkpt>
      <trkpt lat="45.61476" lon="5.56747">
        <ele>212</ele>
        <time>2023-02-14T08:51:52.797Z</time>
      </trkpt>
      <trkpt lat="45.61479" lon="5.5675">
        <ele>211</ele>
        <time>2023-02-14T08:51:53.797Z</time>
      </trkpt>
      <trkpt lat="45.61483" lon="5.56753">
        <ele>212</ele>
        <time>2023-02-14T08:51:54.797Z</time>
      </trkpt>
      <trkpt lat="45.61486" lon="5.56756">
        <ele>212</ele>
        <time>2023-02-14T08:51:55.797Z</time>
      </trkpt>
      <trkpt lat="45.6149" lon="5.56759">
        <ele>212</ele>
        <time>2023-02-14T08:51:56.797Z</time>
      </trkpt>
      <trkpt lat="45.61493" lon="5.56761">
        <ele>212</ele>
        <time>2023-02-14T08:51:57.797Z</time>
      </trkpt>
      <trkpt lat="45.61497" lon="5.56764">
        <ele>212</ele>
        <time>2023-02-14T08:51:58.797Z</time>
      </trkpt>
      <trkpt lat="45.61501" lon="5.56768">
        <ele>212</ele>
        <time>2023-02-14T08:51:59.797Z</time>
      </trkpt>
      <trkpt lat="45.61504" lon="5.56771">
        <ele>211</ele>
        <time>2023-02-14T08:52:00.797Z</time>
      </trkpt>
      <trkpt lat="45.61508" lon="5.56774">
        <ele>211</ele>
        <time>2023-02-14T08:52:01.797Z</time>
      </trkpt>
      <trkpt lat="45.61512" lon="5.56777">
        <ele>211</ele>
        <time>2023-02-14T08:52:02.797Z</time>
      </trkpt>
      <trkpt lat="45.61515" lon="5.5678">
        <ele>211</ele>
        <time>2023-02-14T08:52:03.797Z</time>
      </trkpt>
      <trkpt lat="45.61519" lon="5.56783">
        <ele>211</ele>
        <time>2023-02-14T08:52:04.797Z</time>
      </trkpt>
      <trkpt lat="45.61523" lon="5.56786">
        <ele>212</ele>
        <time>2023-02-14T08:52:05.797Z</time>
      </trkpt>
      <trkpt lat="45.61526" lon="5.56789">
        <ele>212</ele>
        <time>2023-02-14T08:52:06.797Z</time>
      </trkpt>
      <trkpt lat="45.6153" lon="5.56792">
        <ele>212</ele>
        <time>2023-02-14T08:52:07.797Z</time>
      </trkpt>
      <trkpt lat="45.61533" lon="5.56795">
        <ele>212</ele>
        <time>2023-02-14T08:52:08.797Z</time>
      </trkpt>
      <trkpt lat="45.61536" lon="5.56798">
        <ele>212</ele>
        <time>2023-02-14T08:52:09.797Z</time>
      </trkpt>
      <trkpt lat="45.6154" lon="5.56801">
        <ele>212</ele>
        <time>2023-02-14T08:52:10.797Z</time>
      </trkpt>
      <trkpt lat="45.61543" lon="5.56804">
        <ele>212</ele>
        <time>2023-02-14T08:52:11.797Z</time>
      </trkpt>
      <trkpt lat="45.61547" lon="5.56807">
        <ele>212</ele>
        <time>2023-02-14T08:52:12.797Z</time>
      </trkpt>
      <trkpt lat="45.6155" lon="5.56809">
        <ele>212</ele>
        <time>2023-02-14T08:52:13.797Z</time>
      </trkpt>
      <trkpt lat="45.61554" lon="5.56812">
        <ele>212</ele>
        <time>2023-02-14T08:52:14.797Z</time>
      </trkpt>
      <trkpt lat="45.61557" lon="5.56815">
        <ele>212</ele>
        <time>2023-02-14T08:52:15.797Z</time>
      </trkpt>
      <trkpt lat="45.6156" lon="5.56818">
        <ele>212</ele>
        <time>2023-02-14T08:52:16.797Z</time>
      </trkpt>
      <trkpt lat="45.61564" lon="5.56821">
        <ele>212</ele>
        <time>2023-02-14T08:52:17.797Z</time>
      </trkpt>
      <trkpt lat="45.61567" lon="5.56824">
        <ele>211</ele>
        <time>2023-02-14T08:52:18.797Z</time>
      </trkpt>
      <trkpt lat="45.61571" lon="5.56826">
        <ele>211</ele>
        <time>2023-02-14T08:52:19.797Z</time>
      </trkpt>
      <trkpt lat="45.61574" lon="5.56829">
        <ele>211</ele>
        <time>2023-02-14T08:52:20.797Z</time>
      </trkpt>
      <trkpt lat="45.61578" lon="5.56832">
        <ele>211</ele>
        <time>2023-02-14T08:52:21.797Z</time>
      </trkpt>
      <trkpt lat="45.61581" lon="5.56835">
        <ele>211</ele>
        <time>2023-02-14T08:52:22.797Z</time>
      </trkpt>
      <trkpt lat="45.61585" lon="5.56838">
        <ele>211</ele>
        <time>2023-02-14T08:52:23.797Z</time>
      </trkpt>
      <trkpt lat="45.61588" lon="5.5684">
        <ele>211</ele>
        <time>2023-02-14T08:52:24.797Z</time>
      </trkpt>
      <trkpt lat="45.61592" lon="5.56843">
        <ele>211</ele>
        <time>2023-02-14T08:52:25.797Z</time>
      </trkpt>
      <trkpt lat="45.61596" lon="5.56846">
        <ele>211</ele>
        <time>2023-02-14T08:52:26.797Z</time>
      </trkpt>
      <trkpt lat="45.61599" lon="5.56848">
        <ele>211</ele>
        <time>2023-02-14T08:52:27.797Z</time>
      </trkpt>
      <trkpt lat="45.61603" lon="5.56851">
        <ele>211</ele>
        <time>2023-02-14T08:52:28.797Z</time>
      </trkpt>
      <trkpt lat="45.61606" lon="5.56854">
        <ele>211</ele>
        <time>2023-02-14T08:52:29.797Z</time>
      </trkpt>
      <trkpt lat="45.61609" lon="5.56857">
        <ele>211</ele>
        <time>2023-02-14T08:52:30.797Z</time>
      </trkpt>
      <trkpt lat="45.61613" lon="5.5686">
        <ele>211</ele>
        <time>2023-02-14T08:52:31.797Z</time>
      </trkpt>
      <trkpt lat="45.61616" lon="5.56863">
        <ele>211</ele>
        <time>2023-02-14T08:52:32.797Z</time>
      </trkpt>
      <trkpt lat="45.6162" lon="5.56866">
        <ele>211</ele>
        <time>2023-02-14T08:52:33.797Z</time>
      </trkpt>
      <trkpt lat="45.61623" lon="5.56869">
        <ele>211</ele>
        <time>2023-02-14T08:52:34.797Z</time>
      </trkpt>
      <trkpt lat="45.61627" lon="5.56873">
        <ele>211</ele>
        <time>2023-02-14T08:52:35.797Z</time>
      </trkpt>
      <trkpt lat="45.61631" lon="5.56876">
        <ele>211</ele>
        <time>2023-02-14T08:52:36.797Z</time>
      </trkpt>
      <trkpt lat="45.61634" lon="5.56879">
        <ele>211</ele>
        <time>2023-02-14T08:52:37.797Z</time>
      </trkpt>
      <trkpt lat="45.61638" lon="5.56883">
        <ele>211</ele>
        <time>2023-02-14T08:52:38.797Z</time>
      </trkpt>
      <trkpt lat="45.61641" lon="5.56886">
        <ele>211</ele>
        <time>2023-02-14T08:52:39.797Z</time>
      </trkpt>
      <trkpt lat="45.61645" lon="5.56889">
        <ele>211</ele>
        <time>2023-02-14T08:52:40.797Z</time>
      </trkpt>
      <trkpt lat="45.61648" lon="5.56892">
        <ele>211</ele>
        <time>2023-02-14T08:52:41.797Z</time>
      </trkpt>
      <trkpt lat="45.61651" lon="5.56895">
        <ele>212</ele>
        <time>2023-02-14T08:52:42.797Z</time>
      </trkpt>
      <trkpt lat="45.61655" lon="5.56898">
        <ele>212</ele>
        <time>2023-02-14T08:52:43.797Z</time>
      </trkpt>
      <trkpt lat="45.61658" lon="5.56901">
        <ele>211</ele>
        <time>2023-02-14T08:52:44.797Z</time>
      </trkpt>
      <trkpt lat="45.61662" lon="5.56904">
        <ele>212</ele>
        <time>2023-02-14T08:52:45.797Z</time>
      </trkpt>
      <trkpt lat="45.61665" lon="5.56907">
        <ele>212</ele>
        <time>2023-02-14T08:52:46.797Z</time>
      </trkpt>
      <trkpt lat="45.61669" lon="5.5691">
        <ele>211</ele>
        <time>2023-02-14T08:52:47.797Z</time>
      </trkpt>
      <trkpt lat="45.61672" lon="5.56913">
        <ele>211</ele>
        <time>2023-02-14T08:52:48.797Z</time>
      </trkpt>
      <trkpt lat="45.61676" lon="5.56917">
        <ele>211</ele>
        <time>2023-02-14T08:52:49.797Z</time>
      </trkpt>
      <trkpt lat="45.61679" lon="5.5692">
        <ele>211</ele>
        <time>2023-02-14T08:52:50.797Z</time>
      </trkpt>
      <trkpt lat="45.61683" lon="5.56923">
        <ele>211</ele>
        <time>2023-02-14T08:52:51.797Z</time>
      </trkpt>
      <trkpt lat="45.61686" lon="5.56926">
        <ele>211</ele>
        <time>2023-02-14T08:52:52.797Z</time>
      </trkpt>
      <trkpt lat="45.6169" lon="5.56929">
        <ele>211</ele>
        <time>2023-02-14T08:52:53.797Z</time>
      </trkpt>
      <trkpt lat="45.61693" lon="5.56932">
        <ele>211</ele>
        <time>2023-02-14T08:52:54.797Z</time>
      </trkpt>
      <trkpt lat="45.61697" lon="5.56936">
        <ele>211</ele>
        <time>2023-02-14T08:52:55.797Z</time>
      </trkpt>
      <trkpt lat="45.617" lon="5.56939">
        <ele>211</ele>
        <time>2023-02-14T08:52:56.797Z</time>
      </trkpt>
      <trkpt lat="45.61704" lon="5.56942">
        <ele>211</ele>
        <time>2023-02-14T08:52:57.797Z</time>
      </trkpt>
      <trkpt lat="45.61708" lon="5.56945">
        <ele>211</ele>
        <time>2023-02-14T08:52:58.797Z</time>
      </trkpt>
      <trkpt lat="45.61711" lon="5.56949">
        <ele>211</ele>
        <time>2023-02-14T08:52:59.797Z</time>
      </trkpt>
      <trkpt lat="45.61715" lon="5.56952">
        <ele>211</ele>
        <time>2023-02-14T08:53:00.797Z</time>
      </trkpt>
      <trkpt lat="45.61719" lon="5.56955">
        <ele>211</ele>
        <time>2023-02-14T08:53:01.797Z</time>
      </trkpt>
      <trkpt lat="45.61722" lon="5.56958">
        <ele>211</ele>
        <time>2023-02-14T08:53:02.797Z</time>
      </trkpt>
      <trkpt lat="45.61726" lon="5.56961">
        <ele>211</ele>
        <time>2023-02-14T08:53:03.797Z</time>
      </trkpt>
      <trkpt lat="45.61729" lon="5.56964">
        <ele>211</ele>
        <time>2023-02-14T08:53:04.797Z</time>
      </trkpt>
      <trkpt lat="45.61733" lon="5.56966">
        <ele>211</ele>
        <time>2023-02-14T08:53:05.797Z</time>
      </trkpt>
      <trkpt lat="45.61736" lon="5.56968">
        <ele>211</ele>
        <time>2023-02-14T08:53:06.797Z</time>
      </trkpt>
      <trkpt lat="45.6174" lon="5.56971">
        <ele>211</ele>
        <time>2023-02-14T08:53:07.797Z</time>
      </trkpt>
      <trkpt lat="45.61743" lon="5.56973">
        <ele>211</ele>
        <time>2023-02-14T08:53:08.797Z</time>
      </trkpt>
      <trkpt lat="45.61746" lon="5.56976">
        <ele>211</ele>
        <time>2023-02-14T08:53:09.797Z</time>
      </trkpt>
      <trkpt lat="45.61749" lon="5.56979">
        <ele>211</ele>
        <time>2023-02-14T08:53:10.797Z</time>
      </trkpt>
      <trkpt lat="45.61752" lon="5.56981">
        <ele>211</ele>
        <time>2023-02-14T08:53:11.797Z</time>
      </trkpt>
      <trkpt lat="45.61755" lon="5.56984">
        <ele>211</ele>
        <time>2023-02-14T08:53:12.797Z</time>
      </trkpt>
      <trkpt lat="45.61758" lon="5.56986">
        <ele>211</ele>
        <time>2023-02-14T08:53:13.797Z</time>
      </trkpt>
      <trkpt lat="45.61761" lon="5.56989">
        <ele>211</ele>
        <time>2023-02-14T08:53:14.797Z</time>
      </trkpt>
      <trkpt lat="45.61764" lon="5.56991">
        <ele>211</ele>
        <time>2023-02-14T08:53:15.797Z</time>
      </trkpt>
      <trkpt lat="45.61766" lon="5.56993">
        <ele>211</ele>
        <time>2023-02-14T08:53:16.797Z</time>
      </trkpt>
      <trkpt lat="45.61769" lon="5.56996">
        <ele>211</ele>
        <time>2023-02-14T08:53:17.797Z</time>
      </trkpt>
      <trkpt lat="45.61772" lon="5.56998">
        <ele>211</ele>
        <time>2023-02-14T08:53:18.797Z</time>
      </trkpt>
      <trkpt lat="45.61775" lon="5.57001">
        <ele>211</ele>
        <time>2023-02-14T08:53:19.797Z</time>
      </trkpt>
      <trkpt lat="45.61778" lon="5.57003">
        <ele>211</ele>
        <time>2023-02-14T08:53:20.797Z</time>
      </trkpt>
      <trkpt lat="45.6178" lon="5.57006">
        <ele>211</ele>
        <time>2023-02-14T08:53:21.797Z</time>
      </trkpt>
      <trkpt lat="45.61783" lon="5.57008">
        <ele>211</ele>
        <time>2023-02-14T08:53:22.797Z</time>
      </trkpt>
      <trkpt lat="45.61786" lon="5.57011">
        <ele>210</ele>
        <time>2023-02-14T08:53:23.797Z</time>
      </trkpt>
      <trkpt lat="45.61789" lon="5.57013">
        <ele>210</ele>
        <time>2023-02-14T08:53:24.797Z</time>
      </trkpt>
      <trkpt lat="45.61793" lon="5.57016">
        <ele>210</ele>
        <time>2023-02-14T08:53:25.797Z</time>
      </trkpt>
      <trkpt lat="45.61797" lon="5.57017">
        <ele>209</ele>
        <time>2023-02-14T08:53:26.797Z</time>
      </trkpt>
      <trkpt lat="45.618" lon="5.57018">
        <ele>209</ele>
        <time>2023-02-14T08:53:27.797Z</time>
      </trkpt>
      <trkpt lat="45.61804" lon="5.57016">
        <ele>208</ele>
        <time>2023-02-14T08:53:28.797Z</time>
      </trkpt>
      <trkpt lat="45.61807" lon="5.57012">
        <ele>208</ele>
        <time>2023-02-14T08:53:29.797Z</time>
      </trkpt>
      <trkpt lat="45.6181" lon="5.57007">
        <ele>208</ele>
        <time>2023-02-14T08:53:30.797Z</time>
      </trkpt>
      <trkpt lat="45.61813" lon="5.57003">
        <ele>208</ele>
        <time>2023-02-14T08:53:31.797Z</time>
      </trkpt>
      <trkpt lat="45.61815" lon="5.56998">
        <ele>208</ele>
        <time>2023-02-14T08:53:32.797Z</time>
      </trkpt>
      <trkpt lat="45.61817" lon="5.56993">
        <ele>208</ele>
        <time>2023-02-14T08:53:33.797Z</time>
      </trkpt>
      <trkpt lat="45.6182" lon="5.56989">
        <ele>208</ele>
        <time>2023-02-14T08:53:34.797Z</time>
      </trkpt>
      <trkpt lat="45.61822" lon="5.56984">
        <ele>208</ele>
        <time>2023-02-14T08:53:35.797Z</time>
      </trkpt>
      <trkpt lat="45.61824" lon="5.5698">
        <ele>208</ele>
        <time>2023-02-14T08:53:36.797Z</time>
      </trkpt>
      <trkpt lat="45.61826" lon="5.56975">
        <ele>207</ele>
        <time>2023-02-14T08:53:37.797Z</time>
      </trkpt>
      <trkpt lat="45.61828" lon="5.5697">
        <ele>208</ele>
        <time>2023-02-14T08:53:38.797Z</time>
      </trkpt>
      <trkpt lat="45.6183" lon="5.56966">
        <ele>208</ele>
        <time>2023-02-14T08:53:39.797Z</time>
      </trkpt>
      <trkpt lat="45.61832" lon="5.56961">
        <ele>208</ele>
        <time>2023-02-14T08:53:40.797Z</time>
      </trkpt>
      <trkpt lat="45.61833" lon="5.56957">
        <ele>208</ele>
        <time>2023-02-14T08:53:41.797Z</time>
      </trkpt>
      <trkpt lat="45.61835" lon="5.56953">
        <ele>208</ele>
        <time>2023-02-14T08:53:42.797Z</time>
      </trkpt>
      <trkpt lat="45.61837" lon="5.56949">
        <ele>208</ele>
        <time>2023-02-14T08:53:43.797Z</time>
      </trkpt>
      <trkpt lat="45.61839" lon="5.56945">
        <ele>208</ele>
        <time>2023-02-14T08:53:44.797Z</time>
      </trkpt>
      <trkpt lat="45.61842" lon="5.56942">
        <ele>209</ele>
        <time>2023-02-14T08:53:45.797Z</time>
      </trkpt>
      <trkpt lat="45.61844" lon="5.5694">
        <ele>209</ele>
        <time>2023-02-14T08:53:46.797Z</time>
      </trkpt>
      <trkpt lat="45.61848" lon="5.56939">
        <ele>209</ele>
        <time>2023-02-14T08:53:47.797Z</time>
      </trkpt>
      <trkpt lat="45.61851" lon="5.5694">
        <ele>209</ele>
        <time>2023-02-14T08:53:48.797Z</time>
      </trkpt>
      <trkpt lat="45.61853" lon="5.56941">
        <ele>208</ele>
        <time>2023-02-14T08:53:49.797Z</time>
      </trkpt>
      <trkpt lat="45.61855" lon="5.56943">
        <ele>208</ele>
        <time>2023-02-14T08:53:50.797Z</time>
      </trkpt>
      <trkpt lat="45.61858" lon="5.56944">
        <ele>208</ele>
        <time>2023-02-14T08:53:51.797Z</time>
      </trkpt>
      <trkpt lat="45.6186" lon="5.56943">
        <ele>208</ele>
        <time>2023-02-14T08:53:52.797Z</time>
      </trkpt>
      <trkpt lat="45.61862" lon="5.56941">
        <ele>207</ele>
        <time>2023-02-14T08:53:53.797Z</time>
      </trkpt>
      <trkpt lat="45.61865" lon="5.56938">
        <ele>207</ele>
        <time>2023-02-14T08:53:54.797Z</time>
      </trkpt>
      <trkpt lat="45.61867" lon="5.56934">
        <ele>207</ele>
        <time>2023-02-14T08:53:55.797Z</time>
      </trkpt>
      <trkpt lat="45.61869" lon="5.5693">
        <ele>207</ele>
        <time>2023-02-14T08:53:56.797Z</time>
      </trkpt>
      <trkpt lat="45.61871" lon="5.56926">
        <ele>207</ele>
        <time>2023-02-14T08:53:57.797Z</time>
      </trkpt>
      <trkpt lat="45.61873" lon="5.56921">
        <ele>206</ele>
        <time>2023-02-14T08:53:58.797Z</time>
      </trkpt>
      <trkpt lat="45.61876" lon="5.56916">
        <ele>206</ele>
        <time>2023-02-14T08:53:59.797Z</time>
      </trkpt>
      <trkpt lat="45.61878" lon="5.56911">
        <ele>206</ele>
        <time>2023-02-14T08:54:00.797Z</time>
      </trkpt>
      <trkpt lat="45.6188" lon="5.56906">
        <ele>206</ele>
        <time>2023-02-14T08:54:01.797Z</time>
      </trkpt>
      <trkpt lat="45.61883" lon="5.56901">
        <ele>206</ele>
        <time>2023-02-14T08:54:02.797Z</time>
      </trkpt>
      <trkpt lat="45.61885" lon="5.56895">
        <ele>206</ele>
        <time>2023-02-14T08:54:03.797Z</time>
      </trkpt>
      <trkpt lat="45.61888" lon="5.5689">
        <ele>205</ele>
        <time>2023-02-14T08:54:04.797Z</time>
      </trkpt>
      <trkpt lat="45.6189" lon="5.56884">
        <ele>205</ele>
        <time>2023-02-14T08:54:05.797Z</time>
      </trkpt>
      <trkpt lat="45.61892" lon="5.56878">
        <ele>205</ele>
        <time>2023-02-14T08:54:06.797Z</time>
      </trkpt>
      <trkpt lat="45.61894" lon="5.56872">
        <ele>206</ele>
        <time>2023-02-14T08:54:07.797Z</time>
      </trkpt>
      <trkpt lat="45.61897" lon="5.56867">
        <ele>207</ele>
        <time>2023-02-14T08:54:08.797Z</time>
      </trkpt>
      <trkpt lat="45.61899" lon="5.56861">
        <ele>207</ele>
        <time>2023-02-14T08:54:09.797Z</time>
      </trkpt>
      <trkpt lat="45.61901" lon="5.56856">
        <ele>207</ele>
        <time>2023-02-14T08:54:10.797Z</time>
      </trkpt>
      <trkpt lat="45.61904" lon="5.5685">
        <ele>208</ele>
        <time>2023-02-14T08:54:11.797Z</time>
      </trkpt>
      <trkpt lat="45.61906" lon="5.56845">
        <ele>208</ele>
        <time>2023-02-14T08:54:12.797Z</time>
      </trkpt>
      <trkpt lat="45.61908" lon="5.5684">
        <ele>208</ele>
        <time>2023-02-14T08:54:13.797Z</time>
      </trkpt>
      <trkpt lat="45.6191" lon="5.56836">
        <ele>208</ele>
        <time>2023-02-14T08:54:14.797Z</time>
      </trkpt>
      <trkpt lat="45.61912" lon="5.56831">
        <ele>209</ele>
        <time>2023-02-14T08:54:15.797Z</time>
      </trkpt>
      <trkpt lat="45.61914" lon="5.56827">
        <ele>209</ele>
        <time>2023-02-14T08:54:16.797Z</time>
      </trkpt>
      <trkpt lat="45.61916" lon="5.56822">
        <ele>209</ele>
        <time>2023-02-14T08:54:17.797Z</time>
      </trkpt>
      <trkpt lat="45.61917" lon="5.56817">
        <ele>209</ele>
        <time>2023-02-14T08:54:18.797Z</time>
      </trkpt>
      <trkpt lat="45.61919" lon="5.56813">
        <ele>209</ele>
        <time>2023-02-14T08:54:19.797Z</time>
      </trkpt>
      <trkpt lat="45.61921" lon="5.56808">
        <ele>209</ele>
        <time>2023-02-14T08:54:20.797Z</time>
      </trkpt>
      <trkpt lat="45.61922" lon="5.56803">
        <ele>209</ele>
        <time>2023-02-14T08:54:21.797Z</time>
      </trkpt>
      <trkpt lat="45.61924" lon="5.56798">
        <ele>209</ele>
        <time>2023-02-14T08:54:22.797Z</time>
      </trkpt>
      <trkpt lat="45.61926" lon="5.56793">
        <ele>208</ele>
        <time>2023-02-14T08:54:23.797Z</time>
      </trkpt>
      <trkpt lat="45.61928" lon="5.56788">
        <ele>208</ele>
        <time>2023-02-14T08:54:24.797Z</time>
      </trkpt>
      <trkpt lat="45.61929" lon="5.56782">
        <ele>207</ele>
        <time>2023-02-14T08:54:25.797Z</time>
      </trkpt>
      <trkpt lat="45.61931" lon="5.56777">
        <ele>207</ele>
        <time>2023-02-14T08:54:26.797Z</time>
      </trkpt>
      <trkpt lat="45.61933" lon="5.56771">
        <ele>207</ele>
        <time>2023-02-14T08:54:27.797Z</time>
      </trkpt>
      <trkpt lat="45.61935" lon="5.56765">
        <ele>206</ele>
        <time>2023-02-14T08:54:28.797Z</time>
      </trkpt>
      <trkpt lat="45.61938" lon="5.5676">
        <ele>206</ele>
        <time>2023-02-14T08:54:29.797Z</time>
      </trkpt>
      <trkpt lat="45.6194" lon="5.56754">
        <ele>205</ele>
        <time>2023-02-14T08:54:30.797Z</time>
      </trkpt>
      <trkpt lat="45.61942" lon="5.56748">
        <ele>205</ele>
        <time>2023-02-14T08:54:31.797Z</time>
      </trkpt>
      <trkpt lat="45.61944" lon="5.56742">
        <ele>205</ele>
        <time>2023-02-14T08:54:32.797Z</time>
      </trkpt>
      <trkpt lat="45.61947" lon="5.56737">
        <ele>205</ele>
        <time>2023-02-14T08:54:33.797Z</time>
      </trkpt>
      <trkpt lat="45.61949" lon="5.56731">
        <ele>205</ele>
        <time>2023-02-14T08:54:34.797Z</time>
      </trkpt>
      <trkpt lat="45.61952" lon="5.56726">
        <ele>205</ele>
        <time>2023-02-14T08:54:35.797Z</time>
      </trkpt>
      <trkpt lat="45.61954" lon="5.56721">
        <ele>204</ele>
        <time>2023-02-14T08:54:36.797Z</time>
      </trkpt>
      <trkpt lat="45.61957" lon="5.56715">
        <ele>205</ele>
        <time>2023-02-14T08:54:37.797Z</time>
      </trkpt>
      <trkpt lat="45.6196" lon="5.5671">
        <ele>205</ele>
        <time>2023-02-14T08:54:38.797Z</time>
      </trkpt>
      <trkpt lat="45.61962" lon="5.56704">
        <ele>205</ele>
        <time>2023-02-14T08:54:39.797Z</time>
      </trkpt>
      <trkpt lat="45.61964" lon="5.56698">
        <ele>204</ele>
        <time>2023-02-14T08:54:40.797Z</time>
      </trkpt>
      <trkpt lat="45.61967" lon="5.56692">
        <ele>204</ele>
        <time>2023-02-14T08:54:41.797Z</time>
      </trkpt>
      <trkpt lat="45.61969" lon="5.56686">
        <ele>204</ele>
        <time>2023-02-14T08:54:42.797Z</time>
      </trkpt>
      <trkpt lat="45.61971" lon="5.5668">
        <ele>204</ele>
        <time>2023-02-14T08:54:43.797Z</time>
      </trkpt>
      <trkpt lat="45.61974" lon="5.56674">
        <ele>204</ele>
        <time>2023-02-14T08:54:44.797Z</time>
      </trkpt>
      <trkpt lat="45.61976" lon="5.56669">
        <ele>204</ele>
        <time>2023-02-14T08:54:45.797Z</time>
      </trkpt>
      <trkpt lat="45.61979" lon="5.56663">
        <ele>204</ele>
        <time>2023-02-14T08:54:46.797Z</time>
      </trkpt>
      <trkpt lat="45.61981" lon="5.56657">
        <ele>204</ele>
        <time>2023-02-14T08:54:47.797Z</time>
      </trkpt>
      <trkpt lat="45.61983" lon="5.56652">
        <ele>205</ele>
        <time>2023-02-14T08:54:48.797Z</time>
      </trkpt>
      <trkpt lat="45.61986" lon="5.56646">
        <ele>205</ele>
        <time>2023-02-14T08:54:49.797Z</time>
      </trkpt>
      <trkpt lat="45.61988" lon="5.5664">
        <ele>205</ele>
        <time>2023-02-14T08:54:50.797Z</time>
      </trkpt>
      <trkpt lat="45.61991" lon="5.56635">
        <ele>206</ele>
        <time>2023-02-14T08:54:51.797Z</time>
      </trkpt>
      <trkpt lat="45.61993" lon="5.5663">
        <ele>206</ele>
        <time>2023-02-14T08:54:52.797Z</time>
      </trkpt>
      <trkpt lat="45.61996" lon="5.56624">
        <ele>207</ele>
        <time>2023-02-14T08:54:53.797Z</time>
      </trkpt>
      <trkpt lat="45.61998" lon="5.56619">
        <ele>207</ele>
        <time>2023-02-14T08:54:54.797Z</time>
      </trkpt>
      <trkpt lat="45.62001" lon="5.56614">
        <ele>207</ele>
        <time>2023-02-14T08:54:55.797Z</time>
      </trkpt>
      <trkpt lat="45.62003" lon="5.56608">
        <ele>207</ele>
        <time>2023-02-14T08:54:56.797Z</time>
      </trkpt>
      <trkpt lat="45.62005" lon="5.56603">
        <ele>207</ele>
        <time>2023-02-14T08:54:57.797Z</time>
      </trkpt>
      <trkpt lat="45.62008" lon="5.56598">
        <ele>208</ele>
        <time>2023-02-14T08:54:58.797Z</time>
      </trkpt>
      <trkpt lat="45.6201" lon="5.56592">
        <ele>208</ele>
        <time>2023-02-14T08:54:59.797Z</time>
      </trkpt>
      <trkpt lat="45.62012" lon="5.56586">
        <ele>208</ele>
        <time>2023-02-14T08:55:00.797Z</time>
      </trkpt>
      <trkpt lat="45.62015" lon="5.56581">
        <ele>208</ele>
        <time>2023-02-14T08:55:01.797Z</time>
      </trkpt>
      <trkpt lat="45.62017" lon="5.56575">
        <ele>208</ele>
        <time>2023-02-14T08:55:02.797Z</time>
      </trkpt>
      <trkpt lat="45.6202" lon="5.56569">
        <ele>208</ele>
        <time>2023-02-14T08:55:03.797Z</time>
      </trkpt>
      <trkpt lat="45.62022" lon="5.56564">
        <ele>208</ele>
        <time>2023-02-14T08:55:04.797Z</time>
      </trkpt>
      <trkpt lat="45.62025" lon="5.56558">
        <ele>208</ele>
        <time>2023-02-14T08:55:05.797Z</time>
      </trkpt>
      <trkpt lat="45.62027" lon="5.56552">
        <ele>208</ele>
        <time>2023-02-14T08:55:06.797Z</time>
      </trkpt>
      <trkpt lat="45.6203" lon="5.56546">
        <ele>208</ele>
        <time>2023-02-14T08:55:07.797Z</time>
      </trkpt>
      <trkpt lat="45.62033" lon="5.5654">
        <ele>209</ele>
        <time>2023-02-14T08:55:08.797Z</time>
      </trkpt>
      <trkpt lat="45.62035" lon="5.56534">
        <ele>209</ele>
        <time>2023-02-14T08:55:09.797Z</time>
      </trkpt>
      <trkpt lat="45.62038" lon="5.56528">
        <ele>209</ele>
        <time>2023-02-14T08:55:10.797Z</time>
      </trkpt>
      <trkpt lat="45.62041" lon="5.56521">
        <ele>209</ele>
        <time>2023-02-14T08:55:11.797Z</time>
      </trkpt>
      <trkpt lat="45.62044" lon="5.56515">
        <ele>209</ele>
        <time>2023-02-14T08:55:12.797Z</time>
      </trkpt>
      <trkpt lat="45.62046" lon="5.56508">
        <ele>209</ele>
        <time>2023-02-14T08:55:13.797Z</time>
      </trkpt>
      <trkpt lat="45.62049" lon="5.56502">
        <ele>209</ele>
        <time>2023-02-14T08:55:14.797Z</time>
      </trkpt>
      <trkpt lat="45.62052" lon="5.56495">
        <ele>208</ele>
        <time>2023-02-14T08:55:15.797Z</time>
      </trkpt>
      <trkpt lat="45.62055" lon="5.56489">
        <ele>208</ele>
        <time>2023-02-14T08:55:16.797Z</time>
      </trkpt>
      <trkpt lat="45.62058" lon="5.56483">
        <ele>209</ele>
        <time>2023-02-14T08:55:17.797Z</time>
      </trkpt>
      <trkpt lat="45.62061" lon="5.56477">
        <ele>209</ele>
        <time>2023-02-14T08:55:18.797Z</time>
      </trkpt>
      <trkpt lat="45.62063" lon="5.56471">
        <ele>209</ele>
        <time>2023-02-14T08:55:19.797Z</time>
      </trkpt>
      <trkpt lat="45.62066" lon="5.56465">
        <ele>209</ele>
        <time>2023-02-14T08:55:20.797Z</time>
      </trkpt>
      <trkpt lat="45.62068" lon="5.56459">
        <ele>209</ele>
        <time>2023-02-14T08:55:21.797Z</time>
      </trkpt>
      <trkpt lat="45.62071" lon="5.56453">
        <ele>209</ele>
        <time>2023-02-14T08:55:22.797Z</time>
      </trkpt>
      <trkpt lat="45.62073" lon="5.56447">
        <ele>209</ele>
        <time>2023-02-14T08:55:23.797Z</time>
      </trkpt>
      <trkpt lat="45.62076" lon="5.56441">
        <ele>209</ele>
        <time>2023-02-14T08:55:24.797Z</time>
      </trkpt>
      <trkpt lat="45.62078" lon="5.56435">
        <ele>209</ele>
        <time>2023-02-14T08:55:25.797Z</time>
      </trkpt>
      <trkpt lat="45.62081" lon="5.56429">
        <ele>209</ele>
        <time>2023-02-14T08:55:26.797Z</time>
      </trkpt>
      <trkpt lat="45.62083" lon="5.56424">
        <ele>209</ele>
        <time>2023-02-14T08:55:27.797Z</time>
      </trkpt>
      <trkpt lat="45.62085" lon="5.56418">
        <ele>208</ele>
        <time>2023-02-14T08:55:28.797Z</time>
      </trkpt>
      <trkpt lat="45.62088" lon="5.56412">
        <ele>208</ele>
        <time>2023-02-14T08:55:29.797Z</time>
      </trkpt>
      <trkpt lat="45.6209" lon="5.56406">
        <ele>208</ele>
        <time>2023-02-14T08:55:30.797Z</time>
      </trkpt>
      <trkpt lat="45.62092" lon="5.56401">
        <ele>207</ele>
        <time>2023-02-14T08:55:31.797Z</time>
      </trkpt>
      <trkpt lat="45.62094" lon="5.56395">
        <ele>207</ele>
        <time>2023-02-14T08:55:32.797Z</time>
      </trkpt>
      <trkpt lat="45.62097" lon="5.56389">
        <ele>207</ele>
        <time>2023-02-14T08:55:33.797Z</time>
      </trkpt>
      <trkpt lat="45.62099" lon="5.56383">
        <ele>207</ele>
        <time>2023-02-14T08:55:34.797Z</time>
      </trkpt>
      <trkpt lat="45.62102" lon="5.56377">
        <ele>207</ele>
        <time>2023-02-14T08:55:35.797Z</time>
      </trkpt>
      <trkpt lat="45.62104" lon="5.56371">
        <ele>206</ele>
        <time>2023-02-14T08:55:36.797Z</time>
      </trkpt>
      <trkpt lat="45.62107" lon="5.56364">
        <ele>207</ele>
        <time>2023-02-14T08:55:37.797Z</time>
      </trkpt>
      <trkpt lat="45.62109" lon="5.56358">
        <ele>207</ele>
        <time>2023-02-14T08:55:38.797Z</time>
      </trkpt>
      <trkpt lat="45.62112" lon="5.56352">
        <ele>207</ele>
        <time>2023-02-14T08:55:39.797Z</time>
      </trkpt>
      <trkpt lat="45.62114" lon="5.56346">
        <ele>207</ele>
        <time>2023-02-14T08:55:40.797Z</time>
      </trkpt>
      <trkpt lat="45.62117" lon="5.56341">
        <ele>208</ele>
        <time>2023-02-14T08:55:41.797Z</time>
      </trkpt>
      <trkpt lat="45.62119" lon="5.56335">
        <ele>208</ele>
        <time>2023-02-14T08:55:42.797Z</time>
      </trkpt>
      <trkpt lat="45.62122" lon="5.5633">
        <ele>208</ele>
        <time>2023-02-14T08:55:43.797Z</time>
      </trkpt>
      <trkpt lat="45.62125" lon="5.56324">
        <ele>208</ele>
        <time>2023-02-14T08:55:44.797Z</time>
      </trkpt>
      <trkpt lat="45.62127" lon="5.56319">
        <ele>208</ele>
        <time>2023-02-14T08:55:45.797Z</time>
      </trkpt>
      <trkpt lat="45.62129" lon="5.56314">
        <ele>208</ele>
        <time>2023-02-14T08:55:46.797Z</time>
      </trkpt>
      <trkpt lat="45.62132" lon="5.56309">
        <ele>208</ele>
        <time>2023-02-14T08:55:47.797Z</time>
      </trkpt>
      <trkpt lat="45.62134" lon="5.56303">
        <ele>208</ele>
        <time>2023-02-14T08:55:48.797Z</time>
      </trkpt>
      <trkpt lat="45.62136" lon="5.56298">
        <ele>208</ele>
        <time>2023-02-14T08:55:49.797Z</time>
      </trkpt>
      <trkpt lat="45.62139" lon="5.56293">
        <ele>207</ele>
        <time>2023-02-14T08:55:50.797Z</time>
      </trkpt>
      <trkpt lat="45.62141" lon="5.56288">
        <ele>208</ele>
        <time>2023-02-14T08:55:51.797Z</time>
      </trkpt>
      <trkpt lat="45.62144" lon="5.56283">
        <ele>208</ele>
        <time>2023-02-14T08:55:52.797Z</time>
      </trkpt>
      <trkpt lat="45.62146" lon="5.56278">
        <ele>209</ele>
        <time>2023-02-14T08:55:53.797Z</time>
      </trkpt>
      <trkpt lat="45.62148" lon="5.56273">
        <ele>209</ele>
        <time>2023-02-14T08:55:54.797Z</time>
      </trkpt>
      <trkpt lat="45.6215" lon="5.56268">
        <ele>209</ele>
        <time>2023-02-14T08:55:55.797Z</time>
      </trkpt>
      <trkpt lat="45.62152" lon="5.56264">
        <ele>209</ele>
        <time>2023-02-14T08:55:56.797Z</time>
      </trkpt>
      <trkpt lat="45.62154" lon="5.56259">
        <ele>210</ele>
        <time>2023-02-14T08:55:57.797Z</time>
      </trkpt>
      <trkpt lat="45.62156" lon="5.56254">
        <ele>210</ele>
        <time>2023-02-14T08:55:58.797Z</time>
      </trkpt>
      <trkpt lat="45.62158" lon="5.56249">
        <ele>210</ele>
        <time>2023-02-14T08:55:59.797Z</time>
      </trkpt>
      <trkpt lat="45.6216" lon="5.56244">
        <ele>210</ele>
        <time>2023-02-14T08:56:00.797Z</time>
      </trkpt>
      <trkpt lat="45.62162" lon="5.56239">
        <ele>209</ele>
        <time>2023-02-14T08:56:01.797Z</time>
      </trkpt>
      <trkpt lat="45.62164" lon="5.56234">
        <ele>210</ele>
        <time>2023-02-14T08:56:02.797Z</time>
      </trkpt>
      <trkpt lat="45.62166" lon="5.56229">
        <ele>210</ele>
        <time>2023-02-14T08:56:03.797Z</time>
      </trkpt>
      <trkpt lat="45.62169" lon="5.56224">
        <ele>210</ele>
        <time>2023-02-14T08:56:04.797Z</time>
      </trkpt>
      <trkpt lat="45.62171" lon="5.56219">
        <ele>210</ele>
        <time>2023-02-14T08:56:05.797Z</time>
      </trkpt>
      <trkpt lat="45.62173" lon="5.56214">
        <ele>209</ele>
        <time>2023-02-14T08:56:06.797Z</time>
      </trkpt>
      <trkpt lat="45.62175" lon="5.56209">
        <ele>209</ele>
        <time>2023-02-14T08:56:07.797Z</time>
      </trkpt>
      <trkpt lat="45.62177" lon="5.56204">
        <ele>209</ele>
        <time>2023-02-14T08:56:08.797Z</time>
      </trkpt>
      <trkpt lat="45.6218" lon="5.56199">
        <ele>209</ele>
        <time>2023-02-14T08:56:09.797Z</time>
      </trkpt>
      <trkpt lat="45.62182" lon="5.56194">
        <ele>209</ele>
        <time>2023-02-14T08:56:10.797Z</time>
      </trkpt>
      <trkpt lat="45.62184" lon="5.56189">
        <ele>209</ele>
        <time>2023-02-14T08:56:11.797Z</time>
      </trkpt>
      <trkpt lat="45.62187" lon="5.56183">
        <ele>209</ele>
        <time>2023-02-14T08:56:12.797Z</time>
      </trkpt>
      <trkpt lat="45.62189" lon="5.56178">
        <ele>209</ele>
        <time>2023-02-14T08:56:13.797Z</time>
      </trkpt>
      <trkpt lat="45.62192" lon="5.56173">
        <ele>209</ele>
        <time>2023-02-14T08:56:14.797Z</time>
      </trkpt>
      <trkpt lat="45.62194" lon="5.56167">
        <ele>209</ele>
        <time>2023-02-14T08:56:15.797Z</time>
      </trkpt>
      <trkpt lat="45.62196" lon="5.56162">
        <ele>208</ele>
        <time>2023-02-14T08:56:16.797Z</time>
      </trkpt>
      <trkpt lat="45.62198" lon="5.56156">
        <ele>208</ele>
        <time>2023-02-14T08:56:17.797Z</time>
      </trkpt>
      <trkpt lat="45.62201" lon="5.56151">
        <ele>208</ele>
        <time>2023-02-14T08:56:18.797Z</time>
      </trkpt>
      <trkpt lat="45.62203" lon="5.56145">
        <ele>208</ele>
        <time>2023-02-14T08:56:19.797Z</time>
      </trkpt>
      <trkpt lat="45.62206" lon="5.56139">
        <ele>208</ele>
        <time>2023-02-14T08:56:20.797Z</time>
      </trkpt>
      <trkpt lat="45.62208" lon="5.56134">
        <ele>208</ele>
        <time>2023-02-14T08:56:21.797Z</time>
      </trkpt>
      <trkpt lat="45.62211" lon="5.56128">
        <ele>209</ele>
        <time>2023-02-14T08:56:22.797Z</time>
      </trkpt>
      <trkpt lat="45.62213" lon="5.56123">
        <ele>209</ele>
        <time>2023-02-14T08:56:23.797Z</time>
      </trkpt>
      <trkpt lat="45.62216" lon="5.56117">
        <ele>209</ele>
        <time>2023-02-14T08:56:24.797Z</time>
      </trkpt>
      <trkpt lat="45.62218" lon="5.56112">
        <ele>209</ele>
        <time>2023-02-14T08:56:25.797Z</time>
      </trkpt>
      <trkpt lat="45.62221" lon="5.56107">
        <ele>209</ele>
        <time>2023-02-14T08:56:26.797Z</time>
      </trkpt>
      <trkpt lat="45.62224" lon="5.56101">
        <ele>209</ele>
        <time>2023-02-14T08:56:27.797Z</time>
      </trkpt>
      <trkpt lat="45.62226" lon="5.56096">
        <ele>209</ele>
        <time>2023-02-14T08:56:28.797Z</time>
      </trkpt>
      <trkpt lat="45.62229" lon="5.5609">
        <ele>209</ele>
        <time>2023-02-14T08:56:29.797Z</time>
      </trkpt>
      <trkpt lat="45.62231" lon="5.56085">
        <ele>209</ele>
        <time>2023-02-14T08:56:30.797Z</time>
      </trkpt>
      <trkpt lat="45.62234" lon="5.5608">
        <ele>209</ele>
        <time>2023-02-14T08:56:31.797Z</time>
      </trkpt>
      <trkpt lat="45.62236" lon="5.56074">
        <ele>209</ele>
        <time>2023-02-14T08:56:32.797Z</time>
      </trkpt>
      <trkpt lat="45.62238" lon="5.56069">
        <ele>209</ele>
        <time>2023-02-14T08:56:33.797Z</time>
      </trkpt>
      <trkpt lat="45.62241" lon="5.56063">
        <ele>209</ele>
        <time>2023-02-14T08:56:34.797Z</time>
      </trkpt>
      <trkpt lat="45.62243" lon="5.56057">
        <ele>209</ele>
        <time>2023-02-14T08:56:35.797Z</time>
      </trkpt>
      <trkpt lat="45.62246" lon="5.56052">
        <ele>209</ele>
        <time>2023-02-14T08:56:36.797Z</time>
      </trkpt>
      <trkpt lat="45.62248" lon="5.56046">
        <ele>209</ele>
        <time>2023-02-14T08:56:37.797Z</time>
      </trkpt>
      <trkpt lat="45.62251" lon="5.5604">
        <ele>208</ele>
        <time>2023-02-14T08:56:38.797Z</time>
      </trkpt>
      <trkpt lat="45.62253" lon="5.56035">
        <ele>208</ele>
        <time>2023-02-14T08:56:39.797Z</time>
      </trkpt>
      <trkpt lat="45.62256" lon="5.56029">
        <ele>208</ele>
        <time>2023-02-14T08:56:40.797Z</time>
      </trkpt>
      <trkpt lat="45.62259" lon="5.56023">
        <ele>209</ele>
        <time>2023-02-14T08:56:41.797Z</time>
      </trkpt>
      <trkpt lat="45.62261" lon="5.56017">
        <ele>209</ele>
        <time>2023-02-14T08:56:42.797Z</time>
      </trkpt>
      <trkpt lat="45.62264" lon="5.56012">
        <ele>209</ele>
        <time>2023-02-14T08:56:43.797Z</time>
      </trkpt>
      <trkpt lat="45.62267" lon="5.56006">
        <ele>209</ele>
        <time>2023-02-14T08:56:44.797Z</time>
      </trkpt>
      <trkpt lat="45.6227" lon="5.56">
        <ele>209</ele>
        <time>2023-02-14T08:56:45.797Z</time>
      </trkpt>
      <trkpt lat="45.62272" lon="5.55995">
        <ele>209</ele>
        <time>2023-02-14T08:56:46.797Z</time>
      </trkpt>
      <trkpt lat="45.62274" lon="5.55989">
        <ele>209</ele>
        <time>2023-02-14T08:56:47.797Z</time>
      </trkpt>
      <trkpt lat="45.62277" lon="5.55983">
        <ele>209</ele>
        <time>2023-02-14T08:56:48.797Z</time>
      </trkpt>
      <trkpt lat="45.62279" lon="5.55977">
        <ele>209</ele>
        <time>2023-02-14T08:56:49.797Z</time>
      </trkpt>
      <trkpt lat="45.62282" lon="5.55972">
        <ele>209</ele>
        <time>2023-02-14T08:56:50.797Z</time>
      </trkpt>
      <trkpt lat="45.62284" lon="5.55966">
        <ele>209</ele>
        <time>2023-02-14T08:56:51.797Z</time>
      </trkpt>
      <trkpt lat="45.62286" lon="5.5596">
        <ele>210</ele>
        <time>2023-02-14T08:56:52.797Z</time>
      </trkpt>
      <trkpt lat="45.62289" lon="5.55954">
        <ele>210</ele>
        <time>2023-02-14T08:56:53.797Z</time>
      </trkpt>
      <trkpt lat="45.62292" lon="5.55949">
        <ele>210</ele>
        <time>2023-02-14T08:56:54.797Z</time>
      </trkpt>
      <trkpt lat="45.62294" lon="5.55943">
        <ele>210</ele>
        <time>2023-02-14T08:56:55.797Z</time>
      </trkpt>
      <trkpt lat="45.62297" lon="5.55937">
        <ele>210</ele>
        <time>2023-02-14T08:56:56.797Z</time>
      </trkpt>
      <trkpt lat="45.62299" lon="5.55931">
        <ele>210</ele>
        <time>2023-02-14T08:56:57.797Z</time>
      </trkpt>
      <trkpt lat="45.62302" lon="5.55926">
        <ele>210</ele>
        <time>2023-02-14T08:56:58.797Z</time>
      </trkpt>
      <trkpt lat="45.62304" lon="5.5592">
        <ele>210</ele>
        <time>2023-02-14T08:56:59.797Z</time>
      </trkpt>
      <trkpt lat="45.62307" lon="5.55915">
        <ele>209</ele>
        <time>2023-02-14T08:57:00.797Z</time>
      </trkpt>
      <trkpt lat="45.62309" lon="5.55909">
        <ele>209</ele>
        <time>2023-02-14T08:57:01.797Z</time>
      </trkpt>
      <trkpt lat="45.62312" lon="5.55903">
        <ele>208</ele>
        <time>2023-02-14T08:57:02.797Z</time>
      </trkpt>
      <trkpt lat="45.62314" lon="5.55897">
        <ele>208</ele>
        <time>2023-02-14T08:57:03.797Z</time>
      </trkpt>
      <trkpt lat="45.62317" lon="5.55891">
        <ele>208</ele>
        <time>2023-02-14T08:57:04.797Z</time>
      </trkpt>
      <trkpt lat="45.62319" lon="5.55885">
        <ele>208</ele>
        <time>2023-02-14T08:57:05.797Z</time>
      </trkpt>
      <trkpt lat="45.62322" lon="5.55879">
        <ele>207</ele>
        <time>2023-02-14T08:57:06.797Z</time>
      </trkpt>
      <trkpt lat="45.62324" lon="5.55872">
        <ele>207</ele>
        <time>2023-02-14T08:57:07.797Z</time>
      </trkpt>
      <trkpt lat="45.62327" lon="5.55866">
        <ele>207</ele>
        <time>2023-02-14T08:57:08.797Z</time>
      </trkpt>
      <trkpt lat="45.6233" lon="5.5586">
        <ele>207</ele>
        <time>2023-02-14T08:57:09.797Z</time>
      </trkpt>
      <trkpt lat="45.62333" lon="5.55854">
        <ele>207</ele>
        <time>2023-02-14T08:57:10.797Z</time>
      </trkpt>
      <trkpt lat="45.62336" lon="5.55847">
        <ele>207</ele>
        <time>2023-02-14T08:57:11.797Z</time>
      </trkpt>
      <trkpt lat="45.62338" lon="5.55841">
        <ele>207</ele>
        <time>2023-02-14T08:57:12.797Z</time>
      </trkpt>
      <trkpt lat="45.62341" lon="5.55836">
        <ele>208</ele>
        <time>2023-02-14T08:57:13.797Z</time>
      </trkpt>
      <trkpt lat="45.62345" lon="5.55831">
        <ele>208</ele>
        <time>2023-02-14T08:57:14.797Z</time>
      </trkpt>
      <trkpt lat="45.62349" lon="5.55826">
        <ele>208</ele>
        <time>2023-02-14T08:57:15.797Z</time>
      </trkpt>
      <trkpt lat="45.62353" lon="5.55822">
        <ele>209</ele>
        <time>2023-02-14T08:57:16.797Z</time>
      </trkpt>
      <trkpt lat="45.62357" lon="5.55819">
        <ele>209</ele>
        <time>2023-02-14T08:57:17.797Z</time>
      </trkpt>
      <trkpt lat="45.62361" lon="5.55816">
        <ele>208</ele>
        <time>2023-02-14T08:57:18.797Z</time>
      </trkpt>
      <trkpt lat="45.62366" lon="5.55813">
        <ele>208</ele>
        <time>2023-02-14T08:57:19.797Z</time>
      </trkpt>
      <trkpt lat="45.6237" lon="5.55811">
        <ele>208</ele>
        <time>2023-02-14T08:57:20.797Z</time>
      </trkpt>
      <trkpt lat="45.62374" lon="5.55808">
        <ele>209</ele>
        <time>2023-02-14T08:57:21.797Z</time>
      </trkpt>
      <trkpt lat="45.62379" lon="5.55806">
        <ele>208</ele>
        <time>2023-02-14T08:57:22.797Z</time>
      </trkpt>
      <trkpt lat="45.62384" lon="5.55803">
        <ele>208</ele>
        <time>2023-02-14T08:57:23.797Z</time>
      </trkpt>
      <trkpt lat="45.62388" lon="5.55801">
        <ele>208</ele>
        <time>2023-02-14T08:57:24.797Z</time>
      </trkpt>
      <trkpt lat="45.62393" lon="5.55799">
        <ele>208</ele>
        <time>2023-02-14T08:57:25.797Z</time>
      </trkpt>
      <trkpt lat="45.62398" lon="5.55796">
        <ele>208</ele>
        <time>2023-02-14T08:57:26.797Z</time>
      </trkpt>
      <trkpt lat="45.62402" lon="5.55793">
        <ele>208</ele>
        <time>2023-02-14T08:57:27.797Z</time>
      </trkpt>
      <trkpt lat="45.62407" lon="5.55791">
        <ele>208</ele>
        <time>2023-02-14T08:57:28.797Z</time>
      </trkpt>
      <trkpt lat="45.62411" lon="5.55788">
        <ele>208</ele>
        <time>2023-02-14T08:57:29.797Z</time>
      </trkpt>
      <trkpt lat="45.62416" lon="5.55786">
        <ele>208</ele>
        <time>2023-02-14T08:57:30.797Z</time>
      </trkpt>
      <trkpt lat="45.62421" lon="5.55783">
        <ele>208</ele>
        <time>2023-02-14T08:57:31.797Z</time>
      </trkpt>
      <trkpt lat="45.62425" lon="5.5578">
        <ele>208</ele>
        <time>2023-02-14T08:57:32.797Z</time>
      </trkpt>
      <trkpt lat="45.6243" lon="5.55777">
        <ele>208</ele>
        <time>2023-02-14T08:57:33.797Z</time>
      </trkpt>
      <trkpt lat="45.62435" lon="5.55775">
        <ele>208</ele>
        <time>2023-02-14T08:57:34.797Z</time>
      </trkpt>
      <trkpt lat="45.62439" lon="5.55772">
        <ele>208</ele>
        <time>2023-02-14T08:57:35.797Z</time>
      </trkpt>
      <trkpt lat="45.62444" lon="5.55769">
        <ele>207</ele>
        <time>2023-02-14T08:57:36.797Z</time>
      </trkpt>
      <trkpt lat="45.62449" lon="5.55767">
        <ele>207</ele>
        <time>2023-02-14T08:57:37.797Z</time>
      </trkpt>
      <trkpt lat="45.62454" lon="5.55764">
        <ele>207</ele>
        <time>2023-02-14T08:57:38.797Z</time>
      </trkpt>
      <trkpt lat="45.62458" lon="5.55762">
        <ele>206</ele>
        <time>2023-02-14T08:57:39.797Z</time>
      </trkpt>
      <trkpt lat="45.62463" lon="5.55759">
        <ele>207</ele>
        <time>2023-02-14T08:57:40.797Z</time>
      </trkpt>
      <trkpt lat="45.62468" lon="5.55757">
        <ele>207</ele>
        <time>2023-02-14T08:57:41.797Z</time>
      </trkpt>
      <trkpt lat="45.62472" lon="5.55755">
        <ele>207</ele>
        <time>2023-02-14T08:57:42.797Z</time>
      </trkpt>
      <trkpt lat="45.62477" lon="5.55752">
        <ele>207</ele>
        <time>2023-02-14T08:57:43.797Z</time>
      </trkpt>
      <trkpt lat="45.62481" lon="5.5575">
        <ele>207</ele>
        <time>2023-02-14T08:57:44.797Z</time>
      </trkpt>
      <trkpt lat="45.62485" lon="5.55748">
        <ele>207</ele>
        <time>2023-02-14T08:57:45.797Z</time>
      </trkpt>
      <trkpt lat="45.62489" lon="5.55745">
        <ele>206</ele>
        <time>2023-02-14T08:57:46.797Z</time>
      </trkpt>
      <trkpt lat="45.62494" lon="5.55743">
        <ele>206</ele>
        <time>2023-02-14T08:57:47.797Z</time>
      </trkpt>
      <trkpt lat="45.62499" lon="5.5574">
        <ele>206</ele>
        <time>2023-02-14T08:57:48.797Z</time>
      </trkpt>
      <trkpt lat="45.62503" lon="5.55738">
        <ele>205</ele>
        <time>2023-02-14T08:57:49.797Z</time>
      </trkpt>
      <trkpt lat="45.62508" lon="5.55734">
        <ele>205</ele>
        <time>2023-02-14T08:57:50.797Z</time>
      </trkpt>
      <trkpt lat="45.62513" lon="5.55731">
        <ele>204</ele>
        <time>2023-02-14T08:57:51.797Z</time>
      </trkpt>
      <trkpt lat="45.62518" lon="5.55728">
        <ele>204</ele>
        <time>2023-02-14T08:57:52.797Z</time>
      </trkpt>
      <trkpt lat="45.62523" lon="5.55725">
        <ele>204</ele>
        <time>2023-02-14T08:57:53.797Z</time>
      </trkpt>
      <trkpt lat="45.62528" lon="5.55722">
        <ele>203</ele>
        <time>2023-02-14T08:57:54.797Z</time>
      </trkpt>
      <trkpt lat="45.62533" lon="5.55719">
        <ele>203</ele>
        <time>2023-02-14T08:57:55.797Z</time>
      </trkpt>
      <trkpt lat="45.62537" lon="5.55716">
        <ele>204</ele>
        <time>2023-02-14T08:57:56.797Z</time>
      </trkpt>
      <trkpt lat="45.62542" lon="5.55713">
        <ele>204</ele>
        <time>2023-02-14T08:57:57.797Z</time>
      </trkpt>
      <trkpt lat="45.62547" lon="5.5571">
        <ele>204</ele>
        <time>2023-02-14T08:57:58.797Z</time>
      </trkpt>
      <trkpt lat="45.62552" lon="5.55707">
        <ele>203</ele>
        <time>2023-02-14T08:57:59.797Z</time>
      </trkpt>
      <trkpt lat="45.62557" lon="5.55705">
        <ele>204</ele>
        <time>2023-02-14T08:58:00.797Z</time>
      </trkpt>
      <trkpt lat="45.62562" lon="5.55702">
        <ele>204</ele>
        <time>2023-02-14T08:58:01.797Z</time>
      </trkpt>
      <trkpt lat="45.62568" lon="5.55699">
        <ele>204</ele>
        <time>2023-02-14T08:58:02.797Z</time>
      </trkpt>
      <trkpt lat="45.62573" lon="5.55696">
        <ele>205</ele>
        <time>2023-02-14T08:58:03.797Z</time>
      </trkpt>
      <trkpt lat="45.62578" lon="5.55693">
        <ele>205</ele>
        <time>2023-02-14T08:58:04.797Z</time>
      </trkpt>
      <trkpt lat="45.62583" lon="5.55691">
        <ele>205</ele>
        <time>2023-02-14T08:58:05.797Z</time>
      </trkpt>
      <trkpt lat="45.62588" lon="5.55689">
        <ele>205</ele>
        <time>2023-02-14T08:58:06.797Z</time>
      </trkpt>
      <trkpt lat="45.62593" lon="5.55686">
        <ele>206</ele>
        <time>2023-02-14T08:58:07.797Z</time>
      </trkpt>
      <trkpt lat="45.62598" lon="5.55683">
        <ele>206</ele>
        <time>2023-02-14T08:58:08.797Z</time>
      </trkpt>
      <trkpt lat="45.62603" lon="5.55681">
        <ele>206</ele>
        <time>2023-02-14T08:58:09.797Z</time>
      </trkpt>
      <trkpt lat="45.62607" lon="5.55678">
        <ele>206</ele>
        <time>2023-02-14T08:58:10.797Z</time>
      </trkpt>
      <trkpt lat="45.62611" lon="5.55676">
        <ele>206</ele>
        <time>2023-02-14T08:58:11.797Z</time>
      </trkpt>
      <trkpt lat="45.62615" lon="5.55674">
        <ele>206</ele>
        <time>2023-02-14T08:58:12.797Z</time>
      </trkpt>
      <trkpt lat="45.62619" lon="5.55671">
        <ele>206</ele>
        <time>2023-02-14T08:58:13.797Z</time>
      </trkpt>
      <trkpt lat="45.62623" lon="5.55669">
        <ele>206</ele>
        <time>2023-02-14T08:58:14.797Z</time>
      </trkpt>
      <trkpt lat="45.62627" lon="5.55667">
        <ele>206</ele>
        <time>2023-02-14T08:58:15.797Z</time>
      </trkpt>
      <trkpt lat="45.62631" lon="5.55664">
        <ele>206</ele>
        <time>2023-02-14T08:58:16.797Z</time>
      </trkpt>
      <trkpt lat="45.62635" lon="5.55662">
        <ele>206</ele>
        <time>2023-02-14T08:58:17.797Z</time>
      </trkpt>
      <trkpt lat="45.62639" lon="5.5566">
        <ele>206</ele>
        <time>2023-02-14T08:58:18.797Z</time>
      </trkpt>
      <trkpt lat="45.62643" lon="5.55658">
        <ele>207</ele>
        <time>2023-02-14T08:58:19.797Z</time>
      </trkpt>
      <trkpt lat="45.62646" lon="5.55656">
        <ele>207</ele>
        <time>2023-02-14T08:58:20.797Z</time>
      </trkpt>
      <trkpt lat="45.6265" lon="5.55653">
        <ele>206</ele>
        <time>2023-02-14T08:58:21.797Z</time>
      </trkpt>
      <trkpt lat="45.62653" lon="5.55651">
        <ele>206</ele>
        <time>2023-02-14T08:58:22.797Z</time>
      </trkpt>
      <trkpt lat="45.62656" lon="5.55648">
        <ele>206</ele>
        <time>2023-02-14T08:58:23.797Z</time>
      </trkpt>
      <trkpt lat="45.62657" lon="5.55645">
        <ele>204</ele>
        <time>2023-02-14T08:58:24.797Z</time>
      </trkpt>
      <trkpt lat="45.62658" lon="5.55641">
        <ele>203</ele>
        <time>2023-02-14T08:58:25.797Z</time>
      </trkpt>
      <trkpt lat="45.62658" lon="5.55638">
        <ele>203</ele>
        <time>2023-02-14T08:58:26.797Z</time>
      </trkpt>
      <trkpt lat="45.62656" lon="5.55635">
        <ele>203</ele>
        <time>2023-02-14T08:58:27.797Z</time>
      </trkpt>
      <trkpt lat="45.62653" lon="5.55632">
        <ele>203</ele>
        <time>2023-02-14T08:58:28.797Z</time>
      </trkpt>
      <trkpt lat="45.6265" lon="5.55631">
        <ele>203</ele>
        <time>2023-02-14T08:58:29.797Z</time>
      </trkpt>
      <trkpt lat="45.62647" lon="5.55629">
        <ele>203</ele>
        <time>2023-02-14T08:58:30.797Z</time>
      </trkpt>
      <trkpt lat="45.62644" lon="5.55629">
        <ele>204</ele>
        <time>2023-02-14T08:58:31.797Z</time>
      </trkpt>
      <trkpt lat="45.6264" lon="5.5563">
        <ele>205</ele>
        <time>2023-02-14T08:58:32.797Z</time>
      </trkpt>
      <trkpt lat="45.62637" lon="5.55632">
        <ele>205</ele>
        <time>2023-02-14T08:58:33.797Z</time>
      </trkpt>
      <trkpt lat="45.62633" lon="5.55634">
        <ele>205</ele>
        <time>2023-02-14T08:58:34.797Z</time>
      </trkpt>
      <trkpt lat="45.6263" lon="5.55637">
        <ele>205</ele>
        <time>2023-02-14T08:58:35.797Z</time>
      </trkpt>
      <trkpt lat="45.62626" lon="5.55639">
        <ele>206</ele>
        <time>2023-02-14T08:58:36.797Z</time>
      </trkpt>
      <trkpt lat="45.62623" lon="5.55641">
        <ele>206</ele>
        <time>2023-02-14T08:58:37.797Z</time>
      </trkpt>
      <trkpt lat="45.62619" lon="5.55644">
        <ele>206</ele>
        <time>2023-02-14T08:58:38.797Z</time>
      </trkpt>
      <trkpt lat="45.62616" lon="5.55646">
        <ele>206</ele>
        <time>2023-02-14T08:58:39.797Z</time>
      </trkpt>
      <trkpt lat="45.62612" lon="5.55649">
        <ele>206</ele>
        <time>2023-02-14T08:58:40.797Z</time>
      </trkpt>
      <trkpt lat="45.62608" lon="5.55651">
        <ele>206</ele>
        <time>2023-02-14T08:58:41.797Z</time>
      </trkpt>
      <trkpt lat="45.62604" lon="5.55654">
        <ele>206</ele>
        <time>2023-02-14T08:58:42.797Z</time>
      </trkpt>
      <trkpt lat="45.626" lon="5.55657">
        <ele>206</ele>
        <time>2023-02-14T08:58:43.797Z</time>
      </trkpt>
      <trkpt lat="45.62596" lon="5.55659">
        <ele>206</ele>
        <time>2023-02-14T08:58:44.797Z</time>
      </trkpt>
      <trkpt lat="45.62592" lon="5.55662">
        <ele>206</ele>
        <time>2023-02-14T08:58:45.797Z</time>
      </trkpt>
      <trkpt lat="45.62588" lon="5.55665">
        <ele>206</ele>
        <time>2023-02-14T08:58:46.797Z</time>
      </trkpt>
      <trkpt lat="45.62584" lon="5.55667">
        <ele>206</ele>
        <time>2023-02-14T08:58:47.797Z</time>
      </trkpt>
      <trkpt lat="45.6258" lon="5.5567">
        <ele>206</ele>
        <time>2023-02-14T08:58:48.797Z</time>
      </trkpt>
      <trkpt lat="45.62576" lon="5.55672">
        <ele>206</ele>
        <time>2023-02-14T08:58:49.797Z</time>
      </trkpt>
      <trkpt lat="45.62572" lon="5.55675">
        <ele>206</ele>
        <time>2023-02-14T08:58:50.797Z</time>
      </trkpt>
      <trkpt lat="45.62569" lon="5.55677">
        <ele>206</ele>
        <time>2023-02-14T08:58:51.797Z</time>
      </trkpt>
      <trkpt lat="45.62565" lon="5.55678">
        <ele>207</ele>
        <time>2023-02-14T08:58:52.797Z</time>
      </trkpt>
      <trkpt lat="45.62561" lon="5.5568">
        <ele>207</ele>
        <time>2023-02-14T08:58:53.797Z</time>
      </trkpt>
      <trkpt lat="45.62558" lon="5.55682">
        <ele>207</ele>
        <time>2023-02-14T08:58:54.797Z</time>
      </trkpt>
      <trkpt lat="45.62554" lon="5.55684">
        <ele>207</ele>
        <time>2023-02-14T08:58:55.797Z</time>
      </trkpt>
      <trkpt lat="45.62551" lon="5.55685">
        <ele>207</ele>
        <time>2023-02-14T08:58:56.797Z</time>
      </trkpt>
      <trkpt lat="45.62547" lon="5.55687">
        <ele>207</ele>
        <time>2023-02-14T08:58:57.797Z</time>
      </trkpt>
      <trkpt lat="45.62544" lon="5.55689">
        <ele>207</ele>
        <time>2023-02-14T08:58:58.797Z</time>
      </trkpt>
      <trkpt lat="45.6254" lon="5.55691">
        <ele>208</ele>
        <time>2023-02-14T08:58:59.797Z</time>
      </trkpt>
      <trkpt lat="45.62537" lon="5.55694">
        <ele>208</ele>
        <time>2023-02-14T08:59:00.797Z</time>
      </trkpt>
      <trkpt lat="45.62534" lon="5.55696">
        <ele>208</ele>
        <time>2023-02-14T08:59:01.797Z</time>
      </trkpt>
      <trkpt lat="45.6253" lon="5.55698">
        <ele>208</ele>
        <time>2023-02-14T08:59:02.797Z</time>
      </trkpt>
      <trkpt lat="45.62527" lon="5.557">
        <ele>208</ele>
        <time>2023-02-14T08:59:03.797Z</time>
      </trkpt>
      <trkpt lat="45.62523" lon="5.55701">
        <ele>208</ele>
        <time>2023-02-14T08:59:04.797Z</time>
      </trkpt>
      <trkpt lat="45.62519" lon="5.55702">
        <ele>208</ele>
        <time>2023-02-14T08:59:05.797Z</time>
      </trkpt>
      <trkpt lat="45.62515" lon="5.55702">
        <ele>208</ele>
        <time>2023-02-14T08:59:06.797Z</time>
      </trkpt>
      <trkpt lat="45.62512" lon="5.55702">
        <ele>208</ele>
        <time>2023-02-14T08:59:07.797Z</time>
      </trkpt>
      <trkpt lat="45.62508" lon="5.557">
        <ele>208</ele>
        <time>2023-02-14T08:59:08.797Z</time>
      </trkpt>
      <trkpt lat="45.62504" lon="5.55699">
        <ele>208</ele>
        <time>2023-02-14T08:59:09.797Z</time>
      </trkpt>
      <trkpt lat="45.62501" lon="5.55697">
        <ele>208</ele>
        <time>2023-02-14T08:59:10.797Z</time>
      </trkpt>
      <trkpt lat="45.62498" lon="5.55694">
        <ele>209</ele>
        <time>2023-02-14T08:59:11.797Z</time>
      </trkpt>
      <trkpt lat="45.62494" lon="5.55692">
        <ele>209</ele>
        <time>2023-02-14T08:59:12.797Z</time>
      </trkpt>
      <trkpt lat="45.62491" lon="5.55689">
        <ele>209</ele>
        <time>2023-02-14T08:59:13.797Z</time>
      </trkpt>
      <trkpt lat="45.62488" lon="5.55687">
        <ele>209</ele>
        <time>2023-02-14T08:59:14.797Z</time>
      </trkpt>
      <trkpt lat="45.62485" lon="5.55684">
        <ele>209</ele>
        <time>2023-02-14T08:59:15.797Z</time>
      </trkpt>
      <trkpt lat="45.62482" lon="5.55682">
        <ele>209</ele>
        <time>2023-02-14T08:59:16.797Z</time>
      </trkpt>
      <trkpt lat="45.62479" lon="5.55679">
        <ele>209</ele>
        <time>2023-02-14T08:59:17.797Z</time>
      </trkpt>
      <trkpt lat="45.62476" lon="5.55676">
        <ele>209</ele>
        <time>2023-02-14T08:59:18.797Z</time>
      </trkpt>
      <trkpt lat="45.62472" lon="5.55673">
        <ele>209</ele>
        <time>2023-02-14T08:59:19.797Z</time>
      </trkpt>
      <trkpt lat="45.62469" lon="5.5567">
        <ele>209</ele>
        <time>2023-02-14T08:59:20.797Z</time>
      </trkpt>
      <trkpt lat="45.62465" lon="5.55667">
        <ele>209</ele>
        <time>2023-02-14T08:59:21.797Z</time>
      </trkpt>
      <trkpt lat="45.62462" lon="5.55664">
        <ele>209</ele>
        <time>2023-02-14T08:59:22.797Z</time>
      </trkpt>
      <trkpt lat="45.62458" lon="5.55661">
        <ele>209</ele>
        <time>2023-02-14T08:59:23.797Z</time>
      </trkpt>
      <trkpt lat="45.62454" lon="5.55658">
        <ele>209</ele>
        <time>2023-02-14T08:59:24.797Z</time>
      </trkpt>
      <trkpt lat="45.62451" lon="5.55655">
        <ele>209</ele>
        <time>2023-02-14T08:59:25.797Z</time>
      </trkpt>
      <trkpt lat="45.62447" lon="5.55652">
        <ele>209</ele>
        <time>2023-02-14T08:59:26.797Z</time>
      </trkpt>
      <trkpt lat="45.62444" lon="5.55649">
        <ele>209</ele>
        <time>2023-02-14T08:59:27.797Z</time>
      </trkpt>
      <trkpt lat="45.6244" lon="5.55646">
        <ele>209</ele>
        <time>2023-02-14T08:59:28.797Z</time>
      </trkpt>
      <trkpt lat="45.62437" lon="5.55644">
        <ele>209</ele>
        <time>2023-02-14T08:59:29.797Z</time>
      </trkpt>
      <trkpt lat="45.62433" lon="5.55641">
        <ele>209</ele>
        <time>2023-02-14T08:59:30.797Z</time>
      </trkpt>
      <trkpt lat="45.62429" lon="5.55638">
        <ele>209</ele>
        <time>2023-02-14T08:59:31.797Z</time>
      </trkpt>
      <trkpt lat="45.62426" lon="5.55635">
        <ele>209</ele>
        <time>2023-02-14T08:59:32.797Z</time>
      </trkpt>
      <trkpt lat="45.62422" lon="5.55632">
        <ele>209</ele>
        <time>2023-02-14T08:59:33.797Z</time>
      </trkpt>
      <trkpt lat="45.62418" lon="5.55629">
        <ele>209</ele>
        <time>2023-02-14T08:59:34.797Z</time>
      </trkpt>
      <trkpt lat="45.62414" lon="5.55626">
        <ele>209</ele>
        <time>2023-02-14T08:59:35.797Z</time>
      </trkpt>
      <trkpt lat="45.62411" lon="5.55623">
        <ele>209</ele>
        <time>2023-02-14T08:59:36.797Z</time>
      </trkpt>
      <trkpt lat="45.62407" lon="5.55619">
        <ele>209</ele>
        <time>2023-02-14T08:59:37.797Z</time>
      </trkpt>
      <trkpt lat="45.62403" lon="5.55616">
        <ele>209</ele>
        <time>2023-02-14T08:59:38.797Z</time>
      </trkpt>
      <trkpt lat="45.624" lon="5.55613">
        <ele>209</ele>
        <time>2023-02-14T08:59:39.797Z</time>
      </trkpt>
      <trkpt lat="45.62396" lon="5.5561">
        <ele>209</ele>
        <time>2023-02-14T08:59:40.797Z</time>
      </trkpt>
      <trkpt lat="45.62392" lon="5.55606">
        <ele>209</ele>
        <time>2023-02-14T08:59:41.797Z</time>
      </trkpt>
      <trkpt lat="45.62388" lon="5.55603">
        <ele>209</ele>
        <time>2023-02-14T08:59:42.797Z</time>
      </trkpt>
      <trkpt lat="45.62384" lon="5.556">
        <ele>209</ele>
        <time>2023-02-14T08:59:43.797Z</time>
      </trkpt>
      <trkpt lat="45.6238" lon="5.55597">
        <ele>209</ele>
        <time>2023-02-14T08:59:44.797Z</time>
      </trkpt>
      <trkpt lat="45.62376" lon="5.55594">
        <ele>209</ele>
        <time>2023-02-14T08:59:45.797Z</time>
      </trkpt>
      <trkpt lat="45.62372" lon="5.55591">
        <ele>209</ele>
        <time>2023-02-14T08:59:46.797Z</time>
      </trkpt>
      <trkpt lat="45.62369" lon="5.55588">
        <ele>209</ele>
        <time>2023-02-14T08:59:47.797Z</time>
      </trkpt>
      <trkpt lat="45.62365" lon="5.55585">
        <ele>209</ele>
        <time>2023-02-14T08:59:48.797Z</time>
      </trkpt>
      <trkpt lat="45.62361" lon="5.55582">
        <ele>209</ele>
        <time>2023-02-14T08:59:49.797Z</time>
      </trkpt>
      <trkpt lat="45.62357" lon="5.5558">
        <ele>209</ele>
        <time>2023-02-14T08:59:50.797Z</time>
      </trkpt>
      <trkpt lat="45.62353" lon="5.55577">
        <ele>209</ele>
        <time>2023-02-14T08:59:51.797Z</time>
      </trkpt>
      <trkpt lat="45.6235" lon="5.55574">
        <ele>210</ele>
        <time>2023-02-14T08:59:52.797Z</time>
      </trkpt>
      <trkpt lat="45.62346" lon="5.55571">
        <ele>210</ele>
        <time>2023-02-14T08:59:53.797Z</time>
      </trkpt>
      <trkpt lat="45.62342" lon="5.55569">
        <ele>210</ele>
        <time>2023-02-14T08:59:54.797Z</time>
      </trkpt>
      <trkpt lat="45.62338" lon="5.55566">
        <ele>210</ele>
        <time>2023-02-14T08:59:55.797Z</time>
      </trkpt>
      <trkpt lat="45.62334" lon="5.55563">
        <ele>210</ele>
        <time>2023-02-14T08:59:56.797Z</time>
      </trkpt>
      <trkpt lat="45.6233" lon="5.55561">
        <ele>210</ele>
        <time>2023-02-14T08:59:57.797Z</time>
      </trkpt>
      <trkpt lat="45.62327" lon="5.55558">
        <ele>210</ele>
        <time>2023-02-14T08:59:58.797Z</time>
      </trkpt>
      <trkpt lat="45.62323" lon="5.55555">
        <ele>210</ele>
        <time>2023-02-14T08:59:59.797Z</time>
      </trkpt>
      <trkpt lat="45.62319" lon="5.55552">
        <ele>209</ele>
        <time>2023-02-14T09:00:00.797Z</time>
      </trkpt>
      <trkpt lat="45.62315" lon="5.55549">
        <ele>210</ele>
        <time>2023-02-14T09:00:01.797Z</time>
      </trkpt>
      <trkpt lat="45.62311" lon="5.55547">
        <ele>210</ele>
        <time>2023-02-14T09:00:02.797Z</time>
      </trkpt>
      <trkpt lat="45.62307" lon="5.55544">
        <ele>210</ele>
        <time>2023-02-14T09:00:03.797Z</time>
      </trkpt>
      <trkpt lat="45.62303" lon="5.55541">
        <ele>210</ele>
        <time>2023-02-14T09:00:04.797Z</time>
      </trkpt>
      <trkpt lat="45.62299" lon="5.55539">
        <ele>210</ele>
        <time>2023-02-14T09:00:05.797Z</time>
      </trkpt>
      <trkpt lat="45.62295" lon="5.55536">
        <ele>210</ele>
        <time>2023-02-14T09:00:06.797Z</time>
      </trkpt>
      <trkpt lat="45.62291" lon="5.55534">
        <ele>210</ele>
        <time>2023-02-14T09:00:07.797Z</time>
      </trkpt>
      <trkpt lat="45.62287" lon="5.55531">
        <ele>210</ele>
        <time>2023-02-14T09:00:08.797Z</time>
      </trkpt>
      <trkpt lat="45.62283" lon="5.55528">
        <ele>210</ele>
        <time>2023-02-14T09:00:09.797Z</time>
      </trkpt>
      <trkpt lat="45.6228" lon="5.55526">
        <ele>210</ele>
        <time>2023-02-14T09:00:10.797Z</time>
      </trkpt>
      <trkpt lat="45.62276" lon="5.55523">
        <ele>210</ele>
        <time>2023-02-14T09:00:11.797Z</time>
      </trkpt>
      <trkpt lat="45.62272" lon="5.5552">
        <ele>210</ele>
        <time>2023-02-14T09:00:12.797Z</time>
      </trkpt>
      <trkpt lat="45.62268" lon="5.55517">
        <ele>210</ele>
        <time>2023-02-14T09:00:13.797Z</time>
      </trkpt>
      <trkpt lat="45.62264" lon="5.55515">
        <ele>210</ele>
        <time>2023-02-14T09:00:14.797Z</time>
      </trkpt>
      <trkpt lat="45.6226" lon="5.55512">
        <ele>210</ele>
        <time>2023-02-14T09:00:15.797Z</time>
      </trkpt>
      <trkpt lat="45.62256" lon="5.55509">
        <ele>210</ele>
        <time>2023-02-14T09:00:16.797Z</time>
      </trkpt>
      <trkpt lat="45.62252" lon="5.55506">
        <ele>210</ele>
        <time>2023-02-14T09:00:17.797Z</time>
      </trkpt>
      <trkpt lat="45.62249" lon="5.55503">
        <ele>210</ele>
        <time>2023-02-14T09:00:18.797Z</time>
      </trkpt>
      <trkpt lat="45.62245" lon="5.555">
        <ele>210</ele>
        <time>2023-02-14T09:00:19.797Z</time>
      </trkpt>
      <trkpt lat="45.62241" lon="5.55498">
        <ele>210</ele>
        <time>2023-02-14T09:00:20.797Z</time>
      </trkpt>
      <trkpt lat="45.62237" lon="5.55495">
        <ele>210</ele>
        <time>2023-02-14T09:00:21.797Z</time>
      </trkpt>
      <trkpt lat="45.62233" lon="5.55493">
        <ele>210</ele>
        <time>2023-02-14T09:00:22.797Z</time>
      </trkpt>
      <trkpt lat="45.62229" lon="5.5549">
        <ele>210</ele>
        <time>2023-02-14T09:00:23.797Z</time>
      </trkpt>
      <trkpt lat="45.62225" lon="5.55487">
        <ele>209</ele>
        <time>2023-02-14T09:00:24.797Z</time>
      </trkpt>
      <trkpt lat="45.62222" lon="5.55485">
        <ele>209</ele>
        <time>2023-02-14T09:00:25.797Z</time>
      </trkpt>
      <trkpt lat="45.62218" lon="5.55482">
        <ele>209</ele>
        <time>2023-02-14T09:00:26.797Z</time>
      </trkpt>
      <trkpt lat="45.62214" lon="5.5548">
        <ele>209</ele>
        <time>2023-02-14T09:00:27.797Z</time>
      </trkpt>
      <trkpt lat="45.6221" lon="5.55477">
        <ele>209</ele>
        <time>2023-02-14T09:00:28.797Z</time>
      </trkpt>
      <trkpt lat="45.62206" lon="5.55474">
        <ele>209</ele>
        <time>2023-02-14T09:00:29.797Z</time>
      </trkpt>
      <trkpt lat="45.62202" lon="5.55471">
        <ele>209</ele>
        <time>2023-02-14T09:00:30.797Z</time>
      </trkpt>
      <trkpt lat="45.62198" lon="5.55469">
        <ele>209</ele>
        <time>2023-02-14T09:00:31.797Z</time>
      </trkpt>
      <trkpt lat="45.62194" lon="5.55467">
        <ele>209</ele>
        <time>2023-02-14T09:00:32.797Z</time>
      </trkpt>
      <trkpt lat="45.6219" lon="5.55464">
        <ele>209</ele>
        <time>2023-02-14T09:00:33.797Z</time>
      </trkpt>
      <trkpt lat="45.62186" lon="5.55462">
        <ele>209</ele>
        <time>2023-02-14T09:00:34.797Z</time>
      </trkpt>
      <trkpt lat="45.62182" lon="5.55459">
        <ele>209</ele>
        <time>2023-02-14T09:00:35.797Z</time>
      </trkpt>
      <trkpt lat="45.62179" lon="5.55456">
        <ele>209</ele>
        <time>2023-02-14T09:00:36.797Z</time>
      </trkpt>
      <trkpt lat="45.62175" lon="5.55453">
        <ele>209</ele>
        <time>2023-02-14T09:00:37.797Z</time>
      </trkpt>
      <trkpt lat="45.62171" lon="5.5545">
        <ele>209</ele>
        <time>2023-02-14T09:00:38.797Z</time>
      </trkpt>
      <trkpt lat="45.62168" lon="5.55447">
        <ele>209</ele>
        <time>2023-02-14T09:00:39.797Z</time>
      </trkpt>
      <trkpt lat="45.62164" lon="5.55444">
        <ele>209</ele>
        <time>2023-02-14T09:00:40.797Z</time>
      </trkpt>
      <trkpt lat="45.62161" lon="5.55441">
        <ele>210</ele>
        <time>2023-02-14T09:00:41.797Z</time>
      </trkpt>
      <trkpt lat="45.62158" lon="5.55437">
        <ele>210</ele>
        <time>2023-02-14T09:00:42.797Z</time>
      </trkpt>
      <trkpt lat="45.62155" lon="5.55434">
        <ele>210</ele>
        <time>2023-02-14T09:00:43.797Z</time>
      </trkpt>
      <trkpt lat="45.62153" lon="5.55431">
        <ele>211</ele>
        <time>2023-02-14T09:00:44.797Z</time>
      </trkpt>
      <trkpt lat="45.6215" lon="5.55427">
        <ele>211</ele>
        <time>2023-02-14T09:00:45.797Z</time>
      </trkpt>
      <trkpt lat="45.62148" lon="5.55424">
        <ele>211</ele>
        <time>2023-02-14T09:00:46.797Z</time>
      </trkpt>
      <trkpt lat="45.62145" lon="5.5542">
        <ele>211</ele>
        <time>2023-02-14T09:00:47.797Z</time>
      </trkpt>
      <trkpt lat="45.62144" lon="5.55416">
        <ele>211</ele>
        <time>2023-02-14T09:00:48.797Z</time>
      </trkpt>
      <trkpt lat="45.62142" lon="5.55412">
        <ele>212</ele>
        <time>2023-02-14T09:00:49.797Z</time>
      </trkpt>
      <trkpt lat="45.62141" lon="5.55407">
        <ele>212</ele>
        <time>2023-02-14T09:00:50.797Z</time>
      </trkpt>
      <trkpt lat="45.6214" lon="5.55402">
        <ele>212</ele>
        <time>2023-02-14T09:00:51.797Z</time>
      </trkpt>
      <trkpt lat="45.6214" lon="5.55397">
        <ele>212</ele>
        <time>2023-02-14T09:00:52.797Z</time>
      </trkpt>
      <trkpt lat="45.62139" lon="5.55392">
        <ele>212</ele>
        <time>2023-02-14T09:00:53.797Z</time>
      </trkpt>
      <trkpt lat="45.62138" lon="5.55387">
        <ele>212</ele>
        <time>2023-02-14T09:00:54.797Z</time>
      </trkpt>
      <trkpt lat="45.62137" lon="5.55382">
        <ele>212</ele>
        <time>2023-02-14T09:00:55.797Z</time>
      </trkpt>
      <trkpt lat="45.62136" lon="5.55377">
        <ele>212</ele>
        <time>2023-02-14T09:00:56.797Z</time>
      </trkpt>
      <trkpt lat="45.62135" lon="5.55371">
        <ele>211</ele>
        <time>2023-02-14T09:00:57.797Z</time>
      </trkpt>
      <trkpt lat="45.62134" lon="5.55366">
        <ele>211</ele>
        <time>2023-02-14T09:00:58.797Z</time>
      </trkpt>
      <trkpt lat="45.62133" lon="5.5536">
        <ele>211</ele>
        <time>2023-02-14T09:00:59.797Z</time>
      </trkpt>
      <trkpt lat="45.62132" lon="5.55355">
        <ele>211</ele>
        <time>2023-02-14T09:01:00.797Z</time>
      </trkpt>
      <trkpt lat="45.62131" lon="5.55349">
        <ele>211</ele>
        <time>2023-02-14T09:01:01.797Z</time>
      </trkpt>
      <trkpt lat="45.62131" lon="5.55344">
        <ele>211</ele>
        <time>2023-02-14T09:01:02.797Z</time>
      </trkpt>
      <trkpt lat="45.6213" lon="5.55338">
        <ele>211</ele>
        <time>2023-02-14T09:01:03.797Z</time>
      </trkpt>
      <trkpt lat="45.62129" lon="5.55333">
        <ele>211</ele>
        <time>2023-02-14T09:01:04.797Z</time>
      </trkpt>
      <trkpt lat="45.62128" lon="5.55327">
        <ele>211</ele>
        <time>2023-02-14T09:01:05.797Z</time>
      </trkpt>
      <trkpt lat="45.62127" lon="5.55322">
        <ele>211</ele>
        <time>2023-02-14T09:01:06.797Z</time>
      </trkpt>
      <trkpt lat="45.62127" lon="5.55317">
        <ele>211</ele>
        <time>2023-02-14T09:01:07.797Z</time>
      </trkpt>
      <trkpt lat="45.62126" lon="5.55311">
        <ele>212</ele>
        <time>2023-02-14T09:01:08.797Z</time>
      </trkpt>
      <trkpt lat="45.62125" lon="5.55306">
        <ele>212</ele>
        <time>2023-02-14T09:01:09.797Z</time>
      </trkpt>
      <trkpt lat="45.62124" lon="5.55301">
        <ele>212</ele>
        <time>2023-02-14T09:01:10.797Z</time>
      </trkpt>
      <trkpt lat="45.62123" lon="5.55296">
        <ele>212</ele>
        <time>2023-02-14T09:01:11.797Z</time>
      </trkpt>
      <trkpt lat="45.62122" lon="5.55291">
        <ele>212</ele>
        <time>2023-02-14T09:01:12.797Z</time>
      </trkpt>
      <trkpt lat="45.62121" lon="5.55285">
        <ele>212</ele>
        <time>2023-02-14T09:01:13.797Z</time>
      </trkpt>
      <trkpt lat="45.6212" lon="5.5528">
        <ele>212</ele>
        <time>2023-02-14T09:01:14.797Z</time>
      </trkpt>
      <trkpt lat="45.62119" lon="5.55275">
        <ele>213</ele>
        <time>2023-02-14T09:01:15.797Z</time>
      </trkpt>
      <trkpt lat="45.62118" lon="5.5527">
        <ele>212</ele>
        <time>2023-02-14T09:01:16.797Z</time>
      </trkpt>
      <trkpt lat="45.62117" lon="5.55265">
        <ele>212</ele>
        <time>2023-02-14T09:01:17.797Z</time>
      </trkpt>
      <trkpt lat="45.62116" lon="5.5526">
        <ele>213</ele>
        <time>2023-02-14T09:01:18.797Z</time>
      </trkpt>
      <trkpt lat="45.62115" lon="5.55254">
        <ele>213</ele>
        <time>2023-02-14T09:01:19.797Z</time>
      </trkpt>
      <trkpt lat="45.62115" lon="5.55249">
        <ele>213</ele>
        <time>2023-02-14T09:01:20.797Z</time>
      </trkpt>
      <trkpt lat="45.62114" lon="5.55244">
        <ele>213</ele>
        <time>2023-02-14T09:01:21.797Z</time>
      </trkpt>
      <trkpt lat="45.62114" lon="5.55239">
        <ele>213</ele>
        <time>2023-02-14T09:01:22.797Z</time>
      </trkpt>
      <trkpt lat="45.62114" lon="5.55234">
        <ele>213</ele>
        <time>2023-02-14T09:01:23.797Z</time>
      </trkpt>
      <trkpt lat="45.62113" lon="5.5523">
        <ele>213</ele>
        <time>2023-02-14T09:01:24.797Z</time>
      </trkpt>
      <trkpt lat="45.62112" lon="5.55225">
        <ele>212</ele>
        <time>2023-02-14T09:01:25.797Z</time>
      </trkpt>
      <trkpt lat="45.62112" lon="5.5522">
        <ele>212</ele>
        <time>2023-02-14T09:01:26.797Z</time>
      </trkpt>
      <trkpt lat="45.62112" lon="5.55215">
        <ele>213</ele>
        <time>2023-02-14T09:01:27.797Z</time>
      </trkpt>
      <trkpt lat="45.62112" lon="5.55209">
        <ele>213</ele>
        <time>2023-02-14T09:01:28.797Z</time>
      </trkpt>
      <trkpt lat="45.62112" lon="5.55205">
        <ele>214</ele>
        <time>2023-02-14T09:01:29.797Z</time>
      </trkpt>
      <trkpt lat="45.62113" lon="5.552">
        <ele>214</ele>
        <time>2023-02-14T09:01:30.797Z</time>
      </trkpt>
      <trkpt lat="45.62113" lon="5.55195">
        <ele>214</ele>
        <time>2023-02-14T09:01:31.797Z</time>
      </trkpt>
      <trkpt lat="45.62113" lon="5.5519">
        <ele>215</ele>
        <time>2023-02-14T09:01:32.797Z</time>
      </trkpt>
      <trkpt lat="45.62113" lon="5.55185">
        <ele>215</ele>
        <time>2023-02-14T09:01:33.797Z</time>
      </trkpt>
      <trkpt lat="45.62113" lon="5.5518">
        <ele>215</ele>
        <time>2023-02-14T09:01:34.797Z</time>
      </trkpt>
      <trkpt lat="45.62113" lon="5.55175">
        <ele>215</ele>
        <time>2023-02-14T09:01:35.797Z</time>
      </trkpt>
      <trkpt lat="45.62113" lon="5.55171">
        <ele>215</ele>
        <time>2023-02-14T09:01:36.797Z</time>
      </trkpt>
      <trkpt lat="45.62113" lon="5.55166">
        <ele>215</ele>
        <time>2023-02-14T09:01:37.797Z</time>
      </trkpt>
      <trkpt lat="45.62113" lon="5.55162">
        <ele>216</ele>
        <time>2023-02-14T09:01:38.797Z</time>
      </trkpt>
      <trkpt lat="45.62113" lon="5.55158">
        <ele>216</ele>
        <time>2023-02-14T09:01:39.797Z</time>
      </trkpt>
      <trkpt lat="45.62113" lon="5.55153">
        <ele>216</ele>
        <time>2023-02-14T09:01:40.797Z</time>
      </trkpt>
      <trkpt lat="45.62113" lon="5.55148">
        <ele>216</ele>
        <time>2023-02-14T09:01:41.797Z</time>
      </trkpt>
      <trkpt lat="45.62113" lon="5.55144">
        <ele>217</ele>
        <time>2023-02-14T09:01:42.797Z</time>
      </trkpt>
      <trkpt lat="45.62112" lon="5.55139">
        <ele>217</ele>
        <time>2023-02-14T09:01:43.797Z</time>
      </trkpt>
      <trkpt lat="45.62112" lon="5.55134">
        <ele>217</ele>
        <time>2023-02-14T09:01:44.797Z</time>
      </trkpt>
      <trkpt lat="45.62112" lon="5.5513">
        <ele>217</ele>
        <time>2023-02-14T09:01:45.797Z</time>
      </trkpt>
      <trkpt lat="45.62112" lon="5.55126">
        <ele>217</ele>
        <time>2023-02-14T09:01:46.797Z</time>
      </trkpt>
      <trkpt lat="45.62112" lon="5.55122">
        <ele>218</ele>
        <time>2023-02-14T09:01:47.797Z</time>
      </trkpt>
      <trkpt lat="45.62112" lon="5.55118">
        <ele>218</ele>
        <time>2023-02-14T09:01:48.797Z</time>
      </trkpt>
      <trkpt lat="45.62112" lon="5.55114">
        <ele>218</ele>
        <time>2023-02-14T09:01:49.797Z</time>
      </trkpt>
      <trkpt lat="45.62112" lon="5.5511">
        <ele>218</ele>
        <time>2023-02-14T09:01:50.797Z</time>
      </trkpt>
      <trkpt lat="45.62112" lon="5.55106">
        <ele>218</ele>
        <time>2023-02-14T09:01:51.797Z</time>
      </trkpt>
      <trkpt lat="45.62112" lon="5.55103">
        <ele>218</ele>
        <time>2023-02-14T09:01:52.797Z</time>
      </trkpt>
      <trkpt lat="45.62111" lon="5.55099">
        <ele>218</ele>
        <time>2023-02-14T09:01:53.797Z</time>
      </trkpt>
      <trkpt lat="45.62111" lon="5.55096">
        <ele>218</ele>
        <time>2023-02-14T09:01:54.797Z</time>
      </trkpt>
      <trkpt lat="45.62111" lon="5.55093">
        <ele>218</ele>
        <time>2023-02-14T09:01:55.797Z</time>
      </trkpt>
      <trkpt lat="45.62111" lon="5.5509">
        <ele>218</ele>
        <time>2023-02-14T09:01:56.797Z</time>
      </trkpt>
      <trkpt lat="45.62111" lon="5.55087">
        <ele>219</ele>
        <time>2023-02-14T09:01:57.797Z</time>
      </trkpt>
      <trkpt lat="45.62111" lon="5.55084">
        <ele>219</ele>
        <time>2023-02-14T09:01:58.797Z</time>
      </trkpt>
      <trkpt lat="45.62111" lon="5.55082">
        <ele>219</ele>
        <time>2023-02-14T09:01:59.797Z</time>
      </trkpt>
      <trkpt lat="45.62112" lon="5.55079">
        <ele>219</ele>
        <time>2023-02-14T09:02:00.797Z</time>
      </trkpt>
      <trkpt lat="45.62112" lon="5.55077">
        <ele>219</ele>
        <time>2023-02-14T09:02:01.797Z</time>
      </trkpt>
      <trkpt lat="45.62112" lon="5.55074">
        <ele>220</ele>
        <time>2023-02-14T09:02:02.797Z</time>
      </trkpt>
      <trkpt lat="45.62113" lon="5.55072">
        <ele>220</ele>
        <time>2023-02-14T09:02:03.797Z</time>
      </trkpt>
      <trkpt lat="45.62114" lon="5.55069">
        <ele>220</ele>
        <time>2023-02-14T09:02:04.797Z</time>
      </trkpt>
      <trkpt lat="45.62115" lon="5.55066">
        <ele>220</ele>
        <time>2023-02-14T09:02:05.797Z</time>
      </trkpt>
      <trkpt lat="45.62116" lon="5.55064">
        <ele>220</ele>
        <time>2023-02-14T09:02:06.797Z</time>
      </trkpt>
      <trkpt lat="45.62117" lon="5.55062">
        <ele>220</ele>
        <time>2023-02-14T09:02:07.797Z</time>
      </trkpt>
      <trkpt lat="45.62118" lon="5.5506">
        <ele>220</ele>
        <time>2023-02-14T09:02:08.797Z</time>
      </trkpt>
      <trkpt lat="45.62119" lon="5.55058">
        <ele>220</ele>
        <time>2023-02-14T09:02:09.797Z</time>
      </trkpt>
      <trkpt lat="45.6212" lon="5.55055">
        <ele>220</ele>
        <time>2023-02-14T09:02:10.797Z</time>
      </trkpt>
      <trkpt lat="45.62121" lon="5.55053">
        <ele>220</ele>
        <time>2023-02-14T09:02:11.797Z</time>
      </trkpt>
      <trkpt lat="45.62123" lon="5.55052">
        <ele>220</ele>
        <time>2023-02-14T09:02:12.797Z</time>
      </trkpt>
      <trkpt lat="45.62124" lon="5.5505">
        <ele>221</ele>
        <time>2023-02-14T09:02:13.797Z</time>
      </trkpt>
      <trkpt lat="45.62125" lon="5.55048">
        <ele>221</ele>
        <time>2023-02-14T09:02:14.797Z</time>
      </trkpt>
      <trkpt lat="45.62127" lon="5.55046">
        <ele>221</ele>
        <time>2023-02-14T09:02:15.797Z</time>
      </trkpt>
      <trkpt lat="45.62128" lon="5.55044">
        <ele>221</ele>
        <time>2023-02-14T09:02:16.797Z</time>
      </trkpt>
      <trkpt lat="45.62129" lon="5.55042">
        <ele>221</ele>
        <time>2023-02-14T09:02:17.797Z</time>
      </trkpt>
      <trkpt lat="45.6213" lon="5.5504">
        <ele>222</ele>
        <time>2023-02-14T09:02:18.797Z</time>
      </trkpt>
      <trkpt lat="45.62132" lon="5.55038">
        <ele>222</ele>
        <time>2023-02-14T09:02:19.797Z</time>
      </trkpt>
      <trkpt lat="45.62133" lon="5.55036">
        <ele>222</ele>
        <time>2023-02-14T09:02:20.797Z</time>
      </trkpt>
      <trkpt lat="45.62134" lon="5.55034">
        <ele>222</ele>
        <time>2023-02-14T09:02:21.797Z</time>
      </trkpt>
      <trkpt lat="45.62135" lon="5.55032">
        <ele>222</ele>
        <time>2023-02-14T09:02:22.797Z</time>
      </trkpt>
      <trkpt lat="45.62136" lon="5.5503">
        <ele>222</ele>
        <time>2023-02-14T09:02:23.797Z</time>
      </trkpt>
      <trkpt lat="45.62137" lon="5.55028">
        <ele>222</ele>
        <time>2023-02-14T09:02:24.797Z</time>
      </trkpt>
      <trkpt lat="45.62139" lon="5.55025">
        <ele>223</ele>
        <time>2023-02-14T09:02:25.797Z</time>
      </trkpt>
      <trkpt lat="45.6214" lon="5.55023">
        <ele>223</ele>
        <time>2023-02-14T09:02:26.797Z</time>
      </trkpt>
      <trkpt lat="45.62141" lon="5.55021">
        <ele>223</ele>
        <time>2023-02-14T09:02:27.797Z</time>
      </trkpt>
      <trkpt lat="45.62142" lon="5.55019">
        <ele>224</ele>
        <time>2023-02-14T09:02:28.797Z</time>
      </trkpt>
      <trkpt lat="45.62144" lon="5.55017">
        <ele>225</ele>
        <time>2023-02-14T09:02:29.797Z</time>
      </trkpt>
      <trkpt lat="45.62145" lon="5.55015">
        <ele>225</ele>
        <time>2023-02-14T09:02:30.797Z</time>
      </trkpt>
      <trkpt lat="45.62147" lon="5.55013">
        <ele>226</ele>
        <time>2023-02-14T09:02:31.797Z</time>
      </trkpt>
      <trkpt lat="45.62148" lon="5.5501">
        <ele>226</ele>
        <time>2023-02-14T09:02:32.797Z</time>
      </trkpt>
      <trkpt lat="45.62149" lon="5.55008">
        <ele>226</ele>
        <time>2023-02-14T09:02:33.797Z</time>
      </trkpt>
      <trkpt lat="45.6215" lon="5.55006">
        <ele>226</ele>
        <time>2023-02-14T09:02:34.797Z</time>
      </trkpt>
      <trkpt lat="45.62152" lon="5.55004">
        <ele>226</ele>
        <time>2023-02-14T09:02:35.797Z</time>
      </trkpt>
      <trkpt lat="45.62153" lon="5.55001">
        <ele>227</ele>
        <time>2023-02-14T09:02:36.797Z</time>
      </trkpt>
      <trkpt lat="45.62154" lon="5.54999">
        <ele>228</ele>
        <time>2023-02-14T09:02:37.797Z</time>
      </trkpt>
      <trkpt lat="45.62155" lon="5.54996">
        <ele>228</ele>
        <time>2023-02-14T09:02:38.797Z</time>
      </trkpt>
      <trkpt lat="45.62156" lon="5.54993">
        <ele>228</ele>
        <time>2023-02-14T09:02:39.797Z</time>
      </trkpt>
      <trkpt lat="45.62157" lon="5.5499">
        <ele>228</ele>
        <time>2023-02-14T09:02:40.797Z</time>
      </trkpt>
      <trkpt lat="45.62158" lon="5.54986">
        <ele>228</ele>
        <time>2023-02-14T09:02:41.797Z</time>
      </trkpt>
      <trkpt lat="45.62158" lon="5.54983">
        <ele>228</ele>
        <time>2023-02-14T09:02:42.797Z</time>
      </trkpt>
      <trkpt lat="45.62159" lon="5.5498">
        <ele>228</ele>
        <time>2023-02-14T09:02:43.797Z</time>
      </trkpt>
      <trkpt lat="45.62159" lon="5.54977">
        <ele>229</ele>
        <time>2023-02-14T09:02:44.797Z</time>
      </trkpt>
      <trkpt lat="45.62159" lon="5.54973">
        <ele>228</ele>
        <time>2023-02-14T09:02:45.797Z</time>
      </trkpt>
      <trkpt lat="45.6216" lon="5.5497">
        <ele>228</ele>
        <time>2023-02-14T09:02:46.797Z</time>
      </trkpt>
      <trkpt lat="45.6216" lon="5.54966">
        <ele>228</ele>
        <time>2023-02-14T09:02:47.797Z</time>
      </trkpt>
      <trkpt lat="45.6216" lon="5.54963">
        <ele>229</ele>
        <time>2023-02-14T09:02:48.797Z</time>
      </trkpt>
      <trkpt lat="45.62161" lon="5.54959">
        <ele>230</ele>
        <time>2023-02-14T09:02:49.797Z</time>
      </trkpt>
      <trkpt lat="45.62161" lon="5.54955">
        <ele>230</ele>
        <time>2023-02-14T09:02:50.797Z</time>
      </trkpt>
      <trkpt lat="45.62162" lon="5.54951">
        <ele>231</ele>
        <time>2023-02-14T09:02:51.797Z</time>
      </trkpt>
      <trkpt lat="45.62163" lon="5.54948">
        <ele>231</ele>
        <time>2023-02-14T09:02:52.797Z</time>
      </trkpt>
      <trkpt lat="45.62164" lon="5.54944">
        <ele>231</ele>
        <time>2023-02-14T09:02:53.797Z</time>
      </trkpt>
      <trkpt lat="45.62165" lon="5.5494">
        <ele>232</ele>
        <time>2023-02-14T09:02:54.797Z</time>
      </trkpt>
      <trkpt lat="45.62166" lon="5.54936">
        <ele>232</ele>
        <time>2023-02-14T09:02:55.797Z</time>
      </trkpt>
      <trkpt lat="45.62168" lon="5.54933">
        <ele>232</ele>
        <time>2023-02-14T09:02:56.797Z</time>
      </trkpt>
      <trkpt lat="45.62169" lon="5.54929">
        <ele>232</ele>
        <time>2023-02-14T09:02:57.797Z</time>
      </trkpt>
      <trkpt lat="45.62171" lon="5.54925">
        <ele>232</ele>
        <time>2023-02-14T09:02:58.797Z</time>
      </trkpt>
      <trkpt lat="45.62173" lon="5.54922">
        <ele>232</ele>
        <time>2023-02-14T09:02:59.797Z</time>
      </trkpt>
      <trkpt lat="45.62174" lon="5.54919">
        <ele>231</ele>
        <time>2023-02-14T09:03:00.797Z</time>
      </trkpt>
      <trkpt lat="45.62176" lon="5.54917">
        <ele>231</ele>
        <time>2023-02-14T09:03:01.797Z</time>
      </trkpt>
      <trkpt lat="45.62178" lon="5.54914">
        <ele>231</ele>
        <time>2023-02-14T09:03:02.797Z</time>
      </trkpt>
      <trkpt lat="45.6218" lon="5.54912">
        <ele>230</ele>
        <time>2023-02-14T09:03:03.797Z</time>
      </trkpt>
      <trkpt lat="45.62182" lon="5.5491">
        <ele>230</ele>
        <time>2023-02-14T09:03:04.797Z</time>
      </trkpt>
      <trkpt lat="45.62184" lon="5.54907">
        <ele>230</ele>
        <time>2023-02-14T09:03:05.797Z</time>
      </trkpt>
      <trkpt lat="45.62186" lon="5.54905">
        <ele>230</ele>
        <time>2023-02-14T09:03:06.797Z</time>
      </trkpt>
      <trkpt lat="45.62188" lon="5.54904">
        <ele>230</ele>
        <time>2023-02-14T09:03:07.797Z</time>
      </trkpt>
      <trkpt lat="45.62189" lon="5.54902">
        <ele>230</ele>
        <time>2023-02-14T09:03:08.797Z</time>
      </trkpt>
      <trkpt lat="45.62191" lon="5.549">
        <ele>229</ele>
        <time>2023-02-14T09:03:09.797Z</time>
      </trkpt>
      <trkpt lat="45.62193" lon="5.54898">
        <ele>229</ele>
        <time>2023-02-14T09:03:10.797Z</time>
      </trkpt>
      <trkpt lat="45.62195" lon="5.54896">
        <ele>229</ele>
        <time>2023-02-14T09:03:11.797Z</time>
      </trkpt>
      <trkpt lat="45.62197" lon="5.54894">
        <ele>229</ele>
        <time>2023-02-14T09:03:12.797Z</time>
      </trkpt>
      <trkpt lat="45.62199" lon="5.54892">
        <ele>229</ele>
        <time>2023-02-14T09:03:13.797Z</time>
      </trkpt>
      <trkpt lat="45.62201" lon="5.5489">
        <ele>229</ele>
        <time>2023-02-14T09:03:14.797Z</time>
      </trkpt>
      <trkpt lat="45.62202" lon="5.54888">
        <ele>229</ele>
        <time>2023-02-14T09:03:15.797Z</time>
      </trkpt>
      <trkpt lat="45.62205" lon="5.54886">
        <ele>230</ele>
        <time>2023-02-14T09:03:16.797Z</time>
      </trkpt>
      <trkpt lat="45.62207" lon="5.54884">
        <ele>230</ele>
        <time>2023-02-14T09:03:17.797Z</time>
      </trkpt>
      <trkpt lat="45.62209" lon="5.54882">
        <ele>230</ele>
        <time>2023-02-14T09:03:18.797Z</time>
      </trkpt>
      <trkpt lat="45.62211" lon="5.5488">
        <ele>231</ele>
        <time>2023-02-14T09:03:19.797Z</time>
      </trkpt>
      <trkpt lat="45.62213" lon="5.54878">
        <ele>231</ele>
        <time>2023-02-14T09:03:20.797Z</time>
      </trkpt>
      <trkpt lat="45.62215" lon="5.54876">
        <ele>231</ele>
        <time>2023-02-14T09:03:21.797Z</time>
      </trkpt>
      <trkpt lat="45.62216" lon="5.54873">
        <ele>231</ele>
        <time>2023-02-14T09:03:22.797Z</time>
      </trkpt>
      <trkpt lat="45.62218" lon="5.54871">
        <ele>231</ele>
        <time>2023-02-14T09:03:23.797Z</time>
      </trkpt>
      <trkpt lat="45.6222" lon="5.54868">
        <ele>232</ele>
        <time>2023-02-14T09:03:24.797Z</time>
      </trkpt>
      <trkpt lat="45.62222" lon="5.54866">
        <ele>232</ele>
        <time>2023-02-14T09:03:25.797Z</time>
      </trkpt>
      <trkpt lat="45.62225" lon="5.54864">
        <ele>232</ele>
        <time>2023-02-14T09:03:26.797Z</time>
      </trkpt>
      <trkpt lat="45.62227" lon="5.54862">
        <ele>232</ele>
        <time>2023-02-14T09:03:27.797Z</time>
      </trkpt>
      <trkpt lat="45.62229" lon="5.54859">
        <ele>232</ele>
        <time>2023-02-14T09:03:28.797Z</time>
      </trkpt>
      <trkpt lat="45.62231" lon="5.54857">
        <ele>232</ele>
        <time>2023-02-14T09:03:29.797Z</time>
      </trkpt>
      <trkpt lat="45.62234" lon="5.54855">
        <ele>232</ele>
        <time>2023-02-14T09:03:30.797Z</time>
      </trkpt>
      <trkpt lat="45.62236" lon="5.54852">
        <ele>232</ele>
        <time>2023-02-14T09:03:31.797Z</time>
      </trkpt>
      <trkpt lat="45.62238" lon="5.5485">
        <ele>232</ele>
        <time>2023-02-14T09:03:32.797Z</time>
      </trkpt>
      <trkpt lat="45.62241" lon="5.54847">
        <ele>233</ele>
        <time>2023-02-14T09:03:33.797Z</time>
      </trkpt>
      <trkpt lat="45.62244" lon="5.54845">
        <ele>233</ele>
        <time>2023-02-14T09:03:34.797Z</time>
      </trkpt>
      <trkpt lat="45.62246" lon="5.54842">
        <ele>233</ele>
        <time>2023-02-14T09:03:35.797Z</time>
      </trkpt>
      <trkpt lat="45.62249" lon="5.5484">
        <ele>233</ele>
        <time>2023-02-14T09:03:36.797Z</time>
      </trkpt>
      <trkpt lat="45.62251" lon="5.54837">
        <ele>233</ele>
        <time>2023-02-14T09:03:37.797Z</time>
      </trkpt>
      <trkpt lat="45.62254" lon="5.54834">
        <ele>233</ele>
        <time>2023-02-14T09:03:38.797Z</time>
      </trkpt>
      <trkpt lat="45.62256" lon="5.54831">
        <ele>233</ele>
        <time>2023-02-14T09:03:39.797Z</time>
      </trkpt>
      <trkpt lat="45.62259" lon="5.54828">
        <ele>233</ele>
        <time>2023-02-14T09:03:40.797Z</time>
      </trkpt>
      <trkpt lat="45.62261" lon="5.54825">
        <ele>233</ele>
        <time>2023-02-14T09:03:41.797Z</time>
      </trkpt>
      <trkpt lat="45.62264" lon="5.54821">
        <ele>233</ele>
        <time>2023-02-14T09:03:42.797Z</time>
      </trkpt>
      <trkpt lat="45.62267" lon="5.54818">
        <ele>233</ele>
        <time>2023-02-14T09:03:43.797Z</time>
      </trkpt>
      <trkpt lat="45.62269" lon="5.54814">
        <ele>233</ele>
        <time>2023-02-14T09:03:44.797Z</time>
      </trkpt>
      <trkpt lat="45.62272" lon="5.54811">
        <ele>233</ele>
        <time>2023-02-14T09:03:45.797Z</time>
      </trkpt>
      <trkpt lat="45.62275" lon="5.54807">
        <ele>233</ele>
        <time>2023-02-14T09:03:46.797Z</time>
      </trkpt>
      <trkpt lat="45.62277" lon="5.54803">
        <ele>233</ele>
        <time>2023-02-14T09:03:47.797Z</time>
      </trkpt>
      <trkpt lat="45.6228" lon="5.54799">
        <ele>233</ele>
        <time>2023-02-14T09:03:48.797Z</time>
      </trkpt>
      <trkpt lat="45.62283" lon="5.54795">
        <ele>233</ele>
        <time>2023-02-14T09:03:49.797Z</time>
      </trkpt>
      <trkpt lat="45.62285" lon="5.5479">
        <ele>233</ele>
        <time>2023-02-14T09:03:50.797Z</time>
      </trkpt>
      <trkpt lat="45.62288" lon="5.54786">
        <ele>233</ele>
        <time>2023-02-14T09:03:51.797Z</time>
      </trkpt>
      <trkpt lat="45.62291" lon="5.54782">
        <ele>233</ele>
        <time>2023-02-14T09:03:52.797Z</time>
      </trkpt>
      <trkpt lat="45.62294" lon="5.54777">
        <ele>233</ele>
        <time>2023-02-14T09:03:53.797Z</time>
      </trkpt>
      <trkpt lat="45.62297" lon="5.54773">
        <ele>233</ele>
        <time>2023-02-14T09:03:54.797Z</time>
      </trkpt>
      <trkpt lat="45.62299" lon="5.54768">
        <ele>233</ele>
        <time>2023-02-14T09:03:55.797Z</time>
      </trkpt>
      <trkpt lat="45.62302" lon="5.54764">
        <ele>233</ele>
        <time>2023-02-14T09:03:56.797Z</time>
      </trkpt>
      <trkpt lat="45.62305" lon="5.54759">
        <ele>232</ele>
        <time>2023-02-14T09:03:57.797Z</time>
      </trkpt>
      <trkpt lat="45.62308" lon="5.54755">
        <ele>232</ele>
        <time>2023-02-14T09:03:58.797Z</time>
      </trkpt>
      <trkpt lat="45.62311" lon="5.5475">
        <ele>232</ele>
        <time>2023-02-14T09:03:59.797Z</time>
      </trkpt>
      <trkpt lat="45.62313" lon="5.54745">
        <ele>232</ele>
        <time>2023-02-14T09:04:00.797Z</time>
      </trkpt>
      <trkpt lat="45.62316" lon="5.5474">
        <ele>232</ele>
        <time>2023-02-14T09:04:01.797Z</time>
      </trkpt>
      <trkpt lat="45.62319" lon="5.54735">
        <ele>232</ele>
        <time>2023-02-14T09:04:02.797Z</time>
      </trkpt>
      <trkpt lat="45.62322" lon="5.54731">
        <ele>233</ele>
        <time>2023-02-14T09:04:03.797Z</time>
      </trkpt>
      <trkpt lat="45.62325" lon="5.54726">
        <ele>233</ele>
        <time>2023-02-14T09:04:04.797Z</time>
      </trkpt>
      <trkpt lat="45.62328" lon="5.54721">
        <ele>233</ele>
        <time>2023-02-14T09:04:05.797Z</time>
      </trkpt>
      <trkpt lat="45.6233" lon="5.54716">
        <ele>233</ele>
        <time>2023-02-14T09:04:06.797Z</time>
      </trkpt>
      <trkpt lat="45.62333" lon="5.54711">
        <ele>233</ele>
        <time>2023-02-14T09:04:07.797Z</time>
      </trkpt>
      <trkpt lat="45.62336" lon="5.54706">
        <ele>233</ele>
        <time>2023-02-14T09:04:08.797Z</time>
      </trkpt>
      <trkpt lat="45.62338" lon="5.54701">
        <ele>233</ele>
        <time>2023-02-14T09:04:09.797Z</time>
      </trkpt>
      <trkpt lat="45.6234" lon="5.54695">
        <ele>233</ele>
        <time>2023-02-14T09:04:10.797Z</time>
      </trkpt>
      <trkpt lat="45.62342" lon="5.5469">
        <ele>233</ele>
        <time>2023-02-14T09:04:11.797Z</time>
      </trkpt>
      <trkpt lat="45.62344" lon="5.54685">
        <ele>234</ele>
        <time>2023-02-14T09:04:12.797Z</time>
      </trkpt>
      <trkpt lat="45.62346" lon="5.54679">
        <ele>233</ele>
        <time>2023-02-14T09:04:13.797Z</time>
      </trkpt>
      <trkpt lat="45.62347" lon="5.54674">
        <ele>233</ele>
        <time>2023-02-14T09:04:14.797Z</time>
      </trkpt>
      <trkpt lat="45.62349" lon="5.5467">
        <ele>233</ele>
        <time>2023-02-14T09:04:15.797Z</time>
      </trkpt>
      <trkpt lat="45.62351" lon="5.54665">
        <ele>233</ele>
        <time>2023-02-14T09:04:16.797Z</time>
      </trkpt>
      <trkpt lat="45.62353" lon="5.54661">
        <ele>233</ele>
        <time>2023-02-14T09:04:17.797Z</time>
      </trkpt>
      <trkpt lat="45.62354" lon="5.54658">
        <ele>233</ele>
        <time>2023-02-14T09:04:18.797Z</time>
      </trkpt>
      <trkpt lat="45.62354" lon="5.54655">
        <ele>232</ele>
        <time>2023-02-14T09:04:19.797Z</time>
      </trkpt>
      <trkpt lat="45.62354" lon="5.54653">
        <ele>232</ele>
        <time>2023-02-14T09:04:20.797Z</time>
      </trkpt>
      <trkpt lat="45.62353" lon="5.54651">
        <ele>231</ele>
        <time>2023-02-14T09:04:21.797Z</time>
      </trkpt>
      <trkpt lat="45.62352" lon="5.54651">
        <ele>231</ele>
        <time>2023-02-14T09:04:22.797Z</time>
      </trkpt>
      <trkpt lat="45.62351" lon="5.54653">
        <ele>231</ele>
        <time>2023-02-14T09:04:23.797Z</time>
      </trkpt>
      <trkpt lat="45.62351" lon="5.54654">
        <ele>232</ele>
        <time>2023-02-14T09:04:24.797Z</time>
      </trkpt>
      <trkpt lat="45.62352" lon="5.54656">
        <ele>232</ele>
        <time>2023-02-14T09:04:25.797Z</time>
      </trkpt>
      <trkpt lat="45.62353" lon="5.54656">
        <ele>231</ele>
        <time>2023-02-14T09:04:26.797Z</time>
      </trkpt>
      <trkpt lat="45.62354" lon="5.54656">
        <ele>231</ele>
        <time>2023-02-14T09:04:27.797Z</time>
      </trkpt>
      <trkpt lat="45.62355" lon="5.54656">
        <ele>231</ele>
        <time>2023-02-14T09:04:28.797Z</time>
      </trkpt>
      <trkpt lat="45.62356" lon="5.54654">
        <ele>232</ele>
        <time>2023-02-14T09:04:29.797Z</time>
      </trkpt>
      <trkpt lat="45.62356" lon="5.54653">
        <ele>232</ele>
        <time>2023-02-14T09:04:30.797Z</time>
      </trkpt>
      <trkpt lat="45.62355" lon="5.54651">
        <ele>232</ele>
        <time>2023-02-14T09:04:31.797Z</time>
      </trkpt>
      <trkpt lat="45.62355" lon="5.5465">
        <ele>232</ele>
        <time>2023-02-14T09:04:32.797Z</time>
      </trkpt>
      <trkpt lat="45.62354" lon="5.5465">
        <ele>232</ele>
        <time>2023-02-14T09:04:33.797Z</time>
      </trkpt>
      <trkpt lat="45.62353" lon="5.54649">
        <ele>232</ele>
        <time>2023-02-14T09:04:34.797Z</time>
      </trkpt>
      <trkpt lat="45.62352" lon="5.54649">
        <ele>232</ele>
        <time>2023-02-14T09:04:35.797Z</time>
      </trkpt>
      <trkpt lat="45.62351" lon="5.54648">
        <ele>232</ele>
        <time>2023-02-14T09:04:36.797Z</time>
      </trkpt>
      <trkpt lat="45.62349" lon="5.54646">
        <ele>232</ele>
        <time>2023-02-14T09:04:37.797Z</time>
      </trkpt>
      <trkpt lat="45.62348" lon="5.54644">
        <ele>232</ele>
        <time>2023-02-14T09:04:38.797Z</time>
      </trkpt>
      <trkpt lat="45.62347" lon="5.54642">
        <ele>232</ele>
        <time>2023-02-14T09:04:39.797Z</time>
      </trkpt>
      <trkpt lat="45.62345" lon="5.5464">
        <ele>232</ele>
        <time>2023-02-14T09:04:40.797Z</time>
      </trkpt>
      <trkpt lat="45.62344" lon="5.54637">
        <ele>232</ele>
        <time>2023-02-14T09:04:41.797Z</time>
      </trkpt>
      <trkpt lat="45.62342" lon="5.54636">
        <ele>232</ele>
        <time>2023-02-14T09:04:42.797Z</time>
      </trkpt>
      <trkpt lat="45.6234" lon="5.54634">
        <ele>233</ele>
        <time>2023-02-14T09:04:43.797Z</time>
      </trkpt>
      <trkpt lat="45.62338" lon="5.54632">
        <ele>233</ele>
        <time>2023-02-14T09:04:44.797Z</time>
      </trkpt>
      <trkpt lat="45.62337" lon="5.5463">
        <ele>232</ele>
        <time>2023-02-14T09:04:45.797Z</time>
      </trkpt>
      <trkpt lat="45.62335" lon="5.54628">
        <ele>232</ele>
        <time>2023-02-14T09:04:46.797Z</time>
      </trkpt>
      <trkpt lat="45.62333" lon="5.54626">
        <ele>232</ele>
        <time>2023-02-14T09:04:47.797Z</time>
      </trkpt>
      <trkpt lat="45.62331" lon="5.54625">
        <ele>232</ele>
        <time>2023-02-14T09:04:48.797Z</time>
      </trkpt>
      <trkpt lat="45.62329" lon="5.54623">
        <ele>232</ele>
        <time>2023-02-14T09:04:49.797Z</time>
      </trkpt>
      <trkpt lat="45.62328" lon="5.54621">
        <ele>232</ele>
        <time>2023-02-14T09:04:50.797Z</time>
      </trkpt>
      <trkpt lat="45.62326" lon="5.54619">
        <ele>232</ele>
        <time>2023-02-14T09:04:51.797Z</time>
      </trkpt>
      <trkpt lat="45.62324" lon="5.54617">
        <ele>232</ele>
        <time>2023-02-14T09:04:52.797Z</time>
      </trkpt>
      <trkpt lat="45.62322" lon="5.54614">
        <ele>232</ele>
        <time>2023-02-14T09:04:53.797Z</time>
      </trkpt>
      <trkpt lat="45.6232" lon="5.54613">
        <ele>232</ele>
        <time>2023-02-14T09:04:54.797Z</time>
      </trkpt>
      <trkpt lat="45.62318" lon="5.54611">
        <ele>233</ele>
        <time>2023-02-14T09:04:55.797Z</time>
      </trkpt>
      <trkpt lat="45.62317" lon="5.54608">
        <ele>233</ele>
        <time>2023-02-14T09:04:56.797Z</time>
      </trkpt>
      <trkpt lat="45.62315" lon="5.54606">
        <ele>233</ele>
        <time>2023-02-14T09:04:57.797Z</time>
      </trkpt>
      <trkpt lat="45.62313" lon="5.54604">
        <ele>233</ele>
        <time>2023-02-14T09:04:58.797Z</time>
      </trkpt>
      <trkpt lat="45.62311" lon="5.54602">
        <ele>233</ele>
        <time>2023-02-14T09:04:59.797Z</time>
      </trkpt>
      <trkpt lat="45.6231" lon="5.54599">
        <ele>234</ele>
        <time>2023-02-14T09:05:00.797Z</time>
      </trkpt>
      <trkpt lat="45.62308" lon="5.54597">
        <ele>234</ele>
        <time>2023-02-14T09:05:01.797Z</time>
      </trkpt>
      <trkpt lat="45.62307" lon="5.54594">
        <ele>235</ele>
        <time>2023-02-14T09:05:02.797Z</time>
      </trkpt>
      <trkpt lat="45.62305" lon="5.54592">
        <ele>235</ele>
        <time>2023-02-14T09:05:03.797Z</time>
      </trkpt>
      <trkpt lat="45.62304" lon="5.5459">
        <ele>235</ele>
        <time>2023-02-14T09:05:04.797Z</time>
      </trkpt>
      <trkpt lat="45.62302" lon="5.54588">
        <ele>235</ele>
        <time>2023-02-14T09:05:05.797Z</time>
      </trkpt>
      <trkpt lat="45.62301" lon="5.54585">
        <ele>236</ele>
        <time>2023-02-14T09:05:06.797Z</time>
      </trkpt>
      <trkpt lat="45.623" lon="5.54583">
        <ele>236</ele>
        <time>2023-02-14T09:05:07.797Z</time>
      </trkpt>
      <trkpt lat="45.62299" lon="5.5458">
        <ele>236</ele>
        <time>2023-02-14T09:05:08.797Z</time>
      </trkpt>
      <trkpt lat="45.62298" lon="5.54578">
        <ele>236</ele>
        <time>2023-02-14T09:05:09.797Z</time>
      </trkpt>
      <trkpt lat="45.62298" lon="5.54575">
        <ele>237</ele>
        <time>2023-02-14T09:05:10.797Z</time>
      </trkpt>
      <trkpt lat="45.62298" lon="5.54572">
        <ele>237</ele>
        <time>2023-02-14T09:05:11.797Z</time>
      </trkpt>
      <trkpt lat="45.62298" lon="5.54569">
        <ele>237</ele>
        <time>2023-02-14T09:05:12.797Z</time>
      </trkpt>
      <trkpt lat="45.62298" lon="5.54566">
        <ele>236</ele>
        <time>2023-02-14T09:05:13.797Z</time>
      </trkpt>
      <trkpt lat="45.62299" lon="5.54564">
        <ele>236</ele>
        <time>2023-02-14T09:05:14.797Z</time>
      </trkpt>
      <trkpt lat="45.62299" lon="5.54561">
        <ele>236</ele>
        <time>2023-02-14T09:05:15.797Z</time>
      </trkpt>
      <trkpt lat="45.623" lon="5.54558">
        <ele>236</ele>
        <time>2023-02-14T09:05:16.797Z</time>
      </trkpt>
      <trkpt lat="45.62301" lon="5.54556">
        <ele>236</ele>
        <time>2023-02-14T09:05:17.797Z</time>
      </trkpt>
      <trkpt lat="45.62302" lon="5.54553">
        <ele>236</ele>
        <time>2023-02-14T09:05:18.797Z</time>
      </trkpt>
      <trkpt lat="45.62303" lon="5.5455">
        <ele>236</ele>
        <time>2023-02-14T09:05:19.797Z</time>
      </trkpt>
      <trkpt lat="45.62303" lon="5.54547">
        <ele>236</ele>
        <time>2023-02-14T09:05:20.797Z</time>
      </trkpt>
      <trkpt lat="45.62304" lon="5.54544">
        <ele>236</ele>
        <time>2023-02-14T09:05:21.797Z</time>
      </trkpt>
      <trkpt lat="45.62305" lon="5.54541">
        <ele>235</ele>
        <time>2023-02-14T09:05:22.797Z</time>
      </trkpt>
      <trkpt lat="45.62305" lon="5.54539">
        <ele>236</ele>
        <time>2023-02-14T09:05:23.797Z</time>
      </trkpt>
      <trkpt lat="45.62306" lon="5.54536">
        <ele>236</ele>
        <time>2023-02-14T09:05:24.797Z</time>
      </trkpt>
      <trkpt lat="45.62307" lon="5.54534">
        <ele>235</ele>
        <time>2023-02-14T09:05:25.797Z</time>
      </trkpt>
      <trkpt lat="45.62308" lon="5.54531">
        <ele>235</ele>
        <time>2023-02-14T09:05:26.797Z</time>
      </trkpt>
      <trkpt lat="45.62309" lon="5.54528">
        <ele>235</ele>
        <time>2023-02-14T09:05:27.797Z</time>
      </trkpt>
      <trkpt lat="45.62309" lon="5.54526">
        <ele>235</ele>
        <time>2023-02-14T09:05:28.797Z</time>
      </trkpt>
      <trkpt lat="45.6231" lon="5.54523">
        <ele>235</ele>
        <time>2023-02-14T09:05:29.797Z</time>
      </trkpt>
      <trkpt lat="45.62311" lon="5.54521">
        <ele>235</ele>
        <time>2023-02-14T09:05:30.797Z</time>
      </trkpt>
      <trkpt lat="45.62312" lon="5.54518">
        <ele>235</ele>
        <time>2023-02-14T09:05:31.797Z</time>
      </trkpt>
      <trkpt lat="45.62314" lon="5.54516">
        <ele>236</ele>
        <time>2023-02-14T09:05:32.797Z</time>
      </trkpt>
      <trkpt lat="45.62314" lon="5.54514">
        <ele>236</ele>
        <time>2023-02-14T09:05:33.797Z</time>
      </trkpt>
      <trkpt lat="45.62315" lon="5.54512">
        <ele>236</ele>
        <time>2023-02-14T09:05:34.797Z</time>
      </trkpt>
      <trkpt lat="45.62316" lon="5.54509">
        <ele>236</ele>
        <time>2023-02-14T09:05:35.797Z</time>
      </trkpt>
      <trkpt lat="45.62316" lon="5.54507">
        <ele>236</ele>
        <time>2023-02-14T09:05:36.797Z</time>
      </trkpt>
      <trkpt lat="45.62317" lon="5.54505">
        <ele>236</ele>
        <time>2023-02-14T09:05:37.797Z</time>
      </trkpt>
      <trkpt lat="45.62318" lon="5.54503">
        <ele>237</ele>
        <time>2023-02-14T09:05:38.797Z</time>
      </trkpt>
      <trkpt lat="45.62318" lon="5.545">
        <ele>238</ele>
        <time>2023-02-14T09:05:39.797Z</time>
      </trkpt>
      <trkpt lat="45.62319" lon="5.54498">
        <ele>238</ele>
        <time>2023-02-14T09:05:40.797Z</time>
      </trkpt>
      <trkpt lat="45.6232" lon="5.54496">
        <ele>238</ele>
        <time>2023-02-14T09:05:41.797Z</time>
      </trkpt>
      <trkpt lat="45.62321" lon="5.54495">
        <ele>238</ele>
        <time>2023-02-14T09:05:42.797Z</time>
      </trkpt>
      <trkpt lat="45.62321" lon="5.54493">
        <ele>238</ele>
        <time>2023-02-14T09:05:43.797Z</time>
      </trkpt>
      <trkpt lat="45.62322" lon="5.54491">
        <ele>239</ele>
        <time>2023-02-14T09:05:44.797Z</time>
      </trkpt>
      <trkpt lat="45.62323" lon="5.54489">
        <ele>240</ele>
        <time>2023-02-14T09:05:45.797Z</time>
      </trkpt>
      <trkpt lat="45.62324" lon="5.54487">
        <ele>241</ele>
        <time>2023-02-14T09:05:46.797Z</time>
      </trkpt>
      <trkpt lat="45.62325" lon="5.54486">
        <ele>241</ele>
        <time>2023-02-14T09:05:47.797Z</time>
      </trkpt>
      <trkpt lat="45.62326" lon="5.54484">
        <ele>242</ele>
        <time>2023-02-14T09:05:48.797Z</time>
      </trkpt>
      <trkpt lat="45.62326" lon="5.54483">
        <ele>243</ele>
        <time>2023-02-14T09:05:49.797Z</time>
      </trkpt>
      <trkpt lat="45.62327" lon="5.54481">
        <ele>243</ele>
        <time>2023-02-14T09:05:50.797Z</time>
      </trkpt>
      <trkpt lat="45.62328" lon="5.54479">
        <ele>244</ele>
        <time>2023-02-14T09:05:51.797Z</time>
      </trkpt>
      <trkpt lat="45.62329" lon="5.54477">
        <ele>244</ele>
        <time>2023-02-14T09:05:52.797Z</time>
      </trkpt>
      <trkpt lat="45.6233" lon="5.54475">
        <ele>244</ele>
        <time>2023-02-14T09:05:53.797Z</time>
      </trkpt>
      <trkpt lat="45.62331" lon="5.54474">
        <ele>244</ele>
        <time>2023-02-14T09:05:54.797Z</time>
      </trkpt>
      <trkpt lat="45.62331" lon="5.54472">
        <ele>245</ele>
        <time>2023-02-14T09:05:55.797Z</time>
      </trkpt>
      <trkpt lat="45.62332" lon="5.5447">
        <ele>245</ele>
        <time>2023-02-14T09:05:56.797Z</time>
      </trkpt>
      <trkpt lat="45.62333" lon="5.54469">
        <ele>246</ele>
        <time>2023-02-14T09:05:57.797Z</time>
      </trkpt>
      <trkpt lat="45.62334" lon="5.54467">
        <ele>246</ele>
        <time>2023-02-14T09:05:58.797Z</time>
      </trkpt>
      <trkpt lat="45.62335" lon="5.54466">
        <ele>246</ele>
        <time>2023-02-14T09:05:59.797Z</time>
      </trkpt>
      <trkpt lat="45.62336" lon="5.54465">
        <ele>247</ele>
        <time>2023-02-14T09:06:00.797Z</time>
      </trkpt>
      <trkpt lat="45.62337" lon="5.54463">
        <ele>246</ele>
        <time>2023-02-14T09:06:01.797Z</time>
      </trkpt>
      <trkpt lat="45.62338" lon="5.54462">
        <ele>247</ele>
        <time>2023-02-14T09:06:02.797Z</time>
      </trkpt>
      <trkpt lat="45.62338" lon="5.54461">
        <ele>247</ele>
        <time>2023-02-14T09:06:03.797Z</time>
      </trkpt>
      <trkpt lat="45.6234" lon="5.5446">
        <ele>248</ele>
        <time>2023-02-14T09:06:04.797Z</time>
      </trkpt>
      <trkpt lat="45.62341" lon="5.54458">
        <ele>248</ele>
        <time>2023-02-14T09:06:05.797Z</time>
      </trkpt>
      <trkpt lat="45.62342" lon="5.54457">
        <ele>248</ele>
        <time>2023-02-14T09:06:06.797Z</time>
      </trkpt>
      <trkpt lat="45.62343" lon="5.54455">
        <ele>249</ele>
        <time>2023-02-14T09:06:07.797Z</time>
      </trkpt>
      <trkpt lat="45.62344" lon="5.54454">
        <ele>249</ele>
        <time>2023-02-14T09:06:08.797Z</time>
      </trkpt>
      <trkpt lat="45.62345" lon="5.54452">
        <ele>249</ele>
        <time>2023-02-14T09:06:09.797Z</time>
      </trkpt>
      <trkpt lat="45.62346" lon="5.54451">
        <ele>250</ele>
        <time>2023-02-14T09:06:10.797Z</time>
      </trkpt>
      <trkpt lat="45.62346" lon="5.54449">
        <ele>250</ele>
        <time>2023-02-14T09:06:11.797Z</time>
      </trkpt>
      <trkpt lat="45.62347" lon="5.54448">
        <ele>251</ele>
        <time>2023-02-14T09:06:12.797Z</time>
      </trkpt>
      <trkpt lat="45.62348" lon="5.54446">
        <ele>252</ele>
        <time>2023-02-14T09:06:13.797Z</time>
      </trkpt>
      <trkpt lat="45.62349" lon="5.54445">
        <ele>253</ele>
        <time>2023-02-14T09:06:14.797Z</time>
      </trkpt>
      <trkpt lat="45.6235" lon="5.54444">
        <ele>254</ele>
        <time>2023-02-14T09:06:15.797Z</time>
      </trkpt>
      <trkpt lat="45.6235" lon="5.54443">
        <ele>254</ele>
        <time>2023-02-14T09:06:16.797Z</time>
      </trkpt>
      <trkpt lat="45.62351" lon="5.54441">
        <ele>256</ele>
        <time>2023-02-14T09:06:17.797Z</time>
      </trkpt>
      <trkpt lat="45.62352" lon="5.5444">
        <ele>256</ele>
        <time>2023-02-14T09:06:18.797Z</time>
      </trkpt>
      <trkpt lat="45.62353" lon="5.54438">
        <ele>256</ele>
        <time>2023-02-14T09:06:19.797Z</time>
      </trkpt>
      <trkpt lat="45.62353" lon="5.54437">
        <ele>256</ele>
        <time>2023-02-14T09:06:20.797Z</time>
      </trkpt>
      <trkpt lat="45.62354" lon="5.54435">
        <ele>256</ele>
        <time>2023-02-14T09:06:21.797Z</time>
      </trkpt>
      <trkpt lat="45.62355" lon="5.54434">
        <ele>256</ele>
        <time>2023-02-14T09:06:22.797Z</time>
      </trkpt>
      <trkpt lat="45.62356" lon="5.54433">
        <ele>256</ele>
        <time>2023-02-14T09:06:23.797Z</time>
      </trkpt>
      <trkpt lat="45.62357" lon="5.54431">
        <ele>256</ele>
        <time>2023-02-14T09:06:24.797Z</time>
      </trkpt>
      <trkpt lat="45.62357" lon="5.5443">
        <ele>256</ele>
        <time>2023-02-14T09:06:25.797Z</time>
      </trkpt>
      <trkpt lat="45.62358" lon="5.54429">
        <ele>257</ele>
        <time>2023-02-14T09:06:26.797Z</time>
      </trkpt>
      <trkpt lat="45.62359" lon="5.54427">
        <ele>257</ele>
        <time>2023-02-14T09:06:27.797Z</time>
      </trkpt>
      <trkpt lat="45.62359" lon="5.54425">
        <ele>257</ele>
        <time>2023-02-14T09:06:28.797Z</time>
      </trkpt>
      <trkpt lat="45.6236" lon="5.54424">
        <ele>257</ele>
        <time>2023-02-14T09:06:29.797Z</time>
      </trkpt>
      <trkpt lat="45.62361" lon="5.54422">
        <ele>257</ele>
        <time>2023-02-14T09:06:30.797Z</time>
      </trkpt>
      <trkpt lat="45.62361" lon="5.5442">
        <ele>257</ele>
        <time>2023-02-14T09:06:31.797Z</time>
      </trkpt>
      <trkpt lat="45.62362" lon="5.54418">
        <ele>257</ele>
        <time>2023-02-14T09:06:32.797Z</time>
      </trkpt>
      <trkpt lat="45.62362" lon="5.54416">
        <ele>257</ele>
        <time>2023-02-14T09:06:33.797Z</time>
      </trkpt>
      <trkpt lat="45.62363" lon="5.54414">
        <ele>257</ele>
        <time>2023-02-14T09:06:34.797Z</time>
      </trkpt>
      <trkpt lat="45.62363" lon="5.54413">
        <ele>256</ele>
        <time>2023-02-14T09:06:35.797Z</time>
      </trkpt>
      <trkpt lat="45.62364" lon="5.54411">
        <ele>257</ele>
        <time>2023-02-14T09:06:36.797Z</time>
      </trkpt>
      <trkpt lat="45.62364" lon="5.54409">
        <ele>256</ele>
        <time>2023-02-14T09:06:37.797Z</time>
      </trkpt>
      <trkpt lat="45.62364" lon="5.54407">
        <ele>256</ele>
        <time>2023-02-14T09:06:38.797Z</time>
      </trkpt>
      <trkpt lat="45.62365" lon="5.54406">
        <ele>256</ele>
        <time>2023-02-14T09:06:39.797Z</time>
      </trkpt>
      <trkpt lat="45.62365" lon="5.54404">
        <ele>256</ele>
        <time>2023-02-14T09:06:40.797Z</time>
      </trkpt>
      <trkpt lat="45.62366" lon="5.54402">
        <ele>257</ele>
        <time>2023-02-14T09:06:41.797Z</time>
      </trkpt>
      <trkpt lat="45.62366" lon="5.54401">
        <ele>257</ele>
        <time>2023-02-14T09:06:42.797Z</time>
      </trkpt>
      <trkpt lat="45.62367" lon="5.54399">
        <ele>258</ele>
        <time>2023-02-14T09:06:43.797Z</time>
      </trkpt>
      <trkpt lat="45.62367" lon="5.54397">
        <ele>258</ele>
        <time>2023-02-14T09:06:44.797Z</time>
      </trkpt>
      <trkpt lat="45.62368" lon="5.54395">
        <ele>258</ele>
        <time>2023-02-14T09:06:45.797Z</time>
      </trkpt>
      <trkpt lat="45.62368" lon="5.54393">
        <ele>258</ele>
        <time>2023-02-14T09:06:46.797Z</time>
      </trkpt>
      <trkpt lat="45.62368" lon="5.54391">
        <ele>258</ele>
        <time>2023-02-14T09:06:47.797Z</time>
      </trkpt>
      <trkpt lat="45.62369" lon="5.54389">
        <ele>258</ele>
        <time>2023-02-14T09:06:48.797Z</time>
      </trkpt>
      <trkpt lat="45.62369" lon="5.54387">
        <ele>258</ele>
        <time>2023-02-14T09:06:49.797Z</time>
      </trkpt>
      <trkpt lat="45.62369" lon="5.54384">
        <ele>258</ele>
        <time>2023-02-14T09:06:50.797Z</time>
      </trkpt>
      <trkpt lat="45.6237" lon="5.54382">
        <ele>258</ele>
        <time>2023-02-14T09:06:51.797Z</time>
      </trkpt>
      <trkpt lat="45.6237" lon="5.5438">
        <ele>259</ele>
        <time>2023-02-14T09:06:52.797Z</time>
      </trkpt>
      <trkpt lat="45.6237" lon="5.54378">
        <ele>259</ele>
        <time>2023-02-14T09:06:53.797Z</time>
      </trkpt>
      <trkpt lat="45.6237" lon="5.54376">
        <ele>259</ele>
        <time>2023-02-14T09:06:54.797Z</time>
      </trkpt>
      <trkpt lat="45.6237" lon="5.54374">
        <ele>260</ele>
        <time>2023-02-14T09:06:55.797Z</time>
      </trkpt>
      <trkpt lat="45.6237" lon="5.54372">
        <ele>259</ele>
        <time>2023-02-14T09:06:56.797Z</time>
      </trkpt>
      <trkpt lat="45.6237" lon="5.54369">
        <ele>259</ele>
        <time>2023-02-14T09:06:57.797Z</time>
      </trkpt>
      <trkpt lat="45.6237" lon="5.54367">
        <ele>259</ele>
        <time>2023-02-14T09:06:58.797Z</time>
      </trkpt>
      <trkpt lat="45.62369" lon="5.54365">
        <ele>259</ele>
        <time>2023-02-14T09:06:59.797Z</time>
      </trkpt>
      <trkpt lat="45.62368" lon="5.54364">
        <ele>259</ele>
        <time>2023-02-14T09:07:00.797Z</time>
      </trkpt>
      <trkpt lat="45.62367" lon="5.54362">
        <ele>259</ele>
        <time>2023-02-14T09:07:01.797Z</time>
      </trkpt>
      <trkpt lat="45.62366" lon="5.54361">
        <ele>260</ele>
        <time>2023-02-14T09:07:02.797Z</time>
      </trkpt>
      <trkpt lat="45.62365" lon="5.54359">
        <ele>260</ele>
        <time>2023-02-14T09:07:03.797Z</time>
      </trkpt>
      <trkpt lat="45.62363" lon="5.54357">
        <ele>260</ele>
        <time>2023-02-14T09:07:04.797Z</time>
      </trkpt>
      <trkpt lat="45.62362" lon="5.54356">
        <ele>260</ele>
        <time>2023-02-14T09:07:05.797Z</time>
      </trkpt>
      <trkpt lat="45.62361" lon="5.54354">
        <ele>260</ele>
        <time>2023-02-14T09:07:06.797Z</time>
      </trkpt>
      <trkpt lat="45.62359" lon="5.54352">
        <ele>260</ele>
        <time>2023-02-14T09:07:07.797Z</time>
      </trkpt>
      <trkpt lat="45.62358" lon="5.54351">
        <ele>260</ele>
        <time>2023-02-14T09:07:08.797Z</time>
      </trkpt>
      <trkpt lat="45.62356" lon="5.54349">
        <ele>260</ele>
        <time>2023-02-14T09:07:09.797Z</time>
      </trkpt>
      <trkpt lat="45.62354" lon="5.54348">
        <ele>260</ele>
        <time>2023-02-14T09:07:10.797Z</time>
      </trkpt>
      <trkpt lat="45.62353" lon="5.54346">
        <ele>260</ele>
        <time>2023-02-14T09:07:11.797Z</time>
      </trkpt>
      <trkpt lat="45.62351" lon="5.54345">
        <ele>260</ele>
        <time>2023-02-14T09:07:12.797Z</time>
      </trkpt>
      <trkpt lat="45.62349" lon="5.54343">
        <ele>260</ele>
        <time>2023-02-14T09:07:13.797Z</time>
      </trkpt>
      <trkpt lat="45.62346" lon="5.54342">
        <ele>260</ele>
        <time>2023-02-14T09:07:14.797Z</time>
      </trkpt>
      <trkpt lat="45.62344" lon="5.5434">
        <ele>260</ele>
        <time>2023-02-14T09:07:15.797Z</time>
      </trkpt>
      <trkpt lat="45.62342" lon="5.54339">
        <ele>260</ele>
        <time>2023-02-14T09:07:16.797Z</time>
      </trkpt>
      <trkpt lat="45.6234" lon="5.54337">
        <ele>260</ele>
        <time>2023-02-14T09:07:17.797Z</time>
      </trkpt>
      <trkpt lat="45.62337" lon="5.54336">
        <ele>260</ele>
        <time>2023-02-14T09:07:18.797Z</time>
      </trkpt>
      <trkpt lat="45.62335" lon="5.54335">
        <ele>260</ele>
        <time>2023-02-14T09:07:19.797Z</time>
      </trkpt>
      <trkpt lat="45.62332" lon="5.54333">
        <ele>260</ele>
        <time>2023-02-14T09:07:20.797Z</time>
      </trkpt>
      <trkpt lat="45.62329" lon="5.54332">
        <ele>260</ele>
        <time>2023-02-14T09:07:21.797Z</time>
      </trkpt>
      <trkpt lat="45.62326" lon="5.5433">
        <ele>260</ele>
        <time>2023-02-14T09:07:22.797Z</time>
      </trkpt>
      <trkpt lat="45.62324" lon="5.54329">
        <ele>260</ele>
        <time>2023-02-14T09:07:23.797Z</time>
      </trkpt>
      <trkpt lat="45.62321" lon="5.54328">
        <ele>260</ele>
        <time>2023-02-14T09:07:24.797Z</time>
      </trkpt>
      <trkpt lat="45.62318" lon="5.54327">
        <ele>260</ele>
        <time>2023-02-14T09:07:25.797Z</time>
      </trkpt>
      <trkpt lat="45.62315" lon="5.54325">
        <ele>260</ele>
        <time>2023-02-14T09:07:26.797Z</time>
      </trkpt>
      <trkpt lat="45.62313" lon="5.54324">
        <ele>260</ele>
        <time>2023-02-14T09:07:27.797Z</time>
      </trkpt>
      <trkpt lat="45.6231" lon="5.54323">
        <ele>261</ele>
        <time>2023-02-14T09:07:28.797Z</time>
      </trkpt>
      <trkpt lat="45.62307" lon="5.54322">
        <ele>261</ele>
        <time>2023-02-14T09:07:29.797Z</time>
      </trkpt>
      <trkpt lat="45.62304" lon="5.54321">
        <ele>261</ele>
        <time>2023-02-14T09:07:30.797Z</time>
      </trkpt>
      <trkpt lat="45.62301" lon="5.5432">
        <ele>261</ele>
        <time>2023-02-14T09:07:31.797Z</time>
      </trkpt>
      <trkpt lat="45.62298" lon="5.54319">
        <ele>261</ele>
        <time>2023-02-14T09:07:32.797Z</time>
      </trkpt>
      <trkpt lat="45.62295" lon="5.54318">
        <ele>261</ele>
        <time>2023-02-14T09:07:33.797Z</time>
      </trkpt>
      <trkpt lat="45.62293" lon="5.54318">
        <ele>261</ele>
        <time>2023-02-14T09:07:34.797Z</time>
      </trkpt>
      <trkpt lat="45.6229" lon="5.54317">
        <ele>261</ele>
        <time>2023-02-14T09:07:35.797Z</time>
      </trkpt>
      <trkpt lat="45.62287" lon="5.54316">
        <ele>261</ele>
        <time>2023-02-14T09:07:36.797Z</time>
      </trkpt>
      <trkpt lat="45.62284" lon="5.54315">
        <ele>262</ele>
        <time>2023-02-14T09:07:37.797Z</time>
      </trkpt>
      <trkpt lat="45.62282" lon="5.54314">
        <ele>262</ele>
        <time>2023-02-14T09:07:38.797Z</time>
      </trkpt>
      <trkpt lat="45.62279" lon="5.54314">
        <ele>262</ele>
        <time>2023-02-14T09:07:39.797Z</time>
      </trkpt>
      <trkpt lat="45.62276" lon="5.54312">
        <ele>262</ele>
        <time>2023-02-14T09:07:40.797Z</time>
      </trkpt>
      <trkpt lat="45.62273" lon="5.54311">
        <ele>262</ele>
        <time>2023-02-14T09:07:41.797Z</time>
      </trkpt>
      <trkpt lat="45.6227" lon="5.5431">
        <ele>262</ele>
        <time>2023-02-14T09:07:42.797Z</time>
      </trkpt>
      <trkpt lat="45.62268" lon="5.54309">
        <ele>262</ele>
        <time>2023-02-14T09:07:43.797Z</time>
      </trkpt>
      <trkpt lat="45.62265" lon="5.54308">
        <ele>261</ele>
        <time>2023-02-14T09:07:44.797Z</time>
      </trkpt>
      <trkpt lat="45.62262" lon="5.54307">
        <ele>262</ele>
        <time>2023-02-14T09:07:45.797Z</time>
      </trkpt>
      <trkpt lat="45.62259" lon="5.54306">
        <ele>262</ele>
        <time>2023-02-14T09:07:46.797Z</time>
      </trkpt>
      <trkpt lat="45.62256" lon="5.54305">
        <ele>262</ele>
        <time>2023-02-14T09:07:47.797Z</time>
      </trkpt>
      <trkpt lat="45.62254" lon="5.54305">
        <ele>262</ele>
        <time>2023-02-14T09:07:48.797Z</time>
      </trkpt>
      <trkpt lat="45.62251" lon="5.54304">
        <ele>262</ele>
        <time>2023-02-14T09:07:49.797Z</time>
      </trkpt>
      <trkpt lat="45.62248" lon="5.54303">
        <ele>262</ele>
        <time>2023-02-14T09:07:50.797Z</time>
      </trkpt>
      <trkpt lat="45.62245" lon="5.54303">
        <ele>262</ele>
        <time>2023-02-14T09:07:51.797Z</time>
      </trkpt>
      <trkpt lat="45.62243" lon="5.54302">
        <ele>262</ele>
        <time>2023-02-14T09:07:52.797Z</time>
      </trkpt>
      <trkpt lat="45.6224" lon="5.543">
        <ele>262</ele>
        <time>2023-02-14T09:07:53.797Z</time>
      </trkpt>
      <trkpt lat="45.62237" lon="5.54299">
        <ele>262</ele>
        <time>2023-02-14T09:07:54.797Z</time>
      </trkpt>
      <trkpt lat="45.62235" lon="5.54298">
        <ele>262</ele>
        <time>2023-02-14T09:07:55.797Z</time>
      </trkpt>
      <trkpt lat="45.62232" lon="5.54298">
        <ele>262</ele>
        <time>2023-02-14T09:07:56.797Z</time>
      </trkpt>
      <trkpt lat="45.6223" lon="5.54297">
        <ele>261</ele>
        <time>2023-02-14T09:07:57.797Z</time>
      </trkpt>
      <trkpt lat="45.62227" lon="5.54296">
        <ele>262</ele>
        <time>2023-02-14T09:07:58.797Z</time>
      </trkpt>
      <trkpt lat="45.62225" lon="5.54296">
        <ele>262</ele>
        <time>2023-02-14T09:07:59.797Z</time>
      </trkpt>
      <trkpt lat="45.62222" lon="5.54295">
        <ele>262</ele>
        <time>2023-02-14T09:08:00.797Z</time>
      </trkpt>
      <trkpt lat="45.6222" lon="5.54294">
        <ele>261</ele>
        <time>2023-02-14T09:08:01.797Z</time>
      </trkpt>
      <trkpt lat="45.62217" lon="5.54294">
        <ele>261</ele>
        <time>2023-02-14T09:08:02.797Z</time>
      </trkpt>
      <trkpt lat="45.62215" lon="5.54293">
        <ele>262</ele>
        <time>2023-02-14T09:08:03.797Z</time>
      </trkpt>
      <trkpt lat="45.62213" lon="5.54293">
        <ele>262</ele>
        <time>2023-02-14T09:08:04.797Z</time>
      </trkpt>
      <trkpt lat="45.6221" lon="5.54292">
        <ele>262</ele>
        <time>2023-02-14T09:08:05.797Z</time>
      </trkpt>
      <trkpt lat="45.62208" lon="5.54292">
        <ele>262</ele>
        <time>2023-02-14T09:08:06.797Z</time>
      </trkpt>
      <trkpt lat="45.62206" lon="5.54291">
        <ele>262</ele>
        <time>2023-02-14T09:08:07.797Z</time>
      </trkpt>
      <trkpt lat="45.62204" lon="5.54291">
        <ele>262</ele>
        <time>2023-02-14T09:08:08.797Z</time>
      </trkpt>
      <trkpt lat="45.62201" lon="5.54291">
        <ele>262</ele>
        <time>2023-02-14T09:08:09.797Z</time>
      </trkpt>
      <trkpt lat="45.62199" lon="5.5429">
        <ele>262</ele>
        <time>2023-02-14T09:08:10.797Z</time>
      </trkpt>
      <trkpt lat="45.62197" lon="5.5429">
        <ele>262</ele>
        <time>2023-02-14T09:08:11.797Z</time>
      </trkpt>
      <trkpt lat="45.62195" lon="5.54289">
        <ele>263</ele>
        <time>2023-02-14T09:08:12.797Z</time>
      </trkpt>
      <trkpt lat="45.62194" lon="5.54289">
        <ele>263</ele>
        <time>2023-02-14T09:08:13.797Z</time>
      </trkpt>
      <trkpt lat="45.62192" lon="5.54289">
        <ele>263</ele>
        <time>2023-02-14T09:08:14.797Z</time>
      </trkpt>
      <trkpt lat="45.6219" lon="5.54288">
        <ele>264</ele>
        <time>2023-02-14T09:08:15.797Z</time>
      </trkpt>
      <trkpt lat="45.62188" lon="5.54288">
        <ele>264</ele>
        <time>2023-02-14T09:08:16.797Z</time>
      </trkpt>
      <trkpt lat="45.62186" lon="5.54287">
        <ele>264</ele>
        <time>2023-02-14T09:08:17.797Z</time>
      </trkpt>
      <trkpt lat="45.62184" lon="5.54287">
        <ele>265</ele>
        <time>2023-02-14T09:08:18.797Z</time>
      </trkpt>
      <trkpt lat="45.62182" lon="5.54286">
        <ele>265</ele>
        <time>2023-02-14T09:08:19.797Z</time>
      </trkpt>
      <trkpt lat="45.62181" lon="5.54286">
        <ele>265</ele>
        <time>2023-02-14T09:08:20.797Z</time>
      </trkpt>
      <trkpt lat="45.62179" lon="5.54285">
        <ele>265</ele>
        <time>2023-02-14T09:08:21.797Z</time>
      </trkpt>
      <trkpt lat="45.62177" lon="5.54284">
        <ele>265</ele>
        <time>2023-02-14T09:08:22.797Z</time>
      </trkpt>
      <trkpt lat="45.62176" lon="5.54284">
        <ele>266</ele>
        <time>2023-02-14T09:08:23.797Z</time>
      </trkpt>
      <trkpt lat="45.62174" lon="5.54283">
        <ele>266</ele>
        <time>2023-02-14T09:08:24.797Z</time>
      </trkpt>
      <trkpt lat="45.62172" lon="5.54283">
        <ele>266</ele>
        <time>2023-02-14T09:08:25.797Z</time>
      </trkpt>
      <trkpt lat="45.62171" lon="5.54282">
        <ele>266</ele>
        <time>2023-02-14T09:08:26.797Z</time>
      </trkpt>
      <trkpt lat="45.62169" lon="5.54282">
        <ele>266</ele>
        <time>2023-02-14T09:08:27.797Z</time>
      </trkpt>
      <trkpt lat="45.62167" lon="5.54281">
        <ele>267</ele>
        <time>2023-02-14T09:08:28.797Z</time>
      </trkpt>
      <trkpt lat="45.62166" lon="5.54281">
        <ele>267</ele>
        <time>2023-02-14T09:08:29.797Z</time>
      </trkpt>
      <trkpt lat="45.62164" lon="5.5428">
        <ele>267</ele>
        <time>2023-02-14T09:08:30.797Z</time>
      </trkpt>
      <trkpt lat="45.62163" lon="5.54279">
        <ele>267</ele>
        <time>2023-02-14T09:08:31.797Z</time>
      </trkpt>
      <trkpt lat="45.62161" lon="5.54278">
        <ele>267</ele>
        <time>2023-02-14T09:08:32.797Z</time>
      </trkpt>
      <trkpt lat="45.62159" lon="5.54278">
        <ele>268</ele>
        <time>2023-02-14T09:08:33.797Z</time>
      </trkpt>
      <trkpt lat="45.62158" lon="5.54277">
        <ele>268</ele>
        <time>2023-02-14T09:08:34.797Z</time>
      </trkpt>
      <trkpt lat="45.62156" lon="5.54277">
        <ele>268</ele>
        <time>2023-02-14T09:08:35.797Z</time>
      </trkpt>
      <trkpt lat="45.62155" lon="5.54276">
        <ele>268</ele>
        <time>2023-02-14T09:08:36.797Z</time>
      </trkpt>
      <trkpt lat="45.62153" lon="5.54276">
        <ele>268</ele>
        <time>2023-02-14T09:08:37.797Z</time>
      </trkpt>
      <trkpt lat="45.62151" lon="5.54276">
        <ele>268</ele>
        <time>2023-02-14T09:08:38.797Z</time>
      </trkpt>
      <trkpt lat="45.62149" lon="5.54275">
        <ele>268</ele>
        <time>2023-02-14T09:08:39.797Z</time>
      </trkpt>
      <trkpt lat="45.62148" lon="5.54275">
        <ele>268</ele>
        <time>2023-02-14T09:08:40.797Z</time>
      </trkpt>
      <trkpt lat="45.62146" lon="5.54274">
        <ele>268</ele>
        <time>2023-02-14T09:08:41.797Z</time>
      </trkpt>
      <trkpt lat="45.62145" lon="5.54274">
        <ele>268</ele>
        <time>2023-02-14T09:08:42.797Z</time>
      </trkpt>
      <trkpt lat="45.62143" lon="5.54274">
        <ele>268</ele>
        <time>2023-02-14T09:08:43.797Z</time>
      </trkpt>
      <trkpt lat="45.62141" lon="5.54274">
        <ele>268</ele>
        <time>2023-02-14T09:08:44.797Z</time>
      </trkpt>
      <trkpt lat="45.62139" lon="5.54273">
        <ele>268</ele>
        <time>2023-02-14T09:08:45.797Z</time>
      </trkpt>
      <trkpt lat="45.62137" lon="5.54273">
        <ele>268</ele>
        <time>2023-02-14T09:08:46.797Z</time>
      </trkpt>
      <trkpt lat="45.62135" lon="5.54272">
        <ele>268</ele>
        <time>2023-02-14T09:08:47.797Z</time>
      </trkpt>
      <trkpt lat="45.62133" lon="5.54272">
        <ele>268</ele>
        <time>2023-02-14T09:08:48.797Z</time>
      </trkpt>
      <trkpt lat="45.62131" lon="5.54271">
        <ele>269</ele>
        <time>2023-02-14T09:08:49.797Z</time>
      </trkpt>
      <trkpt lat="45.62129" lon="5.54271">
        <ele>269</ele>
        <time>2023-02-14T09:08:50.797Z</time>
      </trkpt>
      <trkpt lat="45.62127" lon="5.5427">
        <ele>269</ele>
        <time>2023-02-14T09:08:51.797Z</time>
      </trkpt>
      <trkpt lat="45.62125" lon="5.5427">
        <ele>269</ele>
        <time>2023-02-14T09:08:52.797Z</time>
      </trkpt>
      <trkpt lat="45.62123" lon="5.54269">
        <ele>269</ele>
        <time>2023-02-14T09:08:53.797Z</time>
      </trkpt>
      <trkpt lat="45.62121" lon="5.54268">
        <ele>269</ele>
        <time>2023-02-14T09:08:54.797Z</time>
      </trkpt>
      <trkpt lat="45.62119" lon="5.54268">
        <ele>269</ele>
        <time>2023-02-14T09:08:55.797Z</time>
      </trkpt>
      <trkpt lat="45.62117" lon="5.54267">
        <ele>269</ele>
        <time>2023-02-14T09:08:56.797Z</time>
      </trkpt>
      <trkpt lat="45.62115" lon="5.54266">
        <ele>270</ele>
        <time>2023-02-14T09:08:57.797Z</time>
      </trkpt>
      <trkpt lat="45.62113" lon="5.54266">
        <ele>270</ele>
        <time>2023-02-14T09:08:58.797Z</time>
      </trkpt>
      <trkpt lat="45.62111" lon="5.54265">
        <ele>270</ele>
        <time>2023-02-14T09:08:59.797Z</time>
      </trkpt>
      <trkpt lat="45.62109" lon="5.54264">
        <ele>270</ele>
        <time>2023-02-14T09:09:00.797Z</time>
      </trkpt>
      <trkpt lat="45.62107" lon="5.54263">
        <ele>270</ele>
        <time>2023-02-14T09:09:01.797Z</time>
      </trkpt>
      <trkpt lat="45.62104" lon="5.54262">
        <ele>269</ele>
        <time>2023-02-14T09:09:02.797Z</time>
      </trkpt>
      <trkpt lat="45.62102" lon="5.54262">
        <ele>269</ele>
        <time>2023-02-14T09:09:03.797Z</time>
      </trkpt>
      <trkpt lat="45.62099" lon="5.5426">
        <ele>269</ele>
        <time>2023-02-14T09:09:04.797Z</time>
      </trkpt>
      <trkpt lat="45.62097" lon="5.54259">
        <ele>269</ele>
        <time>2023-02-14T09:09:05.797Z</time>
      </trkpt>
      <trkpt lat="45.62094" lon="5.54257">
        <ele>269</ele>
        <time>2023-02-14T09:09:06.797Z</time>
      </trkpt>
      <trkpt lat="45.6209" lon="5.54256">
        <ele>269</ele>
        <time>2023-02-14T09:09:07.797Z</time>
      </trkpt>
      <trkpt lat="45.62087" lon="5.54254">
        <ele>268</ele>
        <time>2023-02-14T09:09:08.797Z</time>
      </trkpt>
      <trkpt lat="45.62084" lon="5.54252">
        <ele>268</ele>
        <time>2023-02-14T09:09:09.797Z</time>
      </trkpt>
      <trkpt lat="45.6208" lon="5.5425">
        <ele>268</ele>
        <time>2023-02-14T09:09:10.797Z</time>
      </trkpt>
      <trkpt lat="45.62076" lon="5.54249">
        <ele>268</ele>
        <time>2023-02-14T09:09:11.797Z</time>
      </trkpt>
      <trkpt lat="45.62072" lon="5.54247">
        <ele>268</ele>
        <time>2023-02-14T09:09:12.797Z</time>
      </trkpt>
      <trkpt lat="45.62067" lon="5.54244">
        <ele>267</ele>
        <time>2023-02-14T09:09:13.797Z</time>
      </trkpt>
      <trkpt lat="45.62062" lon="5.54242">
        <ele>267</ele>
        <time>2023-02-14T09:09:14.797Z</time>
      </trkpt>
      <trkpt lat="45.62058" lon="5.54239">
        <ele>267</ele>
        <time>2023-02-14T09:09:15.797Z</time>
      </trkpt>
      <trkpt lat="45.62053" lon="5.54236">
        <ele>267</ele>
        <time>2023-02-14T09:09:16.797Z</time>
      </trkpt>
      <trkpt lat="45.62047" lon="5.54233">
        <ele>267</ele>
        <time>2023-02-14T09:09:17.797Z</time>
      </trkpt>
      <trkpt lat="45.62042" lon="5.5423">
        <ele>266</ele>
        <time>2023-02-14T09:09:18.797Z</time>
      </trkpt>
      <trkpt lat="45.62037" lon="5.54227">
        <ele>266</ele>
        <time>2023-02-14T09:09:19.797Z</time>
      </trkpt>
      <trkpt lat="45.62032" lon="5.54224">
        <ele>266</ele>
        <time>2023-02-14T09:09:20.797Z</time>
      </trkpt>
      <trkpt lat="45.62027" lon="5.54221">
        <ele>266</ele>
        <time>2023-02-14T09:09:21.797Z</time>
      </trkpt>
      <trkpt lat="45.62022" lon="5.54217">
        <ele>266</ele>
        <time>2023-02-14T09:09:22.797Z</time>
      </trkpt>
      <trkpt lat="45.62017" lon="5.54214">
        <ele>265</ele>
        <time>2023-02-14T09:09:23.797Z</time>
      </trkpt>
      <trkpt lat="45.62012" lon="5.54211">
        <ele>265</ele>
        <time>2023-02-14T09:09:24.797Z</time>
      </trkpt>
      <trkpt lat="45.62008" lon="5.54209">
        <ele>265</ele>
        <time>2023-02-14T09:09:25.797Z</time>
      </trkpt>
      <trkpt lat="45.62003" lon="5.54206">
        <ele>265</ele>
        <time>2023-02-14T09:09:26.797Z</time>
      </trkpt>
      <trkpt lat="45.61999" lon="5.54204">
        <ele>265</ele>
        <time>2023-02-14T09:09:27.797Z</time>
      </trkpt>
      <trkpt lat="45.61995" lon="5.54202">
        <ele>265</ele>
        <time>2023-02-14T09:09:28.797Z</time>
      </trkpt>
      <trkpt lat="45.61991" lon="5.542">
        <ele>265</ele>
        <time>2023-02-14T09:09:29.797Z</time>
      </trkpt>
      <trkpt lat="45.61988" lon="5.54198">
        <ele>266</ele>
        <time>2023-02-14T09:09:30.797Z</time>
      </trkpt>
      <trkpt lat="45.61984" lon="5.54197">
        <ele>267</ele>
        <time>2023-02-14T09:09:31.797Z</time>
      </trkpt>
      <trkpt lat="45.61981" lon="5.54195">
        <ele>267</ele>
        <time>2023-02-14T09:09:32.797Z</time>
      </trkpt>
      <trkpt lat="45.61978" lon="5.54194">
        <ele>268</ele>
        <time>2023-02-14T09:09:33.797Z</time>
      </trkpt>
      <trkpt lat="45.61975" lon="5.54193">
        <ele>268</ele>
        <time>2023-02-14T09:09:34.797Z</time>
      </trkpt>
      <trkpt lat="45.61973" lon="5.54193">
        <ele>268</ele>
        <time>2023-02-14T09:09:35.797Z</time>
      </trkpt>
      <trkpt lat="45.6197" lon="5.54192">
        <ele>268</ele>
        <time>2023-02-14T09:09:36.797Z</time>
      </trkpt>
      <trkpt lat="45.61968" lon="5.5419">
        <ele>268</ele>
        <time>2023-02-14T09:09:37.797Z</time>
      </trkpt>
      <trkpt lat="45.61966" lon="5.54189">
        <ele>268</ele>
        <time>2023-02-14T09:09:38.797Z</time>
      </trkpt>
      <trkpt lat="45.61965" lon="5.54187">
        <ele>267</ele>
        <time>2023-02-14T09:09:39.797Z</time>
      </trkpt>
      <trkpt lat="45.61964" lon="5.54186">
        <ele>268</ele>
        <time>2023-02-14T09:09:40.797Z</time>
      </trkpt>
      <trkpt lat="45.61964" lon="5.54186">
        <ele>268</ele>
        <time>2023-02-14T09:09:41.797Z</time>
      </trkpt>
      <trkpt lat="45.61964" lon="5.54186">
        <ele>268</ele>
        <time>2023-02-14T09:09:42.797Z</time>
      </trkpt>
      <trkpt lat="45.61964" lon="5.54186">
        <ele>268</ele>
        <time>2023-02-14T09:09:43.797Z</time>
      </trkpt>
      <trkpt lat="45.61964" lon="5.54186">
        <ele>268</ele>
        <time>2023-02-14T09:09:44.797Z</time>
      </trkpt>
      <trkpt lat="45.61962" lon="5.54186">
        <ele>269</ele>
        <time>2023-02-14T09:10:30.422Z</time>
      </trkpt>
      <trkpt lat="45.61962" lon="5.54186">
        <ele>269</ele>
        <time>2023-02-14T09:10:31.422Z</time>
      </trkpt>
      <trkpt lat="45.61962" lon="5.54185">
        <ele>269</ele>
        <time>2023-02-14T09:10:32.422Z</time>
      </trkpt>
      <trkpt lat="45.61961" lon="5.54184">
        <ele>269</ele>
        <time>2023-02-14T09:10:33.422Z</time>
      </trkpt>
      <trkpt lat="45.61961" lon="5.54182">
        <ele>268</ele>
        <time>2023-02-14T09:10:34.422Z</time>
      </trkpt>
      <trkpt lat="45.61962" lon="5.54179">
        <ele>268</ele>
        <time>2023-02-14T09:10:35.422Z</time>
      </trkpt>
      <trkpt lat="45.61962" lon="5.54176">
        <ele>267</ele>
        <time>2023-02-14T09:10:36.422Z</time>
      </trkpt>
      <trkpt lat="45.61964" lon="5.54172">
        <ele>267</ele>
        <time>2023-02-14T09:10:37.422Z</time>
      </trkpt>
      <trkpt lat="45.61965" lon="5.54167">
        <ele>265</ele>
        <time>2023-02-14T09:10:38.422Z</time>
      </trkpt>
      <trkpt lat="45.61967" lon="5.54162">
        <ele>264</ele>
        <time>2023-02-14T09:10:39.422Z</time>
      </trkpt>
      <trkpt lat="45.6197" lon="5.54157">
        <ele>263</ele>
        <time>2023-02-14T09:10:40.422Z</time>
      </trkpt>
      <trkpt lat="45.61973" lon="5.5415">
        <ele>262</ele>
        <time>2023-02-14T09:10:41.422Z</time>
      </trkpt>
      <trkpt lat="45.61976" lon="5.54143">
        <ele>261</ele>
        <time>2023-02-14T09:10:42.422Z</time>
      </trkpt>
      <trkpt lat="45.61979" lon="5.54135">
        <ele>259</ele>
        <time>2023-02-14T09:10:43.422Z</time>
      </trkpt>
      <trkpt lat="45.61983" lon="5.54127">
        <ele>256</ele>
        <time>2023-02-14T09:10:44.422Z</time>
      </trkpt>
      <trkpt lat="45.61988" lon="5.54119">
        <ele>253</ele>
        <time>2023-02-14T09:10:45.422Z</time>
      </trkpt>
      <trkpt lat="45.61993" lon="5.54112">
        <ele>251</ele>
        <time>2023-02-14T09:10:46.422Z</time>
      </trkpt>
      <trkpt lat="45.61999" lon="5.54104">
        <ele>251</ele>
        <time>2023-02-14T09:10:47.422Z</time>
      </trkpt>
      <trkpt lat="45.62006" lon="5.54096">
        <ele>252</ele>
        <time>2023-02-14T09:10:48.422Z</time>
      </trkpt>
      <trkpt lat="45.62013" lon="5.54089">
        <ele>251</ele>
        <time>2023-02-14T09:10:49.422Z</time>
      </trkpt>
      <trkpt lat="45.62021" lon="5.54082">
        <ele>249</ele>
        <time>2023-02-14T09:10:50.422Z</time>
      </trkpt>
      <trkpt lat="45.62027" lon="5.54076">
        <ele>247</ele>
        <time>2023-02-14T09:10:51.422Z</time>
      </trkpt>
      <trkpt lat="45.62034" lon="5.5407">
        <ele>246</ele>
        <time>2023-02-14T09:10:52.422Z</time>
      </trkpt>
      <trkpt lat="45.62041" lon="5.54064">
        <ele>245</ele>
        <time>2023-02-14T09:10:53.422Z</time>
      </trkpt>
      <trkpt lat="45.62048" lon="5.54059">
        <ele>243</ele>
        <time>2023-02-14T09:10:54.422Z</time>
      </trkpt>
      <trkpt lat="45.62054" lon="5.54054">
        <ele>243</ele>
        <time>2023-02-14T09:10:55.422Z</time>
      </trkpt>
      <trkpt lat="45.62061" lon="5.5405">
        <ele>242</ele>
        <time>2023-02-14T09:10:56.422Z</time>
      </trkpt>
      <trkpt lat="45.62067" lon="5.54046">
        <ele>242</ele>
        <time>2023-02-14T09:10:57.422Z</time>
      </trkpt>
      <trkpt lat="45.62074" lon="5.54042">
        <ele>241</ele>
        <time>2023-02-14T09:10:58.422Z</time>
      </trkpt>
      <trkpt lat="45.62079" lon="5.54039">
        <ele>241</ele>
        <time>2023-02-14T09:10:59.422Z</time>
      </trkpt>
      <trkpt lat="45.62083" lon="5.54036">
        <ele>240</ele>
        <time>2023-02-14T09:11:00.422Z</time>
      </trkpt>
      <trkpt lat="45.62087" lon="5.54033">
        <ele>241</ele>
        <time>2023-02-14T09:11:01.422Z</time>
      </trkpt>
      <trkpt lat="45.62091" lon="5.5403">
        <ele>241</ele>
        <time>2023-02-14T09:11:02.422Z</time>
      </trkpt>
      <trkpt lat="45.62093" lon="5.54027">
        <ele>240</ele>
        <time>2023-02-14T09:11:03.422Z</time>
      </trkpt>
      <trkpt lat="45.62093" lon="5.54025">
        <ele>236</ele>
        <time>2023-02-14T09:11:04.422Z</time>
      </trkpt>
      <trkpt lat="45.62092" lon="5.54024">
        <ele>234</ele>
        <time>2023-02-14T09:11:05.422Z</time>
      </trkpt>
      <trkpt lat="45.62089" lon="5.54024">
        <ele>233</ele>
        <time>2023-02-14T09:11:06.422Z</time>
      </trkpt>
      <trkpt lat="45.62087" lon="5.54024">
        <ele>232</ele>
        <time>2023-02-14T09:11:07.422Z</time>
      </trkpt>
      <trkpt lat="45.62084" lon="5.54024">
        <ele>232</ele>
        <time>2023-02-14T09:11:08.422Z</time>
      </trkpt>
      <trkpt lat="45.6208" lon="5.54024">
        <ele>232</ele>
        <time>2023-02-14T09:11:09.422Z</time>
      </trkpt>
      <trkpt lat="45.62076" lon="5.54024">
        <ele>232</ele>
        <time>2023-02-14T09:11:10.422Z</time>
      </trkpt>
      <trkpt lat="45.62072" lon="5.54025">
        <ele>233</ele>
        <time>2023-02-14T09:11:11.422Z</time>
      </trkpt>
      <trkpt lat="45.62067" lon="5.54025">
        <ele>234</ele>
        <time>2023-02-14T09:11:12.422Z</time>
      </trkpt>
      <trkpt lat="45.62063" lon="5.54025">
        <ele>234</ele>
        <time>2023-02-14T09:11:13.422Z</time>
      </trkpt>
      <trkpt lat="45.62058" lon="5.54025">
        <ele>235</ele>
        <time>2023-02-14T09:11:14.422Z</time>
      </trkpt>
      <trkpt lat="45.62054" lon="5.54025">
        <ele>236</ele>
        <time>2023-02-14T09:11:15.422Z</time>
      </trkpt>
      <trkpt lat="45.62049" lon="5.54025">
        <ele>236</ele>
        <time>2023-02-14T09:11:16.422Z</time>
      </trkpt>
      <trkpt lat="45.62045" lon="5.54025">
        <ele>236</ele>
        <time>2023-02-14T09:11:17.422Z</time>
      </trkpt>
      <trkpt lat="45.6204" lon="5.54025">
        <ele>237</ele>
        <time>2023-02-14T09:11:18.422Z</time>
      </trkpt>
      <trkpt lat="45.62035" lon="5.54026">
        <ele>237</ele>
        <time>2023-02-14T09:11:19.422Z</time>
      </trkpt>
      <trkpt lat="45.6203" lon="5.54026">
        <ele>237</ele>
        <time>2023-02-14T09:11:20.422Z</time>
      </trkpt>
      <trkpt lat="45.62026" lon="5.54025">
        <ele>237</ele>
        <time>2023-02-14T09:11:21.422Z</time>
      </trkpt>
      <trkpt lat="45.62022" lon="5.54022">
        <ele>237</ele>
        <time>2023-02-14T09:11:22.422Z</time>
      </trkpt>
      <trkpt lat="45.62018" lon="5.54017">
        <ele>236</ele>
        <time>2023-02-14T09:11:23.422Z</time>
      </trkpt>
      <trkpt lat="45.62016" lon="5.5401">
        <ele>236</ele>
        <time>2023-02-14T09:11:24.422Z</time>
      </trkpt>
      <trkpt lat="45.62014" lon="5.54003">
        <ele>236</ele>
        <time>2023-02-14T09:11:25.422Z</time>
      </trkpt>
      <trkpt lat="45.62012" lon="5.53995">
        <ele>236</ele>
        <time>2023-02-14T09:11:26.422Z</time>
      </trkpt>
      <trkpt lat="45.6201" lon="5.53987">
        <ele>236</ele>
        <time>2023-02-14T09:11:27.422Z</time>
      </trkpt>
      <trkpt lat="45.62009" lon="5.53979">
        <ele>236</ele>
        <time>2023-02-14T09:11:28.422Z</time>
      </trkpt>
      <trkpt lat="45.62007" lon="5.53971">
        <ele>236</ele>
        <time>2023-02-14T09:11:29.422Z</time>
      </trkpt>
      <trkpt lat="45.62006" lon="5.53964">
        <ele>236</ele>
        <time>2023-02-14T09:11:30.422Z</time>
      </trkpt>
      <trkpt lat="45.62004" lon="5.53956">
        <ele>236</ele>
        <time>2023-02-14T09:11:31.422Z</time>
      </trkpt>
      <trkpt lat="45.62003" lon="5.53949">
        <ele>236</ele>
        <time>2023-02-14T09:11:32.422Z</time>
      </trkpt>
      <trkpt lat="45.62002" lon="5.53941">
        <ele>237</ele>
        <time>2023-02-14T09:11:33.422Z</time>
      </trkpt>
      <trkpt lat="45.62" lon="5.53934">
        <ele>237</ele>
        <time>2023-02-14T09:11:34.422Z</time>
      </trkpt>
      <trkpt lat="45.61999" lon="5.53927">
        <ele>237</ele>
        <time>2023-02-14T09:11:35.422Z</time>
      </trkpt>
      <trkpt lat="45.61998" lon="5.53921">
        <ele>238</ele>
        <time>2023-02-14T09:11:36.422Z</time>
      </trkpt>
      <trkpt lat="45.61997" lon="5.53915">
        <ele>238</ele>
        <time>2023-02-14T09:11:37.422Z</time>
      </trkpt>
      <trkpt lat="45.61996" lon="5.53908">
        <ele>238</ele>
        <time>2023-02-14T09:11:38.422Z</time>
      </trkpt>
      <trkpt lat="45.61995" lon="5.53902">
        <ele>239</ele>
        <time>2023-02-14T09:11:39.422Z</time>
      </trkpt>
      <trkpt lat="45.61994" lon="5.53896">
        <ele>239</ele>
        <time>2023-02-14T09:11:40.422Z</time>
      </trkpt>
      <trkpt lat="45.61993" lon="5.5389">
        <ele>239</ele>
        <time>2023-02-14T09:11:41.422Z</time>
      </trkpt>
      <trkpt lat="45.61992" lon="5.53884">
        <ele>240</ele>
        <time>2023-02-14T09:11:42.422Z</time>
      </trkpt>
      <trkpt lat="45.6199" lon="5.53878">
        <ele>240</ele>
        <time>2023-02-14T09:11:43.422Z</time>
      </trkpt>
      <trkpt lat="45.61989" lon="5.53871">
        <ele>240</ele>
        <time>2023-02-14T09:11:44.422Z</time>
      </trkpt>
      <trkpt lat="45.61988" lon="5.53865">
        <ele>240</ele>
        <time>2023-02-14T09:11:45.422Z</time>
      </trkpt>
      <trkpt lat="45.61988" lon="5.53859">
        <ele>240</ele>
        <time>2023-02-14T09:11:46.422Z</time>
      </trkpt>
      <trkpt lat="45.61986" lon="5.53853">
        <ele>240</ele>
        <time>2023-02-14T09:11:47.422Z</time>
      </trkpt>
      <trkpt lat="45.61985" lon="5.53847">
        <ele>241</ele>
        <time>2023-02-14T09:11:48.422Z</time>
      </trkpt>
      <trkpt lat="45.61982" lon="5.53842">
        <ele>241</ele>
        <time>2023-02-14T09:11:49.422Z</time>
      </trkpt>
      <trkpt lat="45.61979" lon="5.53838">
        <ele>241</ele>
        <time>2023-02-14T09:11:50.422Z</time>
      </trkpt>
      <trkpt lat="45.61975" lon="5.53836">
        <ele>242</ele>
        <time>2023-02-14T09:11:51.422Z</time>
      </trkpt>
      <trkpt lat="45.61971" lon="5.53835">
        <ele>242</ele>
        <time>2023-02-14T09:11:52.422Z</time>
      </trkpt>
      <trkpt lat="45.61967" lon="5.53835">
        <ele>242</ele>
        <time>2023-02-14T09:11:53.422Z</time>
      </trkpt>
      <trkpt lat="45.61963" lon="5.53835">
        <ele>242</ele>
        <time>2023-02-14T09:11:54.422Z</time>
      </trkpt>
      <trkpt lat="45.61959" lon="5.53835">
        <ele>242</ele>
        <time>2023-02-14T09:11:55.422Z</time>
      </trkpt>
      <trkpt lat="45.61955" lon="5.53835">
        <ele>242</ele>
        <time>2023-02-14T09:11:56.422Z</time>
      </trkpt>
      <trkpt lat="45.61951" lon="5.53836">
        <ele>242</ele>
        <time>2023-02-14T09:11:57.422Z</time>
      </trkpt>
      <trkpt lat="45.61947" lon="5.53836">
        <ele>242</ele>
        <time>2023-02-14T09:11:58.422Z</time>
      </trkpt>
      <trkpt lat="45.61944" lon="5.53836">
        <ele>241</ele>
        <time>2023-02-14T09:11:59.422Z</time>
      </trkpt>
      <trkpt lat="45.6194" lon="5.53837">
        <ele>242</ele>
        <time>2023-02-14T09:12:00.422Z</time>
      </trkpt>
      <trkpt lat="45.61937" lon="5.53837">
        <ele>242</ele>
        <time>2023-02-14T09:12:01.422Z</time>
      </trkpt>
      <trkpt lat="45.61933" lon="5.53838">
        <ele>242</ele>
        <time>2023-02-14T09:12:02.422Z</time>
      </trkpt>
      <trkpt lat="45.6193" lon="5.53839">
        <ele>242</ele>
        <time>2023-02-14T09:12:03.422Z</time>
      </trkpt>
      <trkpt lat="45.61926" lon="5.53839">
        <ele>242</ele>
        <time>2023-02-14T09:12:04.422Z</time>
      </trkpt>
      <trkpt lat="45.61923" lon="5.5384">
        <ele>241</ele>
        <time>2023-02-14T09:12:05.422Z</time>
      </trkpt>
      <trkpt lat="45.6192" lon="5.5384">
        <ele>241</ele>
        <time>2023-02-14T09:12:06.422Z</time>
      </trkpt>
      <trkpt lat="45.61916" lon="5.53841">
        <ele>241</ele>
        <time>2023-02-14T09:12:07.422Z</time>
      </trkpt>
      <trkpt lat="45.61913" lon="5.53842">
        <ele>241</ele>
        <time>2023-02-14T09:12:08.422Z</time>
      </trkpt>
      <trkpt lat="45.61909" lon="5.53843">
        <ele>241</ele>
        <time>2023-02-14T09:12:09.422Z</time>
      </trkpt>
      <trkpt lat="45.61905" lon="5.53844">
        <ele>242</ele>
        <time>2023-02-14T09:12:10.422Z</time>
      </trkpt>
      <trkpt lat="45.61901" lon="5.53845">
        <ele>242</ele>
        <time>2023-02-14T09:12:11.422Z</time>
      </trkpt>
      <trkpt lat="45.61897" lon="5.53846">
        <ele>243</ele>
        <time>2023-02-14T09:12:12.422Z</time>
      </trkpt>
      <trkpt lat="45.61893" lon="5.53846">
        <ele>243</ele>
        <time>2023-02-14T09:12:13.422Z</time>
      </trkpt>
      <trkpt lat="45.6189" lon="5.53846">
        <ele>243</ele>
        <time>2023-02-14T09:12:14.422Z</time>
      </trkpt>
      <trkpt lat="45.61886" lon="5.53846">
        <ele>244</ele>
        <time>2023-02-14T09:12:15.422Z</time>
      </trkpt>
      <trkpt lat="45.61882" lon="5.53843">
        <ele>244</ele>
        <time>2023-02-14T09:12:16.422Z</time>
      </trkpt>
      <trkpt lat="45.61879" lon="5.5384">
        <ele>244</ele>
        <time>2023-02-14T09:12:17.422Z</time>
      </trkpt>
      <trkpt lat="45.61877" lon="5.53836">
        <ele>244</ele>
        <time>2023-02-14T09:12:18.422Z</time>
      </trkpt>
      <trkpt lat="45.61874" lon="5.53831">
        <ele>244</ele>
        <time>2023-02-14T09:12:19.422Z</time>
      </trkpt>
      <trkpt lat="45.61872" lon="5.53827">
        <ele>245</ele>
        <time>2023-02-14T09:12:20.422Z</time>
      </trkpt>
      <trkpt lat="45.61869" lon="5.53822">
        <ele>245</ele>
        <time>2023-02-14T09:12:21.422Z</time>
      </trkpt>
      <trkpt lat="45.61867" lon="5.53818">
        <ele>245</ele>
        <time>2023-02-14T09:12:22.422Z</time>
      </trkpt>
      <trkpt lat="45.61865" lon="5.53813">
        <ele>245</ele>
        <time>2023-02-14T09:12:23.422Z</time>
      </trkpt>
      <trkpt lat="45.61863" lon="5.53809">
        <ele>246</ele>
        <time>2023-02-14T09:12:24.422Z</time>
      </trkpt>
      <trkpt lat="45.6186" lon="5.53805">
        <ele>246</ele>
        <time>2023-02-14T09:12:25.422Z</time>
      </trkpt>
      <trkpt lat="45.61858" lon="5.53801">
        <ele>246</ele>
        <time>2023-02-14T09:12:26.422Z</time>
      </trkpt>
      <trkpt lat="45.61856" lon="5.53796">
        <ele>245</ele>
        <time>2023-02-14T09:12:27.422Z</time>
      </trkpt>
      <trkpt lat="45.61854" lon="5.53792">
        <ele>245</ele>
        <time>2023-02-14T09:12:28.422Z</time>
      </trkpt>
      <trkpt lat="45.61852" lon="5.53788">
        <ele>246</ele>
        <time>2023-02-14T09:12:29.422Z</time>
      </trkpt>
      <trkpt lat="45.6185" lon="5.53784">
        <ele>246</ele>
        <time>2023-02-14T09:12:30.422Z</time>
      </trkpt>
      <trkpt lat="45.61849" lon="5.5378">
        <ele>245</ele>
        <time>2023-02-14T09:12:31.422Z</time>
      </trkpt>
      <trkpt lat="45.61848" lon="5.53775">
        <ele>245</ele>
        <time>2023-02-14T09:12:32.422Z</time>
      </trkpt>
      <trkpt lat="45.61847" lon="5.53771">
        <ele>246</ele>
        <time>2023-02-14T09:12:33.422Z</time>
      </trkpt>
      <trkpt lat="45.61846" lon="5.53766">
        <ele>245</ele>
        <time>2023-02-14T09:12:34.422Z</time>
      </trkpt>
      <trkpt lat="45.61845" lon="5.53762">
        <ele>246</ele>
        <time>2023-02-14T09:12:35.422Z</time>
      </trkpt>
      <trkpt lat="45.61844" lon="5.53757">
        <ele>246</ele>
        <time>2023-02-14T09:12:36.422Z</time>
      </trkpt>
      <trkpt lat="45.61843" lon="5.53753">
        <ele>247</ele>
        <time>2023-02-14T09:12:37.422Z</time>
      </trkpt>
      <trkpt lat="45.61843" lon="5.53749">
        <ele>247</ele>
        <time>2023-02-14T09:12:38.422Z</time>
      </trkpt>
      <trkpt lat="45.61842" lon="5.53746">
        <ele>248</ele>
        <time>2023-02-14T09:12:39.422Z</time>
      </trkpt>
      <trkpt lat="45.61842" lon="5.53742">
        <ele>248</ele>
        <time>2023-02-14T09:12:40.422Z</time>
      </trkpt>
      <trkpt lat="45.61841" lon="5.53739">
        <ele>248</ele>
        <time>2023-02-14T09:12:41.422Z</time>
      </trkpt>
      <trkpt lat="45.6184" lon="5.53735">
        <ele>248</ele>
        <time>2023-02-14T09:12:42.422Z</time>
      </trkpt>
      <trkpt lat="45.6184" lon="5.53732">
        <ele>248</ele>
        <time>2023-02-14T09:12:43.422Z</time>
      </trkpt>
      <trkpt lat="45.61839" lon="5.53728">
        <ele>248</ele>
        <time>2023-02-14T09:12:44.422Z</time>
      </trkpt>
      <trkpt lat="45.61838" lon="5.53725">
        <ele>249</ele>
        <time>2023-02-14T09:12:45.422Z</time>
      </trkpt>
      <trkpt lat="45.61838" lon="5.53721">
        <ele>249</ele>
        <time>2023-02-14T09:12:46.422Z</time>
      </trkpt>
      <trkpt lat="45.61837" lon="5.53717">
        <ele>249</ele>
        <time>2023-02-14T09:12:47.422Z</time>
      </trkpt>
      <trkpt lat="45.61837" lon="5.53714">
        <ele>249</ele>
        <time>2023-02-14T09:12:48.422Z</time>
      </trkpt>
      <trkpt lat="45.61837" lon="5.53711">
        <ele>248</ele>
        <time>2023-02-14T09:12:49.422Z</time>
      </trkpt>
      <trkpt lat="45.61836" lon="5.53707">
        <ele>248</ele>
        <time>2023-02-14T09:12:50.422Z</time>
      </trkpt>
      <trkpt lat="45.61836" lon="5.53704">
        <ele>248</ele>
        <time>2023-02-14T09:12:51.422Z</time>
      </trkpt>
      <trkpt lat="45.61836" lon="5.537">
        <ele>248</ele>
        <time>2023-02-14T09:12:52.422Z</time>
      </trkpt>
      <trkpt lat="45.61835" lon="5.53696">
        <ele>249</ele>
        <time>2023-02-14T09:12:53.422Z</time>
      </trkpt>
      <trkpt lat="45.61835" lon="5.53693">
        <ele>249</ele>
        <time>2023-02-14T09:12:54.422Z</time>
      </trkpt>
      <trkpt lat="45.61835" lon="5.5369">
        <ele>249</ele>
        <time>2023-02-14T09:12:55.422Z</time>
      </trkpt>
      <trkpt lat="45.61834" lon="5.53687">
        <ele>249</ele>
        <time>2023-02-14T09:12:56.422Z</time>
      </trkpt>
      <trkpt lat="45.61833" lon="5.53684">
        <ele>250</ele>
        <time>2023-02-14T09:12:57.422Z</time>
      </trkpt>
      <trkpt lat="45.61833" lon="5.53681">
        <ele>251</ele>
        <time>2023-02-14T09:12:58.422Z</time>
      </trkpt>
      <trkpt lat="45.61833" lon="5.53678">
        <ele>251</ele>
        <time>2023-02-14T09:12:59.422Z</time>
      </trkpt>
      <trkpt lat="45.61832" lon="5.53676">
        <ele>252</ele>
        <time>2023-02-14T09:13:00.422Z</time>
      </trkpt>
      <trkpt lat="45.61832" lon="5.53674">
        <ele>253</ele>
        <time>2023-02-14T09:13:01.422Z</time>
      </trkpt>
      <trkpt lat="45.61832" lon="5.53671">
        <ele>254</ele>
        <time>2023-02-14T09:13:02.422Z</time>
      </trkpt>
      <trkpt lat="45.61832" lon="5.53669">
        <ele>255</ele>
        <time>2023-02-14T09:13:03.422Z</time>
      </trkpt>
      <trkpt lat="45.61832" lon="5.53667">
        <ele>256</ele>
        <time>2023-02-14T09:13:04.422Z</time>
      </trkpt>
      <trkpt lat="45.61831" lon="5.53665">
        <ele>257</ele>
        <time>2023-02-14T09:13:05.422Z</time>
      </trkpt>
      <trkpt lat="45.61831" lon="5.53663">
        <ele>258</ele>
        <time>2023-02-14T09:13:06.422Z</time>
      </trkpt>
      <trkpt lat="45.61832" lon="5.53661">
        <ele>259</ele>
        <time>2023-02-14T09:13:07.422Z</time>
      </trkpt>
      <trkpt lat="45.61831" lon="5.53659">
        <ele>260</ele>
        <time>2023-02-14T09:13:08.422Z</time>
      </trkpt>
      <trkpt lat="45.61831" lon="5.53657">
        <ele>261</ele>
        <time>2023-02-14T09:13:09.422Z</time>
      </trkpt>
      <trkpt lat="45.61831" lon="5.53655">
        <ele>261</ele>
        <time>2023-02-14T09:13:10.422Z</time>
      </trkpt>
      <trkpt lat="45.6183" lon="5.53654">
        <ele>262</ele>
        <time>2023-02-14T09:13:11.422Z</time>
      </trkpt>
      <trkpt lat="45.6183" lon="5.53652">
        <ele>263</ele>
        <time>2023-02-14T09:13:12.422Z</time>
      </trkpt>
      <trkpt lat="45.61829" lon="5.5365">
        <ele>263</ele>
        <time>2023-02-14T09:13:13.422Z</time>
      </trkpt>
      <trkpt lat="45.61828" lon="5.53649">
        <ele>263</ele>
        <time>2023-02-14T09:13:14.422Z</time>
      </trkpt>
      <trkpt lat="45.61826" lon="5.53648">
        <ele>262</ele>
        <time>2023-02-14T09:13:15.422Z</time>
      </trkpt>
      <trkpt lat="45.61825" lon="5.53647">
        <ele>261</ele>
        <time>2023-02-14T09:13:16.422Z</time>
      </trkpt>
      <trkpt lat="45.61823" lon="5.53646">
        <ele>262</ele>
        <time>2023-02-14T09:13:17.422Z</time>
      </trkpt>
      <trkpt lat="45.61822" lon="5.53645">
        <ele>263</ele>
        <time>2023-02-14T09:13:18.422Z</time>
      </trkpt>
      <trkpt lat="45.61821" lon="5.53645">
        <ele>264</ele>
        <time>2023-02-14T09:13:19.422Z</time>
      </trkpt>
      <trkpt lat="45.6182" lon="5.53645">
        <ele>265</ele>
        <time>2023-02-14T09:13:20.422Z</time>
      </trkpt>
      <trkpt lat="45.61818" lon="5.53644">
        <ele>265</ele>
        <time>2023-02-14T09:13:21.422Z</time>
      </trkpt>
      <trkpt lat="45.61816" lon="5.53644">
        <ele>264</ele>
        <time>2023-02-14T09:13:22.422Z</time>
      </trkpt>
      <trkpt lat="45.61815" lon="5.53643">
        <ele>265</ele>
        <time>2023-02-14T09:13:23.422Z</time>
      </trkpt>
      <trkpt lat="45.61813" lon="5.53644">
        <ele>266</ele>
        <time>2023-02-14T09:13:24.422Z</time>
      </trkpt>
      <trkpt lat="45.61811" lon="5.53644">
        <ele>266</ele>
        <time>2023-02-14T09:13:25.422Z</time>
      </trkpt>
      <trkpt lat="45.6181" lon="5.53644">
        <ele>267</ele>
        <time>2023-02-14T09:13:26.422Z</time>
      </trkpt>
      <trkpt lat="45.61808" lon="5.53644">
        <ele>268</ele>
        <time>2023-02-14T09:13:27.422Z</time>
      </trkpt>
      <trkpt lat="45.61806" lon="5.53644">
        <ele>269</ele>
        <time>2023-02-14T09:13:28.422Z</time>
      </trkpt>
      <trkpt lat="45.61804" lon="5.53645">
        <ele>270</ele>
        <time>2023-02-14T09:13:29.422Z</time>
      </trkpt>
      <trkpt lat="45.61802" lon="5.53645">
        <ele>271</ele>
        <time>2023-02-14T09:13:30.422Z</time>
      </trkpt>
      <trkpt lat="45.61799" lon="5.53646">
        <ele>272</ele>
        <time>2023-02-14T09:13:31.422Z</time>
      </trkpt>
      <trkpt lat="45.61797" lon="5.53646">
        <ele>272</ele>
        <time>2023-02-14T09:13:32.422Z</time>
      </trkpt>
      <trkpt lat="45.61794" lon="5.53646">
        <ele>272</ele>
        <time>2023-02-14T09:13:33.422Z</time>
      </trkpt>
      <trkpt lat="45.61791" lon="5.53645">
        <ele>274</ele>
        <time>2023-02-14T09:13:34.422Z</time>
      </trkpt>
      <trkpt lat="45.61788" lon="5.53645">
        <ele>273</ele>
        <time>2023-02-14T09:13:35.422Z</time>
      </trkpt>
      <trkpt lat="45.61785" lon="5.53645">
        <ele>274</ele>
        <time>2023-02-14T09:13:36.422Z</time>
      </trkpt>
      <trkpt lat="45.61783" lon="5.53645">
        <ele>276</ele>
        <time>2023-02-14T09:13:37.422Z</time>
      </trkpt>
      <trkpt lat="45.6178" lon="5.53645">
        <ele>278</ele>
        <time>2023-02-14T09:13:38.422Z</time>
      </trkpt>
      <trkpt lat="45.61778" lon="5.53645">
        <ele>277</ele>
        <time>2023-02-14T09:13:39.422Z</time>
      </trkpt>
      <trkpt lat="45.61774" lon="5.53646">
        <ele>277</ele>
        <time>2023-02-14T09:13:40.422Z</time>
      </trkpt>
      <trkpt lat="45.61771" lon="5.53647">
        <ele>277</ele>
        <time>2023-02-14T09:13:41.422Z</time>
      </trkpt>
      <trkpt lat="45.61767" lon="5.53647">
        <ele>277</ele>
        <time>2023-02-14T09:13:42.422Z</time>
      </trkpt>
      <trkpt lat="45.61764" lon="5.53647">
        <ele>277</ele>
        <time>2023-02-14T09:13:43.422Z</time>
      </trkpt>
      <trkpt lat="45.6176" lon="5.53646">
        <ele>276</ele>
        <time>2023-02-14T09:13:44.422Z</time>
      </trkpt>
      <trkpt lat="45.61757" lon="5.53646">
        <ele>276</ele>
        <time>2023-02-14T09:13:45.422Z</time>
      </trkpt>
      <trkpt lat="45.61753" lon="5.53645">
        <ele>274</ele>
        <time>2023-02-14T09:13:46.422Z</time>
      </trkpt>
      <trkpt lat="45.6175" lon="5.53644">
        <ele>271</ele>
        <time>2023-02-14T09:13:47.422Z</time>
      </trkpt>
      <trkpt lat="45.61746" lon="5.53643">
        <ele>269</ele>
        <time>2023-02-14T09:13:48.422Z</time>
      </trkpt>
      <trkpt lat="45.61743" lon="5.53643">
        <ele>268</ele>
        <time>2023-02-14T09:13:49.422Z</time>
      </trkpt>
      <trkpt lat="45.6174" lon="5.53643">
        <ele>267</ele>
        <time>2023-02-14T09:13:50.422Z</time>
      </trkpt>
      <trkpt lat="45.61737" lon="5.53642">
        <ele>267</ele>
        <time>2023-02-14T09:13:51.422Z</time>
      </trkpt>
      <trkpt lat="45.61734" lon="5.53642">
        <ele>266</ele>
        <time>2023-02-14T09:13:52.422Z</time>
      </trkpt>
      <trkpt lat="45.61732" lon="5.53642">
        <ele>265</ele>
        <time>2023-02-14T09:13:53.422Z</time>
      </trkpt>
      <trkpt lat="45.61729" lon="5.53642">
        <ele>265</ele>
        <time>2023-02-14T09:13:54.422Z</time>
      </trkpt>
      <trkpt lat="45.61726" lon="5.53642">
        <ele>265</ele>
        <time>2023-02-14T09:13:55.422Z</time>
      </trkpt>
      <trkpt lat="45.61724" lon="5.53641">
        <ele>264</ele>
        <time>2023-02-14T09:13:56.422Z</time>
      </trkpt>
      <trkpt lat="45.61721" lon="5.5364">
        <ele>264</ele>
        <time>2023-02-14T09:13:57.422Z</time>
      </trkpt>
      <trkpt lat="45.61718" lon="5.5364">
        <ele>263</ele>
        <time>2023-02-14T09:13:58.422Z</time>
      </trkpt>
      <trkpt lat="45.61715" lon="5.53639">
        <ele>262</ele>
        <time>2023-02-14T09:13:59.422Z</time>
      </trkpt>
      <trkpt lat="45.61712" lon="5.53638">
        <ele>261</ele>
        <time>2023-02-14T09:14:00.422Z</time>
      </trkpt>
      <trkpt lat="45.61709" lon="5.53637">
        <ele>260</ele>
        <time>2023-02-14T09:14:01.422Z</time>
      </trkpt>
      <trkpt lat="45.61707" lon="5.53636">
        <ele>258</ele>
        <time>2023-02-14T09:14:02.422Z</time>
      </trkpt>
      <trkpt lat="45.61704" lon="5.53635">
        <ele>258</ele>
        <time>2023-02-14T09:14:03.422Z</time>
      </trkpt>
      <trkpt lat="45.617" lon="5.53634">
        <ele>258</ele>
        <time>2023-02-14T09:14:04.422Z</time>
      </trkpt>
      <trkpt lat="45.61697" lon="5.53634">
        <ele>258</ele>
        <time>2023-02-14T09:14:05.422Z</time>
      </trkpt>
      <trkpt lat="45.61693" lon="5.53634">
        <ele>258</ele>
        <time>2023-02-14T09:14:06.422Z</time>
      </trkpt>
      <trkpt lat="45.6169" lon="5.53634">
        <ele>257</ele>
        <time>2023-02-14T09:14:07.422Z</time>
      </trkpt>
      <trkpt lat="45.61686" lon="5.53634">
        <ele>257</ele>
        <time>2023-02-14T09:14:08.422Z</time>
      </trkpt>
      <trkpt lat="45.61683" lon="5.53634">
        <ele>257</ele>
        <time>2023-02-14T09:14:09.422Z</time>
      </trkpt>
      <trkpt lat="45.61681" lon="5.53634">
        <ele>257</ele>
        <time>2023-02-14T09:14:10.422Z</time>
      </trkpt>
      <trkpt lat="45.61678" lon="5.53634">
        <ele>257</ele>
        <time>2023-02-14T09:14:11.422Z</time>
      </trkpt>
      <trkpt lat="45.61675" lon="5.53634">
        <ele>257</ele>
        <time>2023-02-14T09:14:12.422Z</time>
      </trkpt>
      <trkpt lat="45.61673" lon="5.53634">
        <ele>258</ele>
        <time>2023-02-14T09:14:13.422Z</time>
      </trkpt>
      <trkpt lat="45.6167" lon="5.53633">
        <ele>258</ele>
        <time>2023-02-14T09:14:14.422Z</time>
      </trkpt>
      <trkpt lat="45.61668" lon="5.53633">
        <ele>258</ele>
        <time>2023-02-14T09:14:15.422Z</time>
      </trkpt>
      <trkpt lat="45.61665" lon="5.53633">
        <ele>258</ele>
        <time>2023-02-14T09:14:16.422Z</time>
      </trkpt>
      <trkpt lat="45.61663" lon="5.53633">
        <ele>258</ele>
        <time>2023-02-14T09:14:17.422Z</time>
      </trkpt>
      <trkpt lat="45.6166" lon="5.53633">
        <ele>258</ele>
        <time>2023-02-14T09:14:18.422Z</time>
      </trkpt>
      <trkpt lat="45.61659" lon="5.53632">
        <ele>259</ele>
        <time>2023-02-14T09:14:19.422Z</time>
      </trkpt>
      <trkpt lat="45.61657" lon="5.53632">
        <ele>259</ele>
        <time>2023-02-14T09:14:20.422Z</time>
      </trkpt>
      <trkpt lat="45.61655" lon="5.53632">
        <ele>261</ele>
        <time>2023-02-14T09:14:21.422Z</time>
      </trkpt>
      <trkpt lat="45.61653" lon="5.53632">
        <ele>261</ele>
        <time>2023-02-14T09:14:22.422Z</time>
      </trkpt>
      <trkpt lat="45.6165" lon="5.53632">
        <ele>261</ele>
        <time>2023-02-14T09:14:23.422Z</time>
      </trkpt>
      <trkpt lat="45.61648" lon="5.53632">
        <ele>261</ele>
        <time>2023-02-14T09:14:24.422Z</time>
      </trkpt>
      <trkpt lat="45.61645" lon="5.53632">
        <ele>262</ele>
        <time>2023-02-14T09:14:25.422Z</time>
      </trkpt>
      <trkpt lat="45.61643" lon="5.53632">
        <ele>262</ele>
        <time>2023-02-14T09:14:26.422Z</time>
      </trkpt>
      <trkpt lat="45.6164" lon="5.53632">
        <ele>262</ele>
        <time>2023-02-14T09:14:27.422Z</time>
      </trkpt>
      <trkpt lat="45.61638" lon="5.53631">
        <ele>261</ele>
        <time>2023-02-14T09:14:28.422Z</time>
      </trkpt>
      <trkpt lat="45.61635" lon="5.53631">
        <ele>261</ele>
        <time>2023-02-14T09:14:29.422Z</time>
      </trkpt>
      <trkpt lat="45.61633" lon="5.5363">
        <ele>262</ele>
        <time>2023-02-14T09:14:30.422Z</time>
      </trkpt>
      <trkpt lat="45.6163" lon="5.5363">
        <ele>262</ele>
        <time>2023-02-14T09:14:31.422Z</time>
      </trkpt>
      <trkpt lat="45.61628" lon="5.5363">
        <ele>262</ele>
        <time>2023-02-14T09:14:32.422Z</time>
      </trkpt>
      <trkpt lat="45.61625" lon="5.53631">
        <ele>262</ele>
        <time>2023-02-14T09:14:33.422Z</time>
      </trkpt>
      <trkpt lat="45.61623" lon="5.53631">
        <ele>263</ele>
        <time>2023-02-14T09:14:34.422Z</time>
      </trkpt>
      <trkpt lat="45.61621" lon="5.53631">
        <ele>263</ele>
        <time>2023-02-14T09:14:35.422Z</time>
      </trkpt>
      <trkpt lat="45.61619" lon="5.53631">
        <ele>264</ele>
        <time>2023-02-14T09:14:36.422Z</time>
      </trkpt>
      <trkpt lat="45.61616" lon="5.53631">
        <ele>264</ele>
        <time>2023-02-14T09:14:37.422Z</time>
      </trkpt>
      <trkpt lat="45.61614" lon="5.53631">
        <ele>264</ele>
        <time>2023-02-14T09:14:38.422Z</time>
      </trkpt>
      <trkpt lat="45.61612" lon="5.53631">
        <ele>263</ele>
        <time>2023-02-14T09:14:39.422Z</time>
      </trkpt>
      <trkpt lat="45.6161" lon="5.53631">
        <ele>263</ele>
        <time>2023-02-14T09:14:40.422Z</time>
      </trkpt>
      <trkpt lat="45.61607" lon="5.53631">
        <ele>263</ele>
        <time>2023-02-14T09:14:41.422Z</time>
      </trkpt>
      <trkpt lat="45.61604" lon="5.53631">
        <ele>263</ele>
        <time>2023-02-14T09:14:42.422Z</time>
      </trkpt>
      <trkpt lat="45.61602" lon="5.53632">
        <ele>263</ele>
        <time>2023-02-14T09:14:43.422Z</time>
      </trkpt>
      <trkpt lat="45.61599" lon="5.53632">
        <ele>263</ele>
        <time>2023-02-14T09:14:44.422Z</time>
      </trkpt>
      <trkpt lat="45.61597" lon="5.53633">
        <ele>263</ele>
        <time>2023-02-14T09:14:45.422Z</time>
      </trkpt>
      <trkpt lat="45.61594" lon="5.53634">
        <ele>263</ele>
        <time>2023-02-14T09:14:46.422Z</time>
      </trkpt>
      <trkpt lat="45.61592" lon="5.53634">
        <ele>262</ele>
        <time>2023-02-14T09:14:47.422Z</time>
      </trkpt>
      <trkpt lat="45.61589" lon="5.53634">
        <ele>263</ele>
        <time>2023-02-14T09:14:48.422Z</time>
      </trkpt>
      <trkpt lat="45.61587" lon="5.53634">
        <ele>263</ele>
        <time>2023-02-14T09:14:49.422Z</time>
      </trkpt>
      <trkpt lat="45.61585" lon="5.53635">
        <ele>263</ele>
        <time>2023-02-14T09:14:50.422Z</time>
      </trkpt>
      <trkpt lat="45.61583" lon="5.53636">
        <ele>264</ele>
        <time>2023-02-14T09:14:51.422Z</time>
      </trkpt>
      <trkpt lat="45.6158" lon="5.53636">
        <ele>264</ele>
        <time>2023-02-14T09:14:52.422Z</time>
      </trkpt>
      <trkpt lat="45.61578" lon="5.53637">
        <ele>264</ele>
        <time>2023-02-14T09:14:53.422Z</time>
      </trkpt>
      <trkpt lat="45.61576" lon="5.53637">
        <ele>265</ele>
        <time>2023-02-14T09:14:54.422Z</time>
      </trkpt>
      <trkpt lat="45.61574" lon="5.53638">
        <ele>265</ele>
        <time>2023-02-14T09:14:55.422Z</time>
      </trkpt>
      <trkpt lat="45.61572" lon="5.53639">
        <ele>265</ele>
        <time>2023-02-14T09:14:56.422Z</time>
      </trkpt>
      <trkpt lat="45.6157" lon="5.5364">
        <ele>265</ele>
        <time>2023-02-14T09:14:57.422Z</time>
      </trkpt>
      <trkpt lat="45.61568" lon="5.5364">
        <ele>265</ele>
        <time>2023-02-14T09:14:58.422Z</time>
      </trkpt>
      <trkpt lat="45.61566" lon="5.53641">
        <ele>266</ele>
        <time>2023-02-14T09:14:59.422Z</time>
      </trkpt>
      <trkpt lat="45.61564" lon="5.53641">
        <ele>266</ele>
        <time>2023-02-14T09:15:00.422Z</time>
      </trkpt>
      <trkpt lat="45.61563" lon="5.53642">
        <ele>267</ele>
        <time>2023-02-14T09:15:01.422Z</time>
      </trkpt>
      <trkpt lat="45.61561" lon="5.53643">
        <ele>267</ele>
        <time>2023-02-14T09:15:02.422Z</time>
      </trkpt>
      <trkpt lat="45.61559" lon="5.53643">
        <ele>267</ele>
        <time>2023-02-14T09:15:03.422Z</time>
      </trkpt>
      <trkpt lat="45.61557" lon="5.53642">
        <ele>267</ele>
        <time>2023-02-14T09:15:04.422Z</time>
      </trkpt>
      <trkpt lat="45.61556" lon="5.53641">
        <ele>267</ele>
        <time>2023-02-14T09:15:05.422Z</time>
      </trkpt>
      <trkpt lat="45.61554" lon="5.5364">
        <ele>267</ele>
        <time>2023-02-14T09:15:06.422Z</time>
      </trkpt>
      <trkpt lat="45.61552" lon="5.53639">
        <ele>268</ele>
        <time>2023-02-14T09:15:07.422Z</time>
      </trkpt>
      <trkpt lat="45.61551" lon="5.53637">
        <ele>268</ele>
        <time>2023-02-14T09:15:08.422Z</time>
      </trkpt>
      <trkpt lat="45.6155" lon="5.53636">
        <ele>268</ele>
        <time>2023-02-14T09:15:09.422Z</time>
      </trkpt>
      <trkpt lat="45.61549" lon="5.53634">
        <ele>268</ele>
        <time>2023-02-14T09:15:10.422Z</time>
      </trkpt>
      <trkpt lat="45.61548" lon="5.53632">
        <ele>268</ele>
        <time>2023-02-14T09:15:11.422Z</time>
      </trkpt>
      <trkpt lat="45.61547" lon="5.53631">
        <ele>268</ele>
        <time>2023-02-14T09:15:12.422Z</time>
      </trkpt>
      <trkpt lat="45.61546" lon="5.53629">
        <ele>268</ele>
        <time>2023-02-14T09:15:13.422Z</time>
      </trkpt>
      <trkpt lat="45.61546" lon="5.53627">
        <ele>268</ele>
        <time>2023-02-14T09:15:14.422Z</time>
      </trkpt>
      <trkpt lat="45.61545" lon="5.53626">
        <ele>269</ele>
        <time>2023-02-14T09:15:15.422Z</time>
      </trkpt>
      <trkpt lat="45.61545" lon="5.53624">
        <ele>269</ele>
        <time>2023-02-14T09:15:16.422Z</time>
      </trkpt>
      <trkpt lat="45.61545" lon="5.53623">
        <ele>269</ele>
        <time>2023-02-14T09:15:17.422Z</time>
      </trkpt>
      <trkpt lat="45.61544" lon="5.53621">
        <ele>270</ele>
        <time>2023-02-14T09:15:18.422Z</time>
      </trkpt>
      <trkpt lat="45.61544" lon="5.5362">
        <ele>270</ele>
        <time>2023-02-14T09:15:19.422Z</time>
      </trkpt>
      <trkpt lat="45.61544" lon="5.53618">
        <ele>270</ele>
        <time>2023-02-14T09:15:20.422Z</time>
      </trkpt>
      <trkpt lat="45.61544" lon="5.53617">
        <ele>271</ele>
        <time>2023-02-14T09:15:21.422Z</time>
      </trkpt>
      <trkpt lat="45.61543" lon="5.53615">
        <ele>271</ele>
        <time>2023-02-14T09:15:22.422Z</time>
      </trkpt>
      <trkpt lat="45.61543" lon="5.53614">
        <ele>272</ele>
        <time>2023-02-14T09:15:23.422Z</time>
      </trkpt>
      <trkpt lat="45.61542" lon="5.53612">
        <ele>272</ele>
        <time>2023-02-14T09:15:24.422Z</time>
      </trkpt>
      <trkpt lat="45.61542" lon="5.5361">
        <ele>273</ele>
        <time>2023-02-14T09:15:25.422Z</time>
      </trkpt>
      <trkpt lat="45.61542" lon="5.53609">
        <ele>274</ele>
        <time>2023-02-14T09:15:26.422Z</time>
      </trkpt>
      <trkpt lat="45.61542" lon="5.53608">
        <ele>274</ele>
        <time>2023-02-14T09:15:27.422Z</time>
      </trkpt>
      <trkpt lat="45.61542" lon="5.53606">
        <ele>275</ele>
        <time>2023-02-14T09:15:28.422Z</time>
      </trkpt>
      <trkpt lat="45.61541" lon="5.53605">
        <ele>276</ele>
        <time>2023-02-14T09:15:29.422Z</time>
      </trkpt>
      <trkpt lat="45.61541" lon="5.53604">
        <ele>276</ele>
        <time>2023-02-14T09:15:30.422Z</time>
      </trkpt>
      <trkpt lat="45.61541" lon="5.53602">
        <ele>276</ele>
        <time>2023-02-14T09:15:31.422Z</time>
      </trkpt>
      <trkpt lat="45.61542" lon="5.536">
        <ele>277</ele>
        <time>2023-02-14T09:15:32.422Z</time>
      </trkpt>
      <trkpt lat="45.61543" lon="5.53599">
        <ele>277</ele>
        <time>2023-02-14T09:15:33.422Z</time>
      </trkpt>
      <trkpt lat="45.61544" lon="5.53598">
        <ele>277</ele>
        <time>2023-02-14T09:15:34.422Z</time>
      </trkpt>
      <trkpt lat="45.61545" lon="5.53597">
        <ele>277</ele>
        <time>2023-02-14T09:15:35.422Z</time>
      </trkpt>
      <trkpt lat="45.61546" lon="5.53596">
        <ele>277</ele>
        <time>2023-02-14T09:15:36.422Z</time>
      </trkpt>
      <trkpt lat="45.61547" lon="5.53595">
        <ele>277</ele>
        <time>2023-02-14T09:15:37.422Z</time>
      </trkpt>
      <trkpt lat="45.61547" lon="5.53594">
        <ele>277</ele>
        <time>2023-02-14T09:15:38.422Z</time>
      </trkpt>
      <trkpt lat="45.61548" lon="5.53592">
        <ele>277</ele>
        <time>2023-02-14T09:15:39.422Z</time>
      </trkpt>
      <trkpt lat="45.61549" lon="5.53591">
        <ele>276</ele>
        <time>2023-02-14T09:15:40.422Z</time>
      </trkpt>
      <trkpt lat="45.6155" lon="5.5359">
        <ele>276</ele>
        <time>2023-02-14T09:15:41.422Z</time>
      </trkpt>
      <trkpt lat="45.6155" lon="5.53589">
        <ele>276</ele>
        <time>2023-02-14T09:15:42.422Z</time>
      </trkpt>
      <trkpt lat="45.61551" lon="5.53588">
        <ele>277</ele>
        <time>2023-02-14T09:15:43.422Z</time>
      </trkpt>
      <trkpt lat="45.61552" lon="5.53586">
        <ele>277</ele>
        <time>2023-02-14T09:15:44.422Z</time>
      </trkpt>
      <trkpt lat="45.61553" lon="5.53585">
        <ele>278</ele>
        <time>2023-02-14T09:15:45.422Z</time>
      </trkpt>
      <trkpt lat="45.61553" lon="5.53584">
        <ele>278</ele>
        <time>2023-02-14T09:15:46.422Z</time>
      </trkpt>
      <trkpt lat="45.61554" lon="5.53582">
        <ele>278</ele>
        <time>2023-02-14T09:15:47.422Z</time>
      </trkpt>
      <trkpt lat="45.61555" lon="5.53581">
        <ele>279</ele>
        <time>2023-02-14T09:15:48.422Z</time>
      </trkpt>
      <trkpt lat="45.61556" lon="5.53579">
        <ele>279</ele>
        <time>2023-02-14T09:15:49.422Z</time>
      </trkpt>
      <trkpt lat="45.61556" lon="5.53578">
        <ele>280</ele>
        <time>2023-02-14T09:15:50.422Z</time>
      </trkpt>
      <trkpt lat="45.61557" lon="5.53576">
        <ele>281</ele>
        <time>2023-02-14T09:15:51.422Z</time>
      </trkpt>
      <trkpt lat="45.61557" lon="5.53575">
        <ele>282</ele>
        <time>2023-02-14T09:15:52.422Z</time>
      </trkpt>
      <trkpt lat="45.61558" lon="5.53574">
        <ele>283</ele>
        <time>2023-02-14T09:15:53.422Z</time>
      </trkpt>
      <trkpt lat="45.61558" lon="5.53572">
        <ele>283</ele>
        <time>2023-02-14T09:15:54.422Z</time>
      </trkpt>
      <trkpt lat="45.61558" lon="5.53571">
        <ele>284</ele>
        <time>2023-02-14T09:15:55.422Z</time>
      </trkpt>
      <trkpt lat="45.61559" lon="5.5357">
        <ele>284</ele>
        <time>2023-02-14T09:15:56.422Z</time>
      </trkpt>
      <trkpt lat="45.61559" lon="5.53568">
        <ele>284</ele>
        <time>2023-02-14T09:15:57.422Z</time>
      </trkpt>
      <trkpt lat="45.61559" lon="5.53567">
        <ele>284</ele>
        <time>2023-02-14T09:15:58.422Z</time>
      </trkpt>
      <trkpt lat="45.6156" lon="5.53565">
        <ele>284</ele>
        <time>2023-02-14T09:15:59.422Z</time>
      </trkpt>
      <trkpt lat="45.6156" lon="5.53563">
        <ele>284</ele>
        <time>2023-02-14T09:16:00.422Z</time>
      </trkpt>
      <trkpt lat="45.6156" lon="5.53562">
        <ele>283</ele>
        <time>2023-02-14T09:16:01.422Z</time>
      </trkpt>
      <trkpt lat="45.6156" lon="5.5356">
        <ele>283</ele>
        <time>2023-02-14T09:16:02.422Z</time>
      </trkpt>
      <trkpt lat="45.6156" lon="5.53558">
        <ele>283</ele>
        <time>2023-02-14T09:16:03.422Z</time>
      </trkpt>
      <trkpt lat="45.61561" lon="5.53556">
        <ele>284</ele>
        <time>2023-02-14T09:16:04.422Z</time>
      </trkpt>
      <trkpt lat="45.61561" lon="5.53555">
        <ele>284</ele>
        <time>2023-02-14T09:16:05.422Z</time>
      </trkpt>
      <trkpt lat="45.61561" lon="5.53553">
        <ele>284</ele>
        <time>2023-02-14T09:16:06.422Z</time>
      </trkpt>
      <trkpt lat="45.61562" lon="5.53552">
        <ele>285</ele>
        <time>2023-02-14T09:16:07.422Z</time>
      </trkpt>
      <trkpt lat="45.61562" lon="5.5355">
        <ele>285</ele>
        <time>2023-02-14T09:16:08.422Z</time>
      </trkpt>
      <trkpt lat="45.61562" lon="5.53548">
        <ele>284</ele>
        <time>2023-02-14T09:16:09.422Z</time>
      </trkpt>
      <trkpt lat="45.61562" lon="5.53547">
        <ele>285</ele>
        <time>2023-02-14T09:16:10.422Z</time>
      </trkpt>
      <trkpt lat="45.61562" lon="5.53545">
        <ele>285</ele>
        <time>2023-02-14T09:16:11.422Z</time>
      </trkpt>
      <trkpt lat="45.61563" lon="5.53543">
        <ele>286</ele>
        <time>2023-02-14T09:16:12.422Z</time>
      </trkpt>
      <trkpt lat="45.61563" lon="5.53542">
        <ele>286</ele>
        <time>2023-02-14T09:16:13.422Z</time>
      </trkpt>
      <trkpt lat="45.61563" lon="5.5354">
        <ele>285</ele>
        <time>2023-02-14T09:16:14.422Z</time>
      </trkpt>
      <trkpt lat="45.61564" lon="5.53539">
        <ele>285</ele>
        <time>2023-02-14T09:16:15.422Z</time>
      </trkpt>
      <trkpt lat="45.61564" lon="5.53537">
        <ele>285</ele>
        <time>2023-02-14T09:16:16.422Z</time>
      </trkpt>
      <trkpt lat="45.61564" lon="5.53535">
        <ele>285</ele>
        <time>2023-02-14T09:16:17.422Z</time>
      </trkpt>
      <trkpt lat="45.61564" lon="5.53534">
        <ele>285</ele>
        <time>2023-02-14T09:16:18.422Z</time>
      </trkpt>
      <trkpt lat="45.61565" lon="5.53532">
        <ele>286</ele>
        <time>2023-02-14T09:16:19.422Z</time>
      </trkpt>
      <trkpt lat="45.61565" lon="5.53531">
        <ele>286</ele>
        <time>2023-02-14T09:16:20.422Z</time>
      </trkpt>
      <trkpt lat="45.61566" lon="5.53529">
        <ele>286</ele>
        <time>2023-02-14T09:16:21.422Z</time>
      </trkpt>
      <trkpt lat="45.61566" lon="5.53528">
        <ele>286</ele>
        <time>2023-02-14T09:16:22.422Z</time>
      </trkpt>
      <trkpt lat="45.61567" lon="5.53526">
        <ele>287</ele>
        <time>2023-02-14T09:16:23.422Z</time>
      </trkpt>
      <trkpt lat="45.61567" lon="5.53525">
        <ele>287</ele>
        <time>2023-02-14T09:16:24.422Z</time>
      </trkpt>
      <trkpt lat="45.61567" lon="5.53523">
        <ele>288</ele>
        <time>2023-02-14T09:16:25.422Z</time>
      </trkpt>
      <trkpt lat="45.61568" lon="5.53522">
        <ele>288</ele>
        <time>2023-02-14T09:16:26.422Z</time>
      </trkpt>
      <trkpt lat="45.61568" lon="5.5352">
        <ele>288</ele>
        <time>2023-02-14T09:16:27.422Z</time>
      </trkpt>
      <trkpt lat="45.61569" lon="5.53519">
        <ele>289</ele>
        <time>2023-02-14T09:16:28.422Z</time>
      </trkpt>
      <trkpt lat="45.61569" lon="5.53517">
        <ele>289</ele>
        <time>2023-02-14T09:16:29.422Z</time>
      </trkpt>
      <trkpt lat="45.6157" lon="5.53516">
        <ele>290</ele>
        <time>2023-02-14T09:16:30.422Z</time>
      </trkpt>
      <trkpt lat="45.6157" lon="5.53514">
        <ele>291</ele>
        <time>2023-02-14T09:16:31.422Z</time>
      </trkpt>
      <trkpt lat="45.6157" lon="5.53513">
        <ele>291</ele>
        <time>2023-02-14T09:16:32.422Z</time>
      </trkpt>
      <trkpt lat="45.61571" lon="5.53511">
        <ele>291</ele>
        <time>2023-02-14T09:16:33.422Z</time>
      </trkpt>
      <trkpt lat="45.61571" lon="5.53509">
        <ele>292</ele>
        <time>2023-02-14T09:16:34.422Z</time>
      </trkpt>
      <trkpt lat="45.61571" lon="5.53508">
        <ele>292</ele>
        <time>2023-02-14T09:16:35.422Z</time>
      </trkpt>
      <trkpt lat="45.61571" lon="5.53506">
        <ele>292</ele>
        <time>2023-02-14T09:16:36.422Z</time>
      </trkpt>
      <trkpt lat="45.61571" lon="5.53504">
        <ele>292</ele>
        <time>2023-02-14T09:16:37.422Z</time>
      </trkpt>
      <trkpt lat="45.61571" lon="5.53503">
        <ele>293</ele>
        <time>2023-02-14T09:16:38.422Z</time>
      </trkpt>
      <trkpt lat="45.61571" lon="5.53501">
        <ele>294</ele>
        <time>2023-02-14T09:16:39.422Z</time>
      </trkpt>
      <trkpt lat="45.61571" lon="5.53499">
        <ele>294</ele>
        <time>2023-02-14T09:16:40.422Z</time>
      </trkpt>
      <trkpt lat="45.61571" lon="5.53498">
        <ele>294</ele>
        <time>2023-02-14T09:16:41.422Z</time>
      </trkpt>
      <trkpt lat="45.61571" lon="5.53496">
        <ele>294</ele>
        <time>2023-02-14T09:16:42.422Z</time>
      </trkpt>
      <trkpt lat="45.6157" lon="5.53494">
        <ele>293</ele>
        <time>2023-02-14T09:16:43.422Z</time>
      </trkpt>
      <trkpt lat="45.61569" lon="5.53492">
        <ele>293</ele>
        <time>2023-02-14T09:16:44.422Z</time>
      </trkpt>
      <trkpt lat="45.61569" lon="5.53491">
        <ele>293</ele>
        <time>2023-02-14T09:16:45.422Z</time>
      </trkpt>
      <trkpt lat="45.61568" lon="5.53489">
        <ele>293</ele>
        <time>2023-02-14T09:16:46.422Z</time>
      </trkpt>
      <trkpt lat="45.61567" lon="5.53488">
        <ele>293</ele>
        <time>2023-02-14T09:16:47.422Z</time>
      </trkpt>
      <trkpt lat="45.61567" lon="5.53487">
        <ele>293</ele>
        <time>2023-02-14T09:16:48.422Z</time>
      </trkpt>
      <trkpt lat="45.61565" lon="5.53485">
        <ele>293</ele>
        <time>2023-02-14T09:16:49.422Z</time>
      </trkpt>
      <trkpt lat="45.61564" lon="5.53484">
        <ele>294</ele>
        <time>2023-02-14T09:16:50.422Z</time>
      </trkpt>
      <trkpt lat="45.61564" lon="5.53483">
        <ele>295</ele>
        <time>2023-02-14T09:16:51.422Z</time>
      </trkpt>
      <trkpt lat="45.61563" lon="5.53482">
        <ele>296</ele>
        <time>2023-02-14T09:16:52.422Z</time>
      </trkpt>
      <trkpt lat="45.61562" lon="5.53482">
        <ele>296</ele>
        <time>2023-02-14T09:16:53.422Z</time>
      </trkpt>
      <trkpt lat="45.61561" lon="5.53481">
        <ele>296</ele>
        <time>2023-02-14T09:16:54.422Z</time>
      </trkpt>
      <trkpt lat="45.6156" lon="5.53481">
        <ele>296</ele>
        <time>2023-02-14T09:16:55.422Z</time>
      </trkpt>
      <trkpt lat="45.61559" lon="5.53481">
        <ele>296</ele>
        <time>2023-02-14T09:16:56.422Z</time>
      </trkpt>
      <trkpt lat="45.61558" lon="5.53481">
        <ele>297</ele>
        <time>2023-02-14T09:16:57.422Z</time>
      </trkpt>
      <trkpt lat="45.61557" lon="5.53481">
        <ele>298</ele>
        <time>2023-02-14T09:16:58.422Z</time>
      </trkpt>
      <trkpt lat="45.61556" lon="5.53481">
        <ele>298</ele>
        <time>2023-02-14T09:16:59.422Z</time>
      </trkpt>
      <trkpt lat="45.61555" lon="5.53481">
        <ele>298</ele>
        <time>2023-02-14T09:17:00.422Z</time>
      </trkpt>
      <trkpt lat="45.61554" lon="5.53481">
        <ele>298</ele>
        <time>2023-02-14T09:17:01.422Z</time>
      </trkpt>
      <trkpt lat="45.61553" lon="5.53482">
        <ele>299</ele>
        <time>2023-02-14T09:17:02.422Z</time>
      </trkpt>
      <trkpt lat="45.61552" lon="5.53482">
        <ele>299</ele>
        <time>2023-02-14T09:17:03.422Z</time>
      </trkpt>
      <trkpt lat="45.61551" lon="5.53482">
        <ele>299</ele>
        <time>2023-02-14T09:17:04.422Z</time>
      </trkpt>
      <trkpt lat="45.6155" lon="5.53482">
        <ele>299</ele>
        <time>2023-02-14T09:17:05.422Z</time>
      </trkpt>
      <trkpt lat="45.61549" lon="5.53482">
        <ele>300</ele>
        <time>2023-02-14T09:17:06.422Z</time>
      </trkpt>
      <trkpt lat="45.61548" lon="5.53482">
        <ele>300</ele>
        <time>2023-02-14T09:17:07.422Z</time>
      </trkpt>
      <trkpt lat="45.61547" lon="5.53482">
        <ele>299</ele>
        <time>2023-02-14T09:17:08.422Z</time>
      </trkpt>
      <trkpt lat="45.61546" lon="5.53482">
        <ele>299</ele>
        <time>2023-02-14T09:17:09.422Z</time>
      </trkpt>
      <trkpt lat="45.61544" lon="5.53482">
        <ele>299</ele>
        <time>2023-02-14T09:17:10.422Z</time>
      </trkpt>
      <trkpt lat="45.61543" lon="5.53482">
        <ele>299</ele>
        <time>2023-02-14T09:17:11.422Z</time>
      </trkpt>
      <trkpt lat="45.61542" lon="5.53482">
        <ele>299</ele>
        <time>2023-02-14T09:17:12.422Z</time>
      </trkpt>
      <trkpt lat="45.6154" lon="5.53482">
        <ele>299</ele>
        <time>2023-02-14T09:17:13.422Z</time>
      </trkpt>
      <trkpt lat="45.61539" lon="5.53482">
        <ele>300</ele>
        <time>2023-02-14T09:17:14.422Z</time>
      </trkpt>
      <trkpt lat="45.61538" lon="5.53482">
        <ele>299</ele>
        <time>2023-02-14T09:17:15.422Z</time>
      </trkpt>
      <trkpt lat="45.61536" lon="5.53482">
        <ele>298</ele>
        <time>2023-02-14T09:17:16.422Z</time>
      </trkpt>
      <trkpt lat="45.61535" lon="5.53481">
        <ele>298</ele>
        <time>2023-02-14T09:17:17.422Z</time>
      </trkpt>
      <trkpt lat="45.61534" lon="5.53481">
        <ele>297</ele>
        <time>2023-02-14T09:17:18.422Z</time>
      </trkpt>
      <trkpt lat="45.61532" lon="5.5348">
        <ele>297</ele>
        <time>2023-02-14T09:17:19.422Z</time>
      </trkpt>
      <trkpt lat="45.61531" lon="5.53479">
        <ele>298</ele>
        <time>2023-02-14T09:17:20.422Z</time>
      </trkpt>
      <trkpt lat="45.6153" lon="5.53479">
        <ele>298</ele>
        <time>2023-02-14T09:17:21.422Z</time>
      </trkpt>
      <trkpt lat="45.61529" lon="5.53478">
        <ele>298</ele>
        <time>2023-02-14T09:17:22.422Z</time>
      </trkpt>
      <trkpt lat="45.61528" lon="5.53477">
        <ele>297</ele>
        <time>2023-02-14T09:17:23.422Z</time>
      </trkpt>
      <trkpt lat="45.61527" lon="5.53475">
        <ele>297</ele>
        <time>2023-02-14T09:17:24.422Z</time>
      </trkpt>
      <trkpt lat="45.61526" lon="5.53473">
        <ele>297</ele>
        <time>2023-02-14T09:17:25.422Z</time>
      </trkpt>
      <trkpt lat="45.61527" lon="5.53471">
        <ele>297</ele>
        <time>2023-02-14T09:17:26.422Z</time>
      </trkpt>
      <trkpt lat="45.61527" lon="5.53469">
        <ele>297</ele>
        <time>2023-02-14T09:17:27.422Z</time>
      </trkpt>
      <trkpt lat="45.61528" lon="5.53467">
        <ele>297</ele>
        <time>2023-02-14T09:17:28.422Z</time>
      </trkpt>
      <trkpt lat="45.61529" lon="5.53466">
        <ele>297</ele>
        <time>2023-02-14T09:17:29.422Z</time>
      </trkpt>
      <trkpt lat="45.61529" lon="5.53464">
        <ele>297</ele>
        <time>2023-02-14T09:17:30.422Z</time>
      </trkpt>
      <trkpt lat="45.6153" lon="5.53462">
        <ele>297</ele>
        <time>2023-02-14T09:17:31.422Z</time>
      </trkpt>
      <trkpt lat="45.61531" lon="5.53461">
        <ele>296</ele>
        <time>2023-02-14T09:17:32.422Z</time>
      </trkpt>
      <trkpt lat="45.61532" lon="5.5346">
        <ele>296</ele>
        <time>2023-02-14T09:17:33.422Z</time>
      </trkpt>
      <trkpt lat="45.61534" lon="5.53459">
        <ele>296</ele>
        <time>2023-02-14T09:17:34.422Z</time>
      </trkpt>
      <trkpt lat="45.61535" lon="5.53458">
        <ele>297</ele>
        <time>2023-02-14T09:17:35.422Z</time>
      </trkpt>
      <trkpt lat="45.61536" lon="5.53457">
        <ele>296</ele>
        <time>2023-02-14T09:17:36.422Z</time>
      </trkpt>
      <trkpt lat="45.61538" lon="5.53456">
        <ele>296</ele>
        <time>2023-02-14T09:17:37.422Z</time>
      </trkpt>
      <trkpt lat="45.61539" lon="5.53455">
        <ele>296</ele>
        <time>2023-02-14T09:17:38.422Z</time>
      </trkpt>
      <trkpt lat="45.61541" lon="5.53454">
        <ele>295</ele>
        <time>2023-02-14T09:17:39.422Z</time>
      </trkpt>
      <trkpt lat="45.61543" lon="5.53454">
        <ele>296</ele>
        <time>2023-02-14T09:17:40.422Z</time>
      </trkpt>
      <trkpt lat="45.61545" lon="5.53453">
        <ele>296</ele>
        <time>2023-02-14T09:17:41.422Z</time>
      </trkpt>
      <trkpt lat="45.61547" lon="5.53452">
        <ele>296</ele>
        <time>2023-02-14T09:17:42.422Z</time>
      </trkpt>
      <trkpt lat="45.6155" lon="5.53451">
        <ele>295</ele>
        <time>2023-02-14T09:17:43.422Z</time>
      </trkpt>
      <trkpt lat="45.61552" lon="5.53449">
        <ele>295</ele>
        <time>2023-02-14T09:17:44.422Z</time>
      </trkpt>
      <trkpt lat="45.61555" lon="5.53448">
        <ele>295</ele>
        <time>2023-02-14T09:17:45.422Z</time>
      </trkpt>
      <trkpt lat="45.61557" lon="5.53447">
        <ele>294</ele>
        <time>2023-02-14T09:17:46.422Z</time>
      </trkpt>
      <trkpt lat="45.6156" lon="5.53445">
        <ele>294</ele>
        <time>2023-02-14T09:17:47.422Z</time>
      </trkpt>
      <trkpt lat="45.61563" lon="5.53443">
        <ele>294</ele>
        <time>2023-02-14T09:17:48.422Z</time>
      </trkpt>
      <trkpt lat="45.61565" lon="5.53441">
        <ele>293</ele>
        <time>2023-02-14T09:17:49.422Z</time>
      </trkpt>
      <trkpt lat="45.61568" lon="5.53438">
        <ele>293</ele>
        <time>2023-02-14T09:17:50.422Z</time>
      </trkpt>
      <trkpt lat="45.6157" lon="5.53436">
        <ele>293</ele>
        <time>2023-02-14T09:17:51.422Z</time>
      </trkpt>
      <trkpt lat="45.61573" lon="5.53433">
        <ele>293</ele>
        <time>2023-02-14T09:17:52.422Z</time>
      </trkpt>
      <trkpt lat="45.61575" lon="5.5343">
        <ele>293</ele>
        <time>2023-02-14T09:17:53.422Z</time>
      </trkpt>
      <trkpt lat="45.61577" lon="5.53427">
        <ele>293</ele>
        <time>2023-02-14T09:17:54.422Z</time>
      </trkpt>
      <trkpt lat="45.61579" lon="5.53424">
        <ele>293</ele>
        <time>2023-02-14T09:17:55.422Z</time>
      </trkpt>
      <trkpt lat="45.61581" lon="5.53421">
        <ele>293</ele>
        <time>2023-02-14T09:17:56.422Z</time>
      </trkpt>
      <trkpt lat="45.61583" lon="5.53418">
        <ele>293</ele>
        <time>2023-02-14T09:17:57.422Z</time>
      </trkpt>
      <trkpt lat="45.61585" lon="5.53415">
        <ele>294</ele>
        <time>2023-02-14T09:17:58.422Z</time>
      </trkpt>
      <trkpt lat="45.61588" lon="5.53412">
        <ele>294</ele>
        <time>2023-02-14T09:17:59.422Z</time>
      </trkpt>
      <trkpt lat="45.6159" lon="5.53409">
        <ele>294</ele>
        <time>2023-02-14T09:18:00.422Z</time>
      </trkpt>
      <trkpt lat="45.61593" lon="5.53405">
        <ele>294</ele>
        <time>2023-02-14T09:18:01.422Z</time>
      </trkpt>
      <trkpt lat="45.61595" lon="5.53402">
        <ele>294</ele>
        <time>2023-02-14T09:18:02.422Z</time>
      </trkpt>
      <trkpt lat="45.61597" lon="5.53399">
        <ele>294</ele>
        <time>2023-02-14T09:18:03.422Z</time>
      </trkpt>
      <trkpt lat="45.61599" lon="5.53395">
        <ele>294</ele>
        <time>2023-02-14T09:18:04.422Z</time>
      </trkpt>
      <trkpt lat="45.61601" lon="5.53392">
        <ele>294</ele>
        <time>2023-02-14T09:18:05.422Z</time>
      </trkpt>
      <trkpt lat="45.61603" lon="5.53389">
        <ele>294</ele>
        <time>2023-02-14T09:18:06.422Z</time>
      </trkpt>
      <trkpt lat="45.61605" lon="5.53385">
        <ele>294</ele>
        <time>2023-02-14T09:18:07.422Z</time>
      </trkpt>
      <trkpt lat="45.61607" lon="5.53382">
        <ele>294</ele>
        <time>2023-02-14T09:18:08.422Z</time>
      </trkpt>
      <trkpt lat="45.61609" lon="5.53379">
        <ele>295</ele>
        <time>2023-02-14T09:18:09.422Z</time>
      </trkpt>
      <trkpt lat="45.61612" lon="5.53376">
        <ele>295</ele>
        <time>2023-02-14T09:18:10.422Z</time>
      </trkpt>
      <trkpt lat="45.61614" lon="5.53372">
        <ele>295</ele>
        <time>2023-02-14T09:18:11.422Z</time>
      </trkpt>
      <trkpt lat="45.61616" lon="5.53369">
        <ele>295</ele>
        <time>2023-02-14T09:18:12.422Z</time>
      </trkpt>
      <trkpt lat="45.61618" lon="5.53365">
        <ele>295</ele>
        <time>2023-02-14T09:18:13.422Z</time>
      </trkpt>
      <trkpt lat="45.61619" lon="5.53362">
        <ele>295</ele>
        <time>2023-02-14T09:18:14.422Z</time>
      </trkpt>
      <trkpt lat="45.61621" lon="5.53358">
        <ele>295</ele>
        <time>2023-02-14T09:18:15.422Z</time>
      </trkpt>
      <trkpt lat="45.61623" lon="5.53354">
        <ele>295</ele>
        <time>2023-02-14T09:18:16.422Z</time>
      </trkpt>
      <trkpt lat="45.61625" lon="5.5335">
        <ele>295</ele>
        <time>2023-02-14T09:18:17.422Z</time>
      </trkpt>
      <trkpt lat="45.61627" lon="5.53346">
        <ele>295</ele>
        <time>2023-02-14T09:18:18.422Z</time>
      </trkpt>
      <trkpt lat="45.61629" lon="5.53342">
        <ele>295</ele>
        <time>2023-02-14T09:18:19.422Z</time>
      </trkpt>
      <trkpt lat="45.61631" lon="5.53338">
        <ele>295</ele>
        <time>2023-02-14T09:18:20.422Z</time>
      </trkpt>
      <trkpt lat="45.61633" lon="5.53334">
        <ele>295</ele>
        <time>2023-02-14T09:18:21.422Z</time>
      </trkpt>
      <trkpt lat="45.61635" lon="5.53329">
        <ele>295</ele>
        <time>2023-02-14T09:18:22.422Z</time>
      </trkpt>
      <trkpt lat="45.61637" lon="5.53325">
        <ele>295</ele>
        <time>2023-02-14T09:18:23.422Z</time>
      </trkpt>
      <trkpt lat="45.61639" lon="5.53321">
        <ele>295</ele>
        <time>2023-02-14T09:18:24.422Z</time>
      </trkpt>
      <trkpt lat="45.61641" lon="5.53317">
        <ele>295</ele>
        <time>2023-02-14T09:18:25.422Z</time>
      </trkpt>
      <trkpt lat="45.61643" lon="5.53313">
        <ele>295</ele>
        <time>2023-02-14T09:18:26.422Z</time>
      </trkpt>
      <trkpt lat="45.61645" lon="5.53309">
        <ele>295</ele>
        <time>2023-02-14T09:18:27.422Z</time>
      </trkpt>
      <trkpt lat="45.61647" lon="5.53305">
        <ele>295</ele>
        <time>2023-02-14T09:18:28.422Z</time>
      </trkpt>
      <trkpt lat="45.61648" lon="5.53302">
        <ele>295</ele>
        <time>2023-02-14T09:18:29.422Z</time>
      </trkpt>
      <trkpt lat="45.6165" lon="5.53298">
        <ele>295</ele>
        <time>2023-02-14T09:18:30.422Z</time>
      </trkpt>
      <trkpt lat="45.6165" lon="5.53294">
        <ele>295</ele>
        <time>2023-02-14T09:18:31.422Z</time>
      </trkpt>
      <trkpt lat="45.61649" lon="5.53289">
        <ele>293</ele>
        <time>2023-02-14T09:18:32.422Z</time>
      </trkpt>
      <trkpt lat="45.61646" lon="5.53285">
        <ele>294</ele>
        <time>2023-02-14T09:18:33.422Z</time>
      </trkpt>
      <trkpt lat="45.61643" lon="5.53281">
        <ele>294</ele>
        <time>2023-02-14T09:18:34.422Z</time>
      </trkpt>
      <trkpt lat="45.61641" lon="5.53279">
        <ele>294</ele>
        <time>2023-02-14T09:18:35.422Z</time>
      </trkpt>
      <trkpt lat="45.61639" lon="5.53277">
        <ele>294</ele>
        <time>2023-02-14T09:18:36.422Z</time>
      </trkpt>
      <trkpt lat="45.61637" lon="5.53274">
        <ele>294</ele>
        <time>2023-02-14T09:18:37.422Z</time>
      </trkpt>
      <trkpt lat="45.61635" lon="5.53272">
        <ele>295</ele>
        <time>2023-02-14T09:18:38.422Z</time>
      </trkpt>
      <trkpt lat="45.61633" lon="5.53269">
        <ele>295</ele>
        <time>2023-02-14T09:18:39.422Z</time>
      </trkpt>
      <trkpt lat="45.61631" lon="5.53266">
        <ele>295</ele>
        <time>2023-02-14T09:18:40.422Z</time>
      </trkpt>
      <trkpt lat="45.61629" lon="5.53264">
        <ele>295</ele>
        <time>2023-02-14T09:18:41.422Z</time>
      </trkpt>
      <trkpt lat="45.61627" lon="5.53262">
        <ele>296</ele>
        <time>2023-02-14T09:18:42.422Z</time>
      </trkpt>
      <trkpt lat="45.61625" lon="5.5326">
        <ele>296</ele>
        <time>2023-02-14T09:18:43.422Z</time>
      </trkpt>
      <trkpt lat="45.61623" lon="5.53258">
        <ele>296</ele>
        <time>2023-02-14T09:18:44.422Z</time>
      </trkpt>
      <trkpt lat="45.61621" lon="5.53256">
        <ele>296</ele>
        <time>2023-02-14T09:18:45.422Z</time>
      </trkpt>
      <trkpt lat="45.61619" lon="5.53253">
        <ele>297</ele>
        <time>2023-02-14T09:18:46.422Z</time>
      </trkpt>
      <trkpt lat="45.61617" lon="5.53251">
        <ele>297</ele>
        <time>2023-02-14T09:18:47.422Z</time>
      </trkpt>
      <trkpt lat="45.61615" lon="5.53249">
        <ele>297</ele>
        <time>2023-02-14T09:18:48.422Z</time>
      </trkpt>
      <trkpt lat="45.61613" lon="5.53246">
        <ele>297</ele>
        <time>2023-02-14T09:18:49.422Z</time>
      </trkpt>
      <trkpt lat="45.61611" lon="5.53244">
        <ele>297</ele>
        <time>2023-02-14T09:18:50.422Z</time>
      </trkpt>
      <trkpt lat="45.61609" lon="5.53241">
        <ele>297</ele>
        <time>2023-02-14T09:18:51.422Z</time>
      </trkpt>
      <trkpt lat="45.61607" lon="5.53239">
        <ele>297</ele>
        <time>2023-02-14T09:18:52.422Z</time>
      </trkpt>
      <trkpt lat="45.61605" lon="5.53236">
        <ele>298</ele>
        <time>2023-02-14T09:18:53.422Z</time>
      </trkpt>
      <trkpt lat="45.61603" lon="5.53234">
        <ele>298</ele>
        <time>2023-02-14T09:18:54.422Z</time>
      </trkpt>
      <trkpt lat="45.61601" lon="5.53232">
        <ele>298</ele>
        <time>2023-02-14T09:18:55.422Z</time>
      </trkpt>
      <trkpt lat="45.61599" lon="5.5323">
        <ele>298</ele>
        <time>2023-02-14T09:18:56.422Z</time>
      </trkpt>
      <trkpt lat="45.61596" lon="5.53228">
        <ele>298</ele>
        <time>2023-02-14T09:18:57.422Z</time>
      </trkpt>
      <trkpt lat="45.61594" lon="5.53226">
        <ele>298</ele>
        <time>2023-02-14T09:18:58.422Z</time>
      </trkpt>
      <trkpt lat="45.61591" lon="5.53224">
        <ele>298</ele>
        <time>2023-02-14T09:18:59.422Z</time>
      </trkpt>
      <trkpt lat="45.61588" lon="5.53222">
        <ele>298</ele>
        <time>2023-02-14T09:19:00.422Z</time>
      </trkpt>
      <trkpt lat="45.61585" lon="5.53219">
        <ele>298</ele>
        <time>2023-02-14T09:19:01.422Z</time>
      </trkpt>
      <trkpt lat="45.61582" lon="5.53217">
        <ele>298</ele>
        <time>2023-02-14T09:19:02.422Z</time>
      </trkpt>
      <trkpt lat="45.61579" lon="5.53215">
        <ele>297</ele>
        <time>2023-02-14T09:19:03.422Z</time>
      </trkpt>
      <trkpt lat="45.61575" lon="5.53213">
        <ele>297</ele>
        <time>2023-02-14T09:19:04.422Z</time>
      </trkpt>
      <trkpt lat="45.61572" lon="5.53211">
        <ele>297</ele>
        <time>2023-02-14T09:19:05.422Z</time>
      </trkpt>
      <trkpt lat="45.61568" lon="5.53209">
        <ele>297</ele>
        <time>2023-02-14T09:19:06.422Z</time>
      </trkpt>
      <trkpt lat="45.61565" lon="5.53208">
        <ele>296</ele>
        <time>2023-02-14T09:19:07.422Z</time>
      </trkpt>
      <trkpt lat="45.61561" lon="5.53207">
        <ele>294</ele>
        <time>2023-02-14T09:19:08.422Z</time>
      </trkpt>
      <trkpt lat="45.61558" lon="5.53206">
        <ele>293</ele>
        <time>2023-02-14T09:19:09.422Z</time>
      </trkpt>
      <trkpt lat="45.61555" lon="5.53203">
        <ele>292</ele>
        <time>2023-02-14T09:19:10.422Z</time>
      </trkpt>
      <trkpt lat="45.61553" lon="5.532">
        <ele>290</ele>
        <time>2023-02-14T09:19:11.422Z</time>
      </trkpt>
      <trkpt lat="45.61552" lon="5.53194">
        <ele>288</ele>
        <time>2023-02-14T09:19:12.422Z</time>
      </trkpt>
      <trkpt lat="45.61551" lon="5.53186">
        <ele>290</ele>
        <time>2023-02-14T09:19:13.422Z</time>
      </trkpt>
      <trkpt lat="45.6155" lon="5.53178">
        <ele>290</ele>
        <time>2023-02-14T09:19:14.422Z</time>
      </trkpt>
      <trkpt lat="45.61549" lon="5.5317">
        <ele>290</ele>
        <time>2023-02-14T09:19:15.422Z</time>
      </trkpt>
      <trkpt lat="45.61548" lon="5.53163">
        <ele>289</ele>
        <time>2023-02-14T09:19:16.422Z</time>
      </trkpt>
      <trkpt lat="45.61548" lon="5.53155">
        <ele>288</ele>
        <time>2023-02-14T09:19:17.422Z</time>
      </trkpt>
      <trkpt lat="45.61548" lon="5.53148">
        <ele>287</ele>
        <time>2023-02-14T09:19:18.422Z</time>
      </trkpt>
      <trkpt lat="45.6155" lon="5.53141">
        <ele>285</ele>
        <time>2023-02-14T09:19:19.422Z</time>
      </trkpt>
      <trkpt lat="45.61552" lon="5.53134">
        <ele>284</ele>
        <time>2023-02-14T09:19:20.422Z</time>
      </trkpt>
      <trkpt lat="45.61556" lon="5.53128">
        <ele>283</ele>
        <time>2023-02-14T09:19:21.422Z</time>
      </trkpt>
      <trkpt lat="45.6156" lon="5.53123">
        <ele>282</ele>
        <time>2023-02-14T09:19:22.422Z</time>
      </trkpt>
      <trkpt lat="45.61563" lon="5.53117">
        <ele>281</ele>
        <time>2023-02-14T09:19:23.422Z</time>
      </trkpt>
      <trkpt lat="45.61567" lon="5.53112">
        <ele>281</ele>
        <time>2023-02-14T09:19:24.422Z</time>
      </trkpt>
      <trkpt lat="45.61571" lon="5.53107">
        <ele>280</ele>
        <time>2023-02-14T09:19:25.422Z</time>
      </trkpt>
      <trkpt lat="45.61575" lon="5.53103">
        <ele>280</ele>
        <time>2023-02-14T09:19:26.422Z</time>
      </trkpt>
      <trkpt lat="45.61579" lon="5.53098">
        <ele>280</ele>
        <time>2023-02-14T09:19:27.422Z</time>
      </trkpt>
      <trkpt lat="45.61583" lon="5.53093">
        <ele>280</ele>
        <time>2023-02-14T09:19:28.422Z</time>
      </trkpt>
      <trkpt lat="45.61586" lon="5.53088">
        <ele>279</ele>
        <time>2023-02-14T09:19:29.422Z</time>
      </trkpt>
      <trkpt lat="45.6159" lon="5.53083">
        <ele>278</ele>
        <time>2023-02-14T09:19:30.422Z</time>
      </trkpt>
      <trkpt lat="45.61593" lon="5.53077">
        <ele>278</ele>
        <time>2023-02-14T09:19:31.422Z</time>
      </trkpt>
      <trkpt lat="45.61596" lon="5.53071">
        <ele>278</ele>
        <time>2023-02-14T09:19:32.422Z</time>
      </trkpt>
      <trkpt lat="45.61599" lon="5.53065">
        <ele>277</ele>
        <time>2023-02-14T09:19:33.422Z</time>
      </trkpt>
      <trkpt lat="45.61602" lon="5.53059">
        <ele>277</ele>
        <time>2023-02-14T09:19:34.422Z</time>
      </trkpt>
      <trkpt lat="45.61605" lon="5.53053">
        <ele>277</ele>
        <time>2023-02-14T09:19:35.422Z</time>
      </trkpt>
      <trkpt lat="45.61608" lon="5.53047">
        <ele>277</ele>
        <time>2023-02-14T09:19:36.422Z</time>
      </trkpt>
      <trkpt lat="45.6161" lon="5.53042">
        <ele>277</ele>
        <time>2023-02-14T09:19:37.422Z</time>
      </trkpt>
      <trkpt lat="45.61613" lon="5.53036">
        <ele>276</ele>
        <time>2023-02-14T09:19:38.422Z</time>
      </trkpt>
      <trkpt lat="45.61615" lon="5.5303">
        <ele>276</ele>
        <time>2023-02-14T09:19:39.422Z</time>
      </trkpt>
      <trkpt lat="45.61617" lon="5.53024">
        <ele>277</ele>
        <time>2023-02-14T09:19:40.422Z</time>
      </trkpt>
      <trkpt lat="45.61619" lon="5.53018">
        <ele>277</ele>
        <time>2023-02-14T09:19:41.422Z</time>
      </trkpt>
      <trkpt lat="45.61621" lon="5.53012">
        <ele>277</ele>
        <time>2023-02-14T09:19:42.422Z</time>
      </trkpt>
      <trkpt lat="45.61624" lon="5.53006">
        <ele>276</ele>
        <time>2023-02-14T09:19:43.422Z</time>
      </trkpt>
      <trkpt lat="45.61626" lon="5.53001">
        <ele>276</ele>
        <time>2023-02-14T09:19:44.422Z</time>
      </trkpt>
      <trkpt lat="45.61628" lon="5.52995">
        <ele>277</ele>
        <time>2023-02-14T09:19:45.422Z</time>
      </trkpt>
      <trkpt lat="45.61631" lon="5.52989">
        <ele>277</ele>
        <time>2023-02-14T09:19:46.422Z</time>
      </trkpt>
      <trkpt lat="45.61633" lon="5.52983">
        <ele>277</ele>
        <time>2023-02-14T09:19:47.422Z</time>
      </trkpt>
      <trkpt lat="45.61635" lon="5.52978">
        <ele>276</ele>
        <time>2023-02-14T09:19:48.422Z</time>
      </trkpt>
      <trkpt lat="45.61637" lon="5.52972">
        <ele>276</ele>
        <time>2023-02-14T09:19:49.422Z</time>
      </trkpt>
      <trkpt lat="45.61639" lon="5.52966">
        <ele>276</ele>
        <time>2023-02-14T09:19:50.422Z</time>
      </trkpt>
      <trkpt lat="45.61642" lon="5.5296">
        <ele>276</ele>
        <time>2023-02-14T09:19:51.422Z</time>
      </trkpt>
      <trkpt lat="45.61644" lon="5.52954">
        <ele>277</ele>
        <time>2023-02-14T09:19:52.422Z</time>
      </trkpt>
      <trkpt lat="45.61646" lon="5.52948">
        <ele>277</ele>
        <time>2023-02-14T09:19:53.422Z</time>
      </trkpt>
      <trkpt lat="45.61648" lon="5.52942">
        <ele>278</ele>
        <time>2023-02-14T09:19:54.422Z</time>
      </trkpt>
      <trkpt lat="45.6165" lon="5.52936">
        <ele>278</ele>
        <time>2023-02-14T09:19:55.422Z</time>
      </trkpt>
      <trkpt lat="45.61653" lon="5.52931">
        <ele>278</ele>
        <time>2023-02-14T09:19:56.422Z</time>
      </trkpt>
      <trkpt lat="45.61655" lon="5.52925">
        <ele>278</ele>
        <time>2023-02-14T09:19:57.422Z</time>
      </trkpt>
      <trkpt lat="45.61657" lon="5.5292">
        <ele>278</ele>
        <time>2023-02-14T09:19:58.422Z</time>
      </trkpt>
      <trkpt lat="45.61659" lon="5.52915">
        <ele>279</ele>
        <time>2023-02-14T09:19:59.422Z</time>
      </trkpt>
      <trkpt lat="45.61661" lon="5.5291">
        <ele>278</ele>
        <time>2023-02-14T09:20:00.422Z</time>
      </trkpt>
      <trkpt lat="45.61664" lon="5.52905">
        <ele>279</ele>
        <time>2023-02-14T09:20:01.422Z</time>
      </trkpt>
      <trkpt lat="45.61666" lon="5.529">
        <ele>278</ele>
        <time>2023-02-14T09:20:02.422Z</time>
      </trkpt>
      <trkpt lat="45.61668" lon="5.52895">
        <ele>279</ele>
        <time>2023-02-14T09:20:03.422Z</time>
      </trkpt>
      <trkpt lat="45.6167" lon="5.52891">
        <ele>279</ele>
        <time>2023-02-14T09:20:04.422Z</time>
      </trkpt>
      <trkpt lat="45.61672" lon="5.52887">
        <ele>279</ele>
        <time>2023-02-14T09:20:05.422Z</time>
      </trkpt>
      <trkpt lat="45.61674" lon="5.52884">
        <ele>280</ele>
        <time>2023-02-14T09:20:06.422Z</time>
      </trkpt>
      <trkpt lat="45.61676" lon="5.5288">
        <ele>280</ele>
        <time>2023-02-14T09:20:07.422Z</time>
      </trkpt>
      <trkpt lat="45.61678" lon="5.52876">
        <ele>281</ele>
        <time>2023-02-14T09:20:08.422Z</time>
      </trkpt>
      <trkpt lat="45.6168" lon="5.52873">
        <ele>280</ele>
        <time>2023-02-14T09:20:09.422Z</time>
      </trkpt>
      <trkpt lat="45.61682" lon="5.5287">
        <ele>281</ele>
        <time>2023-02-14T09:20:10.422Z</time>
      </trkpt>
      <trkpt lat="45.61684" lon="5.52867">
        <ele>281</ele>
        <time>2023-02-14T09:20:11.422Z</time>
      </trkpt>
      <trkpt lat="45.61685" lon="5.52863">
        <ele>279</ele>
        <time>2023-02-14T09:20:12.422Z</time>
      </trkpt>
      <trkpt lat="45.61687" lon="5.5286">
        <ele>278</ele>
        <time>2023-02-14T09:20:13.422Z</time>
      </trkpt>
      <trkpt lat="45.61688" lon="5.52857">
        <ele>276</ele>
        <time>2023-02-14T09:20:14.422Z</time>
      </trkpt>
      <trkpt lat="45.6169" lon="5.52854">
        <ele>275</ele>
        <time>2023-02-14T09:20:15.422Z</time>
      </trkpt>
      <trkpt lat="45.61692" lon="5.52851">
        <ele>275</ele>
        <time>2023-02-14T09:20:16.422Z</time>
      </trkpt>
      <trkpt lat="45.61694" lon="5.52848">
        <ele>275</ele>
        <time>2023-02-14T09:20:17.422Z</time>
      </trkpt>
      <trkpt lat="45.61696" lon="5.52845">
        <ele>275</ele>
        <time>2023-02-14T09:20:18.422Z</time>
      </trkpt>
      <trkpt lat="45.61697" lon="5.52842">
        <ele>276</ele>
        <time>2023-02-14T09:20:19.422Z</time>
      </trkpt>
      <trkpt lat="45.61699" lon="5.52839">
        <ele>275</ele>
        <time>2023-02-14T09:20:20.422Z</time>
      </trkpt>
      <trkpt lat="45.617" lon="5.52836">
        <ele>276</ele>
        <time>2023-02-14T09:20:21.422Z</time>
      </trkpt>
      <trkpt lat="45.61702" lon="5.52834">
        <ele>277</ele>
        <time>2023-02-14T09:20:22.422Z</time>
      </trkpt>
      <trkpt lat="45.61704" lon="5.52831">
        <ele>278</ele>
        <time>2023-02-14T09:20:23.422Z</time>
      </trkpt>
      <trkpt lat="45.61705" lon="5.52828">
        <ele>278</ele>
        <time>2023-02-14T09:20:24.422Z</time>
      </trkpt>
      <trkpt lat="45.61707" lon="5.52826">
        <ele>278</ele>
        <time>2023-02-14T09:20:25.422Z</time>
      </trkpt>
      <trkpt lat="45.61708" lon="5.52823">
        <ele>278</ele>
        <time>2023-02-14T09:20:26.422Z</time>
      </trkpt>
      <trkpt lat="45.61709" lon="5.52821">
        <ele>279</ele>
        <time>2023-02-14T09:20:27.422Z</time>
      </trkpt>
      <trkpt lat="45.61711" lon="5.52819">
        <ele>280</ele>
        <time>2023-02-14T09:20:28.422Z</time>
      </trkpt>
      <trkpt lat="45.61712" lon="5.52816">
        <ele>281</ele>
        <time>2023-02-14T09:20:29.422Z</time>
      </trkpt>
      <trkpt lat="45.61714" lon="5.52814">
        <ele>283</ele>
        <time>2023-02-14T09:20:30.422Z</time>
      </trkpt>
      <trkpt lat="45.61715" lon="5.52812">
        <ele>284</ele>
        <time>2023-02-14T09:20:31.422Z</time>
      </trkpt>
      <trkpt lat="45.61717" lon="5.52809">
        <ele>285</ele>
        <time>2023-02-14T09:20:32.422Z</time>
      </trkpt>
      <trkpt lat="45.61718" lon="5.52807">
        <ele>285</ele>
        <time>2023-02-14T09:20:33.422Z</time>
      </trkpt>
      <trkpt lat="45.6172" lon="5.52805">
        <ele>287</ele>
        <time>2023-02-14T09:20:34.422Z</time>
      </trkpt>
      <trkpt lat="45.61721" lon="5.52802">
        <ele>287</ele>
        <time>2023-02-14T09:20:35.422Z</time>
      </trkpt>
      <trkpt lat="45.61723" lon="5.528">
        <ele>287</ele>
        <time>2023-02-14T09:20:36.422Z</time>
      </trkpt>
      <trkpt lat="45.61724" lon="5.52798">
        <ele>287</ele>
        <time>2023-02-14T09:20:37.422Z</time>
      </trkpt>
      <trkpt lat="45.61726" lon="5.52796">
        <ele>287</ele>
        <time>2023-02-14T09:20:38.422Z</time>
      </trkpt>
      <trkpt lat="45.61727" lon="5.52794">
        <ele>287</ele>
        <time>2023-02-14T09:20:39.422Z</time>
      </trkpt>
      <trkpt lat="45.61728" lon="5.52792">
        <ele>288</ele>
        <time>2023-02-14T09:20:40.422Z</time>
      </trkpt>
      <trkpt lat="45.6173" lon="5.5279">
        <ele>288</ele>
        <time>2023-02-14T09:20:41.422Z</time>
      </trkpt>
      <trkpt lat="45.61731" lon="5.52788">
        <ele>288</ele>
        <time>2023-02-14T09:20:42.422Z</time>
      </trkpt>
      <trkpt lat="45.61733" lon="5.52786">
        <ele>289</ele>
        <time>2023-02-14T09:20:43.422Z</time>
      </trkpt>
      <trkpt lat="45.61734" lon="5.52784">
        <ele>289</ele>
        <time>2023-02-14T09:20:44.422Z</time>
      </trkpt>
      <trkpt lat="45.61735" lon="5.52782">
        <ele>290</ele>
        <time>2023-02-14T09:20:45.422Z</time>
      </trkpt>
      <trkpt lat="45.61736" lon="5.5278">
        <ele>291</ele>
        <time>2023-02-14T09:20:46.422Z</time>
      </trkpt>
      <trkpt lat="45.61738" lon="5.52779">
        <ele>292</ele>
        <time>2023-02-14T09:20:47.422Z</time>
      </trkpt>
      <trkpt lat="45.61739" lon="5.52777">
        <ele>292</ele>
        <time>2023-02-14T09:20:48.422Z</time>
      </trkpt>
      <trkpt lat="45.6174" lon="5.52775">
        <ele>292</ele>
        <time>2023-02-14T09:20:49.422Z</time>
      </trkpt>
      <trkpt lat="45.61741" lon="5.52773">
        <ele>293</ele>
        <time>2023-02-14T09:20:50.422Z</time>
      </trkpt>
      <trkpt lat="45.61742" lon="5.52771">
        <ele>293</ele>
        <time>2023-02-14T09:20:51.422Z</time>
      </trkpt>
      <trkpt lat="45.61743" lon="5.5277">
        <ele>292</ele>
        <time>2023-02-14T09:20:52.422Z</time>
      </trkpt>
      <trkpt lat="45.61743" lon="5.52768">
        <ele>293</ele>
        <time>2023-02-14T09:20:53.422Z</time>
      </trkpt>
      <trkpt lat="45.61744" lon="5.52766">
        <ele>294</ele>
        <time>2023-02-14T09:20:54.422Z</time>
      </trkpt>
      <trkpt lat="45.61745" lon="5.52764">
        <ele>294</ele>
        <time>2023-02-14T09:20:55.422Z</time>
      </trkpt>
      <trkpt lat="45.61746" lon="5.52762">
        <ele>295</ele>
        <time>2023-02-14T09:20:56.422Z</time>
      </trkpt>
      <trkpt lat="45.61747" lon="5.5276">
        <ele>295</ele>
        <time>2023-02-14T09:20:57.422Z</time>
      </trkpt>
      <trkpt lat="45.61748" lon="5.52758">
        <ele>296</ele>
        <time>2023-02-14T09:20:58.422Z</time>
      </trkpt>
      <trkpt lat="45.61749" lon="5.52756">
        <ele>296</ele>
        <time>2023-02-14T09:20:59.422Z</time>
      </trkpt>
      <trkpt lat="45.6175" lon="5.52754">
        <ele>296</ele>
        <time>2023-02-14T09:21:00.422Z</time>
      </trkpt>
      <trkpt lat="45.61751" lon="5.52752">
        <ele>297</ele>
        <time>2023-02-14T09:21:01.422Z</time>
      </trkpt>
      <trkpt lat="45.61752" lon="5.5275">
        <ele>297</ele>
        <time>2023-02-14T09:21:02.422Z</time>
      </trkpt>
      <trkpt lat="45.61753" lon="5.52748">
        <ele>298</ele>
        <time>2023-02-14T09:21:03.422Z</time>
      </trkpt>
      <trkpt lat="45.61754" lon="5.52746">
        <ele>297</ele>
        <time>2023-02-14T09:21:04.422Z</time>
      </trkpt>
      <trkpt lat="45.61754" lon="5.52744">
        <ele>297</ele>
        <time>2023-02-14T09:21:05.422Z</time>
      </trkpt>
      <trkpt lat="45.61755" lon="5.52742">
        <ele>298</ele>
        <time>2023-02-14T09:21:06.422Z</time>
      </trkpt>
      <trkpt lat="45.61756" lon="5.52739">
        <ele>298</ele>
        <time>2023-02-14T09:21:07.422Z</time>
      </trkpt>
      <trkpt lat="45.61757" lon="5.52737">
        <ele>297</ele>
        <time>2023-02-14T09:21:08.422Z</time>
      </trkpt>
      <trkpt lat="45.61758" lon="5.52734">
        <ele>297</ele>
        <time>2023-02-14T09:21:09.422Z</time>
      </trkpt>
      <trkpt lat="45.61759" lon="5.52731">
        <ele>297</ele>
        <time>2023-02-14T09:21:10.422Z</time>
      </trkpt>
      <trkpt lat="45.6176" lon="5.52729">
        <ele>298</ele>
        <time>2023-02-14T09:21:11.422Z</time>
      </trkpt>
      <trkpt lat="45.61761" lon="5.52726">
        <ele>298</ele>
        <time>2023-02-14T09:21:12.422Z</time>
      </trkpt>
      <trkpt lat="45.61763" lon="5.52723">
        <ele>298</ele>
        <time>2023-02-14T09:21:13.422Z</time>
      </trkpt>
      <trkpt lat="45.61764" lon="5.52721">
        <ele>298</ele>
        <time>2023-02-14T09:21:14.422Z</time>
      </trkpt>
      <trkpt lat="45.61765" lon="5.52718">
        <ele>298</ele>
        <time>2023-02-14T09:21:15.422Z</time>
      </trkpt>
      <trkpt lat="45.61766" lon="5.52715">
        <ele>298</ele>
        <time>2023-02-14T09:21:16.422Z</time>
      </trkpt>
      <trkpt lat="45.61767" lon="5.52712">
        <ele>298</ele>
        <time>2023-02-14T09:21:17.422Z</time>
      </trkpt>
      <trkpt lat="45.61769" lon="5.52709">
        <ele>299</ele>
        <time>2023-02-14T09:21:18.422Z</time>
      </trkpt>
      <trkpt lat="45.6177" lon="5.52706">
        <ele>299</ele>
        <time>2023-02-14T09:21:19.422Z</time>
      </trkpt>
      <trkpt lat="45.61772" lon="5.52703">
        <ele>299</ele>
        <time>2023-02-14T09:21:20.422Z</time>
      </trkpt>
      <trkpt lat="45.61773" lon="5.52699">
        <ele>298</ele>
        <time>2023-02-14T09:21:21.422Z</time>
      </trkpt>
      <trkpt lat="45.61774" lon="5.52696">
        <ele>298</ele>
        <time>2023-02-14T09:21:22.422Z</time>
      </trkpt>
      <trkpt lat="45.61776" lon="5.52693">
        <ele>298</ele>
        <time>2023-02-14T09:21:23.422Z</time>
      </trkpt>
      <trkpt lat="45.61777" lon="5.5269">
        <ele>298</ele>
        <time>2023-02-14T09:21:24.422Z</time>
      </trkpt>
      <trkpt lat="45.61779" lon="5.52686">
        <ele>298</ele>
        <time>2023-02-14T09:21:25.422Z</time>
      </trkpt>
      <trkpt lat="45.6178" lon="5.52683">
        <ele>298</ele>
        <time>2023-02-14T09:21:26.422Z</time>
      </trkpt>
      <trkpt lat="45.61781" lon="5.5268">
        <ele>298</ele>
        <time>2023-02-14T09:21:27.422Z</time>
      </trkpt>
      <trkpt lat="45.61783" lon="5.52677">
        <ele>298</ele>
        <time>2023-02-14T09:21:28.422Z</time>
      </trkpt>
      <trkpt lat="45.61784" lon="5.52674">
        <ele>298</ele>
        <time>2023-02-14T09:21:29.422Z</time>
      </trkpt>
      <trkpt lat="45.61785" lon="5.52672">
        <ele>298</ele>
        <time>2023-02-14T09:21:30.422Z</time>
      </trkpt>
      <trkpt lat="45.61787" lon="5.52669">
        <ele>298</ele>
        <time>2023-02-14T09:21:31.422Z</time>
      </trkpt>
      <trkpt lat="45.61788" lon="5.52665">
        <ele>298</ele>
        <time>2023-02-14T09:21:32.422Z</time>
      </trkpt>
      <trkpt lat="45.6179" lon="5.52662">
        <ele>298</ele>
        <time>2023-02-14T09:21:33.422Z</time>
      </trkpt>
      <trkpt lat="45.61792" lon="5.52658">
        <ele>298</ele>
        <time>2023-02-14T09:21:34.422Z</time>
      </trkpt>
      <trkpt lat="45.61793" lon="5.52655">
        <ele>298</ele>
        <time>2023-02-14T09:21:35.422Z</time>
      </trkpt>
      <trkpt lat="45.61795" lon="5.52651">
        <ele>298</ele>
        <time>2023-02-14T09:21:36.422Z</time>
      </trkpt>
      <trkpt lat="45.61796" lon="5.52648">
        <ele>298</ele>
        <time>2023-02-14T09:21:37.422Z</time>
      </trkpt>
      <trkpt lat="45.61798" lon="5.52645">
        <ele>297</ele>
        <time>2023-02-14T09:21:38.422Z</time>
      </trkpt>
      <trkpt lat="45.618" lon="5.52641">
        <ele>298</ele>
        <time>2023-02-14T09:21:39.422Z</time>
      </trkpt>
      <trkpt lat="45.61802" lon="5.52638">
        <ele>298</ele>
        <time>2023-02-14T09:21:40.422Z</time>
      </trkpt>
      <trkpt lat="45.61803" lon="5.52634">
        <ele>298</ele>
        <time>2023-02-14T09:21:41.422Z</time>
      </trkpt>
      <trkpt lat="45.61805" lon="5.52631">
        <ele>298</ele>
        <time>2023-02-14T09:21:42.422Z</time>
      </trkpt>
      <trkpt lat="45.61807" lon="5.52627">
        <ele>298</ele>
        <time>2023-02-14T09:21:43.422Z</time>
      </trkpt>
      <trkpt lat="45.61808" lon="5.52624">
        <ele>297</ele>
        <time>2023-02-14T09:21:44.422Z</time>
      </trkpt>
      <trkpt lat="45.6181" lon="5.5262">
        <ele>298</ele>
        <time>2023-02-14T09:21:45.422Z</time>
      </trkpt>
      <trkpt lat="45.61811" lon="5.52617">
        <ele>298</ele>
        <time>2023-02-14T09:21:46.422Z</time>
      </trkpt>
      <trkpt lat="45.61813" lon="5.52614">
        <ele>298</ele>
        <time>2023-02-14T09:21:47.422Z</time>
      </trkpt>
      <trkpt lat="45.61814" lon="5.5261">
        <ele>298</ele>
        <time>2023-02-14T09:21:48.422Z</time>
      </trkpt>
      <trkpt lat="45.61816" lon="5.52607">
        <ele>298</ele>
        <time>2023-02-14T09:21:49.422Z</time>
      </trkpt>
      <trkpt lat="45.61817" lon="5.52604">
        <ele>298</ele>
        <time>2023-02-14T09:21:50.422Z</time>
      </trkpt>
      <trkpt lat="45.61818" lon="5.52601">
        <ele>298</ele>
        <time>2023-02-14T09:21:51.422Z</time>
      </trkpt>
      <trkpt lat="45.6182" lon="5.52598">
        <ele>298</ele>
        <time>2023-02-14T09:21:52.422Z</time>
      </trkpt>
      <trkpt lat="45.61821" lon="5.52595">
        <ele>298</ele>
        <time>2023-02-14T09:21:53.422Z</time>
      </trkpt>
      <trkpt lat="45.61822" lon="5.52592">
        <ele>298</ele>
        <time>2023-02-14T09:21:54.422Z</time>
      </trkpt>
      <trkpt lat="45.61823" lon="5.52589">
        <ele>299</ele>
        <time>2023-02-14T09:21:55.422Z</time>
      </trkpt>
      <trkpt lat="45.61825" lon="5.52586">
        <ele>299</ele>
        <time>2023-02-14T09:21:56.422Z</time>
      </trkpt>
      <trkpt lat="45.61826" lon="5.52582">
        <ele>299</ele>
        <time>2023-02-14T09:21:57.422Z</time>
      </trkpt>
      <trkpt lat="45.61828" lon="5.5258">
        <ele>299</ele>
        <time>2023-02-14T09:21:58.422Z</time>
      </trkpt>
      <trkpt lat="45.61829" lon="5.52577">
        <ele>299</ele>
        <time>2023-02-14T09:21:59.422Z</time>
      </trkpt>
      <trkpt lat="45.61831" lon="5.52574">
        <ele>299</ele>
        <time>2023-02-14T09:22:00.422Z</time>
      </trkpt>
      <trkpt lat="45.61833" lon="5.52572">
        <ele>299</ele>
        <time>2023-02-14T09:22:01.422Z</time>
      </trkpt>
      <trkpt lat="45.61835" lon="5.52569">
        <ele>299</ele>
        <time>2023-02-14T09:22:02.422Z</time>
      </trkpt>
      <trkpt lat="45.61837" lon="5.52567">
        <ele>299</ele>
        <time>2023-02-14T09:22:03.422Z</time>
      </trkpt>
      <trkpt lat="45.61839" lon="5.52565">
        <ele>299</ele>
        <time>2023-02-14T09:22:04.422Z</time>
      </trkpt>
      <trkpt lat="45.61841" lon="5.52562">
        <ele>299</ele>
        <time>2023-02-14T09:22:05.422Z</time>
      </trkpt>
      <trkpt lat="45.61844" lon="5.5256">
        <ele>299</ele>
        <time>2023-02-14T09:22:06.422Z</time>
      </trkpt>
      <trkpt lat="45.61846" lon="5.52558">
        <ele>298</ele>
        <time>2023-02-14T09:22:07.422Z</time>
      </trkpt>
      <trkpt lat="45.61849" lon="5.52556">
        <ele>298</ele>
        <time>2023-02-14T09:22:08.422Z</time>
      </trkpt>
      <trkpt lat="45.61851" lon="5.52554">
        <ele>298</ele>
        <time>2023-02-14T09:22:09.422Z</time>
      </trkpt>
      <trkpt lat="45.61854" lon="5.52552">
        <ele>298</ele>
        <time>2023-02-14T09:22:10.422Z</time>
      </trkpt>
      <trkpt lat="45.61856" lon="5.5255">
        <ele>298</ele>
        <time>2023-02-14T09:22:11.422Z</time>
      </trkpt>
      <trkpt lat="45.61858" lon="5.52548">
        <ele>297</ele>
        <time>2023-02-14T09:22:12.422Z</time>
      </trkpt>
      <trkpt lat="45.61861" lon="5.52547">
        <ele>297</ele>
        <time>2023-02-14T09:22:13.422Z</time>
      </trkpt>
      <trkpt lat="45.61863" lon="5.52545">
        <ele>297</ele>
        <time>2023-02-14T09:22:14.422Z</time>
      </trkpt>
      <trkpt lat="45.61866" lon="5.52543">
        <ele>297</ele>
        <time>2023-02-14T09:22:15.422Z</time>
      </trkpt>
      <trkpt lat="45.61869" lon="5.52541">
        <ele>297</ele>
        <time>2023-02-14T09:22:16.422Z</time>
      </trkpt>
      <trkpt lat="45.61871" lon="5.52539">
        <ele>297</ele>
        <time>2023-02-14T09:22:17.422Z</time>
      </trkpt>
      <trkpt lat="45.61874" lon="5.52537">
        <ele>297</ele>
        <time>2023-02-14T09:22:18.422Z</time>
      </trkpt>
      <trkpt lat="45.61876" lon="5.52535">
        <ele>297</ele>
        <time>2023-02-14T09:22:19.422Z</time>
      </trkpt>
      <trkpt lat="45.61879" lon="5.52533">
        <ele>297</ele>
        <time>2023-02-14T09:22:20.422Z</time>
      </trkpt>
      <trkpt lat="45.61881" lon="5.52531">
        <ele>297</ele>
        <time>2023-02-14T09:22:21.422Z</time>
      </trkpt>
      <trkpt lat="45.61884" lon="5.5253">
        <ele>297</ele>
        <time>2023-02-14T09:22:22.422Z</time>
      </trkpt>
      <trkpt lat="45.61887" lon="5.52529">
        <ele>297</ele>
        <time>2023-02-14T09:22:23.422Z</time>
      </trkpt>
      <trkpt lat="45.6189" lon="5.52527">
        <ele>298</ele>
        <time>2023-02-14T09:22:24.422Z</time>
      </trkpt>
      <trkpt lat="45.61893" lon="5.52526">
        <ele>298</ele>
        <time>2023-02-14T09:22:25.422Z</time>
      </trkpt>
      <trkpt lat="45.61896" lon="5.52524">
        <ele>298</ele>
        <time>2023-02-14T09:22:26.422Z</time>
      </trkpt>
      <trkpt lat="45.61898" lon="5.52522">
        <ele>298</ele>
        <time>2023-02-14T09:22:27.422Z</time>
      </trkpt>
      <trkpt lat="45.61901" lon="5.52521">
        <ele>298</ele>
        <time>2023-02-14T09:22:28.422Z</time>
      </trkpt>
      <trkpt lat="45.61904" lon="5.52519">
        <ele>298</ele>
        <time>2023-02-14T09:22:29.422Z</time>
      </trkpt>
      <trkpt lat="45.61906" lon="5.52517">
        <ele>298</ele>
        <time>2023-02-14T09:22:30.422Z</time>
      </trkpt>
      <trkpt lat="45.61909" lon="5.52515">
        <ele>298</ele>
        <time>2023-02-14T09:22:31.422Z</time>
      </trkpt>
      <trkpt lat="45.61911" lon="5.52513">
        <ele>298</ele>
        <time>2023-02-14T09:22:32.422Z</time>
      </trkpt>
      <trkpt lat="45.61914" lon="5.52512">
        <ele>298</ele>
        <time>2023-02-14T09:22:33.422Z</time>
      </trkpt>
      <trkpt lat="45.61917" lon="5.52511">
        <ele>298</ele>
        <time>2023-02-14T09:22:34.422Z</time>
      </trkpt>
      <trkpt lat="45.61919" lon="5.5251">
        <ele>297</ele>
        <time>2023-02-14T09:22:35.422Z</time>
      </trkpt>
      <trkpt lat="45.61922" lon="5.52509">
        <ele>297</ele>
        <time>2023-02-14T09:22:36.422Z</time>
      </trkpt>
      <trkpt lat="45.61925" lon="5.52508">
        <ele>297</ele>
        <time>2023-02-14T09:22:37.422Z</time>
      </trkpt>
      <trkpt lat="45.61927" lon="5.52508">
        <ele>298</ele>
        <time>2023-02-14T09:22:38.422Z</time>
      </trkpt>
      <trkpt lat="45.6193" lon="5.52508">
        <ele>298</ele>
        <time>2023-02-14T09:22:39.422Z</time>
      </trkpt>
      <trkpt lat="45.61933" lon="5.52508">
        <ele>298</ele>
        <time>2023-02-14T09:22:40.422Z</time>
      </trkpt>
      <trkpt lat="45.61935" lon="5.52509">
        <ele>298</ele>
        <time>2023-02-14T09:22:41.422Z</time>
      </trkpt>
      <trkpt lat="45.61938" lon="5.5251">
        <ele>298</ele>
        <time>2023-02-14T09:22:42.422Z</time>
      </trkpt>
      <trkpt lat="45.61941" lon="5.52511">
        <ele>297</ele>
        <time>2023-02-14T09:22:43.422Z</time>
      </trkpt>
      <trkpt lat="45.61943" lon="5.52513">
        <ele>298</ele>
        <time>2023-02-14T09:22:44.422Z</time>
      </trkpt>
      <trkpt lat="45.61946" lon="5.52515">
        <ele>298</ele>
        <time>2023-02-14T09:22:45.422Z</time>
      </trkpt>
      <trkpt lat="45.61948" lon="5.52517">
        <ele>298</ele>
        <time>2023-02-14T09:22:46.422Z</time>
      </trkpt>
      <trkpt lat="45.61951" lon="5.52518">
        <ele>298</ele>
        <time>2023-02-14T09:22:47.422Z</time>
      </trkpt>
      <trkpt lat="45.61954" lon="5.52519">
        <ele>297</ele>
        <time>2023-02-14T09:22:48.422Z</time>
      </trkpt>
      <trkpt lat="45.61957" lon="5.5252">
        <ele>297</ele>
        <time>2023-02-14T09:22:49.422Z</time>
      </trkpt>
      <trkpt lat="45.6196" lon="5.52521">
        <ele>297</ele>
        <time>2023-02-14T09:22:50.422Z</time>
      </trkpt>
      <trkpt lat="45.61963" lon="5.52521">
        <ele>297</ele>
        <time>2023-02-14T09:22:51.422Z</time>
      </trkpt>
      <trkpt lat="45.61966" lon="5.5252">
        <ele>297</ele>
        <time>2023-02-14T09:22:52.422Z</time>
      </trkpt>
      <trkpt lat="45.6197" lon="5.5252">
        <ele>297</ele>
        <time>2023-02-14T09:22:53.422Z</time>
      </trkpt>
      <trkpt lat="45.61973" lon="5.52519">
        <ele>297</ele>
        <time>2023-02-14T09:22:54.422Z</time>
      </trkpt>
      <trkpt lat="45.61976" lon="5.52517">
        <ele>297</ele>
        <time>2023-02-14T09:22:55.422Z</time>
      </trkpt>
      <trkpt lat="45.61979" lon="5.52516">
        <ele>297</ele>
        <time>2023-02-14T09:22:56.422Z</time>
      </trkpt>
      <trkpt lat="45.61982" lon="5.52514">
        <ele>297</ele>
        <time>2023-02-14T09:22:57.422Z</time>
      </trkpt>
      <trkpt lat="45.61985" lon="5.52512">
        <ele>297</ele>
        <time>2023-02-14T09:22:58.422Z</time>
      </trkpt>
      <trkpt lat="45.61989" lon="5.52509">
        <ele>297</ele>
        <time>2023-02-14T09:22:59.422Z</time>
      </trkpt>
      <trkpt lat="45.61992" lon="5.52507">
        <ele>297</ele>
        <time>2023-02-14T09:23:00.422Z</time>
      </trkpt>
      <trkpt lat="45.61995" lon="5.52504">
        <ele>297</ele>
        <time>2023-02-14T09:23:01.422Z</time>
      </trkpt>
      <trkpt lat="45.61998" lon="5.52501">
        <ele>297</ele>
        <time>2023-02-14T09:23:02.422Z</time>
      </trkpt>
      <trkpt lat="45.62001" lon="5.52497">
        <ele>297</ele>
        <time>2023-02-14T09:23:03.422Z</time>
      </trkpt>
      <trkpt lat="45.62004" lon="5.52494">
        <ele>298</ele>
        <time>2023-02-14T09:23:04.422Z</time>
      </trkpt>
      <trkpt lat="45.62006" lon="5.5249">
        <ele>298</ele>
        <time>2023-02-14T09:23:05.422Z</time>
      </trkpt>
      <trkpt lat="45.62009" lon="5.52486">
        <ele>298</ele>
        <time>2023-02-14T09:23:06.422Z</time>
      </trkpt>
      <trkpt lat="45.62012" lon="5.52482">
        <ele>298</ele>
        <time>2023-02-14T09:23:07.422Z</time>
      </trkpt>
      <trkpt lat="45.62015" lon="5.52478">
        <ele>298</ele>
        <time>2023-02-14T09:23:08.422Z</time>
      </trkpt>
      <trkpt lat="45.62017" lon="5.52473">
        <ele>298</ele>
        <time>2023-02-14T09:23:09.422Z</time>
      </trkpt>
      <trkpt lat="45.62019" lon="5.52469">
        <ele>299</ele>
        <time>2023-02-14T09:23:10.422Z</time>
      </trkpt>
      <trkpt lat="45.62022" lon="5.52465">
        <ele>299</ele>
        <time>2023-02-14T09:23:11.422Z</time>
      </trkpt>
      <trkpt lat="45.62024" lon="5.52461">
        <ele>299</ele>
        <time>2023-02-14T09:23:12.422Z</time>
      </trkpt>
      <trkpt lat="45.62026" lon="5.52457">
        <ele>299</ele>
        <time>2023-02-14T09:23:13.422Z</time>
      </trkpt>
      <trkpt lat="45.62029" lon="5.52454">
        <ele>299</ele>
        <time>2023-02-14T09:23:14.422Z</time>
      </trkpt>
      <trkpt lat="45.62031" lon="5.5245">
        <ele>299</ele>
        <time>2023-02-14T09:23:15.422Z</time>
      </trkpt>
      <trkpt lat="45.62034" lon="5.52446">
        <ele>299</ele>
        <time>2023-02-14T09:23:16.422Z</time>
      </trkpt>
      <trkpt lat="45.62036" lon="5.52442">
        <ele>300</ele>
        <time>2023-02-14T09:23:17.422Z</time>
      </trkpt>
      <trkpt lat="45.62038" lon="5.52439">
        <ele>300</ele>
        <time>2023-02-14T09:23:18.422Z</time>
      </trkpt>
      <trkpt lat="45.62041" lon="5.52435">
        <ele>300</ele>
        <time>2023-02-14T09:23:19.422Z</time>
      </trkpt>
      <trkpt lat="45.62043" lon="5.52432">
        <ele>300</ele>
        <time>2023-02-14T09:23:20.422Z</time>
      </trkpt>
      <trkpt lat="45.62045" lon="5.52428">
        <ele>300</ele>
        <time>2023-02-14T09:23:21.422Z</time>
      </trkpt>
      <trkpt lat="45.62048" lon="5.52424">
        <ele>301</ele>
        <time>2023-02-14T09:23:22.422Z</time>
      </trkpt>
      <trkpt lat="45.6205" lon="5.5242">
        <ele>301</ele>
        <time>2023-02-14T09:23:23.422Z</time>
      </trkpt>
      <trkpt lat="45.62052" lon="5.52417">
        <ele>301</ele>
        <time>2023-02-14T09:23:24.422Z</time>
      </trkpt>
      <trkpt lat="45.62055" lon="5.52413">
        <ele>301</ele>
        <time>2023-02-14T09:23:25.422Z</time>
      </trkpt>
      <trkpt lat="45.62057" lon="5.52409">
        <ele>301</ele>
        <time>2023-02-14T09:23:26.422Z</time>
      </trkpt>
      <trkpt lat="45.6206" lon="5.52405">
        <ele>301</ele>
        <time>2023-02-14T09:23:27.422Z</time>
      </trkpt>
      <trkpt lat="45.62062" lon="5.52402">
        <ele>302</ele>
        <time>2023-02-14T09:23:28.422Z</time>
      </trkpt>
      <trkpt lat="45.62065" lon="5.52398">
        <ele>302</ele>
        <time>2023-02-14T09:23:29.422Z</time>
      </trkpt>
      <trkpt lat="45.62067" lon="5.52394">
        <ele>302</ele>
        <time>2023-02-14T09:23:30.422Z</time>
      </trkpt>
      <trkpt lat="45.62069" lon="5.5239">
        <ele>302</ele>
        <time>2023-02-14T09:23:31.422Z</time>
      </trkpt>
      <trkpt lat="45.62072" lon="5.52386">
        <ele>303</ele>
        <time>2023-02-14T09:23:32.422Z</time>
      </trkpt>
      <trkpt lat="45.62074" lon="5.52382">
        <ele>303</ele>
        <time>2023-02-14T09:23:33.422Z</time>
      </trkpt>
      <trkpt lat="45.62077" lon="5.52378">
        <ele>303</ele>
        <time>2023-02-14T09:23:34.422Z</time>
      </trkpt>
      <trkpt lat="45.62079" lon="5.52373">
        <ele>303</ele>
        <time>2023-02-14T09:23:35.422Z</time>
      </trkpt>
      <trkpt lat="45.62081" lon="5.52369">
        <ele>303</ele>
        <time>2023-02-14T09:23:36.422Z</time>
      </trkpt>
      <trkpt lat="45.62084" lon="5.52365">
        <ele>303</ele>
        <time>2023-02-14T09:23:37.422Z</time>
      </trkpt>
      <trkpt lat="45.62087" lon="5.5236">
        <ele>303</ele>
        <time>2023-02-14T09:23:38.422Z</time>
      </trkpt>
      <trkpt lat="45.6209" lon="5.52356">
        <ele>304</ele>
        <time>2023-02-14T09:23:39.422Z</time>
      </trkpt>
      <trkpt lat="45.62092" lon="5.52351">
        <ele>304</ele>
        <time>2023-02-14T09:23:40.422Z</time>
      </trkpt>
      <trkpt lat="45.62095" lon="5.52346">
        <ele>304</ele>
        <time>2023-02-14T09:23:41.422Z</time>
      </trkpt>
      <trkpt lat="45.62098" lon="5.52342">
        <ele>304</ele>
        <time>2023-02-14T09:23:42.422Z</time>
      </trkpt>
      <trkpt lat="45.62101" lon="5.52338">
        <ele>303</ele>
        <time>2023-02-14T09:23:43.422Z</time>
      </trkpt>
      <trkpt lat="45.62103" lon="5.52333">
        <ele>303</ele>
        <time>2023-02-14T09:23:44.422Z</time>
      </trkpt>
      <trkpt lat="45.62106" lon="5.52328">
        <ele>303</ele>
        <time>2023-02-14T09:23:45.422Z</time>
      </trkpt>
      <trkpt lat="45.62108" lon="5.52323">
        <ele>303</ele>
        <time>2023-02-14T09:23:46.422Z</time>
      </trkpt>
      <trkpt lat="45.6211" lon="5.52318">
        <ele>303</ele>
        <time>2023-02-14T09:23:47.422Z</time>
      </trkpt>
      <trkpt lat="45.62113" lon="5.52313">
        <ele>303</ele>
        <time>2023-02-14T09:23:48.422Z</time>
      </trkpt>
      <trkpt lat="45.62115" lon="5.52308">
        <ele>303</ele>
        <time>2023-02-14T09:23:49.422Z</time>
      </trkpt>
      <trkpt lat="45.62118" lon="5.52303">
        <ele>303</ele>
        <time>2023-02-14T09:23:50.422Z</time>
      </trkpt>
      <trkpt lat="45.6212" lon="5.52298">
        <ele>303</ele>
        <time>2023-02-14T09:23:51.422Z</time>
      </trkpt>
      <trkpt lat="45.62123" lon="5.52293">
        <ele>303</ele>
        <time>2023-02-14T09:23:52.422Z</time>
      </trkpt>
      <trkpt lat="45.62125" lon="5.52288">
        <ele>303</ele>
        <time>2023-02-14T09:23:53.422Z</time>
      </trkpt>
      <trkpt lat="45.62128" lon="5.52283">
        <ele>303</ele>
        <time>2023-02-14T09:23:54.422Z</time>
      </trkpt>
      <trkpt lat="45.6213" lon="5.52277">
        <ele>303</ele>
        <time>2023-02-14T09:23:55.422Z</time>
      </trkpt>
      <trkpt lat="45.62133" lon="5.52272">
        <ele>303</ele>
        <time>2023-02-14T09:23:56.422Z</time>
      </trkpt>
      <trkpt lat="45.62136" lon="5.52267">
        <ele>303</ele>
        <time>2023-02-14T09:23:57.422Z</time>
      </trkpt>
      <trkpt lat="45.62138" lon="5.52261">
        <ele>303</ele>
        <time>2023-02-14T09:23:58.422Z</time>
      </trkpt>
      <trkpt lat="45.6214" lon="5.52256">
        <ele>303</ele>
        <time>2023-02-14T09:23:59.422Z</time>
      </trkpt>
      <trkpt lat="45.62141" lon="5.5225">
        <ele>302</ele>
        <time>2023-02-14T09:24:00.422Z</time>
      </trkpt>
      <trkpt lat="45.62141" lon="5.52244">
        <ele>301</ele>
        <time>2023-02-14T09:24:01.422Z</time>
      </trkpt>
      <trkpt lat="45.62139" lon="5.52239">
        <ele>301</ele>
        <time>2023-02-14T09:24:02.422Z</time>
      </trkpt>
      <trkpt lat="45.62137" lon="5.52235">
        <ele>302</ele>
        <time>2023-02-14T09:24:03.422Z</time>
      </trkpt>
      <trkpt lat="45.62134" lon="5.52232">
        <ele>302</ele>
        <time>2023-02-14T09:24:04.422Z</time>
      </trkpt>
      <trkpt lat="45.62131" lon="5.52229">
        <ele>302</ele>
        <time>2023-02-14T09:24:05.422Z</time>
      </trkpt>
      <trkpt lat="45.62128" lon="5.52227">
        <ele>302</ele>
        <time>2023-02-14T09:24:06.422Z</time>
      </trkpt>
      <trkpt lat="45.62125" lon="5.52224">
        <ele>302</ele>
        <time>2023-02-14T09:24:07.422Z</time>
      </trkpt>
      <trkpt lat="45.62122" lon="5.52222">
        <ele>302</ele>
        <time>2023-02-14T09:24:08.422Z</time>
      </trkpt>
      <trkpt lat="45.62119" lon="5.5222">
        <ele>303</ele>
        <time>2023-02-14T09:24:09.422Z</time>
      </trkpt>
      <trkpt lat="45.62116" lon="5.52218">
        <ele>303</ele>
        <time>2023-02-14T09:24:10.422Z</time>
      </trkpt>
      <trkpt lat="45.62113" lon="5.52217">
        <ele>303</ele>
        <time>2023-02-14T09:24:11.422Z</time>
      </trkpt>
      <trkpt lat="45.6211" lon="5.52215">
        <ele>303</ele>
        <time>2023-02-14T09:24:12.422Z</time>
      </trkpt>
      <trkpt lat="45.62107" lon="5.52213">
        <ele>303</ele>
        <time>2023-02-14T09:24:13.422Z</time>
      </trkpt>
      <trkpt lat="45.62105" lon="5.52211">
        <ele>303</ele>
        <time>2023-02-14T09:24:14.422Z</time>
      </trkpt>
      <trkpt lat="45.62102" lon="5.52209">
        <ele>304</ele>
        <time>2023-02-14T09:24:15.422Z</time>
      </trkpt>
      <trkpt lat="45.62099" lon="5.52207">
        <ele>304</ele>
        <time>2023-02-14T09:24:16.422Z</time>
      </trkpt>
      <trkpt lat="45.62096" lon="5.52205">
        <ele>304</ele>
        <time>2023-02-14T09:24:17.422Z</time>
      </trkpt>
      <trkpt lat="45.62094" lon="5.52203">
        <ele>304</ele>
        <time>2023-02-14T09:24:18.422Z</time>
      </trkpt>
      <trkpt lat="45.62091" lon="5.52202">
        <ele>304</ele>
        <time>2023-02-14T09:24:19.422Z</time>
      </trkpt>
      <trkpt lat="45.62088" lon="5.522">
        <ele>304</ele>
        <time>2023-02-14T09:24:20.422Z</time>
      </trkpt>
      <trkpt lat="45.62086" lon="5.52198">
        <ele>305</ele>
        <time>2023-02-14T09:24:21.422Z</time>
      </trkpt>
      <trkpt lat="45.62083" lon="5.52196">
        <ele>305</ele>
        <time>2023-02-14T09:24:22.422Z</time>
      </trkpt>
      <trkpt lat="45.62081" lon="5.52194">
        <ele>305</ele>
        <time>2023-02-14T09:24:23.422Z</time>
      </trkpt>
      <trkpt lat="45.62078" lon="5.52192">
        <ele>305</ele>
        <time>2023-02-14T09:24:24.422Z</time>
      </trkpt>
      <trkpt lat="45.62076" lon="5.52189">
        <ele>306</ele>
        <time>2023-02-14T09:24:25.422Z</time>
      </trkpt>
      <trkpt lat="45.62073" lon="5.52187">
        <ele>306</ele>
        <time>2023-02-14T09:24:26.422Z</time>
      </trkpt>
      <trkpt lat="45.62071" lon="5.52185">
        <ele>306</ele>
        <time>2023-02-14T09:24:27.422Z</time>
      </trkpt>
      <trkpt lat="45.62069" lon="5.52183">
        <ele>306</ele>
        <time>2023-02-14T09:24:28.422Z</time>
      </trkpt>
      <trkpt lat="45.62066" lon="5.52181">
        <ele>306</ele>
        <time>2023-02-14T09:24:29.422Z</time>
      </trkpt>
      <trkpt lat="45.62064" lon="5.52179">
        <ele>306</ele>
        <time>2023-02-14T09:24:30.422Z</time>
      </trkpt>
      <trkpt lat="45.62062" lon="5.52176">
        <ele>307</ele>
        <time>2023-02-14T09:24:31.422Z</time>
      </trkpt>
      <trkpt lat="45.62059" lon="5.52174">
        <ele>307</ele>
        <time>2023-02-14T09:24:32.422Z</time>
      </trkpt>
      <trkpt lat="45.62057" lon="5.52171">
        <ele>307</ele>
        <time>2023-02-14T09:24:33.422Z</time>
      </trkpt>
      <trkpt lat="45.62055" lon="5.52169">
        <ele>307</ele>
        <time>2023-02-14T09:24:34.422Z</time>
      </trkpt>
      <trkpt lat="45.62053" lon="5.52166">
        <ele>307</ele>
        <time>2023-02-14T09:24:35.422Z</time>
      </trkpt>
      <trkpt lat="45.62051" lon="5.52163">
        <ele>308</ele>
        <time>2023-02-14T09:24:36.422Z</time>
      </trkpt>
      <trkpt lat="45.62048" lon="5.52161">
        <ele>308</ele>
        <time>2023-02-14T09:24:37.422Z</time>
      </trkpt>
      <trkpt lat="45.62046" lon="5.52158">
        <ele>308</ele>
        <time>2023-02-14T09:24:38.422Z</time>
      </trkpt>
      <trkpt lat="45.62044" lon="5.52156">
        <ele>308</ele>
        <time>2023-02-14T09:24:39.422Z</time>
      </trkpt>
      <trkpt lat="45.62041" lon="5.52153">
        <ele>308</ele>
        <time>2023-02-14T09:24:40.422Z</time>
      </trkpt>
      <trkpt lat="45.62039" lon="5.5215">
        <ele>309</ele>
        <time>2023-02-14T09:24:41.422Z</time>
      </trkpt>
      <trkpt lat="45.62037" lon="5.52148">
        <ele>309</ele>
        <time>2023-02-14T09:24:42.422Z</time>
      </trkpt>
      <trkpt lat="45.62035" lon="5.52145">
        <ele>309</ele>
        <time>2023-02-14T09:24:43.422Z</time>
      </trkpt>
      <trkpt lat="45.62032" lon="5.52143">
        <ele>310</ele>
        <time>2023-02-14T09:24:44.422Z</time>
      </trkpt>
      <trkpt lat="45.6203" lon="5.5214">
        <ele>310</ele>
        <time>2023-02-14T09:24:45.422Z</time>
      </trkpt>
      <trkpt lat="45.62028" lon="5.52137">
        <ele>310</ele>
        <time>2023-02-14T09:24:46.422Z</time>
      </trkpt>
      <trkpt lat="45.62026" lon="5.52134">
        <ele>310</ele>
        <time>2023-02-14T09:24:47.422Z</time>
      </trkpt>
      <trkpt lat="45.62024" lon="5.52132">
        <ele>310</ele>
        <time>2023-02-14T09:24:48.422Z</time>
      </trkpt>
      <trkpt lat="45.62021" lon="5.52129">
        <ele>310</ele>
        <time>2023-02-14T09:24:49.422Z</time>
      </trkpt>
      <trkpt lat="45.62019" lon="5.52126">
        <ele>310</ele>
        <time>2023-02-14T09:24:50.422Z</time>
      </trkpt>
      <trkpt lat="45.62017" lon="5.52122">
        <ele>310</ele>
        <time>2023-02-14T09:24:51.422Z</time>
      </trkpt>
      <trkpt lat="45.62014" lon="5.52119">
        <ele>310</ele>
        <time>2023-02-14T09:24:52.422Z</time>
      </trkpt>
      <trkpt lat="45.62012" lon="5.52115">
        <ele>310</ele>
        <time>2023-02-14T09:24:53.422Z</time>
      </trkpt>
      <trkpt lat="45.62009" lon="5.5211">
        <ele>310</ele>
        <time>2023-02-14T09:24:54.422Z</time>
      </trkpt>
      <trkpt lat="45.62006" lon="5.52106">
        <ele>310</ele>
        <time>2023-02-14T09:24:55.422Z</time>
      </trkpt>
      <trkpt lat="45.62003" lon="5.52102">
        <ele>310</ele>
        <time>2023-02-14T09:24:56.422Z</time>
      </trkpt>
      <trkpt lat="45.62" lon="5.52097">
        <ele>310</ele>
        <time>2023-02-14T09:24:57.422Z</time>
      </trkpt>
      <trkpt lat="45.61997" lon="5.52093">
        <ele>310</ele>
        <time>2023-02-14T09:24:58.422Z</time>
      </trkpt>
      <trkpt lat="45.61994" lon="5.52088">
        <ele>310</ele>
        <time>2023-02-14T09:24:59.422Z</time>
      </trkpt>
      <trkpt lat="45.61992" lon="5.52083">
        <ele>309</ele>
        <time>2023-02-14T09:25:00.422Z</time>
      </trkpt>
      <trkpt lat="45.61989" lon="5.52079">
        <ele>309</ele>
        <time>2023-02-14T09:25:01.422Z</time>
      </trkpt>
      <trkpt lat="45.61986" lon="5.52074">
        <ele>309</ele>
        <time>2023-02-14T09:25:02.422Z</time>
      </trkpt>
      <trkpt lat="45.61983" lon="5.52068">
        <ele>309</ele>
        <time>2023-02-14T09:25:03.422Z</time>
      </trkpt>
      <trkpt lat="45.61979" lon="5.52063">
        <ele>309</ele>
        <time>2023-02-14T09:25:04.422Z</time>
      </trkpt>
      <trkpt lat="45.61976" lon="5.52057">
        <ele>308</ele>
        <time>2023-02-14T09:25:05.422Z</time>
      </trkpt>
      <trkpt lat="45.61972" lon="5.52051">
        <ele>308</ele>
        <time>2023-02-14T09:25:06.422Z</time>
      </trkpt>
      <trkpt lat="45.61968" lon="5.52045">
        <ele>308</ele>
        <time>2023-02-14T09:25:07.422Z</time>
      </trkpt>
      <trkpt lat="45.61964" lon="5.52039">
        <ele>308</ele>
        <time>2023-02-14T09:25:08.422Z</time>
      </trkpt>
      <trkpt lat="45.61959" lon="5.52034">
        <ele>307</ele>
        <time>2023-02-14T09:25:09.422Z</time>
      </trkpt>
      <trkpt lat="45.61954" lon="5.5203">
        <ele>307</ele>
        <time>2023-02-14T09:25:10.422Z</time>
      </trkpt>
      <trkpt lat="45.61948" lon="5.52025">
        <ele>306</ele>
        <time>2023-02-14T09:25:11.422Z</time>
      </trkpt>
      <trkpt lat="45.61942" lon="5.52021">
        <ele>305</ele>
        <time>2023-02-14T09:25:12.422Z</time>
      </trkpt>
      <trkpt lat="45.61936" lon="5.52016">
        <ele>305</ele>
        <time>2023-02-14T09:25:13.422Z</time>
      </trkpt>
      <trkpt lat="45.61929" lon="5.52012">
        <ele>304</ele>
        <time>2023-02-14T09:25:14.422Z</time>
      </trkpt>
      <trkpt lat="45.61923" lon="5.52007">
        <ele>304</ele>
        <time>2023-02-14T09:25:15.422Z</time>
      </trkpt>
      <trkpt lat="45.61916" lon="5.52003">
        <ele>303</ele>
        <time>2023-02-14T09:25:16.422Z</time>
      </trkpt>
      <trkpt lat="45.61909" lon="5.51998">
        <ele>302</ele>
        <time>2023-02-14T09:25:17.422Z</time>
      </trkpt>
      <trkpt lat="45.61902" lon="5.51992">
        <ele>302</ele>
        <time>2023-02-14T09:25:18.422Z</time>
      </trkpt>
      <trkpt lat="45.61895" lon="5.51987">
        <ele>302</ele>
        <time>2023-02-14T09:25:19.422Z</time>
      </trkpt>
      <trkpt lat="45.61888" lon="5.51981">
        <ele>301</ele>
        <time>2023-02-14T09:25:20.422Z</time>
      </trkpt>
      <trkpt lat="45.61881" lon="5.51976">
        <ele>300</ele>
        <time>2023-02-14T09:25:21.422Z</time>
      </trkpt>
      <trkpt lat="45.61874" lon="5.5197">
        <ele>299</ele>
        <time>2023-02-14T09:25:22.422Z</time>
      </trkpt>
      <trkpt lat="45.61866" lon="5.51965">
        <ele>298</ele>
        <time>2023-02-14T09:25:23.422Z</time>
      </trkpt>
      <trkpt lat="45.6186" lon="5.51958">
        <ele>298</ele>
        <time>2023-02-14T09:25:24.422Z</time>
      </trkpt>
      <trkpt lat="45.61855" lon="5.51952">
        <ele>297</ele>
        <time>2023-02-14T09:25:25.422Z</time>
      </trkpt>
      <trkpt lat="45.61851" lon="5.51946">
        <ele>296</ele>
        <time>2023-02-14T09:25:26.422Z</time>
      </trkpt>
      <trkpt lat="45.61847" lon="5.51943">
        <ele>297</ele>
        <time>2023-02-14T09:25:27.422Z</time>
      </trkpt>
      <trkpt lat="45.61842" lon="5.51941">
        <ele>298</ele>
        <time>2023-02-14T09:25:28.422Z</time>
      </trkpt>
      <trkpt lat="45.61837" lon="5.51942">
        <ele>296</ele>
        <time>2023-02-14T09:25:29.422Z</time>
      </trkpt>
      <trkpt lat="45.61832" lon="5.51945">
        <ele>293</ele>
        <time>2023-02-14T09:25:30.422Z</time>
      </trkpt>
      <trkpt lat="45.61826" lon="5.51948">
        <ele>291</ele>
        <time>2023-02-14T09:25:31.422Z</time>
      </trkpt>
      <trkpt lat="45.6182" lon="5.51952">
        <ele>290</ele>
        <time>2023-02-14T09:25:32.422Z</time>
      </trkpt>
      <trkpt lat="45.61814" lon="5.51956">
        <ele>289</ele>
        <time>2023-02-14T09:25:33.422Z</time>
      </trkpt>
      <trkpt lat="45.61808" lon="5.5196">
        <ele>288</ele>
        <time>2023-02-14T09:25:34.422Z</time>
      </trkpt>
      <trkpt lat="45.61803" lon="5.51963">
        <ele>288</ele>
        <time>2023-02-14T09:25:35.422Z</time>
      </trkpt>
      <trkpt lat="45.61797" lon="5.51967">
        <ele>289</ele>
        <time>2023-02-14T09:25:36.422Z</time>
      </trkpt>
      <trkpt lat="45.61792" lon="5.51971">
        <ele>289</ele>
        <time>2023-02-14T09:25:37.422Z</time>
      </trkpt>
      <trkpt lat="45.61787" lon="5.51975">
        <ele>289</ele>
        <time>2023-02-14T09:25:38.422Z</time>
      </trkpt>
      <trkpt lat="45.61783" lon="5.51979">
        <ele>289</ele>
        <time>2023-02-14T09:25:39.422Z</time>
      </trkpt>
      <trkpt lat="45.61778" lon="5.51983">
        <ele>289</ele>
        <time>2023-02-14T09:25:40.422Z</time>
      </trkpt>
      <trkpt lat="45.61775" lon="5.51988">
        <ele>289</ele>
        <time>2023-02-14T09:25:41.422Z</time>
      </trkpt>
      <trkpt lat="45.61771" lon="5.51992">
        <ele>289</ele>
        <time>2023-02-14T09:25:42.422Z</time>
      </trkpt>
      <trkpt lat="45.61768" lon="5.51997">
        <ele>289</ele>
        <time>2023-02-14T09:25:43.422Z</time>
      </trkpt>
      <trkpt lat="45.61765" lon="5.52002">
        <ele>289</ele>
        <time>2023-02-14T09:25:44.422Z</time>
      </trkpt>
      <trkpt lat="45.61763" lon="5.52007">
        <ele>290</ele>
        <time>2023-02-14T09:25:45.422Z</time>
      </trkpt>
      <trkpt lat="45.6176" lon="5.5201">
        <ele>290</ele>
        <time>2023-02-14T09:25:46.422Z</time>
      </trkpt>
      <trkpt lat="45.61757" lon="5.52014">
        <ele>290</ele>
        <time>2023-02-14T09:25:47.422Z</time>
      </trkpt>
      <trkpt lat="45.61755" lon="5.52016">
        <ele>289</ele>
        <time>2023-02-14T09:25:48.422Z</time>
      </trkpt>
      <trkpt lat="45.61752" lon="5.52016">
        <ele>289</ele>
        <time>2023-02-14T09:25:49.422Z</time>
      </trkpt>
      <trkpt lat="45.61749" lon="5.52013">
        <ele>289</ele>
        <time>2023-02-14T09:25:50.422Z</time>
      </trkpt>
      <trkpt lat="45.61747" lon="5.52008">
        <ele>289</ele>
        <time>2023-02-14T09:25:51.422Z</time>
      </trkpt>
      <trkpt lat="45.61745" lon="5.52004">
        <ele>290</ele>
        <time>2023-02-14T09:25:52.422Z</time>
      </trkpt>
      <trkpt lat="45.61743" lon="5.51999">
        <ele>290</ele>
        <time>2023-02-14T09:25:53.422Z</time>
      </trkpt>
      <trkpt lat="45.6174" lon="5.51995">
        <ele>290</ele>
        <time>2023-02-14T09:25:54.422Z</time>
      </trkpt>
      <trkpt lat="45.61738" lon="5.51991">
        <ele>291</ele>
        <time>2023-02-14T09:25:55.422Z</time>
      </trkpt>
      <trkpt lat="45.61736" lon="5.51987">
        <ele>291</ele>
        <time>2023-02-14T09:25:56.422Z</time>
      </trkpt>
      <trkpt lat="45.61734" lon="5.51983">
        <ele>291</ele>
        <time>2023-02-14T09:25:57.422Z</time>
      </trkpt>
      <trkpt lat="45.61732" lon="5.51979">
        <ele>291</ele>
        <time>2023-02-14T09:25:58.422Z</time>
      </trkpt>
      <trkpt lat="45.6173" lon="5.51975">
        <ele>291</ele>
        <time>2023-02-14T09:25:59.422Z</time>
      </trkpt>
      <trkpt lat="45.61727" lon="5.51971">
        <ele>291</ele>
        <time>2023-02-14T09:26:00.422Z</time>
      </trkpt>
      <trkpt lat="45.61724" lon="5.51967">
        <ele>291</ele>
        <time>2023-02-14T09:26:01.422Z</time>
      </trkpt>
      <trkpt lat="45.61721" lon="5.51965">
        <ele>291</ele>
        <time>2023-02-14T09:26:02.422Z</time>
      </trkpt>
      <trkpt lat="45.61718" lon="5.51962">
        <ele>291</ele>
        <time>2023-02-14T09:26:03.422Z</time>
      </trkpt>
      <trkpt lat="45.61715" lon="5.5196">
        <ele>291</ele>
        <time>2023-02-14T09:26:04.422Z</time>
      </trkpt>
      <trkpt lat="45.61712" lon="5.51959">
        <ele>291</ele>
        <time>2023-02-14T09:26:05.422Z</time>
      </trkpt>
      <trkpt lat="45.61709" lon="5.51957">
        <ele>292</ele>
        <time>2023-02-14T09:26:06.422Z</time>
      </trkpt>
      <trkpt lat="45.61706" lon="5.51956">
        <ele>292</ele>
        <time>2023-02-14T09:26:07.422Z</time>
      </trkpt>
      <trkpt lat="45.61702" lon="5.51954">
        <ele>292</ele>
        <time>2023-02-14T09:26:08.422Z</time>
      </trkpt>
      <trkpt lat="45.61699" lon="5.51953">
        <ele>292</ele>
        <time>2023-02-14T09:26:09.422Z</time>
      </trkpt>
      <trkpt lat="45.61696" lon="5.51952">
        <ele>292</ele>
        <time>2023-02-14T09:26:10.422Z</time>
      </trkpt>
      <trkpt lat="45.61693" lon="5.5195">
        <ele>293</ele>
        <time>2023-02-14T09:26:11.422Z</time>
      </trkpt>
      <trkpt lat="45.6169" lon="5.51949">
        <ele>293</ele>
        <time>2023-02-14T09:26:12.422Z</time>
      </trkpt>
      <trkpt lat="45.61687" lon="5.51948">
        <ele>293</ele>
        <time>2023-02-14T09:26:13.422Z</time>
      </trkpt>
      <trkpt lat="45.61684" lon="5.51946">
        <ele>294</ele>
        <time>2023-02-14T09:26:14.422Z</time>
      </trkpt>
      <trkpt lat="45.61681" lon="5.51945">
        <ele>294</ele>
        <time>2023-02-14T09:26:15.422Z</time>
      </trkpt>
      <trkpt lat="45.61678" lon="5.51943">
        <ele>294</ele>
        <time>2023-02-14T09:26:16.422Z</time>
      </trkpt>
      <trkpt lat="45.61675" lon="5.51942">
        <ele>294</ele>
        <time>2023-02-14T09:26:17.422Z</time>
      </trkpt>
      <trkpt lat="45.61672" lon="5.5194">
        <ele>294</ele>
        <time>2023-02-14T09:26:18.422Z</time>
      </trkpt>
      <trkpt lat="45.61669" lon="5.51939">
        <ele>294</ele>
        <time>2023-02-14T09:26:19.422Z</time>
      </trkpt>
      <trkpt lat="45.61666" lon="5.51937">
        <ele>294</ele>
        <time>2023-02-14T09:26:20.422Z</time>
      </trkpt>
      <trkpt lat="45.61663" lon="5.51936">
        <ele>294</ele>
        <time>2023-02-14T09:26:21.422Z</time>
      </trkpt>
      <trkpt lat="45.61661" lon="5.51935">
        <ele>294</ele>
        <time>2023-02-14T09:26:22.422Z</time>
      </trkpt>
      <trkpt lat="45.61658" lon="5.51933">
        <ele>294</ele>
        <time>2023-02-14T09:26:23.422Z</time>
      </trkpt>
      <trkpt lat="45.61655" lon="5.51932">
        <ele>294</ele>
        <time>2023-02-14T09:26:24.422Z</time>
      </trkpt>
      <trkpt lat="45.61652" lon="5.51931">
        <ele>294</ele>
        <time>2023-02-14T09:26:25.422Z</time>
      </trkpt>
      <trkpt lat="45.61649" lon="5.5193">
        <ele>294</ele>
        <time>2023-02-14T09:26:26.422Z</time>
      </trkpt>
      <trkpt lat="45.61646" lon="5.51929">
        <ele>294</ele>
        <time>2023-02-14T09:26:27.422Z</time>
      </trkpt>
      <trkpt lat="45.61643" lon="5.51928">
        <ele>294</ele>
        <time>2023-02-14T09:26:28.422Z</time>
      </trkpt>
      <trkpt lat="45.6164" lon="5.51926">
        <ele>294</ele>
        <time>2023-02-14T09:26:29.422Z</time>
      </trkpt>
      <trkpt lat="45.61638" lon="5.51925">
        <ele>295</ele>
        <time>2023-02-14T09:26:30.422Z</time>
      </trkpt>
      <trkpt lat="45.61635" lon="5.51923">
        <ele>295</ele>
        <time>2023-02-14T09:26:31.422Z</time>
      </trkpt>
      <trkpt lat="45.61632" lon="5.51922">
        <ele>295</ele>
        <time>2023-02-14T09:26:32.422Z</time>
      </trkpt>
      <trkpt lat="45.61629" lon="5.51921">
        <ele>295</ele>
        <time>2023-02-14T09:26:33.422Z</time>
      </trkpt>
      <trkpt lat="45.61626" lon="5.5192">
        <ele>295</ele>
        <time>2023-02-14T09:26:34.422Z</time>
      </trkpt>
      <trkpt lat="45.61623" lon="5.51918">
        <ele>295</ele>
        <time>2023-02-14T09:26:35.422Z</time>
      </trkpt>
      <trkpt lat="45.6162" lon="5.51917">
        <ele>295</ele>
        <time>2023-02-14T09:26:36.422Z</time>
      </trkpt>
      <trkpt lat="45.61618" lon="5.51916">
        <ele>295</ele>
        <time>2023-02-14T09:26:37.422Z</time>
      </trkpt>
      <trkpt lat="45.61615" lon="5.51914">
        <ele>295</ele>
        <time>2023-02-14T09:26:38.422Z</time>
      </trkpt>
      <trkpt lat="45.61612" lon="5.51913">
        <ele>295</ele>
        <time>2023-02-14T09:26:39.422Z</time>
      </trkpt>
      <trkpt lat="45.61609" lon="5.51911">
        <ele>295</ele>
        <time>2023-02-14T09:26:40.422Z</time>
      </trkpt>
      <trkpt lat="45.61607" lon="5.5191">
        <ele>295</ele>
        <time>2023-02-14T09:26:41.422Z</time>
      </trkpt>
      <trkpt lat="45.61604" lon="5.51908">
        <ele>296</ele>
        <time>2023-02-14T09:26:42.422Z</time>
      </trkpt>
      <trkpt lat="45.61602" lon="5.51906">
        <ele>295</ele>
        <time>2023-02-14T09:26:43.422Z</time>
      </trkpt>
      <trkpt lat="45.616" lon="5.51905">
        <ele>296</ele>
        <time>2023-02-14T09:26:44.422Z</time>
      </trkpt>
      <trkpt lat="45.61598" lon="5.51903">
        <ele>296</ele>
        <time>2023-02-14T09:26:45.422Z</time>
      </trkpt>
      <trkpt lat="45.61596" lon="5.51902">
        <ele>296</ele>
        <time>2023-02-14T09:26:46.422Z</time>
      </trkpt>
      <trkpt lat="45.61594" lon="5.51901">
        <ele>296</ele>
        <time>2023-02-14T09:26:47.422Z</time>
      </trkpt>
      <trkpt lat="45.61592" lon="5.51899">
        <ele>296</ele>
        <time>2023-02-14T09:26:48.422Z</time>
      </trkpt>
      <trkpt lat="45.6159" lon="5.51898">
        <ele>296</ele>
        <time>2023-02-14T09:26:49.422Z</time>
      </trkpt>
      <trkpt lat="45.61588" lon="5.51896">
        <ele>296</ele>
        <time>2023-02-14T09:26:50.422Z</time>
      </trkpt>
      <trkpt lat="45.61587" lon="5.51895">
        <ele>296</ele>
        <time>2023-02-14T09:26:51.422Z</time>
      </trkpt>
      <trkpt lat="45.61585" lon="5.51893">
        <ele>296</ele>
        <time>2023-02-14T09:26:52.422Z</time>
      </trkpt>
      <trkpt lat="45.61583" lon="5.51892">
        <ele>296</ele>
        <time>2023-02-14T09:26:53.422Z</time>
      </trkpt>
      <trkpt lat="45.61581" lon="5.51891">
        <ele>295</ele>
        <time>2023-02-14T09:26:54.422Z</time>
      </trkpt>
      <trkpt lat="45.61579" lon="5.51889">
        <ele>295</ele>
        <time>2023-02-14T09:26:55.422Z</time>
      </trkpt>
      <trkpt lat="45.61577" lon="5.51888">
        <ele>296</ele>
        <time>2023-02-14T09:26:56.422Z</time>
      </trkpt>
      <trkpt lat="45.61575" lon="5.51888">
        <ele>296</ele>
        <time>2023-02-14T09:26:57.422Z</time>
      </trkpt>
      <trkpt lat="45.61573" lon="5.51887">
        <ele>296</ele>
        <time>2023-02-14T09:26:58.422Z</time>
      </trkpt>
      <trkpt lat="45.61571" lon="5.51887">
        <ele>296</ele>
        <time>2023-02-14T09:26:59.422Z</time>
      </trkpt>
      <trkpt lat="45.61569" lon="5.51886">
        <ele>296</ele>
        <time>2023-02-14T09:27:00.422Z</time>
      </trkpt>
      <trkpt lat="45.61568" lon="5.51885">
        <ele>296</ele>
        <time>2023-02-14T09:27:01.422Z</time>
      </trkpt>
      <trkpt lat="45.61566" lon="5.51884">
        <ele>297</ele>
        <time>2023-02-14T09:27:02.422Z</time>
      </trkpt>
      <trkpt lat="45.61564" lon="5.51883">
        <ele>297</ele>
        <time>2023-02-14T09:27:03.422Z</time>
      </trkpt>
      <trkpt lat="45.61563" lon="5.51882">
        <ele>297</ele>
        <time>2023-02-14T09:27:04.422Z</time>
      </trkpt>
      <trkpt lat="45.61561" lon="5.51881">
        <ele>297</ele>
        <time>2023-02-14T09:27:05.422Z</time>
      </trkpt>
      <trkpt lat="45.61559" lon="5.5188">
        <ele>297</ele>
        <time>2023-02-14T09:27:06.422Z</time>
      </trkpt>
      <trkpt lat="45.61558" lon="5.51879">
        <ele>298</ele>
        <time>2023-02-14T09:27:07.422Z</time>
      </trkpt>
      <trkpt lat="45.61556" lon="5.51877">
        <ele>299</ele>
        <time>2023-02-14T09:27:08.422Z</time>
      </trkpt>
      <trkpt lat="45.61554" lon="5.51876">
        <ele>299</ele>
        <time>2023-02-14T09:27:09.422Z</time>
      </trkpt>
      <trkpt lat="45.61553" lon="5.51876">
        <ele>299</ele>
        <time>2023-02-14T09:27:10.422Z</time>
      </trkpt>
      <trkpt lat="45.61551" lon="5.51875">
        <ele>299</ele>
        <time>2023-02-14T09:27:11.422Z</time>
      </trkpt>
      <trkpt lat="45.61549" lon="5.51874">
        <ele>299</ele>
        <time>2023-02-14T09:27:12.422Z</time>
      </trkpt>
      <trkpt lat="45.61548" lon="5.51873">
        <ele>299</ele>
        <time>2023-02-14T09:27:13.422Z</time>
      </trkpt>
      <trkpt lat="45.61546" lon="5.51873">
        <ele>299</ele>
        <time>2023-02-14T09:27:14.422Z</time>
      </trkpt>
      <trkpt lat="45.61545" lon="5.51872">
        <ele>299</ele>
        <time>2023-02-14T09:27:15.422Z</time>
      </trkpt>
      <trkpt lat="45.61543" lon="5.51872">
        <ele>298</ele>
        <time>2023-02-14T09:27:16.422Z</time>
      </trkpt>
      <trkpt lat="45.61542" lon="5.51871">
        <ele>298</ele>
        <time>2023-02-14T09:27:17.422Z</time>
      </trkpt>
      <trkpt lat="45.6154" lon="5.51871">
        <ele>297</ele>
        <time>2023-02-14T09:27:18.422Z</time>
      </trkpt>
      <trkpt lat="45.61539" lon="5.51871">
        <ele>297</ele>
        <time>2023-02-14T09:27:19.422Z</time>
      </trkpt>
      <trkpt lat="45.61537" lon="5.5187">
        <ele>298</ele>
        <time>2023-02-14T09:27:20.422Z</time>
      </trkpt>
      <trkpt lat="45.61536" lon="5.51869">
        <ele>298</ele>
        <time>2023-02-14T09:27:21.422Z</time>
      </trkpt>
      <trkpt lat="45.61534" lon="5.51869">
        <ele>298</ele>
        <time>2023-02-14T09:27:22.422Z</time>
      </trkpt>
      <trkpt lat="45.61533" lon="5.51868">
        <ele>299</ele>
        <time>2023-02-14T09:27:23.422Z</time>
      </trkpt>
      <trkpt lat="45.61532" lon="5.51868">
        <ele>299</ele>
        <time>2023-02-14T09:27:24.422Z</time>
      </trkpt>
      <trkpt lat="45.6153" lon="5.51867">
        <ele>299</ele>
        <time>2023-02-14T09:27:25.422Z</time>
      </trkpt>
      <trkpt lat="45.61529" lon="5.51867">
        <ele>300</ele>
        <time>2023-02-14T09:27:26.422Z</time>
      </trkpt>
      <trkpt lat="45.61528" lon="5.51866">
        <ele>300</ele>
        <time>2023-02-14T09:27:27.422Z</time>
      </trkpt>
      <trkpt lat="45.61526" lon="5.51866">
        <ele>300</ele>
        <time>2023-02-14T09:27:28.422Z</time>
      </trkpt>
      <trkpt lat="45.61525" lon="5.51865">
        <ele>301</ele>
        <time>2023-02-14T09:27:29.422Z</time>
      </trkpt>
      <trkpt lat="45.61523" lon="5.51865">
        <ele>301</ele>
        <time>2023-02-14T09:27:30.422Z</time>
      </trkpt>
      <trkpt lat="45.61522" lon="5.51864">
        <ele>301</ele>
        <time>2023-02-14T09:27:31.422Z</time>
      </trkpt>
      <trkpt lat="45.6152" lon="5.51864">
        <ele>302</ele>
        <time>2023-02-14T09:27:32.422Z</time>
      </trkpt>
      <trkpt lat="45.61518" lon="5.51863">
        <ele>302</ele>
        <time>2023-02-14T09:27:33.422Z</time>
      </trkpt>
      <trkpt lat="45.61516" lon="5.51863">
        <ele>303</ele>
        <time>2023-02-14T09:27:34.422Z</time>
      </trkpt>
      <trkpt lat="45.61515" lon="5.51863">
        <ele>303</ele>
        <time>2023-02-14T09:27:35.422Z</time>
      </trkpt>
      <trkpt lat="45.61513" lon="5.51862">
        <ele>303</ele>
        <time>2023-02-14T09:27:36.422Z</time>
      </trkpt>
      <trkpt lat="45.61512" lon="5.51862">
        <ele>303</ele>
        <time>2023-02-14T09:27:37.422Z</time>
      </trkpt>
      <trkpt lat="45.6151" lon="5.51861">
        <ele>304</ele>
        <time>2023-02-14T09:27:38.422Z</time>
      </trkpt>
      <trkpt lat="45.61509" lon="5.51861">
        <ele>304</ele>
        <time>2023-02-14T09:27:39.422Z</time>
      </trkpt>
      <trkpt lat="45.61507" lon="5.5186">
        <ele>305</ele>
        <time>2023-02-14T09:27:40.422Z</time>
      </trkpt>
      <trkpt lat="45.61505" lon="5.5186">
        <ele>305</ele>
        <time>2023-02-14T09:27:41.422Z</time>
      </trkpt>
      <trkpt lat="45.61503" lon="5.51859">
        <ele>305</ele>
        <time>2023-02-14T09:27:42.422Z</time>
      </trkpt>
      <trkpt lat="45.61502" lon="5.51859">
        <ele>306</ele>
        <time>2023-02-14T09:27:43.422Z</time>
      </trkpt>
      <trkpt lat="45.615" lon="5.51859">
        <ele>306</ele>
        <time>2023-02-14T09:27:44.422Z</time>
      </trkpt>
      <trkpt lat="45.61499" lon="5.51859">
        <ele>306</ele>
        <time>2023-02-14T09:27:45.422Z</time>
      </trkpt>
      <trkpt lat="45.61497" lon="5.51858">
        <ele>307</ele>
        <time>2023-02-14T09:27:46.422Z</time>
      </trkpt>
      <trkpt lat="45.61495" lon="5.51858">
        <ele>307</ele>
        <time>2023-02-14T09:27:47.422Z</time>
      </trkpt>
      <trkpt lat="45.61494" lon="5.51857">
        <ele>308</ele>
        <time>2023-02-14T09:27:48.422Z</time>
      </trkpt>
      <trkpt lat="45.61492" lon="5.51857">
        <ele>309</ele>
        <time>2023-02-14T09:27:49.422Z</time>
      </trkpt>
      <trkpt lat="45.6149" lon="5.51857">
        <ele>309</ele>
        <time>2023-02-14T09:27:50.422Z</time>
      </trkpt>
      <trkpt lat="45.61488" lon="5.51857">
        <ele>309</ele>
        <time>2023-02-14T09:27:51.422Z</time>
      </trkpt>
      <trkpt lat="45.61487" lon="5.51857">
        <ele>309</ele>
        <time>2023-02-14T09:27:52.422Z</time>
      </trkpt>
      <trkpt lat="45.61485" lon="5.51857">
        <ele>310</ele>
        <time>2023-02-14T09:27:53.422Z</time>
      </trkpt>
      <trkpt lat="45.61484" lon="5.51857">
        <ele>310</ele>
        <time>2023-02-14T09:27:54.422Z</time>
      </trkpt>
      <trkpt lat="45.61482" lon="5.51857">
        <ele>310</ele>
        <time>2023-02-14T09:27:55.422Z</time>
      </trkpt>
      <trkpt lat="45.61481" lon="5.51857">
        <ele>310</ele>
        <time>2023-02-14T09:27:56.422Z</time>
      </trkpt>
      <trkpt lat="45.61479" lon="5.51857">
        <ele>310</ele>
        <time>2023-02-14T09:27:57.422Z</time>
      </trkpt>
      <trkpt lat="45.61478" lon="5.51858">
        <ele>311</ele>
        <time>2023-02-14T09:27:58.422Z</time>
      </trkpt>
      <trkpt lat="45.61477" lon="5.51858">
        <ele>311</ele>
        <time>2023-02-14T09:27:59.422Z</time>
      </trkpt>
      <trkpt lat="45.61475" lon="5.51857">
        <ele>312</ele>
        <time>2023-02-14T09:28:00.422Z</time>
      </trkpt>
      <trkpt lat="45.61474" lon="5.51857">
        <ele>312</ele>
        <time>2023-02-14T09:28:01.422Z</time>
      </trkpt>
      <trkpt lat="45.61472" lon="5.51858">
        <ele>313</ele>
        <time>2023-02-14T09:28:02.422Z</time>
      </trkpt>
      <trkpt lat="45.6147" lon="5.51858">
        <ele>314</ele>
        <time>2023-02-14T09:28:03.422Z</time>
      </trkpt>
      <trkpt lat="45.61469" lon="5.51858">
        <ele>314</ele>
        <time>2023-02-14T09:28:04.422Z</time>
      </trkpt>
      <trkpt lat="45.61467" lon="5.51859">
        <ele>315</ele>
        <time>2023-02-14T09:28:05.422Z</time>
      </trkpt>
      <trkpt lat="45.61466" lon="5.51859">
        <ele>315</ele>
        <time>2023-02-14T09:28:06.422Z</time>
      </trkpt>
      <trkpt lat="45.61464" lon="5.51859">
        <ele>315</ele>
        <time>2023-02-14T09:28:07.422Z</time>
      </trkpt>
      <trkpt lat="45.61463" lon="5.51859">
        <ele>315</ele>
        <time>2023-02-14T09:28:08.422Z</time>
      </trkpt>
      <trkpt lat="45.61461" lon="5.51859">
        <ele>315</ele>
        <time>2023-02-14T09:28:09.422Z</time>
      </trkpt>
      <trkpt lat="45.61459" lon="5.51859">
        <ele>315</ele>
        <time>2023-02-14T09:28:10.422Z</time>
      </trkpt>
      <trkpt lat="45.61457" lon="5.5186">
        <ele>315</ele>
        <time>2023-02-14T09:28:11.422Z</time>
      </trkpt>
      <trkpt lat="45.61456" lon="5.5186">
        <ele>316</ele>
        <time>2023-02-14T09:28:12.422Z</time>
      </trkpt>
      <trkpt lat="45.61454" lon="5.51861">
        <ele>316</ele>
        <time>2023-02-14T09:28:13.422Z</time>
      </trkpt>
      <trkpt lat="45.61452" lon="5.51861">
        <ele>317</ele>
        <time>2023-02-14T09:28:14.422Z</time>
      </trkpt>
      <trkpt lat="45.6145" lon="5.51862">
        <ele>317</ele>
        <time>2023-02-14T09:28:15.422Z</time>
      </trkpt>
      <trkpt lat="45.61449" lon="5.51863">
        <ele>318</ele>
        <time>2023-02-14T09:28:16.422Z</time>
      </trkpt>
      <trkpt lat="45.61447" lon="5.51864">
        <ele>317</ele>
        <time>2023-02-14T09:28:17.422Z</time>
      </trkpt>
      <trkpt lat="45.61445" lon="5.51864">
        <ele>317</ele>
        <time>2023-02-14T09:28:18.422Z</time>
      </trkpt>
      <trkpt lat="45.61443" lon="5.51865">
        <ele>318</ele>
        <time>2023-02-14T09:28:19.422Z</time>
      </trkpt>
      <trkpt lat="45.61442" lon="5.51866">
        <ele>318</ele>
        <time>2023-02-14T09:28:20.422Z</time>
      </trkpt>
      <trkpt lat="45.6144" lon="5.51867">
        <ele>318</ele>
        <time>2023-02-14T09:28:21.422Z</time>
      </trkpt>
      <trkpt lat="45.61438" lon="5.51868">
        <ele>318</ele>
        <time>2023-02-14T09:28:22.422Z</time>
      </trkpt>
      <trkpt lat="45.61437" lon="5.51869">
        <ele>318</ele>
        <time>2023-02-14T09:28:23.422Z</time>
      </trkpt>
      <trkpt lat="45.61436" lon="5.5187">
        <ele>318</ele>
        <time>2023-02-14T09:28:24.422Z</time>
      </trkpt>
      <trkpt lat="45.61435" lon="5.51871">
        <ele>318</ele>
        <time>2023-02-14T09:28:25.422Z</time>
      </trkpt>
      <trkpt lat="45.61433" lon="5.51873">
        <ele>318</ele>
        <time>2023-02-14T09:28:26.422Z</time>
      </trkpt>
      <trkpt lat="45.61432" lon="5.51874">
        <ele>319</ele>
        <time>2023-02-14T09:28:27.422Z</time>
      </trkpt>
      <trkpt lat="45.61431" lon="5.51875">
        <ele>319</ele>
        <time>2023-02-14T09:28:28.422Z</time>
      </trkpt>
      <trkpt lat="45.6143" lon="5.51877">
        <ele>319</ele>
        <time>2023-02-14T09:28:29.422Z</time>
      </trkpt>
      <trkpt lat="45.61429" lon="5.51878">
        <ele>319</ele>
        <time>2023-02-14T09:28:30.422Z</time>
      </trkpt>
      <trkpt lat="45.61428" lon="5.51879">
        <ele>320</ele>
        <time>2023-02-14T09:28:31.422Z</time>
      </trkpt>
      <trkpt lat="45.61427" lon="5.5188">
        <ele>320</ele>
        <time>2023-02-14T09:28:32.422Z</time>
      </trkpt>
      <trkpt lat="45.61426" lon="5.51881">
        <ele>320</ele>
        <time>2023-02-14T09:28:33.422Z</time>
      </trkpt>
      <trkpt lat="45.61425" lon="5.51882">
        <ele>320</ele>
        <time>2023-02-14T09:28:34.422Z</time>
      </trkpt>
      <trkpt lat="45.61424" lon="5.51883">
        <ele>320</ele>
        <time>2023-02-14T09:28:35.422Z</time>
      </trkpt>
      <trkpt lat="45.61423" lon="5.51885">
        <ele>320</ele>
        <time>2023-02-14T09:28:36.422Z</time>
      </trkpt>
      <trkpt lat="45.61422" lon="5.51886">
        <ele>321</ele>
        <time>2023-02-14T09:28:37.422Z</time>
      </trkpt>
      <trkpt lat="45.61421" lon="5.51887">
        <ele>321</ele>
        <time>2023-02-14T09:28:38.422Z</time>
      </trkpt>
      <trkpt lat="45.6142" lon="5.51889">
        <ele>321</ele>
        <time>2023-02-14T09:28:39.422Z</time>
      </trkpt>
      <trkpt lat="45.6142" lon="5.5189">
        <ele>321</ele>
        <time>2023-02-14T09:28:40.422Z</time>
      </trkpt>
      <trkpt lat="45.61419" lon="5.51891">
        <ele>321</ele>
        <time>2023-02-14T09:28:41.422Z</time>
      </trkpt>
      <trkpt lat="45.61418" lon="5.51893">
        <ele>321</ele>
        <time>2023-02-14T09:28:42.422Z</time>
      </trkpt>
      <trkpt lat="45.61417" lon="5.51894">
        <ele>321</ele>
        <time>2023-02-14T09:28:43.422Z</time>
      </trkpt>
      <trkpt lat="45.61416" lon="5.51895">
        <ele>321</ele>
        <time>2023-02-14T09:28:44.422Z</time>
      </trkpt>
      <trkpt lat="45.61415" lon="5.51897">
        <ele>321</ele>
        <time>2023-02-14T09:28:45.422Z</time>
      </trkpt>
      <trkpt lat="45.61414" lon="5.51898">
        <ele>321</ele>
        <time>2023-02-14T09:28:46.422Z</time>
      </trkpt>
      <trkpt lat="45.61413" lon="5.51899">
        <ele>321</ele>
        <time>2023-02-14T09:28:47.422Z</time>
      </trkpt>
      <trkpt lat="45.61412" lon="5.51901">
        <ele>321</ele>
        <time>2023-02-14T09:28:48.422Z</time>
      </trkpt>
      <trkpt lat="45.61411" lon="5.51902">
        <ele>320</ele>
        <time>2023-02-14T09:28:49.422Z</time>
      </trkpt>
      <trkpt lat="45.6141" lon="5.51904">
        <ele>320</ele>
        <time>2023-02-14T09:28:50.422Z</time>
      </trkpt>
      <trkpt lat="45.61409" lon="5.51905">
        <ele>320</ele>
        <time>2023-02-14T09:28:51.422Z</time>
      </trkpt>
      <trkpt lat="45.61408" lon="5.51907">
        <ele>320</ele>
        <time>2023-02-14T09:28:52.422Z</time>
      </trkpt>
      <trkpt lat="45.61406" lon="5.51908">
        <ele>320</ele>
        <time>2023-02-14T09:28:53.422Z</time>
      </trkpt>
      <trkpt lat="45.61405" lon="5.5191">
        <ele>321</ele>
        <time>2023-02-14T09:28:54.422Z</time>
      </trkpt>
      <trkpt lat="45.61403" lon="5.51911">
        <ele>321</ele>
        <time>2023-02-14T09:28:55.422Z</time>
      </trkpt>
      <trkpt lat="45.61402" lon="5.51913">
        <ele>320</ele>
        <time>2023-02-14T09:28:56.422Z</time>
      </trkpt>
      <trkpt lat="45.61401" lon="5.51914">
        <ele>320</ele>
        <time>2023-02-14T09:28:57.422Z</time>
      </trkpt>
      <trkpt lat="45.614" lon="5.51915">
        <ele>320</ele>
        <time>2023-02-14T09:28:58.422Z</time>
      </trkpt>
      <trkpt lat="45.61398" lon="5.51917">
        <ele>320</ele>
        <time>2023-02-14T09:28:59.422Z</time>
      </trkpt>
      <trkpt lat="45.61397" lon="5.51918">
        <ele>320</ele>
        <time>2023-02-14T09:29:00.422Z</time>
      </trkpt>
      <trkpt lat="45.61395" lon="5.51919">
        <ele>320</ele>
        <time>2023-02-14T09:29:01.422Z</time>
      </trkpt>
      <trkpt lat="45.61394" lon="5.5192">
        <ele>320</ele>
        <time>2023-02-14T09:29:02.422Z</time>
      </trkpt>
      <trkpt lat="45.61392" lon="5.51921">
        <ele>319</ele>
        <time>2023-02-14T09:29:03.422Z</time>
      </trkpt>
      <trkpt lat="45.61391" lon="5.51922">
        <ele>318</ele>
        <time>2023-02-14T09:29:04.422Z</time>
      </trkpt>
      <trkpt lat="45.61389" lon="5.51923">
        <ele>318</ele>
        <time>2023-02-14T09:29:05.422Z</time>
      </trkpt>
      <trkpt lat="45.61388" lon="5.51925">
        <ele>317</ele>
        <time>2023-02-14T09:29:06.422Z</time>
      </trkpt>
      <trkpt lat="45.61386" lon="5.51926">
        <ele>318</ele>
        <time>2023-02-14T09:29:07.422Z</time>
      </trkpt>
      <trkpt lat="45.61384" lon="5.51928">
        <ele>317</ele>
        <time>2023-02-14T09:29:08.422Z</time>
      </trkpt>
      <trkpt lat="45.61382" lon="5.51929">
        <ele>317</ele>
        <time>2023-02-14T09:29:09.422Z</time>
      </trkpt>
      <trkpt lat="45.61381" lon="5.51931">
        <ele>317</ele>
        <time>2023-02-14T09:29:10.422Z</time>
      </trkpt>
      <trkpt lat="45.61379" lon="5.51933">
        <ele>316</ele>
        <time>2023-02-14T09:29:11.422Z</time>
      </trkpt>
      <trkpt lat="45.61378" lon="5.51934">
        <ele>316</ele>
        <time>2023-02-14T09:29:12.422Z</time>
      </trkpt>
      <trkpt lat="45.61376" lon="5.51936">
        <ele>316</ele>
        <time>2023-02-14T09:29:13.422Z</time>
      </trkpt>
      <trkpt lat="45.61375" lon="5.51938">
        <ele>316</ele>
        <time>2023-02-14T09:29:14.422Z</time>
      </trkpt>
      <trkpt lat="45.61373" lon="5.5194">
        <ele>316</ele>
        <time>2023-02-14T09:29:15.422Z</time>
      </trkpt>
      <trkpt lat="45.61371" lon="5.51942">
        <ele>316</ele>
        <time>2023-02-14T09:29:16.422Z</time>
      </trkpt>
      <trkpt lat="45.61369" lon="5.51944">
        <ele>316</ele>
        <time>2023-02-14T09:29:17.422Z</time>
      </trkpt>
      <trkpt lat="45.61367" lon="5.51946">
        <ele>316</ele>
        <time>2023-02-14T09:29:18.422Z</time>
      </trkpt>
      <trkpt lat="45.61365" lon="5.51948">
        <ele>316</ele>
        <time>2023-02-14T09:29:19.422Z</time>
      </trkpt>
      <trkpt lat="45.61363" lon="5.51951">
        <ele>316</ele>
        <time>2023-02-14T09:29:20.422Z</time>
      </trkpt>
      <trkpt lat="45.6136" lon="5.51953">
        <ele>317</ele>
        <time>2023-02-14T09:29:21.422Z</time>
      </trkpt>
      <trkpt lat="45.61358" lon="5.51955">
        <ele>317</ele>
        <time>2023-02-14T09:29:22.422Z</time>
      </trkpt>
      <trkpt lat="45.61356" lon="5.51958">
        <ele>317</ele>
        <time>2023-02-14T09:29:23.422Z</time>
      </trkpt>
      <trkpt lat="45.61354" lon="5.5196">
        <ele>317</ele>
        <time>2023-02-14T09:29:24.422Z</time>
      </trkpt>
      <trkpt lat="45.61352" lon="5.51962">
        <ele>317</ele>
        <time>2023-02-14T09:29:25.422Z</time>
      </trkpt>
      <trkpt lat="45.61349" lon="5.51964">
        <ele>317</ele>
        <time>2023-02-14T09:29:26.422Z</time>
      </trkpt>
      <trkpt lat="45.61347" lon="5.51966">
        <ele>317</ele>
        <time>2023-02-14T09:29:27.422Z</time>
      </trkpt>
      <trkpt lat="45.61345" lon="5.51968">
        <ele>318</ele>
        <time>2023-02-14T09:29:28.422Z</time>
      </trkpt>
      <trkpt lat="45.61343" lon="5.5197">
        <ele>317</ele>
        <time>2023-02-14T09:29:29.422Z</time>
      </trkpt>
      <trkpt lat="45.61341" lon="5.51972">
        <ele>317</ele>
        <time>2023-02-14T09:29:30.422Z</time>
      </trkpt>
      <trkpt lat="45.61339" lon="5.51974">
        <ele>318</ele>
        <time>2023-02-14T09:29:31.422Z</time>
      </trkpt>
      <trkpt lat="45.61337" lon="5.51976">
        <ele>318</ele>
        <time>2023-02-14T09:29:32.422Z</time>
      </trkpt>
      <trkpt lat="45.61335" lon="5.51978">
        <ele>318</ele>
        <time>2023-02-14T09:29:33.422Z</time>
      </trkpt>
      <trkpt lat="45.61333" lon="5.5198">
        <ele>318</ele>
        <time>2023-02-14T09:29:34.422Z</time>
      </trkpt>
      <trkpt lat="45.61331" lon="5.51982">
        <ele>318</ele>
        <time>2023-02-14T09:29:35.422Z</time>
      </trkpt>
      <trkpt lat="45.61329" lon="5.51984">
        <ele>318</ele>
        <time>2023-02-14T09:29:36.422Z</time>
      </trkpt>
      <trkpt lat="45.61327" lon="5.51986">
        <ele>318</ele>
        <time>2023-02-14T09:29:37.422Z</time>
      </trkpt>
      <trkpt lat="45.61325" lon="5.51988">
        <ele>318</ele>
        <time>2023-02-14T09:29:38.422Z</time>
      </trkpt>
      <trkpt lat="45.61323" lon="5.51989">
        <ele>318</ele>
        <time>2023-02-14T09:29:39.422Z</time>
      </trkpt>
      <trkpt lat="45.61321" lon="5.51991">
        <ele>319</ele>
        <time>2023-02-14T09:29:40.422Z</time>
      </trkpt>
      <trkpt lat="45.61319" lon="5.51993">
        <ele>319</ele>
        <time>2023-02-14T09:29:41.422Z</time>
      </trkpt>
      <trkpt lat="45.61317" lon="5.51994">
        <ele>320</ele>
        <time>2023-02-14T09:29:42.422Z</time>
      </trkpt>
      <trkpt lat="45.61316" lon="5.51996">
        <ele>320</ele>
        <time>2023-02-14T09:29:43.422Z</time>
      </trkpt>
      <trkpt lat="45.61314" lon="5.51998">
        <ele>321</ele>
        <time>2023-02-14T09:29:44.422Z</time>
      </trkpt>
      <trkpt lat="45.61312" lon="5.51999">
        <ele>322</ele>
        <time>2023-02-14T09:29:45.422Z</time>
      </trkpt>
      <trkpt lat="45.61311" lon="5.51999">
        <ele>320</ele>
        <time>2023-02-14T09:29:46.422Z</time>
      </trkpt>
      <trkpt lat="45.61309" lon="5.51998">
        <ele>320</ele>
        <time>2023-02-14T09:29:47.422Z</time>
      </trkpt>
      <trkpt lat="45.61306" lon="5.51996">
        <ele>319</ele>
        <time>2023-02-14T09:29:48.422Z</time>
      </trkpt>
      <trkpt lat="45.61304" lon="5.51993">
        <ele>320</ele>
        <time>2023-02-14T09:29:49.422Z</time>
      </trkpt>
      <trkpt lat="45.61302" lon="5.51989">
        <ele>320</ele>
        <time>2023-02-14T09:29:50.422Z</time>
      </trkpt>
      <trkpt lat="45.613" lon="5.51985">
        <ele>320</ele>
        <time>2023-02-14T09:29:51.422Z</time>
      </trkpt>
      <trkpt lat="45.61298" lon="5.51981">
        <ele>320</ele>
        <time>2023-02-14T09:29:52.422Z</time>
      </trkpt>
      <trkpt lat="45.61296" lon="5.51978">
        <ele>320</ele>
        <time>2023-02-14T09:29:53.422Z</time>
      </trkpt>
      <trkpt lat="45.61294" lon="5.51975">
        <ele>321</ele>
        <time>2023-02-14T09:29:54.422Z</time>
      </trkpt>
      <trkpt lat="45.61293" lon="5.51972">
        <ele>321</ele>
        <time>2023-02-14T09:29:55.422Z</time>
      </trkpt>
      <trkpt lat="45.61291" lon="5.51969">
        <ele>321</ele>
        <time>2023-02-14T09:29:56.422Z</time>
      </trkpt>
      <trkpt lat="45.6129" lon="5.51967">
        <ele>321</ele>
        <time>2023-02-14T09:29:57.422Z</time>
      </trkpt>
      <trkpt lat="45.61289" lon="5.51964">
        <ele>321</ele>
        <time>2023-02-14T09:29:58.422Z</time>
      </trkpt>
      <trkpt lat="45.61289" lon="5.51961">
        <ele>321</ele>
        <time>2023-02-14T09:29:59.422Z</time>
      </trkpt>
      <trkpt lat="45.61288" lon="5.51958">
        <ele>321</ele>
        <time>2023-02-14T09:30:00.422Z</time>
      </trkpt>
      <trkpt lat="45.61288" lon="5.51956">
        <ele>321</ele>
        <time>2023-02-14T09:30:01.422Z</time>
      </trkpt>
      <trkpt lat="45.61288" lon="5.51954">
        <ele>320</ele>
        <time>2023-02-14T09:30:02.422Z</time>
      </trkpt>
      <trkpt lat="45.61287" lon="5.51952">
        <ele>320</ele>
        <time>2023-02-14T09:30:03.422Z</time>
      </trkpt>
      <trkpt lat="45.61287" lon="5.5195">
        <ele>321</ele>
        <time>2023-02-14T09:30:04.422Z</time>
      </trkpt>
      <trkpt lat="45.61287" lon="5.51948">
        <ele>321</ele>
        <time>2023-02-14T09:30:05.422Z</time>
      </trkpt>
      <trkpt lat="45.61288" lon="5.51946">
        <ele>321</ele>
        <time>2023-02-14T09:30:06.422Z</time>
      </trkpt>
      <trkpt lat="45.61288" lon="5.51944">
        <ele>322</ele>
        <time>2023-02-14T09:30:07.422Z</time>
      </trkpt>
      <trkpt lat="45.61288" lon="5.51943">
        <ele>322</ele>
        <time>2023-02-14T09:30:08.422Z</time>
      </trkpt>
      <trkpt lat="45.61289" lon="5.51942">
        <ele>322</ele>
        <time>2023-02-14T09:30:09.422Z</time>
      </trkpt>
      <trkpt lat="45.61289" lon="5.5194">
        <ele>322</ele>
        <time>2023-02-14T09:30:10.422Z</time>
      </trkpt>
      <trkpt lat="45.6129" lon="5.51938">
        <ele>322</ele>
        <time>2023-02-14T09:30:11.422Z</time>
      </trkpt>
      <trkpt lat="45.6129" lon="5.51937">
        <ele>322</ele>
        <time>2023-02-14T09:30:12.422Z</time>
      </trkpt>
      <trkpt lat="45.61291" lon="5.51935">
        <ele>322</ele>
        <time>2023-02-14T09:30:13.422Z</time>
      </trkpt>
      <trkpt lat="45.61291" lon="5.51934">
        <ele>323</ele>
        <time>2023-02-14T09:30:14.422Z</time>
      </trkpt>
      <trkpt lat="45.61292" lon="5.51932">
        <ele>323</ele>
        <time>2023-02-14T09:30:15.422Z</time>
      </trkpt>
      <trkpt lat="45.61292" lon="5.5193">
        <ele>322</ele>
        <time>2023-02-14T09:30:16.422Z</time>
      </trkpt>
      <trkpt lat="45.61293" lon="5.51929">
        <ele>323</ele>
        <time>2023-02-14T09:30:17.422Z</time>
      </trkpt>
      <trkpt lat="45.61294" lon="5.51927">
        <ele>324</ele>
        <time>2023-02-14T09:30:18.422Z</time>
      </trkpt>
      <trkpt lat="45.61295" lon="5.51926">
        <ele>324</ele>
        <time>2023-02-14T09:30:19.422Z</time>
      </trkpt>
      <trkpt lat="45.61295" lon="5.51924">
        <ele>325</ele>
        <time>2023-02-14T09:30:20.422Z</time>
      </trkpt>
      <trkpt lat="45.61296" lon="5.51923">
        <ele>326</ele>
        <time>2023-02-14T09:30:21.422Z</time>
      </trkpt>
      <trkpt lat="45.61297" lon="5.51921">
        <ele>326</ele>
        <time>2023-02-14T09:30:22.422Z</time>
      </trkpt>
      <trkpt lat="45.61298" lon="5.5192">
        <ele>327</ele>
        <time>2023-02-14T09:30:23.422Z</time>
      </trkpt>
      <trkpt lat="45.61299" lon="5.51919">
        <ele>328</ele>
        <time>2023-02-14T09:30:24.422Z</time>
      </trkpt>
      <trkpt lat="45.613" lon="5.51917">
        <ele>328</ele>
        <time>2023-02-14T09:30:25.422Z</time>
      </trkpt>
      <trkpt lat="45.61301" lon="5.51916">
        <ele>328</ele>
        <time>2023-02-14T09:30:26.422Z</time>
      </trkpt>
      <trkpt lat="45.61301" lon="5.51914">
        <ele>328</ele>
        <time>2023-02-14T09:30:27.422Z</time>
      </trkpt>
      <trkpt lat="45.61302" lon="5.51912">
        <ele>328</ele>
        <time>2023-02-14T09:30:28.422Z</time>
      </trkpt>
      <trkpt lat="45.61302" lon="5.5191">
        <ele>328</ele>
        <time>2023-02-14T09:30:29.422Z</time>
      </trkpt>
      <trkpt lat="45.61303" lon="5.51909">
        <ele>328</ele>
        <time>2023-02-14T09:30:30.422Z</time>
      </trkpt>
      <trkpt lat="45.61304" lon="5.51907">
        <ele>328</ele>
        <time>2023-02-14T09:30:31.422Z</time>
      </trkpt>
      <trkpt lat="45.61304" lon="5.51906">
        <ele>329</ele>
        <time>2023-02-14T09:30:32.422Z</time>
      </trkpt>
      <trkpt lat="45.61305" lon="5.51904">
        <ele>329</ele>
        <time>2023-02-14T09:30:33.422Z</time>
      </trkpt>
      <trkpt lat="45.61306" lon="5.51903">
        <ele>330</ele>
        <time>2023-02-14T09:30:34.422Z</time>
      </trkpt>
      <trkpt lat="45.61306" lon="5.51901">
        <ele>330</ele>
        <time>2023-02-14T09:30:35.422Z</time>
      </trkpt>
      <trkpt lat="45.61307" lon="5.519">
        <ele>330</ele>
        <time>2023-02-14T09:30:36.422Z</time>
      </trkpt>
      <trkpt lat="45.61308" lon="5.51898">
        <ele>330</ele>
        <time>2023-02-14T09:30:37.422Z</time>
      </trkpt>
      <trkpt lat="45.61309" lon="5.51896">
        <ele>330</ele>
        <time>2023-02-14T09:30:38.422Z</time>
      </trkpt>
      <trkpt lat="45.6131" lon="5.51895">
        <ele>330</ele>
        <time>2023-02-14T09:30:39.422Z</time>
      </trkpt>
      <trkpt lat="45.6131" lon="5.51893">
        <ele>331</ele>
        <time>2023-02-14T09:30:40.422Z</time>
      </trkpt>
      <trkpt lat="45.61311" lon="5.51892">
        <ele>331</ele>
        <time>2023-02-14T09:30:41.422Z</time>
      </trkpt>
      <trkpt lat="45.61311" lon="5.5189">
        <ele>331</ele>
        <time>2023-02-14T09:30:42.422Z</time>
      </trkpt>
      <trkpt lat="45.61312" lon="5.51888">
        <ele>331</ele>
        <time>2023-02-14T09:30:43.422Z</time>
      </trkpt>
      <trkpt lat="45.61312" lon="5.51886">
        <ele>331</ele>
        <time>2023-02-14T09:30:44.422Z</time>
      </trkpt>
      <trkpt lat="45.61313" lon="5.51884">
        <ele>331</ele>
        <time>2023-02-14T09:30:45.422Z</time>
      </trkpt>
      <trkpt lat="45.61314" lon="5.51882">
        <ele>331</ele>
        <time>2023-02-14T09:30:46.422Z</time>
      </trkpt>
      <trkpt lat="45.61314" lon="5.51881">
        <ele>331</ele>
        <time>2023-02-14T09:30:47.422Z</time>
      </trkpt>
      <trkpt lat="45.61315" lon="5.51879">
        <ele>332</ele>
        <time>2023-02-14T09:30:48.422Z</time>
      </trkpt>
      <trkpt lat="45.61315" lon="5.51877">
        <ele>332</ele>
        <time>2023-02-14T09:30:49.422Z</time>
      </trkpt>
      <trkpt lat="45.61316" lon="5.51875">
        <ele>333</ele>
        <time>2023-02-14T09:30:50.422Z</time>
      </trkpt>
      <trkpt lat="45.61317" lon="5.51873">
        <ele>332</ele>
        <time>2023-02-14T09:30:51.422Z</time>
      </trkpt>
      <trkpt lat="45.61317" lon="5.51871">
        <ele>332</ele>
        <time>2023-02-14T09:30:52.422Z</time>
      </trkpt>
      <trkpt lat="45.61318" lon="5.51869">
        <ele>333</ele>
        <time>2023-02-14T09:30:53.422Z</time>
      </trkpt>
      <trkpt lat="45.61319" lon="5.51867">
        <ele>333</ele>
        <time>2023-02-14T09:30:54.422Z</time>
      </trkpt>
      <trkpt lat="45.6132" lon="5.51865">
        <ele>333</ele>
        <time>2023-02-14T09:30:55.422Z</time>
      </trkpt>
      <trkpt lat="45.61321" lon="5.51863">
        <ele>333</ele>
        <time>2023-02-14T09:30:56.422Z</time>
      </trkpt>
      <trkpt lat="45.61322" lon="5.51861">
        <ele>333</ele>
        <time>2023-02-14T09:30:57.422Z</time>
      </trkpt>
      <trkpt lat="45.61323" lon="5.51859">
        <ele>333</ele>
        <time>2023-02-14T09:30:58.422Z</time>
      </trkpt>
      <trkpt lat="45.61323" lon="5.51857">
        <ele>333</ele>
        <time>2023-02-14T09:30:59.422Z</time>
      </trkpt>
      <trkpt lat="45.61324" lon="5.51854">
        <ele>334</ele>
        <time>2023-02-14T09:31:00.422Z</time>
      </trkpt>
      <trkpt lat="45.61325" lon="5.51852">
        <ele>334</ele>
        <time>2023-02-14T09:31:01.422Z</time>
      </trkpt>
      <trkpt lat="45.61327" lon="5.5185">
        <ele>334</ele>
        <time>2023-02-14T09:31:02.422Z</time>
      </trkpt>
      <trkpt lat="45.61328" lon="5.51848">
        <ele>334</ele>
        <time>2023-02-14T09:31:03.422Z</time>
      </trkpt>
      <trkpt lat="45.6133" lon="5.51847">
        <ele>334</ele>
        <time>2023-02-14T09:31:04.422Z</time>
      </trkpt>
      <trkpt lat="45.61331" lon="5.51845">
        <ele>334</ele>
        <time>2023-02-14T09:31:05.422Z</time>
      </trkpt>
      <trkpt lat="45.61333" lon="5.51843">
        <ele>334</ele>
        <time>2023-02-14T09:31:06.422Z</time>
      </trkpt>
      <trkpt lat="45.61335" lon="5.5184">
        <ele>334</ele>
        <time>2023-02-14T09:31:07.422Z</time>
      </trkpt>
      <trkpt lat="45.61336" lon="5.51838">
        <ele>334</ele>
        <time>2023-02-14T09:31:08.422Z</time>
      </trkpt>
      <trkpt lat="45.61338" lon="5.51835">
        <ele>335</ele>
        <time>2023-02-14T09:31:09.422Z</time>
      </trkpt>
      <trkpt lat="45.6134" lon="5.51833">
        <ele>335</ele>
        <time>2023-02-14T09:31:10.422Z</time>
      </trkpt>
      <trkpt lat="45.61342" lon="5.51831">
        <ele>335</ele>
        <time>2023-02-14T09:31:11.422Z</time>
      </trkpt>
      <trkpt lat="45.61345" lon="5.51828">
        <ele>335</ele>
        <time>2023-02-14T09:31:12.422Z</time>
      </trkpt>
      <trkpt lat="45.61347" lon="5.51826">
        <ele>335</ele>
        <time>2023-02-14T09:31:13.422Z</time>
      </trkpt>
      <trkpt lat="45.6135" lon="5.51823">
        <ele>335</ele>
        <time>2023-02-14T09:31:14.422Z</time>
      </trkpt>
      <trkpt lat="45.61352" lon="5.5182">
        <ele>335</ele>
        <time>2023-02-14T09:31:15.422Z</time>
      </trkpt>
      <trkpt lat="45.61355" lon="5.51817">
        <ele>335</ele>
        <time>2023-02-14T09:31:16.422Z</time>
      </trkpt>
      <trkpt lat="45.61358" lon="5.51814">
        <ele>335</ele>
        <time>2023-02-14T09:31:17.422Z</time>
      </trkpt>
      <trkpt lat="45.61361" lon="5.51811">
        <ele>335</ele>
        <time>2023-02-14T09:31:18.422Z</time>
      </trkpt>
      <trkpt lat="45.61364" lon="5.51808">
        <ele>335</ele>
        <time>2023-02-14T09:31:19.422Z</time>
      </trkpt>
      <trkpt lat="45.61368" lon="5.51804">
        <ele>336</ele>
        <time>2023-02-14T09:31:20.422Z</time>
      </trkpt>
      <trkpt lat="45.61371" lon="5.51801">
        <ele>336</ele>
        <time>2023-02-14T09:31:21.422Z</time>
      </trkpt>
      <trkpt lat="45.61375" lon="5.51798">
        <ele>336</ele>
        <time>2023-02-14T09:31:22.422Z</time>
      </trkpt>
      <trkpt lat="45.61379" lon="5.51794">
        <ele>335</ele>
        <time>2023-02-14T09:31:23.422Z</time>
      </trkpt>
      <trkpt lat="45.61382" lon="5.5179">
        <ele>334</ele>
        <time>2023-02-14T09:31:24.422Z</time>
      </trkpt>
      <trkpt lat="45.61387" lon="5.51787">
        <ele>334</ele>
        <time>2023-02-14T09:31:25.422Z</time>
      </trkpt>
      <trkpt lat="45.61391" lon="5.51783">
        <ele>334</ele>
        <time>2023-02-14T09:31:26.422Z</time>
      </trkpt>
      <trkpt lat="45.61395" lon="5.5178">
        <ele>333</ele>
        <time>2023-02-14T09:31:27.422Z</time>
      </trkpt>
      <trkpt lat="45.614" lon="5.51776">
        <ele>333</ele>
        <time>2023-02-14T09:31:28.422Z</time>
      </trkpt>
      <trkpt lat="45.61404" lon="5.51771">
        <ele>332</ele>
        <time>2023-02-14T09:31:29.422Z</time>
      </trkpt>
      <trkpt lat="45.61409" lon="5.51767">
        <ele>332</ele>
        <time>2023-02-14T09:31:30.422Z</time>
      </trkpt>
      <trkpt lat="45.61413" lon="5.51763">
        <ele>331</ele>
        <time>2023-02-14T09:31:31.422Z</time>
      </trkpt>
      <trkpt lat="45.61417" lon="5.51759">
        <ele>331</ele>
        <time>2023-02-14T09:31:32.422Z</time>
      </trkpt>
      <trkpt lat="45.61421" lon="5.51754">
        <ele>331</ele>
        <time>2023-02-14T09:31:33.422Z</time>
      </trkpt>
      <trkpt lat="45.61425" lon="5.51749">
        <ele>331</ele>
        <time>2023-02-14T09:31:34.422Z</time>
      </trkpt>
      <trkpt lat="45.61429" lon="5.51744">
        <ele>331</ele>
        <time>2023-02-14T09:31:35.422Z</time>
      </trkpt>
      <trkpt lat="45.61434" lon="5.51739">
        <ele>330</ele>
        <time>2023-02-14T09:31:36.422Z</time>
      </trkpt>
      <trkpt lat="45.61438" lon="5.51734">
        <ele>330</ele>
        <time>2023-02-14T09:31:37.422Z</time>
      </trkpt>
      <trkpt lat="45.61442" lon="5.51729">
        <ele>330</ele>
        <time>2023-02-14T09:31:38.422Z</time>
      </trkpt>
      <trkpt lat="45.61446" lon="5.51723">
        <ele>330</ele>
        <time>2023-02-14T09:31:39.422Z</time>
      </trkpt>
      <trkpt lat="45.6145" lon="5.51718">
        <ele>331</ele>
        <time>2023-02-14T09:31:40.422Z</time>
      </trkpt>
      <trkpt lat="45.61454" lon="5.51712">
        <ele>331</ele>
        <time>2023-02-14T09:31:41.422Z</time>
      </trkpt>
      <trkpt lat="45.61457" lon="5.51706">
        <ele>331</ele>
        <time>2023-02-14T09:31:42.422Z</time>
      </trkpt>
      <trkpt lat="45.61461" lon="5.517">
        <ele>330</ele>
        <time>2023-02-14T09:31:43.422Z</time>
      </trkpt>
      <trkpt lat="45.61464" lon="5.51694">
        <ele>330</ele>
        <time>2023-02-14T09:31:44.422Z</time>
      </trkpt>
      <trkpt lat="45.61468" lon="5.51688">
        <ele>330</ele>
        <time>2023-02-14T09:31:45.422Z</time>
      </trkpt>
      <trkpt lat="45.61471" lon="5.51682">
        <ele>330</ele>
        <time>2023-02-14T09:31:46.422Z</time>
      </trkpt>
      <trkpt lat="45.61475" lon="5.51677">
        <ele>330</ele>
        <time>2023-02-14T09:31:47.422Z</time>
      </trkpt>
      <trkpt lat="45.61479" lon="5.51671">
        <ele>330</ele>
        <time>2023-02-14T09:31:48.422Z</time>
      </trkpt>
      <trkpt lat="45.61482" lon="5.51664">
        <ele>330</ele>
        <time>2023-02-14T09:31:49.422Z</time>
      </trkpt>
      <trkpt lat="45.61485" lon="5.51658">
        <ele>330</ele>
        <time>2023-02-14T09:31:50.422Z</time>
      </trkpt>
      <trkpt lat="45.61489" lon="5.51652">
        <ele>330</ele>
        <time>2023-02-14T09:31:51.422Z</time>
      </trkpt>
      <trkpt lat="45.61492" lon="5.51646">
        <ele>330</ele>
        <time>2023-02-14T09:31:52.422Z</time>
      </trkpt>
      <trkpt lat="45.61495" lon="5.5164">
        <ele>330</ele>
        <time>2023-02-14T09:31:53.422Z</time>
      </trkpt>
      <trkpt lat="45.61498" lon="5.51634">
        <ele>330</ele>
        <time>2023-02-14T09:31:54.422Z</time>
      </trkpt>
      <trkpt lat="45.61501" lon="5.51628">
        <ele>330</ele>
        <time>2023-02-14T09:31:55.422Z</time>
      </trkpt>
      <trkpt lat="45.61504" lon="5.51623">
        <ele>330</ele>
        <time>2023-02-14T09:31:56.422Z</time>
      </trkpt>
      <trkpt lat="45.61507" lon="5.51617">
        <ele>330</ele>
        <time>2023-02-14T09:31:57.422Z</time>
      </trkpt>
      <trkpt lat="45.6151" lon="5.51611">
        <ele>330</ele>
        <time>2023-02-14T09:31:58.422Z</time>
      </trkpt>
      <trkpt lat="45.61514" lon="5.51606">
        <ele>330</ele>
        <time>2023-02-14T09:31:59.422Z</time>
      </trkpt>
      <trkpt lat="45.61517" lon="5.516">
        <ele>329</ele>
        <time>2023-02-14T09:32:00.422Z</time>
      </trkpt>
      <trkpt lat="45.61521" lon="5.51594">
        <ele>328</ele>
        <time>2023-02-14T09:32:01.422Z</time>
      </trkpt>
      <trkpt lat="45.61524" lon="5.51586">
        <ele>327</ele>
        <time>2023-02-14T09:32:02.422Z</time>
      </trkpt>
      <trkpt lat="45.61528" lon="5.51578">
        <ele>326</ele>
        <time>2023-02-14T09:32:03.422Z</time>
      </trkpt>
      <trkpt lat="45.61531" lon="5.5157">
        <ele>326</ele>
        <time>2023-02-14T09:32:04.422Z</time>
      </trkpt>
      <trkpt lat="45.61535" lon="5.5156">
        <ele>325</ele>
        <time>2023-02-14T09:32:05.422Z</time>
      </trkpt>
      <trkpt lat="45.61539" lon="5.51551">
        <ele>325</ele>
        <time>2023-02-14T09:32:06.422Z</time>
      </trkpt>
      <trkpt lat="45.61545" lon="5.51543">
        <ele>325</ele>
        <time>2023-02-14T09:32:07.422Z</time>
      </trkpt>
      <trkpt lat="45.6155" lon="5.51536">
        <ele>325</ele>
        <time>2023-02-14T09:32:08.422Z</time>
      </trkpt>
      <trkpt lat="45.61556" lon="5.5153">
        <ele>325</ele>
        <time>2023-02-14T09:32:09.422Z</time>
      </trkpt>
      <trkpt lat="45.61562" lon="5.51525">
        <ele>325</ele>
        <time>2023-02-14T09:32:10.422Z</time>
      </trkpt>
      <trkpt lat="45.61567" lon="5.5152">
        <ele>325</ele>
        <time>2023-02-14T09:32:11.422Z</time>
      </trkpt>
      <trkpt lat="45.61572" lon="5.51515">
        <ele>325</ele>
        <time>2023-02-14T09:32:12.422Z</time>
      </trkpt>
      <trkpt lat="45.61576" lon="5.5151">
        <ele>326</ele>
        <time>2023-02-14T09:32:13.422Z</time>
      </trkpt>
      <trkpt lat="45.6158" lon="5.51505">
        <ele>326</ele>
        <time>2023-02-14T09:32:14.422Z</time>
      </trkpt>
      <trkpt lat="45.61583" lon="5.515">
        <ele>326</ele>
        <time>2023-02-14T09:32:15.422Z</time>
      </trkpt>
      <trkpt lat="45.61587" lon="5.51495">
        <ele>326</ele>
        <time>2023-02-14T09:32:16.422Z</time>
      </trkpt>
      <trkpt lat="45.6159" lon="5.5149">
        <ele>326</ele>
        <time>2023-02-14T09:32:17.422Z</time>
      </trkpt>
      <trkpt lat="45.61594" lon="5.51486">
        <ele>326</ele>
        <time>2023-02-14T09:32:18.422Z</time>
      </trkpt>
      <trkpt lat="45.61597" lon="5.51482">
        <ele>326</ele>
        <time>2023-02-14T09:32:19.422Z</time>
      </trkpt>
      <trkpt lat="45.61601" lon="5.51479">
        <ele>326</ele>
        <time>2023-02-14T09:32:20.422Z</time>
      </trkpt>
      <trkpt lat="45.61605" lon="5.51475">
        <ele>325</ele>
        <time>2023-02-14T09:32:21.422Z</time>
      </trkpt>
      <trkpt lat="45.61609" lon="5.51473">
        <ele>325</ele>
        <time>2023-02-14T09:32:22.422Z</time>
      </trkpt>
      <trkpt lat="45.61613" lon="5.5147">
        <ele>325</ele>
        <time>2023-02-14T09:32:23.422Z</time>
      </trkpt>
      <trkpt lat="45.61617" lon="5.51467">
        <ele>325</ele>
        <time>2023-02-14T09:32:24.422Z</time>
      </trkpt>
      <trkpt lat="45.6162" lon="5.51463">
        <ele>325</ele>
        <time>2023-02-14T09:32:25.422Z</time>
      </trkpt>
      <trkpt lat="45.61624" lon="5.51459">
        <ele>326</ele>
        <time>2023-02-14T09:32:26.422Z</time>
      </trkpt>
      <trkpt lat="45.61627" lon="5.51454">
        <ele>326</ele>
        <time>2023-02-14T09:32:27.422Z</time>
      </trkpt>
      <trkpt lat="45.61629" lon="5.51449">
        <ele>326</ele>
        <time>2023-02-14T09:32:28.422Z</time>
      </trkpt>
      <trkpt lat="45.61631" lon="5.51444">
        <ele>326</ele>
        <time>2023-02-14T09:32:29.422Z</time>
      </trkpt>
      <trkpt lat="45.61633" lon="5.51439">
        <ele>326</ele>
        <time>2023-02-14T09:32:30.422Z</time>
      </trkpt>
      <trkpt lat="45.61635" lon="5.51435">
        <ele>327</ele>
        <time>2023-02-14T09:32:31.422Z</time>
      </trkpt>
      <trkpt lat="45.61638" lon="5.51431">
        <ele>327</ele>
        <time>2023-02-14T09:32:32.422Z</time>
      </trkpt>
      <trkpt lat="45.6164" lon="5.51426">
        <ele>327</ele>
        <time>2023-02-14T09:32:33.422Z</time>
      </trkpt>
      <trkpt lat="45.61642" lon="5.51422">
        <ele>326</ele>
        <time>2023-02-14T09:32:34.422Z</time>
      </trkpt>
      <trkpt lat="45.61644" lon="5.51417">
        <ele>326</ele>
        <time>2023-02-14T09:32:35.422Z</time>
      </trkpt>
      <trkpt lat="45.61646" lon="5.51411">
        <ele>326</ele>
        <time>2023-02-14T09:32:36.422Z</time>
      </trkpt>
      <trkpt lat="45.61648" lon="5.51405">
        <ele>325</ele>
        <time>2023-02-14T09:32:37.422Z</time>
      </trkpt>
      <trkpt lat="45.6165" lon="5.51398">
        <ele>325</ele>
        <time>2023-02-14T09:32:38.422Z</time>
      </trkpt>
      <trkpt lat="45.61652" lon="5.5139">
        <ele>324</ele>
        <time>2023-02-14T09:32:39.422Z</time>
      </trkpt>
      <trkpt lat="45.61655" lon="5.51382">
        <ele>322</ele>
        <time>2023-02-14T09:32:40.422Z</time>
      </trkpt>
      <trkpt lat="45.61657" lon="5.51373">
        <ele>322</ele>
        <time>2023-02-14T09:32:41.422Z</time>
      </trkpt>
      <trkpt lat="45.6166" lon="5.51363">
        <ele>321</ele>
        <time>2023-02-14T09:32:42.422Z</time>
      </trkpt>
      <trkpt lat="45.61662" lon="5.51353">
        <ele>320</ele>
        <time>2023-02-14T09:32:43.422Z</time>
      </trkpt>
      <trkpt lat="45.61665" lon="5.51342">
        <ele>320</ele>
        <time>2023-02-14T09:32:44.422Z</time>
      </trkpt>
      <trkpt lat="45.61667" lon="5.51331">
        <ele>320</ele>
        <time>2023-02-14T09:32:45.422Z</time>
      </trkpt>
      <trkpt lat="45.6167" lon="5.51319">
        <ele>319</ele>
        <time>2023-02-14T09:32:46.422Z</time>
      </trkpt>
      <trkpt lat="45.61673" lon="5.51308">
        <ele>319</ele>
        <time>2023-02-14T09:32:47.422Z</time>
      </trkpt>
      <trkpt lat="45.61677" lon="5.51297">
        <ele>318</ele>
        <time>2023-02-14T09:32:48.422Z</time>
      </trkpt>
      <trkpt lat="45.61681" lon="5.51287">
        <ele>317</ele>
        <time>2023-02-14T09:32:49.422Z</time>
      </trkpt>
      <trkpt lat="45.61686" lon="5.51278">
        <ele>317</ele>
        <time>2023-02-14T09:32:50.422Z</time>
      </trkpt>
      <trkpt lat="45.61691" lon="5.5127">
        <ele>316</ele>
        <time>2023-02-14T09:32:51.422Z</time>
      </trkpt>
      <trkpt lat="45.61696" lon="5.51262">
        <ele>316</ele>
        <time>2023-02-14T09:32:52.422Z</time>
      </trkpt>
      <trkpt lat="45.617" lon="5.51254">
        <ele>317</ele>
        <time>2023-02-14T09:32:53.422Z</time>
      </trkpt>
      <trkpt lat="45.61704" lon="5.51246">
        <ele>317</ele>
        <time>2023-02-14T09:32:54.422Z</time>
      </trkpt>
      <trkpt lat="45.61707" lon="5.51238">
        <ele>318</ele>
        <time>2023-02-14T09:32:55.422Z</time>
      </trkpt>
      <trkpt lat="45.6171" lon="5.51231">
        <ele>318</ele>
        <time>2023-02-14T09:32:56.422Z</time>
      </trkpt>
      <trkpt lat="45.61713" lon="5.51225">
        <ele>318</ele>
        <time>2023-02-14T09:32:57.422Z</time>
      </trkpt>
      <trkpt lat="45.61716" lon="5.5122">
        <ele>318</ele>
        <time>2023-02-14T09:32:58.422Z</time>
      </trkpt>
      <trkpt lat="45.61719" lon="5.51216">
        <ele>318</ele>
        <time>2023-02-14T09:32:59.422Z</time>
      </trkpt>
      <trkpt lat="45.61723" lon="5.51214">
        <ele>319</ele>
        <time>2023-02-14T09:33:00.422Z</time>
      </trkpt>
      <trkpt lat="45.61726" lon="5.51212">
        <ele>320</ele>
        <time>2023-02-14T09:33:01.422Z</time>
      </trkpt>
      <trkpt lat="45.6173" lon="5.51211">
        <ele>320</ele>
        <time>2023-02-14T09:33:02.422Z</time>
      </trkpt>
      <trkpt lat="45.61733" lon="5.51211">
        <ele>320</ele>
        <time>2023-02-14T09:33:03.422Z</time>
      </trkpt>
      <trkpt lat="45.61736" lon="5.51211">
        <ele>320</ele>
        <time>2023-02-14T09:33:04.422Z</time>
      </trkpt>
      <trkpt lat="45.61739" lon="5.51211">
        <ele>321</ele>
        <time>2023-02-14T09:33:05.422Z</time>
      </trkpt>
      <trkpt lat="45.61742" lon="5.51212">
        <ele>321</ele>
        <time>2023-02-14T09:33:06.422Z</time>
      </trkpt>
      <trkpt lat="45.61745" lon="5.51212">
        <ele>321</ele>
        <time>2023-02-14T09:33:07.422Z</time>
      </trkpt>
      <trkpt lat="45.61747" lon="5.51212">
        <ele>321</ele>
        <time>2023-02-14T09:33:08.422Z</time>
      </trkpt>
      <trkpt lat="45.6175" lon="5.51212">
        <ele>321</ele>
        <time>2023-02-14T09:33:09.422Z</time>
      </trkpt>
      <trkpt lat="45.61752" lon="5.51212">
        <ele>322</ele>
        <time>2023-02-14T09:33:10.422Z</time>
      </trkpt>
      <trkpt lat="45.61755" lon="5.51211">
        <ele>322</ele>
        <time>2023-02-14T09:33:11.422Z</time>
      </trkpt>
      <trkpt lat="45.61757" lon="5.51211">
        <ele>322</ele>
        <time>2023-02-14T09:33:12.422Z</time>
      </trkpt>
      <trkpt lat="45.61759" lon="5.51211">
        <ele>322</ele>
        <time>2023-02-14T09:33:13.422Z</time>
      </trkpt>
      <trkpt lat="45.61761" lon="5.5121">
        <ele>323</ele>
        <time>2023-02-14T09:33:14.422Z</time>
      </trkpt>
      <trkpt lat="45.61763" lon="5.5121">
        <ele>323</ele>
        <time>2023-02-14T09:33:15.422Z</time>
      </trkpt>
      <trkpt lat="45.61765" lon="5.51209">
        <ele>323</ele>
        <time>2023-02-14T09:33:16.422Z</time>
      </trkpt>
      <trkpt lat="45.61767" lon="5.51209">
        <ele>323</ele>
        <time>2023-02-14T09:33:17.422Z</time>
      </trkpt>
      <trkpt lat="45.6177" lon="5.51208">
        <ele>324</ele>
        <time>2023-02-14T09:33:18.422Z</time>
      </trkpt>
      <trkpt lat="45.61772" lon="5.51207">
        <ele>324</ele>
        <time>2023-02-14T09:33:19.422Z</time>
      </trkpt>
      <trkpt lat="45.61774" lon="5.51205">
        <ele>324</ele>
        <time>2023-02-14T09:33:20.422Z</time>
      </trkpt>
      <trkpt lat="45.61776" lon="5.51203">
        <ele>325</ele>
        <time>2023-02-14T09:33:21.422Z</time>
      </trkpt>
      <trkpt lat="45.61777" lon="5.51201">
        <ele>325</ele>
        <time>2023-02-14T09:33:22.422Z</time>
      </trkpt>
      <trkpt lat="45.61777" lon="5.51197">
        <ele>325</ele>
        <time>2023-02-14T09:33:23.422Z</time>
      </trkpt>
      <trkpt lat="45.61777" lon="5.51194">
        <ele>325</ele>
        <time>2023-02-14T09:33:24.422Z</time>
      </trkpt>
      <trkpt lat="45.61777" lon="5.51191">
        <ele>325</ele>
        <time>2023-02-14T09:33:25.422Z</time>
      </trkpt>
      <trkpt lat="45.61777" lon="5.51188">
        <ele>326</ele>
        <time>2023-02-14T09:33:26.422Z</time>
      </trkpt>
      <trkpt lat="45.61776" lon="5.51185">
        <ele>326</ele>
        <time>2023-02-14T09:33:27.422Z</time>
      </trkpt>
      <trkpt lat="45.61775" lon="5.51182">
        <ele>326</ele>
        <time>2023-02-14T09:33:28.422Z</time>
      </trkpt>
      <trkpt lat="45.61774" lon="5.51179">
        <ele>326</ele>
        <time>2023-02-14T09:33:29.422Z</time>
      </trkpt>
      <trkpt lat="45.61773" lon="5.51176">
        <ele>326</ele>
        <time>2023-02-14T09:33:30.422Z</time>
      </trkpt>
      <trkpt lat="45.61772" lon="5.51173">
        <ele>326</ele>
        <time>2023-02-14T09:33:31.422Z</time>
      </trkpt>
      <trkpt lat="45.61771" lon="5.5117">
        <ele>327</ele>
        <time>2023-02-14T09:33:32.422Z</time>
      </trkpt>
      <trkpt lat="45.6177" lon="5.51167">
        <ele>327</ele>
        <time>2023-02-14T09:33:33.422Z</time>
      </trkpt>
      <trkpt lat="45.61769" lon="5.51165">
        <ele>327</ele>
        <time>2023-02-14T09:33:34.422Z</time>
      </trkpt>
      <trkpt lat="45.61769" lon="5.51162">
        <ele>327</ele>
        <time>2023-02-14T09:33:35.422Z</time>
      </trkpt>
      <trkpt lat="45.61768" lon="5.51159">
        <ele>327</ele>
        <time>2023-02-14T09:33:36.422Z</time>
      </trkpt>
      <trkpt lat="45.61767" lon="5.51156">
        <ele>327</ele>
        <time>2023-02-14T09:33:37.422Z</time>
      </trkpt>
      <trkpt lat="45.61766" lon="5.51154">
        <ele>328</ele>
        <time>2023-02-14T09:33:38.422Z</time>
      </trkpt>
      <trkpt lat="45.61765" lon="5.51151">
        <ele>328</ele>
        <time>2023-02-14T09:33:39.422Z</time>
      </trkpt>
      <trkpt lat="45.61764" lon="5.51148">
        <ele>328</ele>
        <time>2023-02-14T09:33:40.422Z</time>
      </trkpt>
      <trkpt lat="45.61763" lon="5.51146">
        <ele>328</ele>
        <time>2023-02-14T09:33:41.422Z</time>
      </trkpt>
      <trkpt lat="45.61762" lon="5.51143">
        <ele>328</ele>
        <time>2023-02-14T09:33:42.422Z</time>
      </trkpt>
      <trkpt lat="45.61761" lon="5.5114">
        <ele>328</ele>
        <time>2023-02-14T09:33:43.422Z</time>
      </trkpt>
      <trkpt lat="45.6176" lon="5.51137">
        <ele>329</ele>
        <time>2023-02-14T09:33:44.422Z</time>
      </trkpt>
      <trkpt lat="45.61759" lon="5.51135">
        <ele>329</ele>
        <time>2023-02-14T09:33:45.422Z</time>
      </trkpt>
      <trkpt lat="45.61758" lon="5.51132">
        <ele>329</ele>
        <time>2023-02-14T09:33:46.422Z</time>
      </trkpt>
      <trkpt lat="45.61757" lon="5.51129">
        <ele>329</ele>
        <time>2023-02-14T09:33:47.422Z</time>
      </trkpt>
      <trkpt lat="45.61756" lon="5.51127">
        <ele>329</ele>
        <time>2023-02-14T09:33:48.422Z</time>
      </trkpt>
      <trkpt lat="45.61756" lon="5.51124">
        <ele>329</ele>
        <time>2023-02-14T09:33:49.422Z</time>
      </trkpt>
      <trkpt lat="45.61755" lon="5.51122">
        <ele>329</ele>
        <time>2023-02-14T09:33:50.422Z</time>
      </trkpt>
      <trkpt lat="45.61754" lon="5.51119">
        <ele>330</ele>
        <time>2023-02-14T09:33:51.422Z</time>
      </trkpt>
      <trkpt lat="45.61753" lon="5.51116">
        <ele>330</ele>
        <time>2023-02-14T09:33:52.422Z</time>
      </trkpt>
      <trkpt lat="45.61752" lon="5.51114">
        <ele>330</ele>
        <time>2023-02-14T09:33:53.422Z</time>
      </trkpt>
      <trkpt lat="45.61751" lon="5.51111">
        <ele>330</ele>
        <time>2023-02-14T09:33:54.422Z</time>
      </trkpt>
      <trkpt lat="45.6175" lon="5.51109">
        <ele>330</ele>
        <time>2023-02-14T09:33:55.422Z</time>
      </trkpt>
      <trkpt lat="45.6175" lon="5.51106">
        <ele>330</ele>
        <time>2023-02-14T09:33:56.422Z</time>
      </trkpt>
      <trkpt lat="45.61749" lon="5.51104">
        <ele>330</ele>
        <time>2023-02-14T09:33:57.422Z</time>
      </trkpt>
      <trkpt lat="45.61748" lon="5.51101">
        <ele>330</ele>
        <time>2023-02-14T09:33:58.422Z</time>
      </trkpt>
      <trkpt lat="45.61747" lon="5.51099">
        <ele>331</ele>
        <time>2023-02-14T09:33:59.422Z</time>
      </trkpt>
      <trkpt lat="45.61746" lon="5.51096">
        <ele>331</ele>
        <time>2023-02-14T09:34:00.422Z</time>
      </trkpt>
      <trkpt lat="45.61746" lon="5.51094">
        <ele>331</ele>
        <time>2023-02-14T09:34:01.422Z</time>
      </trkpt>
      <trkpt lat="45.61745" lon="5.51091">
        <ele>331</ele>
        <time>2023-02-14T09:34:02.422Z</time>
      </trkpt>
      <trkpt lat="45.61744" lon="5.51089">
        <ele>331</ele>
        <time>2023-02-14T09:34:03.422Z</time>
      </trkpt>
      <trkpt lat="45.61743" lon="5.51086">
        <ele>331</ele>
        <time>2023-02-14T09:34:04.422Z</time>
      </trkpt>
      <trkpt lat="45.61742" lon="5.51084">
        <ele>331</ele>
        <time>2023-02-14T09:34:05.422Z</time>
      </trkpt>
      <trkpt lat="45.61741" lon="5.51081">
        <ele>331</ele>
        <time>2023-02-14T09:34:06.422Z</time>
      </trkpt>
      <trkpt lat="45.6174" lon="5.51079">
        <ele>332</ele>
        <time>2023-02-14T09:34:07.422Z</time>
      </trkpt>
      <trkpt lat="45.61739" lon="5.51076">
        <ele>332</ele>
        <time>2023-02-14T09:34:08.422Z</time>
      </trkpt>
      <trkpt lat="45.61738" lon="5.51074">
        <ele>332</ele>
        <time>2023-02-14T09:34:09.422Z</time>
      </trkpt>
      <trkpt lat="45.61737" lon="5.51071">
        <ele>332</ele>
        <time>2023-02-14T09:34:10.422Z</time>
      </trkpt>
      <trkpt lat="45.61737" lon="5.51069">
        <ele>332</ele>
        <time>2023-02-14T09:34:11.422Z</time>
      </trkpt>
      <trkpt lat="45.61736" lon="5.51066">
        <ele>332</ele>
        <time>2023-02-14T09:34:12.422Z</time>
      </trkpt>
      <trkpt lat="45.61735" lon="5.51064">
        <ele>333</ele>
        <time>2023-02-14T09:34:13.422Z</time>
      </trkpt>
      <trkpt lat="45.61734" lon="5.51061">
        <ele>333</ele>
        <time>2023-02-14T09:34:14.422Z</time>
      </trkpt>
      <trkpt lat="45.61734" lon="5.51059">
        <ele>333</ele>
        <time>2023-02-14T09:34:15.422Z</time>
      </trkpt>
      <trkpt lat="45.61733" lon="5.51057">
        <ele>333</ele>
        <time>2023-02-14T09:34:16.422Z</time>
      </trkpt>
      <trkpt lat="45.61732" lon="5.51054">
        <ele>334</ele>
        <time>2023-02-14T09:34:17.422Z</time>
      </trkpt>
      <trkpt lat="45.61731" lon="5.51052">
        <ele>334</ele>
        <time>2023-02-14T09:34:18.422Z</time>
      </trkpt>
      <trkpt lat="45.6173" lon="5.51049">
        <ele>334</ele>
        <time>2023-02-14T09:34:19.422Z</time>
      </trkpt>
      <trkpt lat="45.61729" lon="5.51046">
        <ele>334</ele>
        <time>2023-02-14T09:34:20.422Z</time>
      </trkpt>
      <trkpt lat="45.61729" lon="5.51043">
        <ele>334</ele>
        <time>2023-02-14T09:34:21.422Z</time>
      </trkpt>
      <trkpt lat="45.61728" lon="5.51041">
        <ele>334</ele>
        <time>2023-02-14T09:34:22.422Z</time>
      </trkpt>
      <trkpt lat="45.61727" lon="5.51038">
        <ele>335</ele>
        <time>2023-02-14T09:34:23.422Z</time>
      </trkpt>
      <trkpt lat="45.61726" lon="5.51036">
        <ele>335</ele>
        <time>2023-02-14T09:34:24.422Z</time>
      </trkpt>
      <trkpt lat="45.61725" lon="5.51033">
        <ele>335</ele>
        <time>2023-02-14T09:34:25.422Z</time>
      </trkpt>
      <trkpt lat="45.61725" lon="5.51031">
        <ele>335</ele>
        <time>2023-02-14T09:34:26.422Z</time>
      </trkpt>
      <trkpt lat="45.61724" lon="5.51028">
        <ele>335</ele>
        <time>2023-02-14T09:34:27.422Z</time>
      </trkpt>
      <trkpt lat="45.61723" lon="5.51026">
        <ele>336</ele>
        <time>2023-02-14T09:34:28.422Z</time>
      </trkpt>
      <trkpt lat="45.61722" lon="5.51023">
        <ele>336</ele>
        <time>2023-02-14T09:34:29.422Z</time>
      </trkpt>
      <trkpt lat="45.61721" lon="5.51021">
        <ele>336</ele>
        <time>2023-02-14T09:34:30.422Z</time>
      </trkpt>
      <trkpt lat="45.6172" lon="5.51018">
        <ele>336</ele>
        <time>2023-02-14T09:34:31.422Z</time>
      </trkpt>
      <trkpt lat="45.6172" lon="5.51015">
        <ele>336</ele>
        <time>2023-02-14T09:34:32.422Z</time>
      </trkpt>
      <trkpt lat="45.61719" lon="5.51013">
        <ele>336</ele>
        <time>2023-02-14T09:34:33.422Z</time>
      </trkpt>
      <trkpt lat="45.61718" lon="5.5101">
        <ele>336</ele>
        <time>2023-02-14T09:34:34.422Z</time>
      </trkpt>
      <trkpt lat="45.61717" lon="5.51007">
        <ele>336</ele>
        <time>2023-02-14T09:34:35.422Z</time>
      </trkpt>
      <trkpt lat="45.61716" lon="5.51004">
        <ele>337</ele>
        <time>2023-02-14T09:34:36.422Z</time>
      </trkpt>
      <trkpt lat="45.61715" lon="5.51001">
        <ele>337</ele>
        <time>2023-02-14T09:34:37.422Z</time>
      </trkpt>
      <trkpt lat="45.61715" lon="5.50998">
        <ele>337</ele>
        <time>2023-02-14T09:34:38.422Z</time>
      </trkpt>
      <trkpt lat="45.61714" lon="5.50995">
        <ele>337</ele>
        <time>2023-02-14T09:34:39.422Z</time>
      </trkpt>
      <trkpt lat="45.61714" lon="5.50992">
        <ele>337</ele>
        <time>2023-02-14T09:34:40.422Z</time>
      </trkpt>
      <trkpt lat="45.61713" lon="5.50989">
        <ele>337</ele>
        <time>2023-02-14T09:34:41.422Z</time>
      </trkpt>
      <trkpt lat="45.61712" lon="5.50986">
        <ele>338</ele>
        <time>2023-02-14T09:34:42.422Z</time>
      </trkpt>
      <trkpt lat="45.61712" lon="5.50983">
        <ele>338</ele>
        <time>2023-02-14T09:34:43.422Z</time>
      </trkpt>
      <trkpt lat="45.61711" lon="5.5098">
        <ele>338</ele>
        <time>2023-02-14T09:34:44.422Z</time>
      </trkpt>
      <trkpt lat="45.61711" lon="5.50978">
        <ele>338</ele>
        <time>2023-02-14T09:34:45.422Z</time>
      </trkpt>
      <trkpt lat="45.6171" lon="5.50975">
        <ele>339</ele>
        <time>2023-02-14T09:34:46.422Z</time>
      </trkpt>
      <trkpt lat="45.6171" lon="5.50972">
        <ele>339</ele>
        <time>2023-02-14T09:34:47.422Z</time>
      </trkpt>
      <trkpt lat="45.6171" lon="5.50969">
        <ele>339</ele>
        <time>2023-02-14T09:34:48.422Z</time>
      </trkpt>
      <trkpt lat="45.61709" lon="5.50966">
        <ele>339</ele>
        <time>2023-02-14T09:34:49.422Z</time>
      </trkpt>
      <trkpt lat="45.61709" lon="5.50963">
        <ele>339</ele>
        <time>2023-02-14T09:34:50.422Z</time>
      </trkpt>
      <trkpt lat="45.61709" lon="5.5096">
        <ele>340</ele>
        <time>2023-02-14T09:34:51.422Z</time>
      </trkpt>
      <trkpt lat="45.61708" lon="5.50957">
        <ele>340</ele>
        <time>2023-02-14T09:34:52.422Z</time>
      </trkpt>
      <trkpt lat="45.61708" lon="5.50954">
        <ele>340</ele>
        <time>2023-02-14T09:34:53.422Z</time>
      </trkpt>
      <trkpt lat="45.61709" lon="5.50951">
        <ele>340</ele>
        <time>2023-02-14T09:34:54.422Z</time>
      </trkpt>
      <trkpt lat="45.61709" lon="5.50948">
        <ele>340</ele>
        <time>2023-02-14T09:34:55.422Z</time>
      </trkpt>
      <trkpt lat="45.6171" lon="5.50945">
        <ele>340</ele>
        <time>2023-02-14T09:34:56.422Z</time>
      </trkpt>
      <trkpt lat="45.6171" lon="5.50942">
        <ele>341</ele>
        <time>2023-02-14T09:34:57.422Z</time>
      </trkpt>
      <trkpt lat="45.61711" lon="5.50939">
        <ele>341</ele>
        <time>2023-02-14T09:34:58.422Z</time>
      </trkpt>
      <trkpt lat="45.61712" lon="5.50936">
        <ele>341</ele>
        <time>2023-02-14T09:34:59.422Z</time>
      </trkpt>
      <trkpt lat="45.61713" lon="5.50933">
        <ele>341</ele>
        <time>2023-02-14T09:35:00.422Z</time>
      </trkpt>
      <trkpt lat="45.61714" lon="5.5093">
        <ele>341</ele>
        <time>2023-02-14T09:35:01.422Z</time>
      </trkpt>
      <trkpt lat="45.61714" lon="5.50928">
        <ele>341</ele>
        <time>2023-02-14T09:35:02.422Z</time>
      </trkpt>
      <trkpt lat="45.61715" lon="5.50925">
        <ele>341</ele>
        <time>2023-02-14T09:35:03.422Z</time>
      </trkpt>
      <trkpt lat="45.61715" lon="5.50922">
        <ele>341</ele>
        <time>2023-02-14T09:35:04.422Z</time>
      </trkpt>
      <trkpt lat="45.61716" lon="5.50919">
        <ele>341</ele>
        <time>2023-02-14T09:35:05.422Z</time>
      </trkpt>
      <trkpt lat="45.61717" lon="5.50917">
        <ele>341</ele>
        <time>2023-02-14T09:35:06.422Z</time>
      </trkpt>
      <trkpt lat="45.61717" lon="5.50914">
        <ele>341</ele>
        <time>2023-02-14T09:35:07.422Z</time>
      </trkpt>
      <trkpt lat="45.61718" lon="5.50911">
        <ele>341</ele>
        <time>2023-02-14T09:35:08.422Z</time>
      </trkpt>
      <trkpt lat="45.61719" lon="5.50909">
        <ele>341</ele>
        <time>2023-02-14T09:35:09.422Z</time>
      </trkpt>
      <trkpt lat="45.61719" lon="5.50906">
        <ele>341</ele>
        <time>2023-02-14T09:35:10.422Z</time>
      </trkpt>
      <trkpt lat="45.6172" lon="5.50904">
        <ele>341</ele>
        <time>2023-02-14T09:35:11.422Z</time>
      </trkpt>
      <trkpt lat="45.61721" lon="5.50902">
        <ele>341</ele>
        <time>2023-02-14T09:35:12.422Z</time>
      </trkpt>
      <trkpt lat="45.61722" lon="5.50901">
        <ele>341</ele>
        <time>2023-02-14T09:35:13.422Z</time>
      </trkpt>
      <trkpt lat="45.61722" lon="5.509">
        <ele>341</ele>
        <time>2023-02-14T09:35:14.422Z</time>
      </trkpt>
      <trkpt lat="45.61722" lon="5.509">
        <ele>342</ele>
        <time>2023-02-14T09:35:15.422Z</time>
      </trkpt>
      <trkpt lat="45.61722" lon="5.50891">
        <ele>346</ele>
        <time>2023-02-14T09:38:34.797Z</time>
      </trkpt>
      <trkpt lat="45.61723" lon="5.50891">
        <ele>346</ele>
        <time>2023-02-14T09:38:35.797Z</time>
      </trkpt>
      <trkpt lat="45.61724" lon="5.5089">
        <ele>346</ele>
        <time>2023-02-14T09:38:36.797Z</time>
      </trkpt>
      <trkpt lat="45.61724" lon="5.50889">
        <ele>346</ele>
        <time>2023-02-14T09:38:37.797Z</time>
      </trkpt>
      <trkpt lat="45.61725" lon="5.50888">
        <ele>346</ele>
        <time>2023-02-14T09:38:38.797Z</time>
      </trkpt>
      <trkpt lat="45.61725" lon="5.50886">
        <ele>347</ele>
        <time>2023-02-14T09:38:39.797Z</time>
      </trkpt>
      <trkpt lat="45.61725" lon="5.50884">
        <ele>346</ele>
        <time>2023-02-14T09:38:40.797Z</time>
      </trkpt>
      <trkpt lat="45.61724" lon="5.50883">
        <ele>347</ele>
        <time>2023-02-14T09:38:41.797Z</time>
      </trkpt>
      <trkpt lat="45.61724" lon="5.50881">
        <ele>347</ele>
        <time>2023-02-14T09:38:42.797Z</time>
      </trkpt>
      <trkpt lat="45.61723" lon="5.50879">
        <ele>347</ele>
        <time>2023-02-14T09:38:43.797Z</time>
      </trkpt>
      <trkpt lat="45.61722" lon="5.50877">
        <ele>348</ele>
        <time>2023-02-14T09:38:44.797Z</time>
      </trkpt>
      <trkpt lat="45.61722" lon="5.50875">
        <ele>348</ele>
        <time>2023-02-14T09:38:45.797Z</time>
      </trkpt>
      <trkpt lat="45.61722" lon="5.50872">
        <ele>348</ele>
        <time>2023-02-14T09:38:46.797Z</time>
      </trkpt>
      <trkpt lat="45.61722" lon="5.50869">
        <ele>348</ele>
        <time>2023-02-14T09:38:47.797Z</time>
      </trkpt>
      <trkpt lat="45.61723" lon="5.50866">
        <ele>347</ele>
        <time>2023-02-14T09:38:48.797Z</time>
      </trkpt>
      <trkpt lat="45.61724" lon="5.50864">
        <ele>347</ele>
        <time>2023-02-14T09:38:49.797Z</time>
      </trkpt>
      <trkpt lat="45.61725" lon="5.50861">
        <ele>347</ele>
        <time>2023-02-14T09:38:50.797Z</time>
      </trkpt>
      <trkpt lat="45.61727" lon="5.50858">
        <ele>347</ele>
        <time>2023-02-14T09:38:51.797Z</time>
      </trkpt>
      <trkpt lat="45.61728" lon="5.50855">
        <ele>347</ele>
        <time>2023-02-14T09:38:52.797Z</time>
      </trkpt>
      <trkpt lat="45.61729" lon="5.50852">
        <ele>347</ele>
        <time>2023-02-14T09:38:53.797Z</time>
      </trkpt>
      <trkpt lat="45.6173" lon="5.50849">
        <ele>347</ele>
        <time>2023-02-14T09:38:54.797Z</time>
      </trkpt>
      <trkpt lat="45.6173" lon="5.50846">
        <ele>347</ele>
        <time>2023-02-14T09:38:55.797Z</time>
      </trkpt>
      <trkpt lat="45.61731" lon="5.50843">
        <ele>347</ele>
        <time>2023-02-14T09:38:56.797Z</time>
      </trkpt>
      <trkpt lat="45.61732" lon="5.50841">
        <ele>347</ele>
        <time>2023-02-14T09:38:57.797Z</time>
      </trkpt>
      <trkpt lat="45.61732" lon="5.50838">
        <ele>347</ele>
        <time>2023-02-14T09:38:58.797Z</time>
      </trkpt>
      <trkpt lat="45.61733" lon="5.50835">
        <ele>347</ele>
        <time>2023-02-14T09:38:59.797Z</time>
      </trkpt>
      <trkpt lat="45.61734" lon="5.50832">
        <ele>346</ele>
        <time>2023-02-14T09:39:00.797Z</time>
      </trkpt>
      <trkpt lat="45.61735" lon="5.50829">
        <ele>346</ele>
        <time>2023-02-14T09:39:01.797Z</time>
      </trkpt>
      <trkpt lat="45.61735" lon="5.50826">
        <ele>346</ele>
        <time>2023-02-14T09:39:02.797Z</time>
      </trkpt>
      <trkpt lat="45.61736" lon="5.50823">
        <ele>347</ele>
        <time>2023-02-14T09:39:03.797Z</time>
      </trkpt>
      <trkpt lat="45.61737" lon="5.5082">
        <ele>346</ele>
        <time>2023-02-14T09:39:04.797Z</time>
      </trkpt>
      <trkpt lat="45.61737" lon="5.50817">
        <ele>345</ele>
        <time>2023-02-14T09:39:05.797Z</time>
      </trkpt>
      <trkpt lat="45.61737" lon="5.50814">
        <ele>345</ele>
        <time>2023-02-14T09:39:06.797Z</time>
      </trkpt>
      <trkpt lat="45.61738" lon="5.50811">
        <ele>345</ele>
        <time>2023-02-14T09:39:07.797Z</time>
      </trkpt>
      <trkpt lat="45.61738" lon="5.50808">
        <ele>345</ele>
        <time>2023-02-14T09:39:08.797Z</time>
      </trkpt>
      <trkpt lat="45.61739" lon="5.50805">
        <ele>346</ele>
        <time>2023-02-14T09:39:09.797Z</time>
      </trkpt>
      <trkpt lat="45.61739" lon="5.50801">
        <ele>345</ele>
        <time>2023-02-14T09:39:10.797Z</time>
      </trkpt>
      <trkpt lat="45.61739" lon="5.50798">
        <ele>345</ele>
        <time>2023-02-14T09:39:11.797Z</time>
      </trkpt>
      <trkpt lat="45.61739" lon="5.50794">
        <ele>345</ele>
        <time>2023-02-14T09:39:12.797Z</time>
      </trkpt>
      <trkpt lat="45.61739" lon="5.50791">
        <ele>345</ele>
        <time>2023-02-14T09:39:13.797Z</time>
      </trkpt>
      <trkpt lat="45.61739" lon="5.50787">
        <ele>345</ele>
        <time>2023-02-14T09:39:14.797Z</time>
      </trkpt>
      <trkpt lat="45.61739" lon="5.50784">
        <ele>346</ele>
        <time>2023-02-14T09:39:15.797Z</time>
      </trkpt>
      <trkpt lat="45.61739" lon="5.5078">
        <ele>346</ele>
        <time>2023-02-14T09:39:16.797Z</time>
      </trkpt>
      <trkpt lat="45.61739" lon="5.50776">
        <ele>346</ele>
        <time>2023-02-14T09:39:17.797Z</time>
      </trkpt>
      <trkpt lat="45.61739" lon="5.50773">
        <ele>346</ele>
        <time>2023-02-14T09:39:18.797Z</time>
      </trkpt>
      <trkpt lat="45.61739" lon="5.50769">
        <ele>346</ele>
        <time>2023-02-14T09:39:19.797Z</time>
      </trkpt>
      <trkpt lat="45.61739" lon="5.50765">
        <ele>346</ele>
        <time>2023-02-14T09:39:20.797Z</time>
      </trkpt>
      <trkpt lat="45.61739" lon="5.50761">
        <ele>346</ele>
        <time>2023-02-14T09:39:21.797Z</time>
      </trkpt>
      <trkpt lat="45.61739" lon="5.50758">
        <ele>346</ele>
        <time>2023-02-14T09:39:22.797Z</time>
      </trkpt>
      <trkpt lat="45.61739" lon="5.50754">
        <ele>346</ele>
        <time>2023-02-14T09:39:23.797Z</time>
      </trkpt>
      <trkpt lat="45.6174" lon="5.5075">
        <ele>346</ele>
        <time>2023-02-14T09:39:24.797Z</time>
      </trkpt>
      <trkpt lat="45.6174" lon="5.50746">
        <ele>347</ele>
        <time>2023-02-14T09:39:25.797Z</time>
      </trkpt>
      <trkpt lat="45.6174" lon="5.50742">
        <ele>347</ele>
        <time>2023-02-14T09:39:26.797Z</time>
      </trkpt>
      <trkpt lat="45.6174" lon="5.50738">
        <ele>347</ele>
        <time>2023-02-14T09:39:27.797Z</time>
      </trkpt>
      <trkpt lat="45.61741" lon="5.50734">
        <ele>347</ele>
        <time>2023-02-14T09:39:28.797Z</time>
      </trkpt>
      <trkpt lat="45.61741" lon="5.5073">
        <ele>347</ele>
        <time>2023-02-14T09:39:29.797Z</time>
      </trkpt>
      <trkpt lat="45.61741" lon="5.50726">
        <ele>347</ele>
        <time>2023-02-14T09:39:30.797Z</time>
      </trkpt>
      <trkpt lat="45.61741" lon="5.50722">
        <ele>347</ele>
        <time>2023-02-14T09:39:31.797Z</time>
      </trkpt>
      <trkpt lat="45.61742" lon="5.50718">
        <ele>347</ele>
        <time>2023-02-14T09:39:32.797Z</time>
      </trkpt>
      <trkpt lat="45.61742" lon="5.50714">
        <ele>347</ele>
        <time>2023-02-14T09:39:33.797Z</time>
      </trkpt>
      <trkpt lat="45.61742" lon="5.5071">
        <ele>347</ele>
        <time>2023-02-14T09:39:34.797Z</time>
      </trkpt>
      <trkpt lat="45.61743" lon="5.50706">
        <ele>348</ele>
        <time>2023-02-14T09:39:35.797Z</time>
      </trkpt>
      <trkpt lat="45.61743" lon="5.50702">
        <ele>348</ele>
        <time>2023-02-14T09:39:36.797Z</time>
      </trkpt>
      <trkpt lat="45.61744" lon="5.50698">
        <ele>348</ele>
        <time>2023-02-14T09:39:37.797Z</time>
      </trkpt>
      <trkpt lat="45.61744" lon="5.50694">
        <ele>348</ele>
        <time>2023-02-14T09:39:38.797Z</time>
      </trkpt>
      <trkpt lat="45.61745" lon="5.5069">
        <ele>348</ele>
        <time>2023-02-14T09:39:39.797Z</time>
      </trkpt>
      <trkpt lat="45.61745" lon="5.50687">
        <ele>348</ele>
        <time>2023-02-14T09:39:40.797Z</time>
      </trkpt>
      <trkpt lat="45.61746" lon="5.50683">
        <ele>348</ele>
        <time>2023-02-14T09:39:41.797Z</time>
      </trkpt>
      <trkpt lat="45.61746" lon="5.50679">
        <ele>348</ele>
        <time>2023-02-14T09:39:42.797Z</time>
      </trkpt>
      <trkpt lat="45.61747" lon="5.50675">
        <ele>347</ele>
        <time>2023-02-14T09:39:43.797Z</time>
      </trkpt>
      <trkpt lat="45.61747" lon="5.50672">
        <ele>348</ele>
        <time>2023-02-14T09:39:44.797Z</time>
      </trkpt>
      <trkpt lat="45.61747" lon="5.50668">
        <ele>347</ele>
        <time>2023-02-14T09:39:45.797Z</time>
      </trkpt>
      <trkpt lat="45.61747" lon="5.50664">
        <ele>347</ele>
        <time>2023-02-14T09:39:46.797Z</time>
      </trkpt>
      <trkpt lat="45.61747" lon="5.5066">
        <ele>347</ele>
        <time>2023-02-14T09:39:47.797Z</time>
      </trkpt>
      <trkpt lat="45.61747" lon="5.50656">
        <ele>347</ele>
        <time>2023-02-14T09:39:48.797Z</time>
      </trkpt>
      <trkpt lat="45.61747" lon="5.50652">
        <ele>347</ele>
        <time>2023-02-14T09:39:49.797Z</time>
      </trkpt>
      <trkpt lat="45.61747" lon="5.50648">
        <ele>347</ele>
        <time>2023-02-14T09:39:50.797Z</time>
      </trkpt>
      <trkpt lat="45.61747" lon="5.50644">
        <ele>347</ele>
        <time>2023-02-14T09:39:51.797Z</time>
      </trkpt>
      <trkpt lat="45.61747" lon="5.5064">
        <ele>347</ele>
        <time>2023-02-14T09:39:52.797Z</time>
      </trkpt>
      <trkpt lat="45.61747" lon="5.50636">
        <ele>347</ele>
        <time>2023-02-14T09:39:53.797Z</time>
      </trkpt>
      <trkpt lat="45.61747" lon="5.50632">
        <ele>346</ele>
        <time>2023-02-14T09:39:54.797Z</time>
      </trkpt>
      <trkpt lat="45.61747" lon="5.50628">
        <ele>346</ele>
        <time>2023-02-14T09:39:55.797Z</time>
      </trkpt>
      <trkpt lat="45.61747" lon="5.50624">
        <ele>346</ele>
        <time>2023-02-14T09:39:56.797Z</time>
      </trkpt>
      <trkpt lat="45.61747" lon="5.5062">
        <ele>346</ele>
        <time>2023-02-14T09:39:57.797Z</time>
      </trkpt>
      <trkpt lat="45.61746" lon="5.50616">
        <ele>346</ele>
        <time>2023-02-14T09:39:58.797Z</time>
      </trkpt>
      <trkpt lat="45.61746" lon="5.50612">
        <ele>346</ele>
        <time>2023-02-14T09:39:59.797Z</time>
      </trkpt>
      <trkpt lat="45.61745" lon="5.50608">
        <ele>346</ele>
        <time>2023-02-14T09:40:00.797Z</time>
      </trkpt>
      <trkpt lat="45.61745" lon="5.50604">
        <ele>346</ele>
        <time>2023-02-14T09:40:01.797Z</time>
      </trkpt>
      <trkpt lat="45.61745" lon="5.506">
        <ele>346</ele>
        <time>2023-02-14T09:40:02.797Z</time>
      </trkpt>
      <trkpt lat="45.61744" lon="5.50596">
        <ele>346</ele>
        <time>2023-02-14T09:40:03.797Z</time>
      </trkpt>
      <trkpt lat="45.61744" lon="5.50592">
        <ele>346</ele>
        <time>2023-02-14T09:40:04.797Z</time>
      </trkpt>
      <trkpt lat="45.61743" lon="5.50587">
        <ele>346</ele>
        <time>2023-02-14T09:40:05.797Z</time>
      </trkpt>
      <trkpt lat="45.61743" lon="5.50583">
        <ele>346</ele>
        <time>2023-02-14T09:40:06.797Z</time>
      </trkpt>
      <trkpt lat="45.61743" lon="5.50579">
        <ele>346</ele>
        <time>2023-02-14T09:40:07.797Z</time>
      </trkpt>
      <trkpt lat="45.61743" lon="5.50575">
        <ele>346</ele>
        <time>2023-02-14T09:40:08.797Z</time>
      </trkpt>
      <trkpt lat="45.61742" lon="5.50571">
        <ele>346</ele>
        <time>2023-02-14T09:40:09.797Z</time>
      </trkpt>
      <trkpt lat="45.61742" lon="5.50568">
        <ele>345</ele>
        <time>2023-02-14T09:40:10.797Z</time>
      </trkpt>
      <trkpt lat="45.61741" lon="5.50565">
        <ele>345</ele>
        <time>2023-02-14T09:40:11.797Z</time>
      </trkpt>
      <trkpt lat="45.61739" lon="5.50562">
        <ele>345</ele>
        <time>2023-02-14T09:40:12.797Z</time>
      </trkpt>
      <trkpt lat="45.61737" lon="5.50559">
        <ele>345</ele>
        <time>2023-02-14T09:40:13.797Z</time>
      </trkpt>
      <trkpt lat="45.61735" lon="5.50556">
        <ele>346</ele>
        <time>2023-02-14T09:40:14.797Z</time>
      </trkpt>
      <trkpt lat="45.61734" lon="5.50554">
        <ele>347</ele>
        <time>2023-02-14T09:40:15.797Z</time>
      </trkpt>
      <trkpt lat="45.61732" lon="5.50553">
        <ele>347</ele>
        <time>2023-02-14T09:40:16.797Z</time>
      </trkpt>
      <trkpt lat="45.6173" lon="5.50552">
        <ele>347</ele>
        <time>2023-02-14T09:40:17.797Z</time>
      </trkpt>
      <trkpt lat="45.61728" lon="5.50551">
        <ele>347</ele>
        <time>2023-02-14T09:40:18.797Z</time>
      </trkpt>
      <trkpt lat="45.61726" lon="5.5055">
        <ele>347</ele>
        <time>2023-02-14T09:40:19.797Z</time>
      </trkpt>
      <trkpt lat="45.61723" lon="5.50549">
        <ele>348</ele>
        <time>2023-02-14T09:40:20.797Z</time>
      </trkpt>
      <trkpt lat="45.61721" lon="5.50548">
        <ele>348</ele>
        <time>2023-02-14T09:40:21.797Z</time>
      </trkpt>
      <trkpt lat="45.61719" lon="5.50547">
        <ele>348</ele>
        <time>2023-02-14T09:40:22.797Z</time>
      </trkpt>
      <trkpt lat="45.61717" lon="5.50546">
        <ele>348</ele>
        <time>2023-02-14T09:40:23.797Z</time>
      </trkpt>
      <trkpt lat="45.61715" lon="5.50544">
        <ele>349</ele>
        <time>2023-02-14T09:40:24.797Z</time>
      </trkpt>
      <trkpt lat="45.61713" lon="5.50543">
        <ele>349</ele>
        <time>2023-02-14T09:40:25.797Z</time>
      </trkpt>
      <trkpt lat="45.61711" lon="5.50542">
        <ele>349</ele>
        <time>2023-02-14T09:40:26.797Z</time>
      </trkpt>
      <trkpt lat="45.61709" lon="5.50541">
        <ele>350</ele>
        <time>2023-02-14T09:40:27.797Z</time>
      </trkpt>
      <trkpt lat="45.61707" lon="5.5054">
        <ele>350</ele>
        <time>2023-02-14T09:40:28.797Z</time>
      </trkpt>
      <trkpt lat="45.61705" lon="5.50539">
        <ele>350</ele>
        <time>2023-02-14T09:40:29.797Z</time>
      </trkpt>
      <trkpt lat="45.61703" lon="5.50538">
        <ele>350</ele>
        <time>2023-02-14T09:40:30.797Z</time>
      </trkpt>
      <trkpt lat="45.61701" lon="5.50537">
        <ele>350</ele>
        <time>2023-02-14T09:40:31.797Z</time>
      </trkpt>
      <trkpt lat="45.61699" lon="5.50536">
        <ele>351</ele>
        <time>2023-02-14T09:40:32.797Z</time>
      </trkpt>
      <trkpt lat="45.61697" lon="5.50535">
        <ele>351</ele>
        <time>2023-02-14T09:40:33.797Z</time>
      </trkpt>
      <trkpt lat="45.61695" lon="5.50533">
        <ele>351</ele>
        <time>2023-02-14T09:40:34.797Z</time>
      </trkpt>
      <trkpt lat="45.61693" lon="5.50532">
        <ele>351</ele>
        <time>2023-02-14T09:40:35.797Z</time>
      </trkpt>
      <trkpt lat="45.61691" lon="5.50531">
        <ele>351</ele>
        <time>2023-02-14T09:40:36.797Z</time>
      </trkpt>
      <trkpt lat="45.61689" lon="5.50531">
        <ele>352</ele>
        <time>2023-02-14T09:40:37.797Z</time>
      </trkpt>
      <trkpt lat="45.61687" lon="5.5053">
        <ele>352</ele>
        <time>2023-02-14T09:40:38.797Z</time>
      </trkpt>
      <trkpt lat="45.61685" lon="5.50529">
        <ele>352</ele>
        <time>2023-02-14T09:40:39.797Z</time>
      </trkpt>
      <trkpt lat="45.61683" lon="5.50528">
        <ele>352</ele>
        <time>2023-02-14T09:40:40.797Z</time>
      </trkpt>
      <trkpt lat="45.61681" lon="5.50527">
        <ele>352</ele>
        <time>2023-02-14T09:40:41.797Z</time>
      </trkpt>
      <trkpt lat="45.61679" lon="5.50526">
        <ele>352</ele>
        <time>2023-02-14T09:40:42.797Z</time>
      </trkpt>
      <trkpt lat="45.61677" lon="5.50525">
        <ele>352</ele>
        <time>2023-02-14T09:40:43.797Z</time>
      </trkpt>
      <trkpt lat="45.61675" lon="5.50525">
        <ele>352</ele>
        <time>2023-02-14T09:40:44.797Z</time>
      </trkpt>
      <trkpt lat="45.61673" lon="5.50524">
        <ele>353</ele>
        <time>2023-02-14T09:40:45.797Z</time>
      </trkpt>
      <trkpt lat="45.61671" lon="5.50523">
        <ele>353</ele>
        <time>2023-02-14T09:40:46.797Z</time>
      </trkpt>
      <trkpt lat="45.61669" lon="5.50522">
        <ele>353</ele>
        <time>2023-02-14T09:40:47.797Z</time>
      </trkpt>
      <trkpt lat="45.61667" lon="5.50521">
        <ele>353</ele>
        <time>2023-02-14T09:40:48.797Z</time>
      </trkpt>
      <trkpt lat="45.61665" lon="5.5052">
        <ele>353</ele>
        <time>2023-02-14T09:40:49.797Z</time>
      </trkpt>
      <trkpt lat="45.61663" lon="5.50519">
        <ele>353</ele>
        <time>2023-02-14T09:40:50.797Z</time>
      </trkpt>
      <trkpt lat="45.61661" lon="5.50518">
        <ele>354</ele>
        <time>2023-02-14T09:40:51.797Z</time>
      </trkpt>
      <trkpt lat="45.61659" lon="5.50517">
        <ele>354</ele>
        <time>2023-02-14T09:40:52.797Z</time>
      </trkpt>
      <trkpt lat="45.61657" lon="5.50516">
        <ele>354</ele>
        <time>2023-02-14T09:40:53.797Z</time>
      </trkpt>
      <trkpt lat="45.61655" lon="5.50515">
        <ele>354</ele>
        <time>2023-02-14T09:40:54.797Z</time>
      </trkpt>
      <trkpt lat="45.61653" lon="5.50514">
        <ele>354</ele>
        <time>2023-02-14T09:40:55.797Z</time>
      </trkpt>
      <trkpt lat="45.61651" lon="5.50513">
        <ele>354</ele>
        <time>2023-02-14T09:40:56.797Z</time>
      </trkpt>
      <trkpt lat="45.61649" lon="5.50512">
        <ele>354</ele>
        <time>2023-02-14T09:40:57.797Z</time>
      </trkpt>
      <trkpt lat="45.61648" lon="5.50511">
        <ele>355</ele>
        <time>2023-02-14T09:40:58.797Z</time>
      </trkpt>
      <trkpt lat="45.61646" lon="5.5051">
        <ele>355</ele>
        <time>2023-02-14T09:40:59.797Z</time>
      </trkpt>
      <trkpt lat="45.61644" lon="5.50509">
        <ele>355</ele>
        <time>2023-02-14T09:41:00.797Z</time>
      </trkpt>
      <trkpt lat="45.61642" lon="5.50509">
        <ele>355</ele>
        <time>2023-02-14T09:41:01.797Z</time>
      </trkpt>
      <trkpt lat="45.61641" lon="5.50508">
        <ele>354</ele>
        <time>2023-02-14T09:41:02.797Z</time>
      </trkpt>
      <trkpt lat="45.61639" lon="5.50507">
        <ele>354</ele>
        <time>2023-02-14T09:41:03.797Z</time>
      </trkpt>
      <trkpt lat="45.61637" lon="5.50506">
        <ele>354</ele>
        <time>2023-02-14T09:41:04.797Z</time>
      </trkpt>
      <trkpt lat="45.61636" lon="5.50505">
        <ele>355</ele>
        <time>2023-02-14T09:41:05.797Z</time>
      </trkpt>
      <trkpt lat="45.61634" lon="5.50505">
        <ele>355</ele>
        <time>2023-02-14T09:41:06.797Z</time>
      </trkpt>
      <trkpt lat="45.61633" lon="5.50504">
        <ele>356</ele>
        <time>2023-02-14T09:41:07.797Z</time>
      </trkpt>
      <trkpt lat="45.61631" lon="5.50503">
        <ele>356</ele>
        <time>2023-02-14T09:41:08.797Z</time>
      </trkpt>
      <trkpt lat="45.6163" lon="5.50502">
        <ele>356</ele>
        <time>2023-02-14T09:41:09.797Z</time>
      </trkpt>
      <trkpt lat="45.61628" lon="5.50502">
        <ele>356</ele>
        <time>2023-02-14T09:41:10.797Z</time>
      </trkpt>
      <trkpt lat="45.61627" lon="5.50501">
        <ele>356</ele>
        <time>2023-02-14T09:41:11.797Z</time>
      </trkpt>
      <trkpt lat="45.61625" lon="5.505">
        <ele>356</ele>
        <time>2023-02-14T09:41:12.797Z</time>
      </trkpt>
      <trkpt lat="45.61624" lon="5.50499">
        <ele>357</ele>
        <time>2023-02-14T09:41:13.797Z</time>
      </trkpt>
      <trkpt lat="45.61622" lon="5.50499">
        <ele>358</ele>
        <time>2023-02-14T09:41:14.797Z</time>
      </trkpt>
      <trkpt lat="45.61621" lon="5.50498">
        <ele>359</ele>
        <time>2023-02-14T09:41:15.797Z</time>
      </trkpt>
      <trkpt lat="45.61619" lon="5.50498">
        <ele>359</ele>
        <time>2023-02-14T09:41:16.797Z</time>
      </trkpt>
      <trkpt lat="45.61617" lon="5.50497">
        <ele>360</ele>
        <time>2023-02-14T09:41:17.797Z</time>
      </trkpt>
      <trkpt lat="45.61616" lon="5.50497">
        <ele>359</ele>
        <time>2023-02-14T09:41:18.797Z</time>
      </trkpt>
      <trkpt lat="45.61614" lon="5.50496">
        <ele>360</ele>
        <time>2023-02-14T09:41:19.797Z</time>
      </trkpt>
      <trkpt lat="45.61612" lon="5.50495">
        <ele>360</ele>
        <time>2023-02-14T09:41:20.797Z</time>
      </trkpt>
      <trkpt lat="45.6161" lon="5.50495">
        <ele>359</ele>
        <time>2023-02-14T09:41:21.797Z</time>
      </trkpt>
      <trkpt lat="45.61609" lon="5.50494">
        <ele>360</ele>
        <time>2023-02-14T09:41:22.797Z</time>
      </trkpt>
      <trkpt lat="45.61607" lon="5.50494">
        <ele>360</ele>
        <time>2023-02-14T09:41:23.797Z</time>
      </trkpt>
      <trkpt lat="45.61606" lon="5.50493">
        <ele>360</ele>
        <time>2023-02-14T09:41:24.797Z</time>
      </trkpt>
      <trkpt lat="45.61604" lon="5.50492">
        <ele>360</ele>
        <time>2023-02-14T09:41:25.797Z</time>
      </trkpt>
      <trkpt lat="45.61603" lon="5.50492">
        <ele>360</ele>
        <time>2023-02-14T09:41:26.797Z</time>
      </trkpt>
      <trkpt lat="45.61601" lon="5.50491">
        <ele>359</ele>
        <time>2023-02-14T09:41:27.797Z</time>
      </trkpt>
      <trkpt lat="45.61599" lon="5.50491">
        <ele>359</ele>
        <time>2023-02-14T09:41:28.797Z</time>
      </trkpt>
      <trkpt lat="45.61598" lon="5.5049">
        <ele>361</ele>
        <time>2023-02-14T09:41:29.797Z</time>
      </trkpt>
      <trkpt lat="45.61596" lon="5.50489">
        <ele>361</ele>
        <time>2023-02-14T09:41:30.797Z</time>
      </trkpt>
      <trkpt lat="45.61594" lon="5.50489">
        <ele>361</ele>
        <time>2023-02-14T09:41:31.797Z</time>
      </trkpt>
      <trkpt lat="45.61593" lon="5.50488">
        <ele>361</ele>
        <time>2023-02-14T09:41:32.797Z</time>
      </trkpt>
      <trkpt lat="45.61591" lon="5.50488">
        <ele>361</ele>
        <time>2023-02-14T09:41:33.797Z</time>
      </trkpt>
      <trkpt lat="45.61589" lon="5.50488">
        <ele>362</ele>
        <time>2023-02-14T09:41:34.797Z</time>
      </trkpt>
      <trkpt lat="45.61587" lon="5.50488">
        <ele>362</ele>
        <time>2023-02-14T09:41:35.797Z</time>
      </trkpt>
      <trkpt lat="45.61585" lon="5.50488">
        <ele>363</ele>
        <time>2023-02-14T09:41:36.797Z</time>
      </trkpt>
      <trkpt lat="45.61583" lon="5.50487">
        <ele>364</ele>
        <time>2023-02-14T09:41:37.797Z</time>
      </trkpt>
      <trkpt lat="45.61582" lon="5.50487">
        <ele>364</ele>
        <time>2023-02-14T09:41:38.797Z</time>
      </trkpt>
      <trkpt lat="45.6158" lon="5.50487">
        <ele>364</ele>
        <time>2023-02-14T09:41:39.797Z</time>
      </trkpt>
      <trkpt lat="45.61578" lon="5.50488">
        <ele>364</ele>
        <time>2023-02-14T09:41:40.797Z</time>
      </trkpt>
      <trkpt lat="45.61577" lon="5.50489">
        <ele>364</ele>
        <time>2023-02-14T09:41:41.797Z</time>
      </trkpt>
      <trkpt lat="45.61575" lon="5.5049">
        <ele>364</ele>
        <time>2023-02-14T09:41:42.797Z</time>
      </trkpt>
      <trkpt lat="45.61573" lon="5.50491">
        <ele>365</ele>
        <time>2023-02-14T09:41:43.797Z</time>
      </trkpt>
      <trkpt lat="45.61572" lon="5.50493">
        <ele>365</ele>
        <time>2023-02-14T09:41:44.797Z</time>
      </trkpt>
      <trkpt lat="45.6157" lon="5.50495">
        <ele>365</ele>
        <time>2023-02-14T09:41:45.797Z</time>
      </trkpt>
      <trkpt lat="45.61569" lon="5.50498">
        <ele>365</ele>
        <time>2023-02-14T09:41:46.797Z</time>
      </trkpt>
      <trkpt lat="45.61567" lon="5.50501">
        <ele>365</ele>
        <time>2023-02-14T09:41:47.797Z</time>
      </trkpt>
      <trkpt lat="45.61566" lon="5.50503">
        <ele>365</ele>
        <time>2023-02-14T09:41:48.797Z</time>
      </trkpt>
      <trkpt lat="45.61564" lon="5.50506">
        <ele>365</ele>
        <time>2023-02-14T09:41:49.797Z</time>
      </trkpt>
      <trkpt lat="45.61563" lon="5.50509">
        <ele>365</ele>
        <time>2023-02-14T09:41:50.797Z</time>
      </trkpt>
      <trkpt lat="45.61561" lon="5.50511">
        <ele>365</ele>
        <time>2023-02-14T09:41:51.797Z</time>
      </trkpt>
      <trkpt lat="45.6156" lon="5.50514">
        <ele>365</ele>
        <time>2023-02-14T09:41:52.797Z</time>
      </trkpt>
      <trkpt lat="45.61558" lon="5.50517">
        <ele>365</ele>
        <time>2023-02-14T09:41:53.797Z</time>
      </trkpt>
      <trkpt lat="45.61557" lon="5.50519">
        <ele>365</ele>
        <time>2023-02-14T09:41:54.797Z</time>
      </trkpt>
      <trkpt lat="45.61555" lon="5.50522">
        <ele>365</ele>
        <time>2023-02-14T09:41:55.797Z</time>
      </trkpt>
      <trkpt lat="45.61554" lon="5.50525">
        <ele>366</ele>
        <time>2023-02-14T09:41:56.797Z</time>
      </trkpt>
      <trkpt lat="45.61553" lon="5.50528">
        <ele>366</ele>
        <time>2023-02-14T09:41:57.797Z</time>
      </trkpt>
      <trkpt lat="45.61552" lon="5.50531">
        <ele>366</ele>
        <time>2023-02-14T09:41:58.797Z</time>
      </trkpt>
      <trkpt lat="45.61551" lon="5.50534">
        <ele>366</ele>
        <time>2023-02-14T09:41:59.797Z</time>
      </trkpt>
      <trkpt lat="45.6155" lon="5.50537">
        <ele>366</ele>
        <time>2023-02-14T09:42:00.797Z</time>
      </trkpt>
      <trkpt lat="45.61548" lon="5.5054">
        <ele>366</ele>
        <time>2023-02-14T09:42:01.797Z</time>
      </trkpt>
      <trkpt lat="45.61547" lon="5.50543">
        <ele>366</ele>
        <time>2023-02-14T09:42:02.797Z</time>
      </trkpt>
      <trkpt lat="45.61546" lon="5.50545">
        <ele>366</ele>
        <time>2023-02-14T09:42:03.797Z</time>
      </trkpt>
      <trkpt lat="45.61544" lon="5.50548">
        <ele>366</ele>
        <time>2023-02-14T09:42:04.797Z</time>
      </trkpt>
      <trkpt lat="45.61543" lon="5.50551">
        <ele>366</ele>
        <time>2023-02-14T09:42:05.797Z</time>
      </trkpt>
      <trkpt lat="45.61541" lon="5.50553">
        <ele>367</ele>
        <time>2023-02-14T09:42:06.797Z</time>
      </trkpt>
      <trkpt lat="45.61539" lon="5.50555">
        <ele>366</ele>
        <time>2023-02-14T09:42:07.797Z</time>
      </trkpt>
      <trkpt lat="45.61537" lon="5.50556">
        <ele>367</ele>
        <time>2023-02-14T09:42:08.797Z</time>
      </trkpt>
      <trkpt lat="45.61534" lon="5.50556">
        <ele>367</ele>
        <time>2023-02-14T09:42:09.797Z</time>
      </trkpt>
      <trkpt lat="45.61532" lon="5.50555">
        <ele>367</ele>
        <time>2023-02-14T09:42:10.797Z</time>
      </trkpt>
      <trkpt lat="45.6153" lon="5.50554">
        <ele>367</ele>
        <time>2023-02-14T09:42:11.797Z</time>
      </trkpt>
      <trkpt lat="45.61528" lon="5.50552">
        <ele>367</ele>
        <time>2023-02-14T09:42:12.797Z</time>
      </trkpt>
      <trkpt lat="45.61527" lon="5.5055">
        <ele>368</ele>
        <time>2023-02-14T09:42:13.797Z</time>
      </trkpt>
      <trkpt lat="45.61525" lon="5.50548">
        <ele>368</ele>
        <time>2023-02-14T09:42:14.797Z</time>
      </trkpt>
      <trkpt lat="45.61524" lon="5.50546">
        <ele>368</ele>
        <time>2023-02-14T09:42:15.797Z</time>
      </trkpt>
      <trkpt lat="45.61522" lon="5.50544">
        <ele>368</ele>
        <time>2023-02-14T09:42:16.797Z</time>
      </trkpt>
      <trkpt lat="45.61521" lon="5.50542">
        <ele>368</ele>
        <time>2023-02-14T09:42:17.797Z</time>
      </trkpt>
      <trkpt lat="45.61519" lon="5.5054">
        <ele>368</ele>
        <time>2023-02-14T09:42:18.797Z</time>
      </trkpt>
      <trkpt lat="45.61518" lon="5.50538">
        <ele>368</ele>
        <time>2023-02-14T09:42:19.797Z</time>
      </trkpt>
      <trkpt lat="45.61516" lon="5.50536">
        <ele>369</ele>
        <time>2023-02-14T09:42:20.797Z</time>
      </trkpt>
      <trkpt lat="45.61515" lon="5.50534">
        <ele>369</ele>
        <time>2023-02-14T09:42:21.797Z</time>
      </trkpt>
      <trkpt lat="45.61513" lon="5.50532">
        <ele>369</ele>
        <time>2023-02-14T09:42:22.797Z</time>
      </trkpt>
      <trkpt lat="45.61512" lon="5.5053">
        <ele>369</ele>
        <time>2023-02-14T09:42:23.797Z</time>
      </trkpt>
      <trkpt lat="45.6151" lon="5.50528">
        <ele>369</ele>
        <time>2023-02-14T09:42:24.797Z</time>
      </trkpt>
      <trkpt lat="45.61509" lon="5.50526">
        <ele>369</ele>
        <time>2023-02-14T09:42:25.797Z</time>
      </trkpt>
      <trkpt lat="45.61507" lon="5.50524">
        <ele>369</ele>
        <time>2023-02-14T09:42:26.797Z</time>
      </trkpt>
      <trkpt lat="45.61506" lon="5.50522">
        <ele>369</ele>
        <time>2023-02-14T09:42:27.797Z</time>
      </trkpt>
      <trkpt lat="45.61504" lon="5.5052">
        <ele>370</ele>
        <time>2023-02-14T09:42:28.797Z</time>
      </trkpt>
      <trkpt lat="45.61502" lon="5.50519">
        <ele>370</ele>
        <time>2023-02-14T09:42:29.797Z</time>
      </trkpt>
      <trkpt lat="45.61501" lon="5.50517">
        <ele>370</ele>
        <time>2023-02-14T09:42:30.797Z</time>
      </trkpt>
      <trkpt lat="45.61499" lon="5.50515">
        <ele>370</ele>
        <time>2023-02-14T09:42:31.797Z</time>
      </trkpt>
      <trkpt lat="45.61498" lon="5.50513">
        <ele>370</ele>
        <time>2023-02-14T09:42:32.797Z</time>
      </trkpt>
      <trkpt lat="45.61496" lon="5.50511">
        <ele>370</ele>
        <time>2023-02-14T09:42:33.797Z</time>
      </trkpt>
      <trkpt lat="45.61495" lon="5.50509">
        <ele>370</ele>
        <time>2023-02-14T09:42:34.797Z</time>
      </trkpt>
      <trkpt lat="45.61493" lon="5.50507">
        <ele>370</ele>
        <time>2023-02-14T09:42:35.797Z</time>
      </trkpt>
      <trkpt lat="45.61491" lon="5.50505">
        <ele>371</ele>
        <time>2023-02-14T09:42:36.797Z</time>
      </trkpt>
      <trkpt lat="45.6149" lon="5.50503">
        <ele>371</ele>
        <time>2023-02-14T09:42:37.797Z</time>
      </trkpt>
      <trkpt lat="45.61488" lon="5.50501">
        <ele>371</ele>
        <time>2023-02-14T09:42:38.797Z</time>
      </trkpt>
      <trkpt lat="45.61487" lon="5.50499">
        <ele>371</ele>
        <time>2023-02-14T09:42:39.797Z</time>
      </trkpt>
      <trkpt lat="45.61485" lon="5.50497">
        <ele>371</ele>
        <time>2023-02-14T09:42:40.797Z</time>
      </trkpt>
      <trkpt lat="45.61484" lon="5.50495">
        <ele>371</ele>
        <time>2023-02-14T09:42:41.797Z</time>
      </trkpt>
      <trkpt lat="45.61482" lon="5.50493">
        <ele>371</ele>
        <time>2023-02-14T09:42:42.797Z</time>
      </trkpt>
      <trkpt lat="45.61481" lon="5.50491">
        <ele>372</ele>
        <time>2023-02-14T09:42:43.797Z</time>
      </trkpt>
      <trkpt lat="45.61479" lon="5.50489">
        <ele>372</ele>
        <time>2023-02-14T09:42:44.797Z</time>
      </trkpt>
      <trkpt lat="45.61478" lon="5.50487">
        <ele>372</ele>
        <time>2023-02-14T09:42:45.797Z</time>
      </trkpt>
      <trkpt lat="45.61476" lon="5.50485">
        <ele>372</ele>
        <time>2023-02-14T09:42:46.797Z</time>
      </trkpt>
      <trkpt lat="45.61475" lon="5.50483">
        <ele>372</ele>
        <time>2023-02-14T09:42:47.797Z</time>
      </trkpt>
      <trkpt lat="45.61473" lon="5.50481">
        <ele>372</ele>
        <time>2023-02-14T09:42:48.797Z</time>
      </trkpt>
      <trkpt lat="45.61472" lon="5.50479">
        <ele>372</ele>
        <time>2023-02-14T09:42:49.797Z</time>
      </trkpt>
      <trkpt lat="45.6147" lon="5.50477">
        <ele>372</ele>
        <time>2023-02-14T09:42:50.797Z</time>
      </trkpt>
      <trkpt lat="45.61468" lon="5.50475">
        <ele>372</ele>
        <time>2023-02-14T09:42:51.797Z</time>
      </trkpt>
      <trkpt lat="45.61467" lon="5.50473">
        <ele>373</ele>
        <time>2023-02-14T09:42:52.797Z</time>
      </trkpt>
      <trkpt lat="45.61465" lon="5.50471">
        <ele>373</ele>
        <time>2023-02-14T09:42:53.797Z</time>
      </trkpt>
      <trkpt lat="45.61463" lon="5.50468">
        <ele>373</ele>
        <time>2023-02-14T09:42:54.797Z</time>
      </trkpt>
      <trkpt lat="45.61461" lon="5.50466">
        <ele>373</ele>
        <time>2023-02-14T09:42:55.797Z</time>
      </trkpt>
      <trkpt lat="45.6146" lon="5.50464">
        <ele>373</ele>
        <time>2023-02-14T09:42:56.797Z</time>
      </trkpt>
      <trkpt lat="45.61458" lon="5.50462">
        <ele>373</ele>
        <time>2023-02-14T09:42:57.797Z</time>
      </trkpt>
      <trkpt lat="45.61457" lon="5.5046">
        <ele>373</ele>
        <time>2023-02-14T09:42:58.797Z</time>
      </trkpt>
      <trkpt lat="45.61455" lon="5.50458">
        <ele>373</ele>
        <time>2023-02-14T09:42:59.797Z</time>
      </trkpt>
      <trkpt lat="45.61453" lon="5.50455">
        <ele>373</ele>
        <time>2023-02-14T09:43:00.797Z</time>
      </trkpt>
      <trkpt lat="45.61451" lon="5.50453">
        <ele>374</ele>
        <time>2023-02-14T09:43:01.797Z</time>
      </trkpt>
      <trkpt lat="45.61449" lon="5.50451">
        <ele>374</ele>
        <time>2023-02-14T09:43:02.797Z</time>
      </trkpt>
      <trkpt lat="45.61448" lon="5.50449">
        <ele>374</ele>
        <time>2023-02-14T09:43:03.797Z</time>
      </trkpt>
      <trkpt lat="45.61446" lon="5.50447">
        <ele>374</ele>
        <time>2023-02-14T09:43:04.797Z</time>
      </trkpt>
      <trkpt lat="45.61444" lon="5.50444">
        <ele>374</ele>
        <time>2023-02-14T09:43:05.797Z</time>
      </trkpt>
      <trkpt lat="45.61442" lon="5.50442">
        <ele>374</ele>
        <time>2023-02-14T09:43:06.797Z</time>
      </trkpt>
      <trkpt lat="45.6144" lon="5.5044">
        <ele>374</ele>
        <time>2023-02-14T09:43:07.797Z</time>
      </trkpt>
      <trkpt lat="45.61438" lon="5.50438">
        <ele>374</ele>
        <time>2023-02-14T09:43:08.797Z</time>
      </trkpt>
      <trkpt lat="45.61436" lon="5.50435">
        <ele>374</ele>
        <time>2023-02-14T09:43:09.797Z</time>
      </trkpt>
      <trkpt lat="45.61435" lon="5.50433">
        <ele>375</ele>
        <time>2023-02-14T09:43:10.797Z</time>
      </trkpt>
      <trkpt lat="45.61433" lon="5.50431">
        <ele>375</ele>
        <time>2023-02-14T09:43:11.797Z</time>
      </trkpt>
      <trkpt lat="45.61431" lon="5.50428">
        <ele>375</ele>
        <time>2023-02-14T09:43:12.797Z</time>
      </trkpt>
      <trkpt lat="45.61429" lon="5.50426">
        <ele>375</ele>
        <time>2023-02-14T09:43:13.797Z</time>
      </trkpt>
      <trkpt lat="45.61428" lon="5.50424">
        <ele>376</ele>
        <time>2023-02-14T09:43:14.797Z</time>
      </trkpt>
      <trkpt lat="45.61426" lon="5.50422">
        <ele>376</ele>
        <time>2023-02-14T09:43:15.797Z</time>
      </trkpt>
      <trkpt lat="45.61424" lon="5.50419">
        <ele>376</ele>
        <time>2023-02-14T09:43:16.797Z</time>
      </trkpt>
      <trkpt lat="45.61422" lon="5.50416">
        <ele>376</ele>
        <time>2023-02-14T09:43:17.797Z</time>
      </trkpt>
      <trkpt lat="45.61421" lon="5.50413">
        <ele>376</ele>
        <time>2023-02-14T09:43:18.797Z</time>
      </trkpt>
      <trkpt lat="45.6142" lon="5.5041">
        <ele>376</ele>
        <time>2023-02-14T09:43:19.797Z</time>
      </trkpt>
      <trkpt lat="45.61418" lon="5.50407">
        <ele>376</ele>
        <time>2023-02-14T09:43:20.797Z</time>
      </trkpt>
      <trkpt lat="45.61417" lon="5.50404">
        <ele>377</ele>
        <time>2023-02-14T09:43:21.797Z</time>
      </trkpt>
      <trkpt lat="45.61416" lon="5.50401">
        <ele>377</ele>
        <time>2023-02-14T09:43:22.797Z</time>
      </trkpt>
      <trkpt lat="45.61415" lon="5.50398">
        <ele>377</ele>
        <time>2023-02-14T09:43:23.797Z</time>
      </trkpt>
      <trkpt lat="45.61413" lon="5.50395">
        <ele>377</ele>
        <time>2023-02-14T09:43:24.797Z</time>
      </trkpt>
      <trkpt lat="45.61412" lon="5.50392">
        <ele>378</ele>
        <time>2023-02-14T09:43:25.797Z</time>
      </trkpt>
      <trkpt lat="45.61411" lon="5.50389">
        <ele>378</ele>
        <time>2023-02-14T09:43:26.797Z</time>
      </trkpt>
      <trkpt lat="45.6141" lon="5.50386">
        <ele>378</ele>
        <time>2023-02-14T09:43:27.797Z</time>
      </trkpt>
      <trkpt lat="45.61409" lon="5.50383">
        <ele>378</ele>
        <time>2023-02-14T09:43:28.797Z</time>
      </trkpt>
      <trkpt lat="45.61408" lon="5.5038">
        <ele>378</ele>
        <time>2023-02-14T09:43:29.797Z</time>
      </trkpt>
      <trkpt lat="45.61407" lon="5.50377">
        <ele>378</ele>
        <time>2023-02-14T09:43:30.797Z</time>
      </trkpt>
      <trkpt lat="45.61406" lon="5.50374">
        <ele>379</ele>
        <time>2023-02-14T09:43:31.797Z</time>
      </trkpt>
      <trkpt lat="45.61405" lon="5.50371">
        <ele>379</ele>
        <time>2023-02-14T09:43:32.797Z</time>
      </trkpt>
      <trkpt lat="45.61404" lon="5.50368">
        <ele>379</ele>
        <time>2023-02-14T09:43:33.797Z</time>
      </trkpt>
      <trkpt lat="45.61404" lon="5.50364">
        <ele>379</ele>
        <time>2023-02-14T09:43:34.797Z</time>
      </trkpt>
      <trkpt lat="45.61403" lon="5.50361">
        <ele>379</ele>
        <time>2023-02-14T09:43:35.797Z</time>
      </trkpt>
      <trkpt lat="45.61402" lon="5.50358">
        <ele>379</ele>
        <time>2023-02-14T09:43:36.797Z</time>
      </trkpt>
      <trkpt lat="45.61401" lon="5.50355">
        <ele>379</ele>
        <time>2023-02-14T09:43:37.797Z</time>
      </trkpt>
      <trkpt lat="45.61401" lon="5.50352">
        <ele>379</ele>
        <time>2023-02-14T09:43:38.797Z</time>
      </trkpt>
      <trkpt lat="45.614" lon="5.50348">
        <ele>379</ele>
        <time>2023-02-14T09:43:39.797Z</time>
      </trkpt>
      <trkpt lat="45.614" lon="5.50345">
        <ele>379</ele>
        <time>2023-02-14T09:43:40.797Z</time>
      </trkpt>
      <trkpt lat="45.61399" lon="5.50342">
        <ele>380</ele>
        <time>2023-02-14T09:43:41.797Z</time>
      </trkpt>
      <trkpt lat="45.61398" lon="5.50339">
        <ele>380</ele>
        <time>2023-02-14T09:43:42.797Z</time>
      </trkpt>
      <trkpt lat="45.61398" lon="5.50336">
        <ele>380</ele>
        <time>2023-02-14T09:43:43.797Z</time>
      </trkpt>
      <trkpt lat="45.61397" lon="5.50332">
        <ele>380</ele>
        <time>2023-02-14T09:43:44.797Z</time>
      </trkpt>
      <trkpt lat="45.61397" lon="5.50329">
        <ele>380</ele>
        <time>2023-02-14T09:43:45.797Z</time>
      </trkpt>
      <trkpt lat="45.61396" lon="5.50326">
        <ele>380</ele>
        <time>2023-02-14T09:43:46.797Z</time>
      </trkpt>
      <trkpt lat="45.61395" lon="5.50323">
        <ele>380</ele>
        <time>2023-02-14T09:43:47.797Z</time>
      </trkpt>
      <trkpt lat="45.61395" lon="5.50319">
        <ele>380</ele>
        <time>2023-02-14T09:43:48.797Z</time>
      </trkpt>
      <trkpt lat="45.61394" lon="5.50316">
        <ele>380</ele>
        <time>2023-02-14T09:43:49.797Z</time>
      </trkpt>
      <trkpt lat="45.61393" lon="5.50313">
        <ele>381</ele>
        <time>2023-02-14T09:43:50.797Z</time>
      </trkpt>
      <trkpt lat="45.61393" lon="5.50309">
        <ele>381</ele>
        <time>2023-02-14T09:43:51.797Z</time>
      </trkpt>
      <trkpt lat="45.61392" lon="5.50306">
        <ele>381</ele>
        <time>2023-02-14T09:43:52.797Z</time>
      </trkpt>
      <trkpt lat="45.61391" lon="5.50302">
        <ele>381</ele>
        <time>2023-02-14T09:43:53.797Z</time>
      </trkpt>
      <trkpt lat="45.61391" lon="5.50299">
        <ele>381</ele>
        <time>2023-02-14T09:43:54.797Z</time>
      </trkpt>
      <trkpt lat="45.6139" lon="5.50295">
        <ele>381</ele>
        <time>2023-02-14T09:43:55.797Z</time>
      </trkpt>
      <trkpt lat="45.6139" lon="5.50292">
        <ele>381</ele>
        <time>2023-02-14T09:43:56.797Z</time>
      </trkpt>
      <trkpt lat="45.61389" lon="5.50288">
        <ele>381</ele>
        <time>2023-02-14T09:43:57.797Z</time>
      </trkpt>
      <trkpt lat="45.61389" lon="5.50284">
        <ele>381</ele>
        <time>2023-02-14T09:43:58.797Z</time>
      </trkpt>
      <trkpt lat="45.61388" lon="5.50281">
        <ele>381</ele>
        <time>2023-02-14T09:43:59.797Z</time>
      </trkpt>
      <trkpt lat="45.61388" lon="5.50277">
        <ele>381</ele>
        <time>2023-02-14T09:44:00.797Z</time>
      </trkpt>
      <trkpt lat="45.61387" lon="5.50273">
        <ele>381</ele>
        <time>2023-02-14T09:44:01.797Z</time>
      </trkpt>
      <trkpt lat="45.61386" lon="5.5027">
        <ele>381</ele>
        <time>2023-02-14T09:44:02.797Z</time>
      </trkpt>
      <trkpt lat="45.61386" lon="5.50266">
        <ele>381</ele>
        <time>2023-02-14T09:44:03.797Z</time>
      </trkpt>
      <trkpt lat="45.61385" lon="5.50262">
        <ele>381</ele>
        <time>2023-02-14T09:44:04.797Z</time>
      </trkpt>
      <trkpt lat="45.61384" lon="5.50258">
        <ele>381</ele>
        <time>2023-02-14T09:44:05.797Z</time>
      </trkpt>
      <trkpt lat="45.61383" lon="5.50255">
        <ele>381</ele>
        <time>2023-02-14T09:44:06.797Z</time>
      </trkpt>
      <trkpt lat="45.61382" lon="5.50251">
        <ele>381</ele>
        <time>2023-02-14T09:44:07.797Z</time>
      </trkpt>
      <trkpt lat="45.61381" lon="5.50248">
        <ele>381</ele>
        <time>2023-02-14T09:44:08.797Z</time>
      </trkpt>
      <trkpt lat="45.6138" lon="5.50244">
        <ele>381</ele>
        <time>2023-02-14T09:44:09.797Z</time>
      </trkpt>
      <trkpt lat="45.61379" lon="5.50241">
        <ele>381</ele>
        <time>2023-02-14T09:44:10.797Z</time>
      </trkpt>
      <trkpt lat="45.61378" lon="5.50237">
        <ele>381</ele>
        <time>2023-02-14T09:44:11.797Z</time>
      </trkpt>
      <trkpt lat="45.61376" lon="5.50234">
        <ele>381</ele>
        <time>2023-02-14T09:44:12.797Z</time>
      </trkpt>
      <trkpt lat="45.61375" lon="5.5023">
        <ele>381</ele>
        <time>2023-02-14T09:44:13.797Z</time>
      </trkpt>
      <trkpt lat="45.61373" lon="5.50227">
        <ele>381</ele>
        <time>2023-02-14T09:44:14.797Z</time>
      </trkpt>
      <trkpt lat="45.61372" lon="5.50224">
        <ele>381</ele>
        <time>2023-02-14T09:44:15.797Z</time>
      </trkpt>
      <trkpt lat="45.6137" lon="5.50221">
        <ele>381</ele>
        <time>2023-02-14T09:44:16.797Z</time>
      </trkpt>
      <trkpt lat="45.61368" lon="5.50218">
        <ele>381</ele>
        <time>2023-02-14T09:44:17.797Z</time>
      </trkpt>
      <trkpt lat="45.61365" lon="5.50216">
        <ele>381</ele>
        <time>2023-02-14T09:44:18.797Z</time>
      </trkpt>
      <trkpt lat="45.61363" lon="5.50214">
        <ele>381</ele>
        <time>2023-02-14T09:44:19.797Z</time>
      </trkpt>
      <trkpt lat="45.61361" lon="5.50212">
        <ele>381</ele>
        <time>2023-02-14T09:44:20.797Z</time>
      </trkpt>
      <trkpt lat="45.61359" lon="5.5021">
        <ele>381</ele>
        <time>2023-02-14T09:44:21.797Z</time>
      </trkpt>
      <trkpt lat="45.61357" lon="5.50209">
        <ele>381</ele>
        <time>2023-02-14T09:44:22.797Z</time>
      </trkpt>
      <trkpt lat="45.61355" lon="5.50208">
        <ele>381</ele>
        <time>2023-02-14T09:44:23.797Z</time>
      </trkpt>
      <trkpt lat="45.61353" lon="5.50207">
        <ele>381</ele>
        <time>2023-02-14T09:44:24.797Z</time>
      </trkpt>
      <trkpt lat="45.61351" lon="5.50206">
        <ele>381</ele>
        <time>2023-02-14T09:44:25.797Z</time>
      </trkpt>
      <trkpt lat="45.61349" lon="5.50206">
        <ele>380</ele>
        <time>2023-02-14T09:44:26.797Z</time>
      </trkpt>
      <trkpt lat="45.61347" lon="5.50208">
        <ele>380</ele>
        <time>2023-02-14T09:44:27.797Z</time>
      </trkpt>
      <trkpt lat="45.61344" lon="5.50209">
        <ele>379</ele>
        <time>2023-02-14T09:44:28.797Z</time>
      </trkpt>
      <trkpt lat="45.61342" lon="5.50212">
        <ele>379</ele>
        <time>2023-02-14T09:44:29.797Z</time>
      </trkpt>
      <trkpt lat="45.61339" lon="5.50214">
        <ele>379</ele>
        <time>2023-02-14T09:44:30.797Z</time>
      </trkpt>
      <trkpt lat="45.61336" lon="5.50215">
        <ele>378</ele>
        <time>2023-02-14T09:44:31.797Z</time>
      </trkpt>
      <trkpt lat="45.61333" lon="5.50216">
        <ele>379</ele>
        <time>2023-02-14T09:44:32.797Z</time>
      </trkpt>
      <trkpt lat="45.6133" lon="5.50217">
        <ele>379</ele>
        <time>2023-02-14T09:44:33.797Z</time>
      </trkpt>
      <trkpt lat="45.61327" lon="5.50218">
        <ele>379</ele>
        <time>2023-02-14T09:44:34.797Z</time>
      </trkpt>
      <trkpt lat="45.61324" lon="5.5022">
        <ele>379</ele>
        <time>2023-02-14T09:44:35.797Z</time>
      </trkpt>
      <trkpt lat="45.61321" lon="5.50221">
        <ele>379</ele>
        <time>2023-02-14T09:44:36.797Z</time>
      </trkpt>
      <trkpt lat="45.61318" lon="5.50224">
        <ele>380</ele>
        <time>2023-02-14T09:44:37.797Z</time>
      </trkpt>
      <trkpt lat="45.61316" lon="5.50227">
        <ele>380</ele>
        <time>2023-02-14T09:44:38.797Z</time>
      </trkpt>
      <trkpt lat="45.61315" lon="5.5023">
        <ele>379</ele>
        <time>2023-02-14T09:44:39.797Z</time>
      </trkpt>
      <trkpt lat="45.61313" lon="5.50233">
        <ele>379</ele>
        <time>2023-02-14T09:44:40.797Z</time>
      </trkpt>
      <trkpt lat="45.61312" lon="5.50236">
        <ele>379</ele>
        <time>2023-02-14T09:44:41.797Z</time>
      </trkpt>
      <trkpt lat="45.6131" lon="5.50239">
        <ele>379</ele>
        <time>2023-02-14T09:44:42.797Z</time>
      </trkpt>
      <trkpt lat="45.61308" lon="5.50242">
        <ele>379</ele>
        <time>2023-02-14T09:44:43.797Z</time>
      </trkpt>
      <trkpt lat="45.61305" lon="5.50245">
        <ele>380</ele>
        <time>2023-02-14T09:44:44.797Z</time>
      </trkpt>
      <trkpt lat="45.61303" lon="5.50248">
        <ele>380</ele>
        <time>2023-02-14T09:44:45.797Z</time>
      </trkpt>
      <trkpt lat="45.61301" lon="5.50252">
        <ele>380</ele>
        <time>2023-02-14T09:44:46.797Z</time>
      </trkpt>
      <trkpt lat="45.61298" lon="5.50256">
        <ele>380</ele>
        <time>2023-02-14T09:44:47.797Z</time>
      </trkpt>
      <trkpt lat="45.61296" lon="5.50259">
        <ele>380</ele>
        <time>2023-02-14T09:44:48.797Z</time>
      </trkpt>
      <trkpt lat="45.61294" lon="5.50263">
        <ele>380</ele>
        <time>2023-02-14T09:44:49.797Z</time>
      </trkpt>
      <trkpt lat="45.61292" lon="5.50268">
        <ele>380</ele>
        <time>2023-02-14T09:44:50.797Z</time>
      </trkpt>
      <trkpt lat="45.6129" lon="5.50272">
        <ele>380</ele>
        <time>2023-02-14T09:44:51.797Z</time>
      </trkpt>
      <trkpt lat="45.61289" lon="5.50276">
        <ele>379</ele>
        <time>2023-02-14T09:44:52.797Z</time>
      </trkpt>
      <trkpt lat="45.61287" lon="5.50281">
        <ele>379</ele>
        <time>2023-02-14T09:44:53.797Z</time>
      </trkpt>
      <trkpt lat="45.61286" lon="5.50286">
        <ele>379</ele>
        <time>2023-02-14T09:44:54.797Z</time>
      </trkpt>
      <trkpt lat="45.61284" lon="5.5029">
        <ele>379</ele>
        <time>2023-02-14T09:44:55.797Z</time>
      </trkpt>
      <trkpt lat="45.61283" lon="5.50295">
        <ele>379</ele>
        <time>2023-02-14T09:44:56.797Z</time>
      </trkpt>
      <trkpt lat="45.61281" lon="5.503">
        <ele>379</ele>
        <time>2023-02-14T09:44:57.797Z</time>
      </trkpt>
      <trkpt lat="45.61279" lon="5.50305">
        <ele>379</ele>
        <time>2023-02-14T09:44:58.797Z</time>
      </trkpt>
      <trkpt lat="45.61278" lon="5.50309">
        <ele>379</ele>
        <time>2023-02-14T09:44:59.797Z</time>
      </trkpt>
      <trkpt lat="45.61276" lon="5.50314">
        <ele>379</ele>
        <time>2023-02-14T09:45:00.797Z</time>
      </trkpt>
      <trkpt lat="45.61275" lon="5.50319">
        <ele>378</ele>
        <time>2023-02-14T09:45:01.797Z</time>
      </trkpt>
      <trkpt lat="45.61273" lon="5.50323">
        <ele>377</ele>
        <time>2023-02-14T09:45:02.797Z</time>
      </trkpt>
      <trkpt lat="45.61272" lon="5.50328">
        <ele>377</ele>
        <time>2023-02-14T09:45:03.797Z</time>
      </trkpt>
      <trkpt lat="45.6127" lon="5.50332">
        <ele>377</ele>
        <time>2023-02-14T09:45:04.797Z</time>
      </trkpt>
      <trkpt lat="45.61268" lon="5.50337">
        <ele>377</ele>
        <time>2023-02-14T09:45:05.797Z</time>
      </trkpt>
      <trkpt lat="45.61267" lon="5.50342">
        <ele>377</ele>
        <time>2023-02-14T09:45:06.797Z</time>
      </trkpt>
      <trkpt lat="45.61265" lon="5.50347">
        <ele>377</ele>
        <time>2023-02-14T09:45:07.797Z</time>
      </trkpt>
      <trkpt lat="45.61263" lon="5.50352">
        <ele>377</ele>
        <time>2023-02-14T09:45:08.797Z</time>
      </trkpt>
      <trkpt lat="45.61261" lon="5.50358">
        <ele>377</ele>
        <time>2023-02-14T09:45:09.797Z</time>
      </trkpt>
      <trkpt lat="45.61259" lon="5.50363">
        <ele>377</ele>
        <time>2023-02-14T09:45:10.797Z</time>
      </trkpt>
      <trkpt lat="45.61257" lon="5.50368">
        <ele>377</ele>
        <time>2023-02-14T09:45:11.797Z</time>
      </trkpt>
      <trkpt lat="45.61255" lon="5.50374">
        <ele>377</ele>
        <time>2023-02-14T09:45:12.797Z</time>
      </trkpt>
      <trkpt lat="45.61253" lon="5.5038">
        <ele>377</ele>
        <time>2023-02-14T09:45:13.797Z</time>
      </trkpt>
      <trkpt lat="45.61251" lon="5.50386">
        <ele>377</ele>
        <time>2023-02-14T09:45:14.797Z</time>
      </trkpt>
      <trkpt lat="45.61249" lon="5.50392">
        <ele>377</ele>
        <time>2023-02-14T09:45:15.797Z</time>
      </trkpt>
      <trkpt lat="45.61247" lon="5.50398">
        <ele>377</ele>
        <time>2023-02-14T09:45:16.797Z</time>
      </trkpt>
      <trkpt lat="45.61245" lon="5.50404">
        <ele>377</ele>
        <time>2023-02-14T09:45:17.797Z</time>
      </trkpt>
      <trkpt lat="45.61244" lon="5.50409">
        <ele>377</ele>
        <time>2023-02-14T09:45:18.797Z</time>
      </trkpt>
      <trkpt lat="45.61242" lon="5.50414">
        <ele>376</ele>
        <time>2023-02-14T09:45:19.797Z</time>
      </trkpt>
      <trkpt lat="45.6124" lon="5.5042">
        <ele>376</ele>
        <time>2023-02-14T09:45:20.797Z</time>
      </trkpt>
      <trkpt lat="45.61237" lon="5.50425">
        <ele>376</ele>
        <time>2023-02-14T09:45:21.797Z</time>
      </trkpt>
      <trkpt lat="45.61235" lon="5.50429">
        <ele>376</ele>
        <time>2023-02-14T09:45:22.797Z</time>
      </trkpt>
      <trkpt lat="45.61233" lon="5.50433">
        <ele>376</ele>
        <time>2023-02-14T09:45:23.797Z</time>
      </trkpt>
      <trkpt lat="45.61232" lon="5.50438">
        <ele>375</ele>
        <time>2023-02-14T09:45:24.797Z</time>
      </trkpt>
      <trkpt lat="45.6123" lon="5.50442">
        <ele>375</ele>
        <time>2023-02-14T09:45:25.797Z</time>
      </trkpt>
      <trkpt lat="45.61229" lon="5.50446">
        <ele>375</ele>
        <time>2023-02-14T09:45:26.797Z</time>
      </trkpt>
      <trkpt lat="45.61228" lon="5.50451">
        <ele>375</ele>
        <time>2023-02-14T09:45:27.797Z</time>
      </trkpt>
      <trkpt lat="45.61226" lon="5.50455">
        <ele>374</ele>
        <time>2023-02-14T09:45:28.797Z</time>
      </trkpt>
      <trkpt lat="45.61223" lon="5.5046">
        <ele>373</ele>
        <time>2023-02-14T09:45:29.797Z</time>
      </trkpt>
      <trkpt lat="45.61221" lon="5.50464">
        <ele>373</ele>
        <time>2023-02-14T09:45:30.797Z</time>
      </trkpt>
      <trkpt lat="45.61217" lon="5.50468">
        <ele>373</ele>
        <time>2023-02-14T09:45:31.797Z</time>
      </trkpt>
      <trkpt lat="45.61214" lon="5.50472">
        <ele>373</ele>
        <time>2023-02-14T09:45:32.797Z</time>
      </trkpt>
      <trkpt lat="45.6121" lon="5.50477">
        <ele>372</ele>
        <time>2023-02-14T09:45:33.797Z</time>
      </trkpt>
      <trkpt lat="45.61207" lon="5.50481">
        <ele>372</ele>
        <time>2023-02-14T09:45:34.797Z</time>
      </trkpt>
      <trkpt lat="45.61205" lon="5.50486">
        <ele>372</ele>
        <time>2023-02-14T09:45:35.797Z</time>
      </trkpt>
      <trkpt lat="45.61202" lon="5.5049">
        <ele>372</ele>
        <time>2023-02-14T09:45:36.797Z</time>
      </trkpt>
      <trkpt lat="45.612" lon="5.50495">
        <ele>372</ele>
        <time>2023-02-14T09:45:37.797Z</time>
      </trkpt>
      <trkpt lat="45.61197" lon="5.505">
        <ele>372</ele>
        <time>2023-02-14T09:45:38.797Z</time>
      </trkpt>
      <trkpt lat="45.61195" lon="5.50505">
        <ele>372</ele>
        <time>2023-02-14T09:45:39.797Z</time>
      </trkpt>
      <trkpt lat="45.61193" lon="5.5051">
        <ele>372</ele>
        <time>2023-02-14T09:45:40.797Z</time>
      </trkpt>
      <trkpt lat="45.6119" lon="5.50514">
        <ele>372</ele>
        <time>2023-02-14T09:45:41.797Z</time>
      </trkpt>
      <trkpt lat="45.61188" lon="5.50519">
        <ele>372</ele>
        <time>2023-02-14T09:45:42.797Z</time>
      </trkpt>
      <trkpt lat="45.61185" lon="5.50524">
        <ele>372</ele>
        <time>2023-02-14T09:45:43.797Z</time>
      </trkpt>
      <trkpt lat="45.61183" lon="5.50528">
        <ele>372</ele>
        <time>2023-02-14T09:45:44.797Z</time>
      </trkpt>
      <trkpt lat="45.6118" lon="5.50533">
        <ele>372</ele>
        <time>2023-02-14T09:45:45.797Z</time>
      </trkpt>
      <trkpt lat="45.61178" lon="5.50537">
        <ele>372</ele>
        <time>2023-02-14T09:45:46.797Z</time>
      </trkpt>
      <trkpt lat="45.61176" lon="5.50541">
        <ele>372</ele>
        <time>2023-02-14T09:45:47.797Z</time>
      </trkpt>
      <trkpt lat="45.61174" lon="5.50544">
        <ele>372</ele>
        <time>2023-02-14T09:45:48.797Z</time>
      </trkpt>
      <trkpt lat="45.61172" lon="5.50546">
        <ele>371</ele>
        <time>2023-02-14T09:45:49.797Z</time>
      </trkpt>
      <trkpt lat="45.61169" lon="5.50548">
        <ele>371</ele>
        <time>2023-02-14T09:45:50.797Z</time>
      </trkpt>
      <trkpt lat="45.61166" lon="5.50549">
        <ele>371</ele>
        <time>2023-02-14T09:45:51.797Z</time>
      </trkpt>
      <trkpt lat="45.61162" lon="5.50549">
        <ele>371</ele>
        <time>2023-02-14T09:45:52.797Z</time>
      </trkpt>
      <trkpt lat="45.61158" lon="5.50548">
        <ele>372</ele>
        <time>2023-02-14T09:45:53.797Z</time>
      </trkpt>
      <trkpt lat="45.61155" lon="5.50547">
        <ele>372</ele>
        <time>2023-02-14T09:45:54.797Z</time>
      </trkpt>
      <trkpt lat="45.61151" lon="5.50546">
        <ele>372</ele>
        <time>2023-02-14T09:45:55.797Z</time>
      </trkpt>
      <trkpt lat="45.61149" lon="5.50545">
        <ele>372</ele>
        <time>2023-02-14T09:45:56.797Z</time>
      </trkpt>
      <trkpt lat="45.61146" lon="5.50544">
        <ele>373</ele>
        <time>2023-02-14T09:45:57.797Z</time>
      </trkpt>
      <trkpt lat="45.61143" lon="5.50542">
        <ele>373</ele>
        <time>2023-02-14T09:45:58.797Z</time>
      </trkpt>
      <trkpt lat="45.61141" lon="5.50541">
        <ele>373</ele>
        <time>2023-02-14T09:45:59.797Z</time>
      </trkpt>
      <trkpt lat="45.61139" lon="5.5054">
        <ele>373</ele>
        <time>2023-02-14T09:46:00.797Z</time>
      </trkpt>
      <trkpt lat="45.61137" lon="5.50539">
        <ele>374</ele>
        <time>2023-02-14T09:46:01.797Z</time>
      </trkpt>
      <trkpt lat="45.61135" lon="5.50538">
        <ele>374</ele>
        <time>2023-02-14T09:46:02.797Z</time>
      </trkpt>
      <trkpt lat="45.61133" lon="5.50537">
        <ele>374</ele>
        <time>2023-02-14T09:46:03.797Z</time>
      </trkpt>
      <trkpt lat="45.6113" lon="5.50536">
        <ele>374</ele>
        <time>2023-02-14T09:46:04.797Z</time>
      </trkpt>
      <trkpt lat="45.61128" lon="5.50535">
        <ele>375</ele>
        <time>2023-02-14T09:46:05.797Z</time>
      </trkpt>
      <trkpt lat="45.61126" lon="5.50534">
        <ele>375</ele>
        <time>2023-02-14T09:46:06.797Z</time>
      </trkpt>
      <trkpt lat="45.61124" lon="5.50533">
        <ele>375</ele>
        <time>2023-02-14T09:46:07.797Z</time>
      </trkpt>
      <trkpt lat="45.61122" lon="5.50532">
        <ele>375</ele>
        <time>2023-02-14T09:46:08.797Z</time>
      </trkpt>
      <trkpt lat="45.6112" lon="5.50531">
        <ele>376</ele>
        <time>2023-02-14T09:46:09.797Z</time>
      </trkpt>
      <trkpt lat="45.61119" lon="5.5053">
        <ele>376</ele>
        <time>2023-02-14T09:46:10.797Z</time>
      </trkpt>
      <trkpt lat="45.61117" lon="5.50529">
        <ele>376</ele>
        <time>2023-02-14T09:46:11.797Z</time>
      </trkpt>
      <trkpt lat="45.61115" lon="5.50527">
        <ele>376</ele>
        <time>2023-02-14T09:46:12.797Z</time>
      </trkpt>
      <trkpt lat="45.61113" lon="5.50526">
        <ele>376</ele>
        <time>2023-02-14T09:46:13.797Z</time>
      </trkpt>
      <trkpt lat="45.61112" lon="5.50525">
        <ele>377</ele>
        <time>2023-02-14T09:46:14.797Z</time>
      </trkpt>
      <trkpt lat="45.6111" lon="5.50524">
        <ele>377</ele>
        <time>2023-02-14T09:46:15.797Z</time>
      </trkpt>
      <trkpt lat="45.61108" lon="5.50523">
        <ele>377</ele>
        <time>2023-02-14T09:46:16.797Z</time>
      </trkpt>
      <trkpt lat="45.61106" lon="5.50521">
        <ele>377</ele>
        <time>2023-02-14T09:46:17.797Z</time>
      </trkpt>
      <trkpt lat="45.61104" lon="5.50519">
        <ele>377</ele>
        <time>2023-02-14T09:46:18.797Z</time>
      </trkpt>
      <trkpt lat="45.61103" lon="5.50518">
        <ele>377</ele>
        <time>2023-02-14T09:46:19.797Z</time>
      </trkpt>
      <trkpt lat="45.61101" lon="5.50516">
        <ele>377</ele>
        <time>2023-02-14T09:46:20.797Z</time>
      </trkpt>
      <trkpt lat="45.61099" lon="5.50515">
        <ele>377</ele>
        <time>2023-02-14T09:46:21.797Z</time>
      </trkpt>
      <trkpt lat="45.61097" lon="5.50513">
        <ele>377</ele>
        <time>2023-02-14T09:46:22.797Z</time>
      </trkpt>
      <trkpt lat="45.61096" lon="5.50512">
        <ele>377</ele>
        <time>2023-02-14T09:46:23.797Z</time>
      </trkpt>
      <trkpt lat="45.61094" lon="5.5051">
        <ele>378</ele>
        <time>2023-02-14T09:46:24.797Z</time>
      </trkpt>
      <trkpt lat="45.61092" lon="5.50508">
        <ele>378</ele>
        <time>2023-02-14T09:46:25.797Z</time>
      </trkpt>
      <trkpt lat="45.61091" lon="5.50506">
        <ele>378</ele>
        <time>2023-02-14T09:46:26.797Z</time>
      </trkpt>
      <trkpt lat="45.61089" lon="5.50504">
        <ele>378</ele>
        <time>2023-02-14T09:46:27.797Z</time>
      </trkpt>
      <trkpt lat="45.61088" lon="5.50502">
        <ele>378</ele>
        <time>2023-02-14T09:46:28.797Z</time>
      </trkpt>
      <trkpt lat="45.61087" lon="5.505">
        <ele>378</ele>
        <time>2023-02-14T09:46:29.797Z</time>
      </trkpt>
      <trkpt lat="45.61085" lon="5.50498">
        <ele>378</ele>
        <time>2023-02-14T09:46:30.797Z</time>
      </trkpt>
      <trkpt lat="45.61083" lon="5.50497">
        <ele>379</ele>
        <time>2023-02-14T09:46:31.797Z</time>
      </trkpt>
      <trkpt lat="45.61082" lon="5.50495">
        <ele>379</ele>
        <time>2023-02-14T09:46:32.797Z</time>
      </trkpt>
      <trkpt lat="45.6108" lon="5.50493">
        <ele>379</ele>
        <time>2023-02-14T09:46:33.797Z</time>
      </trkpt>
      <trkpt lat="45.61079" lon="5.50491">
        <ele>379</ele>
        <time>2023-02-14T09:46:34.797Z</time>
      </trkpt>
      <trkpt lat="45.61077" lon="5.50489">
        <ele>379</ele>
        <time>2023-02-14T09:46:35.797Z</time>
      </trkpt>
      <trkpt lat="45.61076" lon="5.50487">
        <ele>379</ele>
        <time>2023-02-14T09:46:36.797Z</time>
      </trkpt>
      <trkpt lat="45.61074" lon="5.50485">
        <ele>380</ele>
        <time>2023-02-14T09:46:37.797Z</time>
      </trkpt>
      <trkpt lat="45.61073" lon="5.50483">
        <ele>380</ele>
        <time>2023-02-14T09:46:38.797Z</time>
      </trkpt>
      <trkpt lat="45.61071" lon="5.50481">
        <ele>380</ele>
        <time>2023-02-14T09:46:39.797Z</time>
      </trkpt>
      <trkpt lat="45.6107" lon="5.50479">
        <ele>380</ele>
        <time>2023-02-14T09:46:40.797Z</time>
      </trkpt>
      <trkpt lat="45.61068" lon="5.50477">
        <ele>380</ele>
        <time>2023-02-14T09:46:41.797Z</time>
      </trkpt>
      <trkpt lat="45.61067" lon="5.50474">
        <ele>381</ele>
        <time>2023-02-14T09:46:42.797Z</time>
      </trkpt>
      <trkpt lat="45.61065" lon="5.50472">
        <ele>381</ele>
        <time>2023-02-14T09:46:43.797Z</time>
      </trkpt>
      <trkpt lat="45.61064" lon="5.5047">
        <ele>381</ele>
        <time>2023-02-14T09:46:44.797Z</time>
      </trkpt>
      <trkpt lat="45.61063" lon="5.50468">
        <ele>381</ele>
        <time>2023-02-14T09:46:45.797Z</time>
      </trkpt>
      <trkpt lat="45.61061" lon="5.50466">
        <ele>381</ele>
        <time>2023-02-14T09:46:46.797Z</time>
      </trkpt>
      <trkpt lat="45.6106" lon="5.50463">
        <ele>381</ele>
        <time>2023-02-14T09:46:47.797Z</time>
      </trkpt>
      <trkpt lat="45.61059" lon="5.50461">
        <ele>381</ele>
        <time>2023-02-14T09:46:48.797Z</time>
      </trkpt>
      <trkpt lat="45.61058" lon="5.50458">
        <ele>381</ele>
        <time>2023-02-14T09:46:49.797Z</time>
      </trkpt>
      <trkpt lat="45.61056" lon="5.50456">
        <ele>381</ele>
        <time>2023-02-14T09:46:50.797Z</time>
      </trkpt>
      <trkpt lat="45.61055" lon="5.50453">
        <ele>381</ele>
        <time>2023-02-14T09:46:51.797Z</time>
      </trkpt>
      <trkpt lat="45.61054" lon="5.5045">
        <ele>381</ele>
        <time>2023-02-14T09:46:52.797Z</time>
      </trkpt>
      <trkpt lat="45.61052" lon="5.50448">
        <ele>381</ele>
        <time>2023-02-14T09:46:53.797Z</time>
      </trkpt>
      <trkpt lat="45.61051" lon="5.50445">
        <ele>381</ele>
        <time>2023-02-14T09:46:54.797Z</time>
      </trkpt>
      <trkpt lat="45.6105" lon="5.50443">
        <ele>381</ele>
        <time>2023-02-14T09:46:55.797Z</time>
      </trkpt>
      <trkpt lat="45.61049" lon="5.5044">
        <ele>381</ele>
        <time>2023-02-14T09:46:56.797Z</time>
      </trkpt>
      <trkpt lat="45.61047" lon="5.50437">
        <ele>382</ele>
        <time>2023-02-14T09:46:57.797Z</time>
      </trkpt>
      <trkpt lat="45.61046" lon="5.50435">
        <ele>382</ele>
        <time>2023-02-14T09:46:58.797Z</time>
      </trkpt>
      <trkpt lat="45.61044" lon="5.50433">
        <ele>382</ele>
        <time>2023-02-14T09:46:59.797Z</time>
      </trkpt>
      <trkpt lat="45.61042" lon="5.50431">
        <ele>382</ele>
        <time>2023-02-14T09:47:00.797Z</time>
      </trkpt>
      <trkpt lat="45.6104" lon="5.50428">
        <ele>382</ele>
        <time>2023-02-14T09:47:01.797Z</time>
      </trkpt>
      <trkpt lat="45.61038" lon="5.50426">
        <ele>382</ele>
        <time>2023-02-14T09:47:02.797Z</time>
      </trkpt>
      <trkpt lat="45.61036" lon="5.50424">
        <ele>382</ele>
        <time>2023-02-14T09:47:03.797Z</time>
      </trkpt>
      <trkpt lat="45.61034" lon="5.50423">
        <ele>382</ele>
        <time>2023-02-14T09:47:04.797Z</time>
      </trkpt>
      <trkpt lat="45.61032" lon="5.50421">
        <ele>382</ele>
        <time>2023-02-14T09:47:05.797Z</time>
      </trkpt>
      <trkpt lat="45.6103" lon="5.50418">
        <ele>382</ele>
        <time>2023-02-14T09:47:06.797Z</time>
      </trkpt>
      <trkpt lat="45.61028" lon="5.50416">
        <ele>383</ele>
        <time>2023-02-14T09:47:07.797Z</time>
      </trkpt>
      <trkpt lat="45.61026" lon="5.50414">
        <ele>383</ele>
        <time>2023-02-14T09:47:08.797Z</time>
      </trkpt>
      <trkpt lat="45.61024" lon="5.50411">
        <ele>383</ele>
        <time>2023-02-14T09:47:09.797Z</time>
      </trkpt>
      <trkpt lat="45.61022" lon="5.50409">
        <ele>383</ele>
        <time>2023-02-14T09:47:10.797Z</time>
      </trkpt>
      <trkpt lat="45.6102" lon="5.50407">
        <ele>383</ele>
        <time>2023-02-14T09:47:11.797Z</time>
      </trkpt>
      <trkpt lat="45.61018" lon="5.50405">
        <ele>383</ele>
        <time>2023-02-14T09:47:12.797Z</time>
      </trkpt>
      <trkpt lat="45.61016" lon="5.50404">
        <ele>383</ele>
        <time>2023-02-14T09:47:13.797Z</time>
      </trkpt>
      <trkpt lat="45.61014" lon="5.50402">
        <ele>384</ele>
        <time>2023-02-14T09:47:14.797Z</time>
      </trkpt>
      <trkpt lat="45.61012" lon="5.504">
        <ele>384</ele>
        <time>2023-02-14T09:47:15.797Z</time>
      </trkpt>
      <trkpt lat="45.61011" lon="5.50397">
        <ele>384</ele>
        <time>2023-02-14T09:47:16.797Z</time>
      </trkpt>
      <trkpt lat="45.6101" lon="5.50395">
        <ele>384</ele>
        <time>2023-02-14T09:47:17.797Z</time>
      </trkpt>
      <trkpt lat="45.61008" lon="5.50393">
        <ele>384</ele>
        <time>2023-02-14T09:47:18.797Z</time>
      </trkpt>
      <trkpt lat="45.61007" lon="5.50391">
        <ele>384</ele>
        <time>2023-02-14T09:47:19.797Z</time>
      </trkpt>
      <trkpt lat="45.61005" lon="5.50388">
        <ele>384</ele>
        <time>2023-02-14T09:47:20.797Z</time>
      </trkpt>
      <trkpt lat="45.61003" lon="5.50386">
        <ele>384</ele>
        <time>2023-02-14T09:47:21.797Z</time>
      </trkpt>
      <trkpt lat="45.61002" lon="5.50385">
        <ele>385</ele>
        <time>2023-02-14T09:47:22.797Z</time>
      </trkpt>
      <trkpt lat="45.61" lon="5.50384">
        <ele>385</ele>
        <time>2023-02-14T09:47:23.797Z</time>
      </trkpt>
      <trkpt lat="45.60998" lon="5.50384">
        <ele>385</ele>
        <time>2023-02-14T09:47:24.797Z</time>
      </trkpt>
      <trkpt lat="45.60996" lon="5.50385">
        <ele>385</ele>
        <time>2023-02-14T09:47:25.797Z</time>
      </trkpt>
      <trkpt lat="45.60994" lon="5.50386">
        <ele>385</ele>
        <time>2023-02-14T09:47:26.797Z</time>
      </trkpt>
      <trkpt lat="45.60992" lon="5.50387">
        <ele>385</ele>
        <time>2023-02-14T09:47:27.797Z</time>
      </trkpt>
      <trkpt lat="45.60989" lon="5.50388">
        <ele>385</ele>
        <time>2023-02-14T09:47:28.797Z</time>
      </trkpt>
      <trkpt lat="45.60987" lon="5.5039">
        <ele>386</ele>
        <time>2023-02-14T09:47:29.797Z</time>
      </trkpt>
      <trkpt lat="45.60984" lon="5.50391">
        <ele>386</ele>
        <time>2023-02-14T09:47:30.797Z</time>
      </trkpt>
      <trkpt lat="45.60982" lon="5.50393">
        <ele>386</ele>
        <time>2023-02-14T09:47:31.797Z</time>
      </trkpt>
      <trkpt lat="45.60979" lon="5.50394">
        <ele>386</ele>
        <time>2023-02-14T09:47:32.797Z</time>
      </trkpt>
      <trkpt lat="45.60976" lon="5.50396">
        <ele>386</ele>
        <time>2023-02-14T09:47:33.797Z</time>
      </trkpt>
      <trkpt lat="45.60973" lon="5.50397">
        <ele>386</ele>
        <time>2023-02-14T09:47:34.797Z</time>
      </trkpt>
      <trkpt lat="45.60971" lon="5.50399">
        <ele>386</ele>
        <time>2023-02-14T09:47:35.797Z</time>
      </trkpt>
      <trkpt lat="45.60968" lon="5.50401">
        <ele>387</ele>
        <time>2023-02-14T09:47:36.797Z</time>
      </trkpt>
      <trkpt lat="45.60965" lon="5.50403">
        <ele>387</ele>
        <time>2023-02-14T09:47:37.797Z</time>
      </trkpt>
      <trkpt lat="45.60962" lon="5.50406">
        <ele>387</ele>
        <time>2023-02-14T09:47:38.797Z</time>
      </trkpt>
      <trkpt lat="45.60959" lon="5.50408">
        <ele>387</ele>
        <time>2023-02-14T09:47:39.797Z</time>
      </trkpt>
      <trkpt lat="45.60956" lon="5.50411">
        <ele>387</ele>
        <time>2023-02-14T09:47:40.797Z</time>
      </trkpt>
      <trkpt lat="45.60954" lon="5.50414">
        <ele>387</ele>
        <time>2023-02-14T09:47:41.797Z</time>
      </trkpt>
      <trkpt lat="45.60951" lon="5.50417">
        <ele>387</ele>
        <time>2023-02-14T09:47:42.797Z</time>
      </trkpt>
      <trkpt lat="45.60948" lon="5.5042">
        <ele>386</ele>
        <time>2023-02-14T09:47:43.797Z</time>
      </trkpt>
      <trkpt lat="45.60945" lon="5.50423">
        <ele>386</ele>
        <time>2023-02-14T09:47:44.797Z</time>
      </trkpt>
      <trkpt lat="45.60942" lon="5.50426">
        <ele>386</ele>
        <time>2023-02-14T09:47:45.797Z</time>
      </trkpt>
      <trkpt lat="45.60939" lon="5.50429">
        <ele>386</ele>
        <time>2023-02-14T09:47:46.797Z</time>
      </trkpt>
      <trkpt lat="45.60936" lon="5.50432">
        <ele>385</ele>
        <time>2023-02-14T09:47:47.797Z</time>
      </trkpt>
      <trkpt lat="45.60933" lon="5.50435">
        <ele>385</ele>
        <time>2023-02-14T09:47:48.797Z</time>
      </trkpt>
      <trkpt lat="45.6093" lon="5.50439">
        <ele>385</ele>
        <time>2023-02-14T09:47:49.797Z</time>
      </trkpt>
      <trkpt lat="45.60927" lon="5.50442">
        <ele>385</ele>
        <time>2023-02-14T09:47:50.797Z</time>
      </trkpt>
      <trkpt lat="45.60924" lon="5.50445">
        <ele>385</ele>
        <time>2023-02-14T09:47:51.797Z</time>
      </trkpt>
      <trkpt lat="45.6092" lon="5.50449">
        <ele>385</ele>
        <time>2023-02-14T09:47:52.797Z</time>
      </trkpt>
      <trkpt lat="45.60917" lon="5.50452">
        <ele>386</ele>
        <time>2023-02-14T09:47:53.797Z</time>
      </trkpt>
      <trkpt lat="45.60914" lon="5.50456">
        <ele>386</ele>
        <time>2023-02-14T09:47:54.797Z</time>
      </trkpt>
      <trkpt lat="45.60911" lon="5.50459">
        <ele>386</ele>
        <time>2023-02-14T09:47:55.797Z</time>
      </trkpt>
      <trkpt lat="45.60907" lon="5.50462">
        <ele>386</ele>
        <time>2023-02-14T09:47:56.797Z</time>
      </trkpt>
      <trkpt lat="45.60904" lon="5.50466">
        <ele>386</ele>
        <time>2023-02-14T09:47:57.797Z</time>
      </trkpt>
      <trkpt lat="45.60901" lon="5.50469">
        <ele>386</ele>
        <time>2023-02-14T09:47:58.797Z</time>
      </trkpt>
      <trkpt lat="45.60898" lon="5.50473">
        <ele>386</ele>
        <time>2023-02-14T09:47:59.797Z</time>
      </trkpt>
      <trkpt lat="45.60895" lon="5.50477">
        <ele>386</ele>
        <time>2023-02-14T09:48:00.797Z</time>
      </trkpt>
      <trkpt lat="45.60891" lon="5.5048">
        <ele>386</ele>
        <time>2023-02-14T09:48:01.797Z</time>
      </trkpt>
      <trkpt lat="45.60888" lon="5.50483">
        <ele>385</ele>
        <time>2023-02-14T09:48:02.797Z</time>
      </trkpt>
      <trkpt lat="45.60884" lon="5.50486">
        <ele>385</ele>
        <time>2023-02-14T09:48:03.797Z</time>
      </trkpt>
      <trkpt lat="45.60881" lon="5.5049">
        <ele>385</ele>
        <time>2023-02-14T09:48:04.797Z</time>
      </trkpt>
      <trkpt lat="45.60877" lon="5.50494">
        <ele>385</ele>
        <time>2023-02-14T09:48:05.797Z</time>
      </trkpt>
      <trkpt lat="45.60874" lon="5.50498">
        <ele>385</ele>
        <time>2023-02-14T09:48:06.797Z</time>
      </trkpt>
      <trkpt lat="45.60871" lon="5.50503">
        <ele>385</ele>
        <time>2023-02-14T09:48:07.797Z</time>
      </trkpt>
      <trkpt lat="45.60868" lon="5.50508">
        <ele>385</ele>
        <time>2023-02-14T09:48:08.797Z</time>
      </trkpt>
      <trkpt lat="45.60864" lon="5.50512">
        <ele>385</ele>
        <time>2023-02-14T09:48:09.797Z</time>
      </trkpt>
      <trkpt lat="45.60861" lon="5.50515">
        <ele>385</ele>
        <time>2023-02-14T09:48:10.797Z</time>
      </trkpt>
      <trkpt lat="45.60857" lon="5.50519">
        <ele>385</ele>
        <time>2023-02-14T09:48:11.797Z</time>
      </trkpt>
      <trkpt lat="45.60854" lon="5.50523">
        <ele>384</ele>
        <time>2023-02-14T09:48:12.797Z</time>
      </trkpt>
      <trkpt lat="45.60852" lon="5.50528">
        <ele>384</ele>
        <time>2023-02-14T09:48:13.797Z</time>
      </trkpt>
      <trkpt lat="45.6085" lon="5.50534">
        <ele>383</ele>
        <time>2023-02-14T09:48:14.797Z</time>
      </trkpt>
      <trkpt lat="45.60848" lon="5.5054">
        <ele>383</ele>
        <time>2023-02-14T09:48:15.797Z</time>
      </trkpt>
      <trkpt lat="45.60846" lon="5.50546">
        <ele>383</ele>
        <time>2023-02-14T09:48:16.797Z</time>
      </trkpt>
      <trkpt lat="45.60844" lon="5.50553">
        <ele>383</ele>
        <time>2023-02-14T09:48:17.797Z</time>
      </trkpt>
      <trkpt lat="45.60843" lon="5.50561">
        <ele>383</ele>
        <time>2023-02-14T09:48:18.797Z</time>
      </trkpt>
      <trkpt lat="45.60842" lon="5.50569">
        <ele>382</ele>
        <time>2023-02-14T09:48:19.797Z</time>
      </trkpt>
      <trkpt lat="45.60841" lon="5.50577">
        <ele>382</ele>
        <time>2023-02-14T09:48:20.797Z</time>
      </trkpt>
      <trkpt lat="45.6084" lon="5.50586">
        <ele>382</ele>
        <time>2023-02-14T09:48:21.797Z</time>
      </trkpt>
      <trkpt lat="45.60839" lon="5.50595">
        <ele>381</ele>
        <time>2023-02-14T09:48:22.797Z</time>
      </trkpt>
      <trkpt lat="45.60839" lon="5.50604">
        <ele>381</ele>
        <time>2023-02-14T09:48:23.797Z</time>
      </trkpt>
      <trkpt lat="45.60839" lon="5.50613">
        <ele>381</ele>
        <time>2023-02-14T09:48:24.797Z</time>
      </trkpt>
      <trkpt lat="45.60839" lon="5.50622">
        <ele>381</ele>
        <time>2023-02-14T09:48:25.797Z</time>
      </trkpt>
      <trkpt lat="45.6084" lon="5.50632">
        <ele>380</ele>
        <time>2023-02-14T09:48:26.797Z</time>
      </trkpt>
      <trkpt lat="45.6084" lon="5.50641">
        <ele>380</ele>
        <time>2023-02-14T09:48:27.797Z</time>
      </trkpt>
      <trkpt lat="45.6084" lon="5.50651">
        <ele>380</ele>
        <time>2023-02-14T09:48:28.797Z</time>
      </trkpt>
      <trkpt lat="45.60841" lon="5.5066">
        <ele>380</ele>
        <time>2023-02-14T09:48:29.797Z</time>
      </trkpt>
      <trkpt lat="45.60841" lon="5.50669">
        <ele>379</ele>
        <time>2023-02-14T09:48:30.797Z</time>
      </trkpt>
      <trkpt lat="45.60842" lon="5.50678">
        <ele>379</ele>
        <time>2023-02-14T09:48:31.797Z</time>
      </trkpt>
      <trkpt lat="45.60843" lon="5.50688">
        <ele>379</ele>
        <time>2023-02-14T09:48:32.797Z</time>
      </trkpt>
      <trkpt lat="45.60843" lon="5.50697">
        <ele>379</ele>
        <time>2023-02-14T09:48:33.797Z</time>
      </trkpt>
      <trkpt lat="45.60843" lon="5.50707">
        <ele>379</ele>
        <time>2023-02-14T09:48:34.797Z</time>
      </trkpt>
      <trkpt lat="45.60843" lon="5.50716">
        <ele>378</ele>
        <time>2023-02-14T09:48:35.797Z</time>
      </trkpt>
      <trkpt lat="45.60843" lon="5.50726">
        <ele>378</ele>
        <time>2023-02-14T09:48:36.797Z</time>
      </trkpt>
      <trkpt lat="45.60842" lon="5.50735">
        <ele>378</ele>
        <time>2023-02-14T09:48:37.797Z</time>
      </trkpt>
      <trkpt lat="45.60842" lon="5.50743">
        <ele>378</ele>
        <time>2023-02-14T09:48:38.797Z</time>
      </trkpt>
      <trkpt lat="45.60841" lon="5.50752">
        <ele>378</ele>
        <time>2023-02-14T09:48:39.797Z</time>
      </trkpt>
      <trkpt lat="45.6084" lon="5.5076">
        <ele>378</ele>
        <time>2023-02-14T09:48:40.797Z</time>
      </trkpt>
      <trkpt lat="45.60838" lon="5.50768">
        <ele>377</ele>
        <time>2023-02-14T09:48:41.797Z</time>
      </trkpt>
      <trkpt lat="45.60837" lon="5.50776">
        <ele>377</ele>
        <time>2023-02-14T09:48:42.797Z</time>
      </trkpt>
      <trkpt lat="45.60836" lon="5.50783">
        <ele>377</ele>
        <time>2023-02-14T09:48:43.797Z</time>
      </trkpt>
      <trkpt lat="45.60835" lon="5.50791">
        <ele>377</ele>
        <time>2023-02-14T09:48:44.797Z</time>
      </trkpt>
      <trkpt lat="45.60834" lon="5.50798">
        <ele>377</ele>
        <time>2023-02-14T09:48:45.797Z</time>
      </trkpt>
      <trkpt lat="45.60832" lon="5.50805">
        <ele>377</ele>
        <time>2023-02-14T09:48:46.797Z</time>
      </trkpt>
      <trkpt lat="45.60831" lon="5.50812">
        <ele>377</ele>
        <time>2023-02-14T09:48:47.797Z</time>
      </trkpt>
      <trkpt lat="45.60829" lon="5.50818">
        <ele>375</ele>
        <time>2023-02-14T09:48:48.797Z</time>
      </trkpt>
      <trkpt lat="45.60826" lon="5.50823">
        <ele>375</ele>
        <time>2023-02-14T09:48:49.797Z</time>
      </trkpt>
      <trkpt lat="45.60822" lon="5.50826">
        <ele>375</ele>
        <time>2023-02-14T09:48:50.797Z</time>
      </trkpt>
      <trkpt lat="45.60818" lon="5.50826">
        <ele>375</ele>
        <time>2023-02-14T09:48:51.797Z</time>
      </trkpt>
      <trkpt lat="45.60814" lon="5.50825">
        <ele>375</ele>
        <time>2023-02-14T09:48:52.797Z</time>
      </trkpt>
      <trkpt lat="45.60809" lon="5.50822">
        <ele>375</ele>
        <time>2023-02-14T09:48:53.797Z</time>
      </trkpt>
      <trkpt lat="45.60805" lon="5.50818">
        <ele>375</ele>
        <time>2023-02-14T09:48:54.797Z</time>
      </trkpt>
      <trkpt lat="45.60801" lon="5.50815">
        <ele>375</ele>
        <time>2023-02-14T09:48:55.797Z</time>
      </trkpt>
      <trkpt lat="45.60797" lon="5.50812">
        <ele>376</ele>
        <time>2023-02-14T09:48:56.797Z</time>
      </trkpt>
      <trkpt lat="45.60792" lon="5.50809">
        <ele>375</ele>
        <time>2023-02-14T09:48:57.797Z</time>
      </trkpt>
      <trkpt lat="45.60788" lon="5.50806">
        <ele>375</ele>
        <time>2023-02-14T09:48:58.797Z</time>
      </trkpt>
      <trkpt lat="45.60784" lon="5.50803">
        <ele>375</ele>
        <time>2023-02-14T09:48:59.797Z</time>
      </trkpt>
      <trkpt lat="45.6078" lon="5.508">
        <ele>375</ele>
        <time>2023-02-14T09:49:00.797Z</time>
      </trkpt>
      <trkpt lat="45.60775" lon="5.50797">
        <ele>374</ele>
        <time>2023-02-14T09:49:01.797Z</time>
      </trkpt>
      <trkpt lat="45.60771" lon="5.50794">
        <ele>374</ele>
        <time>2023-02-14T09:49:02.797Z</time>
      </trkpt>
      <trkpt lat="45.60767" lon="5.50791">
        <ele>374</ele>
        <time>2023-02-14T09:49:03.797Z</time>
      </trkpt>
      <trkpt lat="45.60763" lon="5.50787">
        <ele>374</ele>
        <time>2023-02-14T09:49:04.797Z</time>
      </trkpt>
      <trkpt lat="45.60758" lon="5.50784">
        <ele>373</ele>
        <time>2023-02-14T09:49:05.797Z</time>
      </trkpt>
      <trkpt lat="45.60753" lon="5.5078">
        <ele>373</ele>
        <time>2023-02-14T09:49:06.797Z</time>
      </trkpt>
      <trkpt lat="45.60748" lon="5.50777">
        <ele>373</ele>
        <time>2023-02-14T09:49:07.797Z</time>
      </trkpt>
      <trkpt lat="45.60743" lon="5.50773">
        <ele>372</ele>
        <time>2023-02-14T09:49:08.797Z</time>
      </trkpt>
      <trkpt lat="45.60738" lon="5.50769">
        <ele>372</ele>
        <time>2023-02-14T09:49:09.797Z</time>
      </trkpt>
      <trkpt lat="45.60733" lon="5.50765">
        <ele>372</ele>
        <time>2023-02-14T09:49:10.797Z</time>
      </trkpt>
      <trkpt lat="45.60728" lon="5.50761">
        <ele>372</ele>
        <time>2023-02-14T09:49:11.797Z</time>
      </trkpt>
      <trkpt lat="45.60723" lon="5.50758">
        <ele>372</ele>
        <time>2023-02-14T09:49:12.797Z</time>
      </trkpt>
      <trkpt lat="45.60718" lon="5.50754">
        <ele>372</ele>
        <time>2023-02-14T09:49:13.797Z</time>
      </trkpt>
      <trkpt lat="45.60713" lon="5.50751">
        <ele>372</ele>
        <time>2023-02-14T09:49:14.797Z</time>
      </trkpt>
      <trkpt lat="45.60708" lon="5.50748">
        <ele>372</ele>
        <time>2023-02-14T09:49:15.797Z</time>
      </trkpt>
      <trkpt lat="45.60704" lon="5.50744">
        <ele>372</ele>
        <time>2023-02-14T09:49:16.797Z</time>
      </trkpt>
      <trkpt lat="45.607" lon="5.50741">
        <ele>372</ele>
        <time>2023-02-14T09:49:17.797Z</time>
      </trkpt>
      <trkpt lat="45.60695" lon="5.50738">
        <ele>372</ele>
        <time>2023-02-14T09:49:18.797Z</time>
      </trkpt>
      <trkpt lat="45.60691" lon="5.50736">
        <ele>372</ele>
        <time>2023-02-14T09:49:19.797Z</time>
      </trkpt>
      <trkpt lat="45.60688" lon="5.50733">
        <ele>372</ele>
        <time>2023-02-14T09:49:20.797Z</time>
      </trkpt>
      <trkpt lat="45.60684" lon="5.50731">
        <ele>372</ele>
        <time>2023-02-14T09:49:21.797Z</time>
      </trkpt>
      <trkpt lat="45.60681" lon="5.50728">
        <ele>372</ele>
        <time>2023-02-14T09:49:22.797Z</time>
      </trkpt>
      <trkpt lat="45.60678" lon="5.50726">
        <ele>372</ele>
        <time>2023-02-14T09:49:23.797Z</time>
      </trkpt>
      <trkpt lat="45.60675" lon="5.50724">
        <ele>372</ele>
        <time>2023-02-14T09:49:24.797Z</time>
      </trkpt>
      <trkpt lat="45.60672" lon="5.50722">
        <ele>372</ele>
        <time>2023-02-14T09:49:25.797Z</time>
      </trkpt>
      <trkpt lat="45.60669" lon="5.50719">
        <ele>372</ele>
        <time>2023-02-14T09:49:26.797Z</time>
      </trkpt>
      <trkpt lat="45.60666" lon="5.50716">
        <ele>372</ele>
        <time>2023-02-14T09:49:27.797Z</time>
      </trkpt>
      <trkpt lat="45.60664" lon="5.50713">
        <ele>373</ele>
        <time>2023-02-14T09:49:28.797Z</time>
      </trkpt>
      <trkpt lat="45.60662" lon="5.5071">
        <ele>373</ele>
        <time>2023-02-14T09:49:29.797Z</time>
      </trkpt>
      <trkpt lat="45.6066" lon="5.50706">
        <ele>373</ele>
        <time>2023-02-14T09:49:30.797Z</time>
      </trkpt>
      <trkpt lat="45.60658" lon="5.50703">
        <ele>373</ele>
        <time>2023-02-14T09:49:31.797Z</time>
      </trkpt>
      <trkpt lat="45.60656" lon="5.50698">
        <ele>373</ele>
        <time>2023-02-14T09:49:32.797Z</time>
      </trkpt>
      <trkpt lat="45.60654" lon="5.50694">
        <ele>373</ele>
        <time>2023-02-14T09:49:33.797Z</time>
      </trkpt>
      <trkpt lat="45.60653" lon="5.50689">
        <ele>373</ele>
        <time>2023-02-14T09:49:34.797Z</time>
      </trkpt>
      <trkpt lat="45.60652" lon="5.50684">
        <ele>372</ele>
        <time>2023-02-14T09:49:35.797Z</time>
      </trkpt>
      <trkpt lat="45.60651" lon="5.50679">
        <ele>372</ele>
        <time>2023-02-14T09:49:36.797Z</time>
      </trkpt>
      <trkpt lat="45.6065" lon="5.50674">
        <ele>372</ele>
        <time>2023-02-14T09:49:37.797Z</time>
      </trkpt>
      <trkpt lat="45.60649" lon="5.50669">
        <ele>373</ele>
        <time>2023-02-14T09:49:38.797Z</time>
      </trkpt>
      <trkpt lat="45.60647" lon="5.50664">
        <ele>373</ele>
        <time>2023-02-14T09:49:39.797Z</time>
      </trkpt>
      <trkpt lat="45.60645" lon="5.50659">
        <ele>373</ele>
        <time>2023-02-14T09:49:40.797Z</time>
      </trkpt>
      <trkpt lat="45.60643" lon="5.50654">
        <ele>373</ele>
        <time>2023-02-14T09:49:41.797Z</time>
      </trkpt>
      <trkpt lat="45.60641" lon="5.5065">
        <ele>373</ele>
        <time>2023-02-14T09:49:42.797Z</time>
      </trkpt>
      <trkpt lat="45.60639" lon="5.50645">
        <ele>373</ele>
        <time>2023-02-14T09:49:43.797Z</time>
      </trkpt>
      <trkpt lat="45.60637" lon="5.5064">
        <ele>373</ele>
        <time>2023-02-14T09:49:44.797Z</time>
      </trkpt>
      <trkpt lat="45.60635" lon="5.50635">
        <ele>374</ele>
        <time>2023-02-14T09:49:45.797Z</time>
      </trkpt>
      <trkpt lat="45.60633" lon="5.5063">
        <ele>374</ele>
        <time>2023-02-14T09:49:46.797Z</time>
      </trkpt>
      <trkpt lat="45.60631" lon="5.50625">
        <ele>374</ele>
        <time>2023-02-14T09:49:47.797Z</time>
      </trkpt>
      <trkpt lat="45.60629" lon="5.5062">
        <ele>373</ele>
        <time>2023-02-14T09:49:48.797Z</time>
      </trkpt>
      <trkpt lat="45.60626" lon="5.50615">
        <ele>373</ele>
        <time>2023-02-14T09:49:49.797Z</time>
      </trkpt>
      <trkpt lat="45.60624" lon="5.5061">
        <ele>373</ele>
        <time>2023-02-14T09:49:50.797Z</time>
      </trkpt>
      <trkpt lat="45.60622" lon="5.50605">
        <ele>373</ele>
        <time>2023-02-14T09:49:51.797Z</time>
      </trkpt>
      <trkpt lat="45.6062" lon="5.506">
        <ele>373</ele>
        <time>2023-02-14T09:49:52.797Z</time>
      </trkpt>
      <trkpt lat="45.60618" lon="5.50594">
        <ele>373</ele>
        <time>2023-02-14T09:49:53.797Z</time>
      </trkpt>
      <trkpt lat="45.60616" lon="5.50589">
        <ele>373</ele>
        <time>2023-02-14T09:49:54.797Z</time>
      </trkpt>
      <trkpt lat="45.60613" lon="5.50583">
        <ele>372</ele>
        <time>2023-02-14T09:49:55.797Z</time>
      </trkpt>
      <trkpt lat="45.6061" lon="5.50578">
        <ele>372</ele>
        <time>2023-02-14T09:49:56.797Z</time>
      </trkpt>
      <trkpt lat="45.60607" lon="5.50571">
        <ele>372</ele>
        <time>2023-02-14T09:49:57.797Z</time>
      </trkpt>
      <trkpt lat="45.60604" lon="5.50565">
        <ele>372</ele>
        <time>2023-02-14T09:49:58.797Z</time>
      </trkpt>
      <trkpt lat="45.606" lon="5.50559">
        <ele>371</ele>
        <time>2023-02-14T09:49:59.797Z</time>
      </trkpt>
      <trkpt lat="45.60595" lon="5.50553">
        <ele>371</ele>
        <time>2023-02-14T09:50:00.797Z</time>
      </trkpt>
      <trkpt lat="45.60591" lon="5.50548">
        <ele>371</ele>
        <time>2023-02-14T09:50:01.797Z</time>
      </trkpt>
      <trkpt lat="45.60586" lon="5.50543">
        <ele>372</ele>
        <time>2023-02-14T09:50:02.797Z</time>
      </trkpt>
      <trkpt lat="45.60582" lon="5.50539">
        <ele>372</ele>
        <time>2023-02-14T09:50:03.797Z</time>
      </trkpt>
      <trkpt lat="45.60577" lon="5.50534">
        <ele>372</ele>
        <time>2023-02-14T09:50:04.797Z</time>
      </trkpt>
      <trkpt lat="45.60573" lon="5.50531">
        <ele>372</ele>
        <time>2023-02-14T09:50:05.797Z</time>
      </trkpt>
      <trkpt lat="45.6057" lon="5.50527">
        <ele>372</ele>
        <time>2023-02-14T09:50:06.797Z</time>
      </trkpt>
      <trkpt lat="45.60566" lon="5.50524">
        <ele>372</ele>
        <time>2023-02-14T09:50:07.797Z</time>
      </trkpt>
      <trkpt lat="45.60562" lon="5.50521">
        <ele>372</ele>
        <time>2023-02-14T09:50:08.797Z</time>
      </trkpt>
      <trkpt lat="45.60559" lon="5.50518">
        <ele>373</ele>
        <time>2023-02-14T09:50:09.797Z</time>
      </trkpt>
      <trkpt lat="45.60556" lon="5.50516">
        <ele>373</ele>
        <time>2023-02-14T09:50:10.797Z</time>
      </trkpt>
      <trkpt lat="45.60554" lon="5.50513">
        <ele>373</ele>
        <time>2023-02-14T09:50:11.797Z</time>
      </trkpt>
      <trkpt lat="45.60551" lon="5.50511">
        <ele>374</ele>
        <time>2023-02-14T09:50:12.797Z</time>
      </trkpt>
      <trkpt lat="45.60549" lon="5.50509">
        <ele>374</ele>
        <time>2023-02-14T09:50:13.797Z</time>
      </trkpt>
      <trkpt lat="45.60546" lon="5.50507">
        <ele>374</ele>
        <time>2023-02-14T09:50:14.797Z</time>
      </trkpt>
      <trkpt lat="45.60544" lon="5.50505">
        <ele>374</ele>
        <time>2023-02-14T09:50:15.797Z</time>
      </trkpt>
      <trkpt lat="45.60542" lon="5.50503">
        <ele>375</ele>
        <time>2023-02-14T09:50:16.797Z</time>
      </trkpt>
      <trkpt lat="45.6054" lon="5.50501">
        <ele>375</ele>
        <time>2023-02-14T09:50:17.797Z</time>
      </trkpt>
      <trkpt lat="45.60538" lon="5.50499">
        <ele>375</ele>
        <time>2023-02-14T09:50:18.797Z</time>
      </trkpt>
      <trkpt lat="45.60536" lon="5.50497">
        <ele>375</ele>
        <time>2023-02-14T09:50:19.797Z</time>
      </trkpt>
      <trkpt lat="45.60534" lon="5.50495">
        <ele>375</ele>
        <time>2023-02-14T09:50:20.797Z</time>
      </trkpt>
      <trkpt lat="45.60532" lon="5.50493">
        <ele>376</ele>
        <time>2023-02-14T09:50:21.797Z</time>
      </trkpt>
      <trkpt lat="45.6053" lon="5.50491">
        <ele>376</ele>
        <time>2023-02-14T09:50:22.797Z</time>
      </trkpt>
      <trkpt lat="45.60529" lon="5.50489">
        <ele>376</ele>
        <time>2023-02-14T09:50:23.797Z</time>
      </trkpt>
      <trkpt lat="45.60527" lon="5.50486">
        <ele>376</ele>
        <time>2023-02-14T09:50:24.797Z</time>
      </trkpt>
      <trkpt lat="45.60525" lon="5.50484">
        <ele>377</ele>
        <time>2023-02-14T09:50:25.797Z</time>
      </trkpt>
      <trkpt lat="45.60523" lon="5.50482">
        <ele>377</ele>
        <time>2023-02-14T09:50:26.797Z</time>
      </trkpt>
      <trkpt lat="45.60522" lon="5.50479">
        <ele>377</ele>
        <time>2023-02-14T09:50:27.797Z</time>
      </trkpt>
      <trkpt lat="45.6052" lon="5.50477">
        <ele>378</ele>
        <time>2023-02-14T09:50:28.797Z</time>
      </trkpt>
      <trkpt lat="45.60519" lon="5.50474">
        <ele>378</ele>
        <time>2023-02-14T09:50:29.797Z</time>
      </trkpt>
      <trkpt lat="45.60517" lon="5.50472">
        <ele>378</ele>
        <time>2023-02-14T09:50:30.797Z</time>
      </trkpt>
      <trkpt lat="45.60516" lon="5.5047">
        <ele>378</ele>
        <time>2023-02-14T09:50:31.797Z</time>
      </trkpt>
      <trkpt lat="45.60514" lon="5.50467">
        <ele>378</ele>
        <time>2023-02-14T09:50:32.797Z</time>
      </trkpt>
      <trkpt lat="45.60513" lon="5.50465">
        <ele>378</ele>
        <time>2023-02-14T09:50:33.797Z</time>
      </trkpt>
      <trkpt lat="45.60511" lon="5.50463">
        <ele>379</ele>
        <time>2023-02-14T09:50:34.797Z</time>
      </trkpt>
      <trkpt lat="45.6051" lon="5.50461">
        <ele>379</ele>
        <time>2023-02-14T09:50:35.797Z</time>
      </trkpt>
      <trkpt lat="45.60508" lon="5.50459">
        <ele>379</ele>
        <time>2023-02-14T09:50:36.797Z</time>
      </trkpt>
      <trkpt lat="45.60507" lon="5.50456">
        <ele>379</ele>
        <time>2023-02-14T09:50:37.797Z</time>
      </trkpt>
      <trkpt lat="45.60506" lon="5.50454">
        <ele>379</ele>
        <time>2023-02-14T09:50:38.797Z</time>
      </trkpt>
      <trkpt lat="45.60505" lon="5.50452">
        <ele>379</ele>
        <time>2023-02-14T09:50:39.797Z</time>
      </trkpt>
      <trkpt lat="45.60504" lon="5.50449">
        <ele>379</ele>
        <time>2023-02-14T09:50:40.797Z</time>
      </trkpt>
      <trkpt lat="45.60503" lon="5.50447">
        <ele>380</ele>
        <time>2023-02-14T09:50:41.797Z</time>
      </trkpt>
      <trkpt lat="45.60503" lon="5.50444">
        <ele>380</ele>
        <time>2023-02-14T09:50:42.797Z</time>
      </trkpt>
      <trkpt lat="45.60502" lon="5.50442">
        <ele>380</ele>
        <time>2023-02-14T09:50:43.797Z</time>
      </trkpt>
      <trkpt lat="45.60502" lon="5.50439">
        <ele>380</ele>
        <time>2023-02-14T09:50:44.797Z</time>
      </trkpt>
      <trkpt lat="45.60501" lon="5.50436">
        <ele>380</ele>
        <time>2023-02-14T09:50:45.797Z</time>
      </trkpt>
      <trkpt lat="45.60501" lon="5.50434">
        <ele>380</ele>
        <time>2023-02-14T09:50:46.797Z</time>
      </trkpt>
      <trkpt lat="45.60501" lon="5.50431">
        <ele>381</ele>
        <time>2023-02-14T09:50:47.797Z</time>
      </trkpt>
      <trkpt lat="45.605" lon="5.50429">
        <ele>381</ele>
        <time>2023-02-14T09:50:48.797Z</time>
      </trkpt>
      <trkpt lat="45.605" lon="5.50427">
        <ele>381</ele>
        <time>2023-02-14T09:50:49.797Z</time>
      </trkpt>
      <trkpt lat="45.60499" lon="5.50425">
        <ele>381</ele>
        <time>2023-02-14T09:50:50.797Z</time>
      </trkpt>
      <trkpt lat="45.60499" lon="5.50423">
        <ele>381</ele>
        <time>2023-02-14T09:50:51.797Z</time>
      </trkpt>
      <trkpt lat="45.60498" lon="5.5042">
        <ele>381</ele>
        <time>2023-02-14T09:50:52.797Z</time>
      </trkpt>
      <trkpt lat="45.60498" lon="5.50418">
        <ele>381</ele>
        <time>2023-02-14T09:50:53.797Z</time>
      </trkpt>
      <trkpt lat="45.60497" lon="5.50416">
        <ele>381</ele>
        <time>2023-02-14T09:50:54.797Z</time>
      </trkpt>
      <trkpt lat="45.60497" lon="5.50414">
        <ele>381</ele>
        <time>2023-02-14T09:50:55.797Z</time>
      </trkpt>
      <trkpt lat="45.60496" lon="5.50412">
        <ele>381</ele>
        <time>2023-02-14T09:50:56.797Z</time>
      </trkpt>
      <trkpt lat="45.60496" lon="5.5041">
        <ele>381</ele>
        <time>2023-02-14T09:50:57.797Z</time>
      </trkpt>
      <trkpt lat="45.60495" lon="5.50408">
        <ele>382</ele>
        <time>2023-02-14T09:50:58.797Z</time>
      </trkpt>
      <trkpt lat="45.60494" lon="5.50406">
        <ele>382</ele>
        <time>2023-02-14T09:50:59.797Z</time>
      </trkpt>
      <trkpt lat="45.60493" lon="5.50404">
        <ele>382</ele>
        <time>2023-02-14T09:51:00.797Z</time>
      </trkpt>
      <trkpt lat="45.60493" lon="5.50402">
        <ele>382</ele>
        <time>2023-02-14T09:51:01.797Z</time>
      </trkpt>
      <trkpt lat="45.60492" lon="5.504">
        <ele>383</ele>
        <time>2023-02-14T09:51:02.797Z</time>
      </trkpt>
      <trkpt lat="45.60491" lon="5.50398">
        <ele>383</ele>
        <time>2023-02-14T09:51:03.797Z</time>
      </trkpt>
      <trkpt lat="45.6049" lon="5.50396">
        <ele>383</ele>
        <time>2023-02-14T09:51:04.797Z</time>
      </trkpt>
      <trkpt lat="45.6049" lon="5.50394">
        <ele>383</ele>
        <time>2023-02-14T09:51:05.797Z</time>
      </trkpt>
      <trkpt lat="45.60489" lon="5.50392">
        <ele>383</ele>
        <time>2023-02-14T09:51:06.797Z</time>
      </trkpt>
      <trkpt lat="45.60488" lon="5.5039">
        <ele>383</ele>
        <time>2023-02-14T09:51:07.797Z</time>
      </trkpt>
      <trkpt lat="45.60487" lon="5.50388">
        <ele>384</ele>
        <time>2023-02-14T09:51:08.797Z</time>
      </trkpt>
      <trkpt lat="45.60486" lon="5.50386">
        <ele>384</ele>
        <time>2023-02-14T09:51:09.797Z</time>
      </trkpt>
      <trkpt lat="45.60485" lon="5.50384">
        <ele>384</ele>
        <time>2023-02-14T09:51:10.797Z</time>
      </trkpt>
      <trkpt lat="45.60485" lon="5.50382">
        <ele>384</ele>
        <time>2023-02-14T09:51:11.797Z</time>
      </trkpt>
      <trkpt lat="45.60484" lon="5.5038">
        <ele>385</ele>
        <time>2023-02-14T09:51:12.797Z</time>
      </trkpt>
      <trkpt lat="45.60483" lon="5.50378">
        <ele>385</ele>
        <time>2023-02-14T09:51:13.797Z</time>
      </trkpt>
      <trkpt lat="45.60482" lon="5.50376">
        <ele>385</ele>
        <time>2023-02-14T09:51:14.797Z</time>
      </trkpt>
      <trkpt lat="45.60481" lon="5.50374">
        <ele>385</ele>
        <time>2023-02-14T09:51:15.797Z</time>
      </trkpt>
      <trkpt lat="45.6048" lon="5.50372">
        <ele>385</ele>
        <time>2023-02-14T09:51:16.797Z</time>
      </trkpt>
      <trkpt lat="45.60479" lon="5.5037">
        <ele>386</ele>
        <time>2023-02-14T09:51:17.797Z</time>
      </trkpt>
      <trkpt lat="45.60478" lon="5.50368">
        <ele>386</ele>
        <time>2023-02-14T09:51:18.797Z</time>
      </trkpt>
      <trkpt lat="45.60477" lon="5.50366">
        <ele>386</ele>
        <time>2023-02-14T09:51:19.797Z</time>
      </trkpt>
      <trkpt lat="45.60476" lon="5.50364">
        <ele>386</ele>
        <time>2023-02-14T09:51:20.797Z</time>
      </trkpt>
      <trkpt lat="45.60475" lon="5.50362">
        <ele>386</ele>
        <time>2023-02-14T09:51:21.797Z</time>
      </trkpt>
      <trkpt lat="45.60474" lon="5.5036">
        <ele>386</ele>
        <time>2023-02-14T09:51:22.797Z</time>
      </trkpt>
      <trkpt lat="45.60473" lon="5.50358">
        <ele>386</ele>
        <time>2023-02-14T09:51:23.797Z</time>
      </trkpt>
      <trkpt lat="45.60472" lon="5.50356">
        <ele>386</ele>
        <time>2023-02-14T09:51:24.797Z</time>
      </trkpt>
      <trkpt lat="45.60471" lon="5.50354">
        <ele>387</ele>
        <time>2023-02-14T09:51:25.797Z</time>
      </trkpt>
      <trkpt lat="45.6047" lon="5.50352">
        <ele>387</ele>
        <time>2023-02-14T09:51:26.797Z</time>
      </trkpt>
      <trkpt lat="45.60469" lon="5.5035">
        <ele>387</ele>
        <time>2023-02-14T09:51:27.797Z</time>
      </trkpt>
      <trkpt lat="45.60468" lon="5.50349">
        <ele>388</ele>
        <time>2023-02-14T09:51:28.797Z</time>
      </trkpt>
      <trkpt lat="45.60467" lon="5.50347">
        <ele>388</ele>
        <time>2023-02-14T09:51:29.797Z</time>
      </trkpt>
      <trkpt lat="45.60466" lon="5.50345">
        <ele>388</ele>
        <time>2023-02-14T09:51:30.797Z</time>
      </trkpt>
      <trkpt lat="45.60465" lon="5.50343">
        <ele>388</ele>
        <time>2023-02-14T09:51:31.797Z</time>
      </trkpt>
      <trkpt lat="45.60464" lon="5.50341">
        <ele>388</ele>
        <time>2023-02-14T09:51:32.797Z</time>
      </trkpt>
      <trkpt lat="45.60463" lon="5.5034">
        <ele>389</ele>
        <time>2023-02-14T09:51:33.797Z</time>
      </trkpt>
      <trkpt lat="45.60462" lon="5.50338">
        <ele>389</ele>
        <time>2023-02-14T09:51:34.797Z</time>
      </trkpt>
      <trkpt lat="45.60461" lon="5.50336">
        <ele>389</ele>
        <time>2023-02-14T09:51:35.797Z</time>
      </trkpt>
      <trkpt lat="45.6046" lon="5.50335">
        <ele>389</ele>
        <time>2023-02-14T09:51:36.797Z</time>
      </trkpt>
      <trkpt lat="45.60459" lon="5.50333">
        <ele>389</ele>
        <time>2023-02-14T09:51:37.797Z</time>
      </trkpt>
      <trkpt lat="45.60458" lon="5.50331">
        <ele>390</ele>
        <time>2023-02-14T09:51:38.797Z</time>
      </trkpt>
      <trkpt lat="45.60457" lon="5.50329">
        <ele>390</ele>
        <time>2023-02-14T09:51:39.797Z</time>
      </trkpt>
      <trkpt lat="45.60456" lon="5.50328">
        <ele>390</ele>
        <time>2023-02-14T09:51:40.797Z</time>
      </trkpt>
      <trkpt lat="45.60455" lon="5.50326">
        <ele>391</ele>
        <time>2023-02-14T09:51:41.797Z</time>
      </trkpt>
      <trkpt lat="45.60454" lon="5.50325">
        <ele>391</ele>
        <time>2023-02-14T09:51:42.797Z</time>
      </trkpt>
      <trkpt lat="45.60453" lon="5.50323">
        <ele>391</ele>
        <time>2023-02-14T09:51:43.797Z</time>
      </trkpt>
      <trkpt lat="45.60452" lon="5.50321">
        <ele>391</ele>
        <time>2023-02-14T09:51:44.797Z</time>
      </trkpt>
      <trkpt lat="45.60451" lon="5.5032">
        <ele>392</ele>
        <time>2023-02-14T09:51:45.797Z</time>
      </trkpt>
      <trkpt lat="45.6045" lon="5.50319">
        <ele>392</ele>
        <time>2023-02-14T09:51:46.797Z</time>
      </trkpt>
      <trkpt lat="45.60448" lon="5.50317">
        <ele>392</ele>
        <time>2023-02-14T09:51:47.797Z</time>
      </trkpt>
      <trkpt lat="45.60447" lon="5.50316">
        <ele>393</ele>
        <time>2023-02-14T09:51:48.797Z</time>
      </trkpt>
      <trkpt lat="45.60446" lon="5.50314">
        <ele>393</ele>
        <time>2023-02-14T09:51:49.797Z</time>
      </trkpt>
      <trkpt lat="45.60445" lon="5.50313">
        <ele>393</ele>
        <time>2023-02-14T09:51:50.797Z</time>
      </trkpt>
      <trkpt lat="45.60444" lon="5.50311">
        <ele>393</ele>
        <time>2023-02-14T09:51:51.797Z</time>
      </trkpt>
      <trkpt lat="45.60442" lon="5.5031">
        <ele>394</ele>
        <time>2023-02-14T09:51:52.797Z</time>
      </trkpt>
      <trkpt lat="45.60441" lon="5.50309">
        <ele>394</ele>
        <time>2023-02-14T09:51:53.797Z</time>
      </trkpt>
      <trkpt lat="45.6044" lon="5.50307">
        <ele>394</ele>
        <time>2023-02-14T09:51:54.797Z</time>
      </trkpt>
      <trkpt lat="45.60439" lon="5.50306">
        <ele>394</ele>
        <time>2023-02-14T09:51:55.797Z</time>
      </trkpt>
      <trkpt lat="45.60438" lon="5.50305">
        <ele>394</ele>
        <time>2023-02-14T09:51:56.797Z</time>
      </trkpt>
      <trkpt lat="45.60437" lon="5.50303">
        <ele>395</ele>
        <time>2023-02-14T09:51:57.797Z</time>
      </trkpt>
      <trkpt lat="45.60436" lon="5.50302">
        <ele>395</ele>
        <time>2023-02-14T09:51:58.797Z</time>
      </trkpt>
      <trkpt lat="45.60434" lon="5.50301">
        <ele>395</ele>
        <time>2023-02-14T09:51:59.797Z</time>
      </trkpt>
      <trkpt lat="45.60433" lon="5.50299">
        <ele>395</ele>
        <time>2023-02-14T09:52:00.797Z</time>
      </trkpt>
      <trkpt lat="45.60432" lon="5.50298">
        <ele>395</ele>
        <time>2023-02-14T09:52:01.797Z</time>
      </trkpt>
      <trkpt lat="45.60431" lon="5.50297">
        <ele>395</ele>
        <time>2023-02-14T09:52:02.797Z</time>
      </trkpt>
      <trkpt lat="45.60429" lon="5.50295">
        <ele>395</ele>
        <time>2023-02-14T09:52:03.797Z</time>
      </trkpt>
      <trkpt lat="45.60428" lon="5.50294">
        <ele>396</ele>
        <time>2023-02-14T09:52:04.797Z</time>
      </trkpt>
      <trkpt lat="45.60427" lon="5.50293">
        <ele>396</ele>
        <time>2023-02-14T09:52:05.797Z</time>
      </trkpt>
      <trkpt lat="45.60426" lon="5.50291">
        <ele>395</ele>
        <time>2023-02-14T09:52:06.797Z</time>
      </trkpt>
      <trkpt lat="45.60424" lon="5.5029">
        <ele>395</ele>
        <time>2023-02-14T09:52:07.797Z</time>
      </trkpt>
      <trkpt lat="45.60423" lon="5.50289">
        <ele>396</ele>
        <time>2023-02-14T09:52:08.797Z</time>
      </trkpt>
      <trkpt lat="45.60422" lon="5.50287">
        <ele>396</ele>
        <time>2023-02-14T09:52:09.797Z</time>
      </trkpt>
      <trkpt lat="45.6042" lon="5.50285">
        <ele>396</ele>
        <time>2023-02-14T09:52:10.797Z</time>
      </trkpt>
      <trkpt lat="45.60419" lon="5.50284">
        <ele>396</ele>
        <time>2023-02-14T09:52:11.797Z</time>
      </trkpt>
      <trkpt lat="45.60418" lon="5.50283">
        <ele>396</ele>
        <time>2023-02-14T09:52:12.797Z</time>
      </trkpt>
      <trkpt lat="45.60417" lon="5.50281">
        <ele>396</ele>
        <time>2023-02-14T09:52:13.797Z</time>
      </trkpt>
      <trkpt lat="45.60416" lon="5.50279">
        <ele>397</ele>
        <time>2023-02-14T09:52:14.797Z</time>
      </trkpt>
      <trkpt lat="45.60414" lon="5.50278">
        <ele>397</ele>
        <time>2023-02-14T09:52:15.797Z</time>
      </trkpt>
      <trkpt lat="45.60413" lon="5.50276">
        <ele>397</ele>
        <time>2023-02-14T09:52:16.797Z</time>
      </trkpt>
      <trkpt lat="45.60412" lon="5.50274">
        <ele>397</ele>
        <time>2023-02-14T09:52:17.797Z</time>
      </trkpt>
      <trkpt lat="45.60411" lon="5.50272">
        <ele>397</ele>
        <time>2023-02-14T09:52:18.797Z</time>
      </trkpt>
      <trkpt lat="45.6041" lon="5.50271">
        <ele>398</ele>
        <time>2023-02-14T09:52:19.797Z</time>
      </trkpt>
      <trkpt lat="45.60409" lon="5.50269">
        <ele>398</ele>
        <time>2023-02-14T09:52:20.797Z</time>
      </trkpt>
      <trkpt lat="45.60408" lon="5.50267">
        <ele>398</ele>
        <time>2023-02-14T09:52:21.797Z</time>
      </trkpt>
      <trkpt lat="45.60407" lon="5.50265">
        <ele>398</ele>
        <time>2023-02-14T09:52:22.797Z</time>
      </trkpt>
      <trkpt lat="45.60406" lon="5.50263">
        <ele>398</ele>
        <time>2023-02-14T09:52:23.797Z</time>
      </trkpt>
      <trkpt lat="45.60406" lon="5.50261">
        <ele>398</ele>
        <time>2023-02-14T09:52:24.797Z</time>
      </trkpt>
      <trkpt lat="45.60405" lon="5.50259">
        <ele>399</ele>
        <time>2023-02-14T09:52:25.797Z</time>
      </trkpt>
      <trkpt lat="45.60404" lon="5.50257">
        <ele>399</ele>
        <time>2023-02-14T09:52:26.797Z</time>
      </trkpt>
      <trkpt lat="45.60403" lon="5.50255">
        <ele>399</ele>
        <time>2023-02-14T09:52:27.797Z</time>
      </trkpt>
      <trkpt lat="45.60402" lon="5.50253">
        <ele>399</ele>
        <time>2023-02-14T09:52:28.797Z</time>
      </trkpt>
      <trkpt lat="45.60401" lon="5.50251">
        <ele>400</ele>
        <time>2023-02-14T09:52:29.797Z</time>
      </trkpt>
      <trkpt lat="45.604" lon="5.50249">
        <ele>400</ele>
        <time>2023-02-14T09:52:30.797Z</time>
      </trkpt>
      <trkpt lat="45.60399" lon="5.50247">
        <ele>400</ele>
        <time>2023-02-14T09:52:31.797Z</time>
      </trkpt>
      <trkpt lat="45.60398" lon="5.50245">
        <ele>400</ele>
        <time>2023-02-14T09:52:32.797Z</time>
      </trkpt>
      <trkpt lat="45.60398" lon="5.50243">
        <ele>400</ele>
        <time>2023-02-14T09:52:33.797Z</time>
      </trkpt>
      <trkpt lat="45.60397" lon="5.50241">
        <ele>400</ele>
        <time>2023-02-14T09:52:34.797Z</time>
      </trkpt>
      <trkpt lat="45.60397" lon="5.50238">
        <ele>400</ele>
        <time>2023-02-14T09:52:35.797Z</time>
      </trkpt>
      <trkpt lat="45.60396" lon="5.50236">
        <ele>400</ele>
        <time>2023-02-14T09:52:36.797Z</time>
      </trkpt>
      <trkpt lat="45.60396" lon="5.50234">
        <ele>401</ele>
        <time>2023-02-14T09:52:37.797Z</time>
      </trkpt>
      <trkpt lat="45.60395" lon="5.50232">
        <ele>401</ele>
        <time>2023-02-14T09:52:38.797Z</time>
      </trkpt>
      <trkpt lat="45.60394" lon="5.5023">
        <ele>401</ele>
        <time>2023-02-14T09:52:39.797Z</time>
      </trkpt>
      <trkpt lat="45.60394" lon="5.50227">
        <ele>401</ele>
        <time>2023-02-14T09:52:40.797Z</time>
      </trkpt>
      <trkpt lat="45.60393" lon="5.50225">
        <ele>402</ele>
        <time>2023-02-14T09:52:41.797Z</time>
      </trkpt>
      <trkpt lat="45.60393" lon="5.50223">
        <ele>402</ele>
        <time>2023-02-14T09:52:42.797Z</time>
      </trkpt>
      <trkpt lat="45.60392" lon="5.5022">
        <ele>402</ele>
        <time>2023-02-14T09:52:43.797Z</time>
      </trkpt>
      <trkpt lat="45.60392" lon="5.50218">
        <ele>402</ele>
        <time>2023-02-14T09:52:44.797Z</time>
      </trkpt>
      <trkpt lat="45.60391" lon="5.50215">
        <ele>403</ele>
        <time>2023-02-14T09:52:45.797Z</time>
      </trkpt>
      <trkpt lat="45.60391" lon="5.50212">
        <ele>403</ele>
        <time>2023-02-14T09:52:46.797Z</time>
      </trkpt>
      <trkpt lat="45.6039" lon="5.5021">
        <ele>403</ele>
        <time>2023-02-14T09:52:47.797Z</time>
      </trkpt>
      <trkpt lat="45.6039" lon="5.50207">
        <ele>403</ele>
        <time>2023-02-14T09:52:48.797Z</time>
      </trkpt>
      <trkpt lat="45.60389" lon="5.50205">
        <ele>403</ele>
        <time>2023-02-14T09:52:49.797Z</time>
      </trkpt>
      <trkpt lat="45.60389" lon="5.50202">
        <ele>404</ele>
        <time>2023-02-14T09:52:50.797Z</time>
      </trkpt>
      <trkpt lat="45.60388" lon="5.50199">
        <ele>404</ele>
        <time>2023-02-14T09:52:51.797Z</time>
      </trkpt>
      <trkpt lat="45.60388" lon="5.50197">
        <ele>404</ele>
        <time>2023-02-14T09:52:52.797Z</time>
      </trkpt>
      <trkpt lat="45.60387" lon="5.50194">
        <ele>404</ele>
        <time>2023-02-14T09:52:53.797Z</time>
      </trkpt>
      <trkpt lat="45.60387" lon="5.50191">
        <ele>405</ele>
        <time>2023-02-14T09:52:54.797Z</time>
      </trkpt>
      <trkpt lat="45.60387" lon="5.50188">
        <ele>405</ele>
        <time>2023-02-14T09:52:55.797Z</time>
      </trkpt>
      <trkpt lat="45.60387" lon="5.50185">
        <ele>405</ele>
        <time>2023-02-14T09:52:56.797Z</time>
      </trkpt>
      <trkpt lat="45.60387" lon="5.50182">
        <ele>405</ele>
        <time>2023-02-14T09:52:57.797Z</time>
      </trkpt>
      <trkpt lat="45.60386" lon="5.50179">
        <ele>405</ele>
        <time>2023-02-14T09:52:58.797Z</time>
      </trkpt>
      <trkpt lat="45.60386" lon="5.50176">
        <ele>406</ele>
        <time>2023-02-14T09:52:59.797Z</time>
      </trkpt>
      <trkpt lat="45.60386" lon="5.50174">
        <ele>406</ele>
        <time>2023-02-14T09:53:00.797Z</time>
      </trkpt>
      <trkpt lat="45.60385" lon="5.50171">
        <ele>406</ele>
        <time>2023-02-14T09:53:01.797Z</time>
      </trkpt>
      <trkpt lat="45.60385" lon="5.50168">
        <ele>406</ele>
        <time>2023-02-14T09:53:02.797Z</time>
      </trkpt>
      <trkpt lat="45.60385" lon="5.50165">
        <ele>406</ele>
        <time>2023-02-14T09:53:03.797Z</time>
      </trkpt>
      <trkpt lat="45.60384" lon="5.50162">
        <ele>406</ele>
        <time>2023-02-14T09:53:04.797Z</time>
      </trkpt>
      <trkpt lat="45.60384" lon="5.5016">
        <ele>406</ele>
        <time>2023-02-14T09:53:05.797Z</time>
      </trkpt>
      <trkpt lat="45.60383" lon="5.50157">
        <ele>407</ele>
        <time>2023-02-14T09:53:06.797Z</time>
      </trkpt>
      <trkpt lat="45.60383" lon="5.50154">
        <ele>406</ele>
        <time>2023-02-14T09:53:07.797Z</time>
      </trkpt>
      <trkpt lat="45.60383" lon="5.50151">
        <ele>406</ele>
        <time>2023-02-14T09:53:08.797Z</time>
      </trkpt>
      <trkpt lat="45.60382" lon="5.50148">
        <ele>406</ele>
        <time>2023-02-14T09:53:09.797Z</time>
      </trkpt>
      <trkpt lat="45.60382" lon="5.50145">
        <ele>406</ele>
        <time>2023-02-14T09:53:10.797Z</time>
      </trkpt>
      <trkpt lat="45.60381" lon="5.50142">
        <ele>406</ele>
        <time>2023-02-14T09:53:11.797Z</time>
      </trkpt>
      <trkpt lat="45.60381" lon="5.50139">
        <ele>406</ele>
        <time>2023-02-14T09:53:12.797Z</time>
      </trkpt>
      <trkpt lat="45.60381" lon="5.50135">
        <ele>407</ele>
        <time>2023-02-14T09:53:13.797Z</time>
      </trkpt>
      <trkpt lat="45.6038" lon="5.50132">
        <ele>407</ele>
        <time>2023-02-14T09:53:14.797Z</time>
      </trkpt>
      <trkpt lat="45.6038" lon="5.50129">
        <ele>407</ele>
        <time>2023-02-14T09:53:15.797Z</time>
      </trkpt>
      <trkpt lat="45.6038" lon="5.50125">
        <ele>407</ele>
        <time>2023-02-14T09:53:16.797Z</time>
      </trkpt>
      <trkpt lat="45.6038" lon="5.50122">
        <ele>407</ele>
        <time>2023-02-14T09:53:17.797Z</time>
      </trkpt>
      <trkpt lat="45.60379" lon="5.50119">
        <ele>407</ele>
        <time>2023-02-14T09:53:18.797Z</time>
      </trkpt>
      <trkpt lat="45.60379" lon="5.50115">
        <ele>408</ele>
        <time>2023-02-14T09:53:19.797Z</time>
      </trkpt>
      <trkpt lat="45.60379" lon="5.50112">
        <ele>408</ele>
        <time>2023-02-14T09:53:20.797Z</time>
      </trkpt>
      <trkpt lat="45.60378" lon="5.50108">
        <ele>408</ele>
        <time>2023-02-14T09:53:21.797Z</time>
      </trkpt>
      <trkpt lat="45.60378" lon="5.50105">
        <ele>408</ele>
        <time>2023-02-14T09:53:22.797Z</time>
      </trkpt>
      <trkpt lat="45.60378" lon="5.50101">
        <ele>408</ele>
        <time>2023-02-14T09:53:23.797Z</time>
      </trkpt>
      <trkpt lat="45.60377" lon="5.50098">
        <ele>408</ele>
        <time>2023-02-14T09:53:24.797Z</time>
      </trkpt>
      <trkpt lat="45.60377" lon="5.50095">
        <ele>408</ele>
        <time>2023-02-14T09:53:25.797Z</time>
      </trkpt>
      <trkpt lat="45.60377" lon="5.50091">
        <ele>408</ele>
        <time>2023-02-14T09:53:26.797Z</time>
      </trkpt>
      <trkpt lat="45.60376" lon="5.50088">
        <ele>408</ele>
        <time>2023-02-14T09:53:27.797Z</time>
      </trkpt>
      <trkpt lat="45.60376" lon="5.50085">
        <ele>408</ele>
        <time>2023-02-14T09:53:28.797Z</time>
      </trkpt>
      <trkpt lat="45.60376" lon="5.50081">
        <ele>408</ele>
        <time>2023-02-14T09:53:29.797Z</time>
      </trkpt>
      <trkpt lat="45.60375" lon="5.50077">
        <ele>408</ele>
        <time>2023-02-14T09:53:30.797Z</time>
      </trkpt>
      <trkpt lat="45.60375" lon="5.50074">
        <ele>408</ele>
        <time>2023-02-14T09:53:31.797Z</time>
      </trkpt>
      <trkpt lat="45.60375" lon="5.5007">
        <ele>408</ele>
        <time>2023-02-14T09:53:32.797Z</time>
      </trkpt>
      <trkpt lat="45.60374" lon="5.50067">
        <ele>408</ele>
        <time>2023-02-14T09:53:33.797Z</time>
      </trkpt>
      <trkpt lat="45.60374" lon="5.50064">
        <ele>408</ele>
        <time>2023-02-14T09:53:34.797Z</time>
      </trkpt>
      <trkpt lat="45.60374" lon="5.5006">
        <ele>408</ele>
        <time>2023-02-14T09:53:35.797Z</time>
      </trkpt>
      <trkpt lat="45.60374" lon="5.50056">
        <ele>408</ele>
        <time>2023-02-14T09:53:36.797Z</time>
      </trkpt>
      <trkpt lat="45.60373" lon="5.50053">
        <ele>408</ele>
        <time>2023-02-14T09:53:37.797Z</time>
      </trkpt>
      <trkpt lat="45.60373" lon="5.50049">
        <ele>408</ele>
        <time>2023-02-14T09:53:38.797Z</time>
      </trkpt>
      <trkpt lat="45.60373" lon="5.50045">
        <ele>408</ele>
        <time>2023-02-14T09:53:39.797Z</time>
      </trkpt>
      <trkpt lat="45.60372" lon="5.50041">
        <ele>408</ele>
        <time>2023-02-14T09:53:40.797Z</time>
      </trkpt>
      <trkpt lat="45.60372" lon="5.50037">
        <ele>408</ele>
        <time>2023-02-14T09:53:41.797Z</time>
      </trkpt>
      <trkpt lat="45.60371" lon="5.50033">
        <ele>408</ele>
        <time>2023-02-14T09:53:42.797Z</time>
      </trkpt>
      <trkpt lat="45.60371" lon="5.50029">
        <ele>408</ele>
        <time>2023-02-14T09:53:43.797Z</time>
      </trkpt>
      <trkpt lat="45.6037" lon="5.50025">
        <ele>408</ele>
        <time>2023-02-14T09:53:44.797Z</time>
      </trkpt>
      <trkpt lat="45.6037" lon="5.50021">
        <ele>408</ele>
        <time>2023-02-14T09:53:45.797Z</time>
      </trkpt>
      <trkpt lat="45.6037" lon="5.50017">
        <ele>408</ele>
        <time>2023-02-14T09:53:46.797Z</time>
      </trkpt>
      <trkpt lat="45.60369" lon="5.50013">
        <ele>408</ele>
        <time>2023-02-14T09:53:47.797Z</time>
      </trkpt>
      <trkpt lat="45.60369" lon="5.50009">
        <ele>408</ele>
        <time>2023-02-14T09:53:48.797Z</time>
      </trkpt>
      <trkpt lat="45.60368" lon="5.50005">
        <ele>409</ele>
        <time>2023-02-14T09:53:49.797Z</time>
      </trkpt>
      <trkpt lat="45.60368" lon="5.50001">
        <ele>409</ele>
        <time>2023-02-14T09:53:50.797Z</time>
      </trkpt>
      <trkpt lat="45.60368" lon="5.49996">
        <ele>409</ele>
        <time>2023-02-14T09:53:51.797Z</time>
      </trkpt>
      <trkpt lat="45.60367" lon="5.49992">
        <ele>409</ele>
        <time>2023-02-14T09:53:52.797Z</time>
      </trkpt>
      <trkpt lat="45.60367" lon="5.49988">
        <ele>408</ele>
        <time>2023-02-14T09:53:53.797Z</time>
      </trkpt>
      <trkpt lat="45.60366" lon="5.49984">
        <ele>408</ele>
        <time>2023-02-14T09:53:54.797Z</time>
      </trkpt>
      <trkpt lat="45.60366" lon="5.4998">
        <ele>408</ele>
        <time>2023-02-14T09:53:55.797Z</time>
      </trkpt>
      <trkpt lat="45.60365" lon="5.49975">
        <ele>408</ele>
        <time>2023-02-14T09:53:56.797Z</time>
      </trkpt>
      <trkpt lat="45.60364" lon="5.49971">
        <ele>408</ele>
        <time>2023-02-14T09:53:57.797Z</time>
      </trkpt>
      <trkpt lat="45.60364" lon="5.49966">
        <ele>408</ele>
        <time>2023-02-14T09:53:58.797Z</time>
      </trkpt>
      <trkpt lat="45.60363" lon="5.49962">
        <ele>408</ele>
        <time>2023-02-14T09:53:59.797Z</time>
      </trkpt>
      <trkpt lat="45.60362" lon="5.49957">
        <ele>408</ele>
        <time>2023-02-14T09:54:00.797Z</time>
      </trkpt>
      <trkpt lat="45.60362" lon="5.49953">
        <ele>408</ele>
        <time>2023-02-14T09:54:01.797Z</time>
      </trkpt>
      <trkpt lat="45.60361" lon="5.49948">
        <ele>408</ele>
        <time>2023-02-14T09:54:02.797Z</time>
      </trkpt>
      <trkpt lat="45.6036" lon="5.49944">
        <ele>409</ele>
        <time>2023-02-14T09:54:03.797Z</time>
      </trkpt>
      <trkpt lat="45.6036" lon="5.4994">
        <ele>409</ele>
        <time>2023-02-14T09:54:04.797Z</time>
      </trkpt>
      <trkpt lat="45.60359" lon="5.49937">
        <ele>409</ele>
        <time>2023-02-14T09:54:05.797Z</time>
      </trkpt>
      <trkpt lat="45.60359" lon="5.49934">
        <ele>409</ele>
        <time>2023-02-14T09:54:06.797Z</time>
      </trkpt>
      <trkpt lat="45.60359" lon="5.49931">
        <ele>409</ele>
        <time>2023-02-14T09:54:07.797Z</time>
      </trkpt>
      <trkpt lat="45.60359" lon="5.49927">
        <ele>408</ele>
        <time>2023-02-14T09:54:08.797Z</time>
      </trkpt>
      <trkpt lat="45.60359" lon="5.49924">
        <ele>409</ele>
        <time>2023-02-14T09:54:09.797Z</time>
      </trkpt>
      <trkpt lat="45.60358" lon="5.4992">
        <ele>409</ele>
        <time>2023-02-14T09:54:10.797Z</time>
      </trkpt>
      <trkpt lat="45.60357" lon="5.49918">
        <ele>410</ele>
        <time>2023-02-14T09:54:11.797Z</time>
      </trkpt>
      <trkpt lat="45.60356" lon="5.49917">
        <ele>409</ele>
        <time>2023-02-14T09:54:12.797Z</time>
      </trkpt>
      <trkpt lat="45.60355" lon="5.49917">
        <ele>407</ele>
        <time>2023-02-14T09:54:13.797Z</time>
      </trkpt>
      <trkpt lat="45.60354" lon="5.49918">
        <ele>406</ele>
        <time>2023-02-14T09:54:14.797Z</time>
      </trkpt>
      <trkpt lat="45.60354" lon="5.49919">
        <ele>406</ele>
        <time>2023-02-14T09:54:15.797Z</time>
      </trkpt>
      <trkpt lat="45.60354" lon="5.4992">
        <ele>406</ele>
        <time>2023-02-14T09:54:16.797Z</time>
      </trkpt>
      <trkpt lat="45.60354" lon="5.49921">
        <ele>407</ele>
        <time>2023-02-14T09:54:17.797Z</time>
      </trkpt>
      <trkpt lat="45.60354" lon="5.49922">
        <ele>406</ele>
        <time>2023-02-14T09:54:18.797Z</time>
      </trkpt>
      <trkpt lat="45.60354" lon="5.49924">
        <ele>406</ele>
        <time>2023-02-14T09:54:19.797Z</time>
      </trkpt>
      <trkpt lat="45.60354" lon="5.49927">
        <ele>406</ele>
        <time>2023-02-14T09:54:20.797Z</time>
      </trkpt>
      <trkpt lat="45.60353" lon="5.49929">
        <ele>406</ele>
        <time>2023-02-14T09:54:21.797Z</time>
      </trkpt>
      <trkpt lat="45.60353" lon="5.49932">
        <ele>405</ele>
        <time>2023-02-14T09:54:22.797Z</time>
      </trkpt>
      <trkpt lat="45.60352" lon="5.49935">
        <ele>405</ele>
        <time>2023-02-14T09:54:23.797Z</time>
      </trkpt>
      <trkpt lat="45.60352" lon="5.49937">
        <ele>405</ele>
        <time>2023-02-14T09:54:24.797Z</time>
      </trkpt>
      <trkpt lat="45.60351" lon="5.4994">
        <ele>404</ele>
        <time>2023-02-14T09:54:25.797Z</time>
      </trkpt>
      <trkpt lat="45.6035" lon="5.49943">
        <ele>404</ele>
        <time>2023-02-14T09:54:26.797Z</time>
      </trkpt>
      <trkpt lat="45.6035" lon="5.49947">
        <ele>404</ele>
        <time>2023-02-14T09:54:27.797Z</time>
      </trkpt>
      <trkpt lat="45.6035" lon="5.49952">
        <ele>403</ele>
        <time>2023-02-14T09:54:28.797Z</time>
      </trkpt>
      <trkpt lat="45.60349" lon="5.49956">
        <ele>402</ele>
        <time>2023-02-14T09:54:29.797Z</time>
      </trkpt>
      <trkpt lat="45.60349" lon="5.49961">
        <ele>402</ele>
        <time>2023-02-14T09:54:30.797Z</time>
      </trkpt>
      <trkpt lat="45.60348" lon="5.49966">
        <ele>401</ele>
        <time>2023-02-14T09:54:31.797Z</time>
      </trkpt>
      <trkpt lat="45.60347" lon="5.49971">
        <ele>401</ele>
        <time>2023-02-14T09:54:32.797Z</time>
      </trkpt>
      <trkpt lat="45.60347" lon="5.49977">
        <ele>400</ele>
        <time>2023-02-14T09:54:33.797Z</time>
      </trkpt>
      <trkpt lat="45.60347" lon="5.49982">
        <ele>399</ele>
        <time>2023-02-14T09:54:34.797Z</time>
      </trkpt>
      <trkpt lat="45.60347" lon="5.49988">
        <ele>399</ele>
        <time>2023-02-14T09:54:35.797Z</time>
      </trkpt>
      <trkpt lat="45.60347" lon="5.49995">
        <ele>398</ele>
        <time>2023-02-14T09:54:36.797Z</time>
      </trkpt>
      <trkpt lat="45.60346" lon="5.50003">
        <ele>395</ele>
        <time>2023-02-14T09:54:37.797Z</time>
      </trkpt>
      <trkpt lat="45.60345" lon="5.50011">
        <ele>393</ele>
        <time>2023-02-14T09:54:38.797Z</time>
      </trkpt>
      <trkpt lat="45.60344" lon="5.5002">
        <ele>392</ele>
        <time>2023-02-14T09:54:39.797Z</time>
      </trkpt>
      <trkpt lat="45.60343" lon="5.50028">
        <ele>390</ele>
        <time>2023-02-14T09:54:40.797Z</time>
      </trkpt>
      <trkpt lat="45.60343" lon="5.50037">
        <ele>389</ele>
        <time>2023-02-14T09:54:41.797Z</time>
      </trkpt>
      <trkpt lat="45.60342" lon="5.50046">
        <ele>389</ele>
        <time>2023-02-14T09:54:42.797Z</time>
      </trkpt>
      <trkpt lat="45.60342" lon="5.50055">
        <ele>389</ele>
        <time>2023-02-14T09:54:43.797Z</time>
      </trkpt>
      <trkpt lat="45.60341" lon="5.50064">
        <ele>388</ele>
        <time>2023-02-14T09:54:44.797Z</time>
      </trkpt>
      <trkpt lat="45.60341" lon="5.50073">
        <ele>387</ele>
        <time>2023-02-14T09:54:45.797Z</time>
      </trkpt>
      <trkpt lat="45.60341" lon="5.50082">
        <ele>385</ele>
        <time>2023-02-14T09:54:46.797Z</time>
      </trkpt>
      <trkpt lat="45.60341" lon="5.50091">
        <ele>385</ele>
        <time>2023-02-14T09:54:47.797Z</time>
      </trkpt>
      <trkpt lat="45.6034" lon="5.501">
        <ele>384</ele>
        <time>2023-02-14T09:54:48.797Z</time>
      </trkpt>
      <trkpt lat="45.6034" lon="5.50109">
        <ele>384</ele>
        <time>2023-02-14T09:54:49.797Z</time>
      </trkpt>
      <trkpt lat="45.6034" lon="5.50118">
        <ele>383</ele>
        <time>2023-02-14T09:54:50.797Z</time>
      </trkpt>
      <trkpt lat="45.60339" lon="5.50127">
        <ele>382</ele>
        <time>2023-02-14T09:54:51.797Z</time>
      </trkpt>
      <trkpt lat="45.60339" lon="5.50137">
        <ele>381</ele>
        <time>2023-02-14T09:54:52.797Z</time>
      </trkpt>
      <trkpt lat="45.60339" lon="5.50146">
        <ele>379</ele>
        <time>2023-02-14T09:54:53.797Z</time>
      </trkpt>
      <trkpt lat="45.60339" lon="5.50155">
        <ele>378</ele>
        <time>2023-02-14T09:54:54.797Z</time>
      </trkpt>
      <trkpt lat="45.60338" lon="5.50164">
        <ele>378</ele>
        <time>2023-02-14T09:54:55.797Z</time>
      </trkpt>
      <trkpt lat="45.60338" lon="5.50172">
        <ele>376</ele>
        <time>2023-02-14T09:54:56.797Z</time>
      </trkpt>
      <trkpt lat="45.60337" lon="5.5018">
        <ele>374</ele>
        <time>2023-02-14T09:54:57.797Z</time>
      </trkpt>
      <trkpt lat="45.60336" lon="5.50189">
        <ele>373</ele>
        <time>2023-02-14T09:54:58.797Z</time>
      </trkpt>
      <trkpt lat="45.60335" lon="5.50197">
        <ele>373</ele>
        <time>2023-02-14T09:54:59.797Z</time>
      </trkpt>
      <trkpt lat="45.60334" lon="5.50204">
        <ele>372</ele>
        <time>2023-02-14T09:55:00.797Z</time>
      </trkpt>
      <trkpt lat="45.60333" lon="5.50211">
        <ele>371</ele>
        <time>2023-02-14T09:55:01.797Z</time>
      </trkpt>
      <trkpt lat="45.60332" lon="5.50217">
        <ele>370</ele>
        <time>2023-02-14T09:55:02.797Z</time>
      </trkpt>
      <trkpt lat="45.60332" lon="5.50224">
        <ele>369</ele>
        <time>2023-02-14T09:55:03.797Z</time>
      </trkpt>
      <trkpt lat="45.60332" lon="5.50229">
        <ele>368</ele>
        <time>2023-02-14T09:55:04.797Z</time>
      </trkpt>
      <trkpt lat="45.60331" lon="5.50235">
        <ele>369</ele>
        <time>2023-02-14T09:55:05.797Z</time>
      </trkpt>
      <trkpt lat="45.6033" lon="5.5024">
        <ele>369</ele>
        <time>2023-02-14T09:55:06.797Z</time>
      </trkpt>
      <trkpt lat="45.60329" lon="5.50246">
        <ele>367</ele>
        <time>2023-02-14T09:55:07.797Z</time>
      </trkpt>
      <trkpt lat="45.60328" lon="5.50251">
        <ele>366</ele>
        <time>2023-02-14T09:55:08.797Z</time>
      </trkpt>
      <trkpt lat="45.60328" lon="5.50256">
        <ele>365</ele>
        <time>2023-02-14T09:55:09.797Z</time>
      </trkpt>
      <trkpt lat="45.60327" lon="5.5026">
        <ele>364</ele>
        <time>2023-02-14T09:55:10.797Z</time>
      </trkpt>
      <trkpt lat="45.60326" lon="5.50265">
        <ele>364</ele>
        <time>2023-02-14T09:55:11.797Z</time>
      </trkpt>
      <trkpt lat="45.60325" lon="5.5027">
        <ele>363</ele>
        <time>2023-02-14T09:55:12.797Z</time>
      </trkpt>
      <trkpt lat="45.60324" lon="5.50274">
        <ele>362</ele>
        <time>2023-02-14T09:55:13.797Z</time>
      </trkpt>
      <trkpt lat="45.60323" lon="5.50279">
        <ele>362</ele>
        <time>2023-02-14T09:55:14.797Z</time>
      </trkpt>
      <trkpt lat="45.60323" lon="5.50284">
        <ele>363</ele>
        <time>2023-02-14T09:55:15.797Z</time>
      </trkpt>
      <trkpt lat="45.60322" lon="5.50289">
        <ele>362</ele>
        <time>2023-02-14T09:55:16.797Z</time>
      </trkpt>
      <trkpt lat="45.60321" lon="5.50294">
        <ele>360</ele>
        <time>2023-02-14T09:55:17.797Z</time>
      </trkpt>
      <trkpt lat="45.6032" lon="5.50299">
        <ele>356</ele>
        <time>2023-02-14T09:55:18.797Z</time>
      </trkpt>
      <trkpt lat="45.60318" lon="5.50306">
        <ele>353</ele>
        <time>2023-02-14T09:55:19.797Z</time>
      </trkpt>
      <trkpt lat="45.60317" lon="5.50312">
        <ele>352</ele>
        <time>2023-02-14T09:55:20.797Z</time>
      </trkpt>
      <trkpt lat="45.60316" lon="5.50318">
        <ele>351</ele>
        <time>2023-02-14T09:55:21.797Z</time>
      </trkpt>
      <trkpt lat="45.60315" lon="5.50323">
        <ele>348</ele>
        <time>2023-02-14T09:55:22.797Z</time>
      </trkpt>
      <trkpt lat="45.60314" lon="5.50329">
        <ele>345</ele>
        <time>2023-02-14T09:55:23.797Z</time>
      </trkpt>
      <trkpt lat="45.60313" lon="5.50336">
        <ele>344</ele>
        <time>2023-02-14T09:55:24.797Z</time>
      </trkpt>
      <trkpt lat="45.60311" lon="5.50342">
        <ele>341</ele>
        <time>2023-02-14T09:55:25.797Z</time>
      </trkpt>
      <trkpt lat="45.6031" lon="5.50349">
        <ele>339</ele>
        <time>2023-02-14T09:55:26.797Z</time>
      </trkpt>
      <trkpt lat="45.60309" lon="5.50354">
        <ele>337</ele>
        <time>2023-02-14T09:55:27.797Z</time>
      </trkpt>
      <trkpt lat="45.60308" lon="5.50359">
        <ele>336</ele>
        <time>2023-02-14T09:55:28.797Z</time>
      </trkpt>
      <trkpt lat="45.60307" lon="5.50364">
        <ele>334</ele>
        <time>2023-02-14T09:55:29.797Z</time>
      </trkpt>
      <trkpt lat="45.60306" lon="5.50369">
        <ele>334</ele>
        <time>2023-02-14T09:55:30.797Z</time>
      </trkpt>
      <trkpt lat="45.60305" lon="5.50374">
        <ele>334</ele>
        <time>2023-02-14T09:55:31.797Z</time>
      </trkpt>
      <trkpt lat="45.60303" lon="5.50379">
        <ele>334</ele>
        <time>2023-02-14T09:55:32.797Z</time>
      </trkpt>
      <trkpt lat="45.60303" lon="5.50385">
        <ele>335</ele>
        <time>2023-02-14T09:55:33.797Z</time>
      </trkpt>
      <trkpt lat="45.60303" lon="5.5039">
        <ele>336</ele>
        <time>2023-02-14T09:55:34.797Z</time>
      </trkpt>
      <trkpt lat="45.60304" lon="5.50395">
        <ele>337</ele>
        <time>2023-02-14T09:55:35.797Z</time>
      </trkpt>
      <trkpt lat="45.60306" lon="5.50399">
        <ele>338</ele>
        <time>2023-02-14T09:55:36.797Z</time>
      </trkpt>
      <trkpt lat="45.60308" lon="5.50403">
        <ele>340</ele>
        <time>2023-02-14T09:55:37.797Z</time>
      </trkpt>
      <trkpt lat="45.6031" lon="5.50406">
        <ele>340</ele>
        <time>2023-02-14T09:55:38.797Z</time>
      </trkpt>
      <trkpt lat="45.60312" lon="5.50408">
        <ele>340</ele>
        <time>2023-02-14T09:55:39.797Z</time>
      </trkpt>
      <trkpt lat="45.60314" lon="5.5041">
        <ele>341</ele>
        <time>2023-02-14T09:55:40.797Z</time>
      </trkpt>
      <trkpt lat="45.60316" lon="5.50411">
        <ele>342</ele>
        <time>2023-02-14T09:55:41.797Z</time>
      </trkpt>
      <trkpt lat="45.60317" lon="5.50412">
        <ele>344</ele>
        <time>2023-02-14T09:55:42.797Z</time>
      </trkpt>
      <trkpt lat="45.60319" lon="5.50413">
        <ele>345</ele>
        <time>2023-02-14T09:55:43.797Z</time>
      </trkpt>
      <trkpt lat="45.6032" lon="5.50415">
        <ele>346</ele>
        <time>2023-02-14T09:55:44.797Z</time>
      </trkpt>
      <trkpt lat="45.60322" lon="5.50416">
        <ele>348</ele>
        <time>2023-02-14T09:55:45.797Z</time>
      </trkpt>
      <trkpt lat="45.60323" lon="5.50417">
        <ele>350</ele>
        <time>2023-02-14T09:55:46.797Z</time>
      </trkpt>
      <trkpt lat="45.60325" lon="5.50417">
        <ele>351</ele>
        <time>2023-02-14T09:55:47.797Z</time>
      </trkpt>
      <trkpt lat="45.60326" lon="5.50418">
        <ele>351</ele>
        <time>2023-02-14T09:55:48.797Z</time>
      </trkpt>
      <trkpt lat="45.60328" lon="5.50418">
        <ele>353</ele>
        <time>2023-02-14T09:55:49.797Z</time>
      </trkpt>
      <trkpt lat="45.60329" lon="5.50419">
        <ele>354</ele>
        <time>2023-02-14T09:55:50.797Z</time>
      </trkpt>
      <trkpt lat="45.60331" lon="5.5042">
        <ele>354</ele>
        <time>2023-02-14T09:55:51.797Z</time>
      </trkpt>
      <trkpt lat="45.60332" lon="5.5042">
        <ele>355</ele>
        <time>2023-02-14T09:55:52.797Z</time>
      </trkpt>
      <trkpt lat="45.60334" lon="5.5042">
        <ele>356</ele>
        <time>2023-02-14T09:55:53.797Z</time>
      </trkpt>
      <trkpt lat="45.60336" lon="5.50421">
        <ele>358</ele>
        <time>2023-02-14T09:55:54.797Z</time>
      </trkpt>
      <trkpt lat="45.60337" lon="5.50421">
        <ele>357</ele>
        <time>2023-02-14T09:55:55.797Z</time>
      </trkpt>
      <trkpt lat="45.60339" lon="5.50421">
        <ele>358</ele>
        <time>2023-02-14T09:55:56.797Z</time>
      </trkpt>
      <trkpt lat="45.60341" lon="5.50422">
        <ele>359</ele>
        <time>2023-02-14T09:55:57.797Z</time>
      </trkpt>
      <trkpt lat="45.60342" lon="5.50422">
        <ele>359</ele>
        <time>2023-02-14T09:55:58.797Z</time>
      </trkpt>
      <trkpt lat="45.60343" lon="5.50422">
        <ele>360</ele>
        <time>2023-02-14T09:55:59.797Z</time>
      </trkpt>
      <trkpt lat="45.60344" lon="5.50422">
        <ele>360</ele>
        <time>2023-02-14T09:56:00.797Z</time>
      </trkpt>
      <trkpt lat="45.60346" lon="5.50422">
        <ele>362</ele>
        <time>2023-02-14T09:56:01.797Z</time>
      </trkpt>
      <trkpt lat="45.60348" lon="5.50422">
        <ele>363</ele>
        <time>2023-02-14T09:56:02.797Z</time>
      </trkpt>
      <trkpt lat="45.60349" lon="5.50422">
        <ele>364</ele>
        <time>2023-02-14T09:56:03.797Z</time>
      </trkpt>
      <trkpt lat="45.60351" lon="5.50423">
        <ele>365</ele>
        <time>2023-02-14T09:56:04.797Z</time>
      </trkpt>
      <trkpt lat="45.60352" lon="5.50423">
        <ele>365</ele>
        <time>2023-02-14T09:56:05.797Z</time>
      </trkpt>
      <trkpt lat="45.60354" lon="5.50423">
        <ele>366</ele>
        <time>2023-02-14T09:56:06.797Z</time>
      </trkpt>
      <trkpt lat="45.60355" lon="5.50424">
        <ele>367</ele>
        <time>2023-02-14T09:56:07.797Z</time>
      </trkpt>
      <trkpt lat="45.60356" lon="5.50424">
        <ele>366</ele>
        <time>2023-02-14T09:56:08.797Z</time>
      </trkpt>
      <trkpt lat="45.60358" lon="5.50424">
        <ele>366</ele>
        <time>2023-02-14T09:56:09.797Z</time>
      </trkpt>
      <trkpt lat="45.60359" lon="5.50425">
        <ele>367</ele>
        <time>2023-02-14T09:56:10.797Z</time>
      </trkpt>
      <trkpt lat="45.60361" lon="5.50425">
        <ele>367</ele>
        <time>2023-02-14T09:56:11.797Z</time>
      </trkpt>
      <trkpt lat="45.60362" lon="5.50426">
        <ele>367</ele>
        <time>2023-02-14T09:56:12.797Z</time>
      </trkpt>
      <trkpt lat="45.60363" lon="5.50427">
        <ele>367</ele>
        <time>2023-02-14T09:56:13.797Z</time>
      </trkpt>
      <trkpt lat="45.60364" lon="5.50428">
        <ele>368</ele>
        <time>2023-02-14T09:56:14.797Z</time>
      </trkpt>
      <trkpt lat="45.60365" lon="5.50429">
        <ele>369</ele>
        <time>2023-02-14T09:56:15.797Z</time>
      </trkpt>
      <trkpt lat="45.60367" lon="5.5043">
        <ele>369</ele>
        <time>2023-02-14T09:56:16.797Z</time>
      </trkpt>
      <trkpt lat="45.60368" lon="5.5043">
        <ele>370</ele>
        <time>2023-02-14T09:56:17.797Z</time>
      </trkpt>
      <trkpt lat="45.6037" lon="5.50432">
        <ele>370</ele>
        <time>2023-02-14T09:56:18.797Z</time>
      </trkpt>
      <trkpt lat="45.60371" lon="5.50433">
        <ele>370</ele>
        <time>2023-02-14T09:56:19.797Z</time>
      </trkpt>
      <trkpt lat="45.60373" lon="5.50434">
        <ele>370</ele>
        <time>2023-02-14T09:56:20.797Z</time>
      </trkpt>
      <trkpt lat="45.60374" lon="5.50435">
        <ele>370</ele>
        <time>2023-02-14T09:56:21.797Z</time>
      </trkpt>
      <trkpt lat="45.60375" lon="5.50436">
        <ele>370</ele>
        <time>2023-02-14T09:56:22.797Z</time>
      </trkpt>
      <trkpt lat="45.60376" lon="5.50437">
        <ele>371</ele>
        <time>2023-02-14T09:56:23.797Z</time>
      </trkpt>
      <trkpt lat="45.60378" lon="5.50438">
        <ele>371</ele>
        <time>2023-02-14T09:56:24.797Z</time>
      </trkpt>
      <trkpt lat="45.60379" lon="5.50439">
        <ele>371</ele>
        <time>2023-02-14T09:56:25.797Z</time>
      </trkpt>
      <trkpt lat="45.6038" lon="5.50441">
        <ele>371</ele>
        <time>2023-02-14T09:56:26.797Z</time>
      </trkpt>
      <trkpt lat="45.6038" lon="5.50442">
        <ele>372</ele>
        <time>2023-02-14T09:56:27.797Z</time>
      </trkpt>
      <trkpt lat="45.60381" lon="5.50443">
        <ele>372</ele>
        <time>2023-02-14T09:56:28.797Z</time>
      </trkpt>
      <trkpt lat="45.60382" lon="5.50444">
        <ele>372</ele>
        <time>2023-02-14T09:56:29.797Z</time>
      </trkpt>
      <trkpt lat="45.60382" lon="5.50446">
        <ele>372</ele>
        <time>2023-02-14T09:56:30.797Z</time>
      </trkpt>
      <trkpt lat="45.60383" lon="5.50447">
        <ele>372</ele>
        <time>2023-02-14T09:56:31.797Z</time>
      </trkpt>
      <trkpt lat="45.60384" lon="5.50449">
        <ele>373</ele>
        <time>2023-02-14T09:56:32.797Z</time>
      </trkpt>
      <trkpt lat="45.60384" lon="5.50452">
        <ele>373</ele>
        <time>2023-02-14T09:56:33.797Z</time>
      </trkpt>
      <trkpt lat="45.60385" lon="5.50454">
        <ele>373</ele>
        <time>2023-02-14T09:56:34.797Z</time>
      </trkpt>
      <trkpt lat="45.60385" lon="5.50456">
        <ele>373</ele>
        <time>2023-02-14T09:56:35.797Z</time>
      </trkpt>
      <trkpt lat="45.60385" lon="5.50458">
        <ele>373</ele>
        <time>2023-02-14T09:56:36.797Z</time>
      </trkpt>
      <trkpt lat="45.60385" lon="5.5046">
        <ele>374</ele>
        <time>2023-02-14T09:56:37.797Z</time>
      </trkpt>
      <trkpt lat="45.60386" lon="5.50463">
        <ele>374</ele>
        <time>2023-02-14T09:56:38.797Z</time>
      </trkpt>
      <trkpt lat="45.60386" lon="5.50465">
        <ele>375</ele>
        <time>2023-02-14T09:56:39.797Z</time>
      </trkpt>
      <trkpt lat="45.60385" lon="5.50467">
        <ele>375</ele>
        <time>2023-02-14T09:56:40.797Z</time>
      </trkpt>
      <trkpt lat="45.60385" lon="5.50469">
        <ele>375</ele>
        <time>2023-02-14T09:56:41.797Z</time>
      </trkpt>
      <trkpt lat="45.60385" lon="5.50472">
        <ele>375</ele>
        <time>2023-02-14T09:56:42.797Z</time>
      </trkpt>
      <trkpt lat="45.60385" lon="5.50474">
        <ele>376</ele>
        <time>2023-02-14T09:56:43.797Z</time>
      </trkpt>
      <trkpt lat="45.60386" lon="5.50476">
        <ele>376</ele>
        <time>2023-02-14T09:56:44.797Z</time>
      </trkpt>
      <trkpt lat="45.60385" lon="5.50478">
        <ele>376</ele>
        <time>2023-02-14T09:56:45.797Z</time>
      </trkpt>
      <trkpt lat="45.60385" lon="5.5048">
        <ele>377</ele>
        <time>2023-02-14T09:56:46.797Z</time>
      </trkpt>
      <trkpt lat="45.60385" lon="5.50482">
        <ele>378</ele>
        <time>2023-02-14T09:56:47.797Z</time>
      </trkpt>
      <trkpt lat="45.60385" lon="5.50484">
        <ele>378</ele>
        <time>2023-02-14T09:56:48.797Z</time>
      </trkpt>
      <trkpt lat="45.60385" lon="5.50485">
        <ele>378</ele>
        <time>2023-02-14T09:56:49.797Z</time>
      </trkpt>
      <trkpt lat="45.60384" lon="5.50487">
        <ele>378</ele>
        <time>2023-02-14T09:56:50.797Z</time>
      </trkpt>
      <trkpt lat="45.60384" lon="5.50488">
        <ele>378</ele>
        <time>2023-02-14T09:56:51.797Z</time>
      </trkpt>
      <trkpt lat="45.60383" lon="5.5049">
        <ele>378</ele>
        <time>2023-02-14T09:56:52.797Z</time>
      </trkpt>
      <trkpt lat="45.60382" lon="5.50491">
        <ele>378</ele>
        <time>2023-02-14T09:56:53.797Z</time>
      </trkpt>
      <trkpt lat="45.60382" lon="5.50493">
        <ele>379</ele>
        <time>2023-02-14T09:56:54.797Z</time>
      </trkpt>
      <trkpt lat="45.60381" lon="5.50495">
        <ele>379</ele>
        <time>2023-02-14T09:56:55.797Z</time>
      </trkpt>
      <trkpt lat="45.6038" lon="5.50497">
        <ele>379</ele>
        <time>2023-02-14T09:56:56.797Z</time>
      </trkpt>
      <trkpt lat="45.60379" lon="5.50499">
        <ele>379</ele>
        <time>2023-02-14T09:56:57.797Z</time>
      </trkpt>
      <trkpt lat="45.60379" lon="5.505">
        <ele>379</ele>
        <time>2023-02-14T09:56:58.797Z</time>
      </trkpt>
      <trkpt lat="45.60379" lon="5.50502">
        <ele>379</ele>
        <time>2023-02-14T09:56:59.797Z</time>
      </trkpt>
      <trkpt lat="45.60379" lon="5.50505">
        <ele>379</ele>
        <time>2023-02-14T09:57:00.797Z</time>
      </trkpt>
      <trkpt lat="45.60379" lon="5.50507">
        <ele>380</ele>
        <time>2023-02-14T09:57:01.797Z</time>
      </trkpt>
      <trkpt lat="45.60379" lon="5.50509">
        <ele>380</ele>
        <time>2023-02-14T09:57:02.797Z</time>
      </trkpt>
      <trkpt lat="45.6038" lon="5.50511">
        <ele>381</ele>
        <time>2023-02-14T09:57:03.797Z</time>
      </trkpt>
      <trkpt lat="45.6038" lon="5.50513">
        <ele>381</ele>
        <time>2023-02-14T09:57:04.797Z</time>
      </trkpt>
      <trkpt lat="45.60381" lon="5.50515">
        <ele>381</ele>
        <time>2023-02-14T09:57:05.797Z</time>
      </trkpt>
      <trkpt lat="45.60382" lon="5.50517">
        <ele>382</ele>
        <time>2023-02-14T09:57:06.797Z</time>
      </trkpt>
      <trkpt lat="45.60383" lon="5.50518">
        <ele>382</ele>
        <time>2023-02-14T09:57:07.797Z</time>
      </trkpt>
      <trkpt lat="45.60384" lon="5.5052">
        <ele>382</ele>
        <time>2023-02-14T09:57:08.797Z</time>
      </trkpt>
      <trkpt lat="45.60386" lon="5.50522">
        <ele>383</ele>
        <time>2023-02-14T09:57:09.797Z</time>
      </trkpt>
      <trkpt lat="45.60387" lon="5.50524">
        <ele>383</ele>
        <time>2023-02-14T09:57:10.797Z</time>
      </trkpt>
      <trkpt lat="45.60389" lon="5.50526">
        <ele>383</ele>
        <time>2023-02-14T09:57:11.797Z</time>
      </trkpt>
      <trkpt lat="45.6039" lon="5.50528">
        <ele>384</ele>
        <time>2023-02-14T09:57:12.797Z</time>
      </trkpt>
      <trkpt lat="45.60391" lon="5.50531">
        <ele>384</ele>
        <time>2023-02-14T09:57:13.797Z</time>
      </trkpt>
      <trkpt lat="45.60392" lon="5.50533">
        <ele>385</ele>
        <time>2023-02-14T09:57:14.797Z</time>
      </trkpt>
      <trkpt lat="45.60392" lon="5.50536">
        <ele>385</ele>
        <time>2023-02-14T09:57:15.797Z</time>
      </trkpt>
      <trkpt lat="45.60393" lon="5.50539">
        <ele>384</ele>
        <time>2023-02-14T09:57:16.797Z</time>
      </trkpt>
      <trkpt lat="45.60393" lon="5.50542">
        <ele>384</ele>
        <time>2023-02-14T09:57:17.797Z</time>
      </trkpt>
      <trkpt lat="45.60393" lon="5.50545">
        <ele>384</ele>
        <time>2023-02-14T09:57:18.797Z</time>
      </trkpt>
      <trkpt lat="45.60393" lon="5.50549">
        <ele>384</ele>
        <time>2023-02-14T09:57:19.797Z</time>
      </trkpt>
      <trkpt lat="45.60393" lon="5.50552">
        <ele>384</ele>
        <time>2023-02-14T09:57:20.797Z</time>
      </trkpt>
      <trkpt lat="45.60392" lon="5.50556">
        <ele>384</ele>
        <time>2023-02-14T09:57:21.797Z</time>
      </trkpt>
      <trkpt lat="45.60392" lon="5.5056">
        <ele>384</ele>
        <time>2023-02-14T09:57:22.797Z</time>
      </trkpt>
      <trkpt lat="45.60391" lon="5.50563">
        <ele>384</ele>
        <time>2023-02-14T09:57:23.797Z</time>
      </trkpt>
      <trkpt lat="45.6039" lon="5.50567">
        <ele>383</ele>
        <time>2023-02-14T09:57:24.797Z</time>
      </trkpt>
      <trkpt lat="45.60389" lon="5.50571">
        <ele>384</ele>
        <time>2023-02-14T09:57:25.797Z</time>
      </trkpt>
      <trkpt lat="45.60388" lon="5.50574">
        <ele>383</ele>
        <time>2023-02-14T09:57:26.797Z</time>
      </trkpt>
      <trkpt lat="45.60386" lon="5.50578">
        <ele>383</ele>
        <time>2023-02-14T09:57:27.797Z</time>
      </trkpt>
      <trkpt lat="45.60385" lon="5.50582">
        <ele>382</ele>
        <time>2023-02-14T09:57:28.797Z</time>
      </trkpt>
      <trkpt lat="45.60384" lon="5.50586">
        <ele>382</ele>
        <time>2023-02-14T09:57:29.797Z</time>
      </trkpt>
      <trkpt lat="45.60382" lon="5.5059">
        <ele>382</ele>
        <time>2023-02-14T09:57:30.797Z</time>
      </trkpt>
      <trkpt lat="45.60381" lon="5.50594">
        <ele>383</ele>
        <time>2023-02-14T09:57:31.797Z</time>
      </trkpt>
      <trkpt lat="45.6038" lon="5.50598">
        <ele>383</ele>
        <time>2023-02-14T09:57:32.797Z</time>
      </trkpt>
      <trkpt lat="45.60378" lon="5.50602">
        <ele>383</ele>
        <time>2023-02-14T09:57:33.797Z</time>
      </trkpt>
      <trkpt lat="45.60377" lon="5.50606">
        <ele>383</ele>
        <time>2023-02-14T09:57:34.797Z</time>
      </trkpt>
      <trkpt lat="45.60376" lon="5.5061">
        <ele>383</ele>
        <time>2023-02-14T09:57:35.797Z</time>
      </trkpt>
      <trkpt lat="45.60374" lon="5.50615">
        <ele>383</ele>
        <time>2023-02-14T09:57:36.797Z</time>
      </trkpt>
      <trkpt lat="45.60373" lon="5.50619">
        <ele>382</ele>
        <time>2023-02-14T09:57:37.797Z</time>
      </trkpt>
      <trkpt lat="45.60372" lon="5.50623">
        <ele>382</ele>
        <time>2023-02-14T09:57:38.797Z</time>
      </trkpt>
      <trkpt lat="45.6037" lon="5.50628">
        <ele>383</ele>
        <time>2023-02-14T09:57:39.797Z</time>
      </trkpt>
      <trkpt lat="45.60369" lon="5.50632">
        <ele>383</ele>
        <time>2023-02-14T09:57:40.797Z</time>
      </trkpt>
      <trkpt lat="45.60368" lon="5.50637">
        <ele>383</ele>
        <time>2023-02-14T09:57:41.797Z</time>
      </trkpt>
      <trkpt lat="45.60366" lon="5.50641">
        <ele>383</ele>
        <time>2023-02-14T09:57:42.797Z</time>
      </trkpt>
      <trkpt lat="45.60365" lon="5.50645">
        <ele>384</ele>
        <time>2023-02-14T09:57:43.797Z</time>
      </trkpt>
      <trkpt lat="45.60363" lon="5.5065">
        <ele>384</ele>
        <time>2023-02-14T09:57:44.797Z</time>
      </trkpt>
      <trkpt lat="45.60362" lon="5.50654">
        <ele>384</ele>
        <time>2023-02-14T09:57:45.797Z</time>
      </trkpt>
      <trkpt lat="45.60361" lon="5.50658">
        <ele>384</ele>
        <time>2023-02-14T09:57:46.797Z</time>
      </trkpt>
      <trkpt lat="45.6036" lon="5.50662">
        <ele>384</ele>
        <time>2023-02-14T09:57:47.797Z</time>
      </trkpt>
      <trkpt lat="45.60359" lon="5.50667">
        <ele>384</ele>
        <time>2023-02-14T09:57:48.797Z</time>
      </trkpt>
      <trkpt lat="45.60359" lon="5.50671">
        <ele>383</ele>
        <time>2023-02-14T09:57:49.797Z</time>
      </trkpt>
      <trkpt lat="45.60359" lon="5.50676">
        <ele>383</ele>
        <time>2023-02-14T09:57:50.797Z</time>
      </trkpt>
      <trkpt lat="45.60359" lon="5.50681">
        <ele>383</ele>
        <time>2023-02-14T09:57:51.797Z</time>
      </trkpt>
      <trkpt lat="45.6036" lon="5.50686">
        <ele>383</ele>
        <time>2023-02-14T09:57:52.797Z</time>
      </trkpt>
      <trkpt lat="45.60363" lon="5.50692">
        <ele>383</ele>
        <time>2023-02-14T09:57:53.797Z</time>
      </trkpt>
      <trkpt lat="45.60365" lon="5.50697">
        <ele>382</ele>
        <time>2023-02-14T09:57:54.797Z</time>
      </trkpt>
      <trkpt lat="45.60368" lon="5.50702">
        <ele>382</ele>
        <time>2023-02-14T09:57:55.797Z</time>
      </trkpt>
      <trkpt lat="45.60371" lon="5.50708">
        <ele>382</ele>
        <time>2023-02-14T09:57:56.797Z</time>
      </trkpt>
      <trkpt lat="45.60372" lon="5.50715">
        <ele>381</ele>
        <time>2023-02-14T09:57:57.797Z</time>
      </trkpt>
      <trkpt lat="45.60372" lon="5.50722">
        <ele>381</ele>
        <time>2023-02-14T09:57:58.797Z</time>
      </trkpt>
      <trkpt lat="45.60371" lon="5.50729">
        <ele>380</ele>
        <time>2023-02-14T09:57:59.797Z</time>
      </trkpt>
      <trkpt lat="45.60369" lon="5.50735">
        <ele>380</ele>
        <time>2023-02-14T09:58:00.797Z</time>
      </trkpt>
      <trkpt lat="45.60367" lon="5.5074">
        <ele>380</ele>
        <time>2023-02-14T09:58:01.797Z</time>
      </trkpt>
      <trkpt lat="45.60365" lon="5.50745">
        <ele>380</ele>
        <time>2023-02-14T09:58:02.797Z</time>
      </trkpt>
      <trkpt lat="45.60362" lon="5.50749">
        <ele>380</ele>
        <time>2023-02-14T09:58:03.797Z</time>
      </trkpt>
      <trkpt lat="45.60359" lon="5.50753">
        <ele>380</ele>
        <time>2023-02-14T09:58:04.797Z</time>
      </trkpt>
      <trkpt lat="45.60356" lon="5.50757">
        <ele>380</ele>
        <time>2023-02-14T09:58:05.797Z</time>
      </trkpt>
      <trkpt lat="45.60354" lon="5.50761">
        <ele>380</ele>
        <time>2023-02-14T09:58:06.797Z</time>
      </trkpt>
      <trkpt lat="45.60351" lon="5.50766">
        <ele>380</ele>
        <time>2023-02-14T09:58:07.797Z</time>
      </trkpt>
      <trkpt lat="45.60349" lon="5.5077">
        <ele>380</ele>
        <time>2023-02-14T09:58:08.797Z</time>
      </trkpt>
      <trkpt lat="45.60346" lon="5.50775">
        <ele>379</ele>
        <time>2023-02-14T09:58:09.797Z</time>
      </trkpt>
      <trkpt lat="45.60344" lon="5.5078">
        <ele>379</ele>
        <time>2023-02-14T09:58:10.797Z</time>
      </trkpt>
      <trkpt lat="45.60341" lon="5.50785">
        <ele>379</ele>
        <time>2023-02-14T09:58:11.797Z</time>
      </trkpt>
      <trkpt lat="45.60338" lon="5.50789">
        <ele>379</ele>
        <time>2023-02-14T09:58:12.797Z</time>
      </trkpt>
      <trkpt lat="45.60336" lon="5.50794">
        <ele>379</ele>
        <time>2023-02-14T09:58:13.797Z</time>
      </trkpt>
      <trkpt lat="45.60333" lon="5.50799">
        <ele>379</ele>
        <time>2023-02-14T09:58:14.797Z</time>
      </trkpt>
      <trkpt lat="45.60331" lon="5.50804">
        <ele>379</ele>
        <time>2023-02-14T09:58:15.797Z</time>
      </trkpt>
      <trkpt lat="45.60329" lon="5.5081">
        <ele>379</ele>
        <time>2023-02-14T09:58:16.797Z</time>
      </trkpt>
      <trkpt lat="45.60327" lon="5.50815">
        <ele>378</ele>
        <time>2023-02-14T09:58:17.797Z</time>
      </trkpt>
      <trkpt lat="45.60326" lon="5.5082">
        <ele>378</ele>
        <time>2023-02-14T09:58:18.797Z</time>
      </trkpt>
      <trkpt lat="45.60325" lon="5.50825">
        <ele>379</ele>
        <time>2023-02-14T09:58:19.797Z</time>
      </trkpt>
      <trkpt lat="45.60324" lon="5.5083">
        <ele>379</ele>
        <time>2023-02-14T09:58:20.797Z</time>
      </trkpt>
      <trkpt lat="45.60323" lon="5.50835">
        <ele>379</ele>
        <time>2023-02-14T09:58:21.797Z</time>
      </trkpt>
      <trkpt lat="45.60322" lon="5.5084">
        <ele>379</ele>
        <time>2023-02-14T09:58:22.797Z</time>
      </trkpt>
      <trkpt lat="45.60322" lon="5.50846">
        <ele>378</ele>
        <time>2023-02-14T09:58:23.797Z</time>
      </trkpt>
      <trkpt lat="45.6032" lon="5.50851">
        <ele>378</ele>
        <time>2023-02-14T09:58:24.797Z</time>
      </trkpt>
      <trkpt lat="45.60319" lon="5.50857">
        <ele>378</ele>
        <time>2023-02-14T09:58:25.797Z</time>
      </trkpt>
      <trkpt lat="45.60318" lon="5.50862">
        <ele>378</ele>
        <time>2023-02-14T09:58:26.797Z</time>
      </trkpt>
      <trkpt lat="45.60316" lon="5.50867">
        <ele>378</ele>
        <time>2023-02-14T09:58:27.797Z</time>
      </trkpt>
      <trkpt lat="45.60313" lon="5.50872">
        <ele>378</ele>
        <time>2023-02-14T09:58:28.797Z</time>
      </trkpt>
      <trkpt lat="45.60311" lon="5.50877">
        <ele>378</ele>
        <time>2023-02-14T09:58:29.797Z</time>
      </trkpt>
      <trkpt lat="45.60308" lon="5.50882">
        <ele>378</ele>
        <time>2023-02-14T09:58:30.797Z</time>
      </trkpt>
      <trkpt lat="45.60306" lon="5.50886">
        <ele>379</ele>
        <time>2023-02-14T09:58:31.797Z</time>
      </trkpt>
      <trkpt lat="45.60304" lon="5.5089">
        <ele>379</ele>
        <time>2023-02-14T09:58:32.797Z</time>
      </trkpt>
      <trkpt lat="45.60302" lon="5.50894">
        <ele>379</ele>
        <time>2023-02-14T09:58:33.797Z</time>
      </trkpt>
      <trkpt lat="45.603" lon="5.50898">
        <ele>379</ele>
        <time>2023-02-14T09:58:34.797Z</time>
      </trkpt>
      <trkpt lat="45.60298" lon="5.50902">
        <ele>379</ele>
        <time>2023-02-14T09:58:35.797Z</time>
      </trkpt>
      <trkpt lat="45.60296" lon="5.50906">
        <ele>380</ele>
        <time>2023-02-14T09:58:36.797Z</time>
      </trkpt>
      <trkpt lat="45.60294" lon="5.50909">
        <ele>380</ele>
        <time>2023-02-14T09:58:37.797Z</time>
      </trkpt>
      <trkpt lat="45.60292" lon="5.50913">
        <ele>380</ele>
        <time>2023-02-14T09:58:38.797Z</time>
      </trkpt>
      <trkpt lat="45.6029" lon="5.50916">
        <ele>380</ele>
        <time>2023-02-14T09:58:39.797Z</time>
      </trkpt>
      <trkpt lat="45.60289" lon="5.50919">
        <ele>380</ele>
        <time>2023-02-14T09:58:40.797Z</time>
      </trkpt>
      <trkpt lat="45.60287" lon="5.50923">
        <ele>380</ele>
        <time>2023-02-14T09:58:41.797Z</time>
      </trkpt>
      <trkpt lat="45.60285" lon="5.50926">
        <ele>381</ele>
        <time>2023-02-14T09:58:42.797Z</time>
      </trkpt>
      <trkpt lat="45.60284" lon="5.50929">
        <ele>381</ele>
        <time>2023-02-14T09:58:43.797Z</time>
      </trkpt>
      <trkpt lat="45.60282" lon="5.50933">
        <ele>381</ele>
        <time>2023-02-14T09:58:44.797Z</time>
      </trkpt>
      <trkpt lat="45.60281" lon="5.50937">
        <ele>381</ele>
        <time>2023-02-14T09:58:45.797Z</time>
      </trkpt>
      <trkpt lat="45.60279" lon="5.5094">
        <ele>381</ele>
        <time>2023-02-14T09:58:46.797Z</time>
      </trkpt>
      <trkpt lat="45.60278" lon="5.50944">
        <ele>381</ele>
        <time>2023-02-14T09:58:47.797Z</time>
      </trkpt>
      <trkpt lat="45.60276" lon="5.50948">
        <ele>381</ele>
        <time>2023-02-14T09:58:48.797Z</time>
      </trkpt>
      <trkpt lat="45.60275" lon="5.50952">
        <ele>381</ele>
        <time>2023-02-14T09:58:49.797Z</time>
      </trkpt>
      <trkpt lat="45.60273" lon="5.50955">
        <ele>381</ele>
        <time>2023-02-14T09:58:50.797Z</time>
      </trkpt>
      <trkpt lat="45.60272" lon="5.50959">
        <ele>381</ele>
        <time>2023-02-14T09:58:51.797Z</time>
      </trkpt>
      <trkpt lat="45.60271" lon="5.50963">
        <ele>381</ele>
        <time>2023-02-14T09:58:52.797Z</time>
      </trkpt>
      <trkpt lat="45.60269" lon="5.50966">
        <ele>382</ele>
        <time>2023-02-14T09:58:53.797Z</time>
      </trkpt>
      <trkpt lat="45.60268" lon="5.5097">
        <ele>382</ele>
        <time>2023-02-14T09:58:54.797Z</time>
      </trkpt>
      <trkpt lat="45.60267" lon="5.50974">
        <ele>382</ele>
        <time>2023-02-14T09:58:55.797Z</time>
      </trkpt>
      <trkpt lat="45.60266" lon="5.50978">
        <ele>382</ele>
        <time>2023-02-14T09:58:56.797Z</time>
      </trkpt>
      <trkpt lat="45.60264" lon="5.50982">
        <ele>382</ele>
        <time>2023-02-14T09:58:57.797Z</time>
      </trkpt>
      <trkpt lat="45.60263" lon="5.50985">
        <ele>382</ele>
        <time>2023-02-14T09:58:58.797Z</time>
      </trkpt>
      <trkpt lat="45.60262" lon="5.50989">
        <ele>382</ele>
        <time>2023-02-14T09:58:59.797Z</time>
      </trkpt>
      <trkpt lat="45.60261" lon="5.50993">
        <ele>382</ele>
        <time>2023-02-14T09:59:00.797Z</time>
      </trkpt>
      <trkpt lat="45.6026" lon="5.50997">
        <ele>382</ele>
        <time>2023-02-14T09:59:01.797Z</time>
      </trkpt>
      <trkpt lat="45.60258" lon="5.51">
        <ele>382</ele>
        <time>2023-02-14T09:59:02.797Z</time>
      </trkpt>
      <trkpt lat="45.60257" lon="5.51004">
        <ele>383</ele>
        <time>2023-02-14T09:59:03.797Z</time>
      </trkpt>
      <trkpt lat="45.60255" lon="5.51007">
        <ele>383</ele>
        <time>2023-02-14T09:59:04.797Z</time>
      </trkpt>
      <trkpt lat="45.60254" lon="5.51011">
        <ele>383</ele>
        <time>2023-02-14T09:59:05.797Z</time>
      </trkpt>
      <trkpt lat="45.60253" lon="5.51015">
        <ele>383</ele>
        <time>2023-02-14T09:59:06.797Z</time>
      </trkpt>
      <trkpt lat="45.60251" lon="5.51018">
        <ele>384</ele>
        <time>2023-02-14T09:59:07.797Z</time>
      </trkpt>
      <trkpt lat="45.6025" lon="5.51021">
        <ele>384</ele>
        <time>2023-02-14T09:59:08.797Z</time>
      </trkpt>
      <trkpt lat="45.60248" lon="5.51025">
        <ele>384</ele>
        <time>2023-02-14T09:59:09.797Z</time>
      </trkpt>
      <trkpt lat="45.60247" lon="5.51028">
        <ele>384</ele>
        <time>2023-02-14T09:59:10.797Z</time>
      </trkpt>
      <trkpt lat="45.60245" lon="5.51031">
        <ele>384</ele>
        <time>2023-02-14T09:59:11.797Z</time>
      </trkpt>
      <trkpt lat="45.60243" lon="5.51034">
        <ele>384</ele>
        <time>2023-02-14T09:59:12.797Z</time>
      </trkpt>
      <trkpt lat="45.60241" lon="5.51036">
        <ele>384</ele>
        <time>2023-02-14T09:59:13.797Z</time>
      </trkpt>
      <trkpt lat="45.6024" lon="5.51039">
        <ele>384</ele>
        <time>2023-02-14T09:59:14.797Z</time>
      </trkpt>
      <trkpt lat="45.60238" lon="5.51041">
        <ele>384</ele>
        <time>2023-02-14T09:59:15.797Z</time>
      </trkpt>
      <trkpt lat="45.60236" lon="5.51044">
        <ele>385</ele>
        <time>2023-02-14T09:59:16.797Z</time>
      </trkpt>
      <trkpt lat="45.60235" lon="5.51046">
        <ele>384</ele>
        <time>2023-02-14T09:59:17.797Z</time>
      </trkpt>
      <trkpt lat="45.60233" lon="5.51048">
        <ele>384</ele>
        <time>2023-02-14T09:59:18.797Z</time>
      </trkpt>
      <trkpt lat="45.60232" lon="5.5105">
        <ele>385</ele>
        <time>2023-02-14T09:59:19.797Z</time>
      </trkpt>
      <trkpt lat="45.6023" lon="5.51052">
        <ele>385</ele>
        <time>2023-02-14T09:59:20.797Z</time>
      </trkpt>
      <trkpt lat="45.60229" lon="5.51054">
        <ele>385</ele>
        <time>2023-02-14T09:59:21.797Z</time>
      </trkpt>
      <trkpt lat="45.60227" lon="5.51056">
        <ele>385</ele>
        <time>2023-02-14T09:59:22.797Z</time>
      </trkpt>
      <trkpt lat="45.60225" lon="5.51057">
        <ele>385</ele>
        <time>2023-02-14T09:59:23.797Z</time>
      </trkpt>
      <trkpt lat="45.60224" lon="5.51059">
        <ele>385</ele>
        <time>2023-02-14T09:59:24.797Z</time>
      </trkpt>
      <trkpt lat="45.60222" lon="5.5106">
        <ele>385</ele>
        <time>2023-02-14T09:59:25.797Z</time>
      </trkpt>
      <trkpt lat="45.6022" lon="5.51062">
        <ele>385</ele>
        <time>2023-02-14T09:59:26.797Z</time>
      </trkpt>
      <trkpt lat="45.60219" lon="5.51063">
        <ele>385</ele>
        <time>2023-02-14T09:59:27.797Z</time>
      </trkpt>
      <trkpt lat="45.60217" lon="5.51065">
        <ele>386</ele>
        <time>2023-02-14T09:59:28.797Z</time>
      </trkpt>
      <trkpt lat="45.60215" lon="5.51066">
        <ele>385</ele>
        <time>2023-02-14T09:59:29.797Z</time>
      </trkpt>
      <trkpt lat="45.60214" lon="5.51067">
        <ele>386</ele>
        <time>2023-02-14T09:59:30.797Z</time>
      </trkpt>
      <trkpt lat="45.60212" lon="5.51069">
        <ele>386</ele>
        <time>2023-02-14T09:59:31.797Z</time>
      </trkpt>
      <trkpt lat="45.6021" lon="5.5107">
        <ele>386</ele>
        <time>2023-02-14T09:59:32.797Z</time>
      </trkpt>
      <trkpt lat="45.60208" lon="5.51071">
        <ele>387</ele>
        <time>2023-02-14T09:59:33.797Z</time>
      </trkpt>
      <trkpt lat="45.60207" lon="5.51073">
        <ele>387</ele>
        <time>2023-02-14T09:59:34.797Z</time>
      </trkpt>
      <trkpt lat="45.60205" lon="5.51074">
        <ele>387</ele>
        <time>2023-02-14T09:59:35.797Z</time>
      </trkpt>
      <trkpt lat="45.60203" lon="5.51075">
        <ele>388</ele>
        <time>2023-02-14T09:59:36.797Z</time>
      </trkpt>
      <trkpt lat="45.60201" lon="5.51076">
        <ele>387</ele>
        <time>2023-02-14T09:59:37.797Z</time>
      </trkpt>
      <trkpt lat="45.60199" lon="5.51078">
        <ele>388</ele>
        <time>2023-02-14T09:59:38.797Z</time>
      </trkpt>
      <trkpt lat="45.60198" lon="5.51079">
        <ele>388</ele>
        <time>2023-02-14T09:59:39.797Z</time>
      </trkpt>
      <trkpt lat="45.60196" lon="5.5108">
        <ele>388</ele>
        <time>2023-02-14T09:59:40.797Z</time>
      </trkpt>
      <trkpt lat="45.60194" lon="5.51081">
        <ele>388</ele>
        <time>2023-02-14T09:59:41.797Z</time>
      </trkpt>
      <trkpt lat="45.60192" lon="5.51082">
        <ele>388</ele>
        <time>2023-02-14T09:59:42.797Z</time>
      </trkpt>
      <trkpt lat="45.6019" lon="5.51084">
        <ele>388</ele>
        <time>2023-02-14T09:59:43.797Z</time>
      </trkpt>
      <trkpt lat="45.60188" lon="5.51085">
        <ele>388</ele>
        <time>2023-02-14T09:59:44.797Z</time>
      </trkpt>
      <trkpt lat="45.60186" lon="5.51086">
        <ele>388</ele>
        <time>2023-02-14T09:59:45.797Z</time>
      </trkpt>
      <trkpt lat="45.60184" lon="5.51087">
        <ele>388</ele>
        <time>2023-02-14T09:59:46.797Z</time>
      </trkpt>
      <trkpt lat="45.60182" lon="5.51088">
        <ele>388</ele>
        <time>2023-02-14T09:59:47.797Z</time>
      </trkpt>
      <trkpt lat="45.6018" lon="5.51089">
        <ele>388</ele>
        <time>2023-02-14T09:59:48.797Z</time>
      </trkpt>
      <trkpt lat="45.60178" lon="5.5109">
        <ele>389</ele>
        <time>2023-02-14T09:59:49.797Z</time>
      </trkpt>
      <trkpt lat="45.60176" lon="5.51091">
        <ele>389</ele>
        <time>2023-02-14T09:59:50.797Z</time>
      </trkpt>
      <trkpt lat="45.60174" lon="5.51092">
        <ele>389</ele>
        <time>2023-02-14T09:59:51.797Z</time>
      </trkpt>
      <trkpt lat="45.60172" lon="5.51093">
        <ele>389</ele>
        <time>2023-02-14T09:59:52.797Z</time>
      </trkpt>
      <trkpt lat="45.6017" lon="5.51095">
        <ele>389</ele>
        <time>2023-02-14T09:59:53.797Z</time>
      </trkpt>
      <trkpt lat="45.60167" lon="5.51096">
        <ele>389</ele>
        <time>2023-02-14T09:59:54.797Z</time>
      </trkpt>
      <trkpt lat="45.60165" lon="5.51097">
        <ele>388</ele>
        <time>2023-02-14T09:59:55.797Z</time>
      </trkpt>
      <trkpt lat="45.60162" lon="5.51098">
        <ele>388</ele>
        <time>2023-02-14T09:59:56.797Z</time>
      </trkpt>
      <trkpt lat="45.60159" lon="5.51099">
        <ele>388</ele>
        <time>2023-02-14T09:59:57.797Z</time>
      </trkpt>
      <trkpt lat="45.60156" lon="5.511">
        <ele>388</ele>
        <time>2023-02-14T09:59:58.797Z</time>
      </trkpt>
      <trkpt lat="45.60154" lon="5.51101">
        <ele>388</ele>
        <time>2023-02-14T09:59:59.797Z</time>
      </trkpt>
      <trkpt lat="45.60151" lon="5.51102">
        <ele>387</ele>
        <time>2023-02-14T10:00:00.797Z</time>
      </trkpt>
      <trkpt lat="45.60148" lon="5.51105">
        <ele>386</ele>
        <time>2023-02-14T10:00:01.797Z</time>
      </trkpt>
      <trkpt lat="45.60146" lon="5.51109">
        <ele>386</ele>
        <time>2023-02-14T10:00:02.797Z</time>
      </trkpt>
      <trkpt lat="45.60144" lon="5.51114">
        <ele>386</ele>
        <time>2023-02-14T10:00:03.797Z</time>
      </trkpt>
      <trkpt lat="45.60142" lon="5.51119">
        <ele>386</ele>
        <time>2023-02-14T10:00:04.797Z</time>
      </trkpt>
      <trkpt lat="45.60141" lon="5.51124">
        <ele>386</ele>
        <time>2023-02-14T10:00:05.797Z</time>
      </trkpt>
      <trkpt lat="45.6014" lon="5.5113">
        <ele>385</ele>
        <time>2023-02-14T10:00:06.797Z</time>
      </trkpt>
      <trkpt lat="45.60139" lon="5.51135">
        <ele>384</ele>
        <time>2023-02-14T10:00:07.797Z</time>
      </trkpt>
      <trkpt lat="45.60137" lon="5.51139">
        <ele>383</ele>
        <time>2023-02-14T10:00:08.797Z</time>
      </trkpt>
      <trkpt lat="45.60134" lon="5.5114">
        <ele>383</ele>
        <time>2023-02-14T10:00:09.797Z</time>
      </trkpt>
      <trkpt lat="45.60129" lon="5.51139">
        <ele>382</ele>
        <time>2023-02-14T10:00:10.797Z</time>
      </trkpt>
      <trkpt lat="45.60124" lon="5.51136">
        <ele>381</ele>
        <time>2023-02-14T10:00:11.797Z</time>
      </trkpt>
      <trkpt lat="45.60119" lon="5.51131">
        <ele>381</ele>
        <time>2023-02-14T10:00:12.797Z</time>
      </trkpt>
      <trkpt lat="45.60114" lon="5.51126">
        <ele>380</ele>
        <time>2023-02-14T10:00:13.797Z</time>
      </trkpt>
      <trkpt lat="45.60108" lon="5.51121">
        <ele>379</ele>
        <time>2023-02-14T10:00:14.797Z</time>
      </trkpt>
      <trkpt lat="45.60101" lon="5.51116">
        <ele>379</ele>
        <time>2023-02-14T10:00:15.797Z</time>
      </trkpt>
      <trkpt lat="45.60095" lon="5.51111">
        <ele>379</ele>
        <time>2023-02-14T10:00:16.797Z</time>
      </trkpt>
      <trkpt lat="45.60088" lon="5.51107">
        <ele>379</ele>
        <time>2023-02-14T10:00:17.797Z</time>
      </trkpt>
      <trkpt lat="45.60081" lon="5.51104">
        <ele>378</ele>
        <time>2023-02-14T10:00:18.797Z</time>
      </trkpt>
      <trkpt lat="45.60073" lon="5.51101">
        <ele>378</ele>
        <time>2023-02-14T10:00:19.797Z</time>
      </trkpt>
      <trkpt lat="45.60066" lon="5.51099">
        <ele>378</ele>
        <time>2023-02-14T10:00:20.797Z</time>
      </trkpt>
      <trkpt lat="45.60058" lon="5.51096">
        <ele>377</ele>
        <time>2023-02-14T10:00:21.797Z</time>
      </trkpt>
      <trkpt lat="45.60051" lon="5.51094">
        <ele>378</ele>
        <time>2023-02-14T10:00:22.797Z</time>
      </trkpt>
      <trkpt lat="45.60045" lon="5.51091">
        <ele>378</ele>
        <time>2023-02-14T10:00:23.797Z</time>
      </trkpt>
      <trkpt lat="45.60039" lon="5.51089">
        <ele>378</ele>
        <time>2023-02-14T10:00:24.797Z</time>
      </trkpt>
      <trkpt lat="45.60033" lon="5.51087">
        <ele>378</ele>
        <time>2023-02-14T10:00:25.797Z</time>
      </trkpt>
      <trkpt lat="45.60029" lon="5.51085">
        <ele>379</ele>
        <time>2023-02-14T10:00:26.797Z</time>
      </trkpt>
      <trkpt lat="45.60024" lon="5.51086">
        <ele>379</ele>
        <time>2023-02-14T10:00:27.797Z</time>
      </trkpt>
      <trkpt lat="45.6002" lon="5.51088">
        <ele>377</ele>
        <time>2023-02-14T10:00:28.797Z</time>
      </trkpt>
      <trkpt lat="45.60017" lon="5.51092">
        <ele>377</ele>
        <time>2023-02-14T10:00:29.797Z</time>
      </trkpt>
      <trkpt lat="45.60014" lon="5.51097">
        <ele>378</ele>
        <time>2023-02-14T10:00:30.797Z</time>
      </trkpt>
      <trkpt lat="45.60011" lon="5.51102">
        <ele>377</ele>
        <time>2023-02-14T10:00:31.797Z</time>
      </trkpt>
      <trkpt lat="45.60008" lon="5.51108">
        <ele>377</ele>
        <time>2023-02-14T10:00:32.797Z</time>
      </trkpt>
      <trkpt lat="45.60006" lon="5.51114">
        <ele>377</ele>
        <time>2023-02-14T10:00:33.797Z</time>
      </trkpt>
      <trkpt lat="45.60003" lon="5.51121">
        <ele>377</ele>
        <time>2023-02-14T10:00:34.797Z</time>
      </trkpt>
      <trkpt lat="45.6" lon="5.51127">
        <ele>377</ele>
        <time>2023-02-14T10:00:35.797Z</time>
      </trkpt>
      <trkpt lat="45.59998" lon="5.51134">
        <ele>377</ele>
        <time>2023-02-14T10:00:36.797Z</time>
      </trkpt>
      <trkpt lat="45.59995" lon="5.51141">
        <ele>377</ele>
        <time>2023-02-14T10:00:37.797Z</time>
      </trkpt>
      <trkpt lat="45.59993" lon="5.51147">
        <ele>376</ele>
        <time>2023-02-14T10:00:38.797Z</time>
      </trkpt>
      <trkpt lat="45.59991" lon="5.51153">
        <ele>377</ele>
        <time>2023-02-14T10:00:39.797Z</time>
      </trkpt>
      <trkpt lat="45.59989" lon="5.51159">
        <ele>376</ele>
        <time>2023-02-14T10:00:40.797Z</time>
      </trkpt>
      <trkpt lat="45.59987" lon="5.51165">
        <ele>376</ele>
        <time>2023-02-14T10:00:41.797Z</time>
      </trkpt>
      <trkpt lat="45.59985" lon="5.51172">
        <ele>376</ele>
        <time>2023-02-14T10:00:42.797Z</time>
      </trkpt>
      <trkpt lat="45.59983" lon="5.51178">
        <ele>376</ele>
        <time>2023-02-14T10:00:43.797Z</time>
      </trkpt>
      <trkpt lat="45.59981" lon="5.51185">
        <ele>376</ele>
        <time>2023-02-14T10:00:44.797Z</time>
      </trkpt>
      <trkpt lat="45.59979" lon="5.51191">
        <ele>375</ele>
        <time>2023-02-14T10:00:45.797Z</time>
      </trkpt>
      <trkpt lat="45.59976" lon="5.51197">
        <ele>375</ele>
        <time>2023-02-14T10:00:46.797Z</time>
      </trkpt>
      <trkpt lat="45.59974" lon="5.51203">
        <ele>375</ele>
        <time>2023-02-14T10:00:47.797Z</time>
      </trkpt>
      <trkpt lat="45.59972" lon="5.51209">
        <ele>375</ele>
        <time>2023-02-14T10:00:48.797Z</time>
      </trkpt>
      <trkpt lat="45.59969" lon="5.51215">
        <ele>375</ele>
        <time>2023-02-14T10:00:49.797Z</time>
      </trkpt>
      <trkpt lat="45.59967" lon="5.51221">
        <ele>375</ele>
        <time>2023-02-14T10:00:50.797Z</time>
      </trkpt>
      <trkpt lat="45.59965" lon="5.51228">
        <ele>375</ele>
        <time>2023-02-14T10:00:51.797Z</time>
      </trkpt>
      <trkpt lat="45.59963" lon="5.51234">
        <ele>375</ele>
        <time>2023-02-14T10:00:52.797Z</time>
      </trkpt>
      <trkpt lat="45.5996" lon="5.5124">
        <ele>374</ele>
        <time>2023-02-14T10:00:53.797Z</time>
      </trkpt>
      <trkpt lat="45.59958" lon="5.51247">
        <ele>374</ele>
        <time>2023-02-14T10:00:54.797Z</time>
      </trkpt>
      <trkpt lat="45.59956" lon="5.51253">
        <ele>374</ele>
        <time>2023-02-14T10:00:55.797Z</time>
      </trkpt>
      <trkpt lat="45.59954" lon="5.5126">
        <ele>374</ele>
        <time>2023-02-14T10:00:56.797Z</time>
      </trkpt>
      <trkpt lat="45.59952" lon="5.51266">
        <ele>374</ele>
        <time>2023-02-14T10:00:57.797Z</time>
      </trkpt>
      <trkpt lat="45.5995" lon="5.51273">
        <ele>374</ele>
        <time>2023-02-14T10:00:58.797Z</time>
      </trkpt>
      <trkpt lat="45.59948" lon="5.5128">
        <ele>373</ele>
        <time>2023-02-14T10:00:59.797Z</time>
      </trkpt>
      <trkpt lat="45.59947" lon="5.51288">
        <ele>373</ele>
        <time>2023-02-14T10:01:00.797Z</time>
      </trkpt>
      <trkpt lat="45.59946" lon="5.51295">
        <ele>373</ele>
        <time>2023-02-14T10:01:01.797Z</time>
      </trkpt>
      <trkpt lat="45.59946" lon="5.51303">
        <ele>372</ele>
        <time>2023-02-14T10:01:02.797Z</time>
      </trkpt>
      <trkpt lat="45.59946" lon="5.5131">
        <ele>372</ele>
        <time>2023-02-14T10:01:03.797Z</time>
      </trkpt>
      <trkpt lat="45.59947" lon="5.51318">
        <ele>372</ele>
        <time>2023-02-14T10:01:04.797Z</time>
      </trkpt>
      <trkpt lat="45.59948" lon="5.51325">
        <ele>371</ele>
        <time>2023-02-14T10:01:05.797Z</time>
      </trkpt>
      <trkpt lat="45.5995" lon="5.51331">
        <ele>371</ele>
        <time>2023-02-14T10:01:06.797Z</time>
      </trkpt>
      <trkpt lat="45.59953" lon="5.51337">
        <ele>370</ele>
        <time>2023-02-14T10:01:07.797Z</time>
      </trkpt>
      <trkpt lat="45.59955" lon="5.51342">
        <ele>369</ele>
        <time>2023-02-14T10:01:08.797Z</time>
      </trkpt>
      <trkpt lat="45.59959" lon="5.51347">
        <ele>369</ele>
        <time>2023-02-14T10:01:09.797Z</time>
      </trkpt>
      <trkpt lat="45.59962" lon="5.51352">
        <ele>368</ele>
        <time>2023-02-14T10:01:10.797Z</time>
      </trkpt>
      <trkpt lat="45.59966" lon="5.51357">
        <ele>367</ele>
        <time>2023-02-14T10:01:11.797Z</time>
      </trkpt>
      <trkpt lat="45.5997" lon="5.51362">
        <ele>366</ele>
        <time>2023-02-14T10:01:12.797Z</time>
      </trkpt>
      <trkpt lat="45.59974" lon="5.51367">
        <ele>366</ele>
        <time>2023-02-14T10:01:13.797Z</time>
      </trkpt>
      <trkpt lat="45.59978" lon="5.51372">
        <ele>365</ele>
        <time>2023-02-14T10:01:14.797Z</time>
      </trkpt>
      <trkpt lat="45.59982" lon="5.51377">
        <ele>365</ele>
        <time>2023-02-14T10:01:15.797Z</time>
      </trkpt>
      <trkpt lat="45.59987" lon="5.51382">
        <ele>365</ele>
        <time>2023-02-14T10:01:16.797Z</time>
      </trkpt>
      <trkpt lat="45.59991" lon="5.51387">
        <ele>364</ele>
        <time>2023-02-14T10:01:17.797Z</time>
      </trkpt>
      <trkpt lat="45.59994" lon="5.51391">
        <ele>363</ele>
        <time>2023-02-14T10:01:18.797Z</time>
      </trkpt>
      <trkpt lat="45.59998" lon="5.51397">
        <ele>361</ele>
        <time>2023-02-14T10:01:19.797Z</time>
      </trkpt>
      <trkpt lat="45.60002" lon="5.51402">
        <ele>360</ele>
        <time>2023-02-14T10:01:20.797Z</time>
      </trkpt>
      <trkpt lat="45.60005" lon="5.51407">
        <ele>359</ele>
        <time>2023-02-14T10:01:21.797Z</time>
      </trkpt>
      <trkpt lat="45.60009" lon="5.51413">
        <ele>358</ele>
        <time>2023-02-14T10:01:22.797Z</time>
      </trkpt>
      <trkpt lat="45.60013" lon="5.5142">
        <ele>357</ele>
        <time>2023-02-14T10:01:23.797Z</time>
      </trkpt>
      <trkpt lat="45.60016" lon="5.51427">
        <ele>356</ele>
        <time>2023-02-14T10:01:24.797Z</time>
      </trkpt>
      <trkpt lat="45.60019" lon="5.51434">
        <ele>354</ele>
        <time>2023-02-14T10:01:25.797Z</time>
      </trkpt>
      <trkpt lat="45.60021" lon="5.51441">
        <ele>352</ele>
        <time>2023-02-14T10:01:26.797Z</time>
      </trkpt>
      <trkpt lat="45.60023" lon="5.51449">
        <ele>350</ele>
        <time>2023-02-14T10:01:27.797Z</time>
      </trkpt>
      <trkpt lat="45.60024" lon="5.51457">
        <ele>349</ele>
        <time>2023-02-14T10:01:28.797Z</time>
      </trkpt>
      <trkpt lat="45.60026" lon="5.51465">
        <ele>349</ele>
        <time>2023-02-14T10:01:29.797Z</time>
      </trkpt>
      <trkpt lat="45.60027" lon="5.51473">
        <ele>350</ele>
        <time>2023-02-14T10:01:30.797Z</time>
      </trkpt>
      <trkpt lat="45.60029" lon="5.51483">
        <ele>350</ele>
        <time>2023-02-14T10:01:31.797Z</time>
      </trkpt>
      <trkpt lat="45.6003" lon="5.51492">
        <ele>349</ele>
        <time>2023-02-14T10:01:32.797Z</time>
      </trkpt>
      <trkpt lat="45.60031" lon="5.51501">
        <ele>349</ele>
        <time>2023-02-14T10:01:33.797Z</time>
      </trkpt>
      <trkpt lat="45.60032" lon="5.51508">
        <ele>348</ele>
        <time>2023-02-14T10:01:34.797Z</time>
      </trkpt>
      <trkpt lat="45.60032" lon="5.51515">
        <ele>347</ele>
        <time>2023-02-14T10:01:35.797Z</time>
      </trkpt>
      <trkpt lat="45.60033" lon="5.51522">
        <ele>345</ele>
        <time>2023-02-14T10:01:36.797Z</time>
      </trkpt>
      <trkpt lat="45.60032" lon="5.51528">
        <ele>343</ele>
        <time>2023-02-14T10:01:37.797Z</time>
      </trkpt>
      <trkpt lat="45.6003" lon="5.51534">
        <ele>342</ele>
        <time>2023-02-14T10:01:38.797Z</time>
      </trkpt>
      <trkpt lat="45.60027" lon="5.51538">
        <ele>340</ele>
        <time>2023-02-14T10:01:39.797Z</time>
      </trkpt>
      <trkpt lat="45.60024" lon="5.51541">
        <ele>339</ele>
        <time>2023-02-14T10:01:40.797Z</time>
      </trkpt>
      <trkpt lat="45.60021" lon="5.51541">
        <ele>337</ele>
        <time>2023-02-14T10:01:41.797Z</time>
      </trkpt>
      <trkpt lat="45.60018" lon="5.5154">
        <ele>336</ele>
        <time>2023-02-14T10:01:42.797Z</time>
      </trkpt>
      <trkpt lat="45.60015" lon="5.51537">
        <ele>334</ele>
        <time>2023-02-14T10:01:43.797Z</time>
      </trkpt>
      <trkpt lat="45.60012" lon="5.51535">
        <ele>332</ele>
        <time>2023-02-14T10:01:44.797Z</time>
      </trkpt>
      <trkpt lat="45.6001" lon="5.51532">
        <ele>332</ele>
        <time>2023-02-14T10:01:45.797Z</time>
      </trkpt>
      <trkpt lat="45.60007" lon="5.5153">
        <ele>333</ele>
        <time>2023-02-14T10:01:46.797Z</time>
      </trkpt>
      <trkpt lat="45.60004" lon="5.51528">
        <ele>336</ele>
        <time>2023-02-14T10:01:47.797Z</time>
      </trkpt>
      <trkpt lat="45.60002" lon="5.51526">
        <ele>337</ele>
        <time>2023-02-14T10:01:48.797Z</time>
      </trkpt>
      <trkpt lat="45.6" lon="5.51525">
        <ele>338</ele>
        <time>2023-02-14T10:01:49.797Z</time>
      </trkpt>
      <trkpt lat="45.59999" lon="5.51524">
        <ele>338</ele>
        <time>2023-02-14T10:01:50.797Z</time>
      </trkpt>
      <trkpt lat="45.59998" lon="5.51523">
        <ele>337</ele>
        <time>2023-02-14T10:01:51.797Z</time>
      </trkpt>
      <trkpt lat="45.59998" lon="5.51523">
        <ele>338</ele>
        <time>2023-02-14T10:01:52.797Z</time>
      </trkpt>
      <trkpt lat="45.59998" lon="5.51523">
        <ele>338</ele>
        <time>2023-02-14T10:01:53.797Z</time>
      </trkpt>
      <trkpt lat="45.59998" lon="5.51523">
        <ele>337</ele>
        <time>2023-02-14T10:01:54.797Z</time>
      </trkpt>
      <trkpt lat="45.59997" lon="5.51523">
        <ele>337</ele>
        <time>2023-02-14T10:01:55.797Z</time>
      </trkpt>
      <trkpt lat="45.59997" lon="5.51523">
        <ele>338</ele>
        <time>2023-02-14T10:01:56.797Z</time>
      </trkpt>
      <trkpt lat="45.59996" lon="5.51523">
        <ele>338</ele>
        <time>2023-02-14T10:01:57.797Z</time>
      </trkpt>
      <trkpt lat="45.59995" lon="5.51523">
        <ele>339</ele>
        <time>2023-02-14T10:01:58.797Z</time>
      </trkpt>
      <trkpt lat="45.59995" lon="5.51522">
        <ele>340</ele>
        <time>2023-02-14T10:01:59.797Z</time>
      </trkpt>
      <trkpt lat="45.59994" lon="5.51522">
        <ele>340</ele>
        <time>2023-02-14T10:02:00.797Z</time>
      </trkpt>
      <trkpt lat="45.59993" lon="5.51522">
        <ele>341</ele>
        <time>2023-02-14T10:02:01.797Z</time>
      </trkpt>
      <trkpt lat="45.59993" lon="5.51522">
        <ele>342</ele>
        <time>2023-02-14T10:02:02.797Z</time>
      </trkpt>
      <trkpt lat="45.59993" lon="5.51522">
        <ele>343</ele>
        <time>2023-02-14T10:02:03.797Z</time>
      </trkpt>
      <trkpt lat="45.59993" lon="5.51521">
        <ele>343</ele>
        <time>2023-02-14T10:02:04.797Z</time>
      </trkpt>
      <trkpt lat="45.59992" lon="5.51521">
        <ele>343</ele>
        <time>2023-02-14T10:02:05.797Z</time>
      </trkpt>
      <trkpt lat="45.59992" lon="5.51521">
        <ele>344</ele>
        <time>2023-02-14T10:02:06.797Z</time>
      </trkpt>
      <trkpt lat="45.59992" lon="5.5152">
        <ele>344</ele>
        <time>2023-02-14T10:02:07.797Z</time>
      </trkpt>
      <trkpt lat="45.59992" lon="5.5152">
        <ele>344</ele>
        <time>2023-02-14T10:02:08.797Z</time>
      </trkpt>
      <trkpt lat="45.59991" lon="5.5152">
        <ele>344</ele>
        <time>2023-02-14T10:02:09.797Z</time>
      </trkpt>
      <trkpt lat="45.59991" lon="5.51519">
        <ele>344</ele>
        <time>2023-02-14T10:02:10.797Z</time>
      </trkpt>
      <trkpt lat="45.59991" lon="5.51519">
        <ele>344</ele>
        <time>2023-02-14T10:02:11.797Z</time>
      </trkpt>
      <trkpt lat="45.59991" lon="5.51519">
        <ele>345</ele>
        <time>2023-02-14T10:02:12.797Z</time>
      </trkpt>
      <trkpt lat="45.5999" lon="5.51519">
        <ele>345</ele>
        <time>2023-02-14T10:02:13.797Z</time>
      </trkpt>
      <trkpt lat="45.5999" lon="5.51519">
        <ele>345</ele>
        <time>2023-02-14T10:02:14.797Z</time>
      </trkpt>
      <trkpt lat="45.5999" lon="5.51519">
        <ele>346</ele>
        <time>2023-02-14T10:02:15.797Z</time>
      </trkpt>
      <trkpt lat="45.5999" lon="5.51519">
        <ele>346</ele>
        <time>2023-02-14T10:02:16.797Z</time>
      </trkpt>
      <trkpt lat="45.5999" lon="5.51518">
        <ele>346</ele>
        <time>2023-02-14T10:02:17.797Z</time>
      </trkpt>
      <trkpt lat="45.5999" lon="5.51518">
        <ele>346</ele>
        <time>2023-02-14T10:02:18.797Z</time>
      </trkpt>
      <trkpt lat="45.5999" lon="5.51518">
        <ele>346</ele>
        <time>2023-02-14T10:02:19.797Z</time>
      </trkpt>
      <trkpt lat="45.59989" lon="5.51518">
        <ele>346</ele>
        <time>2023-02-14T10:02:20.797Z</time>
      </trkpt>
      <trkpt lat="45.59989" lon="5.51518">
        <ele>346</ele>
        <time>2023-02-14T10:02:21.797Z</time>
      </trkpt>
      <trkpt lat="45.59989" lon="5.51517">
        <ele>346</ele>
        <time>2023-02-14T10:02:22.797Z</time>
      </trkpt>
      <trkpt lat="45.59989" lon="5.51517">
        <ele>346</ele>
        <time>2023-02-14T10:02:23.797Z</time>
      </trkpt>
      <trkpt lat="45.59989" lon="5.51517">
        <ele>347</ele>
        <time>2023-02-14T10:02:24.797Z</time>
      </trkpt>
      <trkpt lat="45.59989" lon="5.51517">
        <ele>347</ele>
        <time>2023-02-14T10:02:25.797Z</time>
      </trkpt>
      <trkpt lat="45.59989" lon="5.51517">
        <ele>347</ele>
        <time>2023-02-14T10:02:26.797Z</time>
      </trkpt>
      <trkpt lat="45.59988" lon="5.51517">
        <ele>346</ele>
        <time>2023-02-14T10:02:27.797Z</time>
      </trkpt>
      <trkpt lat="45.59988" lon="5.51516">
        <ele>346</ele>
        <time>2023-02-14T10:02:28.797Z</time>
      </trkpt>
      <trkpt lat="45.59986" lon="5.51516">
        <ele>346</ele>
        <time>2023-02-14T10:02:29.797Z</time>
      </trkpt>
      <trkpt lat="45.59984" lon="5.51515">
        <ele>345</ele>
        <time>2023-02-14T10:02:30.797Z</time>
      </trkpt>
      <trkpt lat="45.59981" lon="5.51514">
        <ele>345</ele>
        <time>2023-02-14T10:02:31.797Z</time>
      </trkpt>
      <trkpt lat="45.59977" lon="5.51513">
        <ele>345</ele>
        <time>2023-02-14T10:02:32.797Z</time>
      </trkpt>
      <trkpt lat="45.59973" lon="5.51512">
        <ele>345</ele>
        <time>2023-02-14T10:02:33.797Z</time>
      </trkpt>
      <trkpt lat="45.59968" lon="5.51511">
        <ele>344</ele>
        <time>2023-02-14T10:02:34.797Z</time>
      </trkpt>
      <trkpt lat="45.59963" lon="5.5151">
        <ele>343</ele>
        <time>2023-02-14T10:02:35.797Z</time>
      </trkpt>
      <trkpt lat="45.59958" lon="5.51509">
        <ele>343</ele>
        <time>2023-02-14T10:02:36.797Z</time>
      </trkpt>
      <trkpt lat="45.59953" lon="5.51508">
        <ele>343</ele>
        <time>2023-02-14T10:02:37.797Z</time>
      </trkpt>
      <trkpt lat="45.59949" lon="5.51508">
        <ele>342</ele>
        <time>2023-02-14T10:02:38.797Z</time>
      </trkpt>
      <trkpt lat="45.59944" lon="5.51507">
        <ele>342</ele>
        <time>2023-02-14T10:02:39.797Z</time>
      </trkpt>
      <trkpt lat="45.59939" lon="5.51507">
        <ele>341</ele>
        <time>2023-02-14T10:02:40.797Z</time>
      </trkpt>
      <trkpt lat="45.59934" lon="5.51508">
        <ele>341</ele>
        <time>2023-02-14T10:02:41.797Z</time>
      </trkpt>
      <trkpt lat="45.5993" lon="5.51509">
        <ele>340</ele>
        <time>2023-02-14T10:02:42.797Z</time>
      </trkpt>
      <trkpt lat="45.59925" lon="5.5151">
        <ele>340</ele>
        <time>2023-02-14T10:02:43.797Z</time>
      </trkpt>
      <trkpt lat="45.5992" lon="5.51511">
        <ele>340</ele>
        <time>2023-02-14T10:02:44.797Z</time>
      </trkpt>
      <trkpt lat="45.59916" lon="5.51512">
        <ele>339</ele>
        <time>2023-02-14T10:02:45.797Z</time>
      </trkpt>
      <trkpt lat="45.59913" lon="5.51513">
        <ele>339</ele>
        <time>2023-02-14T10:02:46.797Z</time>
      </trkpt>
      <trkpt lat="45.59909" lon="5.51514">
        <ele>339</ele>
        <time>2023-02-14T10:02:47.797Z</time>
      </trkpt>
      <trkpt lat="45.59906" lon="5.51515">
        <ele>339</ele>
        <time>2023-02-14T10:02:48.797Z</time>
      </trkpt>
      <trkpt lat="45.59904" lon="5.51516">
        <ele>338</ele>
        <time>2023-02-14T10:02:49.797Z</time>
      </trkpt>
      <trkpt lat="45.59902" lon="5.51516">
        <ele>337</ele>
        <time>2023-02-14T10:02:50.797Z</time>
      </trkpt>
      <trkpt lat="45.599" lon="5.51517">
        <ele>337</ele>
        <time>2023-02-14T10:02:51.797Z</time>
      </trkpt>
      <trkpt lat="45.59898" lon="5.51517">
        <ele>337</ele>
        <time>2023-02-14T10:02:52.797Z</time>
      </trkpt>
      <trkpt lat="45.59897" lon="5.51517">
        <ele>337</ele>
        <time>2023-02-14T10:02:53.797Z</time>
      </trkpt>
      <trkpt lat="45.59897" lon="5.51517">
        <ele>337</ele>
        <time>2023-02-14T10:02:54.797Z</time>
      </trkpt>
      <trkpt lat="45.59896" lon="5.51517">
        <ele>337</ele>
        <time>2023-02-14T10:02:55.797Z</time>
      </trkpt>
      <trkpt lat="45.59896" lon="5.51517">
        <ele>337</ele>
        <time>2023-02-14T10:02:56.797Z</time>
      </trkpt>
      <trkpt lat="45.59895" lon="5.51517">
        <ele>337</ele>
        <time>2023-02-14T10:02:57.797Z</time>
      </trkpt>
      <trkpt lat="45.59895" lon="5.51517">
        <ele>338</ele>
        <time>2023-02-14T10:02:58.797Z</time>
      </trkpt>
      <trkpt lat="45.59895" lon="5.51517">
        <ele>338</ele>
        <time>2023-02-14T10:02:59.797Z</time>
      </trkpt>
      <trkpt lat="45.59895" lon="5.51517">
        <ele>338</ele>
        <time>2023-02-14T10:03:00.797Z</time>
      </trkpt>
      <trkpt lat="45.59895" lon="5.51517">
        <ele>338</ele>
        <time>2023-02-14T10:03:01.797Z</time>
      </trkpt>
      <trkpt lat="45.59895" lon="5.51517">
        <ele>338</ele>
        <time>2023-02-14T10:03:02.797Z</time>
      </trkpt>
      <trkpt lat="45.59895" lon="5.51517">
        <ele>338</ele>
        <time>2023-02-14T10:03:03.797Z</time>
      </trkpt>
      <trkpt lat="45.59895" lon="5.51517">
        <ele>338</ele>
        <time>2023-02-14T10:03:04.797Z</time>
      </trkpt>
      <trkpt lat="45.59895" lon="5.51517">
        <ele>339</ele>
        <time>2023-02-14T10:03:05.797Z</time>
      </trkpt>
      <trkpt lat="45.59894" lon="5.51517">
        <ele>339</ele>
        <time>2023-02-14T10:03:06.797Z</time>
      </trkpt>
      <trkpt lat="45.59893" lon="5.51517">
        <ele>338</ele>
        <time>2023-02-14T10:03:07.797Z</time>
      </trkpt>
      <trkpt lat="45.59893" lon="5.51517">
        <ele>338</ele>
        <time>2023-02-14T10:03:08.797Z</time>
      </trkpt>
      <trkpt lat="45.59892" lon="5.51517">
        <ele>338</ele>
        <time>2023-02-14T10:03:09.797Z</time>
      </trkpt>
      <trkpt lat="45.59892" lon="5.51517">
        <ele>337</ele>
        <time>2023-02-14T10:03:10.797Z</time>
      </trkpt>
      <trkpt lat="45.59892" lon="5.51517">
        <ele>337</ele>
        <time>2023-02-14T10:03:11.797Z</time>
      </trkpt>
      <trkpt lat="45.59891" lon="5.51517">
        <ele>336</ele>
        <time>2023-02-14T10:03:12.797Z</time>
      </trkpt>
      <trkpt lat="45.5989" lon="5.51517">
        <ele>336</ele>
        <time>2023-02-14T10:03:13.797Z</time>
      </trkpt>
      <trkpt lat="45.59888" lon="5.51516">
        <ele>336</ele>
        <time>2023-02-14T10:03:14.797Z</time>
      </trkpt>
      <trkpt lat="45.59886" lon="5.51516">
        <ele>336</ele>
        <time>2023-02-14T10:03:15.797Z</time>
      </trkpt>
      <trkpt lat="45.59884" lon="5.51515">
        <ele>336</ele>
        <time>2023-02-14T10:03:16.797Z</time>
      </trkpt>
      <trkpt lat="45.59881" lon="5.51513">
        <ele>336</ele>
        <time>2023-02-14T10:03:17.797Z</time>
      </trkpt>
      <trkpt lat="45.59879" lon="5.51512">
        <ele>337</ele>
        <time>2023-02-14T10:03:18.797Z</time>
      </trkpt>
      <trkpt lat="45.59876" lon="5.5151">
        <ele>336</ele>
        <time>2023-02-14T10:03:19.797Z</time>
      </trkpt>
      <trkpt lat="45.59874" lon="5.51509">
        <ele>337</ele>
        <time>2023-02-14T10:03:20.797Z</time>
      </trkpt>
      <trkpt lat="45.59872" lon="5.51509">
        <ele>337</ele>
        <time>2023-02-14T10:03:21.797Z</time>
      </trkpt>
      <trkpt lat="45.59871" lon="5.51509">
        <ele>338</ele>
        <time>2023-02-14T10:03:22.797Z</time>
      </trkpt>
      <trkpt lat="45.5987" lon="5.51509">
        <ele>338</ele>
        <time>2023-02-14T10:03:23.797Z</time>
      </trkpt>
      <trkpt lat="45.59869" lon="5.5151">
        <ele>337</ele>
        <time>2023-02-14T10:03:24.797Z</time>
      </trkpt>
      <trkpt lat="45.59868" lon="5.5151">
        <ele>338</ele>
        <time>2023-02-14T10:03:25.797Z</time>
      </trkpt>
      <trkpt lat="45.59867" lon="5.5151">
        <ele>338</ele>
        <time>2023-02-14T10:03:26.797Z</time>
      </trkpt>
      <trkpt lat="45.59866" lon="5.51511">
        <ele>338</ele>
        <time>2023-02-14T10:03:27.797Z</time>
      </trkpt>
      <trkpt lat="45.59865" lon="5.51511">
        <ele>337</ele>
        <time>2023-02-14T10:03:28.797Z</time>
      </trkpt>
      <trkpt lat="45.59863" lon="5.51512">
        <ele>337</ele>
        <time>2023-02-14T10:03:29.797Z</time>
      </trkpt>
      <trkpt lat="45.59862" lon="5.51514">
        <ele>336</ele>
        <time>2023-02-14T10:03:30.797Z</time>
      </trkpt>
      <trkpt lat="45.5986" lon="5.51515">
        <ele>336</ele>
        <time>2023-02-14T10:03:31.797Z</time>
      </trkpt>
      <trkpt lat="45.59859" lon="5.51517">
        <ele>335</ele>
        <time>2023-02-14T10:03:32.797Z</time>
      </trkpt>
      <trkpt lat="45.59857" lon="5.51519">
        <ele>335</ele>
        <time>2023-02-14T10:03:33.797Z</time>
      </trkpt>
      <trkpt lat="45.59856" lon="5.51521">
        <ele>335</ele>
        <time>2023-02-14T10:03:34.797Z</time>
      </trkpt>
      <trkpt lat="45.59854" lon="5.51524">
        <ele>335</ele>
        <time>2023-02-14T10:03:35.797Z</time>
      </trkpt>
      <trkpt lat="45.59853" lon="5.51527">
        <ele>334</ele>
        <time>2023-02-14T10:03:36.797Z</time>
      </trkpt>
      <trkpt lat="45.59851" lon="5.5153">
        <ele>333</ele>
        <time>2023-02-14T10:03:37.797Z</time>
      </trkpt>
      <trkpt lat="45.5985" lon="5.51532">
        <ele>332</ele>
        <time>2023-02-14T10:03:38.797Z</time>
      </trkpt>
      <trkpt lat="45.59849" lon="5.51535">
        <ele>331</ele>
        <time>2023-02-14T10:03:39.797Z</time>
      </trkpt>
      <trkpt lat="45.59847" lon="5.51538">
        <ele>332</ele>
        <time>2023-02-14T10:03:40.797Z</time>
      </trkpt>
      <trkpt lat="45.59846" lon="5.51541">
        <ele>333</ele>
        <time>2023-02-14T10:03:41.797Z</time>
      </trkpt>
      <trkpt lat="45.59844" lon="5.51543">
        <ele>332</ele>
        <time>2023-02-14T10:03:42.797Z</time>
      </trkpt>
      <trkpt lat="45.59843" lon="5.51546">
        <ele>332</ele>
        <time>2023-02-14T10:03:43.797Z</time>
      </trkpt>
      <trkpt lat="45.59842" lon="5.51548">
        <ele>332</ele>
        <time>2023-02-14T10:03:44.797Z</time>
      </trkpt>
      <trkpt lat="45.5984" lon="5.51552">
        <ele>333</ele>
        <time>2023-02-14T10:03:45.797Z</time>
      </trkpt>
      <trkpt lat="45.59839" lon="5.51555">
        <ele>333</ele>
        <time>2023-02-14T10:03:46.797Z</time>
      </trkpt>
      <trkpt lat="45.59839" lon="5.51559">
        <ele>334</ele>
        <time>2023-02-14T10:03:47.797Z</time>
      </trkpt>
      <trkpt lat="45.59839" lon="5.51562">
        <ele>334</ele>
        <time>2023-02-14T10:03:48.797Z</time>
      </trkpt>
      <trkpt lat="45.59839" lon="5.51566">
        <ele>333</ele>
        <time>2023-02-14T10:03:49.797Z</time>
      </trkpt>
      <trkpt lat="45.5984" lon="5.51569">
        <ele>335</ele>
        <time>2023-02-14T10:03:50.797Z</time>
      </trkpt>
      <trkpt lat="45.59841" lon="5.51572">
        <ele>336</ele>
        <time>2023-02-14T10:03:51.797Z</time>
      </trkpt>
      <trkpt lat="45.59842" lon="5.51574">
        <ele>337</ele>
        <time>2023-02-14T10:03:52.797Z</time>
      </trkpt>
      <trkpt lat="45.59843" lon="5.51576">
        <ele>338</ele>
        <time>2023-02-14T10:03:53.797Z</time>
      </trkpt>
      <trkpt lat="45.59844" lon="5.51578">
        <ele>338</ele>
        <time>2023-02-14T10:03:54.797Z</time>
      </trkpt>
      <trkpt lat="45.59845" lon="5.5158">
        <ele>338</ele>
        <time>2023-02-14T10:03:55.797Z</time>
      </trkpt>
      <trkpt lat="45.59847" lon="5.51582">
        <ele>339</ele>
        <time>2023-02-14T10:03:56.797Z</time>
      </trkpt>
      <trkpt lat="45.59848" lon="5.51583">
        <ele>339</ele>
        <time>2023-02-14T10:03:57.797Z</time>
      </trkpt>
      <trkpt lat="45.59849" lon="5.51585">
        <ele>339</ele>
        <time>2023-02-14T10:03:58.797Z</time>
      </trkpt>
      <trkpt lat="45.5985" lon="5.51587">
        <ele>339</ele>
        <time>2023-02-14T10:03:59.797Z</time>
      </trkpt>
      <trkpt lat="45.59851" lon="5.51588">
        <ele>339</ele>
        <time>2023-02-14T10:04:00.797Z</time>
      </trkpt>
      <trkpt lat="45.59852" lon="5.51589">
        <ele>339</ele>
        <time>2023-02-14T10:04:01.797Z</time>
      </trkpt>
      <trkpt lat="45.59854" lon="5.51591">
        <ele>339</ele>
        <time>2023-02-14T10:04:02.797Z</time>
      </trkpt>
      <trkpt lat="45.59855" lon="5.51592">
        <ele>339</ele>
        <time>2023-02-14T10:04:03.797Z</time>
      </trkpt>
      <trkpt lat="45.59857" lon="5.51593">
        <ele>340</ele>
        <time>2023-02-14T10:04:04.797Z</time>
      </trkpt>
      <trkpt lat="45.59857" lon="5.51594">
        <ele>340</ele>
        <time>2023-02-14T10:04:05.797Z</time>
      </trkpt>
      <trkpt lat="45.59858" lon="5.51596">
        <ele>341</ele>
        <time>2023-02-14T10:04:06.797Z</time>
      </trkpt>
      <trkpt lat="45.59859" lon="5.51597">
        <ele>341</ele>
        <time>2023-02-14T10:04:07.797Z</time>
      </trkpt>
      <trkpt lat="45.5986" lon="5.51599">
        <ele>341</ele>
        <time>2023-02-14T10:04:08.797Z</time>
      </trkpt>
      <trkpt lat="45.59861" lon="5.51601">
        <ele>341</ele>
        <time>2023-02-14T10:04:09.797Z</time>
      </trkpt>
      <trkpt lat="45.59862" lon="5.51602">
        <ele>341</ele>
        <time>2023-02-14T10:04:10.797Z</time>
      </trkpt>
      <trkpt lat="45.59863" lon="5.51604">
        <ele>341</ele>
        <time>2023-02-14T10:04:11.797Z</time>
      </trkpt>
      <trkpt lat="45.59865" lon="5.51606">
        <ele>341</ele>
        <time>2023-02-14T10:04:12.797Z</time>
      </trkpt>
      <trkpt lat="45.59866" lon="5.51607">
        <ele>342</ele>
        <time>2023-02-14T10:04:13.797Z</time>
      </trkpt>
      <trkpt lat="45.59867" lon="5.51608">
        <ele>342</ele>
        <time>2023-02-14T10:04:14.797Z</time>
      </trkpt>
      <trkpt lat="45.59868" lon="5.51609">
        <ele>343</ele>
        <time>2023-02-14T10:04:15.797Z</time>
      </trkpt>
      <trkpt lat="45.59869" lon="5.5161">
        <ele>343</ele>
        <time>2023-02-14T10:04:16.797Z</time>
      </trkpt>
      <trkpt lat="45.5987" lon="5.51612">
        <ele>343</ele>
        <time>2023-02-14T10:04:17.797Z</time>
      </trkpt>
      <trkpt lat="45.59871" lon="5.51613">
        <ele>343</ele>
        <time>2023-02-14T10:04:18.797Z</time>
      </trkpt>
      <trkpt lat="45.59872" lon="5.51614">
        <ele>344</ele>
        <time>2023-02-14T10:04:19.797Z</time>
      </trkpt>
      <trkpt lat="45.59873" lon="5.51616">
        <ele>344</ele>
        <time>2023-02-14T10:04:20.797Z</time>
      </trkpt>
      <trkpt lat="45.59874" lon="5.51617">
        <ele>344</ele>
        <time>2023-02-14T10:04:21.797Z</time>
      </trkpt>
      <trkpt lat="45.59875" lon="5.51618">
        <ele>344</ele>
        <time>2023-02-14T10:04:22.797Z</time>
      </trkpt>
      <trkpt lat="45.59877" lon="5.51619">
        <ele>344</ele>
        <time>2023-02-14T10:04:23.797Z</time>
      </trkpt>
      <trkpt lat="45.59878" lon="5.51621">
        <ele>344</ele>
        <time>2023-02-14T10:04:24.797Z</time>
      </trkpt>
      <trkpt lat="45.59879" lon="5.51622">
        <ele>344</ele>
        <time>2023-02-14T10:04:25.797Z</time>
      </trkpt>
      <trkpt lat="45.5988" lon="5.51623">
        <ele>344</ele>
        <time>2023-02-14T10:04:26.797Z</time>
      </trkpt>
      <trkpt lat="45.59881" lon="5.51624">
        <ele>344</ele>
        <time>2023-02-14T10:04:27.797Z</time>
      </trkpt>
      <trkpt lat="45.59882" lon="5.51625">
        <ele>344</ele>
        <time>2023-02-14T10:04:28.797Z</time>
      </trkpt>
      <trkpt lat="45.59883" lon="5.51626">
        <ele>344</ele>
        <time>2023-02-14T10:04:29.797Z</time>
      </trkpt>
      <trkpt lat="45.59884" lon="5.51627">
        <ele>344</ele>
        <time>2023-02-14T10:04:30.797Z</time>
      </trkpt>
      <trkpt lat="45.59885" lon="5.51627">
        <ele>344</ele>
        <time>2023-02-14T10:04:31.797Z</time>
      </trkpt>
      <trkpt lat="45.59886" lon="5.51628">
        <ele>345</ele>
        <time>2023-02-14T10:04:32.797Z</time>
      </trkpt>
      <trkpt lat="45.59887" lon="5.51629">
        <ele>345</ele>
        <time>2023-02-14T10:04:33.797Z</time>
      </trkpt>
      <trkpt lat="45.59888" lon="5.5163">
        <ele>346</ele>
        <time>2023-02-14T10:04:34.797Z</time>
      </trkpt>
      <trkpt lat="45.5989" lon="5.51632">
        <ele>346</ele>
        <time>2023-02-14T10:04:35.797Z</time>
      </trkpt>
      <trkpt lat="45.59891" lon="5.51633">
        <ele>347</ele>
        <time>2023-02-14T10:04:36.797Z</time>
      </trkpt>
      <trkpt lat="45.59892" lon="5.51634">
        <ele>348</ele>
        <time>2023-02-14T10:04:37.797Z</time>
      </trkpt>
      <trkpt lat="45.59894" lon="5.51636">
        <ele>348</ele>
        <time>2023-02-14T10:04:38.797Z</time>
      </trkpt>
      <trkpt lat="45.59896" lon="5.51637">
        <ele>348</ele>
        <time>2023-02-14T10:04:39.797Z</time>
      </trkpt>
      <trkpt lat="45.59897" lon="5.51639">
        <ele>348</ele>
        <time>2023-02-14T10:04:40.797Z</time>
      </trkpt>
      <trkpt lat="45.59899" lon="5.5164">
        <ele>348</ele>
        <time>2023-02-14T10:04:41.797Z</time>
      </trkpt>
      <trkpt lat="45.59901" lon="5.51641">
        <ele>348</ele>
        <time>2023-02-14T10:04:42.797Z</time>
      </trkpt>
      <trkpt lat="45.59902" lon="5.51643">
        <ele>347</ele>
        <time>2023-02-14T10:04:43.797Z</time>
      </trkpt>
      <trkpt lat="45.59904" lon="5.51644">
        <ele>347</ele>
        <time>2023-02-14T10:04:44.797Z</time>
      </trkpt>
      <trkpt lat="45.59905" lon="5.51646">
        <ele>347</ele>
        <time>2023-02-14T10:04:45.797Z</time>
      </trkpt>
      <trkpt lat="45.59907" lon="5.51647">
        <ele>346</ele>
        <time>2023-02-14T10:04:46.797Z</time>
      </trkpt>
      <trkpt lat="45.59909" lon="5.51649">
        <ele>346</ele>
        <time>2023-02-14T10:04:47.797Z</time>
      </trkpt>
      <trkpt lat="45.5991" lon="5.51651">
        <ele>346</ele>
        <time>2023-02-14T10:04:48.797Z</time>
      </trkpt>
      <trkpt lat="45.59912" lon="5.51653">
        <ele>347</ele>
        <time>2023-02-14T10:04:49.797Z</time>
      </trkpt>
      <trkpt lat="45.59913" lon="5.51654">
        <ele>347</ele>
        <time>2023-02-14T10:04:50.797Z</time>
      </trkpt>
      <trkpt lat="45.59914" lon="5.51656">
        <ele>347</ele>
        <time>2023-02-14T10:04:51.797Z</time>
      </trkpt>
      <trkpt lat="45.59915" lon="5.51657">
        <ele>347</ele>
        <time>2023-02-14T10:04:52.797Z</time>
      </trkpt>
      <trkpt lat="45.59916" lon="5.51659">
        <ele>346</ele>
        <time>2023-02-14T10:04:53.797Z</time>
      </trkpt>
      <trkpt lat="45.59918" lon="5.51661">
        <ele>346</ele>
        <time>2023-02-14T10:04:54.797Z</time>
      </trkpt>
      <trkpt lat="45.5992" lon="5.51663">
        <ele>346</ele>
        <time>2023-02-14T10:04:55.797Z</time>
      </trkpt>
      <trkpt lat="45.59921" lon="5.51665">
        <ele>347</ele>
        <time>2023-02-14T10:04:56.797Z</time>
      </trkpt>
      <trkpt lat="45.59923" lon="5.51666">
        <ele>347</ele>
        <time>2023-02-14T10:04:57.797Z</time>
      </trkpt>
      <trkpt lat="45.59924" lon="5.51668">
        <ele>347</ele>
        <time>2023-02-14T10:04:58.797Z</time>
      </trkpt>
      <trkpt lat="45.59925" lon="5.5167">
        <ele>347</ele>
        <time>2023-02-14T10:04:59.797Z</time>
      </trkpt>
      <trkpt lat="45.59926" lon="5.51671">
        <ele>347</ele>
        <time>2023-02-14T10:05:00.797Z</time>
      </trkpt>
      <trkpt lat="45.59927" lon="5.51673">
        <ele>347</ele>
        <time>2023-02-14T10:05:01.797Z</time>
      </trkpt>
      <trkpt lat="45.59929" lon="5.51675">
        <ele>348</ele>
        <time>2023-02-14T10:05:02.797Z</time>
      </trkpt>
      <trkpt lat="45.5993" lon="5.51677">
        <ele>349</ele>
        <time>2023-02-14T10:05:03.797Z</time>
      </trkpt>
      <trkpt lat="45.59931" lon="5.51679">
        <ele>349</ele>
        <time>2023-02-14T10:05:04.797Z</time>
      </trkpt>
      <trkpt lat="45.59933" lon="5.51681">
        <ele>349</ele>
        <time>2023-02-14T10:05:05.797Z</time>
      </trkpt>
      <trkpt lat="45.59934" lon="5.51683">
        <ele>349</ele>
        <time>2023-02-14T10:05:06.797Z</time>
      </trkpt>
      <trkpt lat="45.59936" lon="5.51685">
        <ele>349</ele>
        <time>2023-02-14T10:05:07.797Z</time>
      </trkpt>
      <trkpt lat="45.59937" lon="5.51687">
        <ele>348</ele>
        <time>2023-02-14T10:05:08.797Z</time>
      </trkpt>
      <trkpt lat="45.59939" lon="5.51689">
        <ele>348</ele>
        <time>2023-02-14T10:05:09.797Z</time>
      </trkpt>
      <trkpt lat="45.5994" lon="5.51691">
        <ele>349</ele>
        <time>2023-02-14T10:05:10.797Z</time>
      </trkpt>
      <trkpt lat="45.5994" lon="5.51693">
        <ele>348</ele>
        <time>2023-02-14T10:05:11.797Z</time>
      </trkpt>
      <trkpt lat="45.59941" lon="5.51694">
        <ele>348</ele>
        <time>2023-02-14T10:05:12.797Z</time>
      </trkpt>
      <trkpt lat="45.59942" lon="5.51696">
        <ele>348</ele>
        <time>2023-02-14T10:05:13.797Z</time>
      </trkpt>
      <trkpt lat="45.59944" lon="5.51698">
        <ele>349</ele>
        <time>2023-02-14T10:05:14.797Z</time>
      </trkpt>
      <trkpt lat="45.59946" lon="5.517">
        <ele>348</ele>
        <time>2023-02-14T10:05:15.797Z</time>
      </trkpt>
      <trkpt lat="45.59947" lon="5.51703">
        <ele>347</ele>
        <time>2023-02-14T10:05:16.797Z</time>
      </trkpt>
      <trkpt lat="45.59949" lon="5.51705">
        <ele>347</ele>
        <time>2023-02-14T10:05:17.797Z</time>
      </trkpt>
      <trkpt lat="45.5995" lon="5.51707">
        <ele>347</ele>
        <time>2023-02-14T10:05:18.797Z</time>
      </trkpt>
      <trkpt lat="45.59952" lon="5.5171">
        <ele>347</ele>
        <time>2023-02-14T10:05:19.797Z</time>
      </trkpt>
      <trkpt lat="45.59953" lon="5.51711">
        <ele>347</ele>
        <time>2023-02-14T10:05:20.797Z</time>
      </trkpt>
      <trkpt lat="45.59955" lon="5.51713">
        <ele>348</ele>
        <time>2023-02-14T10:05:21.797Z</time>
      </trkpt>
      <trkpt lat="45.59956" lon="5.51715">
        <ele>348</ele>
        <time>2023-02-14T10:05:22.797Z</time>
      </trkpt>
      <trkpt lat="45.59958" lon="5.51718">
        <ele>348</ele>
        <time>2023-02-14T10:05:23.797Z</time>
      </trkpt>
      <trkpt lat="45.59959" lon="5.51719">
        <ele>348</ele>
        <time>2023-02-14T10:05:24.797Z</time>
      </trkpt>
      <trkpt lat="45.5996" lon="5.51721">
        <ele>347</ele>
        <time>2023-02-14T10:05:25.797Z</time>
      </trkpt>
      <trkpt lat="45.59962" lon="5.51722">
        <ele>348</ele>
        <time>2023-02-14T10:05:26.797Z</time>
      </trkpt>
      <trkpt lat="45.59963" lon="5.51723">
        <ele>348</ele>
        <time>2023-02-14T10:05:27.797Z</time>
      </trkpt>
      <trkpt lat="45.59964" lon="5.51725">
        <ele>347</ele>
        <time>2023-02-14T10:05:28.797Z</time>
      </trkpt>
      <trkpt lat="45.59964" lon="5.51727">
        <ele>347</ele>
        <time>2023-02-14T10:05:29.797Z</time>
      </trkpt>
      <trkpt lat="45.59964" lon="5.51729">
        <ele>347</ele>
        <time>2023-02-14T10:05:30.797Z</time>
      </trkpt>
      <trkpt lat="45.59964" lon="5.51731">
        <ele>347</ele>
        <time>2023-02-14T10:05:31.797Z</time>
      </trkpt>
      <trkpt lat="45.59963" lon="5.51732">
        <ele>347</ele>
        <time>2023-02-14T10:05:32.797Z</time>
      </trkpt>
      <trkpt lat="45.59963" lon="5.51733">
        <ele>346</ele>
        <time>2023-02-14T10:05:33.797Z</time>
      </trkpt>
      <trkpt lat="45.59962" lon="5.51734">
        <ele>346</ele>
        <time>2023-02-14T10:05:34.797Z</time>
      </trkpt>
      <trkpt lat="45.59961" lon="5.51734">
        <ele>346</ele>
        <time>2023-02-14T10:05:35.797Z</time>
      </trkpt>
      <trkpt lat="45.59961" lon="5.51733">
        <ele>347</ele>
        <time>2023-02-14T10:05:36.797Z</time>
      </trkpt>
      <trkpt lat="45.5996" lon="5.51732">
        <ele>347</ele>
        <time>2023-02-14T10:05:37.797Z</time>
      </trkpt>
      <trkpt lat="45.59959" lon="5.51732">
        <ele>347</ele>
        <time>2023-02-14T10:05:38.797Z</time>
      </trkpt>
      <trkpt lat="45.59958" lon="5.51731">
        <ele>348</ele>
        <time>2023-02-14T10:05:39.797Z</time>
      </trkpt>
      <trkpt lat="45.59956" lon="5.51731">
        <ele>349</ele>
        <time>2023-02-14T10:05:40.797Z</time>
      </trkpt>
      <trkpt lat="45.59955" lon="5.5173">
        <ele>350</ele>
        <time>2023-02-14T10:05:41.797Z</time>
      </trkpt>
      <trkpt lat="45.59954" lon="5.51729">
        <ele>350</ele>
        <time>2023-02-14T10:05:42.797Z</time>
      </trkpt>
      <trkpt lat="45.59953" lon="5.51728">
        <ele>351</ele>
        <time>2023-02-14T10:05:43.797Z</time>
      </trkpt>
      <trkpt lat="45.59952" lon="5.51727">
        <ele>351</ele>
        <time>2023-02-14T10:05:44.797Z</time>
      </trkpt>
      <trkpt lat="45.59951" lon="5.51726">
        <ele>351</ele>
        <time>2023-02-14T10:05:45.797Z</time>
      </trkpt>
      <trkpt lat="45.5995" lon="5.51725">
        <ele>351</ele>
        <time>2023-02-14T10:05:46.797Z</time>
      </trkpt>
      <trkpt lat="45.5995" lon="5.51724">
        <ele>352</ele>
        <time>2023-02-14T10:05:47.797Z</time>
      </trkpt>
      <trkpt lat="45.59949" lon="5.51723">
        <ele>353</ele>
        <time>2023-02-14T10:05:48.797Z</time>
      </trkpt>
      <trkpt lat="45.59948" lon="5.51723">
        <ele>353</ele>
        <time>2023-02-14T10:05:49.797Z</time>
      </trkpt>
      <trkpt lat="45.59947" lon="5.51722">
        <ele>354</ele>
        <time>2023-02-14T10:05:50.797Z</time>
      </trkpt>
      <trkpt lat="45.59946" lon="5.51721">
        <ele>355</ele>
        <time>2023-02-14T10:05:51.797Z</time>
      </trkpt>
      <trkpt lat="45.59945" lon="5.5172">
        <ele>355</ele>
        <time>2023-02-14T10:05:52.797Z</time>
      </trkpt>
      <trkpt lat="45.59944" lon="5.5172">
        <ele>355</ele>
        <time>2023-02-14T10:05:53.797Z</time>
      </trkpt>
      <trkpt lat="45.59943" lon="5.51719">
        <ele>355</ele>
        <time>2023-02-14T10:05:54.797Z</time>
      </trkpt>
      <trkpt lat="45.59942" lon="5.51718">
        <ele>356</ele>
        <time>2023-02-14T10:05:55.797Z</time>
      </trkpt>
      <trkpt lat="45.59941" lon="5.51717">
        <ele>356</ele>
        <time>2023-02-14T10:05:56.797Z</time>
      </trkpt>
      <trkpt lat="45.5994" lon="5.51716">
        <ele>357</ele>
        <time>2023-02-14T10:05:57.797Z</time>
      </trkpt>
      <trkpt lat="45.59938" lon="5.51715">
        <ele>358</ele>
        <time>2023-02-14T10:05:58.797Z</time>
      </trkpt>
      <trkpt lat="45.59937" lon="5.51714">
        <ele>358</ele>
        <time>2023-02-14T10:05:59.797Z</time>
      </trkpt>
      <trkpt lat="45.59936" lon="5.51713">
        <ele>357</ele>
        <time>2023-02-14T10:06:00.797Z</time>
      </trkpt>
      <trkpt lat="45.59934" lon="5.51712">
        <ele>357</ele>
        <time>2023-02-14T10:06:01.797Z</time>
      </trkpt>
      <trkpt lat="45.59933" lon="5.51711">
        <ele>358</ele>
        <time>2023-02-14T10:06:02.797Z</time>
      </trkpt>
      <trkpt lat="45.59932" lon="5.5171">
        <ele>358</ele>
        <time>2023-02-14T10:06:03.797Z</time>
      </trkpt>
      <trkpt lat="45.59931" lon="5.51709">
        <ele>359</ele>
        <time>2023-02-14T10:06:04.797Z</time>
      </trkpt>
      <trkpt lat="45.59929" lon="5.51708">
        <ele>359</ele>
        <time>2023-02-14T10:06:05.797Z</time>
      </trkpt>
      <trkpt lat="45.59928" lon="5.51707">
        <ele>360</ele>
        <time>2023-02-14T10:06:06.797Z</time>
      </trkpt>
      <trkpt lat="45.59927" lon="5.51706">
        <ele>361</ele>
        <time>2023-02-14T10:06:07.797Z</time>
      </trkpt>
      <trkpt lat="45.59926" lon="5.51705">
        <ele>361</ele>
        <time>2023-02-14T10:06:08.797Z</time>
      </trkpt>
      <trkpt lat="45.59925" lon="5.51704">
        <ele>362</ele>
        <time>2023-02-14T10:06:09.797Z</time>
      </trkpt>
      <trkpt lat="45.59924" lon="5.51703">
        <ele>362</ele>
        <time>2023-02-14T10:06:10.797Z</time>
      </trkpt>
      <trkpt lat="45.59923" lon="5.51703">
        <ele>361</ele>
        <time>2023-02-14T10:06:11.797Z</time>
      </trkpt>
      <trkpt lat="45.59921" lon="5.51702">
        <ele>361</ele>
        <time>2023-02-14T10:06:12.797Z</time>
      </trkpt>
      <trkpt lat="45.5992" lon="5.51701">
        <ele>361</ele>
        <time>2023-02-14T10:06:13.797Z</time>
      </trkpt>
      <trkpt lat="45.59919" lon="5.517">
        <ele>362</ele>
        <time>2023-02-14T10:06:14.797Z</time>
      </trkpt>
      <trkpt lat="45.59918" lon="5.51699">
        <ele>362</ele>
        <time>2023-02-14T10:06:15.797Z</time>
      </trkpt>
      <trkpt lat="45.59917" lon="5.51698">
        <ele>362</ele>
        <time>2023-02-14T10:06:16.797Z</time>
      </trkpt>
      <trkpt lat="45.59915" lon="5.51698">
        <ele>362</ele>
        <time>2023-02-14T10:06:17.797Z</time>
      </trkpt>
      <trkpt lat="45.59914" lon="5.51697">
        <ele>362</ele>
        <time>2023-02-14T10:06:18.797Z</time>
      </trkpt>
      <trkpt lat="45.59913" lon="5.51696">
        <ele>362</ele>
        <time>2023-02-14T10:06:19.797Z</time>
      </trkpt>
      <trkpt lat="45.59912" lon="5.51695">
        <ele>362</ele>
        <time>2023-02-14T10:06:20.797Z</time>
      </trkpt>
      <trkpt lat="45.59911" lon="5.51694">
        <ele>362</ele>
        <time>2023-02-14T10:06:21.797Z</time>
      </trkpt>
      <trkpt lat="45.5991" lon="5.51693">
        <ele>362</ele>
        <time>2023-02-14T10:06:22.797Z</time>
      </trkpt>
      <trkpt lat="45.59909" lon="5.51692">
        <ele>362</ele>
        <time>2023-02-14T10:06:23.797Z</time>
      </trkpt>
      <trkpt lat="45.59908" lon="5.51691">
        <ele>363</ele>
        <time>2023-02-14T10:06:24.797Z</time>
      </trkpt>
      <trkpt lat="45.59907" lon="5.5169">
        <ele>363</ele>
        <time>2023-02-14T10:06:25.797Z</time>
      </trkpt>
      <trkpt lat="45.59905" lon="5.5169">
        <ele>363</ele>
        <time>2023-02-14T10:06:26.797Z</time>
      </trkpt>
      <trkpt lat="45.59904" lon="5.51689">
        <ele>363</ele>
        <time>2023-02-14T10:06:27.797Z</time>
      </trkpt>
      <trkpt lat="45.59903" lon="5.51688">
        <ele>364</ele>
        <time>2023-02-14T10:06:28.797Z</time>
      </trkpt>
      <trkpt lat="45.59902" lon="5.51687">
        <ele>364</ele>
        <time>2023-02-14T10:06:29.797Z</time>
      </trkpt>
      <trkpt lat="45.599" lon="5.51687">
        <ele>364</ele>
        <time>2023-02-14T10:06:30.797Z</time>
      </trkpt>
      <trkpt lat="45.59899" lon="5.51686">
        <ele>364</ele>
        <time>2023-02-14T10:06:31.797Z</time>
      </trkpt>
      <trkpt lat="45.59897" lon="5.51686">
        <ele>364</ele>
        <time>2023-02-14T10:06:32.797Z</time>
      </trkpt>
      <trkpt lat="45.59896" lon="5.51686">
        <ele>365</ele>
        <time>2023-02-14T10:06:33.797Z</time>
      </trkpt>
      <trkpt lat="45.59895" lon="5.51686">
        <ele>365</ele>
        <time>2023-02-14T10:06:34.797Z</time>
      </trkpt>
      <trkpt lat="45.59893" lon="5.51686">
        <ele>364</ele>
        <time>2023-02-14T10:06:35.797Z</time>
      </trkpt>
      <trkpt lat="45.59892" lon="5.51686">
        <ele>363</ele>
        <time>2023-02-14T10:06:36.797Z</time>
      </trkpt>
      <trkpt lat="45.59891" lon="5.51687">
        <ele>363</ele>
        <time>2023-02-14T10:06:37.797Z</time>
      </trkpt>
      <trkpt lat="45.5989" lon="5.51688">
        <ele>363</ele>
        <time>2023-02-14T10:06:38.797Z</time>
      </trkpt>
      <trkpt lat="45.59889" lon="5.51688">
        <ele>362</ele>
        <time>2023-02-14T10:06:39.797Z</time>
      </trkpt>
      <trkpt lat="45.59888" lon="5.5169">
        <ele>363</ele>
        <time>2023-02-14T10:06:40.797Z</time>
      </trkpt>
      <trkpt lat="45.59887" lon="5.51691">
        <ele>363</ele>
        <time>2023-02-14T10:06:41.797Z</time>
      </trkpt>
      <trkpt lat="45.59887" lon="5.51693">
        <ele>362</ele>
        <time>2023-02-14T10:06:42.797Z</time>
      </trkpt>
      <trkpt lat="45.59886" lon="5.51695">
        <ele>363</ele>
        <time>2023-02-14T10:06:43.797Z</time>
      </trkpt>
      <trkpt lat="45.59885" lon="5.51697">
        <ele>363</ele>
        <time>2023-02-14T10:06:44.797Z</time>
      </trkpt>
      <trkpt lat="45.59885" lon="5.517">
        <ele>363</ele>
        <time>2023-02-14T10:06:45.797Z</time>
      </trkpt>
      <trkpt lat="45.59884" lon="5.51702">
        <ele>364</ele>
        <time>2023-02-14T10:06:46.797Z</time>
      </trkpt>
      <trkpt lat="45.59883" lon="5.51704">
        <ele>363</ele>
        <time>2023-02-14T10:06:47.797Z</time>
      </trkpt>
      <trkpt lat="45.59883" lon="5.51706">
        <ele>363</ele>
        <time>2023-02-14T10:06:48.797Z</time>
      </trkpt>
      <trkpt lat="45.59882" lon="5.51708">
        <ele>363</ele>
        <time>2023-02-14T10:06:49.797Z</time>
      </trkpt>
      <trkpt lat="45.59882" lon="5.51711">
        <ele>362</ele>
        <time>2023-02-14T10:06:50.797Z</time>
      </trkpt>
      <trkpt lat="45.59881" lon="5.51713">
        <ele>361</ele>
        <time>2023-02-14T10:06:51.797Z</time>
      </trkpt>
      <trkpt lat="45.59881" lon="5.51716">
        <ele>361</ele>
        <time>2023-02-14T10:06:52.797Z</time>
      </trkpt>
      <trkpt lat="45.5988" lon="5.51719">
        <ele>360</ele>
        <time>2023-02-14T10:06:53.797Z</time>
      </trkpt>
      <trkpt lat="45.59879" lon="5.51722">
        <ele>360</ele>
        <time>2023-02-14T10:06:54.797Z</time>
      </trkpt>
      <trkpt lat="45.59878" lon="5.51725">
        <ele>359</ele>
        <time>2023-02-14T10:06:55.797Z</time>
      </trkpt>
      <trkpt lat="45.59877" lon="5.51729">
        <ele>359</ele>
        <time>2023-02-14T10:06:56.797Z</time>
      </trkpt>
      <trkpt lat="45.59876" lon="5.51732">
        <ele>359</ele>
        <time>2023-02-14T10:06:57.797Z</time>
      </trkpt>
      <trkpt lat="45.59876" lon="5.51736">
        <ele>358</ele>
        <time>2023-02-14T10:06:58.797Z</time>
      </trkpt>
      <trkpt lat="45.59875" lon="5.51739">
        <ele>358</ele>
        <time>2023-02-14T10:06:59.797Z</time>
      </trkpt>
      <trkpt lat="45.59874" lon="5.51743">
        <ele>358</ele>
        <time>2023-02-14T10:07:00.797Z</time>
      </trkpt>
      <trkpt lat="45.59873" lon="5.51747">
        <ele>358</ele>
        <time>2023-02-14T10:07:01.797Z</time>
      </trkpt>
      <trkpt lat="45.59871" lon="5.51751">
        <ele>358</ele>
        <time>2023-02-14T10:07:02.797Z</time>
      </trkpt>
      <trkpt lat="45.5987" lon="5.51754">
        <ele>358</ele>
        <time>2023-02-14T10:07:03.797Z</time>
      </trkpt>
      <trkpt lat="45.59869" lon="5.51758">
        <ele>358</ele>
        <time>2023-02-14T10:07:04.797Z</time>
      </trkpt>
      <trkpt lat="45.59868" lon="5.51762">
        <ele>358</ele>
        <time>2023-02-14T10:07:05.797Z</time>
      </trkpt>
      <trkpt lat="45.59867" lon="5.51766">
        <ele>358</ele>
        <time>2023-02-14T10:07:06.797Z</time>
      </trkpt>
      <trkpt lat="45.59866" lon="5.5177">
        <ele>359</ele>
        <time>2023-02-14T10:07:07.797Z</time>
      </trkpt>
      <trkpt lat="45.59865" lon="5.51774">
        <ele>359</ele>
        <time>2023-02-14T10:07:08.797Z</time>
      </trkpt>
      <trkpt lat="45.59864" lon="5.51777">
        <ele>359</ele>
        <time>2023-02-14T10:07:09.797Z</time>
      </trkpt>
      <trkpt lat="45.59863" lon="5.51781">
        <ele>359</ele>
        <time>2023-02-14T10:07:10.797Z</time>
      </trkpt>
      <trkpt lat="45.59862" lon="5.51785">
        <ele>359</ele>
        <time>2023-02-14T10:07:11.797Z</time>
      </trkpt>
      <trkpt lat="45.59861" lon="5.51789">
        <ele>359</ele>
        <time>2023-02-14T10:07:12.797Z</time>
      </trkpt>
      <trkpt lat="45.5986" lon="5.51792">
        <ele>359</ele>
        <time>2023-02-14T10:07:13.797Z</time>
      </trkpt>
      <trkpt lat="45.59859" lon="5.51796">
        <ele>358</ele>
        <time>2023-02-14T10:07:14.797Z</time>
      </trkpt>
      <trkpt lat="45.59858" lon="5.51799">
        <ele>358</ele>
        <time>2023-02-14T10:07:15.797Z</time>
      </trkpt>
      <trkpt lat="45.59857" lon="5.51803">
        <ele>358</ele>
        <time>2023-02-14T10:07:16.797Z</time>
      </trkpt>
      <trkpt lat="45.59856" lon="5.51807">
        <ele>358</ele>
        <time>2023-02-14T10:07:17.797Z</time>
      </trkpt>
      <trkpt lat="45.59856" lon="5.5181">
        <ele>358</ele>
        <time>2023-02-14T10:07:18.797Z</time>
      </trkpt>
      <trkpt lat="45.59855" lon="5.51814">
        <ele>359</ele>
        <time>2023-02-14T10:07:19.797Z</time>
      </trkpt>
      <trkpt lat="45.59854" lon="5.51817">
        <ele>359</ele>
        <time>2023-02-14T10:07:20.797Z</time>
      </trkpt>
      <trkpt lat="45.59852" lon="5.51821">
        <ele>359</ele>
        <time>2023-02-14T10:07:21.797Z</time>
      </trkpt>
      <trkpt lat="45.59851" lon="5.51824">
        <ele>359</ele>
        <time>2023-02-14T10:07:22.797Z</time>
      </trkpt>
      <trkpt lat="45.5985" lon="5.51827">
        <ele>359</ele>
        <time>2023-02-14T10:07:23.797Z</time>
      </trkpt>
      <trkpt lat="45.59849" lon="5.51829">
        <ele>359</ele>
        <time>2023-02-14T10:07:24.797Z</time>
      </trkpt>
      <trkpt lat="45.59848" lon="5.51832">
        <ele>359</ele>
        <time>2023-02-14T10:07:25.797Z</time>
      </trkpt>
      <trkpt lat="45.59846" lon="5.51833">
        <ele>359</ele>
        <time>2023-02-14T10:07:26.797Z</time>
      </trkpt>
      <trkpt lat="45.59844" lon="5.51835">
        <ele>360</ele>
        <time>2023-02-14T10:07:27.797Z</time>
      </trkpt>
      <trkpt lat="45.59843" lon="5.51835">
        <ele>361</ele>
        <time>2023-02-14T10:07:28.797Z</time>
      </trkpt>
      <trkpt lat="45.59841" lon="5.51835">
        <ele>361</ele>
        <time>2023-02-14T10:07:29.797Z</time>
      </trkpt>
      <trkpt lat="45.5984" lon="5.51835">
        <ele>362</ele>
        <time>2023-02-14T10:07:30.797Z</time>
      </trkpt>
      <trkpt lat="45.59839" lon="5.51835">
        <ele>362</ele>
        <time>2023-02-14T10:07:31.797Z</time>
      </trkpt>
      <trkpt lat="45.59837" lon="5.51835">
        <ele>362</ele>
        <time>2023-02-14T10:07:32.797Z</time>
      </trkpt>
      <trkpt lat="45.59836" lon="5.51834">
        <ele>363</ele>
        <time>2023-02-14T10:07:33.797Z</time>
      </trkpt>
      <trkpt lat="45.59834" lon="5.51834">
        <ele>363</ele>
        <time>2023-02-14T10:07:34.797Z</time>
      </trkpt>
      <trkpt lat="45.59833" lon="5.51833">
        <ele>363</ele>
        <time>2023-02-14T10:07:35.797Z</time>
      </trkpt>
      <trkpt lat="45.59831" lon="5.51833">
        <ele>364</ele>
        <time>2023-02-14T10:07:36.797Z</time>
      </trkpt>
      <trkpt lat="45.5983" lon="5.51832">
        <ele>364</ele>
        <time>2023-02-14T10:07:37.797Z</time>
      </trkpt>
      <trkpt lat="45.59828" lon="5.51832">
        <ele>365</ele>
        <time>2023-02-14T10:07:38.797Z</time>
      </trkpt>
      <trkpt lat="45.59827" lon="5.51831">
        <ele>365</ele>
        <time>2023-02-14T10:07:39.797Z</time>
      </trkpt>
      <trkpt lat="45.59825" lon="5.5183">
        <ele>366</ele>
        <time>2023-02-14T10:07:40.797Z</time>
      </trkpt>
      <trkpt lat="45.59824" lon="5.5183">
        <ele>366</ele>
        <time>2023-02-14T10:07:41.797Z</time>
      </trkpt>
      <trkpt lat="45.59823" lon="5.5183">
        <ele>366</ele>
        <time>2023-02-14T10:07:42.797Z</time>
      </trkpt>
      <trkpt lat="45.59821" lon="5.51829">
        <ele>366</ele>
        <time>2023-02-14T10:07:43.797Z</time>
      </trkpt>
      <trkpt lat="45.5982" lon="5.51829">
        <ele>367</ele>
        <time>2023-02-14T10:07:44.797Z</time>
      </trkpt>
      <trkpt lat="45.59819" lon="5.51828">
        <ele>367</ele>
        <time>2023-02-14T10:07:45.797Z</time>
      </trkpt>
      <trkpt lat="45.59817" lon="5.51828">
        <ele>368</ele>
        <time>2023-02-14T10:07:46.797Z</time>
      </trkpt>
      <trkpt lat="45.59816" lon="5.51827">
        <ele>368</ele>
        <time>2023-02-14T10:07:47.797Z</time>
      </trkpt>
      <trkpt lat="45.59815" lon="5.51826">
        <ele>368</ele>
        <time>2023-02-14T10:07:48.797Z</time>
      </trkpt>
      <trkpt lat="45.59814" lon="5.51826">
        <ele>368</ele>
        <time>2023-02-14T10:07:49.797Z</time>
      </trkpt>
      <trkpt lat="45.59813" lon="5.51825">
        <ele>368</ele>
        <time>2023-02-14T10:07:50.797Z</time>
      </trkpt>
      <trkpt lat="45.59812" lon="5.51824">
        <ele>369</ele>
        <time>2023-02-14T10:07:51.797Z</time>
      </trkpt>
      <trkpt lat="45.5981" lon="5.51824">
        <ele>369</ele>
        <time>2023-02-14T10:07:52.797Z</time>
      </trkpt>
      <trkpt lat="45.59809" lon="5.51823">
        <ele>369</ele>
        <time>2023-02-14T10:07:53.797Z</time>
      </trkpt>
      <trkpt lat="45.59808" lon="5.51823">
        <ele>369</ele>
        <time>2023-02-14T10:07:54.797Z</time>
      </trkpt>
      <trkpt lat="45.59807" lon="5.51823">
        <ele>369</ele>
        <time>2023-02-14T10:07:55.797Z</time>
      </trkpt>
      <trkpt lat="45.59806" lon="5.51822">
        <ele>369</ele>
        <time>2023-02-14T10:07:56.797Z</time>
      </trkpt>
      <trkpt lat="45.59804" lon="5.51822">
        <ele>370</ele>
        <time>2023-02-14T10:07:57.797Z</time>
      </trkpt>
      <trkpt lat="45.59803" lon="5.51821">
        <ele>370</ele>
        <time>2023-02-14T10:07:58.797Z</time>
      </trkpt>
      <trkpt lat="45.59802" lon="5.5182">
        <ele>370</ele>
        <time>2023-02-14T10:07:59.797Z</time>
      </trkpt>
      <trkpt lat="45.598" lon="5.51819">
        <ele>370</ele>
        <time>2023-02-14T10:08:00.797Z</time>
      </trkpt>
      <trkpt lat="45.59799" lon="5.51818">
        <ele>371</ele>
        <time>2023-02-14T10:08:01.797Z</time>
      </trkpt>
      <trkpt lat="45.59798" lon="5.51818">
        <ele>371</ele>
        <time>2023-02-14T10:08:02.797Z</time>
      </trkpt>
      <trkpt lat="45.59797" lon="5.51817">
        <ele>371</ele>
        <time>2023-02-14T10:08:03.797Z</time>
      </trkpt>
      <trkpt lat="45.59796" lon="5.51817">
        <ele>371</ele>
        <time>2023-02-14T10:08:04.797Z</time>
      </trkpt>
      <trkpt lat="45.59794" lon="5.51816">
        <ele>371</ele>
        <time>2023-02-14T10:08:05.797Z</time>
      </trkpt>
      <trkpt lat="45.59793" lon="5.51816">
        <ele>371</ele>
        <time>2023-02-14T10:08:06.797Z</time>
      </trkpt>
      <trkpt lat="45.59792" lon="5.51815">
        <ele>372</ele>
        <time>2023-02-14T10:08:07.797Z</time>
      </trkpt>
      <trkpt lat="45.59791" lon="5.51814">
        <ele>372</ele>
        <time>2023-02-14T10:08:08.797Z</time>
      </trkpt>
      <trkpt lat="45.5979" lon="5.51814">
        <ele>372</ele>
        <time>2023-02-14T10:08:09.797Z</time>
      </trkpt>
      <trkpt lat="45.59789" lon="5.51813">
        <ele>373</ele>
        <time>2023-02-14T10:08:10.797Z</time>
      </trkpt>
      <trkpt lat="45.59787" lon="5.51812">
        <ele>373</ele>
        <time>2023-02-14T10:08:11.797Z</time>
      </trkpt>
      <trkpt lat="45.59786" lon="5.51811">
        <ele>373</ele>
        <time>2023-02-14T10:08:12.797Z</time>
      </trkpt>
      <trkpt lat="45.59785" lon="5.51811">
        <ele>374</ele>
        <time>2023-02-14T10:08:13.797Z</time>
      </trkpt>
      <trkpt lat="45.59784" lon="5.5181">
        <ele>374</ele>
        <time>2023-02-14T10:08:14.797Z</time>
      </trkpt>
      <trkpt lat="45.59782" lon="5.5181">
        <ele>374</ele>
        <time>2023-02-14T10:08:15.797Z</time>
      </trkpt>
      <trkpt lat="45.59781" lon="5.51809">
        <ele>374</ele>
        <time>2023-02-14T10:08:16.797Z</time>
      </trkpt>
      <trkpt lat="45.5978" lon="5.51808">
        <ele>375</ele>
        <time>2023-02-14T10:08:17.797Z</time>
      </trkpt>
      <trkpt lat="45.59779" lon="5.51808">
        <ele>376</ele>
        <time>2023-02-14T10:08:18.797Z</time>
      </trkpt>
      <trkpt lat="45.59777" lon="5.51807">
        <ele>376</ele>
        <time>2023-02-14T10:08:19.797Z</time>
      </trkpt>
      <trkpt lat="45.59776" lon="5.51806">
        <ele>377</ele>
        <time>2023-02-14T10:08:20.797Z</time>
      </trkpt>
      <trkpt lat="45.59775" lon="5.51806">
        <ele>377</ele>
        <time>2023-02-14T10:08:21.797Z</time>
      </trkpt>
      <trkpt lat="45.59774" lon="5.51805">
        <ele>377</ele>
        <time>2023-02-14T10:08:22.797Z</time>
      </trkpt>
      <trkpt lat="45.59772" lon="5.51804">
        <ele>377</ele>
        <time>2023-02-14T10:08:23.797Z</time>
      </trkpt>
      <trkpt lat="45.59771" lon="5.51803">
        <ele>377</ele>
        <time>2023-02-14T10:08:24.797Z</time>
      </trkpt>
      <trkpt lat="45.5977" lon="5.51803">
        <ele>377</ele>
        <time>2023-02-14T10:08:25.797Z</time>
      </trkpt>
      <trkpt lat="45.59769" lon="5.51802">
        <ele>377</ele>
        <time>2023-02-14T10:08:26.797Z</time>
      </trkpt>
      <trkpt lat="45.59767" lon="5.51801">
        <ele>378</ele>
        <time>2023-02-14T10:08:27.797Z</time>
      </trkpt>
      <trkpt lat="45.59766" lon="5.51801">
        <ele>378</ele>
        <time>2023-02-14T10:08:28.797Z</time>
      </trkpt>
      <trkpt lat="45.59765" lon="5.518">
        <ele>378</ele>
        <time>2023-02-14T10:08:29.797Z</time>
      </trkpt>
      <trkpt lat="45.59763" lon="5.51799">
        <ele>378</ele>
        <time>2023-02-14T10:08:30.797Z</time>
      </trkpt>
      <trkpt lat="45.59762" lon="5.51799">
        <ele>379</ele>
        <time>2023-02-14T10:08:31.797Z</time>
      </trkpt>
      <trkpt lat="45.5976" lon="5.51798">
        <ele>379</ele>
        <time>2023-02-14T10:08:32.797Z</time>
      </trkpt>
      <trkpt lat="45.59759" lon="5.51798">
        <ele>379</ele>
        <time>2023-02-14T10:08:33.797Z</time>
      </trkpt>
      <trkpt lat="45.59758" lon="5.51797">
        <ele>379</ele>
        <time>2023-02-14T10:08:34.797Z</time>
      </trkpt>
      <trkpt lat="45.59756" lon="5.51797">
        <ele>379</ele>
        <time>2023-02-14T10:08:35.797Z</time>
      </trkpt>
      <trkpt lat="45.59755" lon="5.51796">
        <ele>379</ele>
        <time>2023-02-14T10:08:36.797Z</time>
      </trkpt>
      <trkpt lat="45.59753" lon="5.51795">
        <ele>380</ele>
        <time>2023-02-14T10:08:37.797Z</time>
      </trkpt>
      <trkpt lat="45.59752" lon="5.51795">
        <ele>380</ele>
        <time>2023-02-14T10:08:38.797Z</time>
      </trkpt>
      <trkpt lat="45.59751" lon="5.51795">
        <ele>380</ele>
        <time>2023-02-14T10:08:39.797Z</time>
      </trkpt>
      <trkpt lat="45.59749" lon="5.51794">
        <ele>380</ele>
        <time>2023-02-14T10:08:40.797Z</time>
      </trkpt>
      <trkpt lat="45.59748" lon="5.51794">
        <ele>380</ele>
        <time>2023-02-14T10:08:41.797Z</time>
      </trkpt>
      <trkpt lat="45.59746" lon="5.51793">
        <ele>381</ele>
        <time>2023-02-14T10:08:42.797Z</time>
      </trkpt>
      <trkpt lat="45.59745" lon="5.51792">
        <ele>381</ele>
        <time>2023-02-14T10:08:43.797Z</time>
      </trkpt>
      <trkpt lat="45.59743" lon="5.51792">
        <ele>381</ele>
        <time>2023-02-14T10:08:44.797Z</time>
      </trkpt>
      <trkpt lat="45.59742" lon="5.51791">
        <ele>381</ele>
        <time>2023-02-14T10:08:45.797Z</time>
      </trkpt>
      <trkpt lat="45.5974" lon="5.51791">
        <ele>381</ele>
        <time>2023-02-14T10:08:46.797Z</time>
      </trkpt>
      <trkpt lat="45.59739" lon="5.5179">
        <ele>381</ele>
        <time>2023-02-14T10:08:47.797Z</time>
      </trkpt>
      <trkpt lat="45.59737" lon="5.5179">
        <ele>381</ele>
        <time>2023-02-14T10:08:48.797Z</time>
      </trkpt>
      <trkpt lat="45.59736" lon="5.51789">
        <ele>382</ele>
        <time>2023-02-14T10:08:49.797Z</time>
      </trkpt>
      <trkpt lat="45.59734" lon="5.51788">
        <ele>382</ele>
        <time>2023-02-14T10:08:50.797Z</time>
      </trkpt>
      <trkpt lat="45.59732" lon="5.51788">
        <ele>382</ele>
        <time>2023-02-14T10:08:51.797Z</time>
      </trkpt>
      <trkpt lat="45.59731" lon="5.51787">
        <ele>382</ele>
        <time>2023-02-14T10:08:52.797Z</time>
      </trkpt>
      <trkpt lat="45.59729" lon="5.51786">
        <ele>382</ele>
        <time>2023-02-14T10:08:53.797Z</time>
      </trkpt>
      <trkpt lat="45.59727" lon="5.51786">
        <ele>382</ele>
        <time>2023-02-14T10:08:54.797Z</time>
      </trkpt>
      <trkpt lat="45.59725" lon="5.51785">
        <ele>382</ele>
        <time>2023-02-14T10:08:55.797Z</time>
      </trkpt>
      <trkpt lat="45.59723" lon="5.51784">
        <ele>382</ele>
        <time>2023-02-14T10:08:56.797Z</time>
      </trkpt>
      <trkpt lat="45.59721" lon="5.51783">
        <ele>382</ele>
        <time>2023-02-14T10:08:57.797Z</time>
      </trkpt>
      <trkpt lat="45.5972" lon="5.51782">
        <ele>382</ele>
        <time>2023-02-14T10:08:58.797Z</time>
      </trkpt>
      <trkpt lat="45.59718" lon="5.51781">
        <ele>382</ele>
        <time>2023-02-14T10:08:59.797Z</time>
      </trkpt>
      <trkpt lat="45.59717" lon="5.51779">
        <ele>382</ele>
        <time>2023-02-14T10:09:00.797Z</time>
      </trkpt>
      <trkpt lat="45.59715" lon="5.51778">
        <ele>382</ele>
        <time>2023-02-14T10:09:01.797Z</time>
      </trkpt>
      <trkpt lat="45.59713" lon="5.51776">
        <ele>382</ele>
        <time>2023-02-14T10:09:02.797Z</time>
      </trkpt>
      <trkpt lat="45.59711" lon="5.51775">
        <ele>382</ele>
        <time>2023-02-14T10:09:03.797Z</time>
      </trkpt>
      <trkpt lat="45.59709" lon="5.51773">
        <ele>382</ele>
        <time>2023-02-14T10:09:04.797Z</time>
      </trkpt>
      <trkpt lat="45.59707" lon="5.51772">
        <ele>382</ele>
        <time>2023-02-14T10:09:05.797Z</time>
      </trkpt>
      <trkpt lat="45.59705" lon="5.5177">
        <ele>382</ele>
        <time>2023-02-14T10:09:06.797Z</time>
      </trkpt>
      <trkpt lat="45.59702" lon="5.51768">
        <ele>382</ele>
        <time>2023-02-14T10:09:07.797Z</time>
      </trkpt>
      <trkpt lat="45.597" lon="5.51767">
        <ele>382</ele>
        <time>2023-02-14T10:09:08.797Z</time>
      </trkpt>
      <trkpt lat="45.59698" lon="5.51765">
        <ele>382</ele>
        <time>2023-02-14T10:09:09.797Z</time>
      </trkpt>
      <trkpt lat="45.59695" lon="5.51764">
        <ele>382</ele>
        <time>2023-02-14T10:09:10.797Z</time>
      </trkpt>
      <trkpt lat="45.59693" lon="5.51762">
        <ele>381</ele>
        <time>2023-02-14T10:09:11.797Z</time>
      </trkpt>
      <trkpt lat="45.5969" lon="5.5176">
        <ele>381</ele>
        <time>2023-02-14T10:09:12.797Z</time>
      </trkpt>
      <trkpt lat="45.59687" lon="5.51758">
        <ele>382</ele>
        <time>2023-02-14T10:09:13.797Z</time>
      </trkpt>
      <trkpt lat="45.59685" lon="5.51756">
        <ele>382</ele>
        <time>2023-02-14T10:09:14.797Z</time>
      </trkpt>
      <trkpt lat="45.59682" lon="5.51754">
        <ele>381</ele>
        <time>2023-02-14T10:09:15.797Z</time>
      </trkpt>
      <trkpt lat="45.59679" lon="5.51752">
        <ele>381</ele>
        <time>2023-02-14T10:09:16.797Z</time>
      </trkpt>
      <trkpt lat="45.59676" lon="5.5175">
        <ele>381</ele>
        <time>2023-02-14T10:09:17.797Z</time>
      </trkpt>
      <trkpt lat="45.59673" lon="5.51748">
        <ele>381</ele>
        <time>2023-02-14T10:09:18.797Z</time>
      </trkpt>
      <trkpt lat="45.59669" lon="5.51745">
        <ele>382</ele>
        <time>2023-02-14T10:09:19.797Z</time>
      </trkpt>
      <trkpt lat="45.59666" lon="5.51743">
        <ele>381</ele>
        <time>2023-02-14T10:09:20.797Z</time>
      </trkpt>
      <trkpt lat="45.59663" lon="5.5174">
        <ele>381</ele>
        <time>2023-02-14T10:09:21.797Z</time>
      </trkpt>
      <trkpt lat="45.5966" lon="5.51737">
        <ele>381</ele>
        <time>2023-02-14T10:09:22.797Z</time>
      </trkpt>
      <trkpt lat="45.59657" lon="5.51735">
        <ele>381</ele>
        <time>2023-02-14T10:09:23.797Z</time>
      </trkpt>
      <trkpt lat="45.59654" lon="5.51732">
        <ele>381</ele>
        <time>2023-02-14T10:09:24.797Z</time>
      </trkpt>
      <trkpt lat="45.59651" lon="5.5173">
        <ele>381</ele>
        <time>2023-02-14T10:09:25.797Z</time>
      </trkpt>
      <trkpt lat="45.59649" lon="5.51727">
        <ele>381</ele>
        <time>2023-02-14T10:09:26.797Z</time>
      </trkpt>
      <trkpt lat="45.59646" lon="5.51724">
        <ele>381</ele>
        <time>2023-02-14T10:09:27.797Z</time>
      </trkpt>
      <trkpt lat="45.59644" lon="5.51722">
        <ele>381</ele>
        <time>2023-02-14T10:09:28.797Z</time>
      </trkpt>
      <trkpt lat="45.59642" lon="5.51719">
        <ele>381</ele>
        <time>2023-02-14T10:09:29.797Z</time>
      </trkpt>
      <trkpt lat="45.59639" lon="5.51716">
        <ele>381</ele>
        <time>2023-02-14T10:09:30.797Z</time>
      </trkpt>
      <trkpt lat="45.59637" lon="5.51713">
        <ele>381</ele>
        <time>2023-02-14T10:09:31.797Z</time>
      </trkpt>
      <trkpt lat="45.59634" lon="5.51711">
        <ele>381</ele>
        <time>2023-02-14T10:09:32.797Z</time>
      </trkpt>
      <trkpt lat="45.59632" lon="5.51708">
        <ele>381</ele>
        <time>2023-02-14T10:09:33.797Z</time>
      </trkpt>
      <trkpt lat="45.5963" lon="5.51705">
        <ele>381</ele>
        <time>2023-02-14T10:09:34.797Z</time>
      </trkpt>
      <trkpt lat="45.59628" lon="5.51702">
        <ele>381</ele>
        <time>2023-02-14T10:09:35.797Z</time>
      </trkpt>
      <trkpt lat="45.59626" lon="5.51699">
        <ele>381</ele>
        <time>2023-02-14T10:09:36.797Z</time>
      </trkpt>
      <trkpt lat="45.59624" lon="5.51696">
        <ele>381</ele>
        <time>2023-02-14T10:09:37.797Z</time>
      </trkpt>
      <trkpt lat="45.59622" lon="5.51693">
        <ele>381</ele>
        <time>2023-02-14T10:09:38.797Z</time>
      </trkpt>
      <trkpt lat="45.59621" lon="5.5169">
        <ele>381</ele>
        <time>2023-02-14T10:09:39.797Z</time>
      </trkpt>
      <trkpt lat="45.59619" lon="5.51687">
        <ele>381</ele>
        <time>2023-02-14T10:09:40.797Z</time>
      </trkpt>
      <trkpt lat="45.59618" lon="5.51684">
        <ele>382</ele>
        <time>2023-02-14T10:09:41.797Z</time>
      </trkpt>
      <trkpt lat="45.59617" lon="5.51681">
        <ele>382</ele>
        <time>2023-02-14T10:09:42.797Z</time>
      </trkpt>
      <trkpt lat="45.59615" lon="5.51678">
        <ele>382</ele>
        <time>2023-02-14T10:09:43.797Z</time>
      </trkpt>
      <trkpt lat="45.59614" lon="5.51675">
        <ele>381</ele>
        <time>2023-02-14T10:09:44.797Z</time>
      </trkpt>
      <trkpt lat="45.59612" lon="5.51673">
        <ele>381</ele>
        <time>2023-02-14T10:09:45.797Z</time>
      </trkpt>
      <trkpt lat="45.5961" lon="5.5167">
        <ele>381</ele>
        <time>2023-02-14T10:09:46.797Z</time>
      </trkpt>
      <trkpt lat="45.59609" lon="5.51668">
        <ele>381</ele>
        <time>2023-02-14T10:09:47.797Z</time>
      </trkpt>
      <trkpt lat="45.59607" lon="5.51665">
        <ele>381</ele>
        <time>2023-02-14T10:09:48.797Z</time>
      </trkpt>
      <trkpt lat="45.59605" lon="5.51662">
        <ele>380</ele>
        <time>2023-02-14T10:09:49.797Z</time>
      </trkpt>
      <trkpt lat="45.59603" lon="5.51658">
        <ele>379</ele>
        <time>2023-02-14T10:09:50.797Z</time>
      </trkpt>
      <trkpt lat="45.59601" lon="5.51654">
        <ele>378</ele>
        <time>2023-02-14T10:09:51.797Z</time>
      </trkpt>
      <trkpt lat="45.596" lon="5.5165">
        <ele>378</ele>
        <time>2023-02-14T10:09:52.797Z</time>
      </trkpt>
      <trkpt lat="45.59598" lon="5.51645">
        <ele>377</ele>
        <time>2023-02-14T10:09:53.797Z</time>
      </trkpt>
      <trkpt lat="45.59597" lon="5.51641">
        <ele>377</ele>
        <time>2023-02-14T10:09:54.797Z</time>
      </trkpt>
      <trkpt lat="45.59596" lon="5.51637">
        <ele>376</ele>
        <time>2023-02-14T10:09:55.797Z</time>
      </trkpt>
      <trkpt lat="45.59594" lon="5.51633">
        <ele>375</ele>
        <time>2023-02-14T10:09:56.797Z</time>
      </trkpt>
      <trkpt lat="45.59592" lon="5.51629">
        <ele>375</ele>
        <time>2023-02-14T10:09:57.797Z</time>
      </trkpt>
      <trkpt lat="45.59591" lon="5.51627">
        <ele>374</ele>
        <time>2023-02-14T10:09:58.797Z</time>
      </trkpt>
      <trkpt lat="45.59588" lon="5.51626">
        <ele>373</ele>
        <time>2023-02-14T10:09:59.797Z</time>
      </trkpt>
      <trkpt lat="45.59586" lon="5.51624">
        <ele>373</ele>
        <time>2023-02-14T10:10:00.797Z</time>
      </trkpt>
      <trkpt lat="45.59584" lon="5.51624">
        <ele>372</ele>
        <time>2023-02-14T10:10:01.797Z</time>
      </trkpt>
      <trkpt lat="45.59581" lon="5.51623">
        <ele>371</ele>
        <time>2023-02-14T10:10:02.797Z</time>
      </trkpt>
      <trkpt lat="45.59578" lon="5.51623">
        <ele>371</ele>
        <time>2023-02-14T10:10:03.797Z</time>
      </trkpt>
      <trkpt lat="45.59575" lon="5.51624">
        <ele>371</ele>
        <time>2023-02-14T10:10:04.797Z</time>
      </trkpt>
      <trkpt lat="45.59572" lon="5.51625">
        <ele>369</ele>
        <time>2023-02-14T10:10:05.797Z</time>
      </trkpt>
      <trkpt lat="45.59569" lon="5.51626">
        <ele>368</ele>
        <time>2023-02-14T10:10:06.797Z</time>
      </trkpt>
      <trkpt lat="45.59564" lon="5.51627">
        <ele>365</ele>
        <time>2023-02-14T10:10:07.797Z</time>
      </trkpt>
      <trkpt lat="45.59559" lon="5.51628">
        <ele>364</ele>
        <time>2023-02-14T10:10:08.797Z</time>
      </trkpt>
      <trkpt lat="45.59554" lon="5.51629">
        <ele>364</ele>
        <time>2023-02-14T10:10:09.797Z</time>
      </trkpt>
      <trkpt lat="45.59549" lon="5.51629">
        <ele>364</ele>
        <time>2023-02-14T10:10:10.797Z</time>
      </trkpt>
      <trkpt lat="45.59545" lon="5.51627">
        <ele>368</ele>
        <time>2023-02-14T10:10:11.797Z</time>
      </trkpt>
      <trkpt lat="45.59542" lon="5.51624">
        <ele>368</ele>
        <time>2023-02-14T10:10:12.797Z</time>
      </trkpt>
      <trkpt lat="45.59541" lon="5.51621">
        <ele>367</ele>
        <time>2023-02-14T10:10:13.797Z</time>
      </trkpt>
      <trkpt lat="45.5954" lon="5.51618">
        <ele>366</ele>
        <time>2023-02-14T10:10:14.797Z</time>
      </trkpt>
      <trkpt lat="45.59539" lon="5.51615">
        <ele>366</ele>
        <time>2023-02-14T10:10:15.797Z</time>
      </trkpt>
      <trkpt lat="45.59539" lon="5.51612">
        <ele>366</ele>
        <time>2023-02-14T10:10:16.797Z</time>
      </trkpt>
      <trkpt lat="45.59539" lon="5.51609">
        <ele>367</ele>
        <time>2023-02-14T10:10:17.797Z</time>
      </trkpt>
      <trkpt lat="45.59539" lon="5.51606">
        <ele>367</ele>
        <time>2023-02-14T10:10:18.797Z</time>
      </trkpt>
      <trkpt lat="45.5954" lon="5.51603">
        <ele>367</ele>
        <time>2023-02-14T10:10:19.797Z</time>
      </trkpt>
      <trkpt lat="45.5954" lon="5.516">
        <ele>367</ele>
        <time>2023-02-14T10:10:20.797Z</time>
      </trkpt>
      <trkpt lat="45.59541" lon="5.51598">
        <ele>367</ele>
        <time>2023-02-14T10:10:21.797Z</time>
      </trkpt>
      <trkpt lat="45.59541" lon="5.51595">
        <ele>367</ele>
        <time>2023-02-14T10:10:22.797Z</time>
      </trkpt>
      <trkpt lat="45.59541" lon="5.51593">
        <ele>368</ele>
        <time>2023-02-14T10:10:23.797Z</time>
      </trkpt>
      <trkpt lat="45.59542" lon="5.51589">
        <ele>368</ele>
        <time>2023-02-14T10:10:24.797Z</time>
      </trkpt>
      <trkpt lat="45.59543" lon="5.51586">
        <ele>368</ele>
        <time>2023-02-14T10:10:25.797Z</time>
      </trkpt>
      <trkpt lat="45.59544" lon="5.51582">
        <ele>368</ele>
        <time>2023-02-14T10:10:26.797Z</time>
      </trkpt>
      <trkpt lat="45.59545" lon="5.51578">
        <ele>368</ele>
        <time>2023-02-14T10:10:27.797Z</time>
      </trkpt>
      <trkpt lat="45.59546" lon="5.51573">
        <ele>368</ele>
        <time>2023-02-14T10:10:28.797Z</time>
      </trkpt>
      <trkpt lat="45.59547" lon="5.51569">
        <ele>367</ele>
        <time>2023-02-14T10:10:29.797Z</time>
      </trkpt>
      <trkpt lat="45.59548" lon="5.51563">
        <ele>366</ele>
        <time>2023-02-14T10:10:30.797Z</time>
      </trkpt>
      <trkpt lat="45.59549" lon="5.51557">
        <ele>366</ele>
        <time>2023-02-14T10:10:31.797Z</time>
      </trkpt>
      <trkpt lat="45.5955" lon="5.5155">
        <ele>367</ele>
        <time>2023-02-14T10:10:32.797Z</time>
      </trkpt>
      <trkpt lat="45.59552" lon="5.51542">
        <ele>368</ele>
        <time>2023-02-14T10:10:33.797Z</time>
      </trkpt>
      <trkpt lat="45.59554" lon="5.51534">
        <ele>368</ele>
        <time>2023-02-14T10:10:34.797Z</time>
      </trkpt>
      <trkpt lat="45.59558" lon="5.51527">
        <ele>367</ele>
        <time>2023-02-14T10:10:35.797Z</time>
      </trkpt>
      <trkpt lat="45.59561" lon="5.51521">
        <ele>367</ele>
        <time>2023-02-14T10:10:36.797Z</time>
      </trkpt>
      <trkpt lat="45.59565" lon="5.51515">
        <ele>367</ele>
        <time>2023-02-14T10:10:37.797Z</time>
      </trkpt>
      <trkpt lat="45.59568" lon="5.5151">
        <ele>366</ele>
        <time>2023-02-14T10:10:38.797Z</time>
      </trkpt>
      <trkpt lat="45.59571" lon="5.51505">
        <ele>366</ele>
        <time>2023-02-14T10:10:39.797Z</time>
      </trkpt>
      <trkpt lat="45.59575" lon="5.51502">
        <ele>365</ele>
        <time>2023-02-14T10:10:40.797Z</time>
      </trkpt>
      <trkpt lat="45.59579" lon="5.51499">
        <ele>364</ele>
        <time>2023-02-14T10:10:41.797Z</time>
      </trkpt>
      <trkpt lat="45.59584" lon="5.51496">
        <ele>365</ele>
        <time>2023-02-14T10:10:42.797Z</time>
      </trkpt>
      <trkpt lat="45.59588" lon="5.51493">
        <ele>365</ele>
        <time>2023-02-14T10:10:43.797Z</time>
      </trkpt>
      <trkpt lat="45.59591" lon="5.5149">
        <ele>366</ele>
        <time>2023-02-14T10:10:44.797Z</time>
      </trkpt>
      <trkpt lat="45.59595" lon="5.51487">
        <ele>366</ele>
        <time>2023-02-14T10:10:45.797Z</time>
      </trkpt>
      <trkpt lat="45.59599" lon="5.51485">
        <ele>366</ele>
        <time>2023-02-14T10:10:46.797Z</time>
      </trkpt>
      <trkpt lat="45.59603" lon="5.51483">
        <ele>367</ele>
        <time>2023-02-14T10:10:47.797Z</time>
      </trkpt>
      <trkpt lat="45.59607" lon="5.5148">
        <ele>367</ele>
        <time>2023-02-14T10:10:48.797Z</time>
      </trkpt>
      <trkpt lat="45.59611" lon="5.51477">
        <ele>367</ele>
        <time>2023-02-14T10:10:49.797Z</time>
      </trkpt>
      <trkpt lat="45.59615" lon="5.51474">
        <ele>367</ele>
        <time>2023-02-14T10:10:50.797Z</time>
      </trkpt>
      <trkpt lat="45.59619" lon="5.51472">
        <ele>367</ele>
        <time>2023-02-14T10:10:51.797Z</time>
      </trkpt>
      <trkpt lat="45.59623" lon="5.51469">
        <ele>366</ele>
        <time>2023-02-14T10:10:52.797Z</time>
      </trkpt>
      <trkpt lat="45.59626" lon="5.51466">
        <ele>366</ele>
        <time>2023-02-14T10:10:53.797Z</time>
      </trkpt>
      <trkpt lat="45.5963" lon="5.51463">
        <ele>366</ele>
        <time>2023-02-14T10:10:54.797Z</time>
      </trkpt>
      <trkpt lat="45.59634" lon="5.51459">
        <ele>365</ele>
        <time>2023-02-14T10:10:55.797Z</time>
      </trkpt>
      <trkpt lat="45.59638" lon="5.51456">
        <ele>363</ele>
        <time>2023-02-14T10:10:56.797Z</time>
      </trkpt>
      <trkpt lat="45.59642" lon="5.51451">
        <ele>362</ele>
        <time>2023-02-14T10:10:57.797Z</time>
      </trkpt>
      <trkpt lat="45.59646" lon="5.51447">
        <ele>361</ele>
        <time>2023-02-14T10:10:58.797Z</time>
      </trkpt>
      <trkpt lat="45.59649" lon="5.51442">
        <ele>361</ele>
        <time>2023-02-14T10:10:59.797Z</time>
      </trkpt>
      <trkpt lat="45.59653" lon="5.51437">
        <ele>360</ele>
        <time>2023-02-14T10:11:00.797Z</time>
      </trkpt>
      <trkpt lat="45.59656" lon="5.51432">
        <ele>360</ele>
        <time>2023-02-14T10:11:01.797Z</time>
      </trkpt>
      <trkpt lat="45.59659" lon="5.51427">
        <ele>359</ele>
        <time>2023-02-14T10:11:02.797Z</time>
      </trkpt>
      <trkpt lat="45.59662" lon="5.51422">
        <ele>358</ele>
        <time>2023-02-14T10:11:03.797Z</time>
      </trkpt>
      <trkpt lat="45.59665" lon="5.51416">
        <ele>357</ele>
        <time>2023-02-14T10:11:04.797Z</time>
      </trkpt>
      <trkpt lat="45.59668" lon="5.51411">
        <ele>356</ele>
        <time>2023-02-14T10:11:05.797Z</time>
      </trkpt>
      <trkpt lat="45.5967" lon="5.51405">
        <ele>355</ele>
        <time>2023-02-14T10:11:06.797Z</time>
      </trkpt>
      <trkpt lat="45.59673" lon="5.51399">
        <ele>355</ele>
        <time>2023-02-14T10:11:07.797Z</time>
      </trkpt>
      <trkpt lat="45.59675" lon="5.51394">
        <ele>354</ele>
        <time>2023-02-14T10:11:08.797Z</time>
      </trkpt>
      <trkpt lat="45.59677" lon="5.51388">
        <ele>353</ele>
        <time>2023-02-14T10:11:09.797Z</time>
      </trkpt>
      <trkpt lat="45.59679" lon="5.51382">
        <ele>352</ele>
        <time>2023-02-14T10:11:10.797Z</time>
      </trkpt>
      <trkpt lat="45.59681" lon="5.51376">
        <ele>351</ele>
        <time>2023-02-14T10:11:11.797Z</time>
      </trkpt>
      <trkpt lat="45.59683" lon="5.5137">
        <ele>350</ele>
        <time>2023-02-14T10:11:12.797Z</time>
      </trkpt>
      <trkpt lat="45.59684" lon="5.51363">
        <ele>350</ele>
        <time>2023-02-14T10:11:13.797Z</time>
      </trkpt>
      <trkpt lat="45.59684" lon="5.51356">
        <ele>349</ele>
        <time>2023-02-14T10:11:14.797Z</time>
      </trkpt>
      <trkpt lat="45.59685" lon="5.51348">
        <ele>349</ele>
        <time>2023-02-14T10:11:15.797Z</time>
      </trkpt>
      <trkpt lat="45.59685" lon="5.51341">
        <ele>348</ele>
        <time>2023-02-14T10:11:16.797Z</time>
      </trkpt>
      <trkpt lat="45.59685" lon="5.51335">
        <ele>347</ele>
        <time>2023-02-14T10:11:17.797Z</time>
      </trkpt>
      <trkpt lat="45.59685" lon="5.51328">
        <ele>347</ele>
        <time>2023-02-14T10:11:18.797Z</time>
      </trkpt>
      <trkpt lat="45.59685" lon="5.51322">
        <ele>347</ele>
        <time>2023-02-14T10:11:19.797Z</time>
      </trkpt>
      <trkpt lat="45.59685" lon="5.51316">
        <ele>346</ele>
        <time>2023-02-14T10:11:20.797Z</time>
      </trkpt>
      <trkpt lat="45.59684" lon="5.5131">
        <ele>346</ele>
        <time>2023-02-14T10:11:21.797Z</time>
      </trkpt>
      <trkpt lat="45.59682" lon="5.51305">
        <ele>345</ele>
        <time>2023-02-14T10:11:22.797Z</time>
      </trkpt>
      <trkpt lat="45.5968" lon="5.513">
        <ele>344</ele>
        <time>2023-02-14T10:11:23.797Z</time>
      </trkpt>
      <trkpt lat="45.59678" lon="5.51295">
        <ele>344</ele>
        <time>2023-02-14T10:11:24.797Z</time>
      </trkpt>
      <trkpt lat="45.59675" lon="5.5129">
        <ele>343</ele>
        <time>2023-02-14T10:11:25.797Z</time>
      </trkpt>
      <trkpt lat="45.59673" lon="5.51284">
        <ele>343</ele>
        <time>2023-02-14T10:11:26.797Z</time>
      </trkpt>
      <trkpt lat="45.59672" lon="5.51278">
        <ele>343</ele>
        <time>2023-02-14T10:11:27.797Z</time>
      </trkpt>
      <trkpt lat="45.59672" lon="5.51271">
        <ele>343</ele>
        <time>2023-02-14T10:11:28.797Z</time>
      </trkpt>
      <trkpt lat="45.59672" lon="5.51266">
        <ele>342</ele>
        <time>2023-02-14T10:11:29.797Z</time>
      </trkpt>
      <trkpt lat="45.59674" lon="5.51261">
        <ele>342</ele>
        <time>2023-02-14T10:11:30.797Z</time>
      </trkpt>
      <trkpt lat="45.59677" lon="5.51258">
        <ele>341</ele>
        <time>2023-02-14T10:11:31.797Z</time>
      </trkpt>
      <trkpt lat="45.59681" lon="5.51256">
        <ele>342</ele>
        <time>2023-02-14T10:11:32.797Z</time>
      </trkpt>
      <trkpt lat="45.59685" lon="5.51255">
        <ele>341</ele>
        <time>2023-02-14T10:11:33.797Z</time>
      </trkpt>
      <trkpt lat="45.59688" lon="5.51253">
        <ele>342</ele>
        <time>2023-02-14T10:11:34.797Z</time>
      </trkpt>
      <trkpt lat="45.59692" lon="5.51251">
        <ele>341</ele>
        <time>2023-02-14T10:11:35.797Z</time>
      </trkpt>
      <trkpt lat="45.59696" lon="5.51247">
        <ele>341</ele>
        <time>2023-02-14T10:11:36.797Z</time>
      </trkpt>
      <trkpt lat="45.59699" lon="5.51243">
        <ele>341</ele>
        <time>2023-02-14T10:11:37.797Z</time>
      </trkpt>
      <trkpt lat="45.59702" lon="5.51239">
        <ele>341</ele>
        <time>2023-02-14T10:11:38.797Z</time>
      </trkpt>
      <trkpt lat="45.59704" lon="5.51234">
        <ele>341</ele>
        <time>2023-02-14T10:11:39.797Z</time>
      </trkpt>
      <trkpt lat="45.59707" lon="5.51229">
        <ele>341</ele>
        <time>2023-02-14T10:11:40.797Z</time>
      </trkpt>
      <trkpt lat="45.59709" lon="5.51224">
        <ele>341</ele>
        <time>2023-02-14T10:11:41.797Z</time>
      </trkpt>
      <trkpt lat="45.5971" lon="5.51218">
        <ele>340</ele>
        <time>2023-02-14T10:11:42.797Z</time>
      </trkpt>
      <trkpt lat="45.5971" lon="5.51212">
        <ele>340</ele>
        <time>2023-02-14T10:11:43.797Z</time>
      </trkpt>
      <trkpt lat="45.5971" lon="5.51207">
        <ele>341</ele>
        <time>2023-02-14T10:11:44.797Z</time>
      </trkpt>
      <trkpt lat="45.59709" lon="5.51202">
        <ele>342</ele>
        <time>2023-02-14T10:11:45.797Z</time>
      </trkpt>
      <trkpt lat="45.59709" lon="5.51199">
        <ele>342</ele>
        <time>2023-02-14T10:11:46.797Z</time>
      </trkpt>
      <trkpt lat="45.59708" lon="5.51197">
        <ele>343</ele>
        <time>2023-02-14T10:11:47.797Z</time>
      </trkpt>
      <trkpt lat="45.59707" lon="5.51195">
        <ele>343</ele>
        <time>2023-02-14T10:11:48.797Z</time>
      </trkpt>
      <trkpt lat="45.59706" lon="5.51193">
        <ele>344</ele>
        <time>2023-02-14T10:11:49.797Z</time>
      </trkpt>
      <trkpt lat="45.59706" lon="5.51191">
        <ele>344</ele>
        <time>2023-02-14T10:11:50.797Z</time>
      </trkpt>
      <trkpt lat="45.59705" lon="5.51189">
        <ele>344</ele>
        <time>2023-02-14T10:11:51.797Z</time>
      </trkpt>
      <trkpt lat="45.59705" lon="5.51187">
        <ele>345</ele>
        <time>2023-02-14T10:11:52.797Z</time>
      </trkpt>
      <trkpt lat="45.59704" lon="5.51185">
        <ele>345</ele>
        <time>2023-02-14T10:11:53.797Z</time>
      </trkpt>
      <trkpt lat="45.59704" lon="5.51183">
        <ele>345</ele>
        <time>2023-02-14T10:11:54.797Z</time>
      </trkpt>
      <trkpt lat="45.59704" lon="5.51181">
        <ele>345</ele>
        <time>2023-02-14T10:11:55.797Z</time>
      </trkpt>
      <trkpt lat="45.59703" lon="5.51179">
        <ele>346</ele>
        <time>2023-02-14T10:11:56.797Z</time>
      </trkpt>
      <trkpt lat="45.59703" lon="5.51178">
        <ele>346</ele>
        <time>2023-02-14T10:11:57.797Z</time>
      </trkpt>
      <trkpt lat="45.59702" lon="5.51176">
        <ele>346</ele>
        <time>2023-02-14T10:11:58.797Z</time>
      </trkpt>
      <trkpt lat="45.59701" lon="5.51174">
        <ele>347</ele>
        <time>2023-02-14T10:11:59.797Z</time>
      </trkpt>
      <trkpt lat="45.59701" lon="5.51173">
        <ele>347</ele>
        <time>2023-02-14T10:12:00.797Z</time>
      </trkpt>
      <trkpt lat="45.597" lon="5.51171">
        <ele>347</ele>
        <time>2023-02-14T10:12:01.797Z</time>
      </trkpt>
      <trkpt lat="45.59699" lon="5.5117">
        <ele>348</ele>
        <time>2023-02-14T10:12:02.797Z</time>
      </trkpt>
      <trkpt lat="45.59698" lon="5.51168">
        <ele>348</ele>
        <time>2023-02-14T10:12:03.797Z</time>
      </trkpt>
      <trkpt lat="45.59697" lon="5.51167">
        <ele>348</ele>
        <time>2023-02-14T10:12:04.797Z</time>
      </trkpt>
      <trkpt lat="45.59696" lon="5.51165">
        <ele>349</ele>
        <time>2023-02-14T10:12:05.797Z</time>
      </trkpt>
      <trkpt lat="45.59695" lon="5.51163">
        <ele>349</ele>
        <time>2023-02-14T10:12:06.797Z</time>
      </trkpt>
      <trkpt lat="45.59695" lon="5.51161">
        <ele>349</ele>
        <time>2023-02-14T10:12:07.797Z</time>
      </trkpt>
      <trkpt lat="45.59694" lon="5.51159">
        <ele>349</ele>
        <time>2023-02-14T10:12:08.797Z</time>
      </trkpt>
      <trkpt lat="45.59693" lon="5.51158">
        <ele>350</ele>
        <time>2023-02-14T10:12:09.797Z</time>
      </trkpt>
      <trkpt lat="45.59693" lon="5.51156">
        <ele>350</ele>
        <time>2023-02-14T10:12:10.797Z</time>
      </trkpt>
      <trkpt lat="45.59692" lon="5.51154">
        <ele>350</ele>
        <time>2023-02-14T10:12:11.797Z</time>
      </trkpt>
      <trkpt lat="45.59691" lon="5.51152">
        <ele>351</ele>
        <time>2023-02-14T10:12:12.797Z</time>
      </trkpt>
      <trkpt lat="45.59691" lon="5.51151">
        <ele>351</ele>
        <time>2023-02-14T10:12:13.797Z</time>
      </trkpt>
      <trkpt lat="45.5969" lon="5.51149">
        <ele>351</ele>
        <time>2023-02-14T10:12:14.797Z</time>
      </trkpt>
      <trkpt lat="45.5969" lon="5.51148">
        <ele>351</ele>
        <time>2023-02-14T10:12:15.797Z</time>
      </trkpt>
      <trkpt lat="45.59689" lon="5.51146">
        <ele>352</ele>
        <time>2023-02-14T10:12:16.797Z</time>
      </trkpt>
      <trkpt lat="45.59688" lon="5.51145">
        <ele>352</ele>
        <time>2023-02-14T10:12:17.797Z</time>
      </trkpt>
      <trkpt lat="45.59688" lon="5.51144">
        <ele>352</ele>
        <time>2023-02-14T10:12:18.797Z</time>
      </trkpt>
      <trkpt lat="45.59687" lon="5.51142">
        <ele>352</ele>
        <time>2023-02-14T10:12:19.797Z</time>
      </trkpt>
      <trkpt lat="45.59686" lon="5.51141">
        <ele>353</ele>
        <time>2023-02-14T10:12:20.797Z</time>
      </trkpt>
      <trkpt lat="45.59686" lon="5.51139">
        <ele>353</ele>
        <time>2023-02-14T10:12:21.797Z</time>
      </trkpt>
      <trkpt lat="45.59685" lon="5.51137">
        <ele>353</ele>
        <time>2023-02-14T10:12:22.797Z</time>
      </trkpt>
      <trkpt lat="45.59685" lon="5.51136">
        <ele>353</ele>
        <time>2023-02-14T10:12:23.797Z</time>
      </trkpt>
      <trkpt lat="45.59684" lon="5.51134">
        <ele>354</ele>
        <time>2023-02-14T10:12:24.797Z</time>
      </trkpt>
      <trkpt lat="45.59683" lon="5.51132">
        <ele>354</ele>
        <time>2023-02-14T10:12:25.797Z</time>
      </trkpt>
      <trkpt lat="45.59683" lon="5.51131">
        <ele>354</ele>
        <time>2023-02-14T10:12:26.797Z</time>
      </trkpt>
      <trkpt lat="45.59682" lon="5.51129">
        <ele>354</ele>
        <time>2023-02-14T10:12:27.797Z</time>
      </trkpt>
      <trkpt lat="45.59681" lon="5.51127">
        <ele>354</ele>
        <time>2023-02-14T10:12:28.797Z</time>
      </trkpt>
      <trkpt lat="45.59681" lon="5.51126">
        <ele>354</ele>
        <time>2023-02-14T10:12:29.797Z</time>
      </trkpt>
      <trkpt lat="45.5968" lon="5.51124">
        <ele>354</ele>
        <time>2023-02-14T10:12:30.797Z</time>
      </trkpt>
      <trkpt lat="45.5968" lon="5.51123">
        <ele>354</ele>
        <time>2023-02-14T10:12:31.797Z</time>
      </trkpt>
      <trkpt lat="45.59679" lon="5.51121">
        <ele>355</ele>
        <time>2023-02-14T10:12:32.797Z</time>
      </trkpt>
      <trkpt lat="45.59678" lon="5.5112">
        <ele>355</ele>
        <time>2023-02-14T10:12:33.797Z</time>
      </trkpt>
      <trkpt lat="45.59678" lon="5.51118">
        <ele>355</ele>
        <time>2023-02-14T10:12:34.797Z</time>
      </trkpt>
      <trkpt lat="45.59677" lon="5.51116">
        <ele>355</ele>
        <time>2023-02-14T10:12:35.797Z</time>
      </trkpt>
      <trkpt lat="45.59676" lon="5.51115">
        <ele>356</ele>
        <time>2023-02-14T10:12:36.797Z</time>
      </trkpt>
      <trkpt lat="45.59676" lon="5.51113">
        <ele>356</ele>
        <time>2023-02-14T10:12:37.797Z</time>
      </trkpt>
      <trkpt lat="45.59675" lon="5.51112">
        <ele>356</ele>
        <time>2023-02-14T10:12:38.797Z</time>
      </trkpt>
      <trkpt lat="45.59675" lon="5.5111">
        <ele>356</ele>
        <time>2023-02-14T10:12:39.797Z</time>
      </trkpt>
      <trkpt lat="45.59674" lon="5.51109">
        <ele>356</ele>
        <time>2023-02-14T10:12:40.797Z</time>
      </trkpt>
      <trkpt lat="45.59673" lon="5.51107">
        <ele>356</ele>
        <time>2023-02-14T10:12:41.797Z</time>
      </trkpt>
      <trkpt lat="45.59673" lon="5.51106">
        <ele>357</ele>
        <time>2023-02-14T10:12:42.797Z</time>
      </trkpt>
      <trkpt lat="45.59672" lon="5.51104">
        <ele>357</ele>
        <time>2023-02-14T10:12:43.797Z</time>
      </trkpt>
      <trkpt lat="45.59672" lon="5.51103">
        <ele>357</ele>
        <time>2023-02-14T10:12:44.797Z</time>
      </trkpt>
      <trkpt lat="45.59671" lon="5.51101">
        <ele>357</ele>
        <time>2023-02-14T10:12:45.797Z</time>
      </trkpt>
      <trkpt lat="45.5967" lon="5.511">
        <ele>357</ele>
        <time>2023-02-14T10:12:46.797Z</time>
      </trkpt>
      <trkpt lat="45.59669" lon="5.51099">
        <ele>358</ele>
        <time>2023-02-14T10:12:47.797Z</time>
      </trkpt>
      <trkpt lat="45.59668" lon="5.51098">
        <ele>358</ele>
        <time>2023-02-14T10:12:48.797Z</time>
      </trkpt>
      <trkpt lat="45.59667" lon="5.51097">
        <ele>358</ele>
        <time>2023-02-14T10:12:49.797Z</time>
      </trkpt>
      <trkpt lat="45.59666" lon="5.51095">
        <ele>358</ele>
        <time>2023-02-14T10:12:50.797Z</time>
      </trkpt>
      <trkpt lat="45.59665" lon="5.51094">
        <ele>358</ele>
        <time>2023-02-14T10:12:51.797Z</time>
      </trkpt>
      <trkpt lat="45.59665" lon="5.51093">
        <ele>358</ele>
        <time>2023-02-14T10:12:52.797Z</time>
      </trkpt>
      <trkpt lat="45.59664" lon="5.51092">
        <ele>358</ele>
        <time>2023-02-14T10:12:53.797Z</time>
      </trkpt>
      <trkpt lat="45.59663" lon="5.51091">
        <ele>359</ele>
        <time>2023-02-14T10:12:54.797Z</time>
      </trkpt>
      <trkpt lat="45.59662" lon="5.5109">
        <ele>359</ele>
        <time>2023-02-14T10:12:55.797Z</time>
      </trkpt>
      <trkpt lat="45.59661" lon="5.51089">
        <ele>359</ele>
        <time>2023-02-14T10:12:56.797Z</time>
      </trkpt>
      <trkpt lat="45.5966" lon="5.51088">
        <ele>360</ele>
        <time>2023-02-14T10:12:57.797Z</time>
      </trkpt>
      <trkpt lat="45.59659" lon="5.51087">
        <ele>360</ele>
        <time>2023-02-14T10:12:58.797Z</time>
      </trkpt>
      <trkpt lat="45.59659" lon="5.51087">
        <ele>360</ele>
        <time>2023-02-14T10:12:59.797Z</time>
      </trkpt>
      <trkpt lat="45.59658" lon="5.51086">
        <ele>360</ele>
        <time>2023-02-14T10:13:00.797Z</time>
      </trkpt>
      <trkpt lat="45.59657" lon="5.51085">
        <ele>361</ele>
        <time>2023-02-14T10:13:01.797Z</time>
      </trkpt>
      <trkpt lat="45.59656" lon="5.51084">
        <ele>361</ele>
        <time>2023-02-14T10:13:02.797Z</time>
      </trkpt>
      <trkpt lat="45.59655" lon="5.51084">
        <ele>362</ele>
        <time>2023-02-14T10:13:03.797Z</time>
      </trkpt>
      <trkpt lat="45.59654" lon="5.51083">
        <ele>362</ele>
        <time>2023-02-14T10:13:04.797Z</time>
      </trkpt>
      <trkpt lat="45.59653" lon="5.51082">
        <ele>363</ele>
        <time>2023-02-14T10:13:05.797Z</time>
      </trkpt>
      <trkpt lat="45.59653" lon="5.51082">
        <ele>362</ele>
        <time>2023-02-14T10:13:06.797Z</time>
      </trkpt>
      <trkpt lat="45.59652" lon="5.51081">
        <ele>363</ele>
        <time>2023-02-14T10:13:07.797Z</time>
      </trkpt>
      <trkpt lat="45.59651" lon="5.51081">
        <ele>363</ele>
        <time>2023-02-14T10:13:08.797Z</time>
      </trkpt>
      <trkpt lat="45.5965" lon="5.5108">
        <ele>363</ele>
        <time>2023-02-14T10:13:09.797Z</time>
      </trkpt>
      <trkpt lat="45.59649" lon="5.5108">
        <ele>363</ele>
        <time>2023-02-14T10:13:10.797Z</time>
      </trkpt>
      <trkpt lat="45.59648" lon="5.51079">
        <ele>364</ele>
        <time>2023-02-14T10:13:11.797Z</time>
      </trkpt>
      <trkpt lat="45.59647" lon="5.51079">
        <ele>364</ele>
        <time>2023-02-14T10:13:12.797Z</time>
      </trkpt>
      <trkpt lat="45.59646" lon="5.51078">
        <ele>365</ele>
        <time>2023-02-14T10:13:13.797Z</time>
      </trkpt>
      <trkpt lat="45.59645" lon="5.51078">
        <ele>365</ele>
        <time>2023-02-14T10:13:14.797Z</time>
      </trkpt>
      <trkpt lat="45.59644" lon="5.51077">
        <ele>366</ele>
        <time>2023-02-14T10:13:15.797Z</time>
      </trkpt>
      <trkpt lat="45.59643" lon="5.51076">
        <ele>366</ele>
        <time>2023-02-14T10:13:16.797Z</time>
      </trkpt>
      <trkpt lat="45.59642" lon="5.51075">
        <ele>366</ele>
        <time>2023-02-14T10:13:17.797Z</time>
      </trkpt>
      <trkpt lat="45.59641" lon="5.51075">
        <ele>366</ele>
        <time>2023-02-14T10:13:18.797Z</time>
      </trkpt>
      <trkpt lat="45.5964" lon="5.51074">
        <ele>367</ele>
        <time>2023-02-14T10:13:19.797Z</time>
      </trkpt>
      <trkpt lat="45.59639" lon="5.51073">
        <ele>368</ele>
        <time>2023-02-14T10:13:20.797Z</time>
      </trkpt>
      <trkpt lat="45.59638" lon="5.51073">
        <ele>368</ele>
        <time>2023-02-14T10:13:21.797Z</time>
      </trkpt>
      <trkpt lat="45.59637" lon="5.51072">
        <ele>369</ele>
        <time>2023-02-14T10:13:22.797Z</time>
      </trkpt>
      <trkpt lat="45.59636" lon="5.51072">
        <ele>369</ele>
        <time>2023-02-14T10:13:23.797Z</time>
      </trkpt>
      <trkpt lat="45.59635" lon="5.51072">
        <ele>369</ele>
        <time>2023-02-14T10:13:24.797Z</time>
      </trkpt>
      <trkpt lat="45.59634" lon="5.51072">
        <ele>370</ele>
        <time>2023-02-14T10:13:25.797Z</time>
      </trkpt>
      <trkpt lat="45.59633" lon="5.51072">
        <ele>370</ele>
        <time>2023-02-14T10:13:26.797Z</time>
      </trkpt>
      <trkpt lat="45.59632" lon="5.51071">
        <ele>370</ele>
        <time>2023-02-14T10:13:27.797Z</time>
      </trkpt>
      <trkpt lat="45.59632" lon="5.51071">
        <ele>370</ele>
        <time>2023-02-14T10:13:28.797Z</time>
      </trkpt>
      <trkpt lat="45.59631" lon="5.5107">
        <ele>371</ele>
        <time>2023-02-14T10:13:29.797Z</time>
      </trkpt>
      <trkpt lat="45.5963" lon="5.5107">
        <ele>371</ele>
        <time>2023-02-14T10:13:30.797Z</time>
      </trkpt>
      <trkpt lat="45.59629" lon="5.5107">
        <ele>372</ele>
        <time>2023-02-14T10:13:31.797Z</time>
      </trkpt>
      <trkpt lat="45.59628" lon="5.51069">
        <ele>373</ele>
        <time>2023-02-14T10:13:32.797Z</time>
      </trkpt>
      <trkpt lat="45.59627" lon="5.51069">
        <ele>373</ele>
        <time>2023-02-14T10:13:33.797Z</time>
      </trkpt>
      <trkpt lat="45.59626" lon="5.51068">
        <ele>373</ele>
        <time>2023-02-14T10:13:34.797Z</time>
      </trkpt>
      <trkpt lat="45.59625" lon="5.51068">
        <ele>374</ele>
        <time>2023-02-14T10:13:35.797Z</time>
      </trkpt>
      <trkpt lat="45.59624" lon="5.51067">
        <ele>374</ele>
        <time>2023-02-14T10:13:36.797Z</time>
      </trkpt>
      <trkpt lat="45.59623" lon="5.51067">
        <ele>375</ele>
        <time>2023-02-14T10:13:37.797Z</time>
      </trkpt>
      <trkpt lat="45.59622" lon="5.51066">
        <ele>375</ele>
        <time>2023-02-14T10:13:38.797Z</time>
      </trkpt>
      <trkpt lat="45.59621" lon="5.51066">
        <ele>376</ele>
        <time>2023-02-14T10:13:39.797Z</time>
      </trkpt>
      <trkpt lat="45.5962" lon="5.51065">
        <ele>376</ele>
        <time>2023-02-14T10:13:40.797Z</time>
      </trkpt>
      <trkpt lat="45.59619" lon="5.51065">
        <ele>376</ele>
        <time>2023-02-14T10:13:41.797Z</time>
      </trkpt>
      <trkpt lat="45.59618" lon="5.51065">
        <ele>377</ele>
        <time>2023-02-14T10:13:42.797Z</time>
      </trkpt>
      <trkpt lat="45.59617" lon="5.51065">
        <ele>377</ele>
        <time>2023-02-14T10:13:43.797Z</time>
      </trkpt>
      <trkpt lat="45.59616" lon="5.51064">
        <ele>377</ele>
        <time>2023-02-14T10:13:44.797Z</time>
      </trkpt>
      <trkpt lat="45.59615" lon="5.51064">
        <ele>377</ele>
        <time>2023-02-14T10:13:45.797Z</time>
      </trkpt>
      <trkpt lat="45.59614" lon="5.51064">
        <ele>377</ele>
        <time>2023-02-14T10:13:46.797Z</time>
      </trkpt>
      <trkpt lat="45.59613" lon="5.51063">
        <ele>378</ele>
        <time>2023-02-14T10:13:47.797Z</time>
      </trkpt>
      <trkpt lat="45.59612" lon="5.51062">
        <ele>378</ele>
        <time>2023-02-14T10:13:48.797Z</time>
      </trkpt>
      <trkpt lat="45.59611" lon="5.51062">
        <ele>378</ele>
        <time>2023-02-14T10:13:49.797Z</time>
      </trkpt>
      <trkpt lat="45.5961" lon="5.51061">
        <ele>377</ele>
        <time>2023-02-14T10:13:50.797Z</time>
      </trkpt>
      <trkpt lat="45.59609" lon="5.51061">
        <ele>376</ele>
        <time>2023-02-14T10:13:51.797Z</time>
      </trkpt>
      <trkpt lat="45.59609" lon="5.5106">
        <ele>376</ele>
        <time>2023-02-14T10:13:52.797Z</time>
      </trkpt>
      <trkpt lat="45.59609" lon="5.51059">
        <ele>376</ele>
        <time>2023-02-14T10:13:53.797Z</time>
      </trkpt>
      <trkpt lat="45.59608" lon="5.51059">
        <ele>377</ele>
        <time>2023-02-14T10:13:54.797Z</time>
      </trkpt>
      <trkpt lat="45.59607" lon="5.51059">
        <ele>377</ele>
        <time>2023-02-14T10:13:55.797Z</time>
      </trkpt>
      <trkpt lat="45.59606" lon="5.51058">
        <ele>377</ele>
        <time>2023-02-14T10:13:56.797Z</time>
      </trkpt>
      <trkpt lat="45.59606" lon="5.51058">
        <ele>377</ele>
        <time>2023-02-14T10:13:57.797Z</time>
      </trkpt>
      <trkpt lat="45.59605" lon="5.51058">
        <ele>377</ele>
        <time>2023-02-14T10:13:58.797Z</time>
      </trkpt>
      <trkpt lat="45.59604" lon="5.51057">
        <ele>378</ele>
        <time>2023-02-14T10:13:59.797Z</time>
      </trkpt>
      <trkpt lat="45.59603" lon="5.51057">
        <ele>378</ele>
        <time>2023-02-14T10:14:00.797Z</time>
      </trkpt>
      <trkpt lat="45.59602" lon="5.51057">
        <ele>378</ele>
        <time>2023-02-14T10:14:01.797Z</time>
      </trkpt>
      <trkpt lat="45.59602" lon="5.51056">
        <ele>379</ele>
        <time>2023-02-14T10:14:02.797Z</time>
      </trkpt>
      <trkpt lat="45.59601" lon="5.51056">
        <ele>379</ele>
        <time>2023-02-14T10:14:03.797Z</time>
      </trkpt>
      <trkpt lat="45.596" lon="5.51056">
        <ele>380</ele>
        <time>2023-02-14T10:14:04.797Z</time>
      </trkpt>
      <trkpt lat="45.59599" lon="5.51056">
        <ele>380</ele>
        <time>2023-02-14T10:14:05.797Z</time>
      </trkpt>
      <trkpt lat="45.59599" lon="5.51056">
        <ele>380</ele>
        <time>2023-02-14T10:14:06.797Z</time>
      </trkpt>
      <trkpt lat="45.59598" lon="5.51056">
        <ele>380</ele>
        <time>2023-02-14T10:14:07.797Z</time>
      </trkpt>
      <trkpt lat="45.59597" lon="5.51055">
        <ele>381</ele>
        <time>2023-02-14T10:14:08.797Z</time>
      </trkpt>
      <trkpt lat="45.59596" lon="5.51055">
        <ele>381</ele>
        <time>2023-02-14T10:14:09.797Z</time>
      </trkpt>
      <trkpt lat="45.59595" lon="5.51055">
        <ele>381</ele>
        <time>2023-02-14T10:14:10.797Z</time>
      </trkpt>
      <trkpt lat="45.59595" lon="5.51054">
        <ele>381</ele>
        <time>2023-02-14T10:14:11.797Z</time>
      </trkpt>
      <trkpt lat="45.59594" lon="5.51054">
        <ele>381</ele>
        <time>2023-02-14T10:14:12.797Z</time>
      </trkpt>
      <trkpt lat="45.59593" lon="5.51054">
        <ele>381</ele>
        <time>2023-02-14T10:14:13.797Z</time>
      </trkpt>
      <trkpt lat="45.59592" lon="5.51054">
        <ele>381</ele>
        <time>2023-02-14T10:14:14.797Z</time>
      </trkpt>
      <trkpt lat="45.59591" lon="5.51053">
        <ele>381</ele>
        <time>2023-02-14T10:14:15.797Z</time>
      </trkpt>
      <trkpt lat="45.59591" lon="5.51053">
        <ele>381</ele>
        <time>2023-02-14T10:14:16.797Z</time>
      </trkpt>
      <trkpt lat="45.5959" lon="5.51053">
        <ele>381</ele>
        <time>2023-02-14T10:14:17.797Z</time>
      </trkpt>
      <trkpt lat="45.59589" lon="5.51053">
        <ele>381</ele>
        <time>2023-02-14T10:14:18.797Z</time>
      </trkpt>
      <trkpt lat="45.59588" lon="5.51053">
        <ele>381</ele>
        <time>2023-02-14T10:14:19.797Z</time>
      </trkpt>
      <trkpt lat="45.59587" lon="5.51052">
        <ele>381</ele>
        <time>2023-02-14T10:14:20.797Z</time>
      </trkpt>
      <trkpt lat="45.59586" lon="5.51052">
        <ele>381</ele>
        <time>2023-02-14T10:14:21.797Z</time>
      </trkpt>
      <trkpt lat="45.59586" lon="5.51052">
        <ele>381</ele>
        <time>2023-02-14T10:14:22.797Z</time>
      </trkpt>
      <trkpt lat="45.59585" lon="5.51052">
        <ele>381</ele>
        <time>2023-02-14T10:14:23.797Z</time>
      </trkpt>
      <trkpt lat="45.59584" lon="5.51052">
        <ele>381</ele>
        <time>2023-02-14T10:14:24.797Z</time>
      </trkpt>
      <trkpt lat="45.59583" lon="5.51052">
        <ele>381</ele>
        <time>2023-02-14T10:14:25.797Z</time>
      </trkpt>
      <trkpt lat="45.59583" lon="5.51052">
        <ele>381</ele>
        <time>2023-02-14T10:14:26.797Z</time>
      </trkpt>
      <trkpt lat="45.59582" lon="5.51052">
        <ele>381</ele>
        <time>2023-02-14T10:14:27.797Z</time>
      </trkpt>
      <trkpt lat="45.59581" lon="5.51052">
        <ele>381</ele>
        <time>2023-02-14T10:14:28.797Z</time>
      </trkpt>
      <trkpt lat="45.5958" lon="5.51052">
        <ele>381</ele>
        <time>2023-02-14T10:14:29.797Z</time>
      </trkpt>
      <trkpt lat="45.59579" lon="5.51052">
        <ele>381</ele>
        <time>2023-02-14T10:14:30.797Z</time>
      </trkpt>
      <trkpt lat="45.59578" lon="5.51052">
        <ele>381</ele>
        <time>2023-02-14T10:14:31.797Z</time>
      </trkpt>
      <trkpt lat="45.59577" lon="5.51051">
        <ele>382</ele>
        <time>2023-02-14T10:14:32.797Z</time>
      </trkpt>
      <trkpt lat="45.59577" lon="5.51051">
        <ele>381</ele>
        <time>2023-02-14T10:14:33.797Z</time>
      </trkpt>
      <trkpt lat="45.59576" lon="5.51051">
        <ele>381</ele>
        <time>2023-02-14T10:14:34.797Z</time>
      </trkpt>
      <trkpt lat="45.59575" lon="5.51051">
        <ele>381</ele>
        <time>2023-02-14T10:14:35.797Z</time>
      </trkpt>
      <trkpt lat="45.59574" lon="5.5105">
        <ele>380</ele>
        <time>2023-02-14T10:14:36.797Z</time>
      </trkpt>
      <trkpt lat="45.59574" lon="5.5105">
        <ele>380</ele>
        <time>2023-02-14T10:14:37.797Z</time>
      </trkpt>
      <trkpt lat="45.59573" lon="5.5105">
        <ele>381</ele>
        <time>2023-02-14T10:14:38.797Z</time>
      </trkpt>
      <trkpt lat="45.59572" lon="5.5105">
        <ele>381</ele>
        <time>2023-02-14T10:14:39.797Z</time>
      </trkpt>
      <trkpt lat="45.59571" lon="5.5105">
        <ele>381</ele>
        <time>2023-02-14T10:14:40.797Z</time>
      </trkpt>
      <trkpt lat="45.5957" lon="5.5105">
        <ele>381</ele>
        <time>2023-02-14T10:14:41.797Z</time>
      </trkpt>
      <trkpt lat="45.59569" lon="5.5105">
        <ele>381</ele>
        <time>2023-02-14T10:14:42.797Z</time>
      </trkpt>
      <trkpt lat="45.59568" lon="5.5105">
        <ele>381</ele>
        <time>2023-02-14T10:14:43.797Z</time>
      </trkpt>
      <trkpt lat="45.59567" lon="5.51051">
        <ele>381</ele>
        <time>2023-02-14T10:14:44.797Z</time>
      </trkpt>
      <trkpt lat="45.59566" lon="5.51051">
        <ele>381</ele>
        <time>2023-02-14T10:14:45.797Z</time>
      </trkpt>
      <trkpt lat="45.59565" lon="5.51051">
        <ele>380</ele>
        <time>2023-02-14T10:14:46.797Z</time>
      </trkpt>
      <trkpt lat="45.59564" lon="5.51052">
        <ele>381</ele>
        <time>2023-02-14T10:14:47.797Z</time>
      </trkpt>
      <trkpt lat="45.59563" lon="5.51052">
        <ele>381</ele>
        <time>2023-02-14T10:14:48.797Z</time>
      </trkpt>
      <trkpt lat="45.59563" lon="5.51052">
        <ele>381</ele>
        <time>2023-02-14T10:14:49.797Z</time>
      </trkpt>
      <trkpt lat="45.59562" lon="5.51052">
        <ele>382</ele>
        <time>2023-02-14T10:14:50.797Z</time>
      </trkpt>
      <trkpt lat="45.59562" lon="5.51052">
        <ele>381</ele>
        <time>2023-02-14T10:14:51.797Z</time>
      </trkpt>
      <trkpt lat="45.59562" lon="5.51052">
        <ele>381</ele>
        <time>2023-02-14T10:14:52.797Z</time>
      </trkpt>
      <trkpt lat="45.59561" lon="5.51052">
        <ele>381</ele>
        <time>2023-02-14T10:14:53.797Z</time>
      </trkpt>
      <trkpt lat="45.5956" lon="5.51052">
        <ele>381</ele>
        <time>2023-02-14T10:14:54.797Z</time>
      </trkpt>
      <trkpt lat="45.59559" lon="5.51052">
        <ele>381</ele>
        <time>2023-02-14T10:14:55.797Z</time>
      </trkpt>
      <trkpt lat="45.59557" lon="5.51052">
        <ele>381</ele>
        <time>2023-02-14T10:14:56.797Z</time>
      </trkpt>
      <trkpt lat="45.59555" lon="5.51052">
        <ele>380</ele>
        <time>2023-02-14T10:14:57.797Z</time>
      </trkpt>
      <trkpt lat="45.59554" lon="5.51052">
        <ele>380</ele>
        <time>2023-02-14T10:14:58.797Z</time>
      </trkpt>
      <trkpt lat="45.59552" lon="5.51052">
        <ele>380</ele>
        <time>2023-02-14T10:14:59.797Z</time>
      </trkpt>
      <trkpt lat="45.5955" lon="5.51052">
        <ele>380</ele>
        <time>2023-02-14T10:15:00.797Z</time>
      </trkpt>
      <trkpt lat="45.59549" lon="5.51052">
        <ele>380</ele>
        <time>2023-02-14T10:15:01.797Z</time>
      </trkpt>
      <trkpt lat="45.59547" lon="5.51052">
        <ele>381</ele>
        <time>2023-02-14T10:15:02.797Z</time>
      </trkpt>
      <trkpt lat="45.59545" lon="5.51052">
        <ele>380</ele>
        <time>2023-02-14T10:15:03.797Z</time>
      </trkpt>
      <trkpt lat="45.59543" lon="5.51051">
        <ele>380</ele>
        <time>2023-02-14T10:15:04.797Z</time>
      </trkpt>
      <trkpt lat="45.5954" lon="5.51051">
        <ele>380</ele>
        <time>2023-02-14T10:15:05.797Z</time>
      </trkpt>
      <trkpt lat="45.59538" lon="5.51051">
        <ele>379</ele>
        <time>2023-02-14T10:15:06.797Z</time>
      </trkpt>
      <trkpt lat="45.59537" lon="5.51051">
        <ele>379</ele>
        <time>2023-02-14T10:15:07.797Z</time>
      </trkpt>
      <trkpt lat="45.59535" lon="5.51051">
        <ele>379</ele>
        <time>2023-02-14T10:15:08.797Z</time>
      </trkpt>
      <trkpt lat="45.59533" lon="5.51051">
        <ele>379</ele>
        <time>2023-02-14T10:15:09.797Z</time>
      </trkpt>
      <trkpt lat="45.59531" lon="5.51051">
        <ele>379</ele>
        <time>2023-02-14T10:15:10.797Z</time>
      </trkpt>
      <trkpt lat="45.59529" lon="5.51051">
        <ele>379</ele>
        <time>2023-02-14T10:15:11.797Z</time>
      </trkpt>
      <trkpt lat="45.59527" lon="5.51051">
        <ele>380</ele>
        <time>2023-02-14T10:15:12.797Z</time>
      </trkpt>
      <trkpt lat="45.59525" lon="5.51051">
        <ele>380</ele>
        <time>2023-02-14T10:15:13.797Z</time>
      </trkpt>
      <trkpt lat="45.59523" lon="5.51051">
        <ele>380</ele>
        <time>2023-02-14T10:15:14.797Z</time>
      </trkpt>
      <trkpt lat="45.59521" lon="5.51051">
        <ele>379</ele>
        <time>2023-02-14T10:15:15.797Z</time>
      </trkpt>
      <trkpt lat="45.59519" lon="5.51051">
        <ele>379</ele>
        <time>2023-02-14T10:15:16.797Z</time>
      </trkpt>
      <trkpt lat="45.59517" lon="5.51051">
        <ele>379</ele>
        <time>2023-02-14T10:15:17.797Z</time>
      </trkpt>
      <trkpt lat="45.59515" lon="5.51051">
        <ele>379</ele>
        <time>2023-02-14T10:15:18.797Z</time>
      </trkpt>
      <trkpt lat="45.59514" lon="5.51052">
        <ele>378</ele>
        <time>2023-02-14T10:15:19.797Z</time>
      </trkpt>
      <trkpt lat="45.59512" lon="5.51052">
        <ele>378</ele>
        <time>2023-02-14T10:15:20.797Z</time>
      </trkpt>
      <trkpt lat="45.5951" lon="5.51052">
        <ele>378</ele>
        <time>2023-02-14T10:15:21.797Z</time>
      </trkpt>
      <trkpt lat="45.59508" lon="5.51052">
        <ele>378</ele>
        <time>2023-02-14T10:15:22.797Z</time>
      </trkpt>
      <trkpt lat="45.59507" lon="5.51052">
        <ele>377</ele>
        <time>2023-02-14T10:15:23.797Z</time>
      </trkpt>
      <trkpt lat="45.59505" lon="5.51053">
        <ele>377</ele>
        <time>2023-02-14T10:15:24.797Z</time>
      </trkpt>
      <trkpt lat="45.59503" lon="5.51053">
        <ele>377</ele>
        <time>2023-02-14T10:15:25.797Z</time>
      </trkpt>
      <trkpt lat="45.59502" lon="5.51053">
        <ele>377</ele>
        <time>2023-02-14T10:15:26.797Z</time>
      </trkpt>
      <trkpt lat="45.595" lon="5.51054">
        <ele>377</ele>
        <time>2023-02-14T10:15:27.797Z</time>
      </trkpt>
      <trkpt lat="45.59498" lon="5.51055">
        <ele>377</ele>
        <time>2023-02-14T10:15:28.797Z</time>
      </trkpt>
      <trkpt lat="45.59497" lon="5.51055">
        <ele>377</ele>
        <time>2023-02-14T10:15:29.797Z</time>
      </trkpt>
      <trkpt lat="45.59495" lon="5.51056">
        <ele>377</ele>
        <time>2023-02-14T10:15:30.797Z</time>
      </trkpt>
      <trkpt lat="45.59493" lon="5.51057">
        <ele>377</ele>
        <time>2023-02-14T10:15:31.797Z</time>
      </trkpt>
      <trkpt lat="45.59492" lon="5.51058">
        <ele>377</ele>
        <time>2023-02-14T10:15:32.797Z</time>
      </trkpt>
      <trkpt lat="45.5949" lon="5.51059">
        <ele>378</ele>
        <time>2023-02-14T10:15:33.797Z</time>
      </trkpt>
      <trkpt lat="45.59488" lon="5.5106">
        <ele>378</ele>
        <time>2023-02-14T10:15:34.797Z</time>
      </trkpt>
      <trkpt lat="45.59486" lon="5.51061">
        <ele>378</ele>
        <time>2023-02-14T10:15:35.797Z</time>
      </trkpt>
      <trkpt lat="45.59485" lon="5.51061">
        <ele>379</ele>
        <time>2023-02-14T10:15:36.797Z</time>
      </trkpt>
      <trkpt lat="45.59483" lon="5.51062">
        <ele>379</ele>
        <time>2023-02-14T10:15:37.797Z</time>
      </trkpt>
      <trkpt lat="45.59481" lon="5.51062">
        <ele>379</ele>
        <time>2023-02-14T10:15:38.797Z</time>
      </trkpt>
      <trkpt lat="45.5948" lon="5.51063">
        <ele>379</ele>
        <time>2023-02-14T10:15:39.797Z</time>
      </trkpt>
      <trkpt lat="45.59478" lon="5.51063">
        <ele>379</ele>
        <time>2023-02-14T10:15:40.797Z</time>
      </trkpt>
      <trkpt lat="45.59477" lon="5.51064">
        <ele>380</ele>
        <time>2023-02-14T10:15:41.797Z</time>
      </trkpt>
      <trkpt lat="45.59475" lon="5.51064">
        <ele>380</ele>
        <time>2023-02-14T10:15:42.797Z</time>
      </trkpt>
      <trkpt lat="45.59473" lon="5.51064">
        <ele>380</ele>
        <time>2023-02-14T10:15:43.797Z</time>
      </trkpt>
      <trkpt lat="45.59472" lon="5.51065">
        <ele>380</ele>
        <time>2023-02-14T10:15:44.797Z</time>
      </trkpt>
      <trkpt lat="45.5947" lon="5.51065">
        <ele>380</ele>
        <time>2023-02-14T10:15:45.797Z</time>
      </trkpt>
      <trkpt lat="45.59468" lon="5.51065">
        <ele>380</ele>
        <time>2023-02-14T10:15:46.797Z</time>
      </trkpt>
      <trkpt lat="45.59467" lon="5.51065">
        <ele>381</ele>
        <time>2023-02-14T10:15:47.797Z</time>
      </trkpt>
      <trkpt lat="45.59465" lon="5.51065">
        <ele>381</ele>
        <time>2023-02-14T10:15:48.797Z</time>
      </trkpt>
      <trkpt lat="45.59464" lon="5.51065">
        <ele>381</ele>
        <time>2023-02-14T10:15:49.797Z</time>
      </trkpt>
      <trkpt lat="45.59462" lon="5.51065">
        <ele>381</ele>
        <time>2023-02-14T10:15:50.797Z</time>
      </trkpt>
      <trkpt lat="45.59461" lon="5.51065">
        <ele>382</ele>
        <time>2023-02-14T10:15:51.797Z</time>
      </trkpt>
      <trkpt lat="45.59459" lon="5.51064">
        <ele>382</ele>
        <time>2023-02-14T10:15:52.797Z</time>
      </trkpt>
      <trkpt lat="45.59458" lon="5.51064">
        <ele>382</ele>
        <time>2023-02-14T10:15:53.797Z</time>
      </trkpt>
      <trkpt lat="45.59456" lon="5.51064">
        <ele>382</ele>
        <time>2023-02-14T10:15:54.797Z</time>
      </trkpt>
      <trkpt lat="45.59455" lon="5.51064">
        <ele>383</ele>
        <time>2023-02-14T10:15:55.797Z</time>
      </trkpt>
      <trkpt lat="45.59453" lon="5.51064">
        <ele>383</ele>
        <time>2023-02-14T10:15:56.797Z</time>
      </trkpt>
      <trkpt lat="45.59452" lon="5.51064">
        <ele>383</ele>
        <time>2023-02-14T10:15:57.797Z</time>
      </trkpt>
      <trkpt lat="45.5945" lon="5.51064">
        <ele>383</ele>
        <time>2023-02-14T10:15:58.797Z</time>
      </trkpt>
      <trkpt lat="45.59449" lon="5.51064">
        <ele>384</ele>
        <time>2023-02-14T10:15:59.797Z</time>
      </trkpt>
      <trkpt lat="45.59448" lon="5.51065">
        <ele>384</ele>
        <time>2023-02-14T10:16:00.797Z</time>
      </trkpt>
      <trkpt lat="45.59446" lon="5.51065">
        <ele>384</ele>
        <time>2023-02-14T10:16:01.797Z</time>
      </trkpt>
      <trkpt lat="45.59445" lon="5.51065">
        <ele>384</ele>
        <time>2023-02-14T10:16:02.797Z</time>
      </trkpt>
      <trkpt lat="45.59443" lon="5.51065">
        <ele>385</ele>
        <time>2023-02-14T10:16:03.797Z</time>
      </trkpt>
      <trkpt lat="45.59441" lon="5.51065">
        <ele>385</ele>
        <time>2023-02-14T10:16:04.797Z</time>
      </trkpt>
      <trkpt lat="45.5944" lon="5.51065">
        <ele>385</ele>
        <time>2023-02-14T10:16:05.797Z</time>
      </trkpt>
      <trkpt lat="45.59438" lon="5.51064">
        <ele>386</ele>
        <time>2023-02-14T10:16:06.797Z</time>
      </trkpt>
      <trkpt lat="45.59437" lon="5.51064">
        <ele>386</ele>
        <time>2023-02-14T10:16:07.797Z</time>
      </trkpt>
      <trkpt lat="45.59435" lon="5.51064">
        <ele>386</ele>
        <time>2023-02-14T10:16:08.797Z</time>
      </trkpt>
      <trkpt lat="45.59433" lon="5.51064">
        <ele>386</ele>
        <time>2023-02-14T10:16:09.797Z</time>
      </trkpt>
      <trkpt lat="45.59432" lon="5.51065">
        <ele>386</ele>
        <time>2023-02-14T10:16:10.797Z</time>
      </trkpt>
      <trkpt lat="45.5943" lon="5.51065">
        <ele>386</ele>
        <time>2023-02-14T10:16:11.797Z</time>
      </trkpt>
      <trkpt lat="45.59428" lon="5.51065">
        <ele>386</ele>
        <time>2023-02-14T10:16:12.797Z</time>
      </trkpt>
      <trkpt lat="45.59427" lon="5.51065">
        <ele>386</ele>
        <time>2023-02-14T10:16:13.797Z</time>
      </trkpt>
      <trkpt lat="45.59425" lon="5.51065">
        <ele>387</ele>
        <time>2023-02-14T10:16:14.797Z</time>
      </trkpt>
      <trkpt lat="45.59423" lon="5.51065">
        <ele>387</ele>
        <time>2023-02-14T10:16:15.797Z</time>
      </trkpt>
      <trkpt lat="45.59422" lon="5.51065">
        <ele>387</ele>
        <time>2023-02-14T10:16:16.797Z</time>
      </trkpt>
      <trkpt lat="45.5942" lon="5.51065">
        <ele>387</ele>
        <time>2023-02-14T10:16:17.797Z</time>
      </trkpt>
      <trkpt lat="45.59418" lon="5.51065">
        <ele>387</ele>
        <time>2023-02-14T10:16:18.797Z</time>
      </trkpt>
      <trkpt lat="45.59417" lon="5.51065">
        <ele>387</ele>
        <time>2023-02-14T10:16:19.797Z</time>
      </trkpt>
      <trkpt lat="45.59415" lon="5.51065">
        <ele>388</ele>
        <time>2023-02-14T10:16:20.797Z</time>
      </trkpt>
      <trkpt lat="45.59413" lon="5.51065">
        <ele>388</ele>
        <time>2023-02-14T10:16:21.797Z</time>
      </trkpt>
      <trkpt lat="45.59412" lon="5.51064">
        <ele>388</ele>
        <time>2023-02-14T10:16:22.797Z</time>
      </trkpt>
      <trkpt lat="45.5941" lon="5.51064">
        <ele>388</ele>
        <time>2023-02-14T10:16:23.797Z</time>
      </trkpt>
      <trkpt lat="45.59409" lon="5.51064">
        <ele>388</ele>
        <time>2023-02-14T10:16:24.797Z</time>
      </trkpt>
      <trkpt lat="45.59407" lon="5.51064">
        <ele>388</ele>
        <time>2023-02-14T10:16:25.797Z</time>
      </trkpt>
      <trkpt lat="45.59405" lon="5.51064">
        <ele>388</ele>
        <time>2023-02-14T10:16:26.797Z</time>
      </trkpt>
      <trkpt lat="45.59404" lon="5.51064">
        <ele>388</ele>
        <time>2023-02-14T10:16:27.797Z</time>
      </trkpt>
      <trkpt lat="45.59402" lon="5.51064">
        <ele>388</ele>
        <time>2023-02-14T10:16:28.797Z</time>
      </trkpt>
      <trkpt lat="45.59401" lon="5.51064">
        <ele>388</ele>
        <time>2023-02-14T10:16:29.797Z</time>
      </trkpt>
      <trkpt lat="45.59399" lon="5.51064">
        <ele>388</ele>
        <time>2023-02-14T10:16:30.797Z</time>
      </trkpt>
      <trkpt lat="45.59397" lon="5.51064">
        <ele>388</ele>
        <time>2023-02-14T10:16:31.797Z</time>
      </trkpt>
      <trkpt lat="45.59396" lon="5.51063">
        <ele>388</ele>
        <time>2023-02-14T10:16:32.797Z</time>
      </trkpt>
      <trkpt lat="45.59394" lon="5.51063">
        <ele>388</ele>
        <time>2023-02-14T10:16:33.797Z</time>
      </trkpt>
      <trkpt lat="45.59392" lon="5.51063">
        <ele>388</ele>
        <time>2023-02-14T10:16:34.797Z</time>
      </trkpt>
      <trkpt lat="45.5939" lon="5.51063">
        <ele>389</ele>
        <time>2023-02-14T10:16:35.797Z</time>
      </trkpt>
      <trkpt lat="45.59389" lon="5.51063">
        <ele>389</ele>
        <time>2023-02-14T10:16:36.797Z</time>
      </trkpt>
      <trkpt lat="45.59387" lon="5.51062">
        <ele>389</ele>
        <time>2023-02-14T10:16:37.797Z</time>
      </trkpt>
      <trkpt lat="45.59385" lon="5.51062">
        <ele>389</ele>
        <time>2023-02-14T10:16:38.797Z</time>
      </trkpt>
      <trkpt lat="45.59383" lon="5.51062">
        <ele>389</ele>
        <time>2023-02-14T10:16:39.797Z</time>
      </trkpt>
      <trkpt lat="45.59382" lon="5.51062">
        <ele>389</ele>
        <time>2023-02-14T10:16:40.797Z</time>
      </trkpt>
      <trkpt lat="45.5938" lon="5.51062">
        <ele>390</ele>
        <time>2023-02-14T10:16:41.797Z</time>
      </trkpt>
      <trkpt lat="45.59379" lon="5.51061">
        <ele>390</ele>
        <time>2023-02-14T10:16:42.797Z</time>
      </trkpt>
      <trkpt lat="45.59377" lon="5.51061">
        <ele>390</ele>
        <time>2023-02-14T10:16:43.797Z</time>
      </trkpt>
      <trkpt lat="45.59375" lon="5.51061">
        <ele>390</ele>
        <time>2023-02-14T10:16:44.797Z</time>
      </trkpt>
      <trkpt lat="45.59374" lon="5.51061">
        <ele>390</ele>
        <time>2023-02-14T10:16:45.797Z</time>
      </trkpt>
      <trkpt lat="45.59372" lon="5.5106">
        <ele>391</ele>
        <time>2023-02-14T10:16:46.797Z</time>
      </trkpt>
      <trkpt lat="45.5937" lon="5.5106">
        <ele>391</ele>
        <time>2023-02-14T10:16:47.797Z</time>
      </trkpt>
      <trkpt lat="45.59368" lon="5.51059">
        <ele>391</ele>
        <time>2023-02-14T10:16:48.797Z</time>
      </trkpt>
      <trkpt lat="45.59367" lon="5.51059">
        <ele>391</ele>
        <time>2023-02-14T10:16:49.797Z</time>
      </trkpt>
      <trkpt lat="45.59365" lon="5.51058">
        <ele>391</ele>
        <time>2023-02-14T10:16:50.797Z</time>
      </trkpt>
      <trkpt lat="45.59363" lon="5.51058">
        <ele>392</ele>
        <time>2023-02-14T10:16:51.797Z</time>
      </trkpt>
      <trkpt lat="45.59361" lon="5.51057">
        <ele>392</ele>
        <time>2023-02-14T10:16:52.797Z</time>
      </trkpt>
      <trkpt lat="45.5936" lon="5.51056">
        <ele>392</ele>
        <time>2023-02-14T10:16:53.797Z</time>
      </trkpt>
      <trkpt lat="45.59358" lon="5.51055">
        <ele>393</ele>
        <time>2023-02-14T10:16:54.797Z</time>
      </trkpt>
      <trkpt lat="45.59357" lon="5.51054">
        <ele>393</ele>
        <time>2023-02-14T10:16:55.797Z</time>
      </trkpt>
      <trkpt lat="45.59355" lon="5.51054">
        <ele>393</ele>
        <time>2023-02-14T10:16:56.797Z</time>
      </trkpt>
      <trkpt lat="45.59353" lon="5.51053">
        <ele>393</ele>
        <time>2023-02-14T10:16:57.797Z</time>
      </trkpt>
      <trkpt lat="45.59352" lon="5.51051">
        <ele>393</ele>
        <time>2023-02-14T10:16:58.797Z</time>
      </trkpt>
      <trkpt lat="45.5935" lon="5.5105">
        <ele>394</ele>
        <time>2023-02-14T10:16:59.797Z</time>
      </trkpt>
      <trkpt lat="45.59349" lon="5.51049">
        <ele>394</ele>
        <time>2023-02-14T10:17:00.797Z</time>
      </trkpt>
      <trkpt lat="45.59347" lon="5.51048">
        <ele>394</ele>
        <time>2023-02-14T10:17:01.797Z</time>
      </trkpt>
      <trkpt lat="45.59346" lon="5.51047">
        <ele>394</ele>
        <time>2023-02-14T10:17:02.797Z</time>
      </trkpt>
      <trkpt lat="45.59344" lon="5.51045">
        <ele>394</ele>
        <time>2023-02-14T10:17:03.797Z</time>
      </trkpt>
      <trkpt lat="45.59343" lon="5.51044">
        <ele>395</ele>
        <time>2023-02-14T10:17:04.797Z</time>
      </trkpt>
      <trkpt lat="45.59341" lon="5.51043">
        <ele>395</ele>
        <time>2023-02-14T10:17:05.797Z</time>
      </trkpt>
      <trkpt lat="45.5934" lon="5.51041">
        <ele>395</ele>
        <time>2023-02-14T10:17:06.797Z</time>
      </trkpt>
      <trkpt lat="45.59338" lon="5.5104">
        <ele>395</ele>
        <time>2023-02-14T10:17:07.797Z</time>
      </trkpt>
      <trkpt lat="45.59337" lon="5.51038">
        <ele>395</ele>
        <time>2023-02-14T10:17:08.797Z</time>
      </trkpt>
      <trkpt lat="45.59335" lon="5.51037">
        <ele>395</ele>
        <time>2023-02-14T10:17:09.797Z</time>
      </trkpt>
      <trkpt lat="45.59334" lon="5.51036">
        <ele>395</ele>
        <time>2023-02-14T10:17:10.797Z</time>
      </trkpt>
      <trkpt lat="45.59333" lon="5.51035">
        <ele>395</ele>
        <time>2023-02-14T10:17:11.797Z</time>
      </trkpt>
      <trkpt lat="45.59331" lon="5.51033">
        <ele>396</ele>
        <time>2023-02-14T10:17:12.797Z</time>
      </trkpt>
      <trkpt lat="45.5933" lon="5.51032">
        <ele>395</ele>
        <time>2023-02-14T10:17:13.797Z</time>
      </trkpt>
      <trkpt lat="45.59328" lon="5.51031">
        <ele>395</ele>
        <time>2023-02-14T10:17:14.797Z</time>
      </trkpt>
      <trkpt lat="45.59327" lon="5.51029">
        <ele>396</ele>
        <time>2023-02-14T10:17:15.797Z</time>
      </trkpt>
      <trkpt lat="45.59325" lon="5.51028">
        <ele>396</ele>
        <time>2023-02-14T10:17:16.797Z</time>
      </trkpt>
      <trkpt lat="45.59323" lon="5.51027">
        <ele>396</ele>
        <time>2023-02-14T10:17:17.797Z</time>
      </trkpt>
      <trkpt lat="45.59322" lon="5.51025">
        <ele>396</ele>
        <time>2023-02-14T10:17:18.797Z</time>
      </trkpt>
      <trkpt lat="45.5932" lon="5.51024">
        <ele>396</ele>
        <time>2023-02-14T10:17:19.797Z</time>
      </trkpt>
      <trkpt lat="45.59318" lon="5.51023">
        <ele>396</ele>
        <time>2023-02-14T10:17:20.797Z</time>
      </trkpt>
      <trkpt lat="45.59317" lon="5.51022">
        <ele>396</ele>
        <time>2023-02-14T10:17:21.797Z</time>
      </trkpt>
      <trkpt lat="45.59315" lon="5.5102">
        <ele>396</ele>
        <time>2023-02-14T10:17:22.797Z</time>
      </trkpt>
      <trkpt lat="45.59314" lon="5.51019">
        <ele>396</ele>
        <time>2023-02-14T10:17:23.797Z</time>
      </trkpt>
      <trkpt lat="45.59312" lon="5.51018">
        <ele>396</ele>
        <time>2023-02-14T10:17:24.797Z</time>
      </trkpt>
      <trkpt lat="45.5931" lon="5.51016">
        <ele>397</ele>
        <time>2023-02-14T10:17:25.797Z</time>
      </trkpt>
      <trkpt lat="45.59309" lon="5.51015">
        <ele>397</ele>
        <time>2023-02-14T10:17:26.797Z</time>
      </trkpt>
      <trkpt lat="45.59307" lon="5.51013">
        <ele>397</ele>
        <time>2023-02-14T10:17:27.797Z</time>
      </trkpt>
      <trkpt lat="45.59305" lon="5.51012">
        <ele>397</ele>
        <time>2023-02-14T10:17:28.797Z</time>
      </trkpt>
      <trkpt lat="45.59303" lon="5.51011">
        <ele>397</ele>
        <time>2023-02-14T10:17:29.797Z</time>
      </trkpt>
      <trkpt lat="45.59302" lon="5.5101">
        <ele>397</ele>
        <time>2023-02-14T10:17:30.797Z</time>
      </trkpt>
      <trkpt lat="45.593" lon="5.51009">
        <ele>397</ele>
        <time>2023-02-14T10:17:31.797Z</time>
      </trkpt>
      <trkpt lat="45.59298" lon="5.51008">
        <ele>397</ele>
        <time>2023-02-14T10:17:32.797Z</time>
      </trkpt>
      <trkpt lat="45.59296" lon="5.51007">
        <ele>396</ele>
        <time>2023-02-14T10:17:33.797Z</time>
      </trkpt>
      <trkpt lat="45.59294" lon="5.51006">
        <ele>397</ele>
        <time>2023-02-14T10:17:34.797Z</time>
      </trkpt>
      <trkpt lat="45.59292" lon="5.51005">
        <ele>396</ele>
        <time>2023-02-14T10:17:35.797Z</time>
      </trkpt>
      <trkpt lat="45.5929" lon="5.51004">
        <ele>396</ele>
        <time>2023-02-14T10:17:36.797Z</time>
      </trkpt>
      <trkpt lat="45.59288" lon="5.51002">
        <ele>396</ele>
        <time>2023-02-14T10:17:37.797Z</time>
      </trkpt>
      <trkpt lat="45.59286" lon="5.51001">
        <ele>397</ele>
        <time>2023-02-14T10:17:38.797Z</time>
      </trkpt>
      <trkpt lat="45.59284" lon="5.51">
        <ele>397</ele>
        <time>2023-02-14T10:17:39.797Z</time>
      </trkpt>
      <trkpt lat="45.59282" lon="5.50999">
        <ele>396</ele>
        <time>2023-02-14T10:17:40.797Z</time>
      </trkpt>
      <trkpt lat="45.5928" lon="5.50998">
        <ele>397</ele>
        <time>2023-02-14T10:17:41.797Z</time>
      </trkpt>
      <trkpt lat="45.59277" lon="5.50997">
        <ele>397</ele>
        <time>2023-02-14T10:17:42.797Z</time>
      </trkpt>
      <trkpt lat="45.59275" lon="5.50996">
        <ele>397</ele>
        <time>2023-02-14T10:17:43.797Z</time>
      </trkpt>
      <trkpt lat="45.59273" lon="5.50995">
        <ele>397</ele>
        <time>2023-02-14T10:17:44.797Z</time>
      </trkpt>
      <trkpt lat="45.5927" lon="5.50995">
        <ele>397</ele>
        <time>2023-02-14T10:17:45.797Z</time>
      </trkpt>
      <trkpt lat="45.59268" lon="5.50994">
        <ele>397</ele>
        <time>2023-02-14T10:17:46.797Z</time>
      </trkpt>
      <trkpt lat="45.59267" lon="5.50994">
        <ele>397</ele>
        <time>2023-02-14T10:17:47.797Z</time>
      </trkpt>
      <trkpt lat="45.59265" lon="5.50993">
        <ele>396</ele>
        <time>2023-02-14T10:17:48.797Z</time>
      </trkpt>
      <trkpt lat="45.59262" lon="5.50993">
        <ele>396</ele>
        <time>2023-02-14T10:17:49.797Z</time>
      </trkpt>
      <trkpt lat="45.59261" lon="5.50993">
        <ele>396</ele>
        <time>2023-02-14T10:17:50.797Z</time>
      </trkpt>
      <trkpt lat="45.59259" lon="5.50993">
        <ele>396</ele>
        <time>2023-02-14T10:17:51.797Z</time>
      </trkpt>
      <trkpt lat="45.59257" lon="5.50992">
        <ele>396</ele>
        <time>2023-02-14T10:17:52.797Z</time>
      </trkpt>
      <trkpt lat="45.59255" lon="5.50992">
        <ele>397</ele>
        <time>2023-02-14T10:17:53.797Z</time>
      </trkpt>
      <trkpt lat="45.59253" lon="5.50991">
        <ele>398</ele>
        <time>2023-02-14T10:17:54.797Z</time>
      </trkpt>
      <trkpt lat="45.59251" lon="5.50991">
        <ele>397</ele>
        <time>2023-02-14T10:17:55.797Z</time>
      </trkpt>
      <trkpt lat="45.59249" lon="5.50991">
        <ele>398</ele>
        <time>2023-02-14T10:17:56.797Z</time>
      </trkpt>
      <trkpt lat="45.59246" lon="5.50991">
        <ele>398</ele>
        <time>2023-02-14T10:17:57.797Z</time>
      </trkpt>
      <trkpt lat="45.59244" lon="5.5099">
        <ele>399</ele>
        <time>2023-02-14T10:17:58.797Z</time>
      </trkpt>
      <trkpt lat="45.59242" lon="5.5099">
        <ele>399</ele>
        <time>2023-02-14T10:17:59.797Z</time>
      </trkpt>
      <trkpt lat="45.5924" lon="5.5099">
        <ele>399</ele>
        <time>2023-02-14T10:18:00.797Z</time>
      </trkpt>
      <trkpt lat="45.59238" lon="5.5099">
        <ele>400</ele>
        <time>2023-02-14T10:18:01.797Z</time>
      </trkpt>
      <trkpt lat="45.59235" lon="5.5099">
        <ele>400</ele>
        <time>2023-02-14T10:18:02.797Z</time>
      </trkpt>
      <trkpt lat="45.59233" lon="5.50991">
        <ele>400</ele>
        <time>2023-02-14T10:18:03.797Z</time>
      </trkpt>
      <trkpt lat="45.59231" lon="5.50991">
        <ele>400</ele>
        <time>2023-02-14T10:18:04.797Z</time>
      </trkpt>
      <trkpt lat="45.59229" lon="5.50991">
        <ele>400</ele>
        <time>2023-02-14T10:18:05.797Z</time>
      </trkpt>
      <trkpt lat="45.59226" lon="5.50991">
        <ele>400</ele>
        <time>2023-02-14T10:18:06.797Z</time>
      </trkpt>
      <trkpt lat="45.59224" lon="5.50991">
        <ele>400</ele>
        <time>2023-02-14T10:18:07.797Z</time>
      </trkpt>
      <trkpt lat="45.59222" lon="5.50991">
        <ele>400</ele>
        <time>2023-02-14T10:18:08.797Z</time>
      </trkpt>
      <trkpt lat="45.5922" lon="5.50991">
        <ele>400</ele>
        <time>2023-02-14T10:18:09.797Z</time>
      </trkpt>
      <trkpt lat="45.59218" lon="5.50991">
        <ele>400</ele>
        <time>2023-02-14T10:18:10.797Z</time>
      </trkpt>
      <trkpt lat="45.59217" lon="5.50992">
        <ele>400</ele>
        <time>2023-02-14T10:18:11.797Z</time>
      </trkpt>
      <trkpt lat="45.59215" lon="5.50992">
        <ele>400</ele>
        <time>2023-02-14T10:18:12.797Z</time>
      </trkpt>
      <trkpt lat="45.59213" lon="5.50992">
        <ele>400</ele>
        <time>2023-02-14T10:18:13.797Z</time>
      </trkpt>
      <trkpt lat="45.59211" lon="5.50992">
        <ele>400</ele>
        <time>2023-02-14T10:18:14.797Z</time>
      </trkpt>
      <trkpt lat="45.59209" lon="5.50993">
        <ele>401</ele>
        <time>2023-02-14T10:18:15.797Z</time>
      </trkpt>
      <trkpt lat="45.59208" lon="5.50993">
        <ele>401</ele>
        <time>2023-02-14T10:18:16.797Z</time>
      </trkpt>
      <trkpt lat="45.59206" lon="5.50994">
        <ele>401</ele>
        <time>2023-02-14T10:18:17.797Z</time>
      </trkpt>
      <trkpt lat="45.59204" lon="5.50994">
        <ele>401</ele>
        <time>2023-02-14T10:18:18.797Z</time>
      </trkpt>
      <trkpt lat="45.59202" lon="5.50994">
        <ele>401</ele>
        <time>2023-02-14T10:18:19.797Z</time>
      </trkpt>
      <trkpt lat="45.592" lon="5.50994">
        <ele>401</ele>
        <time>2023-02-14T10:18:20.797Z</time>
      </trkpt>
      <trkpt lat="45.59199" lon="5.50994">
        <ele>402</ele>
        <time>2023-02-14T10:18:21.797Z</time>
      </trkpt>
      <trkpt lat="45.59197" lon="5.50995">
        <ele>402</ele>
        <time>2023-02-14T10:18:22.797Z</time>
      </trkpt>
      <trkpt lat="45.59196" lon="5.50995">
        <ele>402</ele>
        <time>2023-02-14T10:18:23.797Z</time>
      </trkpt>
      <trkpt lat="45.59194" lon="5.50995">
        <ele>402</ele>
        <time>2023-02-14T10:18:24.797Z</time>
      </trkpt>
      <trkpt lat="45.59192" lon="5.50995">
        <ele>403</ele>
        <time>2023-02-14T10:18:25.797Z</time>
      </trkpt>
      <trkpt lat="45.59191" lon="5.50995">
        <ele>403</ele>
        <time>2023-02-14T10:18:26.797Z</time>
      </trkpt>
      <trkpt lat="45.59189" lon="5.50995">
        <ele>403</ele>
        <time>2023-02-14T10:18:27.797Z</time>
      </trkpt>
      <trkpt lat="45.59187" lon="5.50995">
        <ele>403</ele>
        <time>2023-02-14T10:18:28.797Z</time>
      </trkpt>
      <trkpt lat="45.59186" lon="5.50996">
        <ele>403</ele>
        <time>2023-02-14T10:18:29.797Z</time>
      </trkpt>
      <trkpt lat="45.59184" lon="5.50997">
        <ele>403</ele>
        <time>2023-02-14T10:18:30.797Z</time>
      </trkpt>
      <trkpt lat="45.59182" lon="5.50997">
        <ele>404</ele>
        <time>2023-02-14T10:18:31.797Z</time>
      </trkpt>
      <trkpt lat="45.59181" lon="5.50998">
        <ele>404</ele>
        <time>2023-02-14T10:18:32.797Z</time>
      </trkpt>
      <trkpt lat="45.59179" lon="5.50998">
        <ele>404</ele>
        <time>2023-02-14T10:18:33.797Z</time>
      </trkpt>
      <trkpt lat="45.59178" lon="5.50998">
        <ele>404</ele>
        <time>2023-02-14T10:18:34.797Z</time>
      </trkpt>
      <trkpt lat="45.59176" lon="5.50999">
        <ele>404</ele>
        <time>2023-02-14T10:18:35.797Z</time>
      </trkpt>
      <trkpt lat="45.59175" lon="5.50999">
        <ele>404</ele>
        <time>2023-02-14T10:18:36.797Z</time>
      </trkpt>
      <trkpt lat="45.59173" lon="5.51">
        <ele>404</ele>
        <time>2023-02-14T10:18:37.797Z</time>
      </trkpt>
      <trkpt lat="45.59172" lon="5.51">
        <ele>404</ele>
        <time>2023-02-14T10:18:38.797Z</time>
      </trkpt>
      <trkpt lat="45.5917" lon="5.51">
        <ele>404</ele>
        <time>2023-02-14T10:18:39.797Z</time>
      </trkpt>
      <trkpt lat="45.59169" lon="5.51">
        <ele>404</ele>
        <time>2023-02-14T10:18:40.797Z</time>
      </trkpt>
      <trkpt lat="45.59167" lon="5.51">
        <ele>404</ele>
        <time>2023-02-14T10:18:41.797Z</time>
      </trkpt>
      <trkpt lat="45.59165" lon="5.51">
        <ele>405</ele>
        <time>2023-02-14T10:18:42.797Z</time>
      </trkpt>
      <trkpt lat="45.59164" lon="5.51">
        <ele>405</ele>
        <time>2023-02-14T10:18:43.797Z</time>
      </trkpt>
      <trkpt lat="45.59162" lon="5.51">
        <ele>404</ele>
        <time>2023-02-14T10:18:44.797Z</time>
      </trkpt>
      <trkpt lat="45.59161" lon="5.50999">
        <ele>404</ele>
        <time>2023-02-14T10:18:45.797Z</time>
      </trkpt>
      <trkpt lat="45.59159" lon="5.50999">
        <ele>404</ele>
        <time>2023-02-14T10:18:46.797Z</time>
      </trkpt>
      <trkpt lat="45.59158" lon="5.50999">
        <ele>404</ele>
        <time>2023-02-14T10:18:47.797Z</time>
      </trkpt>
      <trkpt lat="45.59156" lon="5.50999">
        <ele>404</ele>
        <time>2023-02-14T10:18:48.797Z</time>
      </trkpt>
      <trkpt lat="45.59155" lon="5.50999">
        <ele>405</ele>
        <time>2023-02-14T10:18:49.797Z</time>
      </trkpt>
      <trkpt lat="45.59153" lon="5.50999">
        <ele>405</ele>
        <time>2023-02-14T10:18:50.797Z</time>
      </trkpt>
      <trkpt lat="45.59152" lon="5.50999">
        <ele>405</ele>
        <time>2023-02-14T10:18:51.797Z</time>
      </trkpt>
      <trkpt lat="45.5915" lon="5.50999">
        <ele>405</ele>
        <time>2023-02-14T10:18:52.797Z</time>
      </trkpt>
      <trkpt lat="45.59149" lon="5.50998">
        <ele>405</ele>
        <time>2023-02-14T10:18:53.797Z</time>
      </trkpt>
      <trkpt lat="45.59147" lon="5.50998">
        <ele>405</ele>
        <time>2023-02-14T10:18:54.797Z</time>
      </trkpt>
      <trkpt lat="45.59146" lon="5.50997">
        <ele>406</ele>
        <time>2023-02-14T10:18:55.797Z</time>
      </trkpt>
      <trkpt lat="45.59145" lon="5.50996">
        <ele>406</ele>
        <time>2023-02-14T10:18:56.797Z</time>
      </trkpt>
      <trkpt lat="45.59143" lon="5.50996">
        <ele>407</ele>
        <time>2023-02-14T10:18:57.797Z</time>
      </trkpt>
      <trkpt lat="45.59142" lon="5.50996">
        <ele>407</ele>
        <time>2023-02-14T10:18:58.797Z</time>
      </trkpt>
      <trkpt lat="45.5914" lon="5.50995">
        <ele>407</ele>
        <time>2023-02-14T10:18:59.797Z</time>
      </trkpt>
      <trkpt lat="45.59138" lon="5.50995">
        <ele>408</ele>
        <time>2023-02-14T10:19:00.797Z</time>
      </trkpt>
      <trkpt lat="45.59136" lon="5.50994">
        <ele>408</ele>
        <time>2023-02-14T10:19:01.797Z</time>
      </trkpt>
      <trkpt lat="45.59135" lon="5.50994">
        <ele>408</ele>
        <time>2023-02-14T10:19:02.797Z</time>
      </trkpt>
      <trkpt lat="45.59133" lon="5.50993">
        <ele>408</ele>
        <time>2023-02-14T10:19:03.797Z</time>
      </trkpt>
      <trkpt lat="45.59131" lon="5.50992">
        <ele>409</ele>
        <time>2023-02-14T10:19:04.797Z</time>
      </trkpt>
      <trkpt lat="45.5913" lon="5.50991">
        <ele>409</ele>
        <time>2023-02-14T10:19:05.797Z</time>
      </trkpt>
      <trkpt lat="45.59128" lon="5.50989">
        <ele>409</ele>
        <time>2023-02-14T10:19:06.797Z</time>
      </trkpt>
      <trkpt lat="45.59127" lon="5.50987">
        <ele>409</ele>
        <time>2023-02-14T10:19:07.797Z</time>
      </trkpt>
      <trkpt lat="45.59126" lon="5.50985">
        <ele>409</ele>
        <time>2023-02-14T10:19:08.797Z</time>
      </trkpt>
      <trkpt lat="45.59125" lon="5.50983">
        <ele>409</ele>
        <time>2023-02-14T10:19:09.797Z</time>
      </trkpt>
      <trkpt lat="45.59124" lon="5.50981">
        <ele>410</ele>
        <time>2023-02-14T10:19:10.797Z</time>
      </trkpt>
      <trkpt lat="45.59123" lon="5.50978">
        <ele>410</ele>
        <time>2023-02-14T10:19:11.797Z</time>
      </trkpt>
      <trkpt lat="45.59122" lon="5.50976">
        <ele>410</ele>
        <time>2023-02-14T10:19:12.797Z</time>
      </trkpt>
      <trkpt lat="45.59122" lon="5.50974">
        <ele>410</ele>
        <time>2023-02-14T10:19:13.797Z</time>
      </trkpt>
      <trkpt lat="45.59121" lon="5.50972">
        <ele>410</ele>
        <time>2023-02-14T10:19:14.797Z</time>
      </trkpt>
      <trkpt lat="45.5912" lon="5.50969">
        <ele>410</ele>
        <time>2023-02-14T10:19:15.797Z</time>
      </trkpt>
      <trkpt lat="45.5912" lon="5.50967">
        <ele>410</ele>
        <time>2023-02-14T10:19:16.797Z</time>
      </trkpt>
      <trkpt lat="45.59119" lon="5.50965">
        <ele>410</ele>
        <time>2023-02-14T10:19:17.797Z</time>
      </trkpt>
      <trkpt lat="45.59118" lon="5.50962">
        <ele>411</ele>
        <time>2023-02-14T10:19:18.797Z</time>
      </trkpt>
      <trkpt lat="45.59118" lon="5.5096">
        <ele>411</ele>
        <time>2023-02-14T10:19:19.797Z</time>
      </trkpt>
      <trkpt lat="45.59116" lon="5.50958">
        <ele>411</ele>
        <time>2023-02-14T10:19:20.797Z</time>
      </trkpt>
      <trkpt lat="45.59115" lon="5.50956">
        <ele>411</ele>
        <time>2023-02-14T10:19:21.797Z</time>
      </trkpt>
      <trkpt lat="45.59113" lon="5.50954">
        <ele>411</ele>
        <time>2023-02-14T10:19:22.797Z</time>
      </trkpt>
      <trkpt lat="45.59111" lon="5.50953">
        <ele>411</ele>
        <time>2023-02-14T10:19:23.797Z</time>
      </trkpt>
      <trkpt lat="45.59109" lon="5.50952">
        <ele>411</ele>
        <time>2023-02-14T10:19:24.797Z</time>
      </trkpt>
      <trkpt lat="45.59107" lon="5.50951">
        <ele>411</ele>
        <time>2023-02-14T10:19:25.797Z</time>
      </trkpt>
      <trkpt lat="45.59105" lon="5.5095">
        <ele>411</ele>
        <time>2023-02-14T10:19:26.797Z</time>
      </trkpt>
      <trkpt lat="45.59103" lon="5.50949">
        <ele>412</ele>
        <time>2023-02-14T10:19:27.797Z</time>
      </trkpt>
      <trkpt lat="45.59101" lon="5.50948">
        <ele>412</ele>
        <time>2023-02-14T10:19:28.797Z</time>
      </trkpt>
      <trkpt lat="45.59099" lon="5.50947">
        <ele>412</ele>
        <time>2023-02-14T10:19:29.797Z</time>
      </trkpt>
      <trkpt lat="45.59096" lon="5.50945">
        <ele>412</ele>
        <time>2023-02-14T10:19:30.797Z</time>
      </trkpt>
      <trkpt lat="45.59094" lon="5.50944">
        <ele>412</ele>
        <time>2023-02-14T10:19:31.797Z</time>
      </trkpt>
      <trkpt lat="45.59092" lon="5.50942">
        <ele>412</ele>
        <time>2023-02-14T10:19:32.797Z</time>
      </trkpt>
      <trkpt lat="45.59089" lon="5.50941">
        <ele>412</ele>
        <time>2023-02-14T10:19:33.797Z</time>
      </trkpt>
      <trkpt lat="45.59087" lon="5.5094">
        <ele>412</ele>
        <time>2023-02-14T10:19:34.797Z</time>
      </trkpt>
      <trkpt lat="45.59085" lon="5.50939">
        <ele>412</ele>
        <time>2023-02-14T10:19:35.797Z</time>
      </trkpt>
      <trkpt lat="45.59083" lon="5.50938">
        <ele>412</ele>
        <time>2023-02-14T10:19:36.797Z</time>
      </trkpt>
      <trkpt lat="45.59082" lon="5.50937">
        <ele>412</ele>
        <time>2023-02-14T10:19:37.797Z</time>
      </trkpt>
      <trkpt lat="45.59079" lon="5.50936">
        <ele>412</ele>
        <time>2023-02-14T10:19:38.797Z</time>
      </trkpt>
      <trkpt lat="45.59077" lon="5.50935">
        <ele>413</ele>
        <time>2023-02-14T10:19:39.797Z</time>
      </trkpt>
      <trkpt lat="45.59075" lon="5.50934">
        <ele>413</ele>
        <time>2023-02-14T10:19:40.797Z</time>
      </trkpt>
      <trkpt lat="45.59073" lon="5.50933">
        <ele>413</ele>
        <time>2023-02-14T10:19:41.797Z</time>
      </trkpt>
      <trkpt lat="45.59071" lon="5.50932">
        <ele>413</ele>
        <time>2023-02-14T10:19:42.797Z</time>
      </trkpt>
      <trkpt lat="45.59069" lon="5.50931">
        <ele>413</ele>
        <time>2023-02-14T10:19:43.797Z</time>
      </trkpt>
      <trkpt lat="45.59067" lon="5.5093">
        <ele>413</ele>
        <time>2023-02-14T10:19:44.797Z</time>
      </trkpt>
      <trkpt lat="45.59065" lon="5.50929">
        <ele>413</ele>
        <time>2023-02-14T10:19:45.797Z</time>
      </trkpt>
      <trkpt lat="45.59063" lon="5.50928">
        <ele>414</ele>
        <time>2023-02-14T10:19:46.797Z</time>
      </trkpt>
      <trkpt lat="45.59061" lon="5.50927">
        <ele>414</ele>
        <time>2023-02-14T10:19:47.797Z</time>
      </trkpt>
      <trkpt lat="45.59059" lon="5.50926">
        <ele>414</ele>
        <time>2023-02-14T10:19:48.797Z</time>
      </trkpt>
      <trkpt lat="45.59057" lon="5.50925">
        <ele>414</ele>
        <time>2023-02-14T10:19:49.797Z</time>
      </trkpt>
      <trkpt lat="45.59055" lon="5.50924">
        <ele>414</ele>
        <time>2023-02-14T10:19:50.797Z</time>
      </trkpt>
      <trkpt lat="45.59053" lon="5.50923">
        <ele>415</ele>
        <time>2023-02-14T10:19:51.797Z</time>
      </trkpt>
      <trkpt lat="45.59051" lon="5.50921">
        <ele>415</ele>
        <time>2023-02-14T10:19:52.797Z</time>
      </trkpt>
      <trkpt lat="45.59049" lon="5.5092">
        <ele>415</ele>
        <time>2023-02-14T10:19:53.797Z</time>
      </trkpt>
      <trkpt lat="45.59047" lon="5.50919">
        <ele>415</ele>
        <time>2023-02-14T10:19:54.797Z</time>
      </trkpt>
      <trkpt lat="45.59045" lon="5.50918">
        <ele>416</ele>
        <time>2023-02-14T10:19:55.797Z</time>
      </trkpt>
      <trkpt lat="45.59043" lon="5.50917">
        <ele>416</ele>
        <time>2023-02-14T10:19:56.797Z</time>
      </trkpt>
      <trkpt lat="45.59041" lon="5.50916">
        <ele>416</ele>
        <time>2023-02-14T10:19:57.797Z</time>
      </trkpt>
      <trkpt lat="45.59039" lon="5.50915">
        <ele>416</ele>
        <time>2023-02-14T10:19:58.797Z</time>
      </trkpt>
      <trkpt lat="45.59037" lon="5.50914">
        <ele>417</ele>
        <time>2023-02-14T10:19:59.797Z</time>
      </trkpt>
      <trkpt lat="45.59035" lon="5.50914">
        <ele>417</ele>
        <time>2023-02-14T10:20:00.797Z</time>
      </trkpt>
      <trkpt lat="45.59033" lon="5.50913">
        <ele>416</ele>
        <time>2023-02-14T10:20:01.797Z</time>
      </trkpt>
      <trkpt lat="45.59031" lon="5.50912">
        <ele>416</ele>
        <time>2023-02-14T10:20:02.797Z</time>
      </trkpt>
      <trkpt lat="45.59029" lon="5.50912">
        <ele>416</ele>
        <time>2023-02-14T10:20:03.797Z</time>
      </trkpt>
      <trkpt lat="45.59027" lon="5.50911">
        <ele>416</ele>
        <time>2023-02-14T10:20:04.797Z</time>
      </trkpt>
      <trkpt lat="45.59025" lon="5.5091">
        <ele>416</ele>
        <time>2023-02-14T10:20:05.797Z</time>
      </trkpt>
      <trkpt lat="45.59023" lon="5.5091">
        <ele>416</ele>
        <time>2023-02-14T10:20:06.797Z</time>
      </trkpt>
      <trkpt lat="45.59021" lon="5.50909">
        <ele>416</ele>
        <time>2023-02-14T10:20:07.797Z</time>
      </trkpt>
      <trkpt lat="45.59019" lon="5.50909">
        <ele>417</ele>
        <time>2023-02-14T10:20:08.797Z</time>
      </trkpt>
      <trkpt lat="45.59017" lon="5.50908">
        <ele>417</ele>
        <time>2023-02-14T10:20:09.797Z</time>
      </trkpt>
      <trkpt lat="45.59015" lon="5.50908">
        <ele>417</ele>
        <time>2023-02-14T10:20:10.797Z</time>
      </trkpt>
      <trkpt lat="45.59012" lon="5.50908">
        <ele>417</ele>
        <time>2023-02-14T10:20:11.797Z</time>
      </trkpt>
      <trkpt lat="45.5901" lon="5.50907">
        <ele>417</ele>
        <time>2023-02-14T10:20:12.797Z</time>
      </trkpt>
      <trkpt lat="45.59007" lon="5.50907">
        <ele>418</ele>
        <time>2023-02-14T10:20:13.797Z</time>
      </trkpt>
      <trkpt lat="45.59005" lon="5.50907">
        <ele>418</ele>
        <time>2023-02-14T10:20:14.797Z</time>
      </trkpt>
      <trkpt lat="45.59002" lon="5.50906">
        <ele>418</ele>
        <time>2023-02-14T10:20:15.797Z</time>
      </trkpt>
      <trkpt lat="45.59" lon="5.50906">
        <ele>418</ele>
        <time>2023-02-14T10:20:16.797Z</time>
      </trkpt>
      <trkpt lat="45.58997" lon="5.50905">
        <ele>418</ele>
        <time>2023-02-14T10:20:17.797Z</time>
      </trkpt>
      <trkpt lat="45.58995" lon="5.50905">
        <ele>418</ele>
        <time>2023-02-14T10:20:18.797Z</time>
      </trkpt>
      <trkpt lat="45.58993" lon="5.50904">
        <ele>418</ele>
        <time>2023-02-14T10:20:19.797Z</time>
      </trkpt>
      <trkpt lat="45.5899" lon="5.50904">
        <ele>418</ele>
        <time>2023-02-14T10:20:20.797Z</time>
      </trkpt>
      <trkpt lat="45.58988" lon="5.50904">
        <ele>418</ele>
        <time>2023-02-14T10:20:21.797Z</time>
      </trkpt>
      <trkpt lat="45.58985" lon="5.50903">
        <ele>418</ele>
        <time>2023-02-14T10:20:22.797Z</time>
      </trkpt>
      <trkpt lat="45.58982" lon="5.50903">
        <ele>418</ele>
        <time>2023-02-14T10:20:23.797Z</time>
      </trkpt>
      <trkpt lat="45.5898" lon="5.50903">
        <ele>419</ele>
        <time>2023-02-14T10:20:24.797Z</time>
      </trkpt>
      <trkpt lat="45.58977" lon="5.50902">
        <ele>419</ele>
        <time>2023-02-14T10:20:25.797Z</time>
      </trkpt>
      <trkpt lat="45.58974" lon="5.50902">
        <ele>419</ele>
        <time>2023-02-14T10:20:26.797Z</time>
      </trkpt>
      <trkpt lat="45.58972" lon="5.50901">
        <ele>419</ele>
        <time>2023-02-14T10:20:27.797Z</time>
      </trkpt>
      <trkpt lat="45.58969" lon="5.50901">
        <ele>419</ele>
        <time>2023-02-14T10:20:28.797Z</time>
      </trkpt>
      <trkpt lat="45.58966" lon="5.509">
        <ele>417</ele>
        <time>2023-02-14T10:20:29.797Z</time>
      </trkpt>
      <trkpt lat="45.58964" lon="5.50899">
        <ele>416</ele>
        <time>2023-02-14T10:20:30.797Z</time>
      </trkpt>
      <trkpt lat="45.58961" lon="5.50898">
        <ele>416</ele>
        <time>2023-02-14T10:20:31.797Z</time>
      </trkpt>
      <trkpt lat="45.58959" lon="5.50898">
        <ele>416</ele>
        <time>2023-02-14T10:20:32.797Z</time>
      </trkpt>
      <trkpt lat="45.58956" lon="5.50897">
        <ele>417</ele>
        <time>2023-02-14T10:20:33.797Z</time>
      </trkpt>
      <trkpt lat="45.58953" lon="5.50896">
        <ele>417</ele>
        <time>2023-02-14T10:20:34.797Z</time>
      </trkpt>
      <trkpt lat="45.5895" lon="5.50896">
        <ele>417</ele>
        <time>2023-02-14T10:20:35.797Z</time>
      </trkpt>
      <trkpt lat="45.58947" lon="5.50895">
        <ele>417</ele>
        <time>2023-02-14T10:20:36.797Z</time>
      </trkpt>
      <trkpt lat="45.58943" lon="5.50894">
        <ele>417</ele>
        <time>2023-02-14T10:20:37.797Z</time>
      </trkpt>
      <trkpt lat="45.5894" lon="5.50893">
        <ele>417</ele>
        <time>2023-02-14T10:20:38.797Z</time>
      </trkpt>
      <trkpt lat="45.58937" lon="5.50893">
        <ele>417</ele>
        <time>2023-02-14T10:20:39.797Z</time>
      </trkpt>
      <trkpt lat="45.58933" lon="5.50892">
        <ele>417</ele>
        <time>2023-02-14T10:20:40.797Z</time>
      </trkpt>
      <trkpt lat="45.5893" lon="5.50891">
        <ele>417</ele>
        <time>2023-02-14T10:20:41.797Z</time>
      </trkpt>
      <trkpt lat="45.58926" lon="5.50891">
        <ele>417</ele>
        <time>2023-02-14T10:20:42.797Z</time>
      </trkpt>
      <trkpt lat="45.58922" lon="5.5089">
        <ele>417</ele>
        <time>2023-02-14T10:20:43.797Z</time>
      </trkpt>
      <trkpt lat="45.58919" lon="5.50889">
        <ele>417</ele>
        <time>2023-02-14T10:20:44.797Z</time>
      </trkpt>
      <trkpt lat="45.58915" lon="5.50888">
        <ele>417</ele>
        <time>2023-02-14T10:20:45.797Z</time>
      </trkpt>
      <trkpt lat="45.58911" lon="5.50888">
        <ele>417</ele>
        <time>2023-02-14T10:20:46.797Z</time>
      </trkpt>
      <trkpt lat="45.58908" lon="5.50887">
        <ele>417</ele>
        <time>2023-02-14T10:20:47.797Z</time>
      </trkpt>
      <trkpt lat="45.58904" lon="5.50886">
        <ele>417</ele>
        <time>2023-02-14T10:20:48.797Z</time>
      </trkpt>
      <trkpt lat="45.589" lon="5.50886">
        <ele>417</ele>
        <time>2023-02-14T10:20:49.797Z</time>
      </trkpt>
      <trkpt lat="45.58897" lon="5.50885">
        <ele>417</ele>
        <time>2023-02-14T10:20:50.797Z</time>
      </trkpt>
      <trkpt lat="45.58893" lon="5.50885">
        <ele>417</ele>
        <time>2023-02-14T10:20:51.797Z</time>
      </trkpt>
      <trkpt lat="45.58889" lon="5.50884">
        <ele>417</ele>
        <time>2023-02-14T10:20:52.797Z</time>
      </trkpt>
      <trkpt lat="45.58885" lon="5.50883">
        <ele>417</ele>
        <time>2023-02-14T10:20:53.797Z</time>
      </trkpt>
      <trkpt lat="45.58882" lon="5.50883">
        <ele>417</ele>
        <time>2023-02-14T10:20:54.797Z</time>
      </trkpt>
      <trkpt lat="45.58878" lon="5.50882">
        <ele>417</ele>
        <time>2023-02-14T10:20:55.797Z</time>
      </trkpt>
      <trkpt lat="45.58875" lon="5.50882">
        <ele>417</ele>
        <time>2023-02-14T10:20:56.797Z</time>
      </trkpt>
      <trkpt lat="45.58872" lon="5.50881">
        <ele>417</ele>
        <time>2023-02-14T10:20:57.797Z</time>
      </trkpt>
      <trkpt lat="45.58868" lon="5.50881">
        <ele>417</ele>
        <time>2023-02-14T10:20:58.797Z</time>
      </trkpt>
      <trkpt lat="45.58865" lon="5.5088">
        <ele>417</ele>
        <time>2023-02-14T10:20:59.797Z</time>
      </trkpt>
      <trkpt lat="45.58861" lon="5.50879">
        <ele>417</ele>
        <time>2023-02-14T10:21:00.797Z</time>
      </trkpt>
      <trkpt lat="45.58858" lon="5.50878">
        <ele>417</ele>
        <time>2023-02-14T10:21:01.797Z</time>
      </trkpt>
      <trkpt lat="45.58854" lon="5.50878">
        <ele>417</ele>
        <time>2023-02-14T10:21:02.797Z</time>
      </trkpt>
      <trkpt lat="45.58851" lon="5.50877">
        <ele>417</ele>
        <time>2023-02-14T10:21:03.797Z</time>
      </trkpt>
      <trkpt lat="45.58848" lon="5.50878">
        <ele>417</ele>
        <time>2023-02-14T10:21:04.797Z</time>
      </trkpt>
      <trkpt lat="45.58845" lon="5.50879">
        <ele>418</ele>
        <time>2023-02-14T10:21:05.797Z</time>
      </trkpt>
      <trkpt lat="45.58842" lon="5.50882">
        <ele>417</ele>
        <time>2023-02-14T10:21:06.797Z</time>
      </trkpt>
      <trkpt lat="45.5884" lon="5.50885">
        <ele>417</ele>
        <time>2023-02-14T10:21:07.797Z</time>
      </trkpt>
      <trkpt lat="45.58838" lon="5.5089">
        <ele>417</ele>
        <time>2023-02-14T10:21:08.797Z</time>
      </trkpt>
      <trkpt lat="45.58837" lon="5.50895">
        <ele>417</ele>
        <time>2023-02-14T10:21:09.797Z</time>
      </trkpt>
      <trkpt lat="45.58835" lon="5.509">
        <ele>417</ele>
        <time>2023-02-14T10:21:10.797Z</time>
      </trkpt>
      <trkpt lat="45.58833" lon="5.50905">
        <ele>417</ele>
        <time>2023-02-14T10:21:11.797Z</time>
      </trkpt>
      <trkpt lat="45.58832" lon="5.5091">
        <ele>417</ele>
        <time>2023-02-14T10:21:12.797Z</time>
      </trkpt>
      <trkpt lat="45.5883" lon="5.50915">
        <ele>417</ele>
        <time>2023-02-14T10:21:13.797Z</time>
      </trkpt>
      <trkpt lat="45.58828" lon="5.5092">
        <ele>417</ele>
        <time>2023-02-14T10:21:14.797Z</time>
      </trkpt>
      <trkpt lat="45.58827" lon="5.50925">
        <ele>417</ele>
        <time>2023-02-14T10:21:15.797Z</time>
      </trkpt>
      <trkpt lat="45.58825" lon="5.50931">
        <ele>416</ele>
        <time>2023-02-14T10:21:16.797Z</time>
      </trkpt>
      <trkpt lat="45.58823" lon="5.50936">
        <ele>416</ele>
        <time>2023-02-14T10:21:17.797Z</time>
      </trkpt>
      <trkpt lat="45.58822" lon="5.50941">
        <ele>416</ele>
        <time>2023-02-14T10:21:18.797Z</time>
      </trkpt>
      <trkpt lat="45.5882" lon="5.50946">
        <ele>416</ele>
        <time>2023-02-14T10:21:19.797Z</time>
      </trkpt>
      <trkpt lat="45.58819" lon="5.50951">
        <ele>416</ele>
        <time>2023-02-14T10:21:20.797Z</time>
      </trkpt>
      <trkpt lat="45.58817" lon="5.50956">
        <ele>416</ele>
        <time>2023-02-14T10:21:21.797Z</time>
      </trkpt>
      <trkpt lat="45.58816" lon="5.50961">
        <ele>416</ele>
        <time>2023-02-14T10:21:22.797Z</time>
      </trkpt>
      <trkpt lat="45.58814" lon="5.50966">
        <ele>417</ele>
        <time>2023-02-14T10:21:23.797Z</time>
      </trkpt>
      <trkpt lat="45.58813" lon="5.50971">
        <ele>417</ele>
        <time>2023-02-14T10:21:24.797Z</time>
      </trkpt>
      <trkpt lat="45.58811" lon="5.50975">
        <ele>417</ele>
        <time>2023-02-14T10:21:25.797Z</time>
      </trkpt>
      <trkpt lat="45.5881" lon="5.5098">
        <ele>417</ele>
        <time>2023-02-14T10:21:26.797Z</time>
      </trkpt>
      <trkpt lat="45.58808" lon="5.50985">
        <ele>417</ele>
        <time>2023-02-14T10:21:27.797Z</time>
      </trkpt>
      <trkpt lat="45.58807" lon="5.5099">
        <ele>417</ele>
        <time>2023-02-14T10:21:28.797Z</time>
      </trkpt>
      <trkpt lat="45.58806" lon="5.50995">
        <ele>417</ele>
        <time>2023-02-14T10:21:29.797Z</time>
      </trkpt>
      <trkpt lat="45.58804" lon="5.51">
        <ele>417</ele>
        <time>2023-02-14T10:21:30.797Z</time>
      </trkpt>
      <trkpt lat="45.58803" lon="5.51005">
        <ele>417</ele>
        <time>2023-02-14T10:21:31.797Z</time>
      </trkpt>
      <trkpt lat="45.58801" lon="5.5101">
        <ele>417</ele>
        <time>2023-02-14T10:21:32.797Z</time>
      </trkpt>
      <trkpt lat="45.588" lon="5.51015">
        <ele>417</ele>
        <time>2023-02-14T10:21:33.797Z</time>
      </trkpt>
      <trkpt lat="45.58799" lon="5.5102">
        <ele>417</ele>
        <time>2023-02-14T10:21:34.797Z</time>
      </trkpt>
      <trkpt lat="45.58797" lon="5.51026">
        <ele>417</ele>
        <time>2023-02-14T10:21:35.797Z</time>
      </trkpt>
      <trkpt lat="45.58796" lon="5.51031">
        <ele>417</ele>
        <time>2023-02-14T10:21:36.797Z</time>
      </trkpt>
      <trkpt lat="45.58795" lon="5.51036">
        <ele>417</ele>
        <time>2023-02-14T10:21:37.797Z</time>
      </trkpt>
      <trkpt lat="45.58794" lon="5.51041">
        <ele>417</ele>
        <time>2023-02-14T10:21:38.797Z</time>
      </trkpt>
      <trkpt lat="45.58792" lon="5.51046">
        <ele>418</ele>
        <time>2023-02-14T10:21:39.797Z</time>
      </trkpt>
      <trkpt lat="45.58791" lon="5.51051">
        <ele>418</ele>
        <time>2023-02-14T10:21:40.797Z</time>
      </trkpt>
      <trkpt lat="45.5879" lon="5.51055">
        <ele>418</ele>
        <time>2023-02-14T10:21:41.797Z</time>
      </trkpt>
      <trkpt lat="45.58788" lon="5.5106">
        <ele>418</ele>
        <time>2023-02-14T10:21:42.797Z</time>
      </trkpt>
      <trkpt lat="45.58787" lon="5.51065">
        <ele>418</ele>
        <time>2023-02-14T10:21:43.797Z</time>
      </trkpt>
      <trkpt lat="45.58786" lon="5.51069">
        <ele>418</ele>
        <time>2023-02-14T10:21:44.797Z</time>
      </trkpt>
      <trkpt lat="45.58785" lon="5.51074">
        <ele>418</ele>
        <time>2023-02-14T10:21:45.797Z</time>
      </trkpt>
      <trkpt lat="45.58784" lon="5.51078">
        <ele>418</ele>
        <time>2023-02-14T10:21:46.797Z</time>
      </trkpt>
      <trkpt lat="45.58782" lon="5.51082">
        <ele>418</ele>
        <time>2023-02-14T10:21:47.797Z</time>
      </trkpt>
      <trkpt lat="45.5878" lon="5.51086">
        <ele>418</ele>
        <time>2023-02-14T10:21:48.797Z</time>
      </trkpt>
      <trkpt lat="45.58777" lon="5.51089">
        <ele>419</ele>
        <time>2023-02-14T10:21:49.797Z</time>
      </trkpt>
      <trkpt lat="45.58775" lon="5.5109">
        <ele>419</ele>
        <time>2023-02-14T10:21:50.797Z</time>
      </trkpt>
      <trkpt lat="45.58771" lon="5.51091">
        <ele>419</ele>
        <time>2023-02-14T10:21:51.797Z</time>
      </trkpt>
      <trkpt lat="45.58768" lon="5.5109">
        <ele>419</ele>
        <time>2023-02-14T10:21:52.797Z</time>
      </trkpt>
      <trkpt lat="45.58765" lon="5.51088">
        <ele>419</ele>
        <time>2023-02-14T10:21:53.797Z</time>
      </trkpt>
      <trkpt lat="45.58762" lon="5.51085">
        <ele>419</ele>
        <time>2023-02-14T10:21:54.797Z</time>
      </trkpt>
      <trkpt lat="45.58759" lon="5.51083">
        <ele>419</ele>
        <time>2023-02-14T10:21:55.797Z</time>
      </trkpt>
      <trkpt lat="45.58756" lon="5.5108">
        <ele>419</ele>
        <time>2023-02-14T10:21:56.797Z</time>
      </trkpt>
      <trkpt lat="45.58753" lon="5.51077">
        <ele>419</ele>
        <time>2023-02-14T10:21:57.797Z</time>
      </trkpt>
      <trkpt lat="45.5875" lon="5.51074">
        <ele>419</ele>
        <time>2023-02-14T10:21:58.797Z</time>
      </trkpt>
      <trkpt lat="45.58747" lon="5.51071">
        <ele>419</ele>
        <time>2023-02-14T10:21:59.797Z</time>
      </trkpt>
      <trkpt lat="45.58744" lon="5.51068">
        <ele>419</ele>
        <time>2023-02-14T10:22:00.797Z</time>
      </trkpt>
      <trkpt lat="45.5874" lon="5.51065">
        <ele>419</ele>
        <time>2023-02-14T10:22:01.797Z</time>
      </trkpt>
      <trkpt lat="45.58737" lon="5.51062">
        <ele>419</ele>
        <time>2023-02-14T10:22:02.797Z</time>
      </trkpt>
      <trkpt lat="45.58734" lon="5.5106">
        <ele>419</ele>
        <time>2023-02-14T10:22:03.797Z</time>
      </trkpt>
      <trkpt lat="45.5873" lon="5.51057">
        <ele>419</ele>
        <time>2023-02-14T10:22:04.797Z</time>
      </trkpt>
      <trkpt lat="45.58727" lon="5.51054">
        <ele>419</ele>
        <time>2023-02-14T10:22:05.797Z</time>
      </trkpt>
      <trkpt lat="45.58723" lon="5.51052">
        <ele>420</ele>
        <time>2023-02-14T10:22:06.797Z</time>
      </trkpt>
      <trkpt lat="45.5872" lon="5.51049">
        <ele>420</ele>
        <time>2023-02-14T10:22:07.797Z</time>
      </trkpt>
      <trkpt lat="45.58716" lon="5.51047">
        <ele>420</ele>
        <time>2023-02-14T10:22:08.797Z</time>
      </trkpt>
      <trkpt lat="45.58713" lon="5.51045">
        <ele>420</ele>
        <time>2023-02-14T10:22:09.797Z</time>
      </trkpt>
      <trkpt lat="45.58709" lon="5.51042">
        <ele>420</ele>
        <time>2023-02-14T10:22:10.797Z</time>
      </trkpt>
      <trkpt lat="45.58706" lon="5.5104">
        <ele>420</ele>
        <time>2023-02-14T10:22:11.797Z</time>
      </trkpt>
      <trkpt lat="45.58702" lon="5.51038">
        <ele>420</ele>
        <time>2023-02-14T10:22:12.797Z</time>
      </trkpt>
      <trkpt lat="45.58698" lon="5.51036">
        <ele>420</ele>
        <time>2023-02-14T10:22:13.797Z</time>
      </trkpt>
      <trkpt lat="45.58695" lon="5.51034">
        <ele>420</ele>
        <time>2023-02-14T10:22:14.797Z</time>
      </trkpt>
      <trkpt lat="45.58691" lon="5.51031">
        <ele>420</ele>
        <time>2023-02-14T10:22:15.797Z</time>
      </trkpt>
      <trkpt lat="45.58688" lon="5.51029">
        <ele>420</ele>
        <time>2023-02-14T10:22:16.797Z</time>
      </trkpt>
      <trkpt lat="45.58684" lon="5.51026">
        <ele>420</ele>
        <time>2023-02-14T10:22:17.797Z</time>
      </trkpt>
      <trkpt lat="45.5868" lon="5.51024">
        <ele>421</ele>
        <time>2023-02-14T10:22:18.797Z</time>
      </trkpt>
      <trkpt lat="45.58677" lon="5.51021">
        <ele>420</ele>
        <time>2023-02-14T10:22:19.797Z</time>
      </trkpt>
      <trkpt lat="45.58673" lon="5.51019">
        <ele>421</ele>
        <time>2023-02-14T10:22:20.797Z</time>
      </trkpt>
      <trkpt lat="45.58669" lon="5.51017">
        <ele>421</ele>
        <time>2023-02-14T10:22:21.797Z</time>
      </trkpt>
      <trkpt lat="45.58666" lon="5.51015">
        <ele>421</ele>
        <time>2023-02-14T10:22:22.797Z</time>
      </trkpt>
      <trkpt lat="45.58662" lon="5.51013">
        <ele>421</ele>
        <time>2023-02-14T10:22:23.797Z</time>
      </trkpt>
      <trkpt lat="45.58659" lon="5.51011">
        <ele>421</ele>
        <time>2023-02-14T10:22:24.797Z</time>
      </trkpt>
      <trkpt lat="45.58655" lon="5.51009">
        <ele>421</ele>
        <time>2023-02-14T10:22:25.797Z</time>
      </trkpt>
      <trkpt lat="45.58652" lon="5.51006">
        <ele>421</ele>
        <time>2023-02-14T10:22:26.797Z</time>
      </trkpt>
      <trkpt lat="45.58648" lon="5.51004">
        <ele>421</ele>
        <time>2023-02-14T10:22:27.797Z</time>
      </trkpt>
      <trkpt lat="45.58645" lon="5.51002">
        <ele>421</ele>
        <time>2023-02-14T10:22:28.797Z</time>
      </trkpt>
      <trkpt lat="45.58641" lon="5.51">
        <ele>422</ele>
        <time>2023-02-14T10:22:29.797Z</time>
      </trkpt>
      <trkpt lat="45.58638" lon="5.50998">
        <ele>422</ele>
        <time>2023-02-14T10:22:30.797Z</time>
      </trkpt>
      <trkpt lat="45.58634" lon="5.50996">
        <ele>422</ele>
        <time>2023-02-14T10:22:31.797Z</time>
      </trkpt>
      <trkpt lat="45.58631" lon="5.50993">
        <ele>422</ele>
        <time>2023-02-14T10:22:32.797Z</time>
      </trkpt>
      <trkpt lat="45.58627" lon="5.50991">
        <ele>422</ele>
        <time>2023-02-14T10:22:33.797Z</time>
      </trkpt>
      <trkpt lat="45.58624" lon="5.50989">
        <ele>422</ele>
        <time>2023-02-14T10:22:34.797Z</time>
      </trkpt>
      <trkpt lat="45.5862" lon="5.50988">
        <ele>423</ele>
        <time>2023-02-14T10:22:35.797Z</time>
      </trkpt>
      <trkpt lat="45.58617" lon="5.50987">
        <ele>422</ele>
        <time>2023-02-14T10:22:36.797Z</time>
      </trkpt>
      <trkpt lat="45.58614" lon="5.50985">
        <ele>423</ele>
        <time>2023-02-14T10:22:37.797Z</time>
      </trkpt>
      <trkpt lat="45.5861" lon="5.50984">
        <ele>423</ele>
        <time>2023-02-14T10:22:38.797Z</time>
      </trkpt>
      <trkpt lat="45.58606" lon="5.50982">
        <ele>423</ele>
        <time>2023-02-14T10:22:39.797Z</time>
      </trkpt>
      <trkpt lat="45.58603" lon="5.5098">
        <ele>423</ele>
        <time>2023-02-14T10:22:40.797Z</time>
      </trkpt>
      <trkpt lat="45.58599" lon="5.50978">
        <ele>423</ele>
        <time>2023-02-14T10:22:41.797Z</time>
      </trkpt>
      <trkpt lat="45.58596" lon="5.50976">
        <ele>423</ele>
        <time>2023-02-14T10:22:42.797Z</time>
      </trkpt>
      <trkpt lat="45.58592" lon="5.50974">
        <ele>422</ele>
        <time>2023-02-14T10:22:43.797Z</time>
      </trkpt>
      <trkpt lat="45.58588" lon="5.50972">
        <ele>423</ele>
        <time>2023-02-14T10:22:44.797Z</time>
      </trkpt>
      <trkpt lat="45.58584" lon="5.50971">
        <ele>423</ele>
        <time>2023-02-14T10:22:45.797Z</time>
      </trkpt>
      <trkpt lat="45.5858" lon="5.50971">
        <ele>422</ele>
        <time>2023-02-14T10:22:46.797Z</time>
      </trkpt>
      <trkpt lat="45.58577" lon="5.50972">
        <ele>422</ele>
        <time>2023-02-14T10:22:47.797Z</time>
      </trkpt>
      <trkpt lat="45.58574" lon="5.50975">
        <ele>422</ele>
        <time>2023-02-14T10:22:48.797Z</time>
      </trkpt>
      <trkpt lat="45.58572" lon="5.5098">
        <ele>422</ele>
        <time>2023-02-14T10:22:49.797Z</time>
      </trkpt>
      <trkpt lat="45.5857" lon="5.50986">
        <ele>422</ele>
        <time>2023-02-14T10:22:50.797Z</time>
      </trkpt>
      <trkpt lat="45.58569" lon="5.50992">
        <ele>422</ele>
        <time>2023-02-14T10:22:51.797Z</time>
      </trkpt>
      <trkpt lat="45.58568" lon="5.50999">
        <ele>421</ele>
        <time>2023-02-14T10:22:52.797Z</time>
      </trkpt>
      <trkpt lat="45.58567" lon="5.51006">
        <ele>421</ele>
        <time>2023-02-14T10:22:53.797Z</time>
      </trkpt>
      <trkpt lat="45.58566" lon="5.51013">
        <ele>421</ele>
        <time>2023-02-14T10:22:54.797Z</time>
      </trkpt>
      <trkpt lat="45.58566" lon="5.51019">
        <ele>421</ele>
        <time>2023-02-14T10:22:55.797Z</time>
      </trkpt>
      <trkpt lat="45.58565" lon="5.51026">
        <ele>421</ele>
        <time>2023-02-14T10:22:56.797Z</time>
      </trkpt>
      <trkpt lat="45.58564" lon="5.51033">
        <ele>421</ele>
        <time>2023-02-14T10:22:57.797Z</time>
      </trkpt>
      <trkpt lat="45.58563" lon="5.5104">
        <ele>421</ele>
        <time>2023-02-14T10:22:58.797Z</time>
      </trkpt>
      <trkpt lat="45.58563" lon="5.51047">
        <ele>421</ele>
        <time>2023-02-14T10:22:59.797Z</time>
      </trkpt>
      <trkpt lat="45.58562" lon="5.51053">
        <ele>421</ele>
        <time>2023-02-14T10:23:00.797Z</time>
      </trkpt>
      <trkpt lat="45.58561" lon="5.5106">
        <ele>421</ele>
        <time>2023-02-14T10:23:01.797Z</time>
      </trkpt>
      <trkpt lat="45.58561" lon="5.51067">
        <ele>421</ele>
        <time>2023-02-14T10:23:02.797Z</time>
      </trkpt>
      <trkpt lat="45.5856" lon="5.51074">
        <ele>421</ele>
        <time>2023-02-14T10:23:03.797Z</time>
      </trkpt>
      <trkpt lat="45.58559" lon="5.5108">
        <ele>421</ele>
        <time>2023-02-14T10:23:04.797Z</time>
      </trkpt>
      <trkpt lat="45.58558" lon="5.51087">
        <ele>421</ele>
        <time>2023-02-14T10:23:05.797Z</time>
      </trkpt>
      <trkpt lat="45.58557" lon="5.51093">
        <ele>421</ele>
        <time>2023-02-14T10:23:06.797Z</time>
      </trkpt>
      <trkpt lat="45.58556" lon="5.511">
        <ele>420</ele>
        <time>2023-02-14T10:23:07.797Z</time>
      </trkpt>
      <trkpt lat="45.58555" lon="5.51106">
        <ele>420</ele>
        <time>2023-02-14T10:23:08.797Z</time>
      </trkpt>
      <trkpt lat="45.58553" lon="5.51113">
        <ele>420</ele>
        <time>2023-02-14T10:23:09.797Z</time>
      </trkpt>
      <trkpt lat="45.58551" lon="5.5112">
        <ele>420</ele>
        <time>2023-02-14T10:23:10.797Z</time>
      </trkpt>
      <trkpt lat="45.58549" lon="5.51126">
        <ele>419</ele>
        <time>2023-02-14T10:23:11.797Z</time>
      </trkpt>
      <trkpt lat="45.58547" lon="5.51133">
        <ele>419</ele>
        <time>2023-02-14T10:23:12.797Z</time>
      </trkpt>
      <trkpt lat="45.58544" lon="5.51139">
        <ele>419</ele>
        <time>2023-02-14T10:23:13.797Z</time>
      </trkpt>
      <trkpt lat="45.58541" lon="5.51145">
        <ele>419</ele>
        <time>2023-02-14T10:23:14.797Z</time>
      </trkpt>
      <trkpt lat="45.58538" lon="5.5115">
        <ele>418</ele>
        <time>2023-02-14T10:23:15.797Z</time>
      </trkpt>
      <trkpt lat="45.58535" lon="5.51156">
        <ele>418</ele>
        <time>2023-02-14T10:23:16.797Z</time>
      </trkpt>
      <trkpt lat="45.58531" lon="5.51161">
        <ele>418</ele>
        <time>2023-02-14T10:23:17.797Z</time>
      </trkpt>
      <trkpt lat="45.58528" lon="5.51166">
        <ele>418</ele>
        <time>2023-02-14T10:23:18.797Z</time>
      </trkpt>
      <trkpt lat="45.58525" lon="5.51171">
        <ele>418</ele>
        <time>2023-02-14T10:23:19.797Z</time>
      </trkpt>
      <trkpt lat="45.58521" lon="5.51176">
        <ele>417</ele>
        <time>2023-02-14T10:23:20.797Z</time>
      </trkpt>
      <trkpt lat="45.58518" lon="5.51181">
        <ele>417</ele>
        <time>2023-02-14T10:23:21.797Z</time>
      </trkpt>
      <trkpt lat="45.58514" lon="5.51186">
        <ele>417</ele>
        <time>2023-02-14T10:23:22.797Z</time>
      </trkpt>
      <trkpt lat="45.5851" lon="5.51191">
        <ele>417</ele>
        <time>2023-02-14T10:23:23.797Z</time>
      </trkpt>
      <trkpt lat="45.58507" lon="5.51196">
        <ele>417</ele>
        <time>2023-02-14T10:23:24.797Z</time>
      </trkpt>
      <trkpt lat="45.58503" lon="5.51201">
        <ele>416</ele>
        <time>2023-02-14T10:23:25.797Z</time>
      </trkpt>
      <trkpt lat="45.585" lon="5.51205">
        <ele>416</ele>
        <time>2023-02-14T10:23:26.797Z</time>
      </trkpt>
      <trkpt lat="45.58496" lon="5.5121">
        <ele>416</ele>
        <time>2023-02-14T10:23:27.797Z</time>
      </trkpt>
      <trkpt lat="45.58492" lon="5.51215">
        <ele>416</ele>
        <time>2023-02-14T10:23:28.797Z</time>
      </trkpt>
      <trkpt lat="45.58489" lon="5.5122">
        <ele>416</ele>
        <time>2023-02-14T10:23:29.797Z</time>
      </trkpt>
      <trkpt lat="45.58485" lon="5.51224">
        <ele>415</ele>
        <time>2023-02-14T10:23:30.797Z</time>
      </trkpt>
      <trkpt lat="45.58482" lon="5.51229">
        <ele>415</ele>
        <time>2023-02-14T10:23:31.797Z</time>
      </trkpt>
      <trkpt lat="45.5848" lon="5.51234">
        <ele>415</ele>
        <time>2023-02-14T10:23:32.797Z</time>
      </trkpt>
      <trkpt lat="45.58479" lon="5.5124">
        <ele>415</ele>
        <time>2023-02-14T10:23:33.797Z</time>
      </trkpt>
      <trkpt lat="45.58479" lon="5.51246">
        <ele>414</ele>
        <time>2023-02-14T10:23:34.797Z</time>
      </trkpt>
      <trkpt lat="45.58479" lon="5.51252">
        <ele>413</ele>
        <time>2023-02-14T10:23:35.797Z</time>
      </trkpt>
      <trkpt lat="45.5848" lon="5.51258">
        <ele>413</ele>
        <time>2023-02-14T10:23:36.797Z</time>
      </trkpt>
      <trkpt lat="45.58481" lon="5.51265">
        <ele>413</ele>
        <time>2023-02-14T10:23:37.797Z</time>
      </trkpt>
      <trkpt lat="45.58482" lon="5.51272">
        <ele>413</ele>
        <time>2023-02-14T10:23:38.797Z</time>
      </trkpt>
      <trkpt lat="45.58483" lon="5.51278">
        <ele>413</ele>
        <time>2023-02-14T10:23:39.797Z</time>
      </trkpt>
      <trkpt lat="45.58485" lon="5.51285">
        <ele>413</ele>
        <time>2023-02-14T10:23:40.797Z</time>
      </trkpt>
      <trkpt lat="45.58486" lon="5.51291">
        <ele>413</ele>
        <time>2023-02-14T10:23:41.797Z</time>
      </trkpt>
      <trkpt lat="45.58487" lon="5.51298">
        <ele>412</ele>
        <time>2023-02-14T10:23:42.797Z</time>
      </trkpt>
      <trkpt lat="45.58488" lon="5.51305">
        <ele>412</ele>
        <time>2023-02-14T10:23:43.797Z</time>
      </trkpt>
      <trkpt lat="45.58489" lon="5.51312">
        <ele>412</ele>
        <time>2023-02-14T10:23:44.797Z</time>
      </trkpt>
      <trkpt lat="45.5849" lon="5.5132">
        <ele>411</ele>
        <time>2023-02-14T10:23:45.797Z</time>
      </trkpt>
      <trkpt lat="45.58491" lon="5.51328">
        <ele>411</ele>
        <time>2023-02-14T10:23:46.797Z</time>
      </trkpt>
      <trkpt lat="45.58492" lon="5.51336">
        <ele>411</ele>
        <time>2023-02-14T10:23:47.797Z</time>
      </trkpt>
      <trkpt lat="45.58493" lon="5.51345">
        <ele>410</ele>
        <time>2023-02-14T10:23:48.797Z</time>
      </trkpt>
      <trkpt lat="45.58494" lon="5.51353">
        <ele>410</ele>
        <time>2023-02-14T10:23:49.797Z</time>
      </trkpt>
      <trkpt lat="45.58495" lon="5.51362">
        <ele>410</ele>
        <time>2023-02-14T10:23:50.797Z</time>
      </trkpt>
      <trkpt lat="45.58496" lon="5.51371">
        <ele>409</ele>
        <time>2023-02-14T10:23:51.797Z</time>
      </trkpt>
      <trkpt lat="45.58497" lon="5.5138">
        <ele>409</ele>
        <time>2023-02-14T10:23:52.797Z</time>
      </trkpt>
      <trkpt lat="45.58498" lon="5.51389">
        <ele>409</ele>
        <time>2023-02-14T10:23:53.797Z</time>
      </trkpt>
      <trkpt lat="45.58498" lon="5.51398">
        <ele>408</ele>
        <time>2023-02-14T10:23:54.797Z</time>
      </trkpt>
      <trkpt lat="45.58499" lon="5.51407">
        <ele>408</ele>
        <time>2023-02-14T10:23:55.797Z</time>
      </trkpt>
      <trkpt lat="45.585" lon="5.51416">
        <ele>408</ele>
        <time>2023-02-14T10:23:56.797Z</time>
      </trkpt>
      <trkpt lat="45.58501" lon="5.51425">
        <ele>407</ele>
        <time>2023-02-14T10:23:57.797Z</time>
      </trkpt>
      <trkpt lat="45.58502" lon="5.51434">
        <ele>407</ele>
        <time>2023-02-14T10:23:58.797Z</time>
      </trkpt>
      <trkpt lat="45.58502" lon="5.51443">
        <ele>407</ele>
        <time>2023-02-14T10:23:59.797Z</time>
      </trkpt>
      <trkpt lat="45.58503" lon="5.51452">
        <ele>406</ele>
        <time>2023-02-14T10:24:00.797Z</time>
      </trkpt>
      <trkpt lat="45.58504" lon="5.51461">
        <ele>406</ele>
        <time>2023-02-14T10:24:01.797Z</time>
      </trkpt>
      <trkpt lat="45.58505" lon="5.51471">
        <ele>405</ele>
        <time>2023-02-14T10:24:02.797Z</time>
      </trkpt>
      <trkpt lat="45.58507" lon="5.5148">
        <ele>405</ele>
        <time>2023-02-14T10:24:03.797Z</time>
      </trkpt>
      <trkpt lat="45.58508" lon="5.51489">
        <ele>404</ele>
        <time>2023-02-14T10:24:04.797Z</time>
      </trkpt>
      <trkpt lat="45.58509" lon="5.51498">
        <ele>404</ele>
        <time>2023-02-14T10:24:05.797Z</time>
      </trkpt>
      <trkpt lat="45.58509" lon="5.51506">
        <ele>404</ele>
        <time>2023-02-14T10:24:06.797Z</time>
      </trkpt>
      <trkpt lat="45.5851" lon="5.51514">
        <ele>404</ele>
        <time>2023-02-14T10:24:07.797Z</time>
      </trkpt>
      <trkpt lat="45.58511" lon="5.51523">
        <ele>404</ele>
        <time>2023-02-14T10:24:08.797Z</time>
      </trkpt>
      <trkpt lat="45.58512" lon="5.5153">
        <ele>404</ele>
        <time>2023-02-14T10:24:09.797Z</time>
      </trkpt>
      <trkpt lat="45.58513" lon="5.51538">
        <ele>403</ele>
        <time>2023-02-14T10:24:10.797Z</time>
      </trkpt>
      <trkpt lat="45.58513" lon="5.51546">
        <ele>403</ele>
        <time>2023-02-14T10:24:11.797Z</time>
      </trkpt>
      <trkpt lat="45.58514" lon="5.51554">
        <ele>403</ele>
        <time>2023-02-14T10:24:12.797Z</time>
      </trkpt>
      <trkpt lat="45.58515" lon="5.51561">
        <ele>403</ele>
        <time>2023-02-14T10:24:13.797Z</time>
      </trkpt>
      <trkpt lat="45.58516" lon="5.51569">
        <ele>403</ele>
        <time>2023-02-14T10:24:14.797Z</time>
      </trkpt>
      <trkpt lat="45.58516" lon="5.51576">
        <ele>403</ele>
        <time>2023-02-14T10:24:15.797Z</time>
      </trkpt>
      <trkpt lat="45.58517" lon="5.51583">
        <ele>402</ele>
        <time>2023-02-14T10:24:16.797Z</time>
      </trkpt>
      <trkpt lat="45.58517" lon="5.5159">
        <ele>403</ele>
        <time>2023-02-14T10:24:17.797Z</time>
      </trkpt>
      <trkpt lat="45.58518" lon="5.51597">
        <ele>402</ele>
        <time>2023-02-14T10:24:18.797Z</time>
      </trkpt>
      <trkpt lat="45.58519" lon="5.51604">
        <ele>402</ele>
        <time>2023-02-14T10:24:19.797Z</time>
      </trkpt>
      <trkpt lat="45.58519" lon="5.51611">
        <ele>402</ele>
        <time>2023-02-14T10:24:20.797Z</time>
      </trkpt>
      <trkpt lat="45.5852" lon="5.51618">
        <ele>402</ele>
        <time>2023-02-14T10:24:21.797Z</time>
      </trkpt>
      <trkpt lat="45.58521" lon="5.51625">
        <ele>402</ele>
        <time>2023-02-14T10:24:22.797Z</time>
      </trkpt>
      <trkpt lat="45.58521" lon="5.51632">
        <ele>402</ele>
        <time>2023-02-14T10:24:23.797Z</time>
      </trkpt>
      <trkpt lat="45.58522" lon="5.51639">
        <ele>402</ele>
        <time>2023-02-14T10:24:24.797Z</time>
      </trkpt>
      <trkpt lat="45.58523" lon="5.51646">
        <ele>402</ele>
        <time>2023-02-14T10:24:25.797Z</time>
      </trkpt>
      <trkpt lat="45.58523" lon="5.51653">
        <ele>402</ele>
        <time>2023-02-14T10:24:26.797Z</time>
      </trkpt>
      <trkpt lat="45.58524" lon="5.5166">
        <ele>402</ele>
        <time>2023-02-14T10:24:27.797Z</time>
      </trkpt>
      <trkpt lat="45.58525" lon="5.51667">
        <ele>402</ele>
        <time>2023-02-14T10:24:28.797Z</time>
      </trkpt>
      <trkpt lat="45.58525" lon="5.51674">
        <ele>402</ele>
        <time>2023-02-14T10:24:29.797Z</time>
      </trkpt>
      <trkpt lat="45.58526" lon="5.51681">
        <ele>402</ele>
        <time>2023-02-14T10:24:30.797Z</time>
      </trkpt>
      <trkpt lat="45.58527" lon="5.51688">
        <ele>402</ele>
        <time>2023-02-14T10:24:31.797Z</time>
      </trkpt>
      <trkpt lat="45.58527" lon="5.51695">
        <ele>402</ele>
        <time>2023-02-14T10:24:32.797Z</time>
      </trkpt>
      <trkpt lat="45.58528" lon="5.51701">
        <ele>402</ele>
        <time>2023-02-14T10:24:33.797Z</time>
      </trkpt>
      <trkpt lat="45.58528" lon="5.51708">
        <ele>402</ele>
        <time>2023-02-14T10:24:34.797Z</time>
      </trkpt>
      <trkpt lat="45.58529" lon="5.51715">
        <ele>402</ele>
        <time>2023-02-14T10:24:35.797Z</time>
      </trkpt>
      <trkpt lat="45.5853" lon="5.51721">
        <ele>402</ele>
        <time>2023-02-14T10:24:36.797Z</time>
      </trkpt>
      <trkpt lat="45.5853" lon="5.51728">
        <ele>402</ele>
        <time>2023-02-14T10:24:37.797Z</time>
      </trkpt>
      <trkpt lat="45.58531" lon="5.51735">
        <ele>402</ele>
        <time>2023-02-14T10:24:38.797Z</time>
      </trkpt>
      <trkpt lat="45.58532" lon="5.51741">
        <ele>402</ele>
        <time>2023-02-14T10:24:39.797Z</time>
      </trkpt>
      <trkpt lat="45.58532" lon="5.51748">
        <ele>402</ele>
        <time>2023-02-14T10:24:40.797Z</time>
      </trkpt>
      <trkpt lat="45.58533" lon="5.51754">
        <ele>402</ele>
        <time>2023-02-14T10:24:41.797Z</time>
      </trkpt>
      <trkpt lat="45.58533" lon="5.51761">
        <ele>402</ele>
        <time>2023-02-14T10:24:42.797Z</time>
      </trkpt>
      <trkpt lat="45.58534" lon="5.51768">
        <ele>402</ele>
        <time>2023-02-14T10:24:43.797Z</time>
      </trkpt>
      <trkpt lat="45.58535" lon="5.51775">
        <ele>402</ele>
        <time>2023-02-14T10:24:44.797Z</time>
      </trkpt>
      <trkpt lat="45.58535" lon="5.51782">
        <ele>402</ele>
        <time>2023-02-14T10:24:45.797Z</time>
      </trkpt>
      <trkpt lat="45.58536" lon="5.51788">
        <ele>402</ele>
        <time>2023-02-14T10:24:46.797Z</time>
      </trkpt>
      <trkpt lat="45.58537" lon="5.51795">
        <ele>402</ele>
        <time>2023-02-14T10:24:47.797Z</time>
      </trkpt>
      <trkpt lat="45.58537" lon="5.51802">
        <ele>402</ele>
        <time>2023-02-14T10:24:48.797Z</time>
      </trkpt>
      <trkpt lat="45.58538" lon="5.51809">
        <ele>402</ele>
        <time>2023-02-14T10:24:49.797Z</time>
      </trkpt>
      <trkpt lat="45.58539" lon="5.51815">
        <ele>402</ele>
        <time>2023-02-14T10:24:50.797Z</time>
      </trkpt>
      <trkpt lat="45.5854" lon="5.51822">
        <ele>402</ele>
        <time>2023-02-14T10:24:51.797Z</time>
      </trkpt>
      <trkpt lat="45.5854" lon="5.51829">
        <ele>402</ele>
        <time>2023-02-14T10:24:52.797Z</time>
      </trkpt>
      <trkpt lat="45.58541" lon="5.51835">
        <ele>402</ele>
        <time>2023-02-14T10:24:53.797Z</time>
      </trkpt>
      <trkpt lat="45.58541" lon="5.51841">
        <ele>402</ele>
        <time>2023-02-14T10:24:54.797Z</time>
      </trkpt>
      <trkpt lat="45.58542" lon="5.51848">
        <ele>402</ele>
        <time>2023-02-14T10:24:55.797Z</time>
      </trkpt>
      <trkpt lat="45.58543" lon="5.51854">
        <ele>401</ele>
        <time>2023-02-14T10:24:56.797Z</time>
      </trkpt>
      <trkpt lat="45.58543" lon="5.5186">
        <ele>402</ele>
        <time>2023-02-14T10:24:57.797Z</time>
      </trkpt>
      <trkpt lat="45.58544" lon="5.51867">
        <ele>402</ele>
        <time>2023-02-14T10:24:58.797Z</time>
      </trkpt>
      <trkpt lat="45.58544" lon="5.51873">
        <ele>402</ele>
        <time>2023-02-14T10:24:59.797Z</time>
      </trkpt>
      <trkpt lat="45.58545" lon="5.5188">
        <ele>402</ele>
        <time>2023-02-14T10:25:00.797Z</time>
      </trkpt>
      <trkpt lat="45.58545" lon="5.51886">
        <ele>402</ele>
        <time>2023-02-14T10:25:01.797Z</time>
      </trkpt>
      <trkpt lat="45.58545" lon="5.51892">
        <ele>402</ele>
        <time>2023-02-14T10:25:02.797Z</time>
      </trkpt>
      <trkpt lat="45.58546" lon="5.51898">
        <ele>402</ele>
        <time>2023-02-14T10:25:03.797Z</time>
      </trkpt>
      <trkpt lat="45.58546" lon="5.51904">
        <ele>401</ele>
        <time>2023-02-14T10:25:04.797Z</time>
      </trkpt>
      <trkpt lat="45.58546" lon="5.5191">
        <ele>402</ele>
        <time>2023-02-14T10:25:05.797Z</time>
      </trkpt>
      <trkpt lat="45.58545" lon="5.51916">
        <ele>402</ele>
        <time>2023-02-14T10:25:06.797Z</time>
      </trkpt>
      <trkpt lat="45.58545" lon="5.51922">
        <ele>402</ele>
        <time>2023-02-14T10:25:07.797Z</time>
      </trkpt>
      <trkpt lat="45.58545" lon="5.51928">
        <ele>402</ele>
        <time>2023-02-14T10:25:08.797Z</time>
      </trkpt>
      <trkpt lat="45.58545" lon="5.51934">
        <ele>402</ele>
        <time>2023-02-14T10:25:09.797Z</time>
      </trkpt>
      <trkpt lat="45.58544" lon="5.51941">
        <ele>402</ele>
        <time>2023-02-14T10:25:10.797Z</time>
      </trkpt>
      <trkpt lat="45.58544" lon="5.51947">
        <ele>402</ele>
        <time>2023-02-14T10:25:11.797Z</time>
      </trkpt>
      <trkpt lat="45.58543" lon="5.51953">
        <ele>402</ele>
        <time>2023-02-14T10:25:12.797Z</time>
      </trkpt>
      <trkpt lat="45.58543" lon="5.5196">
        <ele>401</ele>
        <time>2023-02-14T10:25:13.797Z</time>
      </trkpt>
      <trkpt lat="45.58543" lon="5.51967">
        <ele>401</ele>
        <time>2023-02-14T10:25:14.797Z</time>
      </trkpt>
      <trkpt lat="45.58543" lon="5.51973">
        <ele>401</ele>
        <time>2023-02-14T10:25:15.797Z</time>
      </trkpt>
      <trkpt lat="45.58543" lon="5.5198">
        <ele>401</ele>
        <time>2023-02-14T10:25:16.797Z</time>
      </trkpt>
      <trkpt lat="45.58543" lon="5.51986">
        <ele>401</ele>
        <time>2023-02-14T10:25:17.797Z</time>
      </trkpt>
      <trkpt lat="45.58543" lon="5.51993">
        <ele>401</ele>
        <time>2023-02-14T10:25:18.797Z</time>
      </trkpt>
      <trkpt lat="45.58543" lon="5.51999">
        <ele>401</ele>
        <time>2023-02-14T10:25:19.797Z</time>
      </trkpt>
      <trkpt lat="45.58543" lon="5.52006">
        <ele>401</ele>
        <time>2023-02-14T10:25:20.797Z</time>
      </trkpt>
      <trkpt lat="45.58543" lon="5.52013">
        <ele>401</ele>
        <time>2023-02-14T10:25:21.797Z</time>
      </trkpt>
      <trkpt lat="45.58543" lon="5.52019">
        <ele>401</ele>
        <time>2023-02-14T10:25:22.797Z</time>
      </trkpt>
      <trkpt lat="45.58543" lon="5.52026">
        <ele>401</ele>
        <time>2023-02-14T10:25:23.797Z</time>
      </trkpt>
      <trkpt lat="45.58543" lon="5.52033">
        <ele>401</ele>
        <time>2023-02-14T10:25:24.797Z</time>
      </trkpt>
      <trkpt lat="45.58543" lon="5.5204">
        <ele>400</ele>
        <time>2023-02-14T10:25:25.797Z</time>
      </trkpt>
      <trkpt lat="45.58543" lon="5.52046">
        <ele>400</ele>
        <time>2023-02-14T10:25:26.797Z</time>
      </trkpt>
      <trkpt lat="45.58543" lon="5.52053">
        <ele>400</ele>
        <time>2023-02-14T10:25:27.797Z</time>
      </trkpt>
      <trkpt lat="45.58543" lon="5.5206">
        <ele>400</ele>
        <time>2023-02-14T10:25:28.797Z</time>
      </trkpt>
      <trkpt lat="45.58543" lon="5.52067">
        <ele>400</ele>
        <time>2023-02-14T10:25:29.797Z</time>
      </trkpt>
      <trkpt lat="45.58543" lon="5.52073">
        <ele>400</ele>
        <time>2023-02-14T10:25:30.797Z</time>
      </trkpt>
      <trkpt lat="45.58543" lon="5.5208">
        <ele>400</ele>
        <time>2023-02-14T10:25:31.797Z</time>
      </trkpt>
      <trkpt lat="45.58543" lon="5.52087">
        <ele>400</ele>
        <time>2023-02-14T10:25:32.797Z</time>
      </trkpt>
      <trkpt lat="45.58543" lon="5.52093">
        <ele>400</ele>
        <time>2023-02-14T10:25:33.797Z</time>
      </trkpt>
      <trkpt lat="45.58543" lon="5.521">
        <ele>400</ele>
        <time>2023-02-14T10:25:34.797Z</time>
      </trkpt>
      <trkpt lat="45.58542" lon="5.52106">
        <ele>400</ele>
        <time>2023-02-14T10:25:35.797Z</time>
      </trkpt>
      <trkpt lat="45.58542" lon="5.52113">
        <ele>400</ele>
        <time>2023-02-14T10:25:36.797Z</time>
      </trkpt>
      <trkpt lat="45.58542" lon="5.52119">
        <ele>400</ele>
        <time>2023-02-14T10:25:37.797Z</time>
      </trkpt>
      <trkpt lat="45.58542" lon="5.52126">
        <ele>400</ele>
        <time>2023-02-14T10:25:38.797Z</time>
      </trkpt>
      <trkpt lat="45.58542" lon="5.52132">
        <ele>399</ele>
        <time>2023-02-14T10:25:39.797Z</time>
      </trkpt>
      <trkpt lat="45.58542" lon="5.52139">
        <ele>399</ele>
        <time>2023-02-14T10:25:40.797Z</time>
      </trkpt>
      <trkpt lat="45.58542" lon="5.52145">
        <ele>399</ele>
        <time>2023-02-14T10:25:41.797Z</time>
      </trkpt>
      <trkpt lat="45.58543" lon="5.52151">
        <ele>399</ele>
        <time>2023-02-14T10:25:42.797Z</time>
      </trkpt>
      <trkpt lat="45.58543" lon="5.52158">
        <ele>399</ele>
        <time>2023-02-14T10:25:43.797Z</time>
      </trkpt>
      <trkpt lat="45.58543" lon="5.52165">
        <ele>399</ele>
        <time>2023-02-14T10:25:44.797Z</time>
      </trkpt>
      <trkpt lat="45.58543" lon="5.52172">
        <ele>399</ele>
        <time>2023-02-14T10:25:45.797Z</time>
      </trkpt>
      <trkpt lat="45.58543" lon="5.52179">
        <ele>399</ele>
        <time>2023-02-14T10:25:46.797Z</time>
      </trkpt>
      <trkpt lat="45.58543" lon="5.52186">
        <ele>399</ele>
        <time>2023-02-14T10:25:47.797Z</time>
      </trkpt>
      <trkpt lat="45.58543" lon="5.52193">
        <ele>399</ele>
        <time>2023-02-14T10:25:48.797Z</time>
      </trkpt>
      <trkpt lat="45.58543" lon="5.522">
        <ele>399</ele>
        <time>2023-02-14T10:25:49.797Z</time>
      </trkpt>
      <trkpt lat="45.58543" lon="5.52206">
        <ele>399</ele>
        <time>2023-02-14T10:25:50.797Z</time>
      </trkpt>
      <trkpt lat="45.58543" lon="5.52212">
        <ele>399</ele>
        <time>2023-02-14T10:25:51.797Z</time>
      </trkpt>
      <trkpt lat="45.58543" lon="5.52218">
        <ele>399</ele>
        <time>2023-02-14T10:25:52.797Z</time>
      </trkpt>
      <trkpt lat="45.58544" lon="5.52225">
        <ele>399</ele>
        <time>2023-02-14T10:25:53.797Z</time>
      </trkpt>
      <trkpt lat="45.58544" lon="5.5223">
        <ele>399</ele>
        <time>2023-02-14T10:25:54.797Z</time>
      </trkpt>
      <trkpt lat="45.58544" lon="5.52236">
        <ele>399</ele>
        <time>2023-02-14T10:25:55.797Z</time>
      </trkpt>
      <trkpt lat="45.58544" lon="5.52242">
        <ele>399</ele>
        <time>2023-02-14T10:25:56.797Z</time>
      </trkpt>
      <trkpt lat="45.58544" lon="5.52248">
        <ele>398</ele>
        <time>2023-02-14T10:25:57.797Z</time>
      </trkpt>
      <trkpt lat="45.58544" lon="5.52254">
        <ele>398</ele>
        <time>2023-02-14T10:25:58.797Z</time>
      </trkpt>
      <trkpt lat="45.58544" lon="5.52259">
        <ele>398</ele>
        <time>2023-02-14T10:25:59.797Z</time>
      </trkpt>
      <trkpt lat="45.58544" lon="5.52265">
        <ele>398</ele>
        <time>2023-02-14T10:26:00.797Z</time>
      </trkpt>
      <trkpt lat="45.58544" lon="5.52271">
        <ele>398</ele>
        <time>2023-02-14T10:26:01.797Z</time>
      </trkpt>
      <trkpt lat="45.58544" lon="5.52277">
        <ele>398</ele>
        <time>2023-02-14T10:26:02.797Z</time>
      </trkpt>
      <trkpt lat="45.58544" lon="5.52283">
        <ele>398</ele>
        <time>2023-02-14T10:26:03.797Z</time>
      </trkpt>
      <trkpt lat="45.58543" lon="5.52289">
        <ele>398</ele>
        <time>2023-02-14T10:26:04.797Z</time>
      </trkpt>
      <trkpt lat="45.58543" lon="5.52295">
        <ele>397</ele>
        <time>2023-02-14T10:26:05.797Z</time>
      </trkpt>
      <trkpt lat="45.58543" lon="5.52301">
        <ele>397</ele>
        <time>2023-02-14T10:26:06.797Z</time>
      </trkpt>
      <trkpt lat="45.58543" lon="5.52307">
        <ele>397</ele>
        <time>2023-02-14T10:26:07.797Z</time>
      </trkpt>
      <trkpt lat="45.58543" lon="5.52313">
        <ele>397</ele>
        <time>2023-02-14T10:26:08.797Z</time>
      </trkpt>
      <trkpt lat="45.58543" lon="5.5232">
        <ele>397</ele>
        <time>2023-02-14T10:26:09.797Z</time>
      </trkpt>
      <trkpt lat="45.58544" lon="5.52327">
        <ele>397</ele>
        <time>2023-02-14T10:26:10.797Z</time>
      </trkpt>
      <trkpt lat="45.58544" lon="5.52334">
        <ele>397</ele>
        <time>2023-02-14T10:26:11.797Z</time>
      </trkpt>
      <trkpt lat="45.58544" lon="5.52341">
        <ele>397</ele>
        <time>2023-02-14T10:26:12.797Z</time>
      </trkpt>
      <trkpt lat="45.58544" lon="5.52348">
        <ele>396</ele>
        <time>2023-02-14T10:26:13.797Z</time>
      </trkpt>
      <trkpt lat="45.58545" lon="5.52356">
        <ele>394</ele>
        <time>2023-02-14T10:26:14.797Z</time>
      </trkpt>
      <trkpt lat="45.58545" lon="5.52364">
        <ele>394</ele>
        <time>2023-02-14T10:26:15.797Z</time>
      </trkpt>
      <trkpt lat="45.58546" lon="5.52371">
        <ele>393</ele>
        <time>2023-02-14T10:26:16.797Z</time>
      </trkpt>
      <trkpt lat="45.58546" lon="5.52379">
        <ele>393</ele>
        <time>2023-02-14T10:26:17.797Z</time>
      </trkpt>
      <trkpt lat="45.58547" lon="5.52387">
        <ele>393</ele>
        <time>2023-02-14T10:26:18.797Z</time>
      </trkpt>
      <trkpt lat="45.58548" lon="5.52396">
        <ele>392</ele>
        <time>2023-02-14T10:26:19.797Z</time>
      </trkpt>
      <trkpt lat="45.58548" lon="5.52405">
        <ele>391</ele>
        <time>2023-02-14T10:26:20.797Z</time>
      </trkpt>
      <trkpt lat="45.58549" lon="5.52415">
        <ele>391</ele>
        <time>2023-02-14T10:26:21.797Z</time>
      </trkpt>
      <trkpt lat="45.58549" lon="5.52424">
        <ele>390</ele>
        <time>2023-02-14T10:26:22.797Z</time>
      </trkpt>
      <trkpt lat="45.58549" lon="5.52432">
        <ele>390</ele>
        <time>2023-02-14T10:26:23.797Z</time>
      </trkpt>
      <trkpt lat="45.5855" lon="5.52441">
        <ele>389</ele>
        <time>2023-02-14T10:26:24.797Z</time>
      </trkpt>
      <trkpt lat="45.5855" lon="5.52451">
        <ele>388</ele>
        <time>2023-02-14T10:26:25.797Z</time>
      </trkpt>
      <trkpt lat="45.58551" lon="5.5246">
        <ele>387</ele>
        <time>2023-02-14T10:26:26.797Z</time>
      </trkpt>
      <trkpt lat="45.58552" lon="5.5247">
        <ele>387</ele>
        <time>2023-02-14T10:26:27.797Z</time>
      </trkpt>
      <trkpt lat="45.58553" lon="5.52479">
        <ele>385</ele>
        <time>2023-02-14T10:26:28.797Z</time>
      </trkpt>
      <trkpt lat="45.58553" lon="5.52488">
        <ele>384</ele>
        <time>2023-02-14T10:26:29.797Z</time>
      </trkpt>
      <trkpt lat="45.58553" lon="5.52497">
        <ele>383</ele>
        <time>2023-02-14T10:26:30.797Z</time>
      </trkpt>
      <trkpt lat="45.58553" lon="5.52505">
        <ele>383</ele>
        <time>2023-02-14T10:26:31.797Z</time>
      </trkpt>
      <trkpt lat="45.58553" lon="5.52512">
        <ele>381</ele>
        <time>2023-02-14T10:26:32.797Z</time>
      </trkpt>
      <trkpt lat="45.58552" lon="5.52519">
        <ele>380</ele>
        <time>2023-02-14T10:26:33.797Z</time>
      </trkpt>
      <trkpt lat="45.58553" lon="5.52526">
        <ele>378</ele>
        <time>2023-02-14T10:26:34.797Z</time>
      </trkpt>
      <trkpt lat="45.58553" lon="5.52532">
        <ele>378</ele>
        <time>2023-02-14T10:26:35.797Z</time>
      </trkpt>
      <trkpt lat="45.58553" lon="5.52538">
        <ele>377</ele>
        <time>2023-02-14T10:26:36.797Z</time>
      </trkpt>
      <trkpt lat="45.58553" lon="5.52545">
        <ele>376</ele>
        <time>2023-02-14T10:26:37.797Z</time>
      </trkpt>
      <trkpt lat="45.58553" lon="5.52552">
        <ele>376</ele>
        <time>2023-02-14T10:26:38.797Z</time>
      </trkpt>
      <trkpt lat="45.58552" lon="5.5256">
        <ele>376</ele>
        <time>2023-02-14T10:26:39.797Z</time>
      </trkpt>
      <trkpt lat="45.58552" lon="5.52569">
        <ele>374</ele>
        <time>2023-02-14T10:26:40.797Z</time>
      </trkpt>
      <trkpt lat="45.58551" lon="5.52579">
        <ele>375</ele>
        <time>2023-02-14T10:26:41.797Z</time>
      </trkpt>
      <trkpt lat="45.58551" lon="5.52587">
        <ele>376</ele>
        <time>2023-02-14T10:26:42.797Z</time>
      </trkpt>
      <trkpt lat="45.58549" lon="5.52596">
        <ele>377</ele>
        <time>2023-02-14T10:26:43.797Z</time>
      </trkpt>
      <trkpt lat="45.58548" lon="5.52603">
        <ele>377</ele>
        <time>2023-02-14T10:26:44.797Z</time>
      </trkpt>
      <trkpt lat="45.58547" lon="5.5261">
        <ele>377</ele>
        <time>2023-02-14T10:26:45.797Z</time>
      </trkpt>
      <trkpt lat="45.58548" lon="5.52617">
        <ele>376</ele>
        <time>2023-02-14T10:26:46.797Z</time>
      </trkpt>
      <trkpt lat="45.58548" lon="5.52624">
        <ele>377</ele>
        <time>2023-02-14T10:26:47.797Z</time>
      </trkpt>
      <trkpt lat="45.58548" lon="5.5263">
        <ele>377</ele>
        <time>2023-02-14T10:26:48.797Z</time>
      </trkpt>
      <trkpt lat="45.58548" lon="5.52636">
        <ele>377</ele>
        <time>2023-02-14T10:26:49.797Z</time>
      </trkpt>
      <trkpt lat="45.58548" lon="5.52643">
        <ele>377</ele>
        <time>2023-02-14T10:26:50.797Z</time>
      </trkpt>
      <trkpt lat="45.58547" lon="5.5265">
        <ele>377</ele>
        <time>2023-02-14T10:26:51.797Z</time>
      </trkpt>
      <trkpt lat="45.58547" lon="5.52656">
        <ele>378</ele>
        <time>2023-02-14T10:26:52.797Z</time>
      </trkpt>
      <trkpt lat="45.58547" lon="5.52663">
        <ele>378</ele>
        <time>2023-02-14T10:26:53.797Z</time>
      </trkpt>
      <trkpt lat="45.58546" lon="5.5267">
        <ele>378</ele>
        <time>2023-02-14T10:26:54.797Z</time>
      </trkpt>
      <trkpt lat="45.58546" lon="5.52677">
        <ele>378</ele>
        <time>2023-02-14T10:26:55.797Z</time>
      </trkpt>
      <trkpt lat="45.58545" lon="5.52684">
        <ele>378</ele>
        <time>2023-02-14T10:26:56.797Z</time>
      </trkpt>
      <trkpt lat="45.58545" lon="5.52691">
        <ele>378</ele>
        <time>2023-02-14T10:26:57.797Z</time>
      </trkpt>
      <trkpt lat="45.58545" lon="5.52698">
        <ele>378</ele>
        <time>2023-02-14T10:26:58.797Z</time>
      </trkpt>
      <trkpt lat="45.58544" lon="5.52706">
        <ele>378</ele>
        <time>2023-02-14T10:26:59.797Z</time>
      </trkpt>
      <trkpt lat="45.58544" lon="5.52713">
        <ele>378</ele>
        <time>2023-02-14T10:27:00.797Z</time>
      </trkpt>
      <trkpt lat="45.58543" lon="5.52719">
        <ele>378</ele>
        <time>2023-02-14T10:27:01.797Z</time>
      </trkpt>
      <trkpt lat="45.58543" lon="5.52726">
        <ele>378</ele>
        <time>2023-02-14T10:27:02.797Z</time>
      </trkpt>
      <trkpt lat="45.58542" lon="5.52733">
        <ele>378</ele>
        <time>2023-02-14T10:27:03.797Z</time>
      </trkpt>
      <trkpt lat="45.58541" lon="5.5274">
        <ele>378</ele>
        <time>2023-02-14T10:27:04.797Z</time>
      </trkpt>
      <trkpt lat="45.58541" lon="5.52747">
        <ele>378</ele>
        <time>2023-02-14T10:27:05.797Z</time>
      </trkpt>
      <trkpt lat="45.5854" lon="5.52755">
        <ele>377</ele>
        <time>2023-02-14T10:27:06.797Z</time>
      </trkpt>
      <trkpt lat="45.58539" lon="5.52761">
        <ele>377</ele>
        <time>2023-02-14T10:27:07.797Z</time>
      </trkpt>
      <trkpt lat="45.58538" lon="5.52768">
        <ele>377</ele>
        <time>2023-02-14T10:27:08.797Z</time>
      </trkpt>
      <trkpt lat="45.58538" lon="5.52774">
        <ele>378</ele>
        <time>2023-02-14T10:27:09.797Z</time>
      </trkpt>
      <trkpt lat="45.58537" lon="5.52781">
        <ele>377</ele>
        <time>2023-02-14T10:27:10.797Z</time>
      </trkpt>
      <trkpt lat="45.58535" lon="5.52788">
        <ele>377</ele>
        <time>2023-02-14T10:27:11.797Z</time>
      </trkpt>
      <trkpt lat="45.58534" lon="5.52795">
        <ele>377</ele>
        <time>2023-02-14T10:27:12.797Z</time>
      </trkpt>
      <trkpt lat="45.58533" lon="5.52802">
        <ele>377</ele>
        <time>2023-02-14T10:27:13.797Z</time>
      </trkpt>
      <trkpt lat="45.58532" lon="5.52808">
        <ele>377</ele>
        <time>2023-02-14T10:27:14.797Z</time>
      </trkpt>
      <trkpt lat="45.58531" lon="5.52815">
        <ele>377</ele>
        <time>2023-02-14T10:27:15.797Z</time>
      </trkpt>
      <trkpt lat="45.58529" lon="5.52822">
        <ele>377</ele>
        <time>2023-02-14T10:27:16.797Z</time>
      </trkpt>
      <trkpt lat="45.58528" lon="5.52829">
        <ele>377</ele>
        <time>2023-02-14T10:27:17.797Z</time>
      </trkpt>
      <trkpt lat="45.58526" lon="5.52837">
        <ele>377</ele>
        <time>2023-02-14T10:27:18.797Z</time>
      </trkpt>
      <trkpt lat="45.58525" lon="5.52844">
        <ele>377</ele>
        <time>2023-02-14T10:27:19.797Z</time>
      </trkpt>
      <trkpt lat="45.58523" lon="5.52851">
        <ele>377</ele>
        <time>2023-02-14T10:27:20.797Z</time>
      </trkpt>
      <trkpt lat="45.58522" lon="5.52858">
        <ele>377</ele>
        <time>2023-02-14T10:27:21.797Z</time>
      </trkpt>
      <trkpt lat="45.5852" lon="5.52866">
        <ele>377</ele>
        <time>2023-02-14T10:27:22.797Z</time>
      </trkpt>
      <trkpt lat="45.58519" lon="5.52873">
        <ele>376</ele>
        <time>2023-02-14T10:27:23.797Z</time>
      </trkpt>
      <trkpt lat="45.58518" lon="5.5288">
        <ele>376</ele>
        <time>2023-02-14T10:27:24.797Z</time>
      </trkpt>
      <trkpt lat="45.58517" lon="5.52888">
        <ele>376</ele>
        <time>2023-02-14T10:27:25.797Z</time>
      </trkpt>
      <trkpt lat="45.58516" lon="5.52895">
        <ele>376</ele>
        <time>2023-02-14T10:27:26.797Z</time>
      </trkpt>
      <trkpt lat="45.58515" lon="5.52903">
        <ele>376</ele>
        <time>2023-02-14T10:27:27.797Z</time>
      </trkpt>
      <trkpt lat="45.58514" lon="5.52911">
        <ele>376</ele>
        <time>2023-02-14T10:27:28.797Z</time>
      </trkpt>
      <trkpt lat="45.58514" lon="5.52919">
        <ele>376</ele>
        <time>2023-02-14T10:27:29.797Z</time>
      </trkpt>
      <trkpt lat="45.58514" lon="5.52927">
        <ele>375</ele>
        <time>2023-02-14T10:27:30.797Z</time>
      </trkpt>
      <trkpt lat="45.58513" lon="5.52935">
        <ele>375</ele>
        <time>2023-02-14T10:27:31.797Z</time>
      </trkpt>
      <trkpt lat="45.58513" lon="5.52943">
        <ele>375</ele>
        <time>2023-02-14T10:27:32.797Z</time>
      </trkpt>
      <trkpt lat="45.58513" lon="5.52951">
        <ele>375</ele>
        <time>2023-02-14T10:27:33.797Z</time>
      </trkpt>
      <trkpt lat="45.58513" lon="5.52958">
        <ele>375</ele>
        <time>2023-02-14T10:27:34.797Z</time>
      </trkpt>
      <trkpt lat="45.58513" lon="5.52965">
        <ele>375</ele>
        <time>2023-02-14T10:27:35.797Z</time>
      </trkpt>
      <trkpt lat="45.58514" lon="5.52973">
        <ele>375</ele>
        <time>2023-02-14T10:27:36.797Z</time>
      </trkpt>
      <trkpt lat="45.58514" lon="5.5298">
        <ele>375</ele>
        <time>2023-02-14T10:27:37.797Z</time>
      </trkpt>
      <trkpt lat="45.58514" lon="5.52987">
        <ele>375</ele>
        <time>2023-02-14T10:27:38.797Z</time>
      </trkpt>
      <trkpt lat="45.58515" lon="5.52994">
        <ele>374</ele>
        <time>2023-02-14T10:27:39.797Z</time>
      </trkpt>
      <trkpt lat="45.58516" lon="5.53001">
        <ele>374</ele>
        <time>2023-02-14T10:27:40.797Z</time>
      </trkpt>
      <trkpt lat="45.58517" lon="5.53008">
        <ele>374</ele>
        <time>2023-02-14T10:27:41.797Z</time>
      </trkpt>
      <trkpt lat="45.58518" lon="5.53016">
        <ele>374</ele>
        <time>2023-02-14T10:27:42.797Z</time>
      </trkpt>
      <trkpt lat="45.5852" lon="5.53023">
        <ele>373</ele>
        <time>2023-02-14T10:27:43.797Z</time>
      </trkpt>
      <trkpt lat="45.58522" lon="5.53031">
        <ele>373</ele>
        <time>2023-02-14T10:27:44.797Z</time>
      </trkpt>
      <trkpt lat="45.58523" lon="5.53039">
        <ele>373</ele>
        <time>2023-02-14T10:27:45.797Z</time>
      </trkpt>
      <trkpt lat="45.58525" lon="5.53047">
        <ele>373</ele>
        <time>2023-02-14T10:27:46.797Z</time>
      </trkpt>
      <trkpt lat="45.58526" lon="5.53055">
        <ele>372</ele>
        <time>2023-02-14T10:27:47.797Z</time>
      </trkpt>
      <trkpt lat="45.58528" lon="5.53063">
        <ele>372</ele>
        <time>2023-02-14T10:27:48.797Z</time>
      </trkpt>
      <trkpt lat="45.58529" lon="5.53071">
        <ele>372</ele>
        <time>2023-02-14T10:27:49.797Z</time>
      </trkpt>
      <trkpt lat="45.58531" lon="5.53079">
        <ele>372</ele>
        <time>2023-02-14T10:27:50.797Z</time>
      </trkpt>
      <trkpt lat="45.58532" lon="5.53086">
        <ele>372</ele>
        <time>2023-02-14T10:27:51.797Z</time>
      </trkpt>
      <trkpt lat="45.58534" lon="5.53094">
        <ele>372</ele>
        <time>2023-02-14T10:27:52.797Z</time>
      </trkpt>
      <trkpt lat="45.58535" lon="5.53101">
        <ele>372</ele>
        <time>2023-02-14T10:27:53.797Z</time>
      </trkpt>
      <trkpt lat="45.58536" lon="5.53109">
        <ele>371</ele>
        <time>2023-02-14T10:27:54.797Z</time>
      </trkpt>
      <trkpt lat="45.58537" lon="5.53117">
        <ele>371</ele>
        <time>2023-02-14T10:27:55.797Z</time>
      </trkpt>
      <trkpt lat="45.58538" lon="5.53124">
        <ele>371</ele>
        <time>2023-02-14T10:27:56.797Z</time>
      </trkpt>
      <trkpt lat="45.5854" lon="5.53132">
        <ele>371</ele>
        <time>2023-02-14T10:27:57.797Z</time>
      </trkpt>
      <trkpt lat="45.58541" lon="5.53139">
        <ele>371</ele>
        <time>2023-02-14T10:27:58.797Z</time>
      </trkpt>
      <trkpt lat="45.58542" lon="5.53147">
        <ele>371</ele>
        <time>2023-02-14T10:27:59.797Z</time>
      </trkpt>
      <trkpt lat="45.58543" lon="5.53153">
        <ele>372</ele>
        <time>2023-02-14T10:28:00.797Z</time>
      </trkpt>
      <trkpt lat="45.58544" lon="5.5316">
        <ele>372</ele>
        <time>2023-02-14T10:28:01.797Z</time>
      </trkpt>
      <trkpt lat="45.58545" lon="5.53167">
        <ele>371</ele>
        <time>2023-02-14T10:28:02.797Z</time>
      </trkpt>
      <trkpt lat="45.58545" lon="5.53173">
        <ele>371</ele>
        <time>2023-02-14T10:28:03.797Z</time>
      </trkpt>
      <trkpt lat="45.58546" lon="5.53179">
        <ele>371</ele>
        <time>2023-02-14T10:28:04.797Z</time>
      </trkpt>
      <trkpt lat="45.58547" lon="5.53185">
        <ele>371</ele>
        <time>2023-02-14T10:28:05.797Z</time>
      </trkpt>
      <trkpt lat="45.58548" lon="5.53192">
        <ele>370</ele>
        <time>2023-02-14T10:28:06.797Z</time>
      </trkpt>
      <trkpt lat="45.58549" lon="5.53199">
        <ele>370</ele>
        <time>2023-02-14T10:28:07.797Z</time>
      </trkpt>
      <trkpt lat="45.5855" lon="5.53207">
        <ele>369</ele>
        <time>2023-02-14T10:28:08.797Z</time>
      </trkpt>
      <trkpt lat="45.5855" lon="5.53215">
        <ele>369</ele>
        <time>2023-02-14T10:28:09.797Z</time>
      </trkpt>
      <trkpt lat="45.58551" lon="5.53224">
        <ele>368</ele>
        <time>2023-02-14T10:28:10.797Z</time>
      </trkpt>
      <trkpt lat="45.58551" lon="5.53234">
        <ele>367</ele>
        <time>2023-02-14T10:28:11.797Z</time>
      </trkpt>
      <trkpt lat="45.58552" lon="5.53244">
        <ele>366</ele>
        <time>2023-02-14T10:28:12.797Z</time>
      </trkpt>
      <trkpt lat="45.58552" lon="5.53255">
        <ele>365</ele>
        <time>2023-02-14T10:28:13.797Z</time>
      </trkpt>
      <trkpt lat="45.58552" lon="5.53267">
        <ele>364</ele>
        <time>2023-02-14T10:28:14.797Z</time>
      </trkpt>
      <trkpt lat="45.58552" lon="5.5328">
        <ele>364</ele>
        <time>2023-02-14T10:28:15.797Z</time>
      </trkpt>
      <trkpt lat="45.58552" lon="5.53293">
        <ele>363</ele>
        <time>2023-02-14T10:28:16.797Z</time>
      </trkpt>
      <trkpt lat="45.58552" lon="5.53307">
        <ele>363</ele>
        <time>2023-02-14T10:28:17.797Z</time>
      </trkpt>
      <trkpt lat="45.58552" lon="5.53319">
        <ele>362</ele>
        <time>2023-02-14T10:28:18.797Z</time>
      </trkpt>
      <trkpt lat="45.58553" lon="5.53331">
        <ele>362</ele>
        <time>2023-02-14T10:28:19.797Z</time>
      </trkpt>
      <trkpt lat="45.58554" lon="5.53342">
        <ele>363</ele>
        <time>2023-02-14T10:28:20.797Z</time>
      </trkpt>
      <trkpt lat="45.58557" lon="5.53353">
        <ele>363</ele>
        <time>2023-02-14T10:28:21.797Z</time>
      </trkpt>
      <trkpt lat="45.58559" lon="5.53362">
        <ele>363</ele>
        <time>2023-02-14T10:28:22.797Z</time>
      </trkpt>
      <trkpt lat="45.58562" lon="5.5337">
        <ele>363</ele>
        <time>2023-02-14T10:28:23.797Z</time>
      </trkpt>
      <trkpt lat="45.58565" lon="5.53378">
        <ele>362</ele>
        <time>2023-02-14T10:28:24.797Z</time>
      </trkpt>
      <trkpt lat="45.58568" lon="5.53385">
        <ele>362</ele>
        <time>2023-02-14T10:28:25.797Z</time>
      </trkpt>
      <trkpt lat="45.58572" lon="5.53391">
        <ele>362</ele>
        <time>2023-02-14T10:28:26.797Z</time>
      </trkpt>
      <trkpt lat="45.58575" lon="5.53398">
        <ele>361</ele>
        <time>2023-02-14T10:28:27.797Z</time>
      </trkpt>
      <trkpt lat="45.58579" lon="5.53406">
        <ele>360</ele>
        <time>2023-02-14T10:28:28.797Z</time>
      </trkpt>
      <trkpt lat="45.58582" lon="5.53413">
        <ele>360</ele>
        <time>2023-02-14T10:28:29.797Z</time>
      </trkpt>
      <trkpt lat="45.58585" lon="5.5342">
        <ele>359</ele>
        <time>2023-02-14T10:28:30.797Z</time>
      </trkpt>
      <trkpt lat="45.58589" lon="5.53428">
        <ele>358</ele>
        <time>2023-02-14T10:28:31.797Z</time>
      </trkpt>
      <trkpt lat="45.58592" lon="5.53436">
        <ele>357</ele>
        <time>2023-02-14T10:28:32.797Z</time>
      </trkpt>
      <trkpt lat="45.58596" lon="5.53446">
        <ele>356</ele>
        <time>2023-02-14T10:28:33.797Z</time>
      </trkpt>
      <trkpt lat="45.58598" lon="5.53456">
        <ele>356</ele>
        <time>2023-02-14T10:28:34.797Z</time>
      </trkpt>
      <trkpt lat="45.58601" lon="5.53466">
        <ele>355</ele>
        <time>2023-02-14T10:28:35.797Z</time>
      </trkpt>
      <trkpt lat="45.58604" lon="5.53476">
        <ele>354</ele>
        <time>2023-02-14T10:28:36.797Z</time>
      </trkpt>
      <trkpt lat="45.58607" lon="5.53486">
        <ele>353</ele>
        <time>2023-02-14T10:28:37.797Z</time>
      </trkpt>
      <trkpt lat="45.58611" lon="5.53497">
        <ele>352</ele>
        <time>2023-02-14T10:28:38.797Z</time>
      </trkpt>
      <trkpt lat="45.58614" lon="5.53507">
        <ele>351</ele>
        <time>2023-02-14T10:28:39.797Z</time>
      </trkpt>
      <trkpt lat="45.58618" lon="5.53518">
        <ele>350</ele>
        <time>2023-02-14T10:28:40.797Z</time>
      </trkpt>
      <trkpt lat="45.58622" lon="5.53528">
        <ele>349</ele>
        <time>2023-02-14T10:28:41.797Z</time>
      </trkpt>
      <trkpt lat="45.58626" lon="5.53539">
        <ele>349</ele>
        <time>2023-02-14T10:28:42.797Z</time>
      </trkpt>
      <trkpt lat="45.5863" lon="5.5355">
        <ele>348</ele>
        <time>2023-02-14T10:28:43.797Z</time>
      </trkpt>
      <trkpt lat="45.58634" lon="5.53562">
        <ele>347</ele>
        <time>2023-02-14T10:28:44.797Z</time>
      </trkpt>
      <trkpt lat="45.58638" lon="5.53573">
        <ele>346</ele>
        <time>2023-02-14T10:28:45.797Z</time>
      </trkpt>
      <trkpt lat="45.58642" lon="5.53584">
        <ele>346</ele>
        <time>2023-02-14T10:28:46.797Z</time>
      </trkpt>
      <trkpt lat="45.58647" lon="5.53595">
        <ele>345</ele>
        <time>2023-02-14T10:28:47.797Z</time>
      </trkpt>
      <trkpt lat="45.58652" lon="5.53605">
        <ele>345</ele>
        <time>2023-02-14T10:28:48.797Z</time>
      </trkpt>
      <trkpt lat="45.58657" lon="5.53615">
        <ele>344</ele>
        <time>2023-02-14T10:28:49.797Z</time>
      </trkpt>
      <trkpt lat="45.58662" lon="5.53625">
        <ele>343</ele>
        <time>2023-02-14T10:28:50.797Z</time>
      </trkpt>
      <trkpt lat="45.58667" lon="5.53635">
        <ele>343</ele>
        <time>2023-02-14T10:28:51.797Z</time>
      </trkpt>
      <trkpt lat="45.58673" lon="5.53645">
        <ele>342</ele>
        <time>2023-02-14T10:28:52.797Z</time>
      </trkpt>
      <trkpt lat="45.58678" lon="5.53654">
        <ele>342</ele>
        <time>2023-02-14T10:28:53.797Z</time>
      </trkpt>
      <trkpt lat="45.58683" lon="5.53662">
        <ele>341</ele>
        <time>2023-02-14T10:28:54.797Z</time>
      </trkpt>
      <trkpt lat="45.58688" lon="5.53671">
        <ele>340</ele>
        <time>2023-02-14T10:28:55.797Z</time>
      </trkpt>
      <trkpt lat="45.58694" lon="5.53681">
        <ele>339</ele>
        <time>2023-02-14T10:28:56.797Z</time>
      </trkpt>
      <trkpt lat="45.58699" lon="5.53691">
        <ele>338</ele>
        <time>2023-02-14T10:28:57.797Z</time>
      </trkpt>
      <trkpt lat="45.58705" lon="5.53701">
        <ele>337</ele>
        <time>2023-02-14T10:28:58.797Z</time>
      </trkpt>
      <trkpt lat="45.5871" lon="5.53711">
        <ele>337</ele>
        <time>2023-02-14T10:28:59.797Z</time>
      </trkpt>
      <trkpt lat="45.58716" lon="5.53721">
        <ele>336</ele>
        <time>2023-02-14T10:29:00.797Z</time>
      </trkpt>
      <trkpt lat="45.58722" lon="5.53731">
        <ele>335</ele>
        <time>2023-02-14T10:29:01.797Z</time>
      </trkpt>
      <trkpt lat="45.58728" lon="5.53742">
        <ele>334</ele>
        <time>2023-02-14T10:29:02.797Z</time>
      </trkpt>
      <trkpt lat="45.58734" lon="5.53752">
        <ele>334</ele>
        <time>2023-02-14T10:29:03.797Z</time>
      </trkpt>
      <trkpt lat="45.5874" lon="5.53763">
        <ele>333</ele>
        <time>2023-02-14T10:29:04.797Z</time>
      </trkpt>
      <trkpt lat="45.58745" lon="5.53772">
        <ele>332</ele>
        <time>2023-02-14T10:29:05.797Z</time>
      </trkpt>
      <trkpt lat="45.5875" lon="5.53782">
        <ele>332</ele>
        <time>2023-02-14T10:29:06.797Z</time>
      </trkpt>
      <trkpt lat="45.58755" lon="5.53791">
        <ele>331</ele>
        <time>2023-02-14T10:29:07.797Z</time>
      </trkpt>
      <trkpt lat="45.58759" lon="5.53802">
        <ele>331</ele>
        <time>2023-02-14T10:29:08.797Z</time>
      </trkpt>
      <trkpt lat="45.58762" lon="5.53812">
        <ele>330</ele>
        <time>2023-02-14T10:29:09.797Z</time>
      </trkpt>
      <trkpt lat="45.58765" lon="5.53824">
        <ele>330</ele>
        <time>2023-02-14T10:29:10.797Z</time>
      </trkpt>
      <trkpt lat="45.58768" lon="5.53835">
        <ele>330</ele>
        <time>2023-02-14T10:29:11.797Z</time>
      </trkpt>
      <trkpt lat="45.5877" lon="5.53846">
        <ele>329</ele>
        <time>2023-02-14T10:29:12.797Z</time>
      </trkpt>
      <trkpt lat="45.58772" lon="5.53858">
        <ele>329</ele>
        <time>2023-02-14T10:29:13.797Z</time>
      </trkpt>
      <trkpt lat="45.58774" lon="5.53869">
        <ele>328</ele>
        <time>2023-02-14T10:29:14.797Z</time>
      </trkpt>
      <trkpt lat="45.58775" lon="5.5388">
        <ele>327</ele>
        <time>2023-02-14T10:29:15.797Z</time>
      </trkpt>
      <trkpt lat="45.58777" lon="5.53891">
        <ele>327</ele>
        <time>2023-02-14T10:29:16.797Z</time>
      </trkpt>
      <trkpt lat="45.58779" lon="5.53902">
        <ele>326</ele>
        <time>2023-02-14T10:29:17.797Z</time>
      </trkpt>
      <trkpt lat="45.58781" lon="5.53913">
        <ele>325</ele>
        <time>2023-02-14T10:29:18.797Z</time>
      </trkpt>
      <trkpt lat="45.58783" lon="5.53925">
        <ele>324</ele>
        <time>2023-02-14T10:29:19.797Z</time>
      </trkpt>
      <trkpt lat="45.58786" lon="5.53936">
        <ele>323</ele>
        <time>2023-02-14T10:29:20.797Z</time>
      </trkpt>
      <trkpt lat="45.58789" lon="5.53947">
        <ele>323</ele>
        <time>2023-02-14T10:29:21.797Z</time>
      </trkpt>
      <trkpt lat="45.58791" lon="5.53958">
        <ele>322</ele>
        <time>2023-02-14T10:29:22.797Z</time>
      </trkpt>
      <trkpt lat="45.58794" lon="5.53969">
        <ele>321</ele>
        <time>2023-02-14T10:29:23.797Z</time>
      </trkpt>
      <trkpt lat="45.58797" lon="5.5398">
        <ele>320</ele>
        <time>2023-02-14T10:29:24.797Z</time>
      </trkpt>
      <trkpt lat="45.588" lon="5.5399">
        <ele>319</ele>
        <time>2023-02-14T10:29:25.797Z</time>
      </trkpt>
      <trkpt lat="45.58802" lon="5.53999">
        <ele>319</ele>
        <time>2023-02-14T10:29:26.797Z</time>
      </trkpt>
      <trkpt lat="45.58804" lon="5.54008">
        <ele>318</ele>
        <time>2023-02-14T10:29:27.797Z</time>
      </trkpt>
      <trkpt lat="45.58806" lon="5.54014">
        <ele>318</ele>
        <time>2023-02-14T10:29:28.797Z</time>
      </trkpt>
      <trkpt lat="45.58808" lon="5.5402">
        <ele>317</ele>
        <time>2023-02-14T10:29:29.797Z</time>
      </trkpt>
      <trkpt lat="45.58809" lon="5.54025">
        <ele>317</ele>
        <time>2023-02-14T10:29:30.797Z</time>
      </trkpt>
      <trkpt lat="45.58809" lon="5.54029">
        <ele>317</ele>
        <time>2023-02-14T10:29:31.797Z</time>
      </trkpt>
      <trkpt lat="45.58809" lon="5.54032">
        <ele>317</ele>
        <time>2023-02-14T10:29:32.797Z</time>
      </trkpt>
      <trkpt lat="45.58809" lon="5.54033">
        <ele>317</ele>
        <time>2023-02-14T10:29:33.797Z</time>
      </trkpt>
      <trkpt lat="45.5881" lon="5.54033">
        <ele>317</ele>
        <time>2023-02-14T10:29:34.797Z</time>
      </trkpt>
      <trkpt lat="45.5881" lon="5.54033">
        <ele>317</ele>
        <time>2023-02-14T10:29:35.797Z</time>
      </trkpt>
      <trkpt lat="45.5881" lon="5.54034">
        <ele>317</ele>
        <time>2023-02-14T10:29:36.797Z</time>
      </trkpt>
      <trkpt lat="45.5881" lon="5.54036">
        <ele>317</ele>
        <time>2023-02-14T10:29:37.797Z</time>
      </trkpt>
      <trkpt lat="45.5881" lon="5.54039">
        <ele>317</ele>
        <time>2023-02-14T10:29:38.797Z</time>
      </trkpt>
      <trkpt lat="45.5881" lon="5.54041">
        <ele>317</ele>
        <time>2023-02-14T10:29:39.797Z</time>
      </trkpt>
      <trkpt lat="45.58811" lon="5.54044">
        <ele>316</ele>
        <time>2023-02-14T10:29:40.797Z</time>
      </trkpt>
      <trkpt lat="45.58813" lon="5.54046">
        <ele>316</ele>
        <time>2023-02-14T10:29:41.797Z</time>
      </trkpt>
      <trkpt lat="45.58816" lon="5.54047">
        <ele>316</ele>
        <time>2023-02-14T10:29:42.797Z</time>
      </trkpt>
      <trkpt lat="45.58819" lon="5.54045">
        <ele>317</ele>
        <time>2023-02-14T10:29:43.797Z</time>
      </trkpt>
      <trkpt lat="45.58823" lon="5.54043">
        <ele>317</ele>
        <time>2023-02-14T10:29:44.797Z</time>
      </trkpt>
      <trkpt lat="45.58827" lon="5.54041">
        <ele>317</ele>
        <time>2023-02-14T10:29:45.797Z</time>
      </trkpt>
      <trkpt lat="45.5883" lon="5.54038">
        <ele>317</ele>
        <time>2023-02-14T10:29:46.797Z</time>
      </trkpt>
      <trkpt lat="45.58833" lon="5.54037">
        <ele>317</ele>
        <time>2023-02-14T10:29:47.797Z</time>
      </trkpt>
      <trkpt lat="45.58837" lon="5.54035">
        <ele>317</ele>
        <time>2023-02-14T10:29:48.797Z</time>
      </trkpt>
      <trkpt lat="45.5884" lon="5.54033">
        <ele>317</ele>
        <time>2023-02-14T10:29:49.797Z</time>
      </trkpt>
      <trkpt lat="45.58843" lon="5.54032">
        <ele>317</ele>
        <time>2023-02-14T10:29:50.797Z</time>
      </trkpt>
      <trkpt lat="45.58847" lon="5.5403">
        <ele>317</ele>
        <time>2023-02-14T10:29:51.797Z</time>
      </trkpt>
      <trkpt lat="45.5885" lon="5.54029">
        <ele>317</ele>
        <time>2023-02-14T10:29:52.797Z</time>
      </trkpt>
      <trkpt lat="45.58854" lon="5.54027">
        <ele>317</ele>
        <time>2023-02-14T10:29:53.797Z</time>
      </trkpt>
      <trkpt lat="45.58858" lon="5.54026">
        <ele>317</ele>
        <time>2023-02-14T10:29:54.797Z</time>
      </trkpt>
      <trkpt lat="45.58862" lon="5.54027">
        <ele>317</ele>
        <time>2023-02-14T10:29:55.797Z</time>
      </trkpt>
      <trkpt lat="45.58866" lon="5.54028">
        <ele>317</ele>
        <time>2023-02-14T10:29:56.797Z</time>
      </trkpt>
      <trkpt lat="45.5887" lon="5.54031">
        <ele>317</ele>
        <time>2023-02-14T10:29:57.797Z</time>
      </trkpt>
      <trkpt lat="45.58873" lon="5.54035">
        <ele>317</ele>
        <time>2023-02-14T10:29:58.797Z</time>
      </trkpt>
      <trkpt lat="45.58875" lon="5.54041">
        <ele>317</ele>
        <time>2023-02-14T10:29:59.797Z</time>
      </trkpt>
      <trkpt lat="45.58876" lon="5.54047">
        <ele>316</ele>
        <time>2023-02-14T10:30:00.797Z</time>
      </trkpt>
      <trkpt lat="45.58877" lon="5.54054">
        <ele>316</ele>
        <time>2023-02-14T10:30:01.797Z</time>
      </trkpt>
      <trkpt lat="45.58878" lon="5.54062">
        <ele>316</ele>
        <time>2023-02-14T10:30:02.797Z</time>
      </trkpt>
      <trkpt lat="45.58878" lon="5.54069">
        <ele>316</ele>
        <time>2023-02-14T10:30:03.797Z</time>
      </trkpt>
      <trkpt lat="45.58878" lon="5.54076">
        <ele>316</ele>
        <time>2023-02-14T10:30:04.797Z</time>
      </trkpt>
      <trkpt lat="45.58877" lon="5.54083">
        <ele>316</ele>
        <time>2023-02-14T10:30:05.797Z</time>
      </trkpt>
      <trkpt lat="45.58877" lon="5.54091">
        <ele>316</ele>
        <time>2023-02-14T10:30:06.797Z</time>
      </trkpt>
      <trkpt lat="45.58877" lon="5.54098">
        <ele>316</ele>
        <time>2023-02-14T10:30:07.797Z</time>
      </trkpt>
      <trkpt lat="45.58877" lon="5.54106">
        <ele>316</ele>
        <time>2023-02-14T10:30:08.797Z</time>
      </trkpt>
      <trkpt lat="45.58877" lon="5.54113">
        <ele>316</ele>
        <time>2023-02-14T10:30:09.797Z</time>
      </trkpt>
      <trkpt lat="45.58877" lon="5.5412">
        <ele>316</ele>
        <time>2023-02-14T10:30:10.797Z</time>
      </trkpt>
      <trkpt lat="45.58877" lon="5.54127">
        <ele>316</ele>
        <time>2023-02-14T10:30:11.797Z</time>
      </trkpt>
      <trkpt lat="45.58877" lon="5.54134">
        <ele>316</ele>
        <time>2023-02-14T10:30:12.797Z</time>
      </trkpt>
      <trkpt lat="45.58876" lon="5.54141">
        <ele>316</ele>
        <time>2023-02-14T10:30:13.797Z</time>
      </trkpt>
      <trkpt lat="45.58876" lon="5.54148">
        <ele>316</ele>
        <time>2023-02-14T10:30:14.797Z</time>
      </trkpt>
      <trkpt lat="45.58876" lon="5.54155">
        <ele>316</ele>
        <time>2023-02-14T10:30:15.797Z</time>
      </trkpt>
      <trkpt lat="45.58876" lon="5.54162">
        <ele>316</ele>
        <time>2023-02-14T10:30:16.797Z</time>
      </trkpt>
      <trkpt lat="45.58876" lon="5.54169">
        <ele>316</ele>
        <time>2023-02-14T10:30:17.797Z</time>
      </trkpt>
      <trkpt lat="45.58875" lon="5.54175">
        <ele>316</ele>
        <time>2023-02-14T10:30:18.797Z</time>
      </trkpt>
      <trkpt lat="45.58875" lon="5.54182">
        <ele>316</ele>
        <time>2023-02-14T10:30:19.797Z</time>
      </trkpt>
      <trkpt lat="45.58875" lon="5.54189">
        <ele>316</ele>
        <time>2023-02-14T10:30:20.797Z</time>
      </trkpt>
      <trkpt lat="45.58875" lon="5.54195">
        <ele>316</ele>
        <time>2023-02-14T10:30:21.797Z</time>
      </trkpt>
      <trkpt lat="45.58875" lon="5.54202">
        <ele>315</ele>
        <time>2023-02-14T10:30:22.797Z</time>
      </trkpt>
      <trkpt lat="45.58875" lon="5.54208">
        <ele>316</ele>
        <time>2023-02-14T10:30:23.797Z</time>
      </trkpt>
      <trkpt lat="45.58876" lon="5.54215">
        <ele>316</ele>
        <time>2023-02-14T10:30:24.797Z</time>
      </trkpt>
      <trkpt lat="45.58876" lon="5.54221">
        <ele>316</ele>
        <time>2023-02-14T10:30:25.797Z</time>
      </trkpt>
      <trkpt lat="45.58877" lon="5.54228">
        <ele>316</ele>
        <time>2023-02-14T10:30:26.797Z</time>
      </trkpt>
      <trkpt lat="45.58877" lon="5.54234">
        <ele>316</ele>
        <time>2023-02-14T10:30:27.797Z</time>
      </trkpt>
      <trkpt lat="45.58878" lon="5.54239">
        <ele>316</ele>
        <time>2023-02-14T10:30:28.797Z</time>
      </trkpt>
      <trkpt lat="45.58878" lon="5.54245">
        <ele>316</ele>
        <time>2023-02-14T10:30:29.797Z</time>
      </trkpt>
      <trkpt lat="45.58879" lon="5.54251">
        <ele>316</ele>
        <time>2023-02-14T10:30:30.797Z</time>
      </trkpt>
      <trkpt lat="45.5888" lon="5.54257">
        <ele>316</ele>
        <time>2023-02-14T10:30:31.797Z</time>
      </trkpt>
      <trkpt lat="45.58881" lon="5.54262">
        <ele>316</ele>
        <time>2023-02-14T10:30:32.797Z</time>
      </trkpt>
      <trkpt lat="45.58882" lon="5.54268">
        <ele>316</ele>
        <time>2023-02-14T10:30:33.797Z</time>
      </trkpt>
      <trkpt lat="45.58882" lon="5.54274">
        <ele>316</ele>
        <time>2023-02-14T10:30:34.797Z</time>
      </trkpt>
      <trkpt lat="45.58883" lon="5.54279">
        <ele>316</ele>
        <time>2023-02-14T10:30:35.797Z</time>
      </trkpt>
      <trkpt lat="45.58884" lon="5.54285">
        <ele>316</ele>
        <time>2023-02-14T10:30:36.797Z</time>
      </trkpt>
      <trkpt lat="45.58885" lon="5.5429">
        <ele>316</ele>
        <time>2023-02-14T10:30:37.797Z</time>
      </trkpt>
      <trkpt lat="45.58886" lon="5.54295">
        <ele>316</ele>
        <time>2023-02-14T10:30:38.797Z</time>
      </trkpt>
      <trkpt lat="45.58886" lon="5.543">
        <ele>317</ele>
        <time>2023-02-14T10:30:39.797Z</time>
      </trkpt>
      <trkpt lat="45.58887" lon="5.54306">
        <ele>317</ele>
        <time>2023-02-14T10:30:40.797Z</time>
      </trkpt>
      <trkpt lat="45.58887" lon="5.54311">
        <ele>316</ele>
        <time>2023-02-14T10:30:41.797Z</time>
      </trkpt>
      <trkpt lat="45.58888" lon="5.54316">
        <ele>316</ele>
        <time>2023-02-14T10:30:42.797Z</time>
      </trkpt>
      <trkpt lat="45.58889" lon="5.5432">
        <ele>317</ele>
        <time>2023-02-14T10:30:43.797Z</time>
      </trkpt>
      <trkpt lat="45.58889" lon="5.54325">
        <ele>317</ele>
        <time>2023-02-14T10:30:44.797Z</time>
      </trkpt>
      <trkpt lat="45.5889" lon="5.5433">
        <ele>317</ele>
        <time>2023-02-14T10:30:45.797Z</time>
      </trkpt>
      <trkpt lat="45.58891" lon="5.54335">
        <ele>317</ele>
        <time>2023-02-14T10:30:46.797Z</time>
      </trkpt>
      <trkpt lat="45.58891" lon="5.5434">
        <ele>317</ele>
        <time>2023-02-14T10:30:47.797Z</time>
      </trkpt>
      <trkpt lat="45.58892" lon="5.54345">
        <ele>317</ele>
        <time>2023-02-14T10:30:48.797Z</time>
      </trkpt>
      <trkpt lat="45.58892" lon="5.5435">
        <ele>317</ele>
        <time>2023-02-14T10:30:49.797Z</time>
      </trkpt>
      <trkpt lat="45.58893" lon="5.54354">
        <ele>317</ele>
        <time>2023-02-14T10:30:50.797Z</time>
      </trkpt>
      <trkpt lat="45.58893" lon="5.54359">
        <ele>317</ele>
        <time>2023-02-14T10:30:51.797Z</time>
      </trkpt>
      <trkpt lat="45.58894" lon="5.54363">
        <ele>317</ele>
        <time>2023-02-14T10:30:52.797Z</time>
      </trkpt>
      <trkpt lat="45.58894" lon="5.54368">
        <ele>317</ele>
        <time>2023-02-14T10:30:53.797Z</time>
      </trkpt>
      <trkpt lat="45.58895" lon="5.54372">
        <ele>317</ele>
        <time>2023-02-14T10:30:54.797Z</time>
      </trkpt>
      <trkpt lat="45.58895" lon="5.54377">
        <ele>317</ele>
        <time>2023-02-14T10:30:55.797Z</time>
      </trkpt>
      <trkpt lat="45.58896" lon="5.54381">
        <ele>317</ele>
        <time>2023-02-14T10:30:56.797Z</time>
      </trkpt>
      <trkpt lat="45.58896" lon="5.54385">
        <ele>317</ele>
        <time>2023-02-14T10:30:57.797Z</time>
      </trkpt>
      <trkpt lat="45.58897" lon="5.54389">
        <ele>317</ele>
        <time>2023-02-14T10:30:58.797Z</time>
      </trkpt>
      <trkpt lat="45.58897" lon="5.54394">
        <ele>317</ele>
        <time>2023-02-14T10:30:59.797Z</time>
      </trkpt>
      <trkpt lat="45.58897" lon="5.54398">
        <ele>317</ele>
        <time>2023-02-14T10:31:00.797Z</time>
      </trkpt>
      <trkpt lat="45.58897" lon="5.54402">
        <ele>317</ele>
        <time>2023-02-14T10:31:01.797Z</time>
      </trkpt>
      <trkpt lat="45.58898" lon="5.54407">
        <ele>317</ele>
        <time>2023-02-14T10:31:02.797Z</time>
      </trkpt>
      <trkpt lat="45.58898" lon="5.54411">
        <ele>317</ele>
        <time>2023-02-14T10:31:03.797Z</time>
      </trkpt>
      <trkpt lat="45.58899" lon="5.54415">
        <ele>318</ele>
        <time>2023-02-14T10:31:04.797Z</time>
      </trkpt>
      <trkpt lat="45.589" lon="5.54419">
        <ele>317</ele>
        <time>2023-02-14T10:31:05.797Z</time>
      </trkpt>
      <trkpt lat="45.589" lon="5.54423">
        <ele>318</ele>
        <time>2023-02-14T10:31:06.797Z</time>
      </trkpt>
      <trkpt lat="45.58901" lon="5.54427">
        <ele>318</ele>
        <time>2023-02-14T10:31:07.797Z</time>
      </trkpt>
      <trkpt lat="45.58901" lon="5.54432">
        <ele>318</ele>
        <time>2023-02-14T10:31:08.797Z</time>
      </trkpt>
      <trkpt lat="45.58902" lon="5.54436">
        <ele>318</ele>
        <time>2023-02-14T10:31:09.797Z</time>
      </trkpt>
      <trkpt lat="45.58903" lon="5.5444">
        <ele>318</ele>
        <time>2023-02-14T10:31:10.797Z</time>
      </trkpt>
      <trkpt lat="45.58904" lon="5.54444">
        <ele>318</ele>
        <time>2023-02-14T10:31:11.797Z</time>
      </trkpt>
      <trkpt lat="45.58904" lon="5.54448">
        <ele>319</ele>
        <time>2023-02-14T10:31:12.797Z</time>
      </trkpt>
      <trkpt lat="45.58905" lon="5.54452">
        <ele>319</ele>
        <time>2023-02-14T10:31:13.797Z</time>
      </trkpt>
      <trkpt lat="45.58906" lon="5.54456">
        <ele>319</ele>
        <time>2023-02-14T10:31:14.797Z</time>
      </trkpt>
      <trkpt lat="45.58906" lon="5.5446">
        <ele>319</ele>
        <time>2023-02-14T10:31:15.797Z</time>
      </trkpt>
      <trkpt lat="45.58907" lon="5.54464">
        <ele>319</ele>
        <time>2023-02-14T10:31:16.797Z</time>
      </trkpt>
      <trkpt lat="45.58908" lon="5.54468">
        <ele>319</ele>
        <time>2023-02-14T10:31:17.797Z</time>
      </trkpt>
      <trkpt lat="45.58908" lon="5.54472">
        <ele>319</ele>
        <time>2023-02-14T10:31:18.797Z</time>
      </trkpt>
      <trkpt lat="45.58909" lon="5.54476">
        <ele>319</ele>
        <time>2023-02-14T10:31:19.797Z</time>
      </trkpt>
      <trkpt lat="45.5891" lon="5.5448">
        <ele>319</ele>
        <time>2023-02-14T10:31:20.797Z</time>
      </trkpt>
      <trkpt lat="45.5891" lon="5.54484">
        <ele>319</ele>
        <time>2023-02-14T10:31:21.797Z</time>
      </trkpt>
      <trkpt lat="45.58911" lon="5.54487">
        <ele>319</ele>
        <time>2023-02-14T10:31:22.797Z</time>
      </trkpt>
      <trkpt lat="45.58912" lon="5.54491">
        <ele>319</ele>
        <time>2023-02-14T10:31:23.797Z</time>
      </trkpt>
      <trkpt lat="45.58912" lon="5.54495">
        <ele>320</ele>
        <time>2023-02-14T10:31:24.797Z</time>
      </trkpt>
      <trkpt lat="45.58913" lon="5.54499">
        <ele>320</ele>
        <time>2023-02-14T10:31:25.797Z</time>
      </trkpt>
      <trkpt lat="45.58913" lon="5.54503">
        <ele>320</ele>
        <time>2023-02-14T10:31:26.797Z</time>
      </trkpt>
      <trkpt lat="45.58914" lon="5.54507">
        <ele>320</ele>
        <time>2023-02-14T10:31:27.797Z</time>
      </trkpt>
      <trkpt lat="45.58914" lon="5.5451">
        <ele>320</ele>
        <time>2023-02-14T10:31:28.797Z</time>
      </trkpt>
      <trkpt lat="45.58915" lon="5.54514">
        <ele>320</ele>
        <time>2023-02-14T10:31:29.797Z</time>
      </trkpt>
      <trkpt lat="45.58916" lon="5.54518">
        <ele>320</ele>
        <time>2023-02-14T10:31:30.797Z</time>
      </trkpt>
      <trkpt lat="45.58916" lon="5.54522">
        <ele>320</ele>
        <time>2023-02-14T10:31:31.797Z</time>
      </trkpt>
      <trkpt lat="45.58917" lon="5.54525">
        <ele>320</ele>
        <time>2023-02-14T10:31:32.797Z</time>
      </trkpt>
      <trkpt lat="45.58917" lon="5.54529">
        <ele>320</ele>
        <time>2023-02-14T10:31:33.797Z</time>
      </trkpt>
      <trkpt lat="45.58917" lon="5.54532">
        <ele>320</ele>
        <time>2023-02-14T10:31:34.797Z</time>
      </trkpt>
      <trkpt lat="45.58918" lon="5.54536">
        <ele>320</ele>
        <time>2023-02-14T10:31:35.797Z</time>
      </trkpt>
      <trkpt lat="45.58918" lon="5.54539">
        <ele>321</ele>
        <time>2023-02-14T10:31:36.797Z</time>
      </trkpt>
      <trkpt lat="45.58918" lon="5.54543">
        <ele>321</ele>
        <time>2023-02-14T10:31:37.797Z</time>
      </trkpt>
      <trkpt lat="45.58919" lon="5.54546">
        <ele>321</ele>
        <time>2023-02-14T10:31:38.797Z</time>
      </trkpt>
      <trkpt lat="45.58919" lon="5.5455">
        <ele>321</ele>
        <time>2023-02-14T10:31:39.797Z</time>
      </trkpt>
      <trkpt lat="45.58919" lon="5.54553">
        <ele>322</ele>
        <time>2023-02-14T10:31:40.797Z</time>
      </trkpt>
      <trkpt lat="45.58919" lon="5.54557">
        <ele>322</ele>
        <time>2023-02-14T10:31:41.797Z</time>
      </trkpt>
      <trkpt lat="45.58919" lon="5.54561">
        <ele>322</ele>
        <time>2023-02-14T10:31:42.797Z</time>
      </trkpt>
      <trkpt lat="45.58919" lon="5.54564">
        <ele>322</ele>
        <time>2023-02-14T10:31:43.797Z</time>
      </trkpt>
      <trkpt lat="45.58919" lon="5.54568">
        <ele>322</ele>
        <time>2023-02-14T10:31:44.797Z</time>
      </trkpt>
      <trkpt lat="45.5892" lon="5.54571">
        <ele>323</ele>
        <time>2023-02-14T10:31:45.797Z</time>
      </trkpt>
      <trkpt lat="45.5892" lon="5.54575">
        <ele>323</ele>
        <time>2023-02-14T10:31:46.797Z</time>
      </trkpt>
      <trkpt lat="45.5892" lon="5.54578">
        <ele>323</ele>
        <time>2023-02-14T10:31:47.797Z</time>
      </trkpt>
      <trkpt lat="45.5892" lon="5.54582">
        <ele>323</ele>
        <time>2023-02-14T10:31:48.797Z</time>
      </trkpt>
      <trkpt lat="45.5892" lon="5.54585">
        <ele>323</ele>
        <time>2023-02-14T10:31:49.797Z</time>
      </trkpt>
      <trkpt lat="45.5892" lon="5.54588">
        <ele>323</ele>
        <time>2023-02-14T10:31:50.797Z</time>
      </trkpt>
      <trkpt lat="45.5892" lon="5.54591">
        <ele>322</ele>
        <time>2023-02-14T10:31:51.797Z</time>
      </trkpt>
      <trkpt lat="45.5892" lon="5.54594">
        <ele>323</ele>
        <time>2023-02-14T10:31:52.797Z</time>
      </trkpt>
      <trkpt lat="45.58919" lon="5.54598">
        <ele>323</ele>
        <time>2023-02-14T10:31:53.797Z</time>
      </trkpt>
      <trkpt lat="45.58919" lon="5.54601">
        <ele>322</ele>
        <time>2023-02-14T10:31:54.797Z</time>
      </trkpt>
      <trkpt lat="45.58919" lon="5.54604">
        <ele>323</ele>
        <time>2023-02-14T10:31:55.797Z</time>
      </trkpt>
      <trkpt lat="45.58919" lon="5.54608">
        <ele>322</ele>
        <time>2023-02-14T10:31:56.797Z</time>
      </trkpt>
      <trkpt lat="45.58918" lon="5.54611">
        <ele>323</ele>
        <time>2023-02-14T10:31:57.797Z</time>
      </trkpt>
      <trkpt lat="45.58918" lon="5.54615">
        <ele>323</ele>
        <time>2023-02-14T10:31:58.797Z</time>
      </trkpt>
      <trkpt lat="45.58918" lon="5.54618">
        <ele>322</ele>
        <time>2023-02-14T10:31:59.797Z</time>
      </trkpt>
      <trkpt lat="45.58918" lon="5.54621">
        <ele>322</ele>
        <time>2023-02-14T10:32:00.797Z</time>
      </trkpt>
      <trkpt lat="45.58918" lon="5.54624">
        <ele>322</ele>
        <time>2023-02-14T10:32:01.797Z</time>
      </trkpt>
      <trkpt lat="45.58918" lon="5.54627">
        <ele>322</ele>
        <time>2023-02-14T10:32:02.797Z</time>
      </trkpt>
      <trkpt lat="45.58917" lon="5.54631">
        <ele>321</ele>
        <time>2023-02-14T10:32:03.797Z</time>
      </trkpt>
      <trkpt lat="45.58917" lon="5.54634">
        <ele>321</ele>
        <time>2023-02-14T10:32:04.797Z</time>
      </trkpt>
      <trkpt lat="45.58917" lon="5.54637">
        <ele>321</ele>
        <time>2023-02-14T10:32:05.797Z</time>
      </trkpt>
      <trkpt lat="45.58917" lon="5.5464">
        <ele>321</ele>
        <time>2023-02-14T10:32:06.797Z</time>
      </trkpt>
      <trkpt lat="45.58917" lon="5.54643">
        <ele>321</ele>
        <time>2023-02-14T10:32:07.797Z</time>
      </trkpt>
      <trkpt lat="45.58916" lon="5.54646">
        <ele>320</ele>
        <time>2023-02-14T10:32:08.797Z</time>
      </trkpt>
      <trkpt lat="45.58916" lon="5.54649">
        <ele>320</ele>
        <time>2023-02-14T10:32:09.797Z</time>
      </trkpt>
      <trkpt lat="45.58916" lon="5.54652">
        <ele>320</ele>
        <time>2023-02-14T10:32:10.797Z</time>
      </trkpt>
      <trkpt lat="45.58915" lon="5.54655">
        <ele>320</ele>
        <time>2023-02-14T10:32:11.797Z</time>
      </trkpt>
      <trkpt lat="45.58915" lon="5.54659">
        <ele>320</ele>
        <time>2023-02-14T10:32:12.797Z</time>
      </trkpt>
      <trkpt lat="45.58915" lon="5.54662">
        <ele>320</ele>
        <time>2023-02-14T10:32:13.797Z</time>
      </trkpt>
      <trkpt lat="45.58914" lon="5.54665">
        <ele>321</ele>
        <time>2023-02-14T10:32:14.797Z</time>
      </trkpt>
      <trkpt lat="45.58914" lon="5.54668">
        <ele>321</ele>
        <time>2023-02-14T10:32:15.797Z</time>
      </trkpt>
      <trkpt lat="45.58914" lon="5.54672">
        <ele>321</ele>
        <time>2023-02-14T10:32:16.797Z</time>
      </trkpt>
      <trkpt lat="45.58913" lon="5.54675">
        <ele>321</ele>
        <time>2023-02-14T10:32:17.797Z</time>
      </trkpt>
      <trkpt lat="45.58913" lon="5.54678">
        <ele>321</ele>
        <time>2023-02-14T10:32:18.797Z</time>
      </trkpt>
      <trkpt lat="45.58913" lon="5.54681">
        <ele>322</ele>
        <time>2023-02-14T10:32:19.797Z</time>
      </trkpt>
      <trkpt lat="45.58912" lon="5.54684">
        <ele>322</ele>
        <time>2023-02-14T10:32:20.797Z</time>
      </trkpt>
      <trkpt lat="45.58912" lon="5.54687">
        <ele>322</ele>
        <time>2023-02-14T10:32:21.797Z</time>
      </trkpt>
      <trkpt lat="45.58912" lon="5.5469">
        <ele>322</ele>
        <time>2023-02-14T10:32:22.797Z</time>
      </trkpt>
      <trkpt lat="45.58911" lon="5.54693">
        <ele>322</ele>
        <time>2023-02-14T10:32:23.797Z</time>
      </trkpt>
      <trkpt lat="45.58911" lon="5.54696">
        <ele>321</ele>
        <time>2023-02-14T10:32:24.797Z</time>
      </trkpt>
      <trkpt lat="45.5891" lon="5.54699">
        <ele>322</ele>
        <time>2023-02-14T10:32:25.797Z</time>
      </trkpt>
      <trkpt lat="45.5891" lon="5.54702">
        <ele>322</ele>
        <time>2023-02-14T10:32:26.797Z</time>
      </trkpt>
      <trkpt lat="45.58909" lon="5.54704">
        <ele>322</ele>
        <time>2023-02-14T10:32:27.797Z</time>
      </trkpt>
      <trkpt lat="45.58908" lon="5.54707">
        <ele>321</ele>
        <time>2023-02-14T10:32:28.797Z</time>
      </trkpt>
      <trkpt lat="45.58907" lon="5.54708">
        <ele>321</ele>
        <time>2023-02-14T10:32:29.797Z</time>
      </trkpt>
      <trkpt lat="45.58905" lon="5.54708">
        <ele>322</ele>
        <time>2023-02-14T10:32:30.797Z</time>
      </trkpt>
      <trkpt lat="45.58903" lon="5.54708">
        <ele>322</ele>
        <time>2023-02-14T10:32:31.797Z</time>
      </trkpt>
      <trkpt lat="45.58901" lon="5.54707">
        <ele>322</ele>
        <time>2023-02-14T10:32:32.797Z</time>
      </trkpt>
      <trkpt lat="45.58898" lon="5.54707">
        <ele>322</ele>
        <time>2023-02-14T10:32:33.797Z</time>
      </trkpt>
      <trkpt lat="45.58896" lon="5.54706">
        <ele>323</ele>
        <time>2023-02-14T10:32:34.797Z</time>
      </trkpt>
      <trkpt lat="45.58894" lon="5.54705">
        <ele>323</ele>
        <time>2023-02-14T10:32:35.797Z</time>
      </trkpt>
      <trkpt lat="45.58892" lon="5.54704">
        <ele>323</ele>
        <time>2023-02-14T10:32:36.797Z</time>
      </trkpt>
      <trkpt lat="45.5889" lon="5.54703">
        <ele>324</ele>
        <time>2023-02-14T10:32:37.797Z</time>
      </trkpt>
      <trkpt lat="45.58888" lon="5.54703">
        <ele>324</ele>
        <time>2023-02-14T10:32:38.797Z</time>
      </trkpt>
      <trkpt lat="45.58887" lon="5.54702">
        <ele>324</ele>
        <time>2023-02-14T10:32:39.797Z</time>
      </trkpt>
      <trkpt lat="45.58885" lon="5.54701">
        <ele>325</ele>
        <time>2023-02-14T10:32:40.797Z</time>
      </trkpt>
      <trkpt lat="45.58883" lon="5.54699">
        <ele>325</ele>
        <time>2023-02-14T10:32:41.797Z</time>
      </trkpt>
      <trkpt lat="45.58881" lon="5.54698">
        <ele>325</ele>
        <time>2023-02-14T10:32:42.797Z</time>
      </trkpt>
      <trkpt lat="45.5888" lon="5.54696">
        <ele>325</ele>
        <time>2023-02-14T10:32:43.797Z</time>
      </trkpt>
      <trkpt lat="45.58878" lon="5.54694">
        <ele>326</ele>
        <time>2023-02-14T10:32:44.797Z</time>
      </trkpt>
      <trkpt lat="45.58877" lon="5.54691">
        <ele>326</ele>
        <time>2023-02-14T10:32:45.797Z</time>
      </trkpt>
      <trkpt lat="45.58877" lon="5.54689">
        <ele>326</ele>
        <time>2023-02-14T10:32:46.797Z</time>
      </trkpt>
      <trkpt lat="45.58876" lon="5.54687">
        <ele>326</ele>
        <time>2023-02-14T10:32:47.797Z</time>
      </trkpt>
      <trkpt lat="45.58875" lon="5.54684">
        <ele>326</ele>
        <time>2023-02-14T10:32:48.797Z</time>
      </trkpt>
      <trkpt lat="45.58875" lon="5.54682">
        <ele>326</ele>
        <time>2023-02-14T10:32:49.797Z</time>
      </trkpt>
      <trkpt lat="45.58875" lon="5.54679">
        <ele>326</ele>
        <time>2023-02-14T10:32:50.797Z</time>
      </trkpt>
      <trkpt lat="45.58874" lon="5.54677">
        <ele>327</ele>
        <time>2023-02-14T10:32:51.797Z</time>
      </trkpt>
      <trkpt lat="45.58874" lon="5.54675">
        <ele>327</ele>
        <time>2023-02-14T10:32:52.797Z</time>
      </trkpt>
      <trkpt lat="45.58873" lon="5.54673">
        <ele>327</ele>
        <time>2023-02-14T10:32:53.797Z</time>
      </trkpt>
      <trkpt lat="45.58873" lon="5.5467">
        <ele>328</ele>
        <time>2023-02-14T10:32:54.797Z</time>
      </trkpt>
      <trkpt lat="45.58872" lon="5.54668">
        <ele>328</ele>
        <time>2023-02-14T10:32:55.797Z</time>
      </trkpt>
      <trkpt lat="45.58871" lon="5.54666">
        <ele>328</ele>
        <time>2023-02-14T10:32:56.797Z</time>
      </trkpt>
      <trkpt lat="45.58871" lon="5.54664">
        <ele>328</ele>
        <time>2023-02-14T10:32:57.797Z</time>
      </trkpt>
      <trkpt lat="45.5887" lon="5.54662">
        <ele>328</ele>
        <time>2023-02-14T10:32:58.797Z</time>
      </trkpt>
      <trkpt lat="45.5887" lon="5.5466">
        <ele>329</ele>
        <time>2023-02-14T10:32:59.797Z</time>
      </trkpt>
      <trkpt lat="45.5887" lon="5.54658">
        <ele>329</ele>
        <time>2023-02-14T10:33:00.797Z</time>
      </trkpt>
      <trkpt lat="45.58869" lon="5.54656">
        <ele>329</ele>
        <time>2023-02-14T10:33:01.797Z</time>
      </trkpt>
      <trkpt lat="45.58869" lon="5.54653">
        <ele>330</ele>
        <time>2023-02-14T10:33:02.797Z</time>
      </trkpt>
      <trkpt lat="45.58868" lon="5.54651">
        <ele>330</ele>
        <time>2023-02-14T10:33:03.797Z</time>
      </trkpt>
      <trkpt lat="45.58868" lon="5.54649">
        <ele>330</ele>
        <time>2023-02-14T10:33:04.797Z</time>
      </trkpt>
      <trkpt lat="45.58868" lon="5.54647">
        <ele>330</ele>
        <time>2023-02-14T10:33:05.797Z</time>
      </trkpt>
      <trkpt lat="45.58867" lon="5.54645">
        <ele>330</ele>
        <time>2023-02-14T10:33:06.797Z</time>
      </trkpt>
      <trkpt lat="45.58867" lon="5.54642">
        <ele>330</ele>
        <time>2023-02-14T10:33:07.797Z</time>
      </trkpt>
      <trkpt lat="45.58866" lon="5.5464">
        <ele>331</ele>
        <time>2023-02-14T10:33:08.797Z</time>
      </trkpt>
      <trkpt lat="45.58866" lon="5.54638">
        <ele>331</ele>
        <time>2023-02-14T10:33:09.797Z</time>
      </trkpt>
      <trkpt lat="45.58866" lon="5.54636">
        <ele>331</ele>
        <time>2023-02-14T10:33:10.797Z</time>
      </trkpt>
      <trkpt lat="45.58866" lon="5.54634">
        <ele>332</ele>
        <time>2023-02-14T10:33:11.797Z</time>
      </trkpt>
      <trkpt lat="45.58865" lon="5.54632">
        <ele>332</ele>
        <time>2023-02-14T10:33:12.797Z</time>
      </trkpt>
      <trkpt lat="45.58865" lon="5.5463">
        <ele>332</ele>
        <time>2023-02-14T10:33:13.797Z</time>
      </trkpt>
      <trkpt lat="45.58865" lon="5.54628">
        <ele>332</ele>
        <time>2023-02-14T10:33:14.797Z</time>
      </trkpt>
      <trkpt lat="45.58864" lon="5.54626">
        <ele>332</ele>
        <time>2023-02-14T10:33:15.797Z</time>
      </trkpt>
      <trkpt lat="45.58864" lon="5.54624">
        <ele>332</ele>
        <time>2023-02-14T10:33:16.797Z</time>
      </trkpt>
      <trkpt lat="45.58864" lon="5.54622">
        <ele>332</ele>
        <time>2023-02-14T10:33:17.797Z</time>
      </trkpt>
      <trkpt lat="45.58863" lon="5.54619">
        <ele>332</ele>
        <time>2023-02-14T10:33:18.797Z</time>
      </trkpt>
      <trkpt lat="45.58863" lon="5.54617">
        <ele>333</ele>
        <time>2023-02-14T10:33:19.797Z</time>
      </trkpt>
      <trkpt lat="45.58863" lon="5.54615">
        <ele>333</ele>
        <time>2023-02-14T10:33:20.797Z</time>
      </trkpt>
      <trkpt lat="45.58862" lon="5.54613">
        <ele>333</ele>
        <time>2023-02-14T10:33:21.797Z</time>
      </trkpt>
      <trkpt lat="45.58862" lon="5.54611">
        <ele>333</ele>
        <time>2023-02-14T10:33:22.797Z</time>
      </trkpt>
      <trkpt lat="45.58861" lon="5.54609">
        <ele>333</ele>
        <time>2023-02-14T10:33:23.797Z</time>
      </trkpt>
      <trkpt lat="45.58861" lon="5.54607">
        <ele>333</ele>
        <time>2023-02-14T10:33:24.797Z</time>
      </trkpt>
      <trkpt lat="45.58861" lon="5.54605">
        <ele>334</ele>
        <time>2023-02-14T10:33:25.797Z</time>
      </trkpt>
      <trkpt lat="45.5886" lon="5.54603">
        <ele>334</ele>
        <time>2023-02-14T10:33:26.797Z</time>
      </trkpt>
      <trkpt lat="45.5886" lon="5.54601">
        <ele>334</ele>
        <time>2023-02-14T10:33:27.797Z</time>
      </trkpt>
      <trkpt lat="45.5886" lon="5.546">
        <ele>334</ele>
        <time>2023-02-14T10:33:28.797Z</time>
      </trkpt>
      <trkpt lat="45.58859" lon="5.54598">
        <ele>334</ele>
        <time>2023-02-14T10:33:29.797Z</time>
      </trkpt>
      <trkpt lat="45.58859" lon="5.54596">
        <ele>334</ele>
        <time>2023-02-14T10:33:30.797Z</time>
      </trkpt>
      <trkpt lat="45.58859" lon="5.54594">
        <ele>335</ele>
        <time>2023-02-14T10:33:31.797Z</time>
      </trkpt>
      <trkpt lat="45.58859" lon="5.54592">
        <ele>335</ele>
        <time>2023-02-14T10:33:32.797Z</time>
      </trkpt>
      <trkpt lat="45.58858" lon="5.5459">
        <ele>335</ele>
        <time>2023-02-14T10:33:33.797Z</time>
      </trkpt>
      <trkpt lat="45.58858" lon="5.54589">
        <ele>335</ele>
        <time>2023-02-14T10:33:34.797Z</time>
      </trkpt>
      <trkpt lat="45.58857" lon="5.54588">
        <ele>335</ele>
        <time>2023-02-14T10:33:35.797Z</time>
      </trkpt>
      <trkpt lat="45.58856" lon="5.54586">
        <ele>336</ele>
        <time>2023-02-14T10:33:36.797Z</time>
      </trkpt>
      <trkpt lat="45.58855" lon="5.54585">
        <ele>336</ele>
        <time>2023-02-14T10:33:37.797Z</time>
      </trkpt>
      <trkpt lat="45.58854" lon="5.54584">
        <ele>336</ele>
        <time>2023-02-14T10:33:38.797Z</time>
      </trkpt>
      <trkpt lat="45.58854" lon="5.54583">
        <ele>336</ele>
        <time>2023-02-14T10:33:39.797Z</time>
      </trkpt>
      <trkpt lat="45.58853" lon="5.54581">
        <ele>336</ele>
        <time>2023-02-14T10:33:40.797Z</time>
      </trkpt>
      <trkpt lat="45.58852" lon="5.5458">
        <ele>336</ele>
        <time>2023-02-14T10:33:41.797Z</time>
      </trkpt>
      <trkpt lat="45.58851" lon="5.54579">
        <ele>337</ele>
        <time>2023-02-14T10:33:42.797Z</time>
      </trkpt>
      <trkpt lat="45.5885" lon="5.54578">
        <ele>337</ele>
        <time>2023-02-14T10:33:43.797Z</time>
      </trkpt>
      <trkpt lat="45.58849" lon="5.54578">
        <ele>337</ele>
        <time>2023-02-14T10:33:44.797Z</time>
      </trkpt>
      <trkpt lat="45.58848" lon="5.54578">
        <ele>337</ele>
        <time>2023-02-14T10:33:45.797Z</time>
      </trkpt>
      <trkpt lat="45.58846" lon="5.54578">
        <ele>337</ele>
        <time>2023-02-14T10:33:46.797Z</time>
      </trkpt>
      <trkpt lat="45.58845" lon="5.54578">
        <ele>338</ele>
        <time>2023-02-14T10:33:47.797Z</time>
      </trkpt>
      <trkpt lat="45.58844" lon="5.54578">
        <ele>338</ele>
        <time>2023-02-14T10:33:48.797Z</time>
      </trkpt>
      <trkpt lat="45.58843" lon="5.54579">
        <ele>338</ele>
        <time>2023-02-14T10:33:49.797Z</time>
      </trkpt>
      <trkpt lat="45.58842" lon="5.54579">
        <ele>338</ele>
        <time>2023-02-14T10:33:50.797Z</time>
      </trkpt>
      <trkpt lat="45.5884" lon="5.5458">
        <ele>339</ele>
        <time>2023-02-14T10:33:51.797Z</time>
      </trkpt>
      <trkpt lat="45.58839" lon="5.5458">
        <ele>339</ele>
        <time>2023-02-14T10:33:52.797Z</time>
      </trkpt>
      <trkpt lat="45.58838" lon="5.5458">
        <ele>339</ele>
        <time>2023-02-14T10:33:53.797Z</time>
      </trkpt>
      <trkpt lat="45.58837" lon="5.5458">
        <ele>339</ele>
        <time>2023-02-14T10:33:54.797Z</time>
      </trkpt>
      <trkpt lat="45.58836" lon="5.54581">
        <ele>340</ele>
        <time>2023-02-14T10:33:55.797Z</time>
      </trkpt>
      <trkpt lat="45.58835" lon="5.54581">
        <ele>340</ele>
        <time>2023-02-14T10:33:56.797Z</time>
      </trkpt>
      <trkpt lat="45.58834" lon="5.54581">
        <ele>340</ele>
        <time>2023-02-14T10:33:57.797Z</time>
      </trkpt>
      <trkpt lat="45.58833" lon="5.5458">
        <ele>340</ele>
        <time>2023-02-14T10:33:58.797Z</time>
      </trkpt>
      <trkpt lat="45.58832" lon="5.5458">
        <ele>340</ele>
        <time>2023-02-14T10:33:59.797Z</time>
      </trkpt>
      <trkpt lat="45.58831" lon="5.54581">
        <ele>341</ele>
        <time>2023-02-14T10:34:00.797Z</time>
      </trkpt>
      <trkpt lat="45.5883" lon="5.54581">
        <ele>341</ele>
        <time>2023-02-14T10:34:01.797Z</time>
      </trkpt>
      <trkpt lat="45.58829" lon="5.54582">
        <ele>341</ele>
        <time>2023-02-14T10:34:02.797Z</time>
      </trkpt>
      <trkpt lat="45.58828" lon="5.54583">
        <ele>341</ele>
        <time>2023-02-14T10:34:03.797Z</time>
      </trkpt>
      <trkpt lat="45.58827" lon="5.54584">
        <ele>341</ele>
        <time>2023-02-14T10:34:04.797Z</time>
      </trkpt>
      <trkpt lat="45.58826" lon="5.54584">
        <ele>341</ele>
        <time>2023-02-14T10:34:05.797Z</time>
      </trkpt>
      <trkpt lat="45.58825" lon="5.54585">
        <ele>341</ele>
        <time>2023-02-14T10:34:06.797Z</time>
      </trkpt>
      <trkpt lat="45.58824" lon="5.54585">
        <ele>342</ele>
        <time>2023-02-14T10:34:07.797Z</time>
      </trkpt>
      <trkpt lat="45.58822" lon="5.54585">
        <ele>342</ele>
        <time>2023-02-14T10:34:08.797Z</time>
      </trkpt>
      <trkpt lat="45.58821" lon="5.54585">
        <ele>342</ele>
        <time>2023-02-14T10:34:09.797Z</time>
      </trkpt>
      <trkpt lat="45.5882" lon="5.54585">
        <ele>342</ele>
        <time>2023-02-14T10:34:10.797Z</time>
      </trkpt>
      <trkpt lat="45.58819" lon="5.54585">
        <ele>342</ele>
        <time>2023-02-14T10:34:11.797Z</time>
      </trkpt>
      <trkpt lat="45.58818" lon="5.54585">
        <ele>342</ele>
        <time>2023-02-14T10:34:12.797Z</time>
      </trkpt>
      <trkpt lat="45.58817" lon="5.54585">
        <ele>342</ele>
        <time>2023-02-14T10:34:13.797Z</time>
      </trkpt>
      <trkpt lat="45.58816" lon="5.54585">
        <ele>343</ele>
        <time>2023-02-14T10:34:14.797Z</time>
      </trkpt>
      <trkpt lat="45.58815" lon="5.54585">
        <ele>343</ele>
        <time>2023-02-14T10:34:15.797Z</time>
      </trkpt>
      <trkpt lat="45.58814" lon="5.54586">
        <ele>343</ele>
        <time>2023-02-14T10:34:16.797Z</time>
      </trkpt>
      <trkpt lat="45.58813" lon="5.54586">
        <ele>343</ele>
        <time>2023-02-14T10:34:17.797Z</time>
      </trkpt>
      <trkpt lat="45.58812" lon="5.54587">
        <ele>344</ele>
        <time>2023-02-14T10:34:18.797Z</time>
      </trkpt>
      <trkpt lat="45.5881" lon="5.54587">
        <ele>344</ele>
        <time>2023-02-14T10:34:19.797Z</time>
      </trkpt>
      <trkpt lat="45.58809" lon="5.54587">
        <ele>344</ele>
        <time>2023-02-14T10:34:20.797Z</time>
      </trkpt>
      <trkpt lat="45.58808" lon="5.54588">
        <ele>344</ele>
        <time>2023-02-14T10:34:21.797Z</time>
      </trkpt>
      <trkpt lat="45.58807" lon="5.54588">
        <ele>344</ele>
        <time>2023-02-14T10:34:22.797Z</time>
      </trkpt>
      <trkpt lat="45.58806" lon="5.54589">
        <ele>345</ele>
        <time>2023-02-14T10:34:23.797Z</time>
      </trkpt>
      <trkpt lat="45.58805" lon="5.54589">
        <ele>345</ele>
        <time>2023-02-14T10:34:24.797Z</time>
      </trkpt>
      <trkpt lat="45.58805" lon="5.54591">
        <ele>345</ele>
        <time>2023-02-14T10:34:25.797Z</time>
      </trkpt>
      <trkpt lat="45.58804" lon="5.54593">
        <ele>345</ele>
        <time>2023-02-14T10:34:26.797Z</time>
      </trkpt>
      <trkpt lat="45.58804" lon="5.54594">
        <ele>345</ele>
        <time>2023-02-14T10:34:27.797Z</time>
      </trkpt>
      <trkpt lat="45.58803" lon="5.54596">
        <ele>345</ele>
        <time>2023-02-14T10:34:28.797Z</time>
      </trkpt>
      <trkpt lat="45.58803" lon="5.54598">
        <ele>345</ele>
        <time>2023-02-14T10:34:29.797Z</time>
      </trkpt>
      <trkpt lat="45.58802" lon="5.546">
        <ele>345</ele>
        <time>2023-02-14T10:34:30.797Z</time>
      </trkpt>
      <trkpt lat="45.58802" lon="5.54602">
        <ele>346</ele>
        <time>2023-02-14T10:34:31.797Z</time>
      </trkpt>
      <trkpt lat="45.58801" lon="5.54604">
        <ele>346</ele>
        <time>2023-02-14T10:34:32.797Z</time>
      </trkpt>
      <trkpt lat="45.58801" lon="5.54606">
        <ele>346</ele>
        <time>2023-02-14T10:34:33.797Z</time>
      </trkpt>
      <trkpt lat="45.588" lon="5.54608">
        <ele>346</ele>
        <time>2023-02-14T10:34:34.797Z</time>
      </trkpt>
      <trkpt lat="45.588" lon="5.5461">
        <ele>346</ele>
        <time>2023-02-14T10:34:35.797Z</time>
      </trkpt>
      <trkpt lat="45.58799" lon="5.54613">
        <ele>346</ele>
        <time>2023-02-14T10:34:36.797Z</time>
      </trkpt>
      <trkpt lat="45.58799" lon="5.54615">
        <ele>346</ele>
        <time>2023-02-14T10:34:37.797Z</time>
      </trkpt>
      <trkpt lat="45.58799" lon="5.54618">
        <ele>346</ele>
        <time>2023-02-14T10:34:38.797Z</time>
      </trkpt>
      <trkpt lat="45.58798" lon="5.5462">
        <ele>346</ele>
        <time>2023-02-14T10:34:39.797Z</time>
      </trkpt>
      <trkpt lat="45.58798" lon="5.54622">
        <ele>346</ele>
        <time>2023-02-14T10:34:40.797Z</time>
      </trkpt>
      <trkpt lat="45.58798" lon="5.54625">
        <ele>346</ele>
        <time>2023-02-14T10:34:41.797Z</time>
      </trkpt>
      <trkpt lat="45.58797" lon="5.54627">
        <ele>346</ele>
        <time>2023-02-14T10:34:42.797Z</time>
      </trkpt>
      <trkpt lat="45.58797" lon="5.5463">
        <ele>347</ele>
        <time>2023-02-14T10:34:43.797Z</time>
      </trkpt>
      <trkpt lat="45.58797" lon="5.54632">
        <ele>347</ele>
        <time>2023-02-14T10:34:44.797Z</time>
      </trkpt>
      <trkpt lat="45.58796" lon="5.54635">
        <ele>347</ele>
        <time>2023-02-14T10:34:45.797Z</time>
      </trkpt>
      <trkpt lat="45.58796" lon="5.54638">
        <ele>347</ele>
        <time>2023-02-14T10:34:46.797Z</time>
      </trkpt>
      <trkpt lat="45.58796" lon="5.5464">
        <ele>347</ele>
        <time>2023-02-14T10:34:47.797Z</time>
      </trkpt>
      <trkpt lat="45.58795" lon="5.54643">
        <ele>347</ele>
        <time>2023-02-14T10:34:48.797Z</time>
      </trkpt>
      <trkpt lat="45.58795" lon="5.54645">
        <ele>347</ele>
        <time>2023-02-14T10:34:49.797Z</time>
      </trkpt>
      <trkpt lat="45.58794" lon="5.54648">
        <ele>347</ele>
        <time>2023-02-14T10:34:50.797Z</time>
      </trkpt>
      <trkpt lat="45.58794" lon="5.5465">
        <ele>347</ele>
        <time>2023-02-14T10:34:51.797Z</time>
      </trkpt>
      <trkpt lat="45.58793" lon="5.54652">
        <ele>348</ele>
        <time>2023-02-14T10:34:52.797Z</time>
      </trkpt>
      <trkpt lat="45.58792" lon="5.54655">
        <ele>348</ele>
        <time>2023-02-14T10:34:53.797Z</time>
      </trkpt>
      <trkpt lat="45.58792" lon="5.54657">
        <ele>348</ele>
        <time>2023-02-14T10:34:54.797Z</time>
      </trkpt>
      <trkpt lat="45.58791" lon="5.54659">
        <ele>348</ele>
        <time>2023-02-14T10:34:55.797Z</time>
      </trkpt>
      <trkpt lat="45.5879" lon="5.5466">
        <ele>348</ele>
        <time>2023-02-14T10:34:56.797Z</time>
      </trkpt>
      <trkpt lat="45.58788" lon="5.54661">
        <ele>348</ele>
        <time>2023-02-14T10:34:57.797Z</time>
      </trkpt>
      <trkpt lat="45.58787" lon="5.54661">
        <ele>349</ele>
        <time>2023-02-14T10:34:58.797Z</time>
      </trkpt>
      <trkpt lat="45.58785" lon="5.54661">
        <ele>349</ele>
        <time>2023-02-14T10:34:59.797Z</time>
      </trkpt>
      <trkpt lat="45.58783" lon="5.54661">
        <ele>349</ele>
        <time>2023-02-14T10:35:00.797Z</time>
      </trkpt>
      <trkpt lat="45.58782" lon="5.54661">
        <ele>349</ele>
        <time>2023-02-14T10:35:01.797Z</time>
      </trkpt>
      <trkpt lat="45.5878" lon="5.54661">
        <ele>349</ele>
        <time>2023-02-14T10:35:02.797Z</time>
      </trkpt>
      <trkpt lat="45.58778" lon="5.54661">
        <ele>349</ele>
        <time>2023-02-14T10:35:03.797Z</time>
      </trkpt>
      <trkpt lat="45.58777" lon="5.5466">
        <ele>349</ele>
        <time>2023-02-14T10:35:04.797Z</time>
      </trkpt>
      <trkpt lat="45.58775" lon="5.5466">
        <ele>350</ele>
        <time>2023-02-14T10:35:05.797Z</time>
      </trkpt>
      <trkpt lat="45.58774" lon="5.5466">
        <ele>350</ele>
        <time>2023-02-14T10:35:06.797Z</time>
      </trkpt>
      <trkpt lat="45.58772" lon="5.5466">
        <ele>350</ele>
        <time>2023-02-14T10:35:07.797Z</time>
      </trkpt>
      <trkpt lat="45.58771" lon="5.54659">
        <ele>350</ele>
        <time>2023-02-14T10:35:08.797Z</time>
      </trkpt>
      <trkpt lat="45.5877" lon="5.54659">
        <ele>350</ele>
        <time>2023-02-14T10:35:09.797Z</time>
      </trkpt>
      <trkpt lat="45.58768" lon="5.54659">
        <ele>351</ele>
        <time>2023-02-14T10:35:10.797Z</time>
      </trkpt>
      <trkpt lat="45.58767" lon="5.54659">
        <ele>351</ele>
        <time>2023-02-14T10:35:11.797Z</time>
      </trkpt>
      <trkpt lat="45.58765" lon="5.54659">
        <ele>351</ele>
        <time>2023-02-14T10:35:12.797Z</time>
      </trkpt>
      <trkpt lat="45.58764" lon="5.54659">
        <ele>351</ele>
        <time>2023-02-14T10:35:13.797Z</time>
      </trkpt>
      <trkpt lat="45.58762" lon="5.54658">
        <ele>351</ele>
        <time>2023-02-14T10:35:14.797Z</time>
      </trkpt>
      <trkpt lat="45.5876" lon="5.54658">
        <ele>352</ele>
        <time>2023-02-14T10:35:15.797Z</time>
      </trkpt>
      <trkpt lat="45.58758" lon="5.54658">
        <ele>352</ele>
        <time>2023-02-14T10:35:16.797Z</time>
      </trkpt>
      <trkpt lat="45.58757" lon="5.54658">
        <ele>352</ele>
        <time>2023-02-14T10:35:17.797Z</time>
      </trkpt>
      <trkpt lat="45.58755" lon="5.54658">
        <ele>352</ele>
        <time>2023-02-14T10:35:18.797Z</time>
      </trkpt>
      <trkpt lat="45.58753" lon="5.54657">
        <ele>352</ele>
        <time>2023-02-14T10:35:19.797Z</time>
      </trkpt>
      <trkpt lat="45.58751" lon="5.54657">
        <ele>353</ele>
        <time>2023-02-14T10:35:20.797Z</time>
      </trkpt>
      <trkpt lat="45.5875" lon="5.54657">
        <ele>353</ele>
        <time>2023-02-14T10:35:21.797Z</time>
      </trkpt>
      <trkpt lat="45.58748" lon="5.54657">
        <ele>353</ele>
        <time>2023-02-14T10:35:22.797Z</time>
      </trkpt>
      <trkpt lat="45.58746" lon="5.54656">
        <ele>353</ele>
        <time>2023-02-14T10:35:23.797Z</time>
      </trkpt>
      <trkpt lat="45.58744" lon="5.54656">
        <ele>353</ele>
        <time>2023-02-14T10:35:24.797Z</time>
      </trkpt>
      <trkpt lat="45.58742" lon="5.54656">
        <ele>353</ele>
        <time>2023-02-14T10:35:25.797Z</time>
      </trkpt>
      <trkpt lat="45.5874" lon="5.54656">
        <ele>354</ele>
        <time>2023-02-14T10:35:26.797Z</time>
      </trkpt>
      <trkpt lat="45.58739" lon="5.54655">
        <ele>354</ele>
        <time>2023-02-14T10:35:27.797Z</time>
      </trkpt>
      <trkpt lat="45.58737" lon="5.54655">
        <ele>354</ele>
        <time>2023-02-14T10:35:28.797Z</time>
      </trkpt>
      <trkpt lat="45.58735" lon="5.54655">
        <ele>354</ele>
        <time>2023-02-14T10:35:29.797Z</time>
      </trkpt>
      <trkpt lat="45.58733" lon="5.54655">
        <ele>354</ele>
        <time>2023-02-14T10:35:30.797Z</time>
      </trkpt>
      <trkpt lat="45.58732" lon="5.54655">
        <ele>354</ele>
        <time>2023-02-14T10:35:31.797Z</time>
      </trkpt>
      <trkpt lat="45.5873" lon="5.54655">
        <ele>354</ele>
        <time>2023-02-14T10:35:32.797Z</time>
      </trkpt>
      <trkpt lat="45.58728" lon="5.54654">
        <ele>355</ele>
        <time>2023-02-14T10:35:33.797Z</time>
      </trkpt>
      <trkpt lat="45.58726" lon="5.54654">
        <ele>355</ele>
        <time>2023-02-14T10:35:34.797Z</time>
      </trkpt>
      <trkpt lat="45.58725" lon="5.54654">
        <ele>355</ele>
        <time>2023-02-14T10:35:35.797Z</time>
      </trkpt>
      <trkpt lat="45.58723" lon="5.54653">
        <ele>355</ele>
        <time>2023-02-14T10:35:36.797Z</time>
      </trkpt>
      <trkpt lat="45.58721" lon="5.54653">
        <ele>355</ele>
        <time>2023-02-14T10:35:37.797Z</time>
      </trkpt>
      <trkpt lat="45.58719" lon="5.54653">
        <ele>355</ele>
        <time>2023-02-14T10:35:38.797Z</time>
      </trkpt>
      <trkpt lat="45.58718" lon="5.54652">
        <ele>355</ele>
        <time>2023-02-14T10:35:39.797Z</time>
      </trkpt>
      <trkpt lat="45.58716" lon="5.54652">
        <ele>356</ele>
        <time>2023-02-14T10:35:40.797Z</time>
      </trkpt>
      <trkpt lat="45.58714" lon="5.54652">
        <ele>356</ele>
        <time>2023-02-14T10:35:41.797Z</time>
      </trkpt>
      <trkpt lat="45.58712" lon="5.54651">
        <ele>356</ele>
        <time>2023-02-14T10:35:42.797Z</time>
      </trkpt>
      <trkpt lat="45.58711" lon="5.54651">
        <ele>356</ele>
        <time>2023-02-14T10:35:43.797Z</time>
      </trkpt>
      <trkpt lat="45.58709" lon="5.54651">
        <ele>356</ele>
        <time>2023-02-14T10:35:44.797Z</time>
      </trkpt>
      <trkpt lat="45.58707" lon="5.54651">
        <ele>356</ele>
        <time>2023-02-14T10:35:45.797Z</time>
      </trkpt>
      <trkpt lat="45.58705" lon="5.5465">
        <ele>356</ele>
        <time>2023-02-14T10:35:46.797Z</time>
      </trkpt>
      <trkpt lat="45.58704" lon="5.5465">
        <ele>356</ele>
        <time>2023-02-14T10:35:47.797Z</time>
      </trkpt>
      <trkpt lat="45.58702" lon="5.5465">
        <ele>356</ele>
        <time>2023-02-14T10:35:48.797Z</time>
      </trkpt>
      <trkpt lat="45.587" lon="5.54649">
        <ele>356</ele>
        <time>2023-02-14T10:35:49.797Z</time>
      </trkpt>
      <trkpt lat="45.58698" lon="5.54649">
        <ele>356</ele>
        <time>2023-02-14T10:35:50.797Z</time>
      </trkpt>
      <trkpt lat="45.58697" lon="5.54649">
        <ele>357</ele>
        <time>2023-02-14T10:35:51.797Z</time>
      </trkpt>
      <trkpt lat="45.58695" lon="5.54649">
        <ele>357</ele>
        <time>2023-02-14T10:35:52.797Z</time>
      </trkpt>
      <trkpt lat="45.58693" lon="5.54648">
        <ele>357</ele>
        <time>2023-02-14T10:35:53.797Z</time>
      </trkpt>
      <trkpt lat="45.58691" lon="5.54648">
        <ele>357</ele>
        <time>2023-02-14T10:35:54.797Z</time>
      </trkpt>
      <trkpt lat="45.5869" lon="5.54648">
        <ele>357</ele>
        <time>2023-02-14T10:35:55.797Z</time>
      </trkpt>
      <trkpt lat="45.58688" lon="5.54648">
        <ele>357</ele>
        <time>2023-02-14T10:35:56.797Z</time>
      </trkpt>
      <trkpt lat="45.58686" lon="5.54647">
        <ele>357</ele>
        <time>2023-02-14T10:35:57.797Z</time>
      </trkpt>
      <trkpt lat="45.58684" lon="5.54647">
        <ele>357</ele>
        <time>2023-02-14T10:35:58.797Z</time>
      </trkpt>
      <trkpt lat="45.58682" lon="5.54647">
        <ele>357</ele>
        <time>2023-02-14T10:35:59.797Z</time>
      </trkpt>
      <trkpt lat="45.58681" lon="5.54646">
        <ele>358</ele>
        <time>2023-02-14T10:36:00.797Z</time>
      </trkpt>
      <trkpt lat="45.58679" lon="5.54646">
        <ele>358</ele>
        <time>2023-02-14T10:36:01.797Z</time>
      </trkpt>
      <trkpt lat="45.58677" lon="5.54646">
        <ele>358</ele>
        <time>2023-02-14T10:36:02.797Z</time>
      </trkpt>
      <trkpt lat="45.58675" lon="5.54646">
        <ele>358</ele>
        <time>2023-02-14T10:36:03.797Z</time>
      </trkpt>
      <trkpt lat="45.58674" lon="5.54645">
        <ele>358</ele>
        <time>2023-02-14T10:36:04.797Z</time>
      </trkpt>
      <trkpt lat="45.58672" lon="5.54645">
        <ele>358</ele>
        <time>2023-02-14T10:36:05.797Z</time>
      </trkpt>
      <trkpt lat="45.5867" lon="5.54646">
        <ele>359</ele>
        <time>2023-02-14T10:36:06.797Z</time>
      </trkpt>
      <trkpt lat="45.58668" lon="5.54646">
        <ele>359</ele>
        <time>2023-02-14T10:36:07.797Z</time>
      </trkpt>
      <trkpt lat="45.58667" lon="5.54647">
        <ele>359</ele>
        <time>2023-02-14T10:36:08.797Z</time>
      </trkpt>
      <trkpt lat="45.58665" lon="5.54648">
        <ele>359</ele>
        <time>2023-02-14T10:36:09.797Z</time>
      </trkpt>
      <trkpt lat="45.58664" lon="5.54649">
        <ele>359</ele>
        <time>2023-02-14T10:36:10.797Z</time>
      </trkpt>
      <trkpt lat="45.58663" lon="5.54651">
        <ele>359</ele>
        <time>2023-02-14T10:36:11.797Z</time>
      </trkpt>
      <trkpt lat="45.58662" lon="5.54654">
        <ele>359</ele>
        <time>2023-02-14T10:36:12.797Z</time>
      </trkpt>
      <trkpt lat="45.58661" lon="5.54656">
        <ele>359</ele>
        <time>2023-02-14T10:36:13.797Z</time>
      </trkpt>
      <trkpt lat="45.58661" lon="5.54659">
        <ele>359</ele>
        <time>2023-02-14T10:36:14.797Z</time>
      </trkpt>
      <trkpt lat="45.5866" lon="5.54662">
        <ele>360</ele>
        <time>2023-02-14T10:36:15.797Z</time>
      </trkpt>
      <trkpt lat="45.58659" lon="5.54665">
        <ele>360</ele>
        <time>2023-02-14T10:36:16.797Z</time>
      </trkpt>
      <trkpt lat="45.58659" lon="5.54668">
        <ele>360</ele>
        <time>2023-02-14T10:36:17.797Z</time>
      </trkpt>
      <trkpt lat="45.58658" lon="5.54671">
        <ele>360</ele>
        <time>2023-02-14T10:36:18.797Z</time>
      </trkpt>
      <trkpt lat="45.58658" lon="5.54674">
        <ele>360</ele>
        <time>2023-02-14T10:36:19.797Z</time>
      </trkpt>
      <trkpt lat="45.58657" lon="5.54676">
        <ele>360</ele>
        <time>2023-02-14T10:36:20.797Z</time>
      </trkpt>
      <trkpt lat="45.58657" lon="5.54679">
        <ele>360</ele>
        <time>2023-02-14T10:36:21.797Z</time>
      </trkpt>
      <trkpt lat="45.58656" lon="5.54682">
        <ele>360</ele>
        <time>2023-02-14T10:36:22.797Z</time>
      </trkpt>
      <trkpt lat="45.58656" lon="5.54685">
        <ele>360</ele>
        <time>2023-02-14T10:36:23.797Z</time>
      </trkpt>
      <trkpt lat="45.58655" lon="5.54688">
        <ele>360</ele>
        <time>2023-02-14T10:36:24.797Z</time>
      </trkpt>
      <trkpt lat="45.58655" lon="5.54691">
        <ele>360</ele>
        <time>2023-02-14T10:36:25.797Z</time>
      </trkpt>
      <trkpt lat="45.58654" lon="5.54694">
        <ele>360</ele>
        <time>2023-02-14T10:36:26.797Z</time>
      </trkpt>
      <trkpt lat="45.58654" lon="5.54697">
        <ele>361</ele>
        <time>2023-02-14T10:36:27.797Z</time>
      </trkpt>
      <trkpt lat="45.58653" lon="5.547">
        <ele>361</ele>
        <time>2023-02-14T10:36:28.797Z</time>
      </trkpt>
      <trkpt lat="45.58653" lon="5.54703">
        <ele>361</ele>
        <time>2023-02-14T10:36:29.797Z</time>
      </trkpt>
      <trkpt lat="45.58652" lon="5.54706">
        <ele>361</ele>
        <time>2023-02-14T10:36:30.797Z</time>
      </trkpt>
      <trkpt lat="45.58652" lon="5.54709">
        <ele>361</ele>
        <time>2023-02-14T10:36:31.797Z</time>
      </trkpt>
      <trkpt lat="45.58651" lon="5.54712">
        <ele>361</ele>
        <time>2023-02-14T10:36:32.797Z</time>
      </trkpt>
      <trkpt lat="45.58651" lon="5.54715">
        <ele>361</ele>
        <time>2023-02-14T10:36:33.797Z</time>
      </trkpt>
      <trkpt lat="45.5865" lon="5.54718">
        <ele>361</ele>
        <time>2023-02-14T10:36:34.797Z</time>
      </trkpt>
      <trkpt lat="45.5865" lon="5.54721">
        <ele>361</ele>
        <time>2023-02-14T10:36:35.797Z</time>
      </trkpt>
      <trkpt lat="45.58649" lon="5.54724">
        <ele>361</ele>
        <time>2023-02-14T10:36:36.797Z</time>
      </trkpt>
      <trkpt lat="45.58649" lon="5.54727">
        <ele>361</ele>
        <time>2023-02-14T10:36:37.797Z</time>
      </trkpt>
      <trkpt lat="45.58648" lon="5.5473">
        <ele>361</ele>
        <time>2023-02-14T10:36:38.797Z</time>
      </trkpt>
      <trkpt lat="45.58648" lon="5.54733">
        <ele>361</ele>
        <time>2023-02-14T10:36:39.797Z</time>
      </trkpt>
      <trkpt lat="45.58647" lon="5.54736">
        <ele>362</ele>
        <time>2023-02-14T10:36:40.797Z</time>
      </trkpt>
      <trkpt lat="45.58646" lon="5.5474">
        <ele>362</ele>
        <time>2023-02-14T10:36:41.797Z</time>
      </trkpt>
      <trkpt lat="45.58646" lon="5.54743">
        <ele>362</ele>
        <time>2023-02-14T10:36:42.797Z</time>
      </trkpt>
      <trkpt lat="45.58645" lon="5.54746">
        <ele>362</ele>
        <time>2023-02-14T10:36:43.797Z</time>
      </trkpt>
      <trkpt lat="45.58645" lon="5.54749">
        <ele>362</ele>
        <time>2023-02-14T10:36:44.797Z</time>
      </trkpt>
      <trkpt lat="45.58644" lon="5.54752">
        <ele>362</ele>
        <time>2023-02-14T10:36:45.797Z</time>
      </trkpt>
      <trkpt lat="45.58643" lon="5.54755">
        <ele>362</ele>
        <time>2023-02-14T10:36:46.797Z</time>
      </trkpt>
      <trkpt lat="45.58643" lon="5.54758">
        <ele>362</ele>
        <time>2023-02-14T10:36:47.797Z</time>
      </trkpt>
      <trkpt lat="45.58642" lon="5.54761">
        <ele>362</ele>
        <time>2023-02-14T10:36:48.797Z</time>
      </trkpt>
      <trkpt lat="45.58642" lon="5.54764">
        <ele>362</ele>
        <time>2023-02-14T10:36:49.797Z</time>
      </trkpt>
      <trkpt lat="45.58641" lon="5.54768">
        <ele>362</ele>
        <time>2023-02-14T10:36:50.797Z</time>
      </trkpt>
      <trkpt lat="45.58641" lon="5.54771">
        <ele>362</ele>
        <time>2023-02-14T10:36:51.797Z</time>
      </trkpt>
      <trkpt lat="45.5864" lon="5.54774">
        <ele>362</ele>
        <time>2023-02-14T10:36:52.797Z</time>
      </trkpt>
      <trkpt lat="45.58639" lon="5.54777">
        <ele>362</ele>
        <time>2023-02-14T10:36:53.797Z</time>
      </trkpt>
      <trkpt lat="45.58639" lon="5.5478">
        <ele>362</ele>
        <time>2023-02-14T10:36:54.797Z</time>
      </trkpt>
      <trkpt lat="45.58638" lon="5.54784">
        <ele>362</ele>
        <time>2023-02-14T10:36:55.797Z</time>
      </trkpt>
      <trkpt lat="45.58638" lon="5.54787">
        <ele>362</ele>
        <time>2023-02-14T10:36:56.797Z</time>
      </trkpt>
      <trkpt lat="45.58637" lon="5.5479">
        <ele>362</ele>
        <time>2023-02-14T10:36:57.797Z</time>
      </trkpt>
      <trkpt lat="45.58637" lon="5.54793">
        <ele>362</ele>
        <time>2023-02-14T10:36:58.797Z</time>
      </trkpt>
      <trkpt lat="45.58636" lon="5.54797">
        <ele>362</ele>
        <time>2023-02-14T10:36:59.797Z</time>
      </trkpt>
      <trkpt lat="45.58636" lon="5.548">
        <ele>362</ele>
        <time>2023-02-14T10:37:00.797Z</time>
      </trkpt>
      <trkpt lat="45.58635" lon="5.54803">
        <ele>362</ele>
        <time>2023-02-14T10:37:01.797Z</time>
      </trkpt>
      <trkpt lat="45.58634" lon="5.54807">
        <ele>362</ele>
        <time>2023-02-14T10:37:02.797Z</time>
      </trkpt>
      <trkpt lat="45.58634" lon="5.5481">
        <ele>362</ele>
        <time>2023-02-14T10:37:03.797Z</time>
      </trkpt>
      <trkpt lat="45.58633" lon="5.54814">
        <ele>363</ele>
        <time>2023-02-14T10:37:04.797Z</time>
      </trkpt>
      <trkpt lat="45.58632" lon="5.54817">
        <ele>363</ele>
        <time>2023-02-14T10:37:05.797Z</time>
      </trkpt>
      <trkpt lat="45.58632" lon="5.54821">
        <ele>363</ele>
        <time>2023-02-14T10:37:06.797Z</time>
      </trkpt>
      <trkpt lat="45.58631" lon="5.54824">
        <ele>363</ele>
        <time>2023-02-14T10:37:07.797Z</time>
      </trkpt>
      <trkpt lat="45.5863" lon="5.54828">
        <ele>362</ele>
        <time>2023-02-14T10:37:08.797Z</time>
      </trkpt>
      <trkpt lat="45.58629" lon="5.54832">
        <ele>362</ele>
        <time>2023-02-14T10:37:09.797Z</time>
      </trkpt>
      <trkpt lat="45.58628" lon="5.54836">
        <ele>362</ele>
        <time>2023-02-14T10:37:10.797Z</time>
      </trkpt>
      <trkpt lat="45.58628" lon="5.5484">
        <ele>362</ele>
        <time>2023-02-14T10:37:11.797Z</time>
      </trkpt>
      <trkpt lat="45.58627" lon="5.54844">
        <ele>362</ele>
        <time>2023-02-14T10:37:12.797Z</time>
      </trkpt>
      <trkpt lat="45.58626" lon="5.54849">
        <ele>362</ele>
        <time>2023-02-14T10:37:13.797Z</time>
      </trkpt>
      <trkpt lat="45.58626" lon="5.54853">
        <ele>362</ele>
        <time>2023-02-14T10:37:14.797Z</time>
      </trkpt>
      <trkpt lat="45.58625" lon="5.54857">
        <ele>362</ele>
        <time>2023-02-14T10:37:15.797Z</time>
      </trkpt>
      <trkpt lat="45.58624" lon="5.54861">
        <ele>362</ele>
        <time>2023-02-14T10:37:16.797Z</time>
      </trkpt>
      <trkpt lat="45.58624" lon="5.54865">
        <ele>362</ele>
        <time>2023-02-14T10:37:17.797Z</time>
      </trkpt>
      <trkpt lat="45.58623" lon="5.54869">
        <ele>362</ele>
        <time>2023-02-14T10:37:18.797Z</time>
      </trkpt>
      <trkpt lat="45.58622" lon="5.54873">
        <ele>362</ele>
        <time>2023-02-14T10:37:19.797Z</time>
      </trkpt>
      <trkpt lat="45.58622" lon="5.54877">
        <ele>362</ele>
        <time>2023-02-14T10:37:20.797Z</time>
      </trkpt>
      <trkpt lat="45.58621" lon="5.54882">
        <ele>362</ele>
        <time>2023-02-14T10:37:21.797Z</time>
      </trkpt>
      <trkpt lat="45.58621" lon="5.54886">
        <ele>362</ele>
        <time>2023-02-14T10:37:22.797Z</time>
      </trkpt>
      <trkpt lat="45.5862" lon="5.5489">
        <ele>362</ele>
        <time>2023-02-14T10:37:23.797Z</time>
      </trkpt>
      <trkpt lat="45.5862" lon="5.54894">
        <ele>361</ele>
        <time>2023-02-14T10:37:24.797Z</time>
      </trkpt>
      <trkpt lat="45.58619" lon="5.54897">
        <ele>361</ele>
        <time>2023-02-14T10:37:25.797Z</time>
      </trkpt>
      <trkpt lat="45.58618" lon="5.54901">
        <ele>361</ele>
        <time>2023-02-14T10:37:26.797Z</time>
      </trkpt>
      <trkpt lat="45.58617" lon="5.54905">
        <ele>361</ele>
        <time>2023-02-14T10:37:27.797Z</time>
      </trkpt>
      <trkpt lat="45.58616" lon="5.54909">
        <ele>361</ele>
        <time>2023-02-14T10:37:28.797Z</time>
      </trkpt>
      <trkpt lat="45.58614" lon="5.54913">
        <ele>361</ele>
        <time>2023-02-14T10:37:29.797Z</time>
      </trkpt>
      <trkpt lat="45.58613" lon="5.54917">
        <ele>361</ele>
        <time>2023-02-14T10:37:30.797Z</time>
      </trkpt>
      <trkpt lat="45.58612" lon="5.54921">
        <ele>361</ele>
        <time>2023-02-14T10:37:31.797Z</time>
      </trkpt>
      <trkpt lat="45.5861" lon="5.54925">
        <ele>361</ele>
        <time>2023-02-14T10:37:32.797Z</time>
      </trkpt>
      <trkpt lat="45.58609" lon="5.54929">
        <ele>361</ele>
        <time>2023-02-14T10:37:33.797Z</time>
      </trkpt>
      <trkpt lat="45.58607" lon="5.54932">
        <ele>361</ele>
        <time>2023-02-14T10:37:34.797Z</time>
      </trkpt>
      <trkpt lat="45.58606" lon="5.54936">
        <ele>361</ele>
        <time>2023-02-14T10:37:35.797Z</time>
      </trkpt>
      <trkpt lat="45.58604" lon="5.54939">
        <ele>361</ele>
        <time>2023-02-14T10:37:36.797Z</time>
      </trkpt>
      <trkpt lat="45.58603" lon="5.54943">
        <ele>360</ele>
        <time>2023-02-14T10:37:37.797Z</time>
      </trkpt>
      <trkpt lat="45.58601" lon="5.54946">
        <ele>360</ele>
        <time>2023-02-14T10:37:38.797Z</time>
      </trkpt>
      <trkpt lat="45.586" lon="5.5495">
        <ele>360</ele>
        <time>2023-02-14T10:37:39.797Z</time>
      </trkpt>
      <trkpt lat="45.58598" lon="5.54954">
        <ele>360</ele>
        <time>2023-02-14T10:37:40.797Z</time>
      </trkpt>
      <trkpt lat="45.58597" lon="5.54958">
        <ele>360</ele>
        <time>2023-02-14T10:37:41.797Z</time>
      </trkpt>
      <trkpt lat="45.58595" lon="5.54962">
        <ele>360</ele>
        <time>2023-02-14T10:37:42.797Z</time>
      </trkpt>
      <trkpt lat="45.58594" lon="5.54965">
        <ele>360</ele>
        <time>2023-02-14T10:37:43.797Z</time>
      </trkpt>
      <trkpt lat="45.58592" lon="5.54969">
        <ele>360</ele>
        <time>2023-02-14T10:37:44.797Z</time>
      </trkpt>
      <trkpt lat="45.58591" lon="5.54974">
        <ele>360</ele>
        <time>2023-02-14T10:37:45.797Z</time>
      </trkpt>
      <trkpt lat="45.58589" lon="5.54978">
        <ele>360</ele>
        <time>2023-02-14T10:37:46.797Z</time>
      </trkpt>
      <trkpt lat="45.58588" lon="5.54982">
        <ele>360</ele>
        <time>2023-02-14T10:37:47.797Z</time>
      </trkpt>
      <trkpt lat="45.58587" lon="5.54985">
        <ele>360</ele>
        <time>2023-02-14T10:37:48.797Z</time>
      </trkpt>
      <trkpt lat="45.58585" lon="5.54989">
        <ele>359</ele>
        <time>2023-02-14T10:37:49.797Z</time>
      </trkpt>
      <trkpt lat="45.58583" lon="5.54993">
        <ele>359</ele>
        <time>2023-02-14T10:37:50.797Z</time>
      </trkpt>
      <trkpt lat="45.58582" lon="5.54997">
        <ele>359</ele>
        <time>2023-02-14T10:37:51.797Z</time>
      </trkpt>
      <trkpt lat="45.5858" lon="5.55001">
        <ele>359</ele>
        <time>2023-02-14T10:37:52.797Z</time>
      </trkpt>
      <trkpt lat="45.58578" lon="5.55004">
        <ele>359</ele>
        <time>2023-02-14T10:37:53.797Z</time>
      </trkpt>
      <trkpt lat="45.58576" lon="5.55007">
        <ele>359</ele>
        <time>2023-02-14T10:37:54.797Z</time>
      </trkpt>
      <trkpt lat="45.58574" lon="5.5501">
        <ele>359</ele>
        <time>2023-02-14T10:37:55.797Z</time>
      </trkpt>
      <trkpt lat="45.58572" lon="5.55013">
        <ele>359</ele>
        <time>2023-02-14T10:37:56.797Z</time>
      </trkpt>
      <trkpt lat="45.58571" lon="5.55016">
        <ele>359</ele>
        <time>2023-02-14T10:37:57.797Z</time>
      </trkpt>
      <trkpt lat="45.5857" lon="5.55019">
        <ele>359</ele>
        <time>2023-02-14T10:37:58.797Z</time>
      </trkpt>
      <trkpt lat="45.58569" lon="5.55023">
        <ele>359</ele>
        <time>2023-02-14T10:37:59.797Z</time>
      </trkpt>
      <trkpt lat="45.58568" lon="5.55026">
        <ele>359</ele>
        <time>2023-02-14T10:38:00.797Z</time>
      </trkpt>
      <trkpt lat="45.58568" lon="5.55029">
        <ele>359</ele>
        <time>2023-02-14T10:38:01.797Z</time>
      </trkpt>
      <trkpt lat="45.58568" lon="5.55032">
        <ele>359</ele>
        <time>2023-02-14T10:38:02.797Z</time>
      </trkpt>
      <trkpt lat="45.58568" lon="5.55035">
        <ele>359</ele>
        <time>2023-02-14T10:38:03.797Z</time>
      </trkpt>
      <trkpt lat="45.58569" lon="5.55038">
        <ele>359</ele>
        <time>2023-02-14T10:38:04.797Z</time>
      </trkpt>
      <trkpt lat="45.5857" lon="5.55042">
        <ele>359</ele>
        <time>2023-02-14T10:38:05.797Z</time>
      </trkpt>
      <trkpt lat="45.58572" lon="5.55045">
        <ele>359</ele>
        <time>2023-02-14T10:38:06.797Z</time>
      </trkpt>
      <trkpt lat="45.58573" lon="5.55048">
        <ele>359</ele>
        <time>2023-02-14T10:38:07.797Z</time>
      </trkpt>
      <trkpt lat="45.58574" lon="5.55051">
        <ele>359</ele>
        <time>2023-02-14T10:38:08.797Z</time>
      </trkpt>
      <trkpt lat="45.58576" lon="5.55054">
        <ele>359</ele>
        <time>2023-02-14T10:38:09.797Z</time>
      </trkpt>
      <trkpt lat="45.58578" lon="5.55057">
        <ele>359</ele>
        <time>2023-02-14T10:38:10.797Z</time>
      </trkpt>
      <trkpt lat="45.58579" lon="5.55059">
        <ele>359</ele>
        <time>2023-02-14T10:38:11.797Z</time>
      </trkpt>
      <trkpt lat="45.58581" lon="5.55062">
        <ele>359</ele>
        <time>2023-02-14T10:38:12.797Z</time>
      </trkpt>
      <trkpt lat="45.58583" lon="5.55064">
        <ele>359</ele>
        <time>2023-02-14T10:38:13.797Z</time>
      </trkpt>
      <trkpt lat="45.58585" lon="5.55067">
        <ele>359</ele>
        <time>2023-02-14T10:38:14.797Z</time>
      </trkpt>
      <trkpt lat="45.58587" lon="5.5507">
        <ele>359</ele>
        <time>2023-02-14T10:38:15.797Z</time>
      </trkpt>
      <trkpt lat="45.58589" lon="5.55072">
        <ele>359</ele>
        <time>2023-02-14T10:38:16.797Z</time>
      </trkpt>
      <trkpt lat="45.58591" lon="5.55075">
        <ele>358</ele>
        <time>2023-02-14T10:38:17.797Z</time>
      </trkpt>
      <trkpt lat="45.58593" lon="5.55078">
        <ele>358</ele>
        <time>2023-02-14T10:38:18.797Z</time>
      </trkpt>
      <trkpt lat="45.58594" lon="5.55081">
        <ele>358</ele>
        <time>2023-02-14T10:38:19.797Z</time>
      </trkpt>
      <trkpt lat="45.58596" lon="5.55085">
        <ele>358</ele>
        <time>2023-02-14T10:38:20.797Z</time>
      </trkpt>
      <trkpt lat="45.58597" lon="5.55089">
        <ele>357</ele>
        <time>2023-02-14T10:38:21.797Z</time>
      </trkpt>
      <trkpt lat="45.58597" lon="5.55093">
        <ele>357</ele>
        <time>2023-02-14T10:38:22.797Z</time>
      </trkpt>
      <trkpt lat="45.58597" lon="5.55098">
        <ele>357</ele>
        <time>2023-02-14T10:38:23.797Z</time>
      </trkpt>
      <trkpt lat="45.58597" lon="5.55102">
        <ele>357</ele>
        <time>2023-02-14T10:38:24.797Z</time>
      </trkpt>
      <trkpt lat="45.58596" lon="5.55107">
        <ele>356</ele>
        <time>2023-02-14T10:38:25.797Z</time>
      </trkpt>
      <trkpt lat="45.58596" lon="5.55112">
        <ele>356</ele>
        <time>2023-02-14T10:38:26.797Z</time>
      </trkpt>
      <trkpt lat="45.58595" lon="5.55117">
        <ele>356</ele>
        <time>2023-02-14T10:38:27.797Z</time>
      </trkpt>
      <trkpt lat="45.58595" lon="5.55122">
        <ele>356</ele>
        <time>2023-02-14T10:38:28.797Z</time>
      </trkpt>
      <trkpt lat="45.58595" lon="5.55126">
        <ele>356</ele>
        <time>2023-02-14T10:38:29.797Z</time>
      </trkpt>
      <trkpt lat="45.58594" lon="5.55131">
        <ele>356</ele>
        <time>2023-02-14T10:38:30.797Z</time>
      </trkpt>
      <trkpt lat="45.58594" lon="5.55136">
        <ele>356</ele>
        <time>2023-02-14T10:38:31.797Z</time>
      </trkpt>
      <trkpt lat="45.58593" lon="5.55141">
        <ele>356</ele>
        <time>2023-02-14T10:38:32.797Z</time>
      </trkpt>
      <trkpt lat="45.58593" lon="5.55146">
        <ele>355</ele>
        <time>2023-02-14T10:38:33.797Z</time>
      </trkpt>
      <trkpt lat="45.58592" lon="5.55152">
        <ele>355</ele>
        <time>2023-02-14T10:38:34.797Z</time>
      </trkpt>
      <trkpt lat="45.58591" lon="5.55157">
        <ele>355</ele>
        <time>2023-02-14T10:38:35.797Z</time>
      </trkpt>
      <trkpt lat="45.58591" lon="5.55163">
        <ele>354</ele>
        <time>2023-02-14T10:38:36.797Z</time>
      </trkpt>
      <trkpt lat="45.5859" lon="5.55168">
        <ele>355</ele>
        <time>2023-02-14T10:38:37.797Z</time>
      </trkpt>
      <trkpt lat="45.5859" lon="5.55173">
        <ele>355</ele>
        <time>2023-02-14T10:38:38.797Z</time>
      </trkpt>
      <trkpt lat="45.5859" lon="5.55179">
        <ele>355</ele>
        <time>2023-02-14T10:38:39.797Z</time>
      </trkpt>
      <trkpt lat="45.58589" lon="5.55184">
        <ele>355</ele>
        <time>2023-02-14T10:38:40.797Z</time>
      </trkpt>
      <trkpt lat="45.58589" lon="5.55189">
        <ele>355</ele>
        <time>2023-02-14T10:38:41.797Z</time>
      </trkpt>
      <trkpt lat="45.58588" lon="5.55194">
        <ele>355</ele>
        <time>2023-02-14T10:38:42.797Z</time>
      </trkpt>
      <trkpt lat="45.58587" lon="5.552">
        <ele>355</ele>
        <time>2023-02-14T10:38:43.797Z</time>
      </trkpt>
      <trkpt lat="45.58586" lon="5.55204">
        <ele>355</ele>
        <time>2023-02-14T10:38:44.797Z</time>
      </trkpt>
      <trkpt lat="45.58586" lon="5.55209">
        <ele>355</ele>
        <time>2023-02-14T10:38:45.797Z</time>
      </trkpt>
      <trkpt lat="45.58585" lon="5.55214">
        <ele>355</ele>
        <time>2023-02-14T10:38:46.797Z</time>
      </trkpt>
      <trkpt lat="45.58585" lon="5.5522">
        <ele>355</ele>
        <time>2023-02-14T10:38:47.797Z</time>
      </trkpt>
      <trkpt lat="45.58584" lon="5.55225">
        <ele>355</ele>
        <time>2023-02-14T10:38:48.797Z</time>
      </trkpt>
      <trkpt lat="45.58583" lon="5.5523">
        <ele>355</ele>
        <time>2023-02-14T10:38:49.797Z</time>
      </trkpt>
      <trkpt lat="45.58582" lon="5.55234">
        <ele>355</ele>
        <time>2023-02-14T10:38:50.797Z</time>
      </trkpt>
      <trkpt lat="45.5858" lon="5.55238">
        <ele>355</ele>
        <time>2023-02-14T10:38:51.797Z</time>
      </trkpt>
      <trkpt lat="45.58578" lon="5.55239">
        <ele>355</ele>
        <time>2023-02-14T10:38:52.797Z</time>
      </trkpt>
      <trkpt lat="45.58575" lon="5.55239">
        <ele>354</ele>
        <time>2023-02-14T10:38:53.797Z</time>
      </trkpt>
      <trkpt lat="45.58572" lon="5.55239">
        <ele>354</ele>
        <time>2023-02-14T10:38:54.797Z</time>
      </trkpt>
      <trkpt lat="45.58569" lon="5.55238">
        <ele>354</ele>
        <time>2023-02-14T10:38:55.797Z</time>
      </trkpt>
      <trkpt lat="45.58567" lon="5.55237">
        <ele>354</ele>
        <time>2023-02-14T10:38:56.797Z</time>
      </trkpt>
      <trkpt lat="45.58564" lon="5.55237">
        <ele>354</ele>
        <time>2023-02-14T10:38:57.797Z</time>
      </trkpt>
      <trkpt lat="45.58561" lon="5.55236">
        <ele>353</ele>
        <time>2023-02-14T10:38:58.797Z</time>
      </trkpt>
      <trkpt lat="45.58558" lon="5.55235">
        <ele>353</ele>
        <time>2023-02-14T10:38:59.797Z</time>
      </trkpt>
      <trkpt lat="45.58554" lon="5.55234">
        <ele>352</ele>
        <time>2023-02-14T10:39:00.797Z</time>
      </trkpt>
      <trkpt lat="45.5855" lon="5.55233">
        <ele>350</ele>
        <time>2023-02-14T10:39:01.797Z</time>
      </trkpt>
      <trkpt lat="45.58546" lon="5.55232">
        <ele>348</ele>
        <time>2023-02-14T10:39:02.797Z</time>
      </trkpt>
      <trkpt lat="45.58542" lon="5.55232">
        <ele>347</ele>
        <time>2023-02-14T10:39:03.797Z</time>
      </trkpt>
      <trkpt lat="45.58538" lon="5.55232">
        <ele>346</ele>
        <time>2023-02-14T10:39:04.797Z</time>
      </trkpt>
      <trkpt lat="45.58533" lon="5.55232">
        <ele>347</ele>
        <time>2023-02-14T10:39:05.797Z</time>
      </trkpt>
      <trkpt lat="45.58526" lon="5.55231">
        <ele>347</ele>
        <time>2023-02-14T10:39:06.797Z</time>
      </trkpt>
      <trkpt lat="45.58517" lon="5.55226">
        <ele>345</ele>
        <time>2023-02-14T10:39:07.797Z</time>
      </trkpt>
      <trkpt lat="45.58509" lon="5.55221">
        <ele>343</ele>
        <time>2023-02-14T10:39:08.797Z</time>
      </trkpt>
      <trkpt lat="45.58502" lon="5.55214">
        <ele>342</ele>
        <time>2023-02-14T10:39:09.797Z</time>
      </trkpt>
      <trkpt lat="45.58494" lon="5.55208">
        <ele>341</ele>
        <time>2023-02-14T10:39:10.797Z</time>
      </trkpt>
      <trkpt lat="45.58486" lon="5.55201">
        <ele>340</ele>
        <time>2023-02-14T10:39:11.797Z</time>
      </trkpt>
      <trkpt lat="45.58479" lon="5.55195">
        <ele>339</ele>
        <time>2023-02-14T10:39:12.797Z</time>
      </trkpt>
      <trkpt lat="45.58471" lon="5.5519">
        <ele>339</ele>
        <time>2023-02-14T10:39:13.797Z</time>
      </trkpt>
      <trkpt lat="45.58463" lon="5.55185">
        <ele>339</ele>
        <time>2023-02-14T10:39:14.797Z</time>
      </trkpt>
      <trkpt lat="45.58455" lon="5.55181">
        <ele>339</ele>
        <time>2023-02-14T10:39:15.797Z</time>
      </trkpt>
      <trkpt lat="45.58446" lon="5.55176">
        <ele>338</ele>
        <time>2023-02-14T10:39:16.797Z</time>
      </trkpt>
      <trkpt lat="45.58439" lon="5.55171">
        <ele>338</ele>
        <time>2023-02-14T10:39:17.797Z</time>
      </trkpt>
      <trkpt lat="45.58432" lon="5.55164">
        <ele>338</ele>
        <time>2023-02-14T10:39:18.797Z</time>
      </trkpt>
      <trkpt lat="45.58426" lon="5.55156">
        <ele>337</ele>
        <time>2023-02-14T10:39:19.797Z</time>
      </trkpt>
      <trkpt lat="45.58421" lon="5.55147">
        <ele>336</ele>
        <time>2023-02-14T10:39:20.797Z</time>
      </trkpt>
      <trkpt lat="45.58416" lon="5.55137">
        <ele>335</ele>
        <time>2023-02-14T10:39:21.797Z</time>
      </trkpt>
      <trkpt lat="45.58412" lon="5.55127">
        <ele>335</ele>
        <time>2023-02-14T10:39:22.797Z</time>
      </trkpt>
      <trkpt lat="45.58408" lon="5.55117">
        <ele>336</ele>
        <time>2023-02-14T10:39:23.797Z</time>
      </trkpt>
      <trkpt lat="45.58405" lon="5.55107">
        <ele>335</ele>
        <time>2023-02-14T10:39:24.797Z</time>
      </trkpt>
      <trkpt lat="45.58401" lon="5.55098">
        <ele>335</ele>
        <time>2023-02-14T10:39:25.797Z</time>
      </trkpt>
      <trkpt lat="45.58398" lon="5.55089">
        <ele>335</ele>
        <time>2023-02-14T10:39:26.797Z</time>
      </trkpt>
      <trkpt lat="45.58394" lon="5.5508">
        <ele>336</ele>
        <time>2023-02-14T10:39:27.797Z</time>
      </trkpt>
      <trkpt lat="45.5839" lon="5.5507">
        <ele>335</ele>
        <time>2023-02-14T10:39:28.797Z</time>
      </trkpt>
      <trkpt lat="45.58388" lon="5.5506">
        <ele>335</ele>
        <time>2023-02-14T10:39:29.797Z</time>
      </trkpt>
      <trkpt lat="45.58385" lon="5.5505">
        <ele>335</ele>
        <time>2023-02-14T10:39:30.797Z</time>
      </trkpt>
      <trkpt lat="45.58383" lon="5.5504">
        <ele>335</ele>
        <time>2023-02-14T10:39:31.797Z</time>
      </trkpt>
      <trkpt lat="45.58379" lon="5.55032">
        <ele>336</ele>
        <time>2023-02-14T10:39:32.797Z</time>
      </trkpt>
      <trkpt lat="45.58374" lon="5.55024">
        <ele>335</ele>
        <time>2023-02-14T10:39:33.797Z</time>
      </trkpt>
      <trkpt lat="45.58369" lon="5.55018">
        <ele>334</ele>
        <time>2023-02-14T10:39:34.797Z</time>
      </trkpt>
      <trkpt lat="45.58364" lon="5.55013">
        <ele>335</ele>
        <time>2023-02-14T10:39:35.797Z</time>
      </trkpt>
      <trkpt lat="45.58358" lon="5.55009">
        <ele>335</ele>
        <time>2023-02-14T10:39:36.797Z</time>
      </trkpt>
      <trkpt lat="45.58352" lon="5.55005">
        <ele>334</ele>
        <time>2023-02-14T10:39:37.797Z</time>
      </trkpt>
      <trkpt lat="45.58347" lon="5.55002">
        <ele>335</ele>
        <time>2023-02-14T10:39:38.797Z</time>
      </trkpt>
      <trkpt lat="45.58341" lon="5.55">
        <ele>335</ele>
        <time>2023-02-14T10:39:39.797Z</time>
      </trkpt>
      <trkpt lat="45.58336" lon="5.54999">
        <ele>335</ele>
        <time>2023-02-14T10:39:40.797Z</time>
      </trkpt>
      <trkpt lat="45.58331" lon="5.54997">
        <ele>335</ele>
        <time>2023-02-14T10:39:41.797Z</time>
      </trkpt>
      <trkpt lat="45.58326" lon="5.54996">
        <ele>335</ele>
        <time>2023-02-14T10:39:42.797Z</time>
      </trkpt>
      <trkpt lat="45.58321" lon="5.54994">
        <ele>335</ele>
        <time>2023-02-14T10:39:43.797Z</time>
      </trkpt>
      <trkpt lat="45.58316" lon="5.54993">
        <ele>335</ele>
        <time>2023-02-14T10:39:44.797Z</time>
      </trkpt>
      <trkpt lat="45.58311" lon="5.54992">
        <ele>335</ele>
        <time>2023-02-14T10:39:45.797Z</time>
      </trkpt>
      <trkpt lat="45.58307" lon="5.54991">
        <ele>336</ele>
        <time>2023-02-14T10:39:46.797Z</time>
      </trkpt>
      <trkpt lat="45.58303" lon="5.5499">
        <ele>336</ele>
        <time>2023-02-14T10:39:47.797Z</time>
      </trkpt>
      <trkpt lat="45.583" lon="5.54989">
        <ele>337</ele>
        <time>2023-02-14T10:39:48.797Z</time>
      </trkpt>
      <trkpt lat="45.58296" lon="5.54988">
        <ele>337</ele>
        <time>2023-02-14T10:39:49.797Z</time>
      </trkpt>
      <trkpt lat="45.58294" lon="5.54987">
        <ele>336</ele>
        <time>2023-02-14T10:39:50.797Z</time>
      </trkpt>
      <trkpt lat="45.58291" lon="5.54986">
        <ele>337</ele>
        <time>2023-02-14T10:39:51.797Z</time>
      </trkpt>
      <trkpt lat="45.58288" lon="5.54985">
        <ele>337</ele>
        <time>2023-02-14T10:39:52.797Z</time>
      </trkpt>
      <trkpt lat="45.58286" lon="5.54984">
        <ele>337</ele>
        <time>2023-02-14T10:39:53.797Z</time>
      </trkpt>
      <trkpt lat="45.58283" lon="5.54984">
        <ele>338</ele>
        <time>2023-02-14T10:39:54.797Z</time>
      </trkpt>
      <trkpt lat="45.58281" lon="5.54983">
        <ele>338</ele>
        <time>2023-02-14T10:39:55.797Z</time>
      </trkpt>
      <trkpt lat="45.58278" lon="5.54982">
        <ele>338</ele>
        <time>2023-02-14T10:39:56.797Z</time>
      </trkpt>
      <trkpt lat="45.58276" lon="5.54981">
        <ele>338</ele>
        <time>2023-02-14T10:39:57.797Z</time>
      </trkpt>
      <trkpt lat="45.58274" lon="5.5498">
        <ele>338</ele>
        <time>2023-02-14T10:39:58.797Z</time>
      </trkpt>
      <trkpt lat="45.58272" lon="5.54979">
        <ele>338</ele>
        <time>2023-02-14T10:39:59.797Z</time>
      </trkpt>
      <trkpt lat="45.5827" lon="5.54977">
        <ele>339</ele>
        <time>2023-02-14T10:40:00.797Z</time>
      </trkpt>
      <trkpt lat="45.58268" lon="5.54975">
        <ele>339</ele>
        <time>2023-02-14T10:40:01.797Z</time>
      </trkpt>
      <trkpt lat="45.58267" lon="5.54973">
        <ele>339</ele>
        <time>2023-02-14T10:40:02.797Z</time>
      </trkpt>
      <trkpt lat="45.58266" lon="5.5497">
        <ele>339</ele>
        <time>2023-02-14T10:40:03.797Z</time>
      </trkpt>
      <trkpt lat="45.58265" lon="5.54967">
        <ele>339</ele>
        <time>2023-02-14T10:40:04.797Z</time>
      </trkpt>
      <trkpt lat="45.58265" lon="5.54963">
        <ele>339</ele>
        <time>2023-02-14T10:40:05.797Z</time>
      </trkpt>
      <trkpt lat="45.58265" lon="5.5496">
        <ele>339</ele>
        <time>2023-02-14T10:40:06.797Z</time>
      </trkpt>
      <trkpt lat="45.58266" lon="5.54956">
        <ele>339</ele>
        <time>2023-02-14T10:40:07.797Z</time>
      </trkpt>
      <trkpt lat="45.58266" lon="5.54953">
        <ele>339</ele>
        <time>2023-02-14T10:40:08.797Z</time>
      </trkpt>
      <trkpt lat="45.58267" lon="5.5495">
        <ele>339</ele>
        <time>2023-02-14T10:40:09.797Z</time>
      </trkpt>
      <trkpt lat="45.58267" lon="5.54947">
        <ele>339</ele>
        <time>2023-02-14T10:40:10.797Z</time>
      </trkpt>
      <trkpt lat="45.58267" lon="5.54943">
        <ele>339</ele>
        <time>2023-02-14T10:40:11.797Z</time>
      </trkpt>
      <trkpt lat="45.58267" lon="5.5494">
        <ele>339</ele>
        <time>2023-02-14T10:40:12.797Z</time>
      </trkpt>
      <trkpt lat="45.58268" lon="5.54936">
        <ele>339</ele>
        <time>2023-02-14T10:40:13.797Z</time>
      </trkpt>
      <trkpt lat="45.58268" lon="5.54933">
        <ele>339</ele>
        <time>2023-02-14T10:40:14.797Z</time>
      </trkpt>
      <trkpt lat="45.58268" lon="5.54929">
        <ele>339</ele>
        <time>2023-02-14T10:40:15.797Z</time>
      </trkpt>
      <trkpt lat="45.58269" lon="5.54925">
        <ele>339</ele>
        <time>2023-02-14T10:40:16.797Z</time>
      </trkpt>
      <trkpt lat="45.58269" lon="5.54921">
        <ele>339</ele>
        <time>2023-02-14T10:40:17.797Z</time>
      </trkpt>
      <trkpt lat="45.5827" lon="5.54916">
        <ele>339</ele>
        <time>2023-02-14T10:40:18.797Z</time>
      </trkpt>
      <trkpt lat="45.5827" lon="5.54912">
        <ele>339</ele>
        <time>2023-02-14T10:40:19.797Z</time>
      </trkpt>
      <trkpt lat="45.58271" lon="5.54908">
        <ele>339</ele>
        <time>2023-02-14T10:40:20.797Z</time>
      </trkpt>
      <trkpt lat="45.58271" lon="5.54903">
        <ele>339</ele>
        <time>2023-02-14T10:40:21.797Z</time>
      </trkpt>
      <trkpt lat="45.58272" lon="5.54899">
        <ele>339</ele>
        <time>2023-02-14T10:40:22.797Z</time>
      </trkpt>
      <trkpt lat="45.58273" lon="5.54894">
        <ele>339</ele>
        <time>2023-02-14T10:40:23.797Z</time>
      </trkpt>
      <trkpt lat="45.58274" lon="5.54889">
        <ele>339</ele>
        <time>2023-02-14T10:40:24.797Z</time>
      </trkpt>
      <trkpt lat="45.58275" lon="5.54884">
        <ele>339</ele>
        <time>2023-02-14T10:40:25.797Z</time>
      </trkpt>
      <trkpt lat="45.58276" lon="5.54879">
        <ele>340</ele>
        <time>2023-02-14T10:40:26.797Z</time>
      </trkpt>
      <trkpt lat="45.58277" lon="5.54875">
        <ele>340</ele>
        <time>2023-02-14T10:40:27.797Z</time>
      </trkpt>
      <trkpt lat="45.58278" lon="5.5487">
        <ele>340</ele>
        <time>2023-02-14T10:40:28.797Z</time>
      </trkpt>
      <trkpt lat="45.58279" lon="5.54866">
        <ele>340</ele>
        <time>2023-02-14T10:40:29.797Z</time>
      </trkpt>
      <trkpt lat="45.5828" lon="5.54862">
        <ele>340</ele>
        <time>2023-02-14T10:40:30.797Z</time>
      </trkpt>
      <trkpt lat="45.58281" lon="5.54858">
        <ele>340</ele>
        <time>2023-02-14T10:40:31.797Z</time>
      </trkpt>
      <trkpt lat="45.58283" lon="5.54854">
        <ele>340</ele>
        <time>2023-02-14T10:40:32.797Z</time>
      </trkpt>
      <trkpt lat="45.58284" lon="5.5485">
        <ele>340</ele>
        <time>2023-02-14T10:40:33.797Z</time>
      </trkpt>
      <trkpt lat="45.58286" lon="5.54846">
        <ele>340</ele>
        <time>2023-02-14T10:40:34.797Z</time>
      </trkpt>
      <trkpt lat="45.58287" lon="5.54842">
        <ele>340</ele>
        <time>2023-02-14T10:40:35.797Z</time>
      </trkpt>
      <trkpt lat="45.58289" lon="5.54838">
        <ele>340</ele>
        <time>2023-02-14T10:40:36.797Z</time>
      </trkpt>
      <trkpt lat="45.5829" lon="5.54833">
        <ele>340</ele>
        <time>2023-02-14T10:40:37.797Z</time>
      </trkpt>
      <trkpt lat="45.58291" lon="5.54829">
        <ele>340</ele>
        <time>2023-02-14T10:40:38.797Z</time>
      </trkpt>
      <trkpt lat="45.58292" lon="5.54825">
        <ele>340</ele>
        <time>2023-02-14T10:40:39.797Z</time>
      </trkpt>
      <trkpt lat="45.58294" lon="5.5482">
        <ele>340</ele>
        <time>2023-02-14T10:40:40.797Z</time>
      </trkpt>
      <trkpt lat="45.58295" lon="5.54816">
        <ele>340</ele>
        <time>2023-02-14T10:40:41.797Z</time>
      </trkpt>
      <trkpt lat="45.58297" lon="5.54811">
        <ele>340</ele>
        <time>2023-02-14T10:40:42.797Z</time>
      </trkpt>
      <trkpt lat="45.58297" lon="5.54806">
        <ele>340</ele>
        <time>2023-02-14T10:40:43.797Z</time>
      </trkpt>
      <trkpt lat="45.58297" lon="5.548">
        <ele>341</ele>
        <time>2023-02-14T10:40:44.797Z</time>
      </trkpt>
      <trkpt lat="45.58297" lon="5.54794">
        <ele>341</ele>
        <time>2023-02-14T10:40:45.797Z</time>
      </trkpt>
      <trkpt lat="45.58297" lon="5.54788">
        <ele>341</ele>
        <time>2023-02-14T10:40:46.797Z</time>
      </trkpt>
      <trkpt lat="45.58296" lon="5.54782">
        <ele>341</ele>
        <time>2023-02-14T10:40:47.797Z</time>
      </trkpt>
      <trkpt lat="45.58296" lon="5.54775">
        <ele>340</ele>
        <time>2023-02-14T10:40:48.797Z</time>
      </trkpt>
      <trkpt lat="45.58297" lon="5.54769">
        <ele>340</ele>
        <time>2023-02-14T10:40:49.797Z</time>
      </trkpt>
      <trkpt lat="45.58297" lon="5.54763">
        <ele>340</ele>
        <time>2023-02-14T10:40:50.797Z</time>
      </trkpt>
      <trkpt lat="45.58297" lon="5.54757">
        <ele>340</ele>
        <time>2023-02-14T10:40:51.797Z</time>
      </trkpt>
      <trkpt lat="45.58297" lon="5.5475">
        <ele>340</ele>
        <time>2023-02-14T10:40:52.797Z</time>
      </trkpt>
      <trkpt lat="45.58297" lon="5.54744">
        <ele>339</ele>
        <time>2023-02-14T10:40:53.797Z</time>
      </trkpt>
      <trkpt lat="45.58297" lon="5.54738">
        <ele>339</ele>
        <time>2023-02-14T10:40:54.797Z</time>
      </trkpt>
      <trkpt lat="45.58297" lon="5.54731">
        <ele>339</ele>
        <time>2023-02-14T10:40:55.797Z</time>
      </trkpt>
      <trkpt lat="45.58297" lon="5.54724">
        <ele>339</ele>
        <time>2023-02-14T10:40:56.797Z</time>
      </trkpt>
      <trkpt lat="45.58298" lon="5.54718">
        <ele>339</ele>
        <time>2023-02-14T10:40:57.797Z</time>
      </trkpt>
      <trkpt lat="45.58298" lon="5.54711">
        <ele>339</ele>
        <time>2023-02-14T10:40:58.797Z</time>
      </trkpt>
      <trkpt lat="45.58298" lon="5.54705">
        <ele>339</ele>
        <time>2023-02-14T10:40:59.797Z</time>
      </trkpt>
      <trkpt lat="45.58299" lon="5.54698">
        <ele>338</ele>
        <time>2023-02-14T10:41:00.797Z</time>
      </trkpt>
      <trkpt lat="45.58299" lon="5.5469">
        <ele>338</ele>
        <time>2023-02-14T10:41:01.797Z</time>
      </trkpt>
      <trkpt lat="45.583" lon="5.54683">
        <ele>338</ele>
        <time>2023-02-14T10:41:02.797Z</time>
      </trkpt>
      <trkpt lat="45.58301" lon="5.54675">
        <ele>339</ele>
        <time>2023-02-14T10:41:03.797Z</time>
      </trkpt>
      <trkpt lat="45.58301" lon="5.54667">
        <ele>339</ele>
        <time>2023-02-14T10:41:04.797Z</time>
      </trkpt>
      <trkpt lat="45.58302" lon="5.54659">
        <ele>338</ele>
        <time>2023-02-14T10:41:05.797Z</time>
      </trkpt>
      <trkpt lat="45.58303" lon="5.54652">
        <ele>338</ele>
        <time>2023-02-14T10:41:06.797Z</time>
      </trkpt>
      <trkpt lat="45.58304" lon="5.54644">
        <ele>338</ele>
        <time>2023-02-14T10:41:07.797Z</time>
      </trkpt>
      <trkpt lat="45.58305" lon="5.54637">
        <ele>337</ele>
        <time>2023-02-14T10:41:08.797Z</time>
      </trkpt>
      <trkpt lat="45.58306" lon="5.54629">
        <ele>337</ele>
        <time>2023-02-14T10:41:09.797Z</time>
      </trkpt>
      <trkpt lat="45.58307" lon="5.54621">
        <ele>337</ele>
        <time>2023-02-14T10:41:10.797Z</time>
      </trkpt>
      <trkpt lat="45.58308" lon="5.54613">
        <ele>337</ele>
        <time>2023-02-14T10:41:11.797Z</time>
      </trkpt>
      <trkpt lat="45.58309" lon="5.54604">
        <ele>336</ele>
        <time>2023-02-14T10:41:12.797Z</time>
      </trkpt>
      <trkpt lat="45.58309" lon="5.54597">
        <ele>335</ele>
        <time>2023-02-14T10:41:13.797Z</time>
      </trkpt>
      <trkpt lat="45.58308" lon="5.5459">
        <ele>334</ele>
        <time>2023-02-14T10:41:14.797Z</time>
      </trkpt>
      <trkpt lat="45.58305" lon="5.54585">
        <ele>333</ele>
        <time>2023-02-14T10:41:15.797Z</time>
      </trkpt>
      <trkpt lat="45.58301" lon="5.54581">
        <ele>331</ele>
        <time>2023-02-14T10:41:16.797Z</time>
      </trkpt>
      <trkpt lat="45.58298" lon="5.5458">
        <ele>331</ele>
        <time>2023-02-14T10:41:17.797Z</time>
      </trkpt>
      <trkpt lat="45.58294" lon="5.54579">
        <ele>331</ele>
        <time>2023-02-14T10:41:18.797Z</time>
      </trkpt>
      <trkpt lat="45.58291" lon="5.54579">
        <ele>331</ele>
        <time>2023-02-14T10:41:19.797Z</time>
      </trkpt>
      <trkpt lat="45.58288" lon="5.54579">
        <ele>331</ele>
        <time>2023-02-14T10:41:20.797Z</time>
      </trkpt>
      <trkpt lat="45.58284" lon="5.54579">
        <ele>332</ele>
        <time>2023-02-14T10:41:21.797Z</time>
      </trkpt>
      <trkpt lat="45.58281" lon="5.54579">
        <ele>332</ele>
        <time>2023-02-14T10:41:22.797Z</time>
      </trkpt>
      <trkpt lat="45.58278" lon="5.54579">
        <ele>332</ele>
        <time>2023-02-14T10:41:23.797Z</time>
      </trkpt>
      <trkpt lat="45.58274" lon="5.54579">
        <ele>332</ele>
        <time>2023-02-14T10:41:24.797Z</time>
      </trkpt>
      <trkpt lat="45.58271" lon="5.54579">
        <ele>332</ele>
        <time>2023-02-14T10:41:25.797Z</time>
      </trkpt>
      <trkpt lat="45.58268" lon="5.5458">
        <ele>332</ele>
        <time>2023-02-14T10:41:26.797Z</time>
      </trkpt>
      <trkpt lat="45.58264" lon="5.5458">
        <ele>333</ele>
        <time>2023-02-14T10:41:27.797Z</time>
      </trkpt>
      <trkpt lat="45.58261" lon="5.5458">
        <ele>333</ele>
        <time>2023-02-14T10:41:28.797Z</time>
      </trkpt>
      <trkpt lat="45.58258" lon="5.5458">
        <ele>333</ele>
        <time>2023-02-14T10:41:29.797Z</time>
      </trkpt>
      <trkpt lat="45.58254" lon="5.54581">
        <ele>333</ele>
        <time>2023-02-14T10:41:30.797Z</time>
      </trkpt>
      <trkpt lat="45.5825" lon="5.54581">
        <ele>333</ele>
        <time>2023-02-14T10:41:31.797Z</time>
      </trkpt>
      <trkpt lat="45.58247" lon="5.54581">
        <ele>334</ele>
        <time>2023-02-14T10:41:32.797Z</time>
      </trkpt>
      <trkpt lat="45.58243" lon="5.54581">
        <ele>334</ele>
        <time>2023-02-14T10:41:33.797Z</time>
      </trkpt>
      <trkpt lat="45.5824" lon="5.54582">
        <ele>334</ele>
        <time>2023-02-14T10:41:34.797Z</time>
      </trkpt>
      <trkpt lat="45.58236" lon="5.54582">
        <ele>334</ele>
        <time>2023-02-14T10:41:35.797Z</time>
      </trkpt>
      <trkpt lat="45.58232" lon="5.54582">
        <ele>335</ele>
        <time>2023-02-14T10:41:36.797Z</time>
      </trkpt>
      <trkpt lat="45.58229" lon="5.54582">
        <ele>335</ele>
        <time>2023-02-14T10:41:37.797Z</time>
      </trkpt>
      <trkpt lat="45.58225" lon="5.54582">
        <ele>335</ele>
        <time>2023-02-14T10:41:38.797Z</time>
      </trkpt>
      <trkpt lat="45.58222" lon="5.54583">
        <ele>335</ele>
        <time>2023-02-14T10:41:39.797Z</time>
      </trkpt>
      <trkpt lat="45.58218" lon="5.54583">
        <ele>335</ele>
        <time>2023-02-14T10:41:40.797Z</time>
      </trkpt>
      <trkpt lat="45.58215" lon="5.54583">
        <ele>336</ele>
        <time>2023-02-14T10:41:41.797Z</time>
      </trkpt>
      <trkpt lat="45.58212" lon="5.54583">
        <ele>336</ele>
        <time>2023-02-14T10:41:42.797Z</time>
      </trkpt>
      <trkpt lat="45.58209" lon="5.54583">
        <ele>336</ele>
        <time>2023-02-14T10:41:43.797Z</time>
      </trkpt>
      <trkpt lat="45.58206" lon="5.54583">
        <ele>336</ele>
        <time>2023-02-14T10:41:44.797Z</time>
      </trkpt>
      <trkpt lat="45.58203" lon="5.54583">
        <ele>336</ele>
        <time>2023-02-14T10:41:45.797Z</time>
      </trkpt>
      <trkpt lat="45.582" lon="5.54584">
        <ele>336</ele>
        <time>2023-02-14T10:41:46.797Z</time>
      </trkpt>
      <trkpt lat="45.58197" lon="5.54584">
        <ele>337</ele>
        <time>2023-02-14T10:41:47.797Z</time>
      </trkpt>
      <trkpt lat="45.58194" lon="5.54585">
        <ele>337</ele>
        <time>2023-02-14T10:41:48.797Z</time>
      </trkpt>
      <trkpt lat="45.58191" lon="5.54585">
        <ele>337</ele>
        <time>2023-02-14T10:41:49.797Z</time>
      </trkpt>
      <trkpt lat="45.58188" lon="5.54585">
        <ele>338</ele>
        <time>2023-02-14T10:41:50.797Z</time>
      </trkpt>
      <trkpt lat="45.58185" lon="5.54585">
        <ele>338</ele>
        <time>2023-02-14T10:41:51.797Z</time>
      </trkpt>
      <trkpt lat="45.58182" lon="5.54585">
        <ele>338</ele>
        <time>2023-02-14T10:41:52.797Z</time>
      </trkpt>
      <trkpt lat="45.58179" lon="5.54585">
        <ele>338</ele>
        <time>2023-02-14T10:41:53.797Z</time>
      </trkpt>
      <trkpt lat="45.58176" lon="5.54585">
        <ele>339</ele>
        <time>2023-02-14T10:41:54.797Z</time>
      </trkpt>
      <trkpt lat="45.58173" lon="5.54586">
        <ele>339</ele>
        <time>2023-02-14T10:41:55.797Z</time>
      </trkpt>
      <trkpt lat="45.5817" lon="5.54586">
        <ele>339</ele>
        <time>2023-02-14T10:41:56.797Z</time>
      </trkpt>
      <trkpt lat="45.58166" lon="5.54586">
        <ele>339</ele>
        <time>2023-02-14T10:41:57.797Z</time>
      </trkpt>
      <trkpt lat="45.58163" lon="5.54586">
        <ele>339</ele>
        <time>2023-02-14T10:41:58.797Z</time>
      </trkpt>
      <trkpt lat="45.5816" lon="5.54587">
        <ele>339</ele>
        <time>2023-02-14T10:41:59.797Z</time>
      </trkpt>
      <trkpt lat="45.58156" lon="5.54587">
        <ele>340</ele>
        <time>2023-02-14T10:42:00.797Z</time>
      </trkpt>
      <trkpt lat="45.58153" lon="5.54588">
        <ele>340</ele>
        <time>2023-02-14T10:42:01.797Z</time>
      </trkpt>
      <trkpt lat="45.5815" lon="5.54588">
        <ele>340</ele>
        <time>2023-02-14T10:42:02.797Z</time>
      </trkpt>
      <trkpt lat="45.58147" lon="5.54589">
        <ele>340</ele>
        <time>2023-02-14T10:42:03.797Z</time>
      </trkpt>
      <trkpt lat="45.58144" lon="5.5459">
        <ele>340</ele>
        <time>2023-02-14T10:42:04.797Z</time>
      </trkpt>
      <trkpt lat="45.58141" lon="5.54591">
        <ele>340</ele>
        <time>2023-02-14T10:42:05.797Z</time>
      </trkpt>
      <trkpt lat="45.58138" lon="5.54593">
        <ele>341</ele>
        <time>2023-02-14T10:42:06.797Z</time>
      </trkpt>
      <trkpt lat="45.58135" lon="5.54596">
        <ele>341</ele>
        <time>2023-02-14T10:42:07.797Z</time>
      </trkpt>
      <trkpt lat="45.58133" lon="5.54599">
        <ele>341</ele>
        <time>2023-02-14T10:42:08.797Z</time>
      </trkpt>
      <trkpt lat="45.58131" lon="5.54603">
        <ele>341</ele>
        <time>2023-02-14T10:42:09.797Z</time>
      </trkpt>
      <trkpt lat="45.58129" lon="5.54607">
        <ele>341</ele>
        <time>2023-02-14T10:42:10.797Z</time>
      </trkpt>
      <trkpt lat="45.58127" lon="5.54612">
        <ele>341</ele>
        <time>2023-02-14T10:42:11.797Z</time>
      </trkpt>
      <trkpt lat="45.58126" lon="5.54616">
        <ele>341</ele>
        <time>2023-02-14T10:42:12.797Z</time>
      </trkpt>
      <trkpt lat="45.58124" lon="5.5462">
        <ele>341</ele>
        <time>2023-02-14T10:42:13.797Z</time>
      </trkpt>
      <trkpt lat="45.58122" lon="5.54624">
        <ele>341</ele>
        <time>2023-02-14T10:42:14.797Z</time>
      </trkpt>
      <trkpt lat="45.58121" lon="5.54628">
        <ele>341</ele>
        <time>2023-02-14T10:42:15.797Z</time>
      </trkpt>
      <trkpt lat="45.58119" lon="5.54633">
        <ele>341</ele>
        <time>2023-02-14T10:42:16.797Z</time>
      </trkpt>
      <trkpt lat="45.58117" lon="5.54637">
        <ele>341</ele>
        <time>2023-02-14T10:42:17.797Z</time>
      </trkpt>
      <trkpt lat="45.58116" lon="5.54642">
        <ele>342</ele>
        <time>2023-02-14T10:42:18.797Z</time>
      </trkpt>
      <trkpt lat="45.58114" lon="5.54646">
        <ele>342</ele>
        <time>2023-02-14T10:42:19.797Z</time>
      </trkpt>
      <trkpt lat="45.58112" lon="5.54651">
        <ele>342</ele>
        <time>2023-02-14T10:42:20.797Z</time>
      </trkpt>
      <trkpt lat="45.5811" lon="5.54655">
        <ele>342</ele>
        <time>2023-02-14T10:42:21.797Z</time>
      </trkpt>
      <trkpt lat="45.58109" lon="5.5466">
        <ele>342</ele>
        <time>2023-02-14T10:42:22.797Z</time>
      </trkpt>
      <trkpt lat="45.58107" lon="5.54664">
        <ele>342</ele>
        <time>2023-02-14T10:42:23.797Z</time>
      </trkpt>
      <trkpt lat="45.58106" lon="5.54669">
        <ele>342</ele>
        <time>2023-02-14T10:42:24.797Z</time>
      </trkpt>
      <trkpt lat="45.58104" lon="5.54673">
        <ele>342</ele>
        <time>2023-02-14T10:42:25.797Z</time>
      </trkpt>
      <trkpt lat="45.58102" lon="5.54678">
        <ele>342</ele>
        <time>2023-02-14T10:42:26.797Z</time>
      </trkpt>
      <trkpt lat="45.581" lon="5.54682">
        <ele>341</ele>
        <time>2023-02-14T10:42:27.797Z</time>
      </trkpt>
      <trkpt lat="45.58099" lon="5.54687">
        <ele>341</ele>
        <time>2023-02-14T10:42:28.797Z</time>
      </trkpt>
      <trkpt lat="45.58097" lon="5.54692">
        <ele>341</ele>
        <time>2023-02-14T10:42:29.797Z</time>
      </trkpt>
      <trkpt lat="45.58095" lon="5.54697">
        <ele>341</ele>
        <time>2023-02-14T10:42:30.797Z</time>
      </trkpt>
      <trkpt lat="45.58093" lon="5.54701">
        <ele>341</ele>
        <time>2023-02-14T10:42:31.797Z</time>
      </trkpt>
      <trkpt lat="45.58091" lon="5.54706">
        <ele>341</ele>
        <time>2023-02-14T10:42:32.797Z</time>
      </trkpt>
      <trkpt lat="45.58089" lon="5.5471">
        <ele>340</ele>
        <time>2023-02-14T10:42:33.797Z</time>
      </trkpt>
      <trkpt lat="45.58087" lon="5.54714">
        <ele>341</ele>
        <time>2023-02-14T10:42:34.797Z</time>
      </trkpt>
      <trkpt lat="45.58084" lon="5.54718">
        <ele>341</ele>
        <time>2023-02-14T10:42:35.797Z</time>
      </trkpt>
      <trkpt lat="45.58082" lon="5.54722">
        <ele>341</ele>
        <time>2023-02-14T10:42:36.797Z</time>
      </trkpt>
      <trkpt lat="45.58078" lon="5.54725">
        <ele>341</ele>
        <time>2023-02-14T10:42:37.797Z</time>
      </trkpt>
      <trkpt lat="45.58075" lon="5.54728">
        <ele>341</ele>
        <time>2023-02-14T10:42:38.797Z</time>
      </trkpt>
      <trkpt lat="45.58071" lon="5.54731">
        <ele>341</ele>
        <time>2023-02-14T10:42:39.797Z</time>
      </trkpt>
      <trkpt lat="45.58067" lon="5.54732">
        <ele>341</ele>
        <time>2023-02-14T10:42:40.797Z</time>
      </trkpt>
      <trkpt lat="45.58062" lon="5.54733">
        <ele>341</ele>
        <time>2023-02-14T10:42:41.797Z</time>
      </trkpt>
      <trkpt lat="45.58058" lon="5.54733">
        <ele>340</ele>
        <time>2023-02-14T10:42:42.797Z</time>
      </trkpt>
      <trkpt lat="45.58053" lon="5.54733">
        <ele>340</ele>
        <time>2023-02-14T10:42:43.797Z</time>
      </trkpt>
      <trkpt lat="45.58048" lon="5.54732">
        <ele>340</ele>
        <time>2023-02-14T10:42:44.797Z</time>
      </trkpt>
      <trkpt lat="45.58043" lon="5.54731">
        <ele>340</ele>
        <time>2023-02-14T10:42:45.797Z</time>
      </trkpt>
      <trkpt lat="45.58038" lon="5.5473">
        <ele>340</ele>
        <time>2023-02-14T10:42:46.797Z</time>
      </trkpt>
      <trkpt lat="45.58033" lon="5.54729">
        <ele>340</ele>
        <time>2023-02-14T10:42:47.797Z</time>
      </trkpt>
      <trkpt lat="45.58027" lon="5.54728">
        <ele>339</ele>
        <time>2023-02-14T10:42:48.797Z</time>
      </trkpt>
      <trkpt lat="45.58022" lon="5.54727">
        <ele>339</ele>
        <time>2023-02-14T10:42:49.797Z</time>
      </trkpt>
      <trkpt lat="45.58016" lon="5.54725">
        <ele>339</ele>
        <time>2023-02-14T10:42:50.797Z</time>
      </trkpt>
      <trkpt lat="45.5801" lon="5.54724">
        <ele>339</ele>
        <time>2023-02-14T10:42:51.797Z</time>
      </trkpt>
      <trkpt lat="45.58004" lon="5.54722">
        <ele>339</ele>
        <time>2023-02-14T10:42:52.797Z</time>
      </trkpt>
      <trkpt lat="45.57999" lon="5.54719">
        <ele>339</ele>
        <time>2023-02-14T10:42:53.797Z</time>
      </trkpt>
      <trkpt lat="45.57993" lon="5.54717">
        <ele>338</ele>
        <time>2023-02-14T10:42:54.797Z</time>
      </trkpt>
      <trkpt lat="45.57988" lon="5.54714">
        <ele>338</ele>
        <time>2023-02-14T10:42:55.797Z</time>
      </trkpt>
      <trkpt lat="45.57983" lon="5.54711">
        <ele>338</ele>
        <time>2023-02-14T10:42:56.797Z</time>
      </trkpt>
      <trkpt lat="45.57978" lon="5.54707">
        <ele>338</ele>
        <time>2023-02-14T10:42:57.797Z</time>
      </trkpt>
      <trkpt lat="45.57973" lon="5.54704">
        <ele>338</ele>
        <time>2023-02-14T10:42:58.797Z</time>
      </trkpt>
      <trkpt lat="45.57968" lon="5.547">
        <ele>338</ele>
        <time>2023-02-14T10:42:59.797Z</time>
      </trkpt>
      <trkpt lat="45.57963" lon="5.54696">
        <ele>338</ele>
        <time>2023-02-14T10:43:00.797Z</time>
      </trkpt>
      <trkpt lat="45.57958" lon="5.54693">
        <ele>338</ele>
        <time>2023-02-14T10:43:01.797Z</time>
      </trkpt>
      <trkpt lat="45.57954" lon="5.54688">
        <ele>338</ele>
        <time>2023-02-14T10:43:02.797Z</time>
      </trkpt>
      <trkpt lat="45.57949" lon="5.54685">
        <ele>338</ele>
        <time>2023-02-14T10:43:03.797Z</time>
      </trkpt>
      <trkpt lat="45.57944" lon="5.54681">
        <ele>338</ele>
        <time>2023-02-14T10:43:04.797Z</time>
      </trkpt>
      <trkpt lat="45.5794" lon="5.54677">
        <ele>338</ele>
        <time>2023-02-14T10:43:05.797Z</time>
      </trkpt>
      <trkpt lat="45.57935" lon="5.54673">
        <ele>338</ele>
        <time>2023-02-14T10:43:06.797Z</time>
      </trkpt>
      <trkpt lat="45.57931" lon="5.54668">
        <ele>338</ele>
        <time>2023-02-14T10:43:07.797Z</time>
      </trkpt>
      <trkpt lat="45.57926" lon="5.54664">
        <ele>338</ele>
        <time>2023-02-14T10:43:08.797Z</time>
      </trkpt>
      <trkpt lat="45.57922" lon="5.5466">
        <ele>338</ele>
        <time>2023-02-14T10:43:09.797Z</time>
      </trkpt>
      <trkpt lat="45.57917" lon="5.54656">
        <ele>338</ele>
        <time>2023-02-14T10:43:10.797Z</time>
      </trkpt>
      <trkpt lat="45.57913" lon="5.54652">
        <ele>338</ele>
        <time>2023-02-14T10:43:11.797Z</time>
      </trkpt>
      <trkpt lat="45.57908" lon="5.54649">
        <ele>338</ele>
        <time>2023-02-14T10:43:12.797Z</time>
      </trkpt>
      <trkpt lat="45.57904" lon="5.54647">
        <ele>338</ele>
        <time>2023-02-14T10:43:13.797Z</time>
      </trkpt>
      <trkpt lat="45.57899" lon="5.54645">
        <ele>338</ele>
        <time>2023-02-14T10:43:14.797Z</time>
      </trkpt>
      <trkpt lat="45.57893" lon="5.54645">
        <ele>337</ele>
        <time>2023-02-14T10:43:15.797Z</time>
      </trkpt>
      <trkpt lat="45.57888" lon="5.54646">
        <ele>337</ele>
        <time>2023-02-14T10:43:16.797Z</time>
      </trkpt>
      <trkpt lat="45.57882" lon="5.54648">
        <ele>336</ele>
        <time>2023-02-14T10:43:17.797Z</time>
      </trkpt>
      <trkpt lat="45.57875" lon="5.54651">
        <ele>336</ele>
        <time>2023-02-14T10:43:18.797Z</time>
      </trkpt>
      <trkpt lat="45.57868" lon="5.54656">
        <ele>335</ele>
        <time>2023-02-14T10:43:19.797Z</time>
      </trkpt>
      <trkpt lat="45.57861" lon="5.5466">
        <ele>334</ele>
        <time>2023-02-14T10:43:20.797Z</time>
      </trkpt>
      <trkpt lat="45.57853" lon="5.54663">
        <ele>333</ele>
        <time>2023-02-14T10:43:21.797Z</time>
      </trkpt>
      <trkpt lat="45.57845" lon="5.54667">
        <ele>333</ele>
        <time>2023-02-14T10:43:22.797Z</time>
      </trkpt>
      <trkpt lat="45.57838" lon="5.5467">
        <ele>332</ele>
        <time>2023-02-14T10:43:23.797Z</time>
      </trkpt>
      <trkpt lat="45.5783" lon="5.54673">
        <ele>331</ele>
        <time>2023-02-14T10:43:24.797Z</time>
      </trkpt>
      <trkpt lat="45.57823" lon="5.54676">
        <ele>330</ele>
        <time>2023-02-14T10:43:25.797Z</time>
      </trkpt>
      <trkpt lat="45.57815" lon="5.54679">
        <ele>330</ele>
        <time>2023-02-14T10:43:26.797Z</time>
      </trkpt>
      <trkpt lat="45.57807" lon="5.54679">
        <ele>330</ele>
        <time>2023-02-14T10:43:27.797Z</time>
      </trkpt>
      <trkpt lat="45.57798" lon="5.54677">
        <ele>332</ele>
        <time>2023-02-14T10:43:28.797Z</time>
      </trkpt>
      <trkpt lat="45.57789" lon="5.54672">
        <ele>328</ele>
        <time>2023-02-14T10:43:29.797Z</time>
      </trkpt>
      <trkpt lat="45.5778" lon="5.54666">
        <ele>327</ele>
        <time>2023-02-14T10:43:30.797Z</time>
      </trkpt>
      <trkpt lat="45.57774" lon="5.5466">
        <ele>327</ele>
        <time>2023-02-14T10:43:31.797Z</time>
      </trkpt>
      <trkpt lat="45.57768" lon="5.54654">
        <ele>327</ele>
        <time>2023-02-14T10:43:32.797Z</time>
      </trkpt>
      <trkpt lat="45.57764" lon="5.54647">
        <ele>328</ele>
        <time>2023-02-14T10:43:33.797Z</time>
      </trkpt>
      <trkpt lat="45.57759" lon="5.54641">
        <ele>328</ele>
        <time>2023-02-14T10:43:34.797Z</time>
      </trkpt>
      <trkpt lat="45.57755" lon="5.54635">
        <ele>328</ele>
        <time>2023-02-14T10:43:35.797Z</time>
      </trkpt>
      <trkpt lat="45.5775" lon="5.5463">
        <ele>328</ele>
        <time>2023-02-14T10:43:36.797Z</time>
      </trkpt>
      <trkpt lat="45.57746" lon="5.54625">
        <ele>328</ele>
        <time>2023-02-14T10:43:37.797Z</time>
      </trkpt>
      <trkpt lat="45.57741" lon="5.5462">
        <ele>328</ele>
        <time>2023-02-14T10:43:38.797Z</time>
      </trkpt>
      <trkpt lat="45.57737" lon="5.54615">
        <ele>328</ele>
        <time>2023-02-14T10:43:39.797Z</time>
      </trkpt>
      <trkpt lat="45.57733" lon="5.5461">
        <ele>328</ele>
        <time>2023-02-14T10:43:40.797Z</time>
      </trkpt>
      <trkpt lat="45.57729" lon="5.54606">
        <ele>329</ele>
        <time>2023-02-14T10:43:41.797Z</time>
      </trkpt>
      <trkpt lat="45.57726" lon="5.54601">
        <ele>329</ele>
        <time>2023-02-14T10:43:42.797Z</time>
      </trkpt>
      <trkpt lat="45.57722" lon="5.54597">
        <ele>329</ele>
        <time>2023-02-14T10:43:43.797Z</time>
      </trkpt>
      <trkpt lat="45.5772" lon="5.54592">
        <ele>330</ele>
        <time>2023-02-14T10:43:44.797Z</time>
      </trkpt>
      <trkpt lat="45.57718" lon="5.54588">
        <ele>330</ele>
        <time>2023-02-14T10:43:45.797Z</time>
      </trkpt>
      <trkpt lat="45.57716" lon="5.54583">
        <ele>330</ele>
        <time>2023-02-14T10:43:46.797Z</time>
      </trkpt>
      <trkpt lat="45.57714" lon="5.54579">
        <ele>331</ele>
        <time>2023-02-14T10:43:47.797Z</time>
      </trkpt>
      <trkpt lat="45.57712" lon="5.54576">
        <ele>331</ele>
        <time>2023-02-14T10:43:48.797Z</time>
      </trkpt>
      <trkpt lat="45.57711" lon="5.54573">
        <ele>331</ele>
        <time>2023-02-14T10:43:49.797Z</time>
      </trkpt>
      <trkpt lat="45.57709" lon="5.5457">
        <ele>332</ele>
        <time>2023-02-14T10:43:50.797Z</time>
      </trkpt>
      <trkpt lat="45.57707" lon="5.54567">
        <ele>332</ele>
        <time>2023-02-14T10:43:51.797Z</time>
      </trkpt>
      <trkpt lat="45.57706" lon="5.54563">
        <ele>332</ele>
        <time>2023-02-14T10:43:52.797Z</time>
      </trkpt>
      <trkpt lat="45.57704" lon="5.5456">
        <ele>332</ele>
        <time>2023-02-14T10:43:53.797Z</time>
      </trkpt>
      <trkpt lat="45.57703" lon="5.54557">
        <ele>332</ele>
        <time>2023-02-14T10:43:54.797Z</time>
      </trkpt>
      <trkpt lat="45.57702" lon="5.54554">
        <ele>332</ele>
        <time>2023-02-14T10:43:55.797Z</time>
      </trkpt>
      <trkpt lat="45.577" lon="5.54551">
        <ele>333</ele>
        <time>2023-02-14T10:43:56.797Z</time>
      </trkpt>
      <trkpt lat="45.57699" lon="5.54547">
        <ele>333</ele>
        <time>2023-02-14T10:43:57.797Z</time>
      </trkpt>
      <trkpt lat="45.57697" lon="5.54545">
        <ele>333</ele>
        <time>2023-02-14T10:43:58.797Z</time>
      </trkpt>
      <trkpt lat="45.57695" lon="5.54542">
        <ele>333</ele>
        <time>2023-02-14T10:43:59.797Z</time>
      </trkpt>
      <trkpt lat="45.57694" lon="5.54539">
        <ele>333</ele>
        <time>2023-02-14T10:44:00.797Z</time>
      </trkpt>
      <trkpt lat="45.57692" lon="5.54537">
        <ele>333</ele>
        <time>2023-02-14T10:44:01.797Z</time>
      </trkpt>
      <trkpt lat="45.5769" lon="5.54534">
        <ele>333</ele>
        <time>2023-02-14T10:44:02.797Z</time>
      </trkpt>
      <trkpt lat="45.57688" lon="5.54531">
        <ele>333</ele>
        <time>2023-02-14T10:44:03.797Z</time>
      </trkpt>
      <trkpt lat="45.57686" lon="5.54529">
        <ele>333</ele>
        <time>2023-02-14T10:44:04.797Z</time>
      </trkpt>
      <trkpt lat="45.57684" lon="5.54526">
        <ele>333</ele>
        <time>2023-02-14T10:44:05.797Z</time>
      </trkpt>
      <trkpt lat="45.57682" lon="5.54524">
        <ele>334</ele>
        <time>2023-02-14T10:44:06.797Z</time>
      </trkpt>
      <trkpt lat="45.5768" lon="5.54522">
        <ele>334</ele>
        <time>2023-02-14T10:44:07.797Z</time>
      </trkpt>
      <trkpt lat="45.57678" lon="5.54519">
        <ele>334</ele>
        <time>2023-02-14T10:44:08.797Z</time>
      </trkpt>
      <trkpt lat="45.57677" lon="5.54517">
        <ele>334</ele>
        <time>2023-02-14T10:44:09.797Z</time>
      </trkpt>
      <trkpt lat="45.57675" lon="5.54514">
        <ele>335</ele>
        <time>2023-02-14T10:44:10.797Z</time>
      </trkpt>
      <trkpt lat="45.57673" lon="5.54512">
        <ele>335</ele>
        <time>2023-02-14T10:44:11.797Z</time>
      </trkpt>
      <trkpt lat="45.57671" lon="5.54509">
        <ele>335</ele>
        <time>2023-02-14T10:44:12.797Z</time>
      </trkpt>
      <trkpt lat="45.57669" lon="5.54507">
        <ele>335</ele>
        <time>2023-02-14T10:44:13.797Z</time>
      </trkpt>
      <trkpt lat="45.57667" lon="5.54505">
        <ele>335</ele>
        <time>2023-02-14T10:44:14.797Z</time>
      </trkpt>
      <trkpt lat="45.57665" lon="5.54502">
        <ele>336</ele>
        <time>2023-02-14T10:44:15.797Z</time>
      </trkpt>
      <trkpt lat="45.57664" lon="5.545">
        <ele>336</ele>
        <time>2023-02-14T10:44:16.797Z</time>
      </trkpt>
      <trkpt lat="45.57662" lon="5.54498">
        <ele>336</ele>
        <time>2023-02-14T10:44:17.797Z</time>
      </trkpt>
      <trkpt lat="45.5766" lon="5.54496">
        <ele>336</ele>
        <time>2023-02-14T10:44:18.797Z</time>
      </trkpt>
      <trkpt lat="45.57659" lon="5.54494">
        <ele>337</ele>
        <time>2023-02-14T10:44:19.797Z</time>
      </trkpt>
      <trkpt lat="45.57657" lon="5.54492">
        <ele>336</ele>
        <time>2023-02-14T10:44:20.797Z</time>
      </trkpt>
      <trkpt lat="45.57655" lon="5.5449">
        <ele>337</ele>
        <time>2023-02-14T10:44:21.797Z</time>
      </trkpt>
      <trkpt lat="45.57654" lon="5.54488">
        <ele>337</ele>
        <time>2023-02-14T10:44:22.797Z</time>
      </trkpt>
      <trkpt lat="45.57652" lon="5.54486">
        <ele>336</ele>
        <time>2023-02-14T10:44:23.797Z</time>
      </trkpt>
      <trkpt lat="45.5765" lon="5.54484">
        <ele>336</ele>
        <time>2023-02-14T10:44:24.797Z</time>
      </trkpt>
      <trkpt lat="45.57649" lon="5.54482">
        <ele>336</ele>
        <time>2023-02-14T10:44:25.797Z</time>
      </trkpt>
      <trkpt lat="45.57647" lon="5.54481">
        <ele>336</ele>
        <time>2023-02-14T10:44:26.797Z</time>
      </trkpt>
      <trkpt lat="45.57645" lon="5.54479">
        <ele>336</ele>
        <time>2023-02-14T10:44:27.797Z</time>
      </trkpt>
      <trkpt lat="45.57644" lon="5.54477">
        <ele>336</ele>
        <time>2023-02-14T10:44:28.797Z</time>
      </trkpt>
      <trkpt lat="45.57642" lon="5.54475">
        <ele>337</ele>
        <time>2023-02-14T10:44:29.797Z</time>
      </trkpt>
      <trkpt lat="45.5764" lon="5.54473">
        <ele>337</ele>
        <time>2023-02-14T10:44:30.797Z</time>
      </trkpt>
      <trkpt lat="45.57638" lon="5.54471">
        <ele>337</ele>
        <time>2023-02-14T10:44:31.797Z</time>
      </trkpt>
      <trkpt lat="45.57636" lon="5.54469">
        <ele>337</ele>
        <time>2023-02-14T10:44:32.797Z</time>
      </trkpt>
      <trkpt lat="45.57634" lon="5.54467">
        <ele>338</ele>
        <time>2023-02-14T10:44:33.797Z</time>
      </trkpt>
      <trkpt lat="45.57632" lon="5.54465">
        <ele>338</ele>
        <time>2023-02-14T10:44:34.797Z</time>
      </trkpt>
      <trkpt lat="45.57631" lon="5.54463">
        <ele>338</ele>
        <time>2023-02-14T10:44:35.797Z</time>
      </trkpt>
      <trkpt lat="45.57629" lon="5.54461">
        <ele>338</ele>
        <time>2023-02-14T10:44:36.797Z</time>
      </trkpt>
      <trkpt lat="45.57627" lon="5.54459">
        <ele>338</ele>
        <time>2023-02-14T10:44:37.797Z</time>
      </trkpt>
      <trkpt lat="45.57625" lon="5.54457">
        <ele>339</ele>
        <time>2023-02-14T10:44:38.797Z</time>
      </trkpt>
      <trkpt lat="45.57623" lon="5.54455">
        <ele>339</ele>
        <time>2023-02-14T10:44:39.797Z</time>
      </trkpt>
      <trkpt lat="45.57621" lon="5.54453">
        <ele>339</ele>
        <time>2023-02-14T10:44:40.797Z</time>
      </trkpt>
      <trkpt lat="45.57619" lon="5.5445">
        <ele>339</ele>
        <time>2023-02-14T10:44:41.797Z</time>
      </trkpt>
      <trkpt lat="45.57617" lon="5.54448">
        <ele>339</ele>
        <time>2023-02-14T10:44:42.797Z</time>
      </trkpt>
      <trkpt lat="45.57615" lon="5.54446">
        <ele>339</ele>
        <time>2023-02-14T10:44:43.797Z</time>
      </trkpt>
      <trkpt lat="45.57614" lon="5.54443">
        <ele>339</ele>
        <time>2023-02-14T10:44:44.797Z</time>
      </trkpt>
      <trkpt lat="45.57612" lon="5.54441">
        <ele>339</ele>
        <time>2023-02-14T10:44:45.797Z</time>
      </trkpt>
      <trkpt lat="45.5761" lon="5.54438">
        <ele>339</ele>
        <time>2023-02-14T10:44:46.797Z</time>
      </trkpt>
      <trkpt lat="45.57609" lon="5.54436">
        <ele>338</ele>
        <time>2023-02-14T10:44:47.797Z</time>
      </trkpt>
      <trkpt lat="45.57607" lon="5.54433">
        <ele>338</ele>
        <time>2023-02-14T10:44:48.797Z</time>
      </trkpt>
      <trkpt lat="45.57606" lon="5.5443">
        <ele>339</ele>
        <time>2023-02-14T10:44:49.797Z</time>
      </trkpt>
      <trkpt lat="45.57604" lon="5.54427">
        <ele>339</ele>
        <time>2023-02-14T10:44:50.797Z</time>
      </trkpt>
      <trkpt lat="45.57603" lon="5.54424">
        <ele>339</ele>
        <time>2023-02-14T10:44:51.797Z</time>
      </trkpt>
      <trkpt lat="45.57601" lon="5.54422">
        <ele>339</ele>
        <time>2023-02-14T10:44:52.797Z</time>
      </trkpt>
      <trkpt lat="45.576" lon="5.54419">
        <ele>340</ele>
        <time>2023-02-14T10:44:53.797Z</time>
      </trkpt>
      <trkpt lat="45.57599" lon="5.54416">
        <ele>340</ele>
        <time>2023-02-14T10:44:54.797Z</time>
      </trkpt>
      <trkpt lat="45.57597" lon="5.54414">
        <ele>340</ele>
        <time>2023-02-14T10:44:55.797Z</time>
      </trkpt>
      <trkpt lat="45.57596" lon="5.54411">
        <ele>341</ele>
        <time>2023-02-14T10:44:56.797Z</time>
      </trkpt>
      <trkpt lat="45.57595" lon="5.54409">
        <ele>341</ele>
        <time>2023-02-14T10:44:57.797Z</time>
      </trkpt>
      <trkpt lat="45.57594" lon="5.54406">
        <ele>341</ele>
        <time>2023-02-14T10:44:58.797Z</time>
      </trkpt>
      <trkpt lat="45.57593" lon="5.54404">
        <ele>341</ele>
        <time>2023-02-14T10:44:59.797Z</time>
      </trkpt>
      <trkpt lat="45.57592" lon="5.54402">
        <ele>341</ele>
        <time>2023-02-14T10:45:00.797Z</time>
      </trkpt>
      <trkpt lat="45.57591" lon="5.544">
        <ele>342</ele>
        <time>2023-02-14T10:45:01.797Z</time>
      </trkpt>
      <trkpt lat="45.5759" lon="5.54398">
        <ele>342</ele>
        <time>2023-02-14T10:45:02.797Z</time>
      </trkpt>
      <trkpt lat="45.57589" lon="5.54396">
        <ele>342</ele>
        <time>2023-02-14T10:45:03.797Z</time>
      </trkpt>
      <trkpt lat="45.57588" lon="5.54395">
        <ele>342</ele>
        <time>2023-02-14T10:45:04.797Z</time>
      </trkpt>
      <trkpt lat="45.57587" lon="5.54393">
        <ele>343</ele>
        <time>2023-02-14T10:45:05.797Z</time>
      </trkpt>
      <trkpt lat="45.57586" lon="5.54391">
        <ele>343</ele>
        <time>2023-02-14T10:45:06.797Z</time>
      </trkpt>
      <trkpt lat="45.57586" lon="5.54389">
        <ele>343</ele>
        <time>2023-02-14T10:45:07.797Z</time>
      </trkpt>
      <trkpt lat="45.57585" lon="5.54388">
        <ele>344</ele>
        <time>2023-02-14T10:45:08.797Z</time>
      </trkpt>
      <trkpt lat="45.57584" lon="5.54386">
        <ele>344</ele>
        <time>2023-02-14T10:45:09.797Z</time>
      </trkpt>
      <trkpt lat="45.57583" lon="5.54384">
        <ele>344</ele>
        <time>2023-02-14T10:45:10.797Z</time>
      </trkpt>
      <trkpt lat="45.57582" lon="5.54382">
        <ele>344</ele>
        <time>2023-02-14T10:45:11.797Z</time>
      </trkpt>
      <trkpt lat="45.57581" lon="5.54381">
        <ele>345</ele>
        <time>2023-02-14T10:45:12.797Z</time>
      </trkpt>
      <trkpt lat="45.5758" lon="5.5438">
        <ele>345</ele>
        <time>2023-02-14T10:45:13.797Z</time>
      </trkpt>
      <trkpt lat="45.57579" lon="5.54378">
        <ele>345</ele>
        <time>2023-02-14T10:45:14.797Z</time>
      </trkpt>
      <trkpt lat="45.57577" lon="5.54377">
        <ele>345</ele>
        <time>2023-02-14T10:45:15.797Z</time>
      </trkpt>
      <trkpt lat="45.57576" lon="5.54375">
        <ele>345</ele>
        <time>2023-02-14T10:45:16.797Z</time>
      </trkpt>
      <trkpt lat="45.57575" lon="5.54374">
        <ele>345</ele>
        <time>2023-02-14T10:45:17.797Z</time>
      </trkpt>
      <trkpt lat="45.57573" lon="5.54373">
        <ele>346</ele>
        <time>2023-02-14T10:45:18.797Z</time>
      </trkpt>
      <trkpt lat="45.57572" lon="5.54371">
        <ele>346</ele>
        <time>2023-02-14T10:45:19.797Z</time>
      </trkpt>
      <trkpt lat="45.5757" lon="5.5437">
        <ele>346</ele>
        <time>2023-02-14T10:45:20.797Z</time>
      </trkpt>
      <trkpt lat="45.57569" lon="5.54369">
        <ele>346</ele>
        <time>2023-02-14T10:45:21.797Z</time>
      </trkpt>
      <trkpt lat="45.57568" lon="5.54367">
        <ele>346</ele>
        <time>2023-02-14T10:45:22.797Z</time>
      </trkpt>
      <trkpt lat="45.57566" lon="5.54366">
        <ele>347</ele>
        <time>2023-02-14T10:45:23.797Z</time>
      </trkpt>
      <trkpt lat="45.57565" lon="5.54365">
        <ele>347</ele>
        <time>2023-02-14T10:45:24.797Z</time>
      </trkpt>
      <trkpt lat="45.57564" lon="5.54364">
        <ele>347</ele>
        <time>2023-02-14T10:45:25.797Z</time>
      </trkpt>
      <trkpt lat="45.57562" lon="5.54363">
        <ele>347</ele>
        <time>2023-02-14T10:45:26.797Z</time>
      </trkpt>
      <trkpt lat="45.57561" lon="5.54362">
        <ele>347</ele>
        <time>2023-02-14T10:45:27.797Z</time>
      </trkpt>
      <trkpt lat="45.57559" lon="5.54361">
        <ele>347</ele>
        <time>2023-02-14T10:45:28.797Z</time>
      </trkpt>
      <trkpt lat="45.57557" lon="5.5436">
        <ele>347</ele>
        <time>2023-02-14T10:45:29.797Z</time>
      </trkpt>
      <trkpt lat="45.57556" lon="5.5436">
        <ele>347</ele>
        <time>2023-02-14T10:45:30.797Z</time>
      </trkpt>
      <trkpt lat="45.57554" lon="5.54359">
        <ele>347</ele>
        <time>2023-02-14T10:45:31.797Z</time>
      </trkpt>
      <trkpt lat="45.57553" lon="5.54359">
        <ele>347</ele>
        <time>2023-02-14T10:45:32.797Z</time>
      </trkpt>
      <trkpt lat="45.57551" lon="5.54358">
        <ele>347</ele>
        <time>2023-02-14T10:45:33.797Z</time>
      </trkpt>
      <trkpt lat="45.5755" lon="5.54358">
        <ele>347</ele>
        <time>2023-02-14T10:45:34.797Z</time>
      </trkpt>
      <trkpt lat="45.57549" lon="5.54357">
        <ele>347</ele>
        <time>2023-02-14T10:45:35.797Z</time>
      </trkpt>
      <trkpt lat="45.57547" lon="5.54357">
        <ele>348</ele>
        <time>2023-02-14T10:45:36.797Z</time>
      </trkpt>
      <trkpt lat="45.57546" lon="5.54356">
        <ele>348</ele>
        <time>2023-02-14T10:45:37.797Z</time>
      </trkpt>
      <trkpt lat="45.57545" lon="5.54356">
        <ele>348</ele>
        <time>2023-02-14T10:45:38.797Z</time>
      </trkpt>
      <trkpt lat="45.57543" lon="5.54355">
        <ele>348</ele>
        <time>2023-02-14T10:45:39.797Z</time>
      </trkpt>
      <trkpt lat="45.57542" lon="5.54355">
        <ele>348</ele>
        <time>2023-02-14T10:45:40.797Z</time>
      </trkpt>
      <trkpt lat="45.57541" lon="5.54354">
        <ele>349</ele>
        <time>2023-02-14T10:45:41.797Z</time>
      </trkpt>
      <trkpt lat="45.57539" lon="5.54353">
        <ele>349</ele>
        <time>2023-02-14T10:45:42.797Z</time>
      </trkpt>
      <trkpt lat="45.57538" lon="5.54353">
        <ele>349</ele>
        <time>2023-02-14T10:45:43.797Z</time>
      </trkpt>
      <trkpt lat="45.57537" lon="5.54352">
        <ele>349</ele>
        <time>2023-02-14T10:45:44.797Z</time>
      </trkpt>
      <trkpt lat="45.57536" lon="5.54352">
        <ele>350</ele>
        <time>2023-02-14T10:45:45.797Z</time>
      </trkpt>
      <trkpt lat="45.57534" lon="5.54351">
        <ele>350</ele>
        <time>2023-02-14T10:45:46.797Z</time>
      </trkpt>
      <trkpt lat="45.57533" lon="5.54351">
        <ele>351</ele>
        <time>2023-02-14T10:45:47.797Z</time>
      </trkpt>
      <trkpt lat="45.57532" lon="5.5435">
        <ele>352</ele>
        <time>2023-02-14T10:45:48.797Z</time>
      </trkpt>
      <trkpt lat="45.57531" lon="5.54349">
        <ele>353</ele>
        <time>2023-02-14T10:45:49.797Z</time>
      </trkpt>
      <trkpt lat="45.57529" lon="5.54348">
        <ele>353</ele>
        <time>2023-02-14T10:45:50.797Z</time>
      </trkpt>
      <trkpt lat="45.57528" lon="5.54348">
        <ele>353</ele>
        <time>2023-02-14T10:45:51.797Z</time>
      </trkpt>
      <trkpt lat="45.57527" lon="5.54347">
        <ele>354</ele>
        <time>2023-02-14T10:45:52.797Z</time>
      </trkpt>
      <trkpt lat="45.57525" lon="5.54347">
        <ele>353</ele>
        <time>2023-02-14T10:45:53.797Z</time>
      </trkpt>
      <trkpt lat="45.57524" lon="5.54347">
        <ele>353</ele>
        <time>2023-02-14T10:45:54.797Z</time>
      </trkpt>
      <trkpt lat="45.57522" lon="5.54347">
        <ele>353</ele>
        <time>2023-02-14T10:45:55.797Z</time>
      </trkpt>
      <trkpt lat="45.57521" lon="5.54347">
        <ele>353</ele>
        <time>2023-02-14T10:45:56.797Z</time>
      </trkpt>
      <trkpt lat="45.57519" lon="5.54347">
        <ele>353</ele>
        <time>2023-02-14T10:45:57.797Z</time>
      </trkpt>
      <trkpt lat="45.57518" lon="5.54347">
        <ele>353</ele>
        <time>2023-02-14T10:45:58.797Z</time>
      </trkpt>
      <trkpt lat="45.57517" lon="5.54347">
        <ele>354</ele>
        <time>2023-02-14T10:45:59.797Z</time>
      </trkpt>
      <trkpt lat="45.57515" lon="5.54346">
        <ele>354</ele>
        <time>2023-02-14T10:46:00.797Z</time>
      </trkpt>
      <trkpt lat="45.57514" lon="5.54346">
        <ele>353</ele>
        <time>2023-02-14T10:46:01.797Z</time>
      </trkpt>
      <trkpt lat="45.57512" lon="5.54345">
        <ele>354</ele>
        <time>2023-02-14T10:46:02.797Z</time>
      </trkpt>
      <trkpt lat="45.57511" lon="5.54345">
        <ele>354</ele>
        <time>2023-02-14T10:46:03.797Z</time>
      </trkpt>
      <trkpt lat="45.5751" lon="5.54345">
        <ele>354</ele>
        <time>2023-02-14T10:46:04.797Z</time>
      </trkpt>
      <trkpt lat="45.57508" lon="5.54344">
        <ele>354</ele>
        <time>2023-02-14T10:46:05.797Z</time>
      </trkpt>
      <trkpt lat="45.57507" lon="5.54344">
        <ele>354</ele>
        <time>2023-02-14T10:46:06.797Z</time>
      </trkpt>
      <trkpt lat="45.57506" lon="5.54344">
        <ele>354</ele>
        <time>2023-02-14T10:46:07.797Z</time>
      </trkpt>
      <trkpt lat="45.57504" lon="5.54343">
        <ele>354</ele>
        <time>2023-02-14T10:46:08.797Z</time>
      </trkpt>
      <trkpt lat="45.57503" lon="5.54342">
        <ele>354</ele>
        <time>2023-02-14T10:46:09.797Z</time>
      </trkpt>
      <trkpt lat="45.57501" lon="5.54342">
        <ele>354</ele>
        <time>2023-02-14T10:46:10.797Z</time>
      </trkpt>
      <trkpt lat="45.575" lon="5.54341">
        <ele>354</ele>
        <time>2023-02-14T10:46:11.797Z</time>
      </trkpt>
      <trkpt lat="45.57499" lon="5.54341">
        <ele>354</ele>
        <time>2023-02-14T10:46:12.797Z</time>
      </trkpt>
      <trkpt lat="45.57497" lon="5.5434">
        <ele>354</ele>
        <time>2023-02-14T10:46:13.797Z</time>
      </trkpt>
      <trkpt lat="45.57496" lon="5.54339">
        <ele>354</ele>
        <time>2023-02-14T10:46:14.797Z</time>
      </trkpt>
      <trkpt lat="45.57495" lon="5.54338">
        <ele>354</ele>
        <time>2023-02-14T10:46:15.797Z</time>
      </trkpt>
      <trkpt lat="45.57493" lon="5.54337">
        <ele>354</ele>
        <time>2023-02-14T10:46:16.797Z</time>
      </trkpt>
      <trkpt lat="45.57492" lon="5.54336">
        <ele>354</ele>
        <time>2023-02-14T10:46:17.797Z</time>
      </trkpt>
      <trkpt lat="45.57491" lon="5.54334">
        <ele>354</ele>
        <time>2023-02-14T10:46:18.797Z</time>
      </trkpt>
      <trkpt lat="45.57489" lon="5.54333">
        <ele>355</ele>
        <time>2023-02-14T10:46:19.797Z</time>
      </trkpt>
      <trkpt lat="45.57488" lon="5.54332">
        <ele>354</ele>
        <time>2023-02-14T10:46:20.797Z</time>
      </trkpt>
      <trkpt lat="45.57487" lon="5.5433">
        <ele>355</ele>
        <time>2023-02-14T10:46:21.797Z</time>
      </trkpt>
      <trkpt lat="45.57485" lon="5.54329">
        <ele>354</ele>
        <time>2023-02-14T10:46:22.797Z</time>
      </trkpt>
      <trkpt lat="45.57484" lon="5.54328">
        <ele>354</ele>
        <time>2023-02-14T10:46:23.797Z</time>
      </trkpt>
      <trkpt lat="45.57482" lon="5.54326">
        <ele>355</ele>
        <time>2023-02-14T10:46:24.797Z</time>
      </trkpt>
      <trkpt lat="45.57481" lon="5.54325">
        <ele>355</ele>
        <time>2023-02-14T10:46:25.797Z</time>
      </trkpt>
      <trkpt lat="45.5748" lon="5.54324">
        <ele>355</ele>
        <time>2023-02-14T10:46:26.797Z</time>
      </trkpt>
      <trkpt lat="45.57479" lon="5.54322">
        <ele>355</ele>
        <time>2023-02-14T10:46:27.797Z</time>
      </trkpt>
      <trkpt lat="45.57477" lon="5.54321">
        <ele>355</ele>
        <time>2023-02-14T10:46:28.797Z</time>
      </trkpt>
      <trkpt lat="45.57476" lon="5.54319">
        <ele>355</ele>
        <time>2023-02-14T10:46:29.797Z</time>
      </trkpt>
      <trkpt lat="45.57475" lon="5.54317">
        <ele>355</ele>
        <time>2023-02-14T10:46:30.797Z</time>
      </trkpt>
      <trkpt lat="45.57474" lon="5.54315">
        <ele>355</ele>
        <time>2023-02-14T10:46:31.797Z</time>
      </trkpt>
      <trkpt lat="45.57473" lon="5.54313">
        <ele>355</ele>
        <time>2023-02-14T10:46:32.797Z</time>
      </trkpt>
      <trkpt lat="45.57472" lon="5.54311">
        <ele>356</ele>
        <time>2023-02-14T10:46:33.797Z</time>
      </trkpt>
      <trkpt lat="45.57471" lon="5.54308">
        <ele>356</ele>
        <time>2023-02-14T10:46:34.797Z</time>
      </trkpt>
      <trkpt lat="45.5747" lon="5.54306">
        <ele>356</ele>
        <time>2023-02-14T10:46:35.797Z</time>
      </trkpt>
      <trkpt lat="45.57469" lon="5.54304">
        <ele>356</ele>
        <time>2023-02-14T10:46:36.797Z</time>
      </trkpt>
      <trkpt lat="45.57468" lon="5.54301">
        <ele>356</ele>
        <time>2023-02-14T10:46:37.797Z</time>
      </trkpt>
      <trkpt lat="45.57468" lon="5.54299">
        <ele>357</ele>
        <time>2023-02-14T10:46:38.797Z</time>
      </trkpt>
      <trkpt lat="45.57467" lon="5.54297">
        <ele>357</ele>
        <time>2023-02-14T10:46:39.797Z</time>
      </trkpt>
      <trkpt lat="45.57466" lon="5.54294">
        <ele>356</ele>
        <time>2023-02-14T10:46:40.797Z</time>
      </trkpt>
      <trkpt lat="45.57465" lon="5.54292">
        <ele>357</ele>
        <time>2023-02-14T10:46:41.797Z</time>
      </trkpt>
      <trkpt lat="45.57464" lon="5.5429">
        <ele>357</ele>
        <time>2023-02-14T10:46:42.797Z</time>
      </trkpt>
      <trkpt lat="45.57463" lon="5.54287">
        <ele>357</ele>
        <time>2023-02-14T10:46:43.797Z</time>
      </trkpt>
      <trkpt lat="45.57462" lon="5.54285">
        <ele>357</ele>
        <time>2023-02-14T10:46:44.797Z</time>
      </trkpt>
      <trkpt lat="45.57461" lon="5.54282">
        <ele>356</ele>
        <time>2023-02-14T10:46:45.797Z</time>
      </trkpt>
      <trkpt lat="45.5746" lon="5.5428">
        <ele>356</ele>
        <time>2023-02-14T10:46:46.797Z</time>
      </trkpt>
      <trkpt lat="45.57459" lon="5.54277">
        <ele>356</ele>
        <time>2023-02-14T10:46:47.797Z</time>
      </trkpt>
      <trkpt lat="45.57458" lon="5.54274">
        <ele>356</ele>
        <time>2023-02-14T10:46:48.797Z</time>
      </trkpt>
      <trkpt lat="45.57456" lon="5.54271">
        <ele>356</ele>
        <time>2023-02-14T10:46:49.797Z</time>
      </trkpt>
      <trkpt lat="45.57455" lon="5.54268">
        <ele>356</ele>
        <time>2023-02-14T10:46:50.797Z</time>
      </trkpt>
      <trkpt lat="45.57454" lon="5.54265">
        <ele>356</ele>
        <time>2023-02-14T10:46:51.797Z</time>
      </trkpt>
      <trkpt lat="45.57453" lon="5.54262">
        <ele>356</ele>
        <time>2023-02-14T10:46:52.797Z</time>
      </trkpt>
      <trkpt lat="45.57451" lon="5.54259">
        <ele>356</ele>
        <time>2023-02-14T10:46:53.797Z</time>
      </trkpt>
      <trkpt lat="45.5745" lon="5.54256">
        <ele>356</ele>
        <time>2023-02-14T10:46:54.797Z</time>
      </trkpt>
      <trkpt lat="45.57449" lon="5.54252">
        <ele>356</ele>
        <time>2023-02-14T10:46:55.797Z</time>
      </trkpt>
      <trkpt lat="45.57448" lon="5.54249">
        <ele>355</ele>
        <time>2023-02-14T10:46:56.797Z</time>
      </trkpt>
      <trkpt lat="45.57446" lon="5.54245">
        <ele>355</ele>
        <time>2023-02-14T10:46:57.797Z</time>
      </trkpt>
      <trkpt lat="45.57445" lon="5.54242">
        <ele>355</ele>
        <time>2023-02-14T10:46:58.797Z</time>
      </trkpt>
      <trkpt lat="45.57443" lon="5.54238">
        <ele>355</ele>
        <time>2023-02-14T10:46:59.797Z</time>
      </trkpt>
      <trkpt lat="45.57441" lon="5.54235">
        <ele>355</ele>
        <time>2023-02-14T10:47:00.797Z</time>
      </trkpt>
      <trkpt lat="45.57439" lon="5.54231">
        <ele>354</ele>
        <time>2023-02-14T10:47:01.797Z</time>
      </trkpt>
      <trkpt lat="45.57437" lon="5.54227">
        <ele>354</ele>
        <time>2023-02-14T10:47:02.797Z</time>
      </trkpt>
      <trkpt lat="45.57435" lon="5.54224">
        <ele>354</ele>
        <time>2023-02-14T10:47:03.797Z</time>
      </trkpt>
      <trkpt lat="45.57432" lon="5.5422">
        <ele>355</ele>
        <time>2023-02-14T10:47:04.797Z</time>
      </trkpt>
      <trkpt lat="45.5743" lon="5.54216">
        <ele>355</ele>
        <time>2023-02-14T10:47:05.797Z</time>
      </trkpt>
      <trkpt lat="45.57428" lon="5.54213">
        <ele>355</ele>
        <time>2023-02-14T10:47:06.797Z</time>
      </trkpt>
      <trkpt lat="45.57426" lon="5.54209">
        <ele>356</ele>
        <time>2023-02-14T10:47:07.797Z</time>
      </trkpt>
      <trkpt lat="45.57424" lon="5.54205">
        <ele>356</ele>
        <time>2023-02-14T10:47:08.797Z</time>
      </trkpt>
      <trkpt lat="45.57422" lon="5.54202">
        <ele>356</ele>
        <time>2023-02-14T10:47:09.797Z</time>
      </trkpt>
      <trkpt lat="45.5742" lon="5.54199">
        <ele>356</ele>
        <time>2023-02-14T10:47:10.797Z</time>
      </trkpt>
      <trkpt lat="45.57417" lon="5.54196">
        <ele>356</ele>
        <time>2023-02-14T10:47:11.797Z</time>
      </trkpt>
      <trkpt lat="45.57415" lon="5.54193">
        <ele>356</ele>
        <time>2023-02-14T10:47:12.797Z</time>
      </trkpt>
      <trkpt lat="45.57413" lon="5.5419">
        <ele>356</ele>
        <time>2023-02-14T10:47:13.797Z</time>
      </trkpt>
      <trkpt lat="45.5741" lon="5.54187">
        <ele>356</ele>
        <time>2023-02-14T10:47:14.797Z</time>
      </trkpt>
      <trkpt lat="45.57408" lon="5.54185">
        <ele>357</ele>
        <time>2023-02-14T10:47:15.797Z</time>
      </trkpt>
      <trkpt lat="45.57406" lon="5.54182">
        <ele>357</ele>
        <time>2023-02-14T10:47:16.797Z</time>
      </trkpt>
      <trkpt lat="45.57403" lon="5.5418">
        <ele>357</ele>
        <time>2023-02-14T10:47:17.797Z</time>
      </trkpt>
      <trkpt lat="45.57401" lon="5.54179">
        <ele>357</ele>
        <time>2023-02-14T10:47:18.797Z</time>
      </trkpt>
      <trkpt lat="45.57398" lon="5.54177">
        <ele>357</ele>
        <time>2023-02-14T10:47:19.797Z</time>
      </trkpt>
      <trkpt lat="45.57395" lon="5.54175">
        <ele>357</ele>
        <time>2023-02-14T10:47:20.797Z</time>
      </trkpt>
      <trkpt lat="45.57393" lon="5.54174">
        <ele>358</ele>
        <time>2023-02-14T10:47:21.797Z</time>
      </trkpt>
      <trkpt lat="45.5739" lon="5.54172">
        <ele>358</ele>
        <time>2023-02-14T10:47:22.797Z</time>
      </trkpt>
      <trkpt lat="45.57386" lon="5.5417">
        <ele>358</ele>
        <time>2023-02-14T10:47:23.797Z</time>
      </trkpt>
      <trkpt lat="45.57383" lon="5.54169">
        <ele>358</ele>
        <time>2023-02-14T10:47:24.797Z</time>
      </trkpt>
      <trkpt lat="45.5738" lon="5.54167">
        <ele>358</ele>
        <time>2023-02-14T10:47:25.797Z</time>
      </trkpt>
      <trkpt lat="45.57377" lon="5.54166">
        <ele>358</ele>
        <time>2023-02-14T10:47:26.797Z</time>
      </trkpt>
      <trkpt lat="45.57373" lon="5.54164">
        <ele>358</ele>
        <time>2023-02-14T10:47:27.797Z</time>
      </trkpt>
      <trkpt lat="45.5737" lon="5.54162">
        <ele>358</ele>
        <time>2023-02-14T10:47:28.797Z</time>
      </trkpt>
      <trkpt lat="45.57367" lon="5.5416">
        <ele>358</ele>
        <time>2023-02-14T10:47:29.797Z</time>
      </trkpt>
      <trkpt lat="45.57363" lon="5.54158">
        <ele>358</ele>
        <time>2023-02-14T10:47:30.797Z</time>
      </trkpt>
      <trkpt lat="45.5736" lon="5.54156">
        <ele>358</ele>
        <time>2023-02-14T10:47:31.797Z</time>
      </trkpt>
      <trkpt lat="45.57357" lon="5.54155">
        <ele>358</ele>
        <time>2023-02-14T10:47:32.797Z</time>
      </trkpt>
      <trkpt lat="45.57353" lon="5.54153">
        <ele>357</ele>
        <time>2023-02-14T10:47:33.797Z</time>
      </trkpt>
      <trkpt lat="45.5735" lon="5.54151">
        <ele>357</ele>
        <time>2023-02-14T10:47:34.797Z</time>
      </trkpt>
      <trkpt lat="45.57346" lon="5.54149">
        <ele>357</ele>
        <time>2023-02-14T10:47:35.797Z</time>
      </trkpt>
      <trkpt lat="45.57343" lon="5.54147">
        <ele>357</ele>
        <time>2023-02-14T10:47:36.797Z</time>
      </trkpt>
      <trkpt lat="45.57339" lon="5.54145">
        <ele>357</ele>
        <time>2023-02-14T10:47:37.797Z</time>
      </trkpt>
      <trkpt lat="45.57336" lon="5.54143">
        <ele>358</ele>
        <time>2023-02-14T10:47:38.797Z</time>
      </trkpt>
      <trkpt lat="45.57332" lon="5.54142">
        <ele>358</ele>
        <time>2023-02-14T10:47:39.797Z</time>
      </trkpt>
      <trkpt lat="45.57328" lon="5.5414">
        <ele>358</ele>
        <time>2023-02-14T10:47:40.797Z</time>
      </trkpt>
      <trkpt lat="45.57325" lon="5.54138">
        <ele>358</ele>
        <time>2023-02-14T10:47:41.797Z</time>
      </trkpt>
      <trkpt lat="45.57322" lon="5.54137">
        <ele>358</ele>
        <time>2023-02-14T10:47:42.797Z</time>
      </trkpt>
      <trkpt lat="45.57318" lon="5.54135">
        <ele>358</ele>
        <time>2023-02-14T10:47:43.797Z</time>
      </trkpt>
      <trkpt lat="45.57315" lon="5.54133">
        <ele>358</ele>
        <time>2023-02-14T10:47:44.797Z</time>
      </trkpt>
      <trkpt lat="45.57312" lon="5.54131">
        <ele>358</ele>
        <time>2023-02-14T10:47:45.797Z</time>
      </trkpt>
      <trkpt lat="45.57309" lon="5.54129">
        <ele>358</ele>
        <time>2023-02-14T10:47:46.797Z</time>
      </trkpt>
      <trkpt lat="45.57305" lon="5.54128">
        <ele>358</ele>
        <time>2023-02-14T10:47:47.797Z</time>
      </trkpt>
      <trkpt lat="45.57302" lon="5.54126">
        <ele>359</ele>
        <time>2023-02-14T10:47:48.797Z</time>
      </trkpt>
      <trkpt lat="45.57299" lon="5.54124">
        <ele>359</ele>
        <time>2023-02-14T10:47:49.797Z</time>
      </trkpt>
      <trkpt lat="45.57295" lon="5.54122">
        <ele>358</ele>
        <time>2023-02-14T10:47:50.797Z</time>
      </trkpt>
      <trkpt lat="45.57292" lon="5.5412">
        <ele>358</ele>
        <time>2023-02-14T10:47:51.797Z</time>
      </trkpt>
      <trkpt lat="45.57288" lon="5.54119">
        <ele>359</ele>
        <time>2023-02-14T10:47:52.797Z</time>
      </trkpt>
      <trkpt lat="45.57285" lon="5.54117">
        <ele>359</ele>
        <time>2023-02-14T10:47:53.797Z</time>
      </trkpt>
      <trkpt lat="45.57281" lon="5.54116">
        <ele>359</ele>
        <time>2023-02-14T10:47:54.797Z</time>
      </trkpt>
      <trkpt lat="45.57278" lon="5.54114">
        <ele>359</ele>
        <time>2023-02-14T10:47:55.797Z</time>
      </trkpt>
      <trkpt lat="45.57275" lon="5.54112">
        <ele>359</ele>
        <time>2023-02-14T10:47:56.797Z</time>
      </trkpt>
      <trkpt lat="45.57271" lon="5.54111">
        <ele>359</ele>
        <time>2023-02-14T10:47:57.797Z</time>
      </trkpt>
      <trkpt lat="45.57268" lon="5.54109">
        <ele>359</ele>
        <time>2023-02-14T10:47:58.797Z</time>
      </trkpt>
      <trkpt lat="45.57264" lon="5.54108">
        <ele>359</ele>
        <time>2023-02-14T10:47:59.797Z</time>
      </trkpt>
      <trkpt lat="45.5726" lon="5.54107">
        <ele>359</ele>
        <time>2023-02-14T10:48:00.797Z</time>
      </trkpt>
      <trkpt lat="45.57257" lon="5.54106">
        <ele>359</ele>
        <time>2023-02-14T10:48:01.797Z</time>
      </trkpt>
      <trkpt lat="45.57253" lon="5.54105">
        <ele>359</ele>
        <time>2023-02-14T10:48:02.797Z</time>
      </trkpt>
      <trkpt lat="45.57249" lon="5.54104">
        <ele>359</ele>
        <time>2023-02-14T10:48:03.797Z</time>
      </trkpt>
      <trkpt lat="45.57245" lon="5.54103">
        <ele>358</ele>
        <time>2023-02-14T10:48:04.797Z</time>
      </trkpt>
      <trkpt lat="45.57241" lon="5.54102">
        <ele>358</ele>
        <time>2023-02-14T10:48:05.797Z</time>
      </trkpt>
      <trkpt lat="45.57238" lon="5.54102">
        <ele>358</ele>
        <time>2023-02-14T10:48:06.797Z</time>
      </trkpt>
      <trkpt lat="45.57234" lon="5.54101">
        <ele>358</ele>
        <time>2023-02-14T10:48:07.797Z</time>
      </trkpt>
      <trkpt lat="45.5723" lon="5.54101">
        <ele>358</ele>
        <time>2023-02-14T10:48:08.797Z</time>
      </trkpt>
      <trkpt lat="45.57227" lon="5.54101">
        <ele>358</ele>
        <time>2023-02-14T10:48:09.797Z</time>
      </trkpt>
      <trkpt lat="45.57223" lon="5.54102">
        <ele>359</ele>
        <time>2023-02-14T10:48:10.797Z</time>
      </trkpt>
      <trkpt lat="45.57219" lon="5.54102">
        <ele>359</ele>
        <time>2023-02-14T10:48:11.797Z</time>
      </trkpt>
      <trkpt lat="45.57215" lon="5.54103">
        <ele>358</ele>
        <time>2023-02-14T10:48:12.797Z</time>
      </trkpt>
      <trkpt lat="45.5721" lon="5.54102">
        <ele>358</ele>
        <time>2023-02-14T10:48:13.797Z</time>
      </trkpt>
      <trkpt lat="45.57206" lon="5.54102">
        <ele>358</ele>
        <time>2023-02-14T10:48:14.797Z</time>
      </trkpt>
      <trkpt lat="45.57201" lon="5.54102">
        <ele>358</ele>
        <time>2023-02-14T10:48:15.797Z</time>
      </trkpt>
      <trkpt lat="45.57196" lon="5.54103">
        <ele>357</ele>
        <time>2023-02-14T10:48:16.797Z</time>
      </trkpt>
      <trkpt lat="45.57192" lon="5.54103">
        <ele>357</ele>
        <time>2023-02-14T10:48:17.797Z</time>
      </trkpt>
      <trkpt lat="45.57187" lon="5.54102">
        <ele>356</ele>
        <time>2023-02-14T10:48:18.797Z</time>
      </trkpt>
      <trkpt lat="45.57183" lon="5.541">
        <ele>356</ele>
        <time>2023-02-14T10:48:19.797Z</time>
      </trkpt>
      <trkpt lat="45.5718" lon="5.54097">
        <ele>356</ele>
        <time>2023-02-14T10:48:20.797Z</time>
      </trkpt>
      <trkpt lat="45.57177" lon="5.54094">
        <ele>356</ele>
        <time>2023-02-14T10:48:21.797Z</time>
      </trkpt>
      <trkpt lat="45.57174" lon="5.54091">
        <ele>355</ele>
        <time>2023-02-14T10:48:22.797Z</time>
      </trkpt>
      <trkpt lat="45.57171" lon="5.54087">
        <ele>355</ele>
        <time>2023-02-14T10:48:23.797Z</time>
      </trkpt>
      <trkpt lat="45.57168" lon="5.54084">
        <ele>356</ele>
        <time>2023-02-14T10:48:24.797Z</time>
      </trkpt>
      <trkpt lat="45.57165" lon="5.5408">
        <ele>356</ele>
        <time>2023-02-14T10:48:25.797Z</time>
      </trkpt>
      <trkpt lat="45.57163" lon="5.54076">
        <ele>356</ele>
        <time>2023-02-14T10:48:26.797Z</time>
      </trkpt>
      <trkpt lat="45.5716" lon="5.54072">
        <ele>356</ele>
        <time>2023-02-14T10:48:27.797Z</time>
      </trkpt>
      <trkpt lat="45.57158" lon="5.54068">
        <ele>355</ele>
        <time>2023-02-14T10:48:28.797Z</time>
      </trkpt>
      <trkpt lat="45.57156" lon="5.54063">
        <ele>355</ele>
        <time>2023-02-14T10:48:29.797Z</time>
      </trkpt>
      <trkpt lat="45.57154" lon="5.54059">
        <ele>355</ele>
        <time>2023-02-14T10:48:30.797Z</time>
      </trkpt>
      <trkpt lat="45.57152" lon="5.54055">
        <ele>355</ele>
        <time>2023-02-14T10:48:31.797Z</time>
      </trkpt>
      <trkpt lat="45.57149" lon="5.54051">
        <ele>356</ele>
        <time>2023-02-14T10:48:32.797Z</time>
      </trkpt>
      <trkpt lat="45.57147" lon="5.54047">
        <ele>356</ele>
        <time>2023-02-14T10:48:33.797Z</time>
      </trkpt>
      <trkpt lat="45.57145" lon="5.54043">
        <ele>356</ele>
        <time>2023-02-14T10:48:34.797Z</time>
      </trkpt>
      <trkpt lat="45.57143" lon="5.54038">
        <ele>356</ele>
        <time>2023-02-14T10:48:35.797Z</time>
      </trkpt>
      <trkpt lat="45.57141" lon="5.54034">
        <ele>356</ele>
        <time>2023-02-14T10:48:36.797Z</time>
      </trkpt>
      <trkpt lat="45.5714" lon="5.5403">
        <ele>355</ele>
        <time>2023-02-14T10:48:37.797Z</time>
      </trkpt>
      <trkpt lat="45.57138" lon="5.54026">
        <ele>356</ele>
        <time>2023-02-14T10:48:38.797Z</time>
      </trkpt>
      <trkpt lat="45.57136" lon="5.54022">
        <ele>355</ele>
        <time>2023-02-14T10:48:39.797Z</time>
      </trkpt>
      <trkpt lat="45.57134" lon="5.54018">
        <ele>356</ele>
        <time>2023-02-14T10:48:40.797Z</time>
      </trkpt>
      <trkpt lat="45.57132" lon="5.54014">
        <ele>356</ele>
        <time>2023-02-14T10:48:41.797Z</time>
      </trkpt>
      <trkpt lat="45.57129" lon="5.54011">
        <ele>357</ele>
        <time>2023-02-14T10:48:42.797Z</time>
      </trkpt>
      <trkpt lat="45.57127" lon="5.54008">
        <ele>357</ele>
        <time>2023-02-14T10:48:43.797Z</time>
      </trkpt>
      <trkpt lat="45.57125" lon="5.54005">
        <ele>357</ele>
        <time>2023-02-14T10:48:44.797Z</time>
      </trkpt>
      <trkpt lat="45.57122" lon="5.54003">
        <ele>358</ele>
        <time>2023-02-14T10:48:45.797Z</time>
      </trkpt>
      <trkpt lat="45.5712" lon="5.54001">
        <ele>358</ele>
        <time>2023-02-14T10:48:46.797Z</time>
      </trkpt>
      <trkpt lat="45.57118" lon="5.54">
        <ele>359</ele>
        <time>2023-02-14T10:48:47.797Z</time>
      </trkpt>
      <trkpt lat="45.57116" lon="5.53999">
        <ele>360</ele>
        <time>2023-02-14T10:48:48.797Z</time>
      </trkpt>
      <trkpt lat="45.57114" lon="5.53998">
        <ele>361</ele>
        <time>2023-02-14T10:48:49.797Z</time>
      </trkpt>
      <trkpt lat="45.57112" lon="5.53998">
        <ele>361</ele>
        <time>2023-02-14T10:48:50.797Z</time>
      </trkpt>
      <trkpt lat="45.5711" lon="5.53997">
        <ele>362</ele>
        <time>2023-02-14T10:48:51.797Z</time>
      </trkpt>
      <trkpt lat="45.57108" lon="5.53997">
        <ele>363</ele>
        <time>2023-02-14T10:48:52.797Z</time>
      </trkpt>
      <trkpt lat="45.57107" lon="5.53997">
        <ele>363</ele>
        <time>2023-02-14T10:48:53.797Z</time>
      </trkpt>
      <trkpt lat="45.57105" lon="5.53997">
        <ele>364</ele>
        <time>2023-02-14T10:48:54.797Z</time>
      </trkpt>
      <trkpt lat="45.57104" lon="5.53997">
        <ele>364</ele>
        <time>2023-02-14T10:48:55.797Z</time>
      </trkpt>
      <trkpt lat="45.57103" lon="5.53997">
        <ele>364</ele>
        <time>2023-02-14T10:48:56.797Z</time>
      </trkpt>
      <trkpt lat="45.57102" lon="5.53998">
        <ele>364</ele>
        <time>2023-02-14T10:48:57.797Z</time>
      </trkpt>
      <trkpt lat="45.571" lon="5.53998">
        <ele>363</ele>
        <time>2023-02-14T10:48:58.797Z</time>
      </trkpt>
      <trkpt lat="45.57099" lon="5.53999">
        <ele>364</ele>
        <time>2023-02-14T10:48:59.797Z</time>
      </trkpt>
      <trkpt lat="45.57097" lon="5.53999">
        <ele>364</ele>
        <time>2023-02-14T10:49:00.797Z</time>
      </trkpt>
      <trkpt lat="45.57096" lon="5.54">
        <ele>364</ele>
        <time>2023-02-14T10:49:01.797Z</time>
      </trkpt>
      <trkpt lat="45.57094" lon="5.54">
        <ele>364</ele>
        <time>2023-02-14T10:49:02.797Z</time>
      </trkpt>
      <trkpt lat="45.57093" lon="5.54001">
        <ele>364</ele>
        <time>2023-02-14T10:49:03.797Z</time>
      </trkpt>
      <trkpt lat="45.57092" lon="5.54001">
        <ele>364</ele>
        <time>2023-02-14T10:49:04.797Z</time>
      </trkpt>
      <trkpt lat="45.57091" lon="5.54002">
        <ele>364</ele>
        <time>2023-02-14T10:49:05.797Z</time>
      </trkpt>
      <trkpt lat="45.57089" lon="5.54003">
        <ele>365</ele>
        <time>2023-02-14T10:49:06.797Z</time>
      </trkpt>
      <trkpt lat="45.57088" lon="5.54004">
        <ele>366</ele>
        <time>2023-02-14T10:49:07.797Z</time>
      </trkpt>
      <trkpt lat="45.57087" lon="5.54005">
        <ele>366</ele>
        <time>2023-02-14T10:49:08.797Z</time>
      </trkpt>
      <trkpt lat="45.57086" lon="5.54006">
        <ele>367</ele>
        <time>2023-02-14T10:49:09.797Z</time>
      </trkpt>
      <trkpt lat="45.57084" lon="5.54007">
        <ele>367</ele>
        <time>2023-02-14T10:49:10.797Z</time>
      </trkpt>
      <trkpt lat="45.57083" lon="5.54008">
        <ele>367</ele>
        <time>2023-02-14T10:49:11.797Z</time>
      </trkpt>
      <trkpt lat="45.57082" lon="5.54009">
        <ele>368</ele>
        <time>2023-02-14T10:49:12.797Z</time>
      </trkpt>
      <trkpt lat="45.57081" lon="5.54009">
        <ele>369</ele>
        <time>2023-02-14T10:49:13.797Z</time>
      </trkpt>
      <trkpt lat="45.5708" lon="5.5401">
        <ele>369</ele>
        <time>2023-02-14T10:49:14.797Z</time>
      </trkpt>
      <trkpt lat="45.57079" lon="5.54011">
        <ele>369</ele>
        <time>2023-02-14T10:49:15.797Z</time>
      </trkpt>
      <trkpt lat="45.57077" lon="5.54012">
        <ele>370</ele>
        <time>2023-02-14T10:49:16.797Z</time>
      </trkpt>
      <trkpt lat="45.57076" lon="5.54013">
        <ele>370</ele>
        <time>2023-02-14T10:49:17.797Z</time>
      </trkpt>
      <trkpt lat="45.57076" lon="5.54014">
        <ele>371</ele>
        <time>2023-02-14T10:49:18.797Z</time>
      </trkpt>
      <trkpt lat="45.57075" lon="5.54015">
        <ele>371</ele>
        <time>2023-02-14T10:49:19.797Z</time>
      </trkpt>
      <trkpt lat="45.57074" lon="5.54016">
        <ele>371</ele>
        <time>2023-02-14T10:49:20.797Z</time>
      </trkpt>
      <trkpt lat="45.57073" lon="5.54017">
        <ele>372</ele>
        <time>2023-02-14T10:49:21.797Z</time>
      </trkpt>
      <trkpt lat="45.57071" lon="5.54018">
        <ele>372</ele>
        <time>2023-02-14T10:49:22.797Z</time>
      </trkpt>
      <trkpt lat="45.5707" lon="5.54019">
        <ele>372</ele>
        <time>2023-02-14T10:49:23.797Z</time>
      </trkpt>
      <trkpt lat="45.57069" lon="5.5402">
        <ele>372</ele>
        <time>2023-02-14T10:49:24.797Z</time>
      </trkpt>
      <trkpt lat="45.57068" lon="5.54021">
        <ele>371</ele>
        <time>2023-02-14T10:49:25.797Z</time>
      </trkpt>
      <trkpt lat="45.57067" lon="5.54023">
        <ele>371</ele>
        <time>2023-02-14T10:49:26.797Z</time>
      </trkpt>
      <trkpt lat="45.57066" lon="5.54024">
        <ele>371</ele>
        <time>2023-02-14T10:49:27.797Z</time>
      </trkpt>
      <trkpt lat="45.57064" lon="5.54026">
        <ele>371</ele>
        <time>2023-02-14T10:49:28.797Z</time>
      </trkpt>
      <trkpt lat="45.57062" lon="5.54028">
        <ele>371</ele>
        <time>2023-02-14T10:49:29.797Z</time>
      </trkpt>
      <trkpt lat="45.5706" lon="5.5403">
        <ele>370</ele>
        <time>2023-02-14T10:49:30.797Z</time>
      </trkpt>
      <trkpt lat="45.57058" lon="5.54032">
        <ele>371</ele>
        <time>2023-02-14T10:49:31.797Z</time>
      </trkpt>
      <trkpt lat="45.57057" lon="5.54034">
        <ele>370</ele>
        <time>2023-02-14T10:49:32.797Z</time>
      </trkpt>
      <trkpt lat="45.57055" lon="5.54035">
        <ele>370</ele>
        <time>2023-02-14T10:49:33.797Z</time>
      </trkpt>
      <trkpt lat="45.57054" lon="5.54037">
        <ele>370</ele>
        <time>2023-02-14T10:49:34.797Z</time>
      </trkpt>
      <trkpt lat="45.57052" lon="5.54039">
        <ele>370</ele>
        <time>2023-02-14T10:49:35.797Z</time>
      </trkpt>
      <trkpt lat="45.57051" lon="5.5404">
        <ele>369</ele>
        <time>2023-02-14T10:49:36.797Z</time>
      </trkpt>
      <trkpt lat="45.5705" lon="5.54042">
        <ele>369</ele>
        <time>2023-02-14T10:49:37.797Z</time>
      </trkpt>
      <trkpt lat="45.57048" lon="5.54043">
        <ele>368</ele>
        <time>2023-02-14T10:49:38.797Z</time>
      </trkpt>
      <trkpt lat="45.57047" lon="5.54045">
        <ele>368</ele>
        <time>2023-02-14T10:49:39.797Z</time>
      </trkpt>
      <trkpt lat="45.57045" lon="5.54046">
        <ele>368</ele>
        <time>2023-02-14T10:49:40.797Z</time>
      </trkpt>
      <trkpt lat="45.57043" lon="5.54048">
        <ele>368</ele>
        <time>2023-02-14T10:49:41.797Z</time>
      </trkpt>
      <trkpt lat="45.57042" lon="5.54049">
        <ele>368</ele>
        <time>2023-02-14T10:49:42.797Z</time>
      </trkpt>
      <trkpt lat="45.5704" lon="5.54051">
        <ele>367</ele>
        <time>2023-02-14T10:49:43.797Z</time>
      </trkpt>
      <trkpt lat="45.57038" lon="5.54052">
        <ele>366</ele>
        <time>2023-02-14T10:49:44.797Z</time>
      </trkpt>
      <trkpt lat="45.57037" lon="5.54053">
        <ele>366</ele>
        <time>2023-02-14T10:49:45.797Z</time>
      </trkpt>
      <trkpt lat="45.57035" lon="5.54055">
        <ele>366</ele>
        <time>2023-02-14T10:49:46.797Z</time>
      </trkpt>
      <trkpt lat="45.57034" lon="5.54057">
        <ele>366</ele>
        <time>2023-02-14T10:49:47.797Z</time>
      </trkpt>
      <trkpt lat="45.57033" lon="5.54058">
        <ele>366</ele>
        <time>2023-02-14T10:49:48.797Z</time>
      </trkpt>
      <trkpt lat="45.57032" lon="5.5406">
        <ele>366</ele>
        <time>2023-02-14T10:49:49.797Z</time>
      </trkpt>
      <trkpt lat="45.5703" lon="5.54061">
        <ele>365</ele>
        <time>2023-02-14T10:49:50.797Z</time>
      </trkpt>
      <trkpt lat="45.57028" lon="5.54063">
        <ele>365</ele>
        <time>2023-02-14T10:49:51.797Z</time>
      </trkpt>
      <trkpt lat="45.57027" lon="5.54065">
        <ele>365</ele>
        <time>2023-02-14T10:49:52.797Z</time>
      </trkpt>
      <trkpt lat="45.57025" lon="5.54066">
        <ele>365</ele>
        <time>2023-02-14T10:49:53.797Z</time>
      </trkpt>
      <trkpt lat="45.57023" lon="5.54068">
        <ele>366</ele>
        <time>2023-02-14T10:49:54.797Z</time>
      </trkpt>
      <trkpt lat="45.57022" lon="5.54069">
        <ele>366</ele>
        <time>2023-02-14T10:49:55.797Z</time>
      </trkpt>
      <trkpt lat="45.57021" lon="5.54071">
        <ele>366</ele>
        <time>2023-02-14T10:49:56.797Z</time>
      </trkpt>
      <trkpt lat="45.57019" lon="5.54072">
        <ele>366</ele>
        <time>2023-02-14T10:49:57.797Z</time>
      </trkpt>
      <trkpt lat="45.57017" lon="5.54074">
        <ele>366</ele>
        <time>2023-02-14T10:49:58.797Z</time>
      </trkpt>
      <trkpt lat="45.57015" lon="5.54075">
        <ele>366</ele>
        <time>2023-02-14T10:49:59.797Z</time>
      </trkpt>
      <trkpt lat="45.57012" lon="5.54076">
        <ele>366</ele>
        <time>2023-02-14T10:50:00.797Z</time>
      </trkpt>
      <trkpt lat="45.5701" lon="5.54076">
        <ele>367</ele>
        <time>2023-02-14T10:50:01.797Z</time>
      </trkpt>
      <trkpt lat="45.57008" lon="5.54077">
        <ele>367</ele>
        <time>2023-02-14T10:50:02.797Z</time>
      </trkpt>
      <trkpt lat="45.57006" lon="5.54077">
        <ele>367</ele>
        <time>2023-02-14T10:50:03.797Z</time>
      </trkpt>
      <trkpt lat="45.57004" lon="5.54077">
        <ele>367</ele>
        <time>2023-02-14T10:50:04.797Z</time>
      </trkpt>
      <trkpt lat="45.57002" lon="5.54077">
        <ele>368</ele>
        <time>2023-02-14T10:50:05.797Z</time>
      </trkpt>
      <trkpt lat="45.57" lon="5.54076">
        <ele>368</ele>
        <time>2023-02-14T10:50:06.797Z</time>
      </trkpt>
      <trkpt lat="45.56998" lon="5.54076">
        <ele>369</ele>
        <time>2023-02-14T10:50:07.797Z</time>
      </trkpt>
      <trkpt lat="45.56997" lon="5.54076">
        <ele>369</ele>
        <time>2023-02-14T10:50:08.797Z</time>
      </trkpt>
      <trkpt lat="45.56996" lon="5.54075">
        <ele>370</ele>
        <time>2023-02-14T10:50:09.797Z</time>
      </trkpt>
      <trkpt lat="45.56995" lon="5.54074">
        <ele>370</ele>
        <time>2023-02-14T10:50:10.797Z</time>
      </trkpt>
      <trkpt lat="45.56993" lon="5.54074">
        <ele>370</ele>
        <time>2023-02-14T10:50:11.797Z</time>
      </trkpt>
      <trkpt lat="45.56992" lon="5.54073">
        <ele>371</ele>
        <time>2023-02-14T10:50:12.797Z</time>
      </trkpt>
      <trkpt lat="45.56991" lon="5.54072">
        <ele>371</ele>
        <time>2023-02-14T10:50:13.797Z</time>
      </trkpt>
      <trkpt lat="45.56989" lon="5.54071">
        <ele>372</ele>
        <time>2023-02-14T10:50:14.797Z</time>
      </trkpt>
      <trkpt lat="45.56988" lon="5.54071">
        <ele>372</ele>
        <time>2023-02-14T10:50:15.797Z</time>
      </trkpt>
      <trkpt lat="45.56986" lon="5.5407">
        <ele>372</ele>
        <time>2023-02-14T10:50:16.797Z</time>
      </trkpt>
      <trkpt lat="45.56985" lon="5.5407">
        <ele>373</ele>
        <time>2023-02-14T10:50:17.797Z</time>
      </trkpt>
      <trkpt lat="45.56983" lon="5.54069">
        <ele>373</ele>
        <time>2023-02-14T10:50:18.797Z</time>
      </trkpt>
      <trkpt lat="45.56982" lon="5.54069">
        <ele>373</ele>
        <time>2023-02-14T10:50:19.797Z</time>
      </trkpt>
      <trkpt lat="45.5698" lon="5.54068">
        <ele>373</ele>
        <time>2023-02-14T10:50:20.797Z</time>
      </trkpt>
      <trkpt lat="45.56979" lon="5.54068">
        <ele>373</ele>
        <time>2023-02-14T10:50:21.797Z</time>
      </trkpt>
      <trkpt lat="45.56977" lon="5.54067">
        <ele>373</ele>
        <time>2023-02-14T10:50:22.797Z</time>
      </trkpt>
      <trkpt lat="45.56975" lon="5.54066">
        <ele>373</ele>
        <time>2023-02-14T10:50:23.797Z</time>
      </trkpt>
      <trkpt lat="45.56974" lon="5.54065">
        <ele>373</ele>
        <time>2023-02-14T10:50:24.797Z</time>
      </trkpt>
      <trkpt lat="45.56972" lon="5.54064">
        <ele>373</ele>
        <time>2023-02-14T10:50:25.797Z</time>
      </trkpt>
      <trkpt lat="45.56971" lon="5.54063">
        <ele>373</ele>
        <time>2023-02-14T10:50:26.797Z</time>
      </trkpt>
      <trkpt lat="45.5697" lon="5.54062">
        <ele>374</ele>
        <time>2023-02-14T10:50:27.797Z</time>
      </trkpt>
      <trkpt lat="45.56969" lon="5.54061">
        <ele>374</ele>
        <time>2023-02-14T10:50:28.797Z</time>
      </trkpt>
      <trkpt lat="45.56968" lon="5.5406">
        <ele>374</ele>
        <time>2023-02-14T10:50:29.797Z</time>
      </trkpt>
      <trkpt lat="45.56967" lon="5.54058">
        <ele>374</ele>
        <time>2023-02-14T10:50:30.797Z</time>
      </trkpt>
      <trkpt lat="45.56965" lon="5.54056">
        <ele>374</ele>
        <time>2023-02-14T10:50:31.797Z</time>
      </trkpt>
      <trkpt lat="45.56964" lon="5.54054">
        <ele>374</ele>
        <time>2023-02-14T10:50:32.797Z</time>
      </trkpt>
      <trkpt lat="45.56962" lon="5.54052">
        <ele>374</ele>
        <time>2023-02-14T10:50:33.797Z</time>
      </trkpt>
      <trkpt lat="45.56961" lon="5.54051">
        <ele>374</ele>
        <time>2023-02-14T10:50:34.797Z</time>
      </trkpt>
      <trkpt lat="45.5696" lon="5.54049">
        <ele>374</ele>
        <time>2023-02-14T10:50:35.797Z</time>
      </trkpt>
      <trkpt lat="45.56959" lon="5.54047">
        <ele>374</ele>
        <time>2023-02-14T10:50:36.797Z</time>
      </trkpt>
      <trkpt lat="45.56958" lon="5.54045">
        <ele>375</ele>
        <time>2023-02-14T10:50:37.797Z</time>
      </trkpt>
      <trkpt lat="45.56958" lon="5.54042">
        <ele>375</ele>
        <time>2023-02-14T10:50:38.797Z</time>
      </trkpt>
      <trkpt lat="45.56957" lon="5.5404">
        <ele>375</ele>
        <time>2023-02-14T10:50:39.797Z</time>
      </trkpt>
      <trkpt lat="45.56956" lon="5.54038">
        <ele>375</ele>
        <time>2023-02-14T10:50:40.797Z</time>
      </trkpt>
      <trkpt lat="45.56956" lon="5.54037">
        <ele>375</ele>
        <time>2023-02-14T10:50:41.797Z</time>
      </trkpt>
      <trkpt lat="45.56955" lon="5.54035">
        <ele>375</ele>
        <time>2023-02-14T10:50:42.797Z</time>
      </trkpt>
      <trkpt lat="45.56955" lon="5.54034">
        <ele>375</ele>
        <time>2023-02-14T10:50:43.797Z</time>
      </trkpt>
      <trkpt lat="45.56954" lon="5.54032">
        <ele>376</ele>
        <time>2023-02-14T10:50:44.797Z</time>
      </trkpt>
      <trkpt lat="45.56954" lon="5.5403">
        <ele>376</ele>
        <time>2023-02-14T10:50:45.797Z</time>
      </trkpt>
      <trkpt lat="45.56954" lon="5.54028">
        <ele>376</ele>
        <time>2023-02-14T10:50:46.797Z</time>
      </trkpt>
      <trkpt lat="45.56955" lon="5.54026">
        <ele>376</ele>
        <time>2023-02-14T10:50:47.797Z</time>
      </trkpt>
      <trkpt lat="45.56955" lon="5.54025">
        <ele>376</ele>
        <time>2023-02-14T10:50:48.797Z</time>
      </trkpt>
      <trkpt lat="45.56955" lon="5.54023">
        <ele>376</ele>
        <time>2023-02-14T10:50:49.797Z</time>
      </trkpt>
      <trkpt lat="45.56955" lon="5.54021">
        <ele>376</ele>
        <time>2023-02-14T10:50:50.797Z</time>
      </trkpt>
      <trkpt lat="45.56955" lon="5.54019">
        <ele>376</ele>
        <time>2023-02-14T10:50:51.797Z</time>
      </trkpt>
      <trkpt lat="45.56955" lon="5.54017">
        <ele>377</ele>
        <time>2023-02-14T10:50:52.797Z</time>
      </trkpt>
      <trkpt lat="45.56954" lon="5.54015">
        <ele>376</ele>
        <time>2023-02-14T10:50:53.797Z</time>
      </trkpt>
      <trkpt lat="45.56954" lon="5.54013">
        <ele>376</ele>
        <time>2023-02-14T10:50:54.797Z</time>
      </trkpt>
      <trkpt lat="45.56954" lon="5.54011">
        <ele>376</ele>
        <time>2023-02-14T10:50:55.797Z</time>
      </trkpt>
      <trkpt lat="45.56954" lon="5.54009">
        <ele>376</ele>
        <time>2023-02-14T10:50:56.797Z</time>
      </trkpt>
      <trkpt lat="45.56953" lon="5.54007">
        <ele>376</ele>
        <time>2023-02-14T10:50:57.797Z</time>
      </trkpt>
      <trkpt lat="45.56953" lon="5.54004">
        <ele>376</ele>
        <time>2023-02-14T10:50:58.797Z</time>
      </trkpt>
      <trkpt lat="45.56953" lon="5.54001">
        <ele>376</ele>
        <time>2023-02-14T10:50:59.797Z</time>
      </trkpt>
      <trkpt lat="45.56953" lon="5.53999">
        <ele>377</ele>
        <time>2023-02-14T10:51:00.797Z</time>
      </trkpt>
      <trkpt lat="45.56953" lon="5.53997">
        <ele>377</ele>
        <time>2023-02-14T10:51:01.797Z</time>
      </trkpt>
      <trkpt lat="45.56953" lon="5.53995">
        <ele>377</ele>
        <time>2023-02-14T10:51:02.797Z</time>
      </trkpt>
      <trkpt lat="45.56953" lon="5.53993">
        <ele>377</ele>
        <time>2023-02-14T10:51:03.797Z</time>
      </trkpt>
      <trkpt lat="45.56953" lon="5.53991">
        <ele>377</ele>
        <time>2023-02-14T10:51:04.797Z</time>
      </trkpt>
      <trkpt lat="45.56953" lon="5.53989">
        <ele>378</ele>
        <time>2023-02-14T10:51:05.797Z</time>
      </trkpt>
      <trkpt lat="45.56954" lon="5.53987">
        <ele>378</ele>
        <time>2023-02-14T10:51:06.797Z</time>
      </trkpt>
      <trkpt lat="45.56954" lon="5.53985">
        <ele>378</ele>
        <time>2023-02-14T10:51:07.797Z</time>
      </trkpt>
      <trkpt lat="45.56954" lon="5.53984">
        <ele>377</ele>
        <time>2023-02-14T10:51:08.797Z</time>
      </trkpt>
      <trkpt lat="45.56953" lon="5.53982">
        <ele>377</ele>
        <time>2023-02-14T10:51:09.797Z</time>
      </trkpt>
      <trkpt lat="45.56953" lon="5.5398">
        <ele>377</ele>
        <time>2023-02-14T10:51:10.797Z</time>
      </trkpt>
      <trkpt lat="45.56953" lon="5.53977">
        <ele>377</ele>
        <time>2023-02-14T10:51:11.797Z</time>
      </trkpt>
      <trkpt lat="45.56953" lon="5.53975">
        <ele>377</ele>
        <time>2023-02-14T10:51:12.797Z</time>
      </trkpt>
      <trkpt lat="45.56953" lon="5.53973">
        <ele>377</ele>
        <time>2023-02-14T10:51:13.797Z</time>
      </trkpt>
      <trkpt lat="45.56953" lon="5.53971">
        <ele>377</ele>
        <time>2023-02-14T10:51:14.797Z</time>
      </trkpt>
      <trkpt lat="45.56953" lon="5.53969">
        <ele>377</ele>
        <time>2023-02-14T10:51:15.797Z</time>
      </trkpt>
      <trkpt lat="45.56953" lon="5.53968">
        <ele>377</ele>
        <time>2023-02-14T10:51:16.797Z</time>
      </trkpt>
      <trkpt lat="45.56953" lon="5.53966">
        <ele>377</ele>
        <time>2023-02-14T10:51:17.797Z</time>
      </trkpt>
      <trkpt lat="45.56953" lon="5.53963">
        <ele>377</ele>
        <time>2023-02-14T10:51:18.797Z</time>
      </trkpt>
      <trkpt lat="45.56953" lon="5.53961">
        <ele>377</ele>
        <time>2023-02-14T10:51:19.797Z</time>
      </trkpt>
      <trkpt lat="45.56953" lon="5.53958">
        <ele>377</ele>
        <time>2023-02-14T10:51:20.797Z</time>
      </trkpt>
      <trkpt lat="45.56953" lon="5.53955">
        <ele>377</ele>
        <time>2023-02-14T10:51:21.797Z</time>
      </trkpt>
      <trkpt lat="45.56953" lon="5.53953">
        <ele>377</ele>
        <time>2023-02-14T10:51:22.797Z</time>
      </trkpt>
      <trkpt lat="45.56952" lon="5.5395">
        <ele>377</ele>
        <time>2023-02-14T10:51:23.797Z</time>
      </trkpt>
      <trkpt lat="45.56952" lon="5.53948">
        <ele>377</ele>
        <time>2023-02-14T10:51:24.797Z</time>
      </trkpt>
      <trkpt lat="45.56952" lon="5.53945">
        <ele>377</ele>
        <time>2023-02-14T10:51:25.797Z</time>
      </trkpt>
      <trkpt lat="45.56952" lon="5.53942">
        <ele>376</ele>
        <time>2023-02-14T10:51:26.797Z</time>
      </trkpt>
      <trkpt lat="45.56952" lon="5.5394">
        <ele>376</ele>
        <time>2023-02-14T10:51:27.797Z</time>
      </trkpt>
      <trkpt lat="45.56952" lon="5.53938">
        <ele>376</ele>
        <time>2023-02-14T10:51:28.797Z</time>
      </trkpt>
      <trkpt lat="45.56952" lon="5.53935">
        <ele>376</ele>
        <time>2023-02-14T10:51:29.797Z</time>
      </trkpt>
      <trkpt lat="45.56952" lon="5.53932">
        <ele>376</ele>
        <time>2023-02-14T10:51:30.797Z</time>
      </trkpt>
      <trkpt lat="45.56952" lon="5.5393">
        <ele>376</ele>
        <time>2023-02-14T10:51:31.797Z</time>
      </trkpt>
      <trkpt lat="45.56952" lon="5.53927">
        <ele>376</ele>
        <time>2023-02-14T10:51:32.797Z</time>
      </trkpt>
      <trkpt lat="45.56952" lon="5.53924">
        <ele>376</ele>
        <time>2023-02-14T10:51:33.797Z</time>
      </trkpt>
      <trkpt lat="45.56952" lon="5.53921">
        <ele>376</ele>
        <time>2023-02-14T10:51:34.797Z</time>
      </trkpt>
      <trkpt lat="45.56952" lon="5.53919">
        <ele>377</ele>
        <time>2023-02-14T10:51:35.797Z</time>
      </trkpt>
      <trkpt lat="45.56952" lon="5.53916">
        <ele>377</ele>
        <time>2023-02-14T10:51:36.797Z</time>
      </trkpt>
      <trkpt lat="45.56952" lon="5.53913">
        <ele>377</ele>
        <time>2023-02-14T10:51:37.797Z</time>
      </trkpt>
      <trkpt lat="45.56952" lon="5.53911">
        <ele>377</ele>
        <time>2023-02-14T10:51:38.797Z</time>
      </trkpt>
      <trkpt lat="45.56952" lon="5.53908">
        <ele>377</ele>
        <time>2023-02-14T10:51:39.797Z</time>
      </trkpt>
      <trkpt lat="45.56952" lon="5.53906">
        <ele>377</ele>
        <time>2023-02-14T10:51:40.797Z</time>
      </trkpt>
      <trkpt lat="45.56952" lon="5.53903">
        <ele>377</ele>
        <time>2023-02-14T10:51:41.797Z</time>
      </trkpt>
      <trkpt lat="45.56953" lon="5.53901">
        <ele>377</ele>
        <time>2023-02-14T10:51:42.797Z</time>
      </trkpt>
      <trkpt lat="45.56953" lon="5.53899">
        <ele>377</ele>
        <time>2023-02-14T10:51:43.797Z</time>
      </trkpt>
      <trkpt lat="45.56953" lon="5.53896">
        <ele>377</ele>
        <time>2023-02-14T10:51:44.797Z</time>
      </trkpt>
      <trkpt lat="45.56953" lon="5.53893">
        <ele>377</ele>
        <time>2023-02-14T10:51:45.797Z</time>
      </trkpt>
      <trkpt lat="45.56953" lon="5.53891">
        <ele>377</ele>
        <time>2023-02-14T10:51:46.797Z</time>
      </trkpt>
      <trkpt lat="45.56953" lon="5.53888">
        <ele>377</ele>
        <time>2023-02-14T10:51:47.797Z</time>
      </trkpt>
      <trkpt lat="45.56953" lon="5.53885">
        <ele>377</ele>
        <time>2023-02-14T10:51:48.797Z</time>
      </trkpt>
      <trkpt lat="45.56953" lon="5.53882">
        <ele>376</ele>
        <time>2023-02-14T10:51:49.797Z</time>
      </trkpt>
      <trkpt lat="45.56953" lon="5.53878">
        <ele>377</ele>
        <time>2023-02-14T10:51:50.797Z</time>
      </trkpt>
      <trkpt lat="45.56953" lon="5.53875">
        <ele>377</ele>
        <time>2023-02-14T10:51:51.797Z</time>
      </trkpt>
      <trkpt lat="45.56953" lon="5.53872">
        <ele>377</ele>
        <time>2023-02-14T10:51:52.797Z</time>
      </trkpt>
      <trkpt lat="45.56953" lon="5.53869">
        <ele>378</ele>
        <time>2023-02-14T10:51:53.797Z</time>
      </trkpt>
      <trkpt lat="45.56953" lon="5.53865">
        <ele>378</ele>
        <time>2023-02-14T10:51:54.797Z</time>
      </trkpt>
      <trkpt lat="45.56953" lon="5.53862">
        <ele>378</ele>
        <time>2023-02-14T10:51:55.797Z</time>
      </trkpt>
      <trkpt lat="45.56953" lon="5.53859">
        <ele>377</ele>
        <time>2023-02-14T10:51:56.797Z</time>
      </trkpt>
      <trkpt lat="45.56952" lon="5.53855">
        <ele>377</ele>
        <time>2023-02-14T10:51:57.797Z</time>
      </trkpt>
      <trkpt lat="45.56952" lon="5.53852">
        <ele>378</ele>
        <time>2023-02-14T10:51:58.797Z</time>
      </trkpt>
      <trkpt lat="45.56952" lon="5.53848">
        <ele>377</ele>
        <time>2023-02-14T10:51:59.797Z</time>
      </trkpt>
      <trkpt lat="45.56951" lon="5.53844">
        <ele>378</ele>
        <time>2023-02-14T10:52:00.797Z</time>
      </trkpt>
      <trkpt lat="45.56951" lon="5.53841">
        <ele>378</ele>
        <time>2023-02-14T10:52:01.797Z</time>
      </trkpt>
      <trkpt lat="45.56951" lon="5.53837">
        <ele>378</ele>
        <time>2023-02-14T10:52:02.797Z</time>
      </trkpt>
      <trkpt lat="45.56951" lon="5.53834">
        <ele>377</ele>
        <time>2023-02-14T10:52:03.797Z</time>
      </trkpt>
      <trkpt lat="45.56951" lon="5.5383">
        <ele>377</ele>
        <time>2023-02-14T10:52:04.797Z</time>
      </trkpt>
      <trkpt lat="45.56951" lon="5.53827">
        <ele>378</ele>
        <time>2023-02-14T10:52:05.797Z</time>
      </trkpt>
      <trkpt lat="45.56951" lon="5.53824">
        <ele>378</ele>
        <time>2023-02-14T10:52:06.797Z</time>
      </trkpt>
      <trkpt lat="45.56951" lon="5.53821">
        <ele>378</ele>
        <time>2023-02-14T10:52:07.797Z</time>
      </trkpt>
      <trkpt lat="45.56951" lon="5.53817">
        <ele>378</ele>
        <time>2023-02-14T10:52:08.797Z</time>
      </trkpt>
      <trkpt lat="45.56951" lon="5.53814">
        <ele>378</ele>
        <time>2023-02-14T10:52:09.797Z</time>
      </trkpt>
      <trkpt lat="45.56951" lon="5.53811">
        <ele>377</ele>
        <time>2023-02-14T10:52:10.797Z</time>
      </trkpt>
      <trkpt lat="45.56951" lon="5.53807">
        <ele>377</ele>
        <time>2023-02-14T10:52:11.797Z</time>
      </trkpt>
      <trkpt lat="45.56951" lon="5.53804">
        <ele>378</ele>
        <time>2023-02-14T10:52:12.797Z</time>
      </trkpt>
      <trkpt lat="45.56951" lon="5.538">
        <ele>379</ele>
        <time>2023-02-14T10:52:13.797Z</time>
      </trkpt>
      <trkpt lat="45.5695" lon="5.53796">
        <ele>380</ele>
        <time>2023-02-14T10:52:14.797Z</time>
      </trkpt>
      <trkpt lat="45.5695" lon="5.53792">
        <ele>380</ele>
        <time>2023-02-14T10:52:15.797Z</time>
      </trkpt>
      <trkpt lat="45.5695" lon="5.53789">
        <ele>381</ele>
        <time>2023-02-14T10:52:16.797Z</time>
      </trkpt>
      <trkpt lat="45.56951" lon="5.53786">
        <ele>381</ele>
        <time>2023-02-14T10:52:17.797Z</time>
      </trkpt>
      <trkpt lat="45.5695" lon="5.53782">
        <ele>382</ele>
        <time>2023-02-14T10:52:18.797Z</time>
      </trkpt>
      <trkpt lat="45.5695" lon="5.53779">
        <ele>382</ele>
        <time>2023-02-14T10:52:19.797Z</time>
      </trkpt>
      <trkpt lat="45.5695" lon="5.53776">
        <ele>382</ele>
        <time>2023-02-14T10:52:20.797Z</time>
      </trkpt>
      <trkpt lat="45.5695" lon="5.53772">
        <ele>383</ele>
        <time>2023-02-14T10:52:21.797Z</time>
      </trkpt>
      <trkpt lat="45.5695" lon="5.53769">
        <ele>383</ele>
        <time>2023-02-14T10:52:22.797Z</time>
      </trkpt>
      <trkpt lat="45.56951" lon="5.53765">
        <ele>383</ele>
        <time>2023-02-14T10:52:23.797Z</time>
      </trkpt>
      <trkpt lat="45.56951" lon="5.53762">
        <ele>383</ele>
        <time>2023-02-14T10:52:24.797Z</time>
      </trkpt>
      <trkpt lat="45.56951" lon="5.53758">
        <ele>383</ele>
        <time>2023-02-14T10:52:25.797Z</time>
      </trkpt>
      <trkpt lat="45.56951" lon="5.53755">
        <ele>383</ele>
        <time>2023-02-14T10:52:26.797Z</time>
      </trkpt>
      <trkpt lat="45.56952" lon="5.53751">
        <ele>384</ele>
        <time>2023-02-14T10:52:27.797Z</time>
      </trkpt>
      <trkpt lat="45.56952" lon="5.53748">
        <ele>384</ele>
        <time>2023-02-14T10:52:28.797Z</time>
      </trkpt>
      <trkpt lat="45.56952" lon="5.53744">
        <ele>384</ele>
        <time>2023-02-14T10:52:29.797Z</time>
      </trkpt>
      <trkpt lat="45.56952" lon="5.5374">
        <ele>384</ele>
        <time>2023-02-14T10:52:30.797Z</time>
      </trkpt>
      <trkpt lat="45.56953" lon="5.53737">
        <ele>385</ele>
        <time>2023-02-14T10:52:31.797Z</time>
      </trkpt>
      <trkpt lat="45.56953" lon="5.53733">
        <ele>385</ele>
        <time>2023-02-14T10:52:32.797Z</time>
      </trkpt>
      <trkpt lat="45.56953" lon="5.53729">
        <ele>385</ele>
        <time>2023-02-14T10:52:33.797Z</time>
      </trkpt>
      <trkpt lat="45.56953" lon="5.53726">
        <ele>385</ele>
        <time>2023-02-14T10:52:34.797Z</time>
      </trkpt>
      <trkpt lat="45.56954" lon="5.53722">
        <ele>386</ele>
        <time>2023-02-14T10:52:35.797Z</time>
      </trkpt>
      <trkpt lat="45.56954" lon="5.53718">
        <ele>386</ele>
        <time>2023-02-14T10:52:36.797Z</time>
      </trkpt>
      <trkpt lat="45.56954" lon="5.53715">
        <ele>386</ele>
        <time>2023-02-14T10:52:37.797Z</time>
      </trkpt>
      <trkpt lat="45.56954" lon="5.53711">
        <ele>386</ele>
        <time>2023-02-14T10:52:38.797Z</time>
      </trkpt>
      <trkpt lat="45.56954" lon="5.53707">
        <ele>387</ele>
        <time>2023-02-14T10:52:39.797Z</time>
      </trkpt>
      <trkpt lat="45.56955" lon="5.53703">
        <ele>387</ele>
        <time>2023-02-14T10:52:40.797Z</time>
      </trkpt>
      <trkpt lat="45.56955" lon="5.537">
        <ele>387</ele>
        <time>2023-02-14T10:52:41.797Z</time>
      </trkpt>
      <trkpt lat="45.56955" lon="5.53696">
        <ele>387</ele>
        <time>2023-02-14T10:52:42.797Z</time>
      </trkpt>
      <trkpt lat="45.56955" lon="5.53692">
        <ele>387</ele>
        <time>2023-02-14T10:52:43.797Z</time>
      </trkpt>
      <trkpt lat="45.56955" lon="5.53689">
        <ele>387</ele>
        <time>2023-02-14T10:52:44.797Z</time>
      </trkpt>
      <trkpt lat="45.56955" lon="5.53685">
        <ele>387</ele>
        <time>2023-02-14T10:52:45.797Z</time>
      </trkpt>
      <trkpt lat="45.56956" lon="5.53682">
        <ele>387</ele>
        <time>2023-02-14T10:52:46.797Z</time>
      </trkpt>
      <trkpt lat="45.56956" lon="5.53678">
        <ele>387</ele>
        <time>2023-02-14T10:52:47.797Z</time>
      </trkpt>
      <trkpt lat="45.56956" lon="5.53675">
        <ele>388</ele>
        <time>2023-02-14T10:52:48.797Z</time>
      </trkpt>
      <trkpt lat="45.56956" lon="5.53672">
        <ele>388</ele>
        <time>2023-02-14T10:52:49.797Z</time>
      </trkpt>
      <trkpt lat="45.56955" lon="5.53669">
        <ele>388</ele>
        <time>2023-02-14T10:52:50.797Z</time>
      </trkpt>
      <trkpt lat="45.56955" lon="5.53666">
        <ele>388</ele>
        <time>2023-02-14T10:52:51.797Z</time>
      </trkpt>
      <trkpt lat="45.56954" lon="5.53663">
        <ele>389</ele>
        <time>2023-02-14T10:52:52.797Z</time>
      </trkpt>
      <trkpt lat="45.56952" lon="5.53661">
        <ele>389</ele>
        <time>2023-02-14T10:52:53.797Z</time>
      </trkpt>
      <trkpt lat="45.56951" lon="5.53659">
        <ele>389</ele>
        <time>2023-02-14T10:52:54.797Z</time>
      </trkpt>
      <trkpt lat="45.56949" lon="5.53658">
        <ele>389</ele>
        <time>2023-02-14T10:52:55.797Z</time>
      </trkpt>
      <trkpt lat="45.56947" lon="5.53657">
        <ele>390</ele>
        <time>2023-02-14T10:52:56.797Z</time>
      </trkpt>
      <trkpt lat="45.56946" lon="5.53657">
        <ele>390</ele>
        <time>2023-02-14T10:52:57.797Z</time>
      </trkpt>
      <trkpt lat="45.56944" lon="5.53656">
        <ele>390</ele>
        <time>2023-02-14T10:52:58.797Z</time>
      </trkpt>
      <trkpt lat="45.56943" lon="5.53656">
        <ele>390</ele>
        <time>2023-02-14T10:52:59.797Z</time>
      </trkpt>
      <trkpt lat="45.56941" lon="5.53656">
        <ele>390</ele>
        <time>2023-02-14T10:53:00.797Z</time>
      </trkpt>
      <trkpt lat="45.56939" lon="5.53656">
        <ele>390</ele>
        <time>2023-02-14T10:53:01.797Z</time>
      </trkpt>
      <trkpt lat="45.56937" lon="5.53656">
        <ele>390</ele>
        <time>2023-02-14T10:53:02.797Z</time>
      </trkpt>
      <trkpt lat="45.56935" lon="5.53656">
        <ele>390</ele>
        <time>2023-02-14T10:53:03.797Z</time>
      </trkpt>
      <trkpt lat="45.56934" lon="5.53656">
        <ele>390</ele>
        <time>2023-02-14T10:53:04.797Z</time>
      </trkpt>
      <trkpt lat="45.56932" lon="5.53657">
        <ele>390</ele>
        <time>2023-02-14T10:53:05.797Z</time>
      </trkpt>
      <trkpt lat="45.56931" lon="5.53657">
        <ele>390</ele>
        <time>2023-02-14T10:53:06.797Z</time>
      </trkpt>
      <trkpt lat="45.56929" lon="5.53657">
        <ele>390</ele>
        <time>2023-02-14T10:53:07.797Z</time>
      </trkpt>
      <trkpt lat="45.56927" lon="5.53657">
        <ele>390</ele>
        <time>2023-02-14T10:53:08.797Z</time>
      </trkpt>
      <trkpt lat="45.56925" lon="5.53657">
        <ele>390</ele>
        <time>2023-02-14T10:53:09.797Z</time>
      </trkpt>
      <trkpt lat="45.56923" lon="5.53657">
        <ele>390</ele>
        <time>2023-02-14T10:53:10.797Z</time>
      </trkpt>
      <trkpt lat="45.56922" lon="5.53657">
        <ele>390</ele>
        <time>2023-02-14T10:53:11.797Z</time>
      </trkpt>
      <trkpt lat="45.5692" lon="5.53657">
        <ele>391</ele>
        <time>2023-02-14T10:53:12.797Z</time>
      </trkpt>
      <trkpt lat="45.56918" lon="5.53656">
        <ele>391</ele>
        <time>2023-02-14T10:53:13.797Z</time>
      </trkpt>
      <trkpt lat="45.56916" lon="5.53656">
        <ele>391</ele>
        <time>2023-02-14T10:53:14.797Z</time>
      </trkpt>
      <trkpt lat="45.56915" lon="5.53656">
        <ele>391</ele>
        <time>2023-02-14T10:53:15.797Z</time>
      </trkpt>
      <trkpt lat="45.56913" lon="5.53656">
        <ele>391</ele>
        <time>2023-02-14T10:53:16.797Z</time>
      </trkpt>
      <trkpt lat="45.56911" lon="5.53656">
        <ele>392</ele>
        <time>2023-02-14T10:53:17.797Z</time>
      </trkpt>
      <trkpt lat="45.56909" lon="5.53656">
        <ele>392</ele>
        <time>2023-02-14T10:53:18.797Z</time>
      </trkpt>
      <trkpt lat="45.56908" lon="5.53656">
        <ele>391</ele>
        <time>2023-02-14T10:53:19.797Z</time>
      </trkpt>
      <trkpt lat="45.56906" lon="5.53656">
        <ele>392</ele>
        <time>2023-02-14T10:53:20.797Z</time>
      </trkpt>
      <trkpt lat="45.56904" lon="5.53656">
        <ele>392</ele>
        <time>2023-02-14T10:53:21.797Z</time>
      </trkpt>
      <trkpt lat="45.56903" lon="5.53655">
        <ele>392</ele>
        <time>2023-02-14T10:53:22.797Z</time>
      </trkpt>
      <trkpt lat="45.56901" lon="5.53656">
        <ele>392</ele>
        <time>2023-02-14T10:53:23.797Z</time>
      </trkpt>
      <trkpt lat="45.569" lon="5.53656">
        <ele>392</ele>
        <time>2023-02-14T10:53:24.797Z</time>
      </trkpt>
      <trkpt lat="45.56899" lon="5.53656">
        <ele>392</ele>
        <time>2023-02-14T10:53:25.797Z</time>
      </trkpt>
      <trkpt lat="45.56892" lon="5.53657">
        <ele>397</ele>
        <time>2023-02-14T10:56:33.688Z</time>
      </trkpt>
      <trkpt lat="45.5689" lon="5.53657">
        <ele>396</ele>
        <time>2023-02-14T10:56:34.688Z</time>
      </trkpt>
      <trkpt lat="45.56889" lon="5.53657">
        <ele>396</ele>
        <time>2023-02-14T10:56:35.688Z</time>
      </trkpt>
      <trkpt lat="45.56886" lon="5.53657">
        <ele>395</ele>
        <time>2023-02-14T10:56:36.688Z</time>
      </trkpt>
      <trkpt lat="45.56884" lon="5.53658">
        <ele>395</ele>
        <time>2023-02-14T10:56:37.688Z</time>
      </trkpt>
      <trkpt lat="45.56881" lon="5.53658">
        <ele>394</ele>
        <time>2023-02-14T10:56:38.688Z</time>
      </trkpt>
      <trkpt lat="45.56878" lon="5.53658">
        <ele>393</ele>
        <time>2023-02-14T10:56:39.688Z</time>
      </trkpt>
      <trkpt lat="45.56875" lon="5.53658">
        <ele>393</ele>
        <time>2023-02-14T10:56:40.688Z</time>
      </trkpt>
      <trkpt lat="45.5687" lon="5.53658">
        <ele>392</ele>
        <time>2023-02-14T10:56:41.688Z</time>
      </trkpt>
      <trkpt lat="45.56866" lon="5.53657">
        <ele>391</ele>
        <time>2023-02-14T10:56:42.688Z</time>
      </trkpt>
      <trkpt lat="45.56861" lon="5.53657">
        <ele>391</ele>
        <time>2023-02-14T10:56:43.688Z</time>
      </trkpt>
      <trkpt lat="45.56856" lon="5.53656">
        <ele>390</ele>
        <time>2023-02-14T10:56:44.688Z</time>
      </trkpt>
      <trkpt lat="45.5685" lon="5.53656">
        <ele>389</ele>
        <time>2023-02-14T10:56:45.688Z</time>
      </trkpt>
      <trkpt lat="45.56845" lon="5.53656">
        <ele>389</ele>
        <time>2023-02-14T10:56:46.688Z</time>
      </trkpt>
      <trkpt lat="45.56839" lon="5.53655">
        <ele>388</ele>
        <time>2023-02-14T10:56:47.688Z</time>
      </trkpt>
      <trkpt lat="45.56833" lon="5.53655">
        <ele>387</ele>
        <time>2023-02-14T10:56:48.688Z</time>
      </trkpt>
      <trkpt lat="45.56826" lon="5.53655">
        <ele>387</ele>
        <time>2023-02-14T10:56:49.688Z</time>
      </trkpt>
      <trkpt lat="45.5682" lon="5.53654">
        <ele>386</ele>
        <time>2023-02-14T10:56:50.688Z</time>
      </trkpt>
      <trkpt lat="45.56814" lon="5.53654">
        <ele>385</ele>
        <time>2023-02-14T10:56:51.688Z</time>
      </trkpt>
      <trkpt lat="45.56807" lon="5.53653">
        <ele>384</ele>
        <time>2023-02-14T10:56:52.688Z</time>
      </trkpt>
      <trkpt lat="45.56801" lon="5.53653">
        <ele>383</ele>
        <time>2023-02-14T10:56:53.688Z</time>
      </trkpt>
      <trkpt lat="45.56794" lon="5.53653">
        <ele>383</ele>
        <time>2023-02-14T10:56:54.688Z</time>
      </trkpt>
      <trkpt lat="45.56787" lon="5.53652">
        <ele>382</ele>
        <time>2023-02-14T10:56:55.688Z</time>
      </trkpt>
      <trkpt lat="45.5678" lon="5.53652">
        <ele>382</ele>
        <time>2023-02-14T10:56:56.688Z</time>
      </trkpt>
      <trkpt lat="45.56774" lon="5.53651">
        <ele>382</ele>
        <time>2023-02-14T10:56:57.688Z</time>
      </trkpt>
      <trkpt lat="45.56767" lon="5.5365">
        <ele>381</ele>
        <time>2023-02-14T10:56:58.688Z</time>
      </trkpt>
      <trkpt lat="45.56761" lon="5.5365">
        <ele>381</ele>
        <time>2023-02-14T10:56:59.688Z</time>
      </trkpt>
      <trkpt lat="45.56755" lon="5.53649">
        <ele>381</ele>
        <time>2023-02-14T10:57:00.688Z</time>
      </trkpt>
      <trkpt lat="45.5675" lon="5.53648">
        <ele>381</ele>
        <time>2023-02-14T10:57:01.688Z</time>
      </trkpt>
      <trkpt lat="45.56744" lon="5.53647">
        <ele>380</ele>
        <time>2023-02-14T10:57:02.688Z</time>
      </trkpt>
      <trkpt lat="45.5674" lon="5.53644">
        <ele>380</ele>
        <time>2023-02-14T10:57:03.688Z</time>
      </trkpt>
      <trkpt lat="45.56736" lon="5.53641">
        <ele>380</ele>
        <time>2023-02-14T10:57:04.688Z</time>
      </trkpt>
      <trkpt lat="45.56733" lon="5.53636">
        <ele>380</ele>
        <time>2023-02-14T10:57:05.688Z</time>
      </trkpt>
      <trkpt lat="45.5673" lon="5.53632">
        <ele>380</ele>
        <time>2023-02-14T10:57:06.688Z</time>
      </trkpt>
      <trkpt lat="45.56728" lon="5.53628">
        <ele>380</ele>
        <time>2023-02-14T10:57:07.688Z</time>
      </trkpt>
      <trkpt lat="45.56726" lon="5.53624">
        <ele>380</ele>
        <time>2023-02-14T10:57:08.688Z</time>
      </trkpt>
      <trkpt lat="45.56723" lon="5.53621">
        <ele>380</ele>
        <time>2023-02-14T10:57:09.688Z</time>
      </trkpt>
      <trkpt lat="45.56721" lon="5.53617">
        <ele>380</ele>
        <time>2023-02-14T10:57:10.688Z</time>
      </trkpt>
      <trkpt lat="45.56719" lon="5.53613">
        <ele>380</ele>
        <time>2023-02-14T10:57:11.688Z</time>
      </trkpt>
      <trkpt lat="45.56717" lon="5.5361">
        <ele>380</ele>
        <time>2023-02-14T10:57:12.688Z</time>
      </trkpt>
      <trkpt lat="45.56715" lon="5.53607">
        <ele>380</ele>
        <time>2023-02-14T10:57:13.688Z</time>
      </trkpt>
      <trkpt lat="45.56712" lon="5.53604">
        <ele>379</ele>
        <time>2023-02-14T10:57:14.688Z</time>
      </trkpt>
      <trkpt lat="45.56709" lon="5.53602">
        <ele>379</ele>
        <time>2023-02-14T10:57:15.688Z</time>
      </trkpt>
      <trkpt lat="45.56706" lon="5.53599">
        <ele>379</ele>
        <time>2023-02-14T10:57:16.688Z</time>
      </trkpt>
      <trkpt lat="45.56703" lon="5.53597">
        <ele>379</ele>
        <time>2023-02-14T10:57:17.688Z</time>
      </trkpt>
      <trkpt lat="45.567" lon="5.53595">
        <ele>379</ele>
        <time>2023-02-14T10:57:18.688Z</time>
      </trkpt>
      <trkpt lat="45.56696" lon="5.53592">
        <ele>378</ele>
        <time>2023-02-14T10:57:19.688Z</time>
      </trkpt>
      <trkpt lat="45.56692" lon="5.5359">
        <ele>378</ele>
        <time>2023-02-14T10:57:20.688Z</time>
      </trkpt>
      <trkpt lat="45.56689" lon="5.53589">
        <ele>377</ele>
        <time>2023-02-14T10:57:21.688Z</time>
      </trkpt>
      <trkpt lat="45.56685" lon="5.53586">
        <ele>377</ele>
        <time>2023-02-14T10:57:22.688Z</time>
      </trkpt>
      <trkpt lat="45.56682" lon="5.53583">
        <ele>378</ele>
        <time>2023-02-14T10:57:23.688Z</time>
      </trkpt>
      <trkpt lat="45.56679" lon="5.5358">
        <ele>377</ele>
        <time>2023-02-14T10:57:24.688Z</time>
      </trkpt>
      <trkpt lat="45.56677" lon="5.53575">
        <ele>378</ele>
        <time>2023-02-14T10:57:25.688Z</time>
      </trkpt>
      <trkpt lat="45.56676" lon="5.5357">
        <ele>377</ele>
        <time>2023-02-14T10:57:26.688Z</time>
      </trkpt>
      <trkpt lat="45.56675" lon="5.53565">
        <ele>377</ele>
        <time>2023-02-14T10:57:27.688Z</time>
      </trkpt>
      <trkpt lat="45.56675" lon="5.53561">
        <ele>377</ele>
        <time>2023-02-14T10:57:28.688Z</time>
      </trkpt>
      <trkpt lat="45.56676" lon="5.53557">
        <ele>377</ele>
        <time>2023-02-14T10:57:29.688Z</time>
      </trkpt>
      <trkpt lat="45.56677" lon="5.53553">
        <ele>377</ele>
        <time>2023-02-14T10:57:30.688Z</time>
      </trkpt>
      <trkpt lat="45.56679" lon="5.53549">
        <ele>377</ele>
        <time>2023-02-14T10:57:31.688Z</time>
      </trkpt>
      <trkpt lat="45.5668" lon="5.53546">
        <ele>377</ele>
        <time>2023-02-14T10:57:32.688Z</time>
      </trkpt>
      <trkpt lat="45.56682" lon="5.53542">
        <ele>378</ele>
        <time>2023-02-14T10:57:33.688Z</time>
      </trkpt>
      <trkpt lat="45.56683" lon="5.5354">
        <ele>378</ele>
        <time>2023-02-14T10:57:34.688Z</time>
      </trkpt>
      <trkpt lat="45.56684" lon="5.53537">
        <ele>378</ele>
        <time>2023-02-14T10:57:35.688Z</time>
      </trkpt>
      <trkpt lat="45.56686" lon="5.53535">
        <ele>378</ele>
        <time>2023-02-14T10:57:36.688Z</time>
      </trkpt>
      <trkpt lat="45.56687" lon="5.53533">
        <ele>378</ele>
        <time>2023-02-14T10:57:37.688Z</time>
      </trkpt>
      <trkpt lat="45.56688" lon="5.5353">
        <ele>378</ele>
        <time>2023-02-14T10:57:38.688Z</time>
      </trkpt>
      <trkpt lat="45.5669" lon="5.53528">
        <ele>379</ele>
        <time>2023-02-14T10:57:39.688Z</time>
      </trkpt>
      <trkpt lat="45.56691" lon="5.53526">
        <ele>379</ele>
        <time>2023-02-14T10:57:40.688Z</time>
      </trkpt>
      <trkpt lat="45.56692" lon="5.53523">
        <ele>379</ele>
        <time>2023-02-14T10:57:41.688Z</time>
      </trkpt>
      <trkpt lat="45.56694" lon="5.53521">
        <ele>379</ele>
        <time>2023-02-14T10:57:42.688Z</time>
      </trkpt>
      <trkpt lat="45.56695" lon="5.53518">
        <ele>379</ele>
        <time>2023-02-14T10:57:43.688Z</time>
      </trkpt>
      <trkpt lat="45.56696" lon="5.53516">
        <ele>380</ele>
        <time>2023-02-14T10:57:44.688Z</time>
      </trkpt>
      <trkpt lat="45.56697" lon="5.53514">
        <ele>380</ele>
        <time>2023-02-14T10:57:45.688Z</time>
      </trkpt>
      <trkpt lat="45.56697" lon="5.53511">
        <ele>379</ele>
        <time>2023-02-14T10:57:46.688Z</time>
      </trkpt>
      <trkpt lat="45.56696" lon="5.53509">
        <ele>379</ele>
        <time>2023-02-14T10:57:47.688Z</time>
      </trkpt>
      <trkpt lat="45.56695" lon="5.53507">
        <ele>379</ele>
        <time>2023-02-14T10:57:48.688Z</time>
      </trkpt>
      <trkpt lat="45.56694" lon="5.53506">
        <ele>379</ele>
        <time>2023-02-14T10:57:49.688Z</time>
      </trkpt>
      <trkpt lat="45.56692" lon="5.53504">
        <ele>379</ele>
        <time>2023-02-14T10:57:50.688Z</time>
      </trkpt>
      <trkpt lat="45.56689" lon="5.53503">
        <ele>378</ele>
        <time>2023-02-14T10:57:51.688Z</time>
      </trkpt>
      <trkpt lat="45.56687" lon="5.53502">
        <ele>378</ele>
        <time>2023-02-14T10:57:52.688Z</time>
      </trkpt>
      <trkpt lat="45.56685" lon="5.535">
        <ele>378</ele>
        <time>2023-02-14T10:57:53.688Z</time>
      </trkpt>
      <trkpt lat="45.56682" lon="5.53499">
        <ele>377</ele>
        <time>2023-02-14T10:57:54.688Z</time>
      </trkpt>
      <trkpt lat="45.56678" lon="5.53498">
        <ele>377</ele>
        <time>2023-02-14T10:57:55.688Z</time>
      </trkpt>
      <trkpt lat="45.56675" lon="5.53498">
        <ele>376</ele>
        <time>2023-02-14T10:57:56.688Z</time>
      </trkpt>
      <trkpt lat="45.56671" lon="5.53498">
        <ele>376</ele>
        <time>2023-02-14T10:57:57.688Z</time>
      </trkpt>
      <trkpt lat="45.56667" lon="5.53498">
        <ele>376</ele>
        <time>2023-02-14T10:57:58.688Z</time>
      </trkpt>
      <trkpt lat="45.56662" lon="5.53499">
        <ele>376</ele>
        <time>2023-02-14T10:57:59.688Z</time>
      </trkpt>
      <trkpt lat="45.56658" lon="5.535">
        <ele>375</ele>
        <time>2023-02-14T10:58:00.688Z</time>
      </trkpt>
      <trkpt lat="45.56654" lon="5.53502">
        <ele>375</ele>
        <time>2023-02-14T10:58:01.688Z</time>
      </trkpt>
      <trkpt lat="45.56649" lon="5.53504">
        <ele>374</ele>
        <time>2023-02-14T10:58:02.688Z</time>
      </trkpt>
      <trkpt lat="45.56643" lon="5.53507">
        <ele>374</ele>
        <time>2023-02-14T10:58:03.688Z</time>
      </trkpt>
      <trkpt lat="45.56638" lon="5.5351">
        <ele>375</ele>
        <time>2023-02-14T10:58:04.688Z</time>
      </trkpt>
      <trkpt lat="45.56633" lon="5.53513">
        <ele>375</ele>
        <time>2023-02-14T10:58:05.688Z</time>
      </trkpt>
      <trkpt lat="45.56628" lon="5.53516">
        <ele>375</ele>
        <time>2023-02-14T10:58:06.688Z</time>
      </trkpt>
      <trkpt lat="45.56623" lon="5.5352">
        <ele>373</ele>
        <time>2023-02-14T10:58:07.688Z</time>
      </trkpt>
      <trkpt lat="45.56617" lon="5.53524">
        <ele>373</ele>
        <time>2023-02-14T10:58:08.688Z</time>
      </trkpt>
      <trkpt lat="45.56611" lon="5.53528">
        <ele>373</ele>
        <time>2023-02-14T10:58:09.688Z</time>
      </trkpt>
      <trkpt lat="45.56605" lon="5.53531">
        <ele>372</ele>
        <time>2023-02-14T10:58:10.688Z</time>
      </trkpt>
      <trkpt lat="45.566" lon="5.53535">
        <ele>372</ele>
        <time>2023-02-14T10:58:11.688Z</time>
      </trkpt>
      <trkpt lat="45.56597" lon="5.53539">
        <ele>371</ele>
        <time>2023-02-14T10:58:12.688Z</time>
      </trkpt>
      <trkpt lat="45.56595" lon="5.53545">
        <ele>371</ele>
        <time>2023-02-14T10:58:13.688Z</time>
      </trkpt>
      <trkpt lat="45.56594" lon="5.53551">
        <ele>370</ele>
        <time>2023-02-14T10:58:14.688Z</time>
      </trkpt>
      <trkpt lat="45.56594" lon="5.53555">
        <ele>369</ele>
        <time>2023-02-14T10:58:15.688Z</time>
      </trkpt>
      <trkpt lat="45.56595" lon="5.53559">
        <ele>369</ele>
        <time>2023-02-14T10:58:16.688Z</time>
      </trkpt>
      <trkpt lat="45.56595" lon="5.53562">
        <ele>369</ele>
        <time>2023-02-14T10:58:17.688Z</time>
      </trkpt>
      <trkpt lat="45.56596" lon="5.53564">
        <ele>369</ele>
        <time>2023-02-14T10:58:18.688Z</time>
      </trkpt>
      <trkpt lat="45.56597" lon="5.53566">
        <ele>369</ele>
        <time>2023-02-14T10:58:19.688Z</time>
      </trkpt>
      <trkpt lat="45.56599" lon="5.53568">
        <ele>370</ele>
        <time>2023-02-14T10:58:20.688Z</time>
      </trkpt>
      <trkpt lat="45.566" lon="5.5357">
        <ele>370</ele>
        <time>2023-02-14T10:58:21.688Z</time>
      </trkpt>
      <trkpt lat="45.56602" lon="5.53572">
        <ele>371</ele>
        <time>2023-02-14T10:58:22.688Z</time>
      </trkpt>
      <trkpt lat="45.56603" lon="5.53574">
        <ele>371</ele>
        <time>2023-02-14T10:58:23.688Z</time>
      </trkpt>
      <trkpt lat="45.56604" lon="5.53576">
        <ele>371</ele>
        <time>2023-02-14T10:58:24.688Z</time>
      </trkpt>
      <trkpt lat="45.56606" lon="5.53577">
        <ele>372</ele>
        <time>2023-02-14T10:58:25.688Z</time>
      </trkpt>
      <trkpt lat="45.56607" lon="5.53579">
        <ele>372</ele>
        <time>2023-02-14T10:58:26.688Z</time>
      </trkpt>
      <trkpt lat="45.56608" lon="5.53581">
        <ele>372</ele>
        <time>2023-02-14T10:58:27.688Z</time>
      </trkpt>
      <trkpt lat="45.56609" lon="5.53583">
        <ele>373</ele>
        <time>2023-02-14T10:58:28.688Z</time>
      </trkpt>
      <trkpt lat="45.5661" lon="5.53584">
        <ele>373</ele>
        <time>2023-02-14T10:58:29.688Z</time>
      </trkpt>
      <trkpt lat="45.56612" lon="5.53586">
        <ele>373</ele>
        <time>2023-02-14T10:58:30.688Z</time>
      </trkpt>
      <trkpt lat="45.56613" lon="5.53588">
        <ele>374</ele>
        <time>2023-02-14T10:58:31.688Z</time>
      </trkpt>
      <trkpt lat="45.56614" lon="5.5359">
        <ele>374</ele>
        <time>2023-02-14T10:58:32.688Z</time>
      </trkpt>
      <trkpt lat="45.56615" lon="5.53592">
        <ele>374</ele>
        <time>2023-02-14T10:58:33.688Z</time>
      </trkpt>
      <trkpt lat="45.56616" lon="5.53594">
        <ele>375</ele>
        <time>2023-02-14T10:58:34.688Z</time>
      </trkpt>
      <trkpt lat="45.56617" lon="5.53596">
        <ele>375</ele>
        <time>2023-02-14T10:58:35.688Z</time>
      </trkpt>
      <trkpt lat="45.56619" lon="5.53598">
        <ele>375</ele>
        <time>2023-02-14T10:58:36.688Z</time>
      </trkpt>
      <trkpt lat="45.5662" lon="5.536">
        <ele>376</ele>
        <time>2023-02-14T10:58:37.688Z</time>
      </trkpt>
      <trkpt lat="45.56621" lon="5.53602">
        <ele>376</ele>
        <time>2023-02-14T10:58:38.688Z</time>
      </trkpt>
      <trkpt lat="45.56622" lon="5.53604">
        <ele>376</ele>
        <time>2023-02-14T10:58:39.688Z</time>
      </trkpt>
      <trkpt lat="45.56624" lon="5.53606">
        <ele>376</ele>
        <time>2023-02-14T10:58:40.688Z</time>
      </trkpt>
      <trkpt lat="45.56625" lon="5.53608">
        <ele>377</ele>
        <time>2023-02-14T10:58:41.688Z</time>
      </trkpt>
      <trkpt lat="45.56626" lon="5.53611">
        <ele>377</ele>
        <time>2023-02-14T10:58:42.688Z</time>
      </trkpt>
      <trkpt lat="45.56627" lon="5.53613">
        <ele>377</ele>
        <time>2023-02-14T10:58:43.688Z</time>
      </trkpt>
      <trkpt lat="45.56628" lon="5.53615">
        <ele>377</ele>
        <time>2023-02-14T10:58:44.688Z</time>
      </trkpt>
      <trkpt lat="45.56629" lon="5.53617">
        <ele>378</ele>
        <time>2023-02-14T10:58:45.688Z</time>
      </trkpt>
      <trkpt lat="45.5663" lon="5.5362">
        <ele>378</ele>
        <time>2023-02-14T10:58:46.688Z</time>
      </trkpt>
      <trkpt lat="45.5663" lon="5.53622">
        <ele>378</ele>
        <time>2023-02-14T10:58:47.688Z</time>
      </trkpt>
      <trkpt lat="45.56631" lon="5.53625">
        <ele>379</ele>
        <time>2023-02-14T10:58:48.688Z</time>
      </trkpt>
      <trkpt lat="45.56632" lon="5.53627">
        <ele>379</ele>
        <time>2023-02-14T10:58:49.688Z</time>
      </trkpt>
      <trkpt lat="45.56633" lon="5.5363">
        <ele>379</ele>
        <time>2023-02-14T10:58:50.688Z</time>
      </trkpt>
      <trkpt lat="45.56633" lon="5.53632">
        <ele>379</ele>
        <time>2023-02-14T10:58:51.688Z</time>
      </trkpt>
      <trkpt lat="45.56634" lon="5.53635">
        <ele>380</ele>
        <time>2023-02-14T10:58:52.688Z</time>
      </trkpt>
      <trkpt lat="45.56635" lon="5.53637">
        <ele>380</ele>
        <time>2023-02-14T10:58:53.688Z</time>
      </trkpt>
      <trkpt lat="45.56636" lon="5.5364">
        <ele>380</ele>
        <time>2023-02-14T10:58:54.688Z</time>
      </trkpt>
      <trkpt lat="45.56636" lon="5.53642">
        <ele>380</ele>
        <time>2023-02-14T10:58:55.688Z</time>
      </trkpt>
      <trkpt lat="45.56637" lon="5.53645">
        <ele>380</ele>
        <time>2023-02-14T10:58:56.688Z</time>
      </trkpt>
      <trkpt lat="45.56637" lon="5.53648">
        <ele>380</ele>
        <time>2023-02-14T10:58:57.688Z</time>
      </trkpt>
      <trkpt lat="45.56638" lon="5.53651">
        <ele>380</ele>
        <time>2023-02-14T10:58:58.688Z</time>
      </trkpt>
      <trkpt lat="45.56638" lon="5.53654">
        <ele>380</ele>
        <time>2023-02-14T10:58:59.688Z</time>
      </trkpt>
      <trkpt lat="45.56639" lon="5.53656">
        <ele>381</ele>
        <time>2023-02-14T10:59:00.688Z</time>
      </trkpt>
      <trkpt lat="45.56639" lon="5.53659">
        <ele>381</ele>
        <time>2023-02-14T10:59:01.688Z</time>
      </trkpt>
      <trkpt lat="45.56639" lon="5.53662">
        <ele>381</ele>
        <time>2023-02-14T10:59:02.688Z</time>
      </trkpt>
      <trkpt lat="45.56639" lon="5.53666">
        <ele>381</ele>
        <time>2023-02-14T10:59:03.688Z</time>
      </trkpt>
      <trkpt lat="45.56639" lon="5.53669">
        <ele>381</ele>
        <time>2023-02-14T10:59:04.688Z</time>
      </trkpt>
      <trkpt lat="45.56639" lon="5.53672">
        <ele>381</ele>
        <time>2023-02-14T10:59:05.688Z</time>
      </trkpt>
      <trkpt lat="45.56639" lon="5.53675">
        <ele>381</ele>
        <time>2023-02-14T10:59:06.688Z</time>
      </trkpt>
      <trkpt lat="45.56639" lon="5.53678">
        <ele>381</ele>
        <time>2023-02-14T10:59:07.688Z</time>
      </trkpt>
      <trkpt lat="45.56639" lon="5.53681">
        <ele>381</ele>
        <time>2023-02-14T10:59:08.688Z</time>
      </trkpt>
      <trkpt lat="45.56639" lon="5.53684">
        <ele>381</ele>
        <time>2023-02-14T10:59:09.688Z</time>
      </trkpt>
      <trkpt lat="45.56639" lon="5.53688">
        <ele>381</ele>
        <time>2023-02-14T10:59:10.688Z</time>
      </trkpt>
      <trkpt lat="45.56638" lon="5.53691">
        <ele>381</ele>
        <time>2023-02-14T10:59:11.688Z</time>
      </trkpt>
      <trkpt lat="45.56638" lon="5.53694">
        <ele>381</ele>
        <time>2023-02-14T10:59:12.688Z</time>
      </trkpt>
      <trkpt lat="45.56638" lon="5.53698">
        <ele>382</ele>
        <time>2023-02-14T10:59:13.688Z</time>
      </trkpt>
      <trkpt lat="45.56638" lon="5.53701">
        <ele>382</ele>
        <time>2023-02-14T10:59:14.688Z</time>
      </trkpt>
      <trkpt lat="45.56637" lon="5.53705">
        <ele>382</ele>
        <time>2023-02-14T10:59:15.688Z</time>
      </trkpt>
      <trkpt lat="45.56637" lon="5.53708">
        <ele>382</ele>
        <time>2023-02-14T10:59:16.688Z</time>
      </trkpt>
      <trkpt lat="45.56637" lon="5.53712">
        <ele>382</ele>
        <time>2023-02-14T10:59:17.688Z</time>
      </trkpt>
      <trkpt lat="45.56636" lon="5.53716">
        <ele>382</ele>
        <time>2023-02-14T10:59:18.688Z</time>
      </trkpt>
      <trkpt lat="45.56636" lon="5.53719">
        <ele>382</ele>
        <time>2023-02-14T10:59:19.688Z</time>
      </trkpt>
      <trkpt lat="45.56636" lon="5.53723">
        <ele>382</ele>
        <time>2023-02-14T10:59:20.688Z</time>
      </trkpt>
      <trkpt lat="45.56635" lon="5.53727">
        <ele>382</ele>
        <time>2023-02-14T10:59:21.688Z</time>
      </trkpt>
      <trkpt lat="45.56635" lon="5.53731">
        <ele>382</ele>
        <time>2023-02-14T10:59:22.688Z</time>
      </trkpt>
      <trkpt lat="45.56635" lon="5.53735">
        <ele>382</ele>
        <time>2023-02-14T10:59:23.688Z</time>
      </trkpt>
      <trkpt lat="45.56635" lon="5.53739">
        <ele>382</ele>
        <time>2023-02-14T10:59:24.688Z</time>
      </trkpt>
      <trkpt lat="45.56634" lon="5.53743">
        <ele>383</ele>
        <time>2023-02-14T10:59:25.688Z</time>
      </trkpt>
      <trkpt lat="45.56634" lon="5.53747">
        <ele>383</ele>
        <time>2023-02-14T10:59:26.688Z</time>
      </trkpt>
      <trkpt lat="45.56634" lon="5.53751">
        <ele>382</ele>
        <time>2023-02-14T10:59:27.688Z</time>
      </trkpt>
      <trkpt lat="45.56633" lon="5.53755">
        <ele>382</ele>
        <time>2023-02-14T10:59:28.688Z</time>
      </trkpt>
      <trkpt lat="45.56633" lon="5.53759">
        <ele>382</ele>
        <time>2023-02-14T10:59:29.688Z</time>
      </trkpt>
      <trkpt lat="45.56632" lon="5.53763">
        <ele>382</ele>
        <time>2023-02-14T10:59:30.688Z</time>
      </trkpt>
      <trkpt lat="45.56632" lon="5.53767">
        <ele>382</ele>
        <time>2023-02-14T10:59:31.688Z</time>
      </trkpt>
      <trkpt lat="45.56631" lon="5.53771">
        <ele>382</ele>
        <time>2023-02-14T10:59:32.688Z</time>
      </trkpt>
      <trkpt lat="45.56631" lon="5.53775">
        <ele>382</ele>
        <time>2023-02-14T10:59:33.688Z</time>
      </trkpt>
      <trkpt lat="45.5663" lon="5.53779">
        <ele>382</ele>
        <time>2023-02-14T10:59:34.688Z</time>
      </trkpt>
      <trkpt lat="45.5663" lon="5.53783">
        <ele>382</ele>
        <time>2023-02-14T10:59:35.688Z</time>
      </trkpt>
      <trkpt lat="45.56629" lon="5.53787">
        <ele>382</ele>
        <time>2023-02-14T10:59:36.688Z</time>
      </trkpt>
      <trkpt lat="45.56629" lon="5.53791">
        <ele>382</ele>
        <time>2023-02-14T10:59:37.688Z</time>
      </trkpt>
      <trkpt lat="45.56628" lon="5.53795">
        <ele>382</ele>
        <time>2023-02-14T10:59:38.688Z</time>
      </trkpt>
      <trkpt lat="45.56627" lon="5.538">
        <ele>382</ele>
        <time>2023-02-14T10:59:39.688Z</time>
      </trkpt>
      <trkpt lat="45.56627" lon="5.53804">
        <ele>383</ele>
        <time>2023-02-14T10:59:40.688Z</time>
      </trkpt>
      <trkpt lat="45.56626" lon="5.53808">
        <ele>383</ele>
        <time>2023-02-14T10:59:41.688Z</time>
      </trkpt>
      <trkpt lat="45.56625" lon="5.53812">
        <ele>383</ele>
        <time>2023-02-14T10:59:42.688Z</time>
      </trkpt>
      <trkpt lat="45.56624" lon="5.53816">
        <ele>383</ele>
        <time>2023-02-14T10:59:43.688Z</time>
      </trkpt>
      <trkpt lat="45.56624" lon="5.5382">
        <ele>383</ele>
        <time>2023-02-14T10:59:44.688Z</time>
      </trkpt>
      <trkpt lat="45.56623" lon="5.53824">
        <ele>383</ele>
        <time>2023-02-14T10:59:45.688Z</time>
      </trkpt>
      <trkpt lat="45.56622" lon="5.53828">
        <ele>383</ele>
        <time>2023-02-14T10:59:46.688Z</time>
      </trkpt>
      <trkpt lat="45.56621" lon="5.53832">
        <ele>383</ele>
        <time>2023-02-14T10:59:47.688Z</time>
      </trkpt>
      <trkpt lat="45.5662" lon="5.53836">
        <ele>383</ele>
        <time>2023-02-14T10:59:48.688Z</time>
      </trkpt>
      <trkpt lat="45.56619" lon="5.5384">
        <ele>383</ele>
        <time>2023-02-14T10:59:49.688Z</time>
      </trkpt>
      <trkpt lat="45.56618" lon="5.53844">
        <ele>384</ele>
        <time>2023-02-14T10:59:50.688Z</time>
      </trkpt>
      <trkpt lat="45.56617" lon="5.53848">
        <ele>384</ele>
        <time>2023-02-14T10:59:51.688Z</time>
      </trkpt>
      <trkpt lat="45.56616" lon="5.53852">
        <ele>384</ele>
        <time>2023-02-14T10:59:52.688Z</time>
      </trkpt>
      <trkpt lat="45.56616" lon="5.53855">
        <ele>384</ele>
        <time>2023-02-14T10:59:53.688Z</time>
      </trkpt>
      <trkpt lat="45.56615" lon="5.53859">
        <ele>384</ele>
        <time>2023-02-14T10:59:54.688Z</time>
      </trkpt>
      <trkpt lat="45.56614" lon="5.53863">
        <ele>384</ele>
        <time>2023-02-14T10:59:55.688Z</time>
      </trkpt>
      <trkpt lat="45.56613" lon="5.53867">
        <ele>384</ele>
        <time>2023-02-14T10:59:56.688Z</time>
      </trkpt>
      <trkpt lat="45.56612" lon="5.53871">
        <ele>384</ele>
        <time>2023-02-14T10:59:57.688Z</time>
      </trkpt>
      <trkpt lat="45.56611" lon="5.53874">
        <ele>384</ele>
        <time>2023-02-14T10:59:58.688Z</time>
      </trkpt>
      <trkpt lat="45.5661" lon="5.53878">
        <ele>384</ele>
        <time>2023-02-14T10:59:59.688Z</time>
      </trkpt>
      <trkpt lat="45.56609" lon="5.53882">
        <ele>384</ele>
        <time>2023-02-14T11:00:00.688Z</time>
      </trkpt>
      <trkpt lat="45.56609" lon="5.53885">
        <ele>385</ele>
        <time>2023-02-14T11:00:01.688Z</time>
      </trkpt>
      <trkpt lat="45.56608" lon="5.53889">
        <ele>385</ele>
        <time>2023-02-14T11:00:02.688Z</time>
      </trkpt>
      <trkpt lat="45.56607" lon="5.53893">
        <ele>385</ele>
        <time>2023-02-14T11:00:03.688Z</time>
      </trkpt>
      <trkpt lat="45.56606" lon="5.53896">
        <ele>385</ele>
        <time>2023-02-14T11:00:04.688Z</time>
      </trkpt>
      <trkpt lat="45.56605" lon="5.539">
        <ele>385</ele>
        <time>2023-02-14T11:00:05.688Z</time>
      </trkpt>
      <trkpt lat="45.56604" lon="5.53904">
        <ele>385</ele>
        <time>2023-02-14T11:00:06.688Z</time>
      </trkpt>
      <trkpt lat="45.56603" lon="5.53907">
        <ele>385</ele>
        <time>2023-02-14T11:00:07.688Z</time>
      </trkpt>
      <trkpt lat="45.56603" lon="5.53911">
        <ele>385</ele>
        <time>2023-02-14T11:00:08.688Z</time>
      </trkpt>
      <trkpt lat="45.56602" lon="5.53915">
        <ele>385</ele>
        <time>2023-02-14T11:00:09.688Z</time>
      </trkpt>
      <trkpt lat="45.56601" lon="5.53919">
        <ele>385</ele>
        <time>2023-02-14T11:00:10.688Z</time>
      </trkpt>
      <trkpt lat="45.56601" lon="5.53922">
        <ele>386</ele>
        <time>2023-02-14T11:00:11.688Z</time>
      </trkpt>
      <trkpt lat="45.566" lon="5.53926">
        <ele>386</ele>
        <time>2023-02-14T11:00:12.688Z</time>
      </trkpt>
      <trkpt lat="45.56599" lon="5.53929">
        <ele>386</ele>
        <time>2023-02-14T11:00:13.688Z</time>
      </trkpt>
      <trkpt lat="45.56598" lon="5.53932">
        <ele>386</ele>
        <time>2023-02-14T11:00:14.688Z</time>
      </trkpt>
      <trkpt lat="45.56597" lon="5.53936">
        <ele>386</ele>
        <time>2023-02-14T11:00:15.688Z</time>
      </trkpt>
      <trkpt lat="45.56596" lon="5.53939">
        <ele>386</ele>
        <time>2023-02-14T11:00:16.688Z</time>
      </trkpt>
      <trkpt lat="45.56596" lon="5.53943">
        <ele>386</ele>
        <time>2023-02-14T11:00:17.688Z</time>
      </trkpt>
      <trkpt lat="45.56595" lon="5.53946">
        <ele>387</ele>
        <time>2023-02-14T11:00:18.688Z</time>
      </trkpt>
      <trkpt lat="45.56594" lon="5.5395">
        <ele>387</ele>
        <time>2023-02-14T11:00:19.688Z</time>
      </trkpt>
      <trkpt lat="45.56594" lon="5.53953">
        <ele>387</ele>
        <time>2023-02-14T11:00:20.688Z</time>
      </trkpt>
      <trkpt lat="45.56593" lon="5.53956">
        <ele>387</ele>
        <time>2023-02-14T11:00:21.688Z</time>
      </trkpt>
      <trkpt lat="45.56592" lon="5.5396">
        <ele>387</ele>
        <time>2023-02-14T11:00:22.688Z</time>
      </trkpt>
      <trkpt lat="45.56591" lon="5.53963">
        <ele>387</ele>
        <time>2023-02-14T11:00:23.688Z</time>
      </trkpt>
      <trkpt lat="45.5659" lon="5.53967">
        <ele>387</ele>
        <time>2023-02-14T11:00:24.688Z</time>
      </trkpt>
      <trkpt lat="45.5659" lon="5.5397">
        <ele>387</ele>
        <time>2023-02-14T11:00:25.688Z</time>
      </trkpt>
      <trkpt lat="45.56589" lon="5.53974">
        <ele>387</ele>
        <time>2023-02-14T11:00:26.688Z</time>
      </trkpt>
      <trkpt lat="45.56588" lon="5.53977">
        <ele>387</ele>
        <time>2023-02-14T11:00:27.688Z</time>
      </trkpt>
      <trkpt lat="45.56587" lon="5.5398">
        <ele>388</ele>
        <time>2023-02-14T11:00:28.688Z</time>
      </trkpt>
      <trkpt lat="45.56586" lon="5.53984">
        <ele>388</ele>
        <time>2023-02-14T11:00:29.688Z</time>
      </trkpt>
      <trkpt lat="45.56586" lon="5.53987">
        <ele>388</ele>
        <time>2023-02-14T11:00:30.688Z</time>
      </trkpt>
      <trkpt lat="45.56585" lon="5.5399">
        <ele>388</ele>
        <time>2023-02-14T11:00:31.688Z</time>
      </trkpt>
      <trkpt lat="45.56584" lon="5.53993">
        <ele>388</ele>
        <time>2023-02-14T11:00:32.688Z</time>
      </trkpt>
      <trkpt lat="45.56584" lon="5.53997">
        <ele>388</ele>
        <time>2023-02-14T11:00:33.688Z</time>
      </trkpt>
      <trkpt lat="45.56583" lon="5.54">
        <ele>388</ele>
        <time>2023-02-14T11:00:34.688Z</time>
      </trkpt>
      <trkpt lat="45.56582" lon="5.54004">
        <ele>389</ele>
        <time>2023-02-14T11:00:35.688Z</time>
      </trkpt>
      <trkpt lat="45.56582" lon="5.54007">
        <ele>389</ele>
        <time>2023-02-14T11:00:36.688Z</time>
      </trkpt>
      <trkpt lat="45.56581" lon="5.54011">
        <ele>389</ele>
        <time>2023-02-14T11:00:37.688Z</time>
      </trkpt>
      <trkpt lat="45.5658" lon="5.54014">
        <ele>389</ele>
        <time>2023-02-14T11:00:38.688Z</time>
      </trkpt>
      <trkpt lat="45.5658" lon="5.54018">
        <ele>389</ele>
        <time>2023-02-14T11:00:39.688Z</time>
      </trkpt>
      <trkpt lat="45.56579" lon="5.54022">
        <ele>389</ele>
        <time>2023-02-14T11:00:40.688Z</time>
      </trkpt>
      <trkpt lat="45.56579" lon="5.54025">
        <ele>389</ele>
        <time>2023-02-14T11:00:41.688Z</time>
      </trkpt>
      <trkpt lat="45.56578" lon="5.54029">
        <ele>390</ele>
        <time>2023-02-14T11:00:42.688Z</time>
      </trkpt>
      <trkpt lat="45.56578" lon="5.54032">
        <ele>390</ele>
        <time>2023-02-14T11:00:43.688Z</time>
      </trkpt>
      <trkpt lat="45.56578" lon="5.54036">
        <ele>390</ele>
        <time>2023-02-14T11:00:44.688Z</time>
      </trkpt>
      <trkpt lat="45.56577" lon="5.5404">
        <ele>390</ele>
        <time>2023-02-14T11:00:45.688Z</time>
      </trkpt>
      <trkpt lat="45.56577" lon="5.54043">
        <ele>390</ele>
        <time>2023-02-14T11:00:46.688Z</time>
      </trkpt>
      <trkpt lat="45.56577" lon="5.54047">
        <ele>390</ele>
        <time>2023-02-14T11:00:47.688Z</time>
      </trkpt>
      <trkpt lat="45.56577" lon="5.5405">
        <ele>390</ele>
        <time>2023-02-14T11:00:48.688Z</time>
      </trkpt>
      <trkpt lat="45.56577" lon="5.54054">
        <ele>390</ele>
        <time>2023-02-14T11:00:49.688Z</time>
      </trkpt>
      <trkpt lat="45.56577" lon="5.54058">
        <ele>391</ele>
        <time>2023-02-14T11:00:50.688Z</time>
      </trkpt>
      <trkpt lat="45.56577" lon="5.54061">
        <ele>391</ele>
        <time>2023-02-14T11:00:51.688Z</time>
      </trkpt>
      <trkpt lat="45.56577" lon="5.54065">
        <ele>391</ele>
        <time>2023-02-14T11:00:52.688Z</time>
      </trkpt>
      <trkpt lat="45.56577" lon="5.54069">
        <ele>391</ele>
        <time>2023-02-14T11:00:53.688Z</time>
      </trkpt>
      <trkpt lat="45.56577" lon="5.54072">
        <ele>391</ele>
        <time>2023-02-14T11:00:54.688Z</time>
      </trkpt>
      <trkpt lat="45.56577" lon="5.54076">
        <ele>391</ele>
        <time>2023-02-14T11:00:55.688Z</time>
      </trkpt>
      <trkpt lat="45.56577" lon="5.54079">
        <ele>391</ele>
        <time>2023-02-14T11:00:56.688Z</time>
      </trkpt>
      <trkpt lat="45.56577" lon="5.54083">
        <ele>391</ele>
        <time>2023-02-14T11:00:57.688Z</time>
      </trkpt>
      <trkpt lat="45.56577" lon="5.54086">
        <ele>391</ele>
        <time>2023-02-14T11:00:58.688Z</time>
      </trkpt>
      <trkpt lat="45.56577" lon="5.5409">
        <ele>391</ele>
        <time>2023-02-14T11:00:59.688Z</time>
      </trkpt>
      <trkpt lat="45.56577" lon="5.54093">
        <ele>391</ele>
        <time>2023-02-14T11:01:00.688Z</time>
      </trkpt>
      <trkpt lat="45.56577" lon="5.54097">
        <ele>391</ele>
        <time>2023-02-14T11:01:01.688Z</time>
      </trkpt>
      <trkpt lat="45.56577" lon="5.54101">
        <ele>391</ele>
        <time>2023-02-14T11:01:02.688Z</time>
      </trkpt>
      <trkpt lat="45.56577" lon="5.54104">
        <ele>391</ele>
        <time>2023-02-14T11:01:03.688Z</time>
      </trkpt>
      <trkpt lat="45.56577" lon="5.54108">
        <ele>392</ele>
        <time>2023-02-14T11:01:04.688Z</time>
      </trkpt>
      <trkpt lat="45.56577" lon="5.54112">
        <ele>392</ele>
        <time>2023-02-14T11:01:05.688Z</time>
      </trkpt>
      <trkpt lat="45.56577" lon="5.54115">
        <ele>392</ele>
        <time>2023-02-14T11:01:06.688Z</time>
      </trkpt>
      <trkpt lat="45.56576" lon="5.54119">
        <ele>392</ele>
        <time>2023-02-14T11:01:07.688Z</time>
      </trkpt>
      <trkpt lat="45.56576" lon="5.54123">
        <ele>392</ele>
        <time>2023-02-14T11:01:08.688Z</time>
      </trkpt>
      <trkpt lat="45.56576" lon="5.54127">
        <ele>392</ele>
        <time>2023-02-14T11:01:09.688Z</time>
      </trkpt>
      <trkpt lat="45.56576" lon="5.5413">
        <ele>392</ele>
        <time>2023-02-14T11:01:10.688Z</time>
      </trkpt>
      <trkpt lat="45.56576" lon="5.54134">
        <ele>392</ele>
        <time>2023-02-14T11:01:11.688Z</time>
      </trkpt>
      <trkpt lat="45.56575" lon="5.54138">
        <ele>392</ele>
        <time>2023-02-14T11:01:12.688Z</time>
      </trkpt>
      <trkpt lat="45.56575" lon="5.54142">
        <ele>392</ele>
        <time>2023-02-14T11:01:13.688Z</time>
      </trkpt>
      <trkpt lat="45.56575" lon="5.54146">
        <ele>392</ele>
        <time>2023-02-14T11:01:14.688Z</time>
      </trkpt>
      <trkpt lat="45.56574" lon="5.5415">
        <ele>392</ele>
        <time>2023-02-14T11:01:15.688Z</time>
      </trkpt>
      <trkpt lat="45.56574" lon="5.54154">
        <ele>392</ele>
        <time>2023-02-14T11:01:16.688Z</time>
      </trkpt>
      <trkpt lat="45.56573" lon="5.54158">
        <ele>392</ele>
        <time>2023-02-14T11:01:17.688Z</time>
      </trkpt>
      <trkpt lat="45.56573" lon="5.54162">
        <ele>392</ele>
        <time>2023-02-14T11:01:18.688Z</time>
      </trkpt>
      <trkpt lat="45.56572" lon="5.54166">
        <ele>392</ele>
        <time>2023-02-14T11:01:19.688Z</time>
      </trkpt>
      <trkpt lat="45.56571" lon="5.54171">
        <ele>392</ele>
        <time>2023-02-14T11:01:20.688Z</time>
      </trkpt>
      <trkpt lat="45.56571" lon="5.54175">
        <ele>392</ele>
        <time>2023-02-14T11:01:21.688Z</time>
      </trkpt>
      <trkpt lat="45.5657" lon="5.5418">
        <ele>392</ele>
        <time>2023-02-14T11:01:22.688Z</time>
      </trkpt>
      <trkpt lat="45.56569" lon="5.54184">
        <ele>392</ele>
        <time>2023-02-14T11:01:23.688Z</time>
      </trkpt>
      <trkpt lat="45.56568" lon="5.54188">
        <ele>392</ele>
        <time>2023-02-14T11:01:24.688Z</time>
      </trkpt>
      <trkpt lat="45.56568" lon="5.54192">
        <ele>392</ele>
        <time>2023-02-14T11:01:25.688Z</time>
      </trkpt>
      <trkpt lat="45.56567" lon="5.54197">
        <ele>392</ele>
        <time>2023-02-14T11:01:26.688Z</time>
      </trkpt>
      <trkpt lat="45.56566" lon="5.54201">
        <ele>393</ele>
        <time>2023-02-14T11:01:27.688Z</time>
      </trkpt>
      <trkpt lat="45.56565" lon="5.54205">
        <ele>393</ele>
        <time>2023-02-14T11:01:28.688Z</time>
      </trkpt>
      <trkpt lat="45.56564" lon="5.54209">
        <ele>393</ele>
        <time>2023-02-14T11:01:29.688Z</time>
      </trkpt>
      <trkpt lat="45.56563" lon="5.54213">
        <ele>393</ele>
        <time>2023-02-14T11:01:30.688Z</time>
      </trkpt>
      <trkpt lat="45.56562" lon="5.54217">
        <ele>393</ele>
        <time>2023-02-14T11:01:31.688Z</time>
      </trkpt>
      <trkpt lat="45.56562" lon="5.5422">
        <ele>394</ele>
        <time>2023-02-14T11:01:32.688Z</time>
      </trkpt>
      <trkpt lat="45.56561" lon="5.54224">
        <ele>394</ele>
        <time>2023-02-14T11:01:33.688Z</time>
      </trkpt>
      <trkpt lat="45.5656" lon="5.54227">
        <ele>394</ele>
        <time>2023-02-14T11:01:34.688Z</time>
      </trkpt>
      <trkpt lat="45.56559" lon="5.54231">
        <ele>394</ele>
        <time>2023-02-14T11:01:35.688Z</time>
      </trkpt>
      <trkpt lat="45.56558" lon="5.54234">
        <ele>394</ele>
        <time>2023-02-14T11:01:36.688Z</time>
      </trkpt>
      <trkpt lat="45.56557" lon="5.54238">
        <ele>394</ele>
        <time>2023-02-14T11:01:37.688Z</time>
      </trkpt>
      <trkpt lat="45.56555" lon="5.54241">
        <ele>394</ele>
        <time>2023-02-14T11:01:38.688Z</time>
      </trkpt>
      <trkpt lat="45.56554" lon="5.54245">
        <ele>394</ele>
        <time>2023-02-14T11:01:39.688Z</time>
      </trkpt>
      <trkpt lat="45.56553" lon="5.54248">
        <ele>394</ele>
        <time>2023-02-14T11:01:40.688Z</time>
      </trkpt>
      <trkpt lat="45.56552" lon="5.54252">
        <ele>394</ele>
        <time>2023-02-14T11:01:41.688Z</time>
      </trkpt>
      <trkpt lat="45.56551" lon="5.54255">
        <ele>394</ele>
        <time>2023-02-14T11:01:42.688Z</time>
      </trkpt>
      <trkpt lat="45.5655" lon="5.54258">
        <ele>394</ele>
        <time>2023-02-14T11:01:43.688Z</time>
      </trkpt>
      <trkpt lat="45.56548" lon="5.54262">
        <ele>394</ele>
        <time>2023-02-14T11:01:44.688Z</time>
      </trkpt>
      <trkpt lat="45.56547" lon="5.54266">
        <ele>394</ele>
        <time>2023-02-14T11:01:45.688Z</time>
      </trkpt>
      <trkpt lat="45.56546" lon="5.54269">
        <ele>394</ele>
        <time>2023-02-14T11:01:46.688Z</time>
      </trkpt>
      <trkpt lat="45.56545" lon="5.54273">
        <ele>394</ele>
        <time>2023-02-14T11:01:47.688Z</time>
      </trkpt>
      <trkpt lat="45.56543" lon="5.54276">
        <ele>394</ele>
        <time>2023-02-14T11:01:48.688Z</time>
      </trkpt>
      <trkpt lat="45.56542" lon="5.5428">
        <ele>394</ele>
        <time>2023-02-14T11:01:49.688Z</time>
      </trkpt>
      <trkpt lat="45.5654" lon="5.54283">
        <ele>394</ele>
        <time>2023-02-14T11:01:50.688Z</time>
      </trkpt>
      <trkpt lat="45.56539" lon="5.54287">
        <ele>395</ele>
        <time>2023-02-14T11:01:51.688Z</time>
      </trkpt>
      <trkpt lat="45.56538" lon="5.5429">
        <ele>395</ele>
        <time>2023-02-14T11:01:52.688Z</time>
      </trkpt>
      <trkpt lat="45.56536" lon="5.54293">
        <ele>395</ele>
        <time>2023-02-14T11:01:53.688Z</time>
      </trkpt>
      <trkpt lat="45.56535" lon="5.54297">
        <ele>395</ele>
        <time>2023-02-14T11:01:54.688Z</time>
      </trkpt>
      <trkpt lat="45.56533" lon="5.543">
        <ele>395</ele>
        <time>2023-02-14T11:01:55.688Z</time>
      </trkpt>
      <trkpt lat="45.56531" lon="5.54304">
        <ele>395</ele>
        <time>2023-02-14T11:01:56.688Z</time>
      </trkpt>
      <trkpt lat="45.5653" lon="5.54307">
        <ele>395</ele>
        <time>2023-02-14T11:01:57.688Z</time>
      </trkpt>
      <trkpt lat="45.56528" lon="5.54311">
        <ele>395</ele>
        <time>2023-02-14T11:01:58.688Z</time>
      </trkpt>
      <trkpt lat="45.56526" lon="5.54314">
        <ele>396</ele>
        <time>2023-02-14T11:01:59.688Z</time>
      </trkpt>
      <trkpt lat="45.56524" lon="5.54317">
        <ele>396</ele>
        <time>2023-02-14T11:02:00.688Z</time>
      </trkpt>
      <trkpt lat="45.56522" lon="5.54321">
        <ele>396</ele>
        <time>2023-02-14T11:02:01.688Z</time>
      </trkpt>
      <trkpt lat="45.5652" lon="5.54324">
        <ele>396</ele>
        <time>2023-02-14T11:02:02.688Z</time>
      </trkpt>
      <trkpt lat="45.56518" lon="5.54327">
        <ele>396</ele>
        <time>2023-02-14T11:02:03.688Z</time>
      </trkpt>
      <trkpt lat="45.56516" lon="5.5433">
        <ele>396</ele>
        <time>2023-02-14T11:02:04.688Z</time>
      </trkpt>
      <trkpt lat="45.56514" lon="5.54334">
        <ele>396</ele>
        <time>2023-02-14T11:02:05.688Z</time>
      </trkpt>
      <trkpt lat="45.56512" lon="5.54337">
        <ele>396</ele>
        <time>2023-02-14T11:02:06.688Z</time>
      </trkpt>
      <trkpt lat="45.5651" lon="5.5434">
        <ele>396</ele>
        <time>2023-02-14T11:02:07.688Z</time>
      </trkpt>
      <trkpt lat="45.56508" lon="5.54343">
        <ele>397</ele>
        <time>2023-02-14T11:02:08.688Z</time>
      </trkpt>
      <trkpt lat="45.56506" lon="5.54347">
        <ele>397</ele>
        <time>2023-02-14T11:02:09.688Z</time>
      </trkpt>
      <trkpt lat="45.56504" lon="5.5435">
        <ele>397</ele>
        <time>2023-02-14T11:02:10.688Z</time>
      </trkpt>
      <trkpt lat="45.56502" lon="5.54354">
        <ele>398</ele>
        <time>2023-02-14T11:02:11.688Z</time>
      </trkpt>
      <trkpt lat="45.56499" lon="5.54358">
        <ele>397</ele>
        <time>2023-02-14T11:02:12.688Z</time>
      </trkpt>
      <trkpt lat="45.56497" lon="5.54361">
        <ele>397</ele>
        <time>2023-02-14T11:02:13.688Z</time>
      </trkpt>
      <trkpt lat="45.56494" lon="5.54365">
        <ele>396</ele>
        <time>2023-02-14T11:02:14.688Z</time>
      </trkpt>
      <trkpt lat="45.56491" lon="5.54369">
        <ele>395</ele>
        <time>2023-02-14T11:02:15.688Z</time>
      </trkpt>
      <trkpt lat="45.56488" lon="5.54373">
        <ele>396</ele>
        <time>2023-02-14T11:02:16.688Z</time>
      </trkpt>
      <trkpt lat="45.56485" lon="5.54378">
        <ele>396</ele>
        <time>2023-02-14T11:02:17.688Z</time>
      </trkpt>
      <trkpt lat="45.56482" lon="5.54382">
        <ele>396</ele>
        <time>2023-02-14T11:02:18.688Z</time>
      </trkpt>
      <trkpt lat="45.56479" lon="5.54387">
        <ele>396</ele>
        <time>2023-02-14T11:02:19.688Z</time>
      </trkpt>
      <trkpt lat="45.56475" lon="5.54391">
        <ele>396</ele>
        <time>2023-02-14T11:02:20.688Z</time>
      </trkpt>
      <trkpt lat="45.56472" lon="5.54396">
        <ele>395</ele>
        <time>2023-02-14T11:02:21.688Z</time>
      </trkpt>
      <trkpt lat="45.5647" lon="5.54402">
        <ele>395</ele>
        <time>2023-02-14T11:02:22.688Z</time>
      </trkpt>
      <trkpt lat="45.56468" lon="5.54409">
        <ele>394</ele>
        <time>2023-02-14T11:02:23.688Z</time>
      </trkpt>
      <trkpt lat="45.56467" lon="5.54415">
        <ele>395</ele>
        <time>2023-02-14T11:02:24.688Z</time>
      </trkpt>
      <trkpt lat="45.56465" lon="5.54421">
        <ele>394</ele>
        <time>2023-02-14T11:02:25.688Z</time>
      </trkpt>
      <trkpt lat="45.56464" lon="5.54427">
        <ele>394</ele>
        <time>2023-02-14T11:02:26.688Z</time>
      </trkpt>
      <trkpt lat="45.56463" lon="5.54433">
        <ele>394</ele>
        <time>2023-02-14T11:02:27.688Z</time>
      </trkpt>
      <trkpt lat="45.56462" lon="5.5444">
        <ele>394</ele>
        <time>2023-02-14T11:02:28.688Z</time>
      </trkpt>
      <trkpt lat="45.56461" lon="5.54446">
        <ele>394</ele>
        <time>2023-02-14T11:02:29.688Z</time>
      </trkpt>
      <trkpt lat="45.5646" lon="5.54453">
        <ele>394</ele>
        <time>2023-02-14T11:02:30.688Z</time>
      </trkpt>
      <trkpt lat="45.56458" lon="5.54459">
        <ele>395</ele>
        <time>2023-02-14T11:02:31.688Z</time>
      </trkpt>
      <trkpt lat="45.56457" lon="5.54465">
        <ele>394</ele>
        <time>2023-02-14T11:02:32.688Z</time>
      </trkpt>
      <trkpt lat="45.56456" lon="5.5447">
        <ele>394</ele>
        <time>2023-02-14T11:02:33.688Z</time>
      </trkpt>
      <trkpt lat="45.56455" lon="5.54476">
        <ele>394</ele>
        <time>2023-02-14T11:02:34.688Z</time>
      </trkpt>
      <trkpt lat="45.56454" lon="5.54481">
        <ele>393</ele>
        <time>2023-02-14T11:02:35.688Z</time>
      </trkpt>
      <trkpt lat="45.56453" lon="5.54486">
        <ele>393</ele>
        <time>2023-02-14T11:02:36.688Z</time>
      </trkpt>
      <trkpt lat="45.56452" lon="5.54492">
        <ele>392</ele>
        <time>2023-02-14T11:02:37.688Z</time>
      </trkpt>
      <trkpt lat="45.5645" lon="5.54498">
        <ele>393</ele>
        <time>2023-02-14T11:02:38.688Z</time>
      </trkpt>
      <trkpt lat="45.56448" lon="5.54504">
        <ele>393</ele>
        <time>2023-02-14T11:02:39.688Z</time>
      </trkpt>
      <trkpt lat="45.56447" lon="5.5451">
        <ele>393</ele>
        <time>2023-02-14T11:02:40.688Z</time>
      </trkpt>
      <trkpt lat="45.56445" lon="5.54517">
        <ele>393</ele>
        <time>2023-02-14T11:02:41.688Z</time>
      </trkpt>
      <trkpt lat="45.56444" lon="5.54522">
        <ele>392</ele>
        <time>2023-02-14T11:02:42.688Z</time>
      </trkpt>
      <trkpt lat="45.56442" lon="5.54528">
        <ele>392</ele>
        <time>2023-02-14T11:02:43.688Z</time>
      </trkpt>
      <trkpt lat="45.5644" lon="5.54534">
        <ele>392</ele>
        <time>2023-02-14T11:02:44.688Z</time>
      </trkpt>
      <trkpt lat="45.56438" lon="5.5454">
        <ele>392</ele>
        <time>2023-02-14T11:02:45.688Z</time>
      </trkpt>
      <trkpt lat="45.56437" lon="5.54546">
        <ele>391</ele>
        <time>2023-02-14T11:02:46.688Z</time>
      </trkpt>
      <trkpt lat="45.56435" lon="5.54552">
        <ele>390</ele>
        <time>2023-02-14T11:02:47.688Z</time>
      </trkpt>
      <trkpt lat="45.56433" lon="5.54558">
        <ele>389</ele>
        <time>2023-02-14T11:02:48.688Z</time>
      </trkpt>
      <trkpt lat="45.56431" lon="5.54564">
        <ele>388</ele>
        <time>2023-02-14T11:02:49.688Z</time>
      </trkpt>
      <trkpt lat="45.56429" lon="5.5457">
        <ele>387</ele>
        <time>2023-02-14T11:02:50.688Z</time>
      </trkpt>
      <trkpt lat="45.56426" lon="5.54576">
        <ele>386</ele>
        <time>2023-02-14T11:02:51.688Z</time>
      </trkpt>
      <trkpt lat="45.56423" lon="5.54582">
        <ele>386</ele>
        <time>2023-02-14T11:02:52.688Z</time>
      </trkpt>
      <trkpt lat="45.5642" lon="5.54588">
        <ele>385</ele>
        <time>2023-02-14T11:02:53.688Z</time>
      </trkpt>
      <trkpt lat="45.56417" lon="5.54595">
        <ele>384</ele>
        <time>2023-02-14T11:02:54.688Z</time>
      </trkpt>
      <trkpt lat="45.56414" lon="5.54601">
        <ele>384</ele>
        <time>2023-02-14T11:02:55.688Z</time>
      </trkpt>
      <trkpt lat="45.5641" lon="5.54607">
        <ele>383</ele>
        <time>2023-02-14T11:02:56.688Z</time>
      </trkpt>
      <trkpt lat="45.56407" lon="5.54614">
        <ele>383</ele>
        <time>2023-02-14T11:02:57.688Z</time>
      </trkpt>
      <trkpt lat="45.56403" lon="5.54621">
        <ele>382</ele>
        <time>2023-02-14T11:02:58.688Z</time>
      </trkpt>
      <trkpt lat="45.564" lon="5.54628">
        <ele>381</ele>
        <time>2023-02-14T11:02:59.688Z</time>
      </trkpt>
      <trkpt lat="45.56396" lon="5.54635">
        <ele>380</ele>
        <time>2023-02-14T11:03:00.688Z</time>
      </trkpt>
      <trkpt lat="45.56393" lon="5.54643">
        <ele>379</ele>
        <time>2023-02-14T11:03:01.688Z</time>
      </trkpt>
      <trkpt lat="45.5639" lon="5.5465">
        <ele>379</ele>
        <time>2023-02-14T11:03:02.688Z</time>
      </trkpt>
      <trkpt lat="45.56387" lon="5.54657">
        <ele>379</ele>
        <time>2023-02-14T11:03:03.688Z</time>
      </trkpt>
      <trkpt lat="45.56384" lon="5.54663">
        <ele>379</ele>
        <time>2023-02-14T11:03:04.688Z</time>
      </trkpt>
      <trkpt lat="45.56382" lon="5.5467">
        <ele>378</ele>
        <time>2023-02-14T11:03:05.688Z</time>
      </trkpt>
      <trkpt lat="45.56379" lon="5.54677">
        <ele>378</ele>
        <time>2023-02-14T11:03:06.688Z</time>
      </trkpt>
      <trkpt lat="45.56377" lon="5.54684">
        <ele>377</ele>
        <time>2023-02-14T11:03:07.688Z</time>
      </trkpt>
      <trkpt lat="45.56374" lon="5.5469">
        <ele>376</ele>
        <time>2023-02-14T11:03:08.688Z</time>
      </trkpt>
      <trkpt lat="45.56371" lon="5.54696">
        <ele>375</ele>
        <time>2023-02-14T11:03:09.688Z</time>
      </trkpt>
      <trkpt lat="45.56367" lon="5.54701">
        <ele>374</ele>
        <time>2023-02-14T11:03:10.688Z</time>
      </trkpt>
      <trkpt lat="45.56363" lon="5.54706">
        <ele>373</ele>
        <time>2023-02-14T11:03:11.688Z</time>
      </trkpt>
      <trkpt lat="45.56358" lon="5.54711">
        <ele>372</ele>
        <time>2023-02-14T11:03:12.688Z</time>
      </trkpt>
      <trkpt lat="45.56354" lon="5.54717">
        <ele>371</ele>
        <time>2023-02-14T11:03:13.688Z</time>
      </trkpt>
      <trkpt lat="45.5635" lon="5.54723">
        <ele>370</ele>
        <time>2023-02-14T11:03:14.688Z</time>
      </trkpt>
      <trkpt lat="45.56346" lon="5.54729">
        <ele>369</ele>
        <time>2023-02-14T11:03:15.688Z</time>
      </trkpt>
      <trkpt lat="45.56341" lon="5.54737">
        <ele>368</ele>
        <time>2023-02-14T11:03:16.688Z</time>
      </trkpt>
      <trkpt lat="45.56337" lon="5.54744">
        <ele>368</ele>
        <time>2023-02-14T11:03:17.688Z</time>
      </trkpt>
      <trkpt lat="45.56333" lon="5.54752">
        <ele>368</ele>
        <time>2023-02-14T11:03:18.688Z</time>
      </trkpt>
      <trkpt lat="45.56329" lon="5.5476">
        <ele>367</ele>
        <time>2023-02-14T11:03:19.688Z</time>
      </trkpt>
      <trkpt lat="45.56327" lon="5.54768">
        <ele>366</ele>
        <time>2023-02-14T11:03:20.688Z</time>
      </trkpt>
      <trkpt lat="45.56324" lon="5.54777">
        <ele>366</ele>
        <time>2023-02-14T11:03:21.688Z</time>
      </trkpt>
      <trkpt lat="45.56322" lon="5.54786">
        <ele>366</ele>
        <time>2023-02-14T11:03:22.688Z</time>
      </trkpt>
      <trkpt lat="45.5632" lon="5.54795">
        <ele>366</ele>
        <time>2023-02-14T11:03:23.688Z</time>
      </trkpt>
      <trkpt lat="45.56318" lon="5.54804">
        <ele>366</ele>
        <time>2023-02-14T11:03:24.688Z</time>
      </trkpt>
      <trkpt lat="45.56316" lon="5.54812">
        <ele>366</ele>
        <time>2023-02-14T11:03:25.688Z</time>
      </trkpt>
      <trkpt lat="45.56315" lon="5.54821">
        <ele>367</ele>
        <time>2023-02-14T11:03:26.688Z</time>
      </trkpt>
      <trkpt lat="45.56313" lon="5.54829">
        <ele>367</ele>
        <time>2023-02-14T11:03:27.688Z</time>
      </trkpt>
      <trkpt lat="45.56312" lon="5.54837">
        <ele>367</ele>
        <time>2023-02-14T11:03:28.688Z</time>
      </trkpt>
      <trkpt lat="45.56311" lon="5.54844">
        <ele>367</ele>
        <time>2023-02-14T11:03:29.688Z</time>
      </trkpt>
      <trkpt lat="45.56309" lon="5.54852">
        <ele>367</ele>
        <time>2023-02-14T11:03:30.688Z</time>
      </trkpt>
      <trkpt lat="45.56308" lon="5.5486">
        <ele>367</ele>
        <time>2023-02-14T11:03:31.688Z</time>
      </trkpt>
      <trkpt lat="45.56307" lon="5.54867">
        <ele>367</ele>
        <time>2023-02-14T11:03:32.688Z</time>
      </trkpt>
      <trkpt lat="45.56305" lon="5.54875">
        <ele>367</ele>
        <time>2023-02-14T11:03:33.688Z</time>
      </trkpt>
      <trkpt lat="45.56304" lon="5.54882">
        <ele>367</ele>
        <time>2023-02-14T11:03:34.688Z</time>
      </trkpt>
      <trkpt lat="45.56302" lon="5.54889">
        <ele>367</ele>
        <time>2023-02-14T11:03:35.688Z</time>
      </trkpt>
      <trkpt lat="45.563" lon="5.54896">
        <ele>367</ele>
        <time>2023-02-14T11:03:36.688Z</time>
      </trkpt>
      <trkpt lat="45.56299" lon="5.54903">
        <ele>367</ele>
        <time>2023-02-14T11:03:37.688Z</time>
      </trkpt>
      <trkpt lat="45.56297" lon="5.5491">
        <ele>368</ele>
        <time>2023-02-14T11:03:38.688Z</time>
      </trkpt>
      <trkpt lat="45.56296" lon="5.54917">
        <ele>368</ele>
        <time>2023-02-14T11:03:39.688Z</time>
      </trkpt>
      <trkpt lat="45.56294" lon="5.54923">
        <ele>368</ele>
        <time>2023-02-14T11:03:40.688Z</time>
      </trkpt>
      <trkpt lat="45.56293" lon="5.5493">
        <ele>368</ele>
        <time>2023-02-14T11:03:41.688Z</time>
      </trkpt>
      <trkpt lat="45.56292" lon="5.54936">
        <ele>368</ele>
        <time>2023-02-14T11:03:42.688Z</time>
      </trkpt>
      <trkpt lat="45.56291" lon="5.54943">
        <ele>368</ele>
        <time>2023-02-14T11:03:43.688Z</time>
      </trkpt>
      <trkpt lat="45.56291" lon="5.5495">
        <ele>367</ele>
        <time>2023-02-14T11:03:44.688Z</time>
      </trkpt>
      <trkpt lat="45.5629" lon="5.54956">
        <ele>367</ele>
        <time>2023-02-14T11:03:45.688Z</time>
      </trkpt>
      <trkpt lat="45.56289" lon="5.54963">
        <ele>367</ele>
        <time>2023-02-14T11:03:46.688Z</time>
      </trkpt>
      <trkpt lat="45.56288" lon="5.54969">
        <ele>367</ele>
        <time>2023-02-14T11:03:47.688Z</time>
      </trkpt>
      <trkpt lat="45.56286" lon="5.54975">
        <ele>368</ele>
        <time>2023-02-14T11:03:48.688Z</time>
      </trkpt>
      <trkpt lat="45.56285" lon="5.54981">
        <ele>367</ele>
        <time>2023-02-14T11:03:49.688Z</time>
      </trkpt>
      <trkpt lat="45.56284" lon="5.54987">
        <ele>367</ele>
        <time>2023-02-14T11:03:50.688Z</time>
      </trkpt>
      <trkpt lat="45.56282" lon="5.54992">
        <ele>367</ele>
        <time>2023-02-14T11:03:51.688Z</time>
      </trkpt>
      <trkpt lat="45.5628" lon="5.54997">
        <ele>368</ele>
        <time>2023-02-14T11:03:52.688Z</time>
      </trkpt>
      <trkpt lat="45.56278" lon="5.55002">
        <ele>368</ele>
        <time>2023-02-14T11:03:53.688Z</time>
      </trkpt>
      <trkpt lat="45.56275" lon="5.55006">
        <ele>367</ele>
        <time>2023-02-14T11:03:54.688Z</time>
      </trkpt>
      <trkpt lat="45.56273" lon="5.55011">
        <ele>367</ele>
        <time>2023-02-14T11:03:55.688Z</time>
      </trkpt>
      <trkpt lat="45.56271" lon="5.55015">
        <ele>367</ele>
        <time>2023-02-14T11:03:56.688Z</time>
      </trkpt>
      <trkpt lat="45.56269" lon="5.55019">
        <ele>367</ele>
        <time>2023-02-14T11:03:57.688Z</time>
      </trkpt>
      <trkpt lat="45.56266" lon="5.55022">
        <ele>367</ele>
        <time>2023-02-14T11:03:58.688Z</time>
      </trkpt>
      <trkpt lat="45.56264" lon="5.55026">
        <ele>367</ele>
        <time>2023-02-14T11:03:59.688Z</time>
      </trkpt>
      <trkpt lat="45.56262" lon="5.5503">
        <ele>367</ele>
        <time>2023-02-14T11:04:00.688Z</time>
      </trkpt>
      <trkpt lat="45.56259" lon="5.55034">
        <ele>368</ele>
        <time>2023-02-14T11:04:01.688Z</time>
      </trkpt>
      <trkpt lat="45.56257" lon="5.55038">
        <ele>368</ele>
        <time>2023-02-14T11:04:02.688Z</time>
      </trkpt>
      <trkpt lat="45.56255" lon="5.55042">
        <ele>368</ele>
        <time>2023-02-14T11:04:03.688Z</time>
      </trkpt>
      <trkpt lat="45.56254" lon="5.55045">
        <ele>367</ele>
        <time>2023-02-14T11:04:04.688Z</time>
      </trkpt>
      <trkpt lat="45.56252" lon="5.55049">
        <ele>367</ele>
        <time>2023-02-14T11:04:05.688Z</time>
      </trkpt>
      <trkpt lat="45.5625" lon="5.55052">
        <ele>368</ele>
        <time>2023-02-14T11:04:06.688Z</time>
      </trkpt>
      <trkpt lat="45.56249" lon="5.55055">
        <ele>368</ele>
        <time>2023-02-14T11:04:07.688Z</time>
      </trkpt>
      <trkpt lat="45.56247" lon="5.55058">
        <ele>368</ele>
        <time>2023-02-14T11:04:08.688Z</time>
      </trkpt>
      <trkpt lat="45.56245" lon="5.55061">
        <ele>368</ele>
        <time>2023-02-14T11:04:09.688Z</time>
      </trkpt>
      <trkpt lat="45.56244" lon="5.55064">
        <ele>368</ele>
        <time>2023-02-14T11:04:10.688Z</time>
      </trkpt>
      <trkpt lat="45.56242" lon="5.55067">
        <ele>369</ele>
        <time>2023-02-14T11:04:11.688Z</time>
      </trkpt>
      <trkpt lat="45.56241" lon="5.5507">
        <ele>368</ele>
        <time>2023-02-14T11:04:12.688Z</time>
      </trkpt>
      <trkpt lat="45.56241" lon="5.55074">
        <ele>369</ele>
        <time>2023-02-14T11:04:13.688Z</time>
      </trkpt>
      <trkpt lat="45.56241" lon="5.55078">
        <ele>368</ele>
        <time>2023-02-14T11:04:14.688Z</time>
      </trkpt>
      <trkpt lat="45.56242" lon="5.55082">
        <ele>368</ele>
        <time>2023-02-14T11:04:15.688Z</time>
      </trkpt>
      <trkpt lat="45.56242" lon="5.55086">
        <ele>369</ele>
        <time>2023-02-14T11:04:16.688Z</time>
      </trkpt>
      <trkpt lat="45.56243" lon="5.5509">
        <ele>369</ele>
        <time>2023-02-14T11:04:17.688Z</time>
      </trkpt>
      <trkpt lat="45.56244" lon="5.55094">
        <ele>370</ele>
        <time>2023-02-14T11:04:18.688Z</time>
      </trkpt>
      <trkpt lat="45.56244" lon="5.55098">
        <ele>370</ele>
        <time>2023-02-14T11:04:19.688Z</time>
      </trkpt>
      <trkpt lat="45.56245" lon="5.55101">
        <ele>370</ele>
        <time>2023-02-14T11:04:20.688Z</time>
      </trkpt>
      <trkpt lat="45.56246" lon="5.55105">
        <ele>370</ele>
        <time>2023-02-14T11:04:21.688Z</time>
      </trkpt>
      <trkpt lat="45.56247" lon="5.55109">
        <ele>370</ele>
        <time>2023-02-14T11:04:22.688Z</time>
      </trkpt>
      <trkpt lat="45.56247" lon="5.55113">
        <ele>370</ele>
        <time>2023-02-14T11:04:23.688Z</time>
      </trkpt>
      <trkpt lat="45.56248" lon="5.55117">
        <ele>370</ele>
        <time>2023-02-14T11:04:24.688Z</time>
      </trkpt>
      <trkpt lat="45.56249" lon="5.55121">
        <ele>370</ele>
        <time>2023-02-14T11:04:25.688Z</time>
      </trkpt>
      <trkpt lat="45.56249" lon="5.55125">
        <ele>370</ele>
        <time>2023-02-14T11:04:26.688Z</time>
      </trkpt>
      <trkpt lat="45.5625" lon="5.5513">
        <ele>370</ele>
        <time>2023-02-14T11:04:27.688Z</time>
      </trkpt>
      <trkpt lat="45.56251" lon="5.55134">
        <ele>370</ele>
        <time>2023-02-14T11:04:28.688Z</time>
      </trkpt>
      <trkpt lat="45.56251" lon="5.55138">
        <ele>370</ele>
        <time>2023-02-14T11:04:29.688Z</time>
      </trkpt>
      <trkpt lat="45.56251" lon="5.55143">
        <ele>369</ele>
        <time>2023-02-14T11:04:30.688Z</time>
      </trkpt>
      <trkpt lat="45.56251" lon="5.55148">
        <ele>369</ele>
        <time>2023-02-14T11:04:31.688Z</time>
      </trkpt>
      <trkpt lat="45.56251" lon="5.55153">
        <ele>369</ele>
        <time>2023-02-14T11:04:32.688Z</time>
      </trkpt>
      <trkpt lat="45.56251" lon="5.55157">
        <ele>369</ele>
        <time>2023-02-14T11:04:33.688Z</time>
      </trkpt>
      <trkpt lat="45.56252" lon="5.55162">
        <ele>369</ele>
        <time>2023-02-14T11:04:34.688Z</time>
      </trkpt>
      <trkpt lat="45.56252" lon="5.55167">
        <ele>369</ele>
        <time>2023-02-14T11:04:35.688Z</time>
      </trkpt>
      <trkpt lat="45.56252" lon="5.55172">
        <ele>369</ele>
        <time>2023-02-14T11:04:36.688Z</time>
      </trkpt>
      <trkpt lat="45.56253" lon="5.55177">
        <ele>369</ele>
        <time>2023-02-14T11:04:37.688Z</time>
      </trkpt>
      <trkpt lat="45.56254" lon="5.55182">
        <ele>369</ele>
        <time>2023-02-14T11:04:38.688Z</time>
      </trkpt>
      <trkpt lat="45.56254" lon="5.55187">
        <ele>369</ele>
        <time>2023-02-14T11:04:39.688Z</time>
      </trkpt>
      <trkpt lat="45.56255" lon="5.55193">
        <ele>369</ele>
        <time>2023-02-14T11:04:40.688Z</time>
      </trkpt>
      <trkpt lat="45.56256" lon="5.55198">
        <ele>369</ele>
        <time>2023-02-14T11:04:41.688Z</time>
      </trkpt>
      <trkpt lat="45.56257" lon="5.55204">
        <ele>369</ele>
        <time>2023-02-14T11:04:42.688Z</time>
      </trkpt>
      <trkpt lat="45.56257" lon="5.5521">
        <ele>369</ele>
        <time>2023-02-14T11:04:43.688Z</time>
      </trkpt>
      <trkpt lat="45.56257" lon="5.55216">
        <ele>369</ele>
        <time>2023-02-14T11:04:44.688Z</time>
      </trkpt>
      <trkpt lat="45.56257" lon="5.55222">
        <ele>369</ele>
        <time>2023-02-14T11:04:45.688Z</time>
      </trkpt>
      <trkpt lat="45.56258" lon="5.55228">
        <ele>369</ele>
        <time>2023-02-14T11:04:46.688Z</time>
      </trkpt>
      <trkpt lat="45.56258" lon="5.55234">
        <ele>369</ele>
        <time>2023-02-14T11:04:47.688Z</time>
      </trkpt>
      <trkpt lat="45.56259" lon="5.55241">
        <ele>369</ele>
        <time>2023-02-14T11:04:48.688Z</time>
      </trkpt>
      <trkpt lat="45.5626" lon="5.55247">
        <ele>370</ele>
        <time>2023-02-14T11:04:49.688Z</time>
      </trkpt>
      <trkpt lat="45.5626" lon="5.55253">
        <ele>369</ele>
        <time>2023-02-14T11:04:50.688Z</time>
      </trkpt>
      <trkpt lat="45.56261" lon="5.5526">
        <ele>369</ele>
        <time>2023-02-14T11:04:51.688Z</time>
      </trkpt>
      <trkpt lat="45.56262" lon="5.55267">
        <ele>370</ele>
        <time>2023-02-14T11:04:52.688Z</time>
      </trkpt>
      <trkpt lat="45.56263" lon="5.55274">
        <ele>370</ele>
        <time>2023-02-14T11:04:53.688Z</time>
      </trkpt>
      <trkpt lat="45.56265" lon="5.55281">
        <ele>370</ele>
        <time>2023-02-14T11:04:54.688Z</time>
      </trkpt>
      <trkpt lat="45.56266" lon="5.55289">
        <ele>370</ele>
        <time>2023-02-14T11:04:55.688Z</time>
      </trkpt>
      <trkpt lat="45.56266" lon="5.55296">
        <ele>370</ele>
        <time>2023-02-14T11:04:56.688Z</time>
      </trkpt>
      <trkpt lat="45.56267" lon="5.55303">
        <ele>370</ele>
        <time>2023-02-14T11:04:57.688Z</time>
      </trkpt>
      <trkpt lat="45.56267" lon="5.5531">
        <ele>370</ele>
        <time>2023-02-14T11:04:58.688Z</time>
      </trkpt>
      <trkpt lat="45.56267" lon="5.55317">
        <ele>369</ele>
        <time>2023-02-14T11:04:59.688Z</time>
      </trkpt>
      <trkpt lat="45.56267" lon="5.55324">
        <ele>369</ele>
        <time>2023-02-14T11:05:00.688Z</time>
      </trkpt>
      <trkpt lat="45.56265" lon="5.5533">
        <ele>368</ele>
        <time>2023-02-14T11:05:01.688Z</time>
      </trkpt>
      <trkpt lat="45.56264" lon="5.55336">
        <ele>368</ele>
        <time>2023-02-14T11:05:02.688Z</time>
      </trkpt>
      <trkpt lat="45.56263" lon="5.55343">
        <ele>368</ele>
        <time>2023-02-14T11:05:03.688Z</time>
      </trkpt>
      <trkpt lat="45.56262" lon="5.55349">
        <ele>368</ele>
        <time>2023-02-14T11:05:04.688Z</time>
      </trkpt>
      <trkpt lat="45.56261" lon="5.55355">
        <ele>367</ele>
        <time>2023-02-14T11:05:05.688Z</time>
      </trkpt>
      <trkpt lat="45.5626" lon="5.5536">
        <ele>367</ele>
        <time>2023-02-14T11:05:06.688Z</time>
      </trkpt>
      <trkpt lat="45.5626" lon="5.55366">
        <ele>368</ele>
        <time>2023-02-14T11:05:07.688Z</time>
      </trkpt>
      <trkpt lat="45.56259" lon="5.55371">
        <ele>368</ele>
        <time>2023-02-14T11:05:08.688Z</time>
      </trkpt>
      <trkpt lat="45.56259" lon="5.55375">
        <ele>368</ele>
        <time>2023-02-14T11:05:09.688Z</time>
      </trkpt>
      <trkpt lat="45.56259" lon="5.5538">
        <ele>368</ele>
        <time>2023-02-14T11:05:10.688Z</time>
      </trkpt>
      <trkpt lat="45.56258" lon="5.55383">
        <ele>369</ele>
        <time>2023-02-14T11:05:11.688Z</time>
      </trkpt>
      <trkpt lat="45.56258" lon="5.55388">
        <ele>368</ele>
        <time>2023-02-14T11:05:12.688Z</time>
      </trkpt>
      <trkpt lat="45.56257" lon="5.55393">
        <ele>369</ele>
        <time>2023-02-14T11:05:13.688Z</time>
      </trkpt>
      <trkpt lat="45.56256" lon="5.55398">
        <ele>369</ele>
        <time>2023-02-14T11:05:14.688Z</time>
      </trkpt>
      <trkpt lat="45.56256" lon="5.55402">
        <ele>369</ele>
        <time>2023-02-14T11:05:15.688Z</time>
      </trkpt>
      <trkpt lat="45.56255" lon="5.55407">
        <ele>368</ele>
        <time>2023-02-14T11:05:16.688Z</time>
      </trkpt>
      <trkpt lat="45.56255" lon="5.55412">
        <ele>369</ele>
        <time>2023-02-14T11:05:17.688Z</time>
      </trkpt>
      <trkpt lat="45.56254" lon="5.55418">
        <ele>371</ele>
        <time>2023-02-14T11:05:18.688Z</time>
      </trkpt>
      <trkpt lat="45.56253" lon="5.55425">
        <ele>370</ele>
        <time>2023-02-14T11:05:19.688Z</time>
      </trkpt>
      <trkpt lat="45.56252" lon="5.55431">
        <ele>370</ele>
        <time>2023-02-14T11:05:20.688Z</time>
      </trkpt>
      <trkpt lat="45.56251" lon="5.55437">
        <ele>370</ele>
        <time>2023-02-14T11:05:21.688Z</time>
      </trkpt>
      <trkpt lat="45.5625" lon="5.55442">
        <ele>370</ele>
        <time>2023-02-14T11:05:22.688Z</time>
      </trkpt>
      <trkpt lat="45.56249" lon="5.55447">
        <ele>370</ele>
        <time>2023-02-14T11:05:23.688Z</time>
      </trkpt>
      <trkpt lat="45.56249" lon="5.55452">
        <ele>371</ele>
        <time>2023-02-14T11:05:24.688Z</time>
      </trkpt>
      <trkpt lat="45.56248" lon="5.55457">
        <ele>370</ele>
        <time>2023-02-14T11:05:25.688Z</time>
      </trkpt>
      <trkpt lat="45.56248" lon="5.55462">
        <ele>368</ele>
        <time>2023-02-14T11:05:26.688Z</time>
      </trkpt>
      <trkpt lat="45.56247" lon="5.55467">
        <ele>368</ele>
        <time>2023-02-14T11:05:27.688Z</time>
      </trkpt>
      <trkpt lat="45.56247" lon="5.55473">
        <ele>368</ele>
        <time>2023-02-14T11:05:28.688Z</time>
      </trkpt>
      <trkpt lat="45.56246" lon="5.55478">
        <ele>367</ele>
        <time>2023-02-14T11:05:29.688Z</time>
      </trkpt>
      <trkpt lat="45.56246" lon="5.55484">
        <ele>366</ele>
        <time>2023-02-14T11:05:30.688Z</time>
      </trkpt>
      <trkpt lat="45.56245" lon="5.55489">
        <ele>365</ele>
        <time>2023-02-14T11:05:31.688Z</time>
      </trkpt>
      <trkpt lat="45.56245" lon="5.55495">
        <ele>365</ele>
        <time>2023-02-14T11:05:32.688Z</time>
      </trkpt>
      <trkpt lat="45.56244" lon="5.555">
        <ele>365</ele>
        <time>2023-02-14T11:05:33.688Z</time>
      </trkpt>
      <trkpt lat="45.56244" lon="5.55506">
        <ele>364</ele>
        <time>2023-02-14T11:05:34.688Z</time>
      </trkpt>
      <trkpt lat="45.56244" lon="5.55512">
        <ele>365</ele>
        <time>2023-02-14T11:05:35.688Z</time>
      </trkpt>
      <trkpt lat="45.56244" lon="5.55517">
        <ele>365</ele>
        <time>2023-02-14T11:05:36.688Z</time>
      </trkpt>
      <trkpt lat="45.56243" lon="5.55523">
        <ele>365</ele>
        <time>2023-02-14T11:05:37.688Z</time>
      </trkpt>
      <trkpt lat="45.56244" lon="5.55529">
        <ele>365</ele>
        <time>2023-02-14T11:05:38.688Z</time>
      </trkpt>
      <trkpt lat="45.56245" lon="5.55535">
        <ele>365</ele>
        <time>2023-02-14T11:05:39.688Z</time>
      </trkpt>
      <trkpt lat="45.56246" lon="5.55541">
        <ele>365</ele>
        <time>2023-02-14T11:05:40.688Z</time>
      </trkpt>
      <trkpt lat="45.56248" lon="5.55546">
        <ele>365</ele>
        <time>2023-02-14T11:05:41.688Z</time>
      </trkpt>
      <trkpt lat="45.5625" lon="5.55551">
        <ele>366</ele>
        <time>2023-02-14T11:05:42.688Z</time>
      </trkpt>
      <trkpt lat="45.56252" lon="5.55556">
        <ele>366</ele>
        <time>2023-02-14T11:05:43.688Z</time>
      </trkpt>
      <trkpt lat="45.56254" lon="5.55561">
        <ele>366</ele>
        <time>2023-02-14T11:05:44.688Z</time>
      </trkpt>
      <trkpt lat="45.56256" lon="5.55565">
        <ele>366</ele>
        <time>2023-02-14T11:05:45.688Z</time>
      </trkpt>
      <trkpt lat="45.56258" lon="5.5557">
        <ele>366</ele>
        <time>2023-02-14T11:05:46.688Z</time>
      </trkpt>
      <trkpt lat="45.56261" lon="5.55575">
        <ele>365</ele>
        <time>2023-02-14T11:05:47.688Z</time>
      </trkpt>
      <trkpt lat="45.56263" lon="5.55579">
        <ele>365</ele>
        <time>2023-02-14T11:05:48.688Z</time>
      </trkpt>
      <trkpt lat="45.56266" lon="5.55581">
        <ele>365</ele>
        <time>2023-02-14T11:05:49.688Z</time>
      </trkpt>
      <trkpt lat="45.56267" lon="5.55583">
        <ele>364</ele>
        <time>2023-02-14T11:05:50.688Z</time>
      </trkpt>
      <trkpt lat="45.56269" lon="5.55584">
        <ele>364</ele>
        <time>2023-02-14T11:05:51.688Z</time>
      </trkpt>
      <trkpt lat="45.56271" lon="5.55584">
        <ele>364</ele>
        <time>2023-02-14T11:05:52.688Z</time>
      </trkpt>
      <trkpt lat="45.56272" lon="5.55582">
        <ele>363</ele>
        <time>2023-02-14T11:05:53.688Z</time>
      </trkpt>
      <trkpt lat="45.56273" lon="5.55581">
        <ele>363</ele>
        <time>2023-02-14T11:05:54.688Z</time>
      </trkpt>
      <trkpt lat="45.56274" lon="5.55579">
        <ele>362</ele>
        <time>2023-02-14T11:05:55.688Z</time>
      </trkpt>
      <trkpt lat="45.56274" lon="5.55577">
        <ele>361</ele>
        <time>2023-02-14T11:05:56.688Z</time>
      </trkpt>
      <trkpt lat="45.56274" lon="5.55575">
        <ele>361</ele>
        <time>2023-02-14T11:05:57.688Z</time>
      </trkpt>
      <trkpt lat="45.56275" lon="5.55572">
        <ele>360</ele>
        <time>2023-02-14T11:05:58.688Z</time>
      </trkpt>
      <trkpt lat="45.56276" lon="5.55569">
        <ele>360</ele>
        <time>2023-02-14T11:05:59.688Z</time>
      </trkpt>
      <trkpt lat="45.56276" lon="5.55566">
        <ele>359</ele>
        <time>2023-02-14T11:06:00.688Z</time>
      </trkpt>
      <trkpt lat="45.56277" lon="5.55563">
        <ele>358</ele>
        <time>2023-02-14T11:06:01.688Z</time>
      </trkpt>
      <trkpt lat="45.56278" lon="5.55559">
        <ele>357</ele>
        <time>2023-02-14T11:06:02.688Z</time>
      </trkpt>
      <trkpt lat="45.56279" lon="5.55556">
        <ele>357</ele>
        <time>2023-02-14T11:06:03.688Z</time>
      </trkpt>
      <trkpt lat="45.56279" lon="5.55552">
        <ele>356</ele>
        <time>2023-02-14T11:06:04.688Z</time>
      </trkpt>
      <trkpt lat="45.5628" lon="5.55547">
        <ele>356</ele>
        <time>2023-02-14T11:06:05.688Z</time>
      </trkpt>
      <trkpt lat="45.5628" lon="5.55543">
        <ele>355</ele>
        <time>2023-02-14T11:06:06.688Z</time>
      </trkpt>
      <trkpt lat="45.56281" lon="5.55539">
        <ele>355</ele>
        <time>2023-02-14T11:06:07.688Z</time>
      </trkpt>
      <trkpt lat="45.56281" lon="5.55535">
        <ele>354</ele>
        <time>2023-02-14T11:06:08.688Z</time>
      </trkpt>
      <trkpt lat="45.56282" lon="5.55531">
        <ele>354</ele>
        <time>2023-02-14T11:06:09.688Z</time>
      </trkpt>
      <trkpt lat="45.56282" lon="5.55527">
        <ele>354</ele>
        <time>2023-02-14T11:06:10.688Z</time>
      </trkpt>
      <trkpt lat="45.56283" lon="5.55523">
        <ele>353</ele>
        <time>2023-02-14T11:06:11.688Z</time>
      </trkpt>
      <trkpt lat="45.56284" lon="5.55519">
        <ele>353</ele>
        <time>2023-02-14T11:06:12.688Z</time>
      </trkpt>
      <trkpt lat="45.56284" lon="5.55515">
        <ele>353</ele>
        <time>2023-02-14T11:06:13.688Z</time>
      </trkpt>
      <trkpt lat="45.56285" lon="5.55511">
        <ele>353</ele>
        <time>2023-02-14T11:06:14.688Z</time>
      </trkpt>
      <trkpt lat="45.56286" lon="5.55507">
        <ele>354</ele>
        <time>2023-02-14T11:06:15.688Z</time>
      </trkpt>
      <trkpt lat="45.56286" lon="5.55502">
        <ele>354</ele>
        <time>2023-02-14T11:06:16.688Z</time>
      </trkpt>
      <trkpt lat="45.56287" lon="5.55498">
        <ele>355</ele>
        <time>2023-02-14T11:06:17.688Z</time>
      </trkpt>
      <trkpt lat="45.56287" lon="5.55493">
        <ele>355</ele>
        <time>2023-02-14T11:06:18.688Z</time>
      </trkpt>
      <trkpt lat="45.56287" lon="5.55488">
        <ele>354</ele>
        <time>2023-02-14T11:06:19.688Z</time>
      </trkpt>
      <trkpt lat="45.56288" lon="5.55484">
        <ele>353</ele>
        <time>2023-02-14T11:06:20.688Z</time>
      </trkpt>
      <trkpt lat="45.56289" lon="5.55479">
        <ele>354</ele>
        <time>2023-02-14T11:06:21.688Z</time>
      </trkpt>
      <trkpt lat="45.56289" lon="5.55474">
        <ele>353</ele>
        <time>2023-02-14T11:06:22.688Z</time>
      </trkpt>
      <trkpt lat="45.5629" lon="5.55469">
        <ele>353</ele>
        <time>2023-02-14T11:06:23.688Z</time>
      </trkpt>
      <trkpt lat="45.5629" lon="5.55464">
        <ele>353</ele>
        <time>2023-02-14T11:06:24.688Z</time>
      </trkpt>
      <trkpt lat="45.56291" lon="5.55459">
        <ele>353</ele>
        <time>2023-02-14T11:06:25.688Z</time>
      </trkpt>
      <trkpt lat="45.56291" lon="5.55455">
        <ele>353</ele>
        <time>2023-02-14T11:06:26.688Z</time>
      </trkpt>
      <trkpt lat="45.56291" lon="5.5545">
        <ele>352</ele>
        <time>2023-02-14T11:06:27.688Z</time>
      </trkpt>
      <trkpt lat="45.56292" lon="5.55446">
        <ele>352</ele>
        <time>2023-02-14T11:06:28.688Z</time>
      </trkpt>
      <trkpt lat="45.56292" lon="5.55441">
        <ele>352</ele>
        <time>2023-02-14T11:06:29.688Z</time>
      </trkpt>
      <trkpt lat="45.56293" lon="5.55437">
        <ele>351</ele>
        <time>2023-02-14T11:06:30.688Z</time>
      </trkpt>
      <trkpt lat="45.56294" lon="5.55432">
        <ele>351</ele>
        <time>2023-02-14T11:06:31.688Z</time>
      </trkpt>
      <trkpt lat="45.56295" lon="5.55427">
        <ele>351</ele>
        <time>2023-02-14T11:06:32.688Z</time>
      </trkpt>
      <trkpt lat="45.56297" lon="5.55422">
        <ele>351</ele>
        <time>2023-02-14T11:06:33.688Z</time>
      </trkpt>
      <trkpt lat="45.56298" lon="5.55418">
        <ele>350</ele>
        <time>2023-02-14T11:06:34.688Z</time>
      </trkpt>
      <trkpt lat="45.563" lon="5.55413">
        <ele>350</ele>
        <time>2023-02-14T11:06:35.688Z</time>
      </trkpt>
      <trkpt lat="45.56301" lon="5.55408">
        <ele>351</ele>
        <time>2023-02-14T11:06:36.688Z</time>
      </trkpt>
      <trkpt lat="45.56302" lon="5.55403">
        <ele>351</ele>
        <time>2023-02-14T11:06:37.688Z</time>
      </trkpt>
      <trkpt lat="45.56303" lon="5.55399">
        <ele>351</ele>
        <time>2023-02-14T11:06:38.688Z</time>
      </trkpt>
      <trkpt lat="45.56304" lon="5.55394">
        <ele>351</ele>
        <time>2023-02-14T11:06:39.688Z</time>
      </trkpt>
      <trkpt lat="45.56305" lon="5.5539">
        <ele>351</ele>
        <time>2023-02-14T11:06:40.688Z</time>
      </trkpt>
      <trkpt lat="45.56306" lon="5.55385">
        <ele>351</ele>
        <time>2023-02-14T11:06:41.688Z</time>
      </trkpt>
      <trkpt lat="45.56307" lon="5.55381">
        <ele>351</ele>
        <time>2023-02-14T11:06:42.688Z</time>
      </trkpt>
      <trkpt lat="45.56309" lon="5.55377">
        <ele>352</ele>
        <time>2023-02-14T11:06:43.688Z</time>
      </trkpt>
      <trkpt lat="45.56311" lon="5.55372">
        <ele>352</ele>
        <time>2023-02-14T11:06:44.688Z</time>
      </trkpt>
      <trkpt lat="45.56313" lon="5.55368">
        <ele>353</ele>
        <time>2023-02-14T11:06:45.688Z</time>
      </trkpt>
      <trkpt lat="45.56315" lon="5.55364">
        <ele>354</ele>
        <time>2023-02-14T11:06:46.688Z</time>
      </trkpt>
      <trkpt lat="45.56318" lon="5.5536">
        <ele>355</ele>
        <time>2023-02-14T11:06:47.688Z</time>
      </trkpt>
      <trkpt lat="45.5632" lon="5.55356">
        <ele>355</ele>
        <time>2023-02-14T11:06:48.688Z</time>
      </trkpt>
      <trkpt lat="45.56322" lon="5.55352">
        <ele>356</ele>
        <time>2023-02-14T11:06:49.688Z</time>
      </trkpt>
      <trkpt lat="45.56325" lon="5.55348">
        <ele>355</ele>
        <time>2023-02-14T11:06:50.688Z</time>
      </trkpt>
      <trkpt lat="45.56327" lon="5.55345">
        <ele>355</ele>
        <time>2023-02-14T11:06:51.688Z</time>
      </trkpt>
      <trkpt lat="45.5633" lon="5.55342">
        <ele>355</ele>
        <time>2023-02-14T11:06:52.688Z</time>
      </trkpt>
      <trkpt lat="45.56333" lon="5.55339">
        <ele>356</ele>
        <time>2023-02-14T11:06:53.688Z</time>
      </trkpt>
      <trkpt lat="45.56336" lon="5.55336">
        <ele>356</ele>
        <time>2023-02-14T11:06:54.688Z</time>
      </trkpt>
      <trkpt lat="45.5634" lon="5.55334">
        <ele>356</ele>
        <time>2023-02-14T11:06:55.688Z</time>
      </trkpt>
      <trkpt lat="45.56343" lon="5.55333">
        <ele>356</ele>
        <time>2023-02-14T11:06:56.688Z</time>
      </trkpt>
      <trkpt lat="45.56347" lon="5.55333">
        <ele>357</ele>
        <time>2023-02-14T11:06:57.688Z</time>
      </trkpt>
      <trkpt lat="45.5635" lon="5.55333">
        <ele>357</ele>
        <time>2023-02-14T11:06:58.688Z</time>
      </trkpt>
      <trkpt lat="45.56354" lon="5.55332">
        <ele>357</ele>
        <time>2023-02-14T11:06:59.688Z</time>
      </trkpt>
      <trkpt lat="45.56357" lon="5.5533">
        <ele>357</ele>
        <time>2023-02-14T11:07:00.688Z</time>
      </trkpt>
      <trkpt lat="45.5636" lon="5.55328">
        <ele>357</ele>
        <time>2023-02-14T11:07:01.688Z</time>
      </trkpt>
      <trkpt lat="45.56362" lon="5.55326">
        <ele>357</ele>
        <time>2023-02-14T11:07:02.688Z</time>
      </trkpt>
      <trkpt lat="45.56364" lon="5.55324">
        <ele>357</ele>
        <time>2023-02-14T11:07:03.688Z</time>
      </trkpt>
      <trkpt lat="45.56366" lon="5.55323">
        <ele>357</ele>
        <time>2023-02-14T11:07:04.688Z</time>
      </trkpt>
      <trkpt lat="45.56369" lon="5.55323">
        <ele>357</ele>
        <time>2023-02-14T11:07:05.688Z</time>
      </trkpt>
      <trkpt lat="45.56371" lon="5.55322">
        <ele>357</ele>
        <time>2023-02-14T11:07:06.688Z</time>
      </trkpt>
      <trkpt lat="45.56374" lon="5.55321">
        <ele>356</ele>
        <time>2023-02-14T11:07:07.688Z</time>
      </trkpt>
      <trkpt lat="45.56376" lon="5.5532">
        <ele>356</ele>
        <time>2023-02-14T11:07:08.688Z</time>
      </trkpt>
      <trkpt lat="45.56379" lon="5.55319">
        <ele>356</ele>
        <time>2023-02-14T11:07:09.688Z</time>
      </trkpt>
      <trkpt lat="45.56382" lon="5.55319">
        <ele>356</ele>
        <time>2023-02-14T11:07:10.688Z</time>
      </trkpt>
      <trkpt lat="45.56385" lon="5.55318">
        <ele>355</ele>
        <time>2023-02-14T11:07:11.688Z</time>
      </trkpt>
      <trkpt lat="45.56388" lon="5.55317">
        <ele>356</ele>
        <time>2023-02-14T11:07:12.688Z</time>
      </trkpt>
      <trkpt lat="45.56391" lon="5.55315">
        <ele>355</ele>
        <time>2023-02-14T11:07:13.688Z</time>
      </trkpt>
      <trkpt lat="45.56393" lon="5.55313">
        <ele>355</ele>
        <time>2023-02-14T11:07:14.688Z</time>
      </trkpt>
      <trkpt lat="45.56396" lon="5.5531">
        <ele>355</ele>
        <time>2023-02-14T11:07:15.688Z</time>
      </trkpt>
      <trkpt lat="45.56398" lon="5.55307">
        <ele>355</ele>
        <time>2023-02-14T11:07:16.688Z</time>
      </trkpt>
      <trkpt lat="45.564" lon="5.55304">
        <ele>355</ele>
        <time>2023-02-14T11:07:17.688Z</time>
      </trkpt>
      <trkpt lat="45.56402" lon="5.55301">
        <ele>355</ele>
        <time>2023-02-14T11:07:18.688Z</time>
      </trkpt>
      <trkpt lat="45.56404" lon="5.55298">
        <ele>356</ele>
        <time>2023-02-14T11:07:19.688Z</time>
      </trkpt>
      <trkpt lat="45.56407" lon="5.55295">
        <ele>356</ele>
        <time>2023-02-14T11:07:20.688Z</time>
      </trkpt>
      <trkpt lat="45.56409" lon="5.55293">
        <ele>356</ele>
        <time>2023-02-14T11:07:21.688Z</time>
      </trkpt>
      <trkpt lat="45.56412" lon="5.5529">
        <ele>356</ele>
        <time>2023-02-14T11:07:22.688Z</time>
      </trkpt>
      <trkpt lat="45.56414" lon="5.55287">
        <ele>356</ele>
        <time>2023-02-14T11:07:23.688Z</time>
      </trkpt>
      <trkpt lat="45.56417" lon="5.55284">
        <ele>357</ele>
        <time>2023-02-14T11:07:24.688Z</time>
      </trkpt>
      <trkpt lat="45.56419" lon="5.5528">
        <ele>357</ele>
        <time>2023-02-14T11:07:25.688Z</time>
      </trkpt>
      <trkpt lat="45.56422" lon="5.55277">
        <ele>357</ele>
        <time>2023-02-14T11:07:26.688Z</time>
      </trkpt>
      <trkpt lat="45.56424" lon="5.55274">
        <ele>358</ele>
        <time>2023-02-14T11:07:27.688Z</time>
      </trkpt>
      <trkpt lat="45.56425" lon="5.5527">
        <ele>358</ele>
        <time>2023-02-14T11:07:28.688Z</time>
      </trkpt>
      <trkpt lat="45.56427" lon="5.55266">
        <ele>357</ele>
        <time>2023-02-14T11:07:29.688Z</time>
      </trkpt>
      <trkpt lat="45.56428" lon="5.55262">
        <ele>357</ele>
        <time>2023-02-14T11:07:30.688Z</time>
      </trkpt>
      <trkpt lat="45.56429" lon="5.55258">
        <ele>357</ele>
        <time>2023-02-14T11:07:31.688Z</time>
      </trkpt>
      <trkpt lat="45.5643" lon="5.55254">
        <ele>357</ele>
        <time>2023-02-14T11:07:32.688Z</time>
      </trkpt>
      <trkpt lat="45.56432" lon="5.55249">
        <ele>357</ele>
        <time>2023-02-14T11:07:33.688Z</time>
      </trkpt>
      <trkpt lat="45.56433" lon="5.55245">
        <ele>358</ele>
        <time>2023-02-14T11:07:34.688Z</time>
      </trkpt>
      <trkpt lat="45.56434" lon="5.5524">
        <ele>358</ele>
        <time>2023-02-14T11:07:35.688Z</time>
      </trkpt>
      <trkpt lat="45.56436" lon="5.55236">
        <ele>358</ele>
        <time>2023-02-14T11:07:36.688Z</time>
      </trkpt>
      <trkpt lat="45.56438" lon="5.55232">
        <ele>358</ele>
        <time>2023-02-14T11:07:37.688Z</time>
      </trkpt>
      <trkpt lat="45.56439" lon="5.55227">
        <ele>358</ele>
        <time>2023-02-14T11:07:38.688Z</time>
      </trkpt>
      <trkpt lat="45.56441" lon="5.55224">
        <ele>358</ele>
        <time>2023-02-14T11:07:39.688Z</time>
      </trkpt>
      <trkpt lat="45.56444" lon="5.55221">
        <ele>358</ele>
        <time>2023-02-14T11:07:40.688Z</time>
      </trkpt>
      <trkpt lat="45.56448" lon="5.5522">
        <ele>359</ele>
        <time>2023-02-14T11:07:41.688Z</time>
      </trkpt>
      <trkpt lat="45.56451" lon="5.55221">
        <ele>359</ele>
        <time>2023-02-14T11:07:42.688Z</time>
      </trkpt>
      <trkpt lat="45.56453" lon="5.55223">
        <ele>359</ele>
        <time>2023-02-14T11:07:43.688Z</time>
      </trkpt>
      <trkpt lat="45.56455" lon="5.55225">
        <ele>358</ele>
        <time>2023-02-14T11:07:44.688Z</time>
      </trkpt>
      <trkpt lat="45.56458" lon="5.55227">
        <ele>359</ele>
        <time>2023-02-14T11:07:45.688Z</time>
      </trkpt>
      <trkpt lat="45.5646" lon="5.55229">
        <ele>358</ele>
        <time>2023-02-14T11:07:46.688Z</time>
      </trkpt>
      <trkpt lat="45.56462" lon="5.55231">
        <ele>358</ele>
        <time>2023-02-14T11:07:47.688Z</time>
      </trkpt>
      <trkpt lat="45.56464" lon="5.55233">
        <ele>358</ele>
        <time>2023-02-14T11:07:48.688Z</time>
      </trkpt>
      <trkpt lat="45.56466" lon="5.55235">
        <ele>358</ele>
        <time>2023-02-14T11:07:49.688Z</time>
      </trkpt>
      <trkpt lat="45.56469" lon="5.55237">
        <ele>357</ele>
        <time>2023-02-14T11:07:50.688Z</time>
      </trkpt>
      <trkpt lat="45.56471" lon="5.55239">
        <ele>356</ele>
        <time>2023-02-14T11:07:51.688Z</time>
      </trkpt>
      <trkpt lat="45.56473" lon="5.5524">
        <ele>356</ele>
        <time>2023-02-14T11:07:52.688Z</time>
      </trkpt>
      <trkpt lat="45.56476" lon="5.55242">
        <ele>356</ele>
        <time>2023-02-14T11:07:53.688Z</time>
      </trkpt>
      <trkpt lat="45.56478" lon="5.55243">
        <ele>356</ele>
        <time>2023-02-14T11:07:54.688Z</time>
      </trkpt>
      <trkpt lat="45.56481" lon="5.55245">
        <ele>356</ele>
        <time>2023-02-14T11:07:55.688Z</time>
      </trkpt>
      <trkpt lat="45.56483" lon="5.55247">
        <ele>357</ele>
        <time>2023-02-14T11:07:56.688Z</time>
      </trkpt>
      <trkpt lat="45.56486" lon="5.55248">
        <ele>357</ele>
        <time>2023-02-14T11:07:57.688Z</time>
      </trkpt>
      <trkpt lat="45.56488" lon="5.5525">
        <ele>357</ele>
        <time>2023-02-14T11:07:58.688Z</time>
      </trkpt>
      <trkpt lat="45.56491" lon="5.55252">
        <ele>357</ele>
        <time>2023-02-14T11:07:59.688Z</time>
      </trkpt>
      <trkpt lat="45.56493" lon="5.55254">
        <ele>358</ele>
        <time>2023-02-14T11:08:00.688Z</time>
      </trkpt>
      <trkpt lat="45.56495" lon="5.55255">
        <ele>358</ele>
        <time>2023-02-14T11:08:01.688Z</time>
      </trkpt>
      <trkpt lat="45.56497" lon="5.55257">
        <ele>359</ele>
        <time>2023-02-14T11:08:02.688Z</time>
      </trkpt>
      <trkpt lat="45.56499" lon="5.55259">
        <ele>359</ele>
        <time>2023-02-14T11:08:03.688Z</time>
      </trkpt>
      <trkpt lat="45.56501" lon="5.5526">
        <ele>359</ele>
        <time>2023-02-14T11:08:04.688Z</time>
      </trkpt>
      <trkpt lat="45.56503" lon="5.55262">
        <ele>359</ele>
        <time>2023-02-14T11:08:05.688Z</time>
      </trkpt>
      <trkpt lat="45.56505" lon="5.55264">
        <ele>359</ele>
        <time>2023-02-14T11:08:06.688Z</time>
      </trkpt>
      <trkpt lat="45.56506" lon="5.55266">
        <ele>360</ele>
        <time>2023-02-14T11:08:07.688Z</time>
      </trkpt>
      <trkpt lat="45.56508" lon="5.55267">
        <ele>360</ele>
        <time>2023-02-14T11:08:08.688Z</time>
      </trkpt>
      <trkpt lat="45.5651" lon="5.55269">
        <ele>361</ele>
        <time>2023-02-14T11:08:09.688Z</time>
      </trkpt>
      <trkpt lat="45.56512" lon="5.55272">
        <ele>361</ele>
        <time>2023-02-14T11:08:10.688Z</time>
      </trkpt>
      <trkpt lat="45.56514" lon="5.55274">
        <ele>362</ele>
        <time>2023-02-14T11:08:11.688Z</time>
      </trkpt>
      <trkpt lat="45.56515" lon="5.55276">
        <ele>362</ele>
        <time>2023-02-14T11:08:12.688Z</time>
      </trkpt>
      <trkpt lat="45.56517" lon="5.55279">
        <ele>362</ele>
        <time>2023-02-14T11:08:13.688Z</time>
      </trkpt>
      <trkpt lat="45.56518" lon="5.55282">
        <ele>363</ele>
        <time>2023-02-14T11:08:14.688Z</time>
      </trkpt>
      <trkpt lat="45.56519" lon="5.55285">
        <ele>363</ele>
        <time>2023-02-14T11:08:15.688Z</time>
      </trkpt>
      <trkpt lat="45.56519" lon="5.55289">
        <ele>364</ele>
        <time>2023-02-14T11:08:16.688Z</time>
      </trkpt>
      <trkpt lat="45.5652" lon="5.55292">
        <ele>364</ele>
        <time>2023-02-14T11:08:17.688Z</time>
      </trkpt>
      <trkpt lat="45.5652" lon="5.55296">
        <ele>364</ele>
        <time>2023-02-14T11:08:18.688Z</time>
      </trkpt>
      <trkpt lat="45.56521" lon="5.55299">
        <ele>364</ele>
        <time>2023-02-14T11:08:19.688Z</time>
      </trkpt>
      <trkpt lat="45.56521" lon="5.55302">
        <ele>364</ele>
        <time>2023-02-14T11:08:20.688Z</time>
      </trkpt>
      <trkpt lat="45.56521" lon="5.55306">
        <ele>364</ele>
        <time>2023-02-14T11:08:21.688Z</time>
      </trkpt>
      <trkpt lat="45.56521" lon="5.55309">
        <ele>364</ele>
        <time>2023-02-14T11:08:22.688Z</time>
      </trkpt>
      <trkpt lat="45.56522" lon="5.55313">
        <ele>364</ele>
        <time>2023-02-14T11:08:23.688Z</time>
      </trkpt>
      <trkpt lat="45.56522" lon="5.55317">
        <ele>365</ele>
        <time>2023-02-14T11:08:24.688Z</time>
      </trkpt>
      <trkpt lat="45.56522" lon="5.5532">
        <ele>365</ele>
        <time>2023-02-14T11:08:25.688Z</time>
      </trkpt>
      <trkpt lat="45.56522" lon="5.55324">
        <ele>365</ele>
        <time>2023-02-14T11:08:26.688Z</time>
      </trkpt>
      <trkpt lat="45.56522" lon="5.55328">
        <ele>365</ele>
        <time>2023-02-14T11:08:27.688Z</time>
      </trkpt>
      <trkpt lat="45.56522" lon="5.55331">
        <ele>365</ele>
        <time>2023-02-14T11:08:28.688Z</time>
      </trkpt>
      <trkpt lat="45.56522" lon="5.55335">
        <ele>365</ele>
        <time>2023-02-14T11:08:29.688Z</time>
      </trkpt>
      <trkpt lat="45.56522" lon="5.55338">
        <ele>365</ele>
        <time>2023-02-14T11:08:30.688Z</time>
      </trkpt>
      <trkpt lat="45.56522" lon="5.55342">
        <ele>365</ele>
        <time>2023-02-14T11:08:31.688Z</time>
      </trkpt>
      <trkpt lat="45.56522" lon="5.55346">
        <ele>366</ele>
        <time>2023-02-14T11:08:32.688Z</time>
      </trkpt>
      <trkpt lat="45.56523" lon="5.55349">
        <ele>366</ele>
        <time>2023-02-14T11:08:33.688Z</time>
      </trkpt>
      <trkpt lat="45.56523" lon="5.55353">
        <ele>366</ele>
        <time>2023-02-14T11:08:34.688Z</time>
      </trkpt>
      <trkpt lat="45.56523" lon="5.55356">
        <ele>366</ele>
        <time>2023-02-14T11:08:35.688Z</time>
      </trkpt>
      <trkpt lat="45.56523" lon="5.5536">
        <ele>366</ele>
        <time>2023-02-14T11:08:36.688Z</time>
      </trkpt>
      <trkpt lat="45.56524" lon="5.55364">
        <ele>367</ele>
        <time>2023-02-14T11:08:37.688Z</time>
      </trkpt>
      <trkpt lat="45.56524" lon="5.55367">
        <ele>367</ele>
        <time>2023-02-14T11:08:38.688Z</time>
      </trkpt>
      <trkpt lat="45.56525" lon="5.5537">
        <ele>367</ele>
        <time>2023-02-14T11:08:39.688Z</time>
      </trkpt>
      <trkpt lat="45.56525" lon="5.55374">
        <ele>367</ele>
        <time>2023-02-14T11:08:40.688Z</time>
      </trkpt>
      <trkpt lat="45.56526" lon="5.55377">
        <ele>368</ele>
        <time>2023-02-14T11:08:41.688Z</time>
      </trkpt>
      <trkpt lat="45.56526" lon="5.5538">
        <ele>368</ele>
        <time>2023-02-14T11:08:42.688Z</time>
      </trkpt>
      <trkpt lat="45.56527" lon="5.55384">
        <ele>368</ele>
        <time>2023-02-14T11:08:43.688Z</time>
      </trkpt>
      <trkpt lat="45.56527" lon="5.55387">
        <ele>368</ele>
        <time>2023-02-14T11:08:44.688Z</time>
      </trkpt>
      <trkpt lat="45.56528" lon="5.55391">
        <ele>368</ele>
        <time>2023-02-14T11:08:45.688Z</time>
      </trkpt>
      <trkpt lat="45.56528" lon="5.55394">
        <ele>368</ele>
        <time>2023-02-14T11:08:46.688Z</time>
      </trkpt>
      <trkpt lat="45.56528" lon="5.55398">
        <ele>368</ele>
        <time>2023-02-14T11:08:47.688Z</time>
      </trkpt>
      <trkpt lat="45.56529" lon="5.55402">
        <ele>369</ele>
        <time>2023-02-14T11:08:48.688Z</time>
      </trkpt>
      <trkpt lat="45.56529" lon="5.55406">
        <ele>369</ele>
        <time>2023-02-14T11:08:49.688Z</time>
      </trkpt>
      <trkpt lat="45.56529" lon="5.5541">
        <ele>369</ele>
        <time>2023-02-14T11:08:50.688Z</time>
      </trkpt>
      <trkpt lat="45.5653" lon="5.55414">
        <ele>369</ele>
        <time>2023-02-14T11:08:51.688Z</time>
      </trkpt>
      <trkpt lat="45.5653" lon="5.55418">
        <ele>369</ele>
        <time>2023-02-14T11:08:52.688Z</time>
      </trkpt>
      <trkpt lat="45.56531" lon="5.55422">
        <ele>369</ele>
        <time>2023-02-14T11:08:53.688Z</time>
      </trkpt>
      <trkpt lat="45.56531" lon="5.55426">
        <ele>369</ele>
        <time>2023-02-14T11:08:54.688Z</time>
      </trkpt>
      <trkpt lat="45.56531" lon="5.55431">
        <ele>369</ele>
        <time>2023-02-14T11:08:55.688Z</time>
      </trkpt>
      <trkpt lat="45.56531" lon="5.55435">
        <ele>369</ele>
        <time>2023-02-14T11:08:56.688Z</time>
      </trkpt>
      <trkpt lat="45.56531" lon="5.55439">
        <ele>370</ele>
        <time>2023-02-14T11:08:57.688Z</time>
      </trkpt>
      <trkpt lat="45.56531" lon="5.55444">
        <ele>370</ele>
        <time>2023-02-14T11:08:58.688Z</time>
      </trkpt>
      <trkpt lat="45.56531" lon="5.55448">
        <ele>370</ele>
        <time>2023-02-14T11:08:59.688Z</time>
      </trkpt>
      <trkpt lat="45.56531" lon="5.55452">
        <ele>370</ele>
        <time>2023-02-14T11:09:00.688Z</time>
      </trkpt>
      <trkpt lat="45.56531" lon="5.55456">
        <ele>370</ele>
        <time>2023-02-14T11:09:01.688Z</time>
      </trkpt>
      <trkpt lat="45.56532" lon="5.55461">
        <ele>370</ele>
        <time>2023-02-14T11:09:02.688Z</time>
      </trkpt>
      <trkpt lat="45.56532" lon="5.55465">
        <ele>371</ele>
        <time>2023-02-14T11:09:03.688Z</time>
      </trkpt>
      <trkpt lat="45.56532" lon="5.55469">
        <ele>371</ele>
        <time>2023-02-14T11:09:04.688Z</time>
      </trkpt>
      <trkpt lat="45.56532" lon="5.55474">
        <ele>371</ele>
        <time>2023-02-14T11:09:05.688Z</time>
      </trkpt>
      <trkpt lat="45.56532" lon="5.55478">
        <ele>371</ele>
        <time>2023-02-14T11:09:06.688Z</time>
      </trkpt>
      <trkpt lat="45.56532" lon="5.55483">
        <ele>371</ele>
        <time>2023-02-14T11:09:07.688Z</time>
      </trkpt>
      <trkpt lat="45.56532" lon="5.55487">
        <ele>371</ele>
        <time>2023-02-14T11:09:08.688Z</time>
      </trkpt>
      <trkpt lat="45.56532" lon="5.55492">
        <ele>371</ele>
        <time>2023-02-14T11:09:09.688Z</time>
      </trkpt>
      <trkpt lat="45.56532" lon="5.55496">
        <ele>371</ele>
        <time>2023-02-14T11:09:10.688Z</time>
      </trkpt>
      <trkpt lat="45.56532" lon="5.555">
        <ele>371</ele>
        <time>2023-02-14T11:09:11.688Z</time>
      </trkpt>
      <trkpt lat="45.56532" lon="5.55505">
        <ele>371</ele>
        <time>2023-02-14T11:09:12.688Z</time>
      </trkpt>
      <trkpt lat="45.56532" lon="5.55509">
        <ele>371</ele>
        <time>2023-02-14T11:09:13.688Z</time>
      </trkpt>
      <trkpt lat="45.56533" lon="5.55513">
        <ele>371</ele>
        <time>2023-02-14T11:09:14.688Z</time>
      </trkpt>
      <trkpt lat="45.56533" lon="5.55518">
        <ele>372</ele>
        <time>2023-02-14T11:09:15.688Z</time>
      </trkpt>
      <trkpt lat="45.56533" lon="5.55522">
        <ele>372</ele>
        <time>2023-02-14T11:09:16.688Z</time>
      </trkpt>
      <trkpt lat="45.56533" lon="5.55526">
        <ele>372</ele>
        <time>2023-02-14T11:09:17.688Z</time>
      </trkpt>
      <trkpt lat="45.56533" lon="5.5553">
        <ele>372</ele>
        <time>2023-02-14T11:09:18.688Z</time>
      </trkpt>
      <trkpt lat="45.56533" lon="5.55535">
        <ele>373</ele>
        <time>2023-02-14T11:09:19.688Z</time>
      </trkpt>
      <trkpt lat="45.56532" lon="5.55539">
        <ele>373</ele>
        <time>2023-02-14T11:09:20.688Z</time>
      </trkpt>
      <trkpt lat="45.56532" lon="5.55543">
        <ele>373</ele>
        <time>2023-02-14T11:09:21.688Z</time>
      </trkpt>
      <trkpt lat="45.56531" lon="5.55548">
        <ele>373</ele>
        <time>2023-02-14T11:09:22.688Z</time>
      </trkpt>
      <trkpt lat="45.5653" lon="5.55552">
        <ele>373</ele>
        <time>2023-02-14T11:09:23.688Z</time>
      </trkpt>
      <trkpt lat="45.5653" lon="5.55557">
        <ele>373</ele>
        <time>2023-02-14T11:09:24.688Z</time>
      </trkpt>
      <trkpt lat="45.56529" lon="5.55561">
        <ele>373</ele>
        <time>2023-02-14T11:09:25.688Z</time>
      </trkpt>
      <trkpt lat="45.56528" lon="5.55565">
        <ele>372</ele>
        <time>2023-02-14T11:09:26.688Z</time>
      </trkpt>
      <trkpt lat="45.56527" lon="5.55569">
        <ele>372</ele>
        <time>2023-02-14T11:09:27.688Z</time>
      </trkpt>
      <trkpt lat="45.56525" lon="5.55573">
        <ele>372</ele>
        <time>2023-02-14T11:09:28.688Z</time>
      </trkpt>
      <trkpt lat="45.56524" lon="5.55577">
        <ele>372</ele>
        <time>2023-02-14T11:09:29.688Z</time>
      </trkpt>
      <trkpt lat="45.56523" lon="5.55581">
        <ele>372</ele>
        <time>2023-02-14T11:09:30.688Z</time>
      </trkpt>
      <trkpt lat="45.56522" lon="5.55586">
        <ele>371</ele>
        <time>2023-02-14T11:09:31.688Z</time>
      </trkpt>
      <trkpt lat="45.56521" lon="5.5559">
        <ele>371</ele>
        <time>2023-02-14T11:09:32.688Z</time>
      </trkpt>
      <trkpt lat="45.56519" lon="5.55594">
        <ele>371</ele>
        <time>2023-02-14T11:09:33.688Z</time>
      </trkpt>
      <trkpt lat="45.56518" lon="5.55599">
        <ele>371</ele>
        <time>2023-02-14T11:09:34.688Z</time>
      </trkpt>
      <trkpt lat="45.56517" lon="5.55603">
        <ele>372</ele>
        <time>2023-02-14T11:09:35.688Z</time>
      </trkpt>
      <trkpt lat="45.56516" lon="5.55608">
        <ele>371</ele>
        <time>2023-02-14T11:09:36.688Z</time>
      </trkpt>
      <trkpt lat="45.56515" lon="5.55613">
        <ele>372</ele>
        <time>2023-02-14T11:09:37.688Z</time>
      </trkpt>
      <trkpt lat="45.56514" lon="5.55618">
        <ele>371</ele>
        <time>2023-02-14T11:09:38.688Z</time>
      </trkpt>
      <trkpt lat="45.56513" lon="5.55623">
        <ele>371</ele>
        <time>2023-02-14T11:09:39.688Z</time>
      </trkpt>
      <trkpt lat="45.56512" lon="5.55628">
        <ele>371</ele>
        <time>2023-02-14T11:09:40.688Z</time>
      </trkpt>
      <trkpt lat="45.56511" lon="5.55633">
        <ele>371</ele>
        <time>2023-02-14T11:09:41.688Z</time>
      </trkpt>
      <trkpt lat="45.5651" lon="5.55638">
        <ele>370</ele>
        <time>2023-02-14T11:09:42.688Z</time>
      </trkpt>
      <trkpt lat="45.56509" lon="5.55643">
        <ele>370</ele>
        <time>2023-02-14T11:09:43.688Z</time>
      </trkpt>
      <trkpt lat="45.56507" lon="5.55649">
        <ele>371</ele>
        <time>2023-02-14T11:09:44.688Z</time>
      </trkpt>
      <trkpt lat="45.56506" lon="5.55655">
        <ele>371</ele>
        <time>2023-02-14T11:09:45.688Z</time>
      </trkpt>
      <trkpt lat="45.56505" lon="5.55661">
        <ele>371</ele>
        <time>2023-02-14T11:09:46.688Z</time>
      </trkpt>
      <trkpt lat="45.56503" lon="5.55667">
        <ele>371</ele>
        <time>2023-02-14T11:09:47.688Z</time>
      </trkpt>
      <trkpt lat="45.56502" lon="5.55672">
        <ele>371</ele>
        <time>2023-02-14T11:09:48.688Z</time>
      </trkpt>
      <trkpt lat="45.565" lon="5.55677">
        <ele>371</ele>
        <time>2023-02-14T11:09:49.688Z</time>
      </trkpt>
      <trkpt lat="45.56499" lon="5.55682">
        <ele>371</ele>
        <time>2023-02-14T11:09:50.688Z</time>
      </trkpt>
      <trkpt lat="45.56498" lon="5.55688">
        <ele>371</ele>
        <time>2023-02-14T11:09:51.688Z</time>
      </trkpt>
      <trkpt lat="45.56496" lon="5.55693">
        <ele>371</ele>
        <time>2023-02-14T11:09:52.688Z</time>
      </trkpt>
      <trkpt lat="45.56495" lon="5.55698">
        <ele>371</ele>
        <time>2023-02-14T11:09:53.688Z</time>
      </trkpt>
      <trkpt lat="45.56493" lon="5.55703">
        <ele>371</ele>
        <time>2023-02-14T11:09:54.688Z</time>
      </trkpt>
      <trkpt lat="45.56491" lon="5.55709">
        <ele>371</ele>
        <time>2023-02-14T11:09:55.688Z</time>
      </trkpt>
      <trkpt lat="45.56489" lon="5.55715">
        <ele>371</ele>
        <time>2023-02-14T11:09:56.688Z</time>
      </trkpt>
      <trkpt lat="45.56487" lon="5.5572">
        <ele>371</ele>
        <time>2023-02-14T11:09:57.688Z</time>
      </trkpt>
      <trkpt lat="45.56484" lon="5.55726">
        <ele>370</ele>
        <time>2023-02-14T11:09:58.688Z</time>
      </trkpt>
      <trkpt lat="45.56482" lon="5.55731">
        <ele>370</ele>
        <time>2023-02-14T11:09:59.688Z</time>
      </trkpt>
      <trkpt lat="45.56479" lon="5.55737">
        <ele>370</ele>
        <time>2023-02-14T11:10:00.688Z</time>
      </trkpt>
      <trkpt lat="45.56477" lon="5.55743">
        <ele>370</ele>
        <time>2023-02-14T11:10:01.688Z</time>
      </trkpt>
      <trkpt lat="45.56475" lon="5.55749">
        <ele>370</ele>
        <time>2023-02-14T11:10:02.688Z</time>
      </trkpt>
      <trkpt lat="45.56473" lon="5.55756">
        <ele>370</ele>
        <time>2023-02-14T11:10:03.688Z</time>
      </trkpt>
      <trkpt lat="45.56471" lon="5.55762">
        <ele>370</ele>
        <time>2023-02-14T11:10:04.688Z</time>
      </trkpt>
      <trkpt lat="45.56469" lon="5.55769">
        <ele>369</ele>
        <time>2023-02-14T11:10:05.688Z</time>
      </trkpt>
      <trkpt lat="45.56467" lon="5.55776">
        <ele>369</ele>
        <time>2023-02-14T11:10:06.688Z</time>
      </trkpt>
      <trkpt lat="45.56466" lon="5.55783">
        <ele>369</ele>
        <time>2023-02-14T11:10:07.688Z</time>
      </trkpt>
      <trkpt lat="45.56464" lon="5.5579">
        <ele>369</ele>
        <time>2023-02-14T11:10:08.688Z</time>
      </trkpt>
      <trkpt lat="45.56463" lon="5.55796">
        <ele>369</ele>
        <time>2023-02-14T11:10:09.688Z</time>
      </trkpt>
      <trkpt lat="45.56461" lon="5.55802">
        <ele>369</ele>
        <time>2023-02-14T11:10:10.688Z</time>
      </trkpt>
      <trkpt lat="45.56459" lon="5.55808">
        <ele>368</ele>
        <time>2023-02-14T11:10:11.688Z</time>
      </trkpt>
      <trkpt lat="45.56457" lon="5.55814">
        <ele>368</ele>
        <time>2023-02-14T11:10:12.688Z</time>
      </trkpt>
      <trkpt lat="45.56455" lon="5.55819">
        <ele>368</ele>
        <time>2023-02-14T11:10:13.688Z</time>
      </trkpt>
      <trkpt lat="45.56453" lon="5.55824">
        <ele>368</ele>
        <time>2023-02-14T11:10:14.688Z</time>
      </trkpt>
      <trkpt lat="45.56451" lon="5.5583">
        <ele>368</ele>
        <time>2023-02-14T11:10:15.688Z</time>
      </trkpt>
      <trkpt lat="45.56448" lon="5.55835">
        <ele>368</ele>
        <time>2023-02-14T11:10:16.688Z</time>
      </trkpt>
      <trkpt lat="45.56446" lon="5.5584">
        <ele>368</ele>
        <time>2023-02-14T11:10:17.688Z</time>
      </trkpt>
      <trkpt lat="45.56443" lon="5.55845">
        <ele>368</ele>
        <time>2023-02-14T11:10:18.688Z</time>
      </trkpt>
      <trkpt lat="45.56441" lon="5.55851">
        <ele>368</ele>
        <time>2023-02-14T11:10:19.688Z</time>
      </trkpt>
      <trkpt lat="45.56439" lon="5.55856">
        <ele>368</ele>
        <time>2023-02-14T11:10:20.688Z</time>
      </trkpt>
      <trkpt lat="45.56437" lon="5.55861">
        <ele>368</ele>
        <time>2023-02-14T11:10:21.688Z</time>
      </trkpt>
      <trkpt lat="45.56435" lon="5.55867">
        <ele>368</ele>
        <time>2023-02-14T11:10:22.688Z</time>
      </trkpt>
      <trkpt lat="45.56434" lon="5.55873">
        <ele>368</ele>
        <time>2023-02-14T11:10:23.688Z</time>
      </trkpt>
      <trkpt lat="45.56432" lon="5.5588">
        <ele>368</ele>
        <time>2023-02-14T11:10:24.688Z</time>
      </trkpt>
      <trkpt lat="45.56431" lon="5.55886">
        <ele>368</ele>
        <time>2023-02-14T11:10:25.688Z</time>
      </trkpt>
      <trkpt lat="45.5643" lon="5.55893">
        <ele>368</ele>
        <time>2023-02-14T11:10:26.688Z</time>
      </trkpt>
      <trkpt lat="45.56429" lon="5.55899">
        <ele>368</ele>
        <time>2023-02-14T11:10:27.688Z</time>
      </trkpt>
      <trkpt lat="45.56428" lon="5.55904">
        <ele>368</ele>
        <time>2023-02-14T11:10:28.688Z</time>
      </trkpt>
      <trkpt lat="45.56427" lon="5.5591">
        <ele>368</ele>
        <time>2023-02-14T11:10:29.688Z</time>
      </trkpt>
      <trkpt lat="45.56425" lon="5.55915">
        <ele>368</ele>
        <time>2023-02-14T11:10:30.688Z</time>
      </trkpt>
      <trkpt lat="45.56424" lon="5.5592">
        <ele>368</ele>
        <time>2023-02-14T11:10:31.688Z</time>
      </trkpt>
      <trkpt lat="45.56423" lon="5.55925">
        <ele>368</ele>
        <time>2023-02-14T11:10:32.688Z</time>
      </trkpt>
      <trkpt lat="45.56421" lon="5.55931">
        <ele>368</ele>
        <time>2023-02-14T11:10:33.688Z</time>
      </trkpt>
      <trkpt lat="45.56419" lon="5.55936">
        <ele>368</ele>
        <time>2023-02-14T11:10:34.688Z</time>
      </trkpt>
      <trkpt lat="45.56417" lon="5.55942">
        <ele>368</ele>
        <time>2023-02-14T11:10:35.688Z</time>
      </trkpt>
      <trkpt lat="45.56416" lon="5.55947">
        <ele>368</ele>
        <time>2023-02-14T11:10:36.688Z</time>
      </trkpt>
      <trkpt lat="45.56414" lon="5.55953">
        <ele>369</ele>
        <time>2023-02-14T11:10:37.688Z</time>
      </trkpt>
      <trkpt lat="45.56413" lon="5.55959">
        <ele>369</ele>
        <time>2023-02-14T11:10:38.688Z</time>
      </trkpt>
      <trkpt lat="45.56412" lon="5.55965">
        <ele>369</ele>
        <time>2023-02-14T11:10:39.688Z</time>
      </trkpt>
      <trkpt lat="45.56411" lon="5.55971">
        <ele>369</ele>
        <time>2023-02-14T11:10:40.688Z</time>
      </trkpt>
      <trkpt lat="45.5641" lon="5.55976">
        <ele>369</ele>
        <time>2023-02-14T11:10:41.688Z</time>
      </trkpt>
      <trkpt lat="45.56409" lon="5.55982">
        <ele>369</ele>
        <time>2023-02-14T11:10:42.688Z</time>
      </trkpt>
      <trkpt lat="45.56408" lon="5.55987">
        <ele>369</ele>
        <time>2023-02-14T11:10:43.688Z</time>
      </trkpt>
      <trkpt lat="45.56407" lon="5.55992">
        <ele>369</ele>
        <time>2023-02-14T11:10:44.688Z</time>
      </trkpt>
      <trkpt lat="45.56406" lon="5.55998">
        <ele>370</ele>
        <time>2023-02-14T11:10:45.688Z</time>
      </trkpt>
      <trkpt lat="45.56405" lon="5.56003">
        <ele>370</ele>
        <time>2023-02-14T11:10:46.688Z</time>
      </trkpt>
      <trkpt lat="45.56404" lon="5.56008">
        <ele>369</ele>
        <time>2023-02-14T11:10:47.688Z</time>
      </trkpt>
      <trkpt lat="45.56403" lon="5.56013">
        <ele>370</ele>
        <time>2023-02-14T11:10:48.688Z</time>
      </trkpt>
      <trkpt lat="45.56402" lon="5.56019">
        <ele>370</ele>
        <time>2023-02-14T11:10:49.688Z</time>
      </trkpt>
      <trkpt lat="45.56401" lon="5.56024">
        <ele>369</ele>
        <time>2023-02-14T11:10:50.688Z</time>
      </trkpt>
      <trkpt lat="45.56399" lon="5.5603">
        <ele>369</ele>
        <time>2023-02-14T11:10:51.688Z</time>
      </trkpt>
      <trkpt lat="45.56398" lon="5.56036">
        <ele>369</ele>
        <time>2023-02-14T11:10:52.688Z</time>
      </trkpt>
      <trkpt lat="45.56396" lon="5.56042">
        <ele>369</ele>
        <time>2023-02-14T11:10:53.688Z</time>
      </trkpt>
      <trkpt lat="45.56394" lon="5.56047">
        <ele>369</ele>
        <time>2023-02-14T11:10:54.688Z</time>
      </trkpt>
      <trkpt lat="45.56392" lon="5.56053">
        <ele>368</ele>
        <time>2023-02-14T11:10:55.688Z</time>
      </trkpt>
      <trkpt lat="45.56389" lon="5.56058">
        <ele>368</ele>
        <time>2023-02-14T11:10:56.688Z</time>
      </trkpt>
      <trkpt lat="45.56386" lon="5.56064">
        <ele>367</ele>
        <time>2023-02-14T11:10:57.688Z</time>
      </trkpt>
      <trkpt lat="45.56382" lon="5.56069">
        <ele>367</ele>
        <time>2023-02-14T11:10:58.688Z</time>
      </trkpt>
      <trkpt lat="45.56378" lon="5.56074">
        <ele>367</ele>
        <time>2023-02-14T11:10:59.688Z</time>
      </trkpt>
      <trkpt lat="45.56374" lon="5.5608">
        <ele>366</ele>
        <time>2023-02-14T11:11:00.688Z</time>
      </trkpt>
      <trkpt lat="45.5637" lon="5.56085">
        <ele>366</ele>
        <time>2023-02-14T11:11:01.688Z</time>
      </trkpt>
      <trkpt lat="45.56365" lon="5.56091">
        <ele>366</ele>
        <time>2023-02-14T11:11:02.688Z</time>
      </trkpt>
      <trkpt lat="45.56361" lon="5.56097">
        <ele>365</ele>
        <time>2023-02-14T11:11:03.688Z</time>
      </trkpt>
      <trkpt lat="45.56357" lon="5.56104">
        <ele>364</ele>
        <time>2023-02-14T11:11:04.688Z</time>
      </trkpt>
      <trkpt lat="45.56353" lon="5.56111">
        <ele>364</ele>
        <time>2023-02-14T11:11:05.688Z</time>
      </trkpt>
      <trkpt lat="45.56349" lon="5.56118">
        <ele>363</ele>
        <time>2023-02-14T11:11:06.688Z</time>
      </trkpt>
      <trkpt lat="45.56344" lon="5.56125">
        <ele>362</ele>
        <time>2023-02-14T11:11:07.688Z</time>
      </trkpt>
      <trkpt lat="45.5634" lon="5.56133">
        <ele>362</ele>
        <time>2023-02-14T11:11:08.688Z</time>
      </trkpt>
      <trkpt lat="45.56335" lon="5.5614">
        <ele>362</ele>
        <time>2023-02-14T11:11:09.688Z</time>
      </trkpt>
      <trkpt lat="45.5633" lon="5.56148">
        <ele>361</ele>
        <time>2023-02-14T11:11:10.688Z</time>
      </trkpt>
      <trkpt lat="45.56325" lon="5.56155">
        <ele>361</ele>
        <time>2023-02-14T11:11:11.688Z</time>
      </trkpt>
      <trkpt lat="45.56321" lon="5.56163">
        <ele>361</ele>
        <time>2023-02-14T11:11:12.688Z</time>
      </trkpt>
      <trkpt lat="45.56316" lon="5.56171">
        <ele>360</ele>
        <time>2023-02-14T11:11:13.688Z</time>
      </trkpt>
      <trkpt lat="45.56311" lon="5.5618">
        <ele>360</ele>
        <time>2023-02-14T11:11:14.688Z</time>
      </trkpt>
      <trkpt lat="45.56306" lon="5.56188">
        <ele>359</ele>
        <time>2023-02-14T11:11:15.688Z</time>
      </trkpt>
      <trkpt lat="45.56301" lon="5.56197">
        <ele>359</ele>
        <time>2023-02-14T11:11:16.688Z</time>
      </trkpt>
      <trkpt lat="45.56296" lon="5.56205">
        <ele>358</ele>
        <time>2023-02-14T11:11:17.688Z</time>
      </trkpt>
      <trkpt lat="45.56291" lon="5.56213">
        <ele>358</ele>
        <time>2023-02-14T11:11:18.688Z</time>
      </trkpt>
      <trkpt lat="45.56286" lon="5.56222">
        <ele>358</ele>
        <time>2023-02-14T11:11:19.688Z</time>
      </trkpt>
      <trkpt lat="45.56281" lon="5.5623">
        <ele>357</ele>
        <time>2023-02-14T11:11:20.688Z</time>
      </trkpt>
      <trkpt lat="45.56277" lon="5.56239">
        <ele>357</ele>
        <time>2023-02-14T11:11:21.688Z</time>
      </trkpt>
      <trkpt lat="45.56273" lon="5.56248">
        <ele>356</ele>
        <time>2023-02-14T11:11:22.688Z</time>
      </trkpt>
      <trkpt lat="45.56269" lon="5.56257">
        <ele>356</ele>
        <time>2023-02-14T11:11:23.688Z</time>
      </trkpt>
      <trkpt lat="45.56266" lon="5.56265">
        <ele>355</ele>
        <time>2023-02-14T11:11:24.688Z</time>
      </trkpt>
      <trkpt lat="45.56264" lon="5.56274">
        <ele>356</ele>
        <time>2023-02-14T11:11:25.688Z</time>
      </trkpt>
      <trkpt lat="45.56262" lon="5.56282">
        <ele>356</ele>
        <time>2023-02-14T11:11:26.688Z</time>
      </trkpt>
      <trkpt lat="45.5626" lon="5.5629">
        <ele>355</ele>
        <time>2023-02-14T11:11:27.688Z</time>
      </trkpt>
      <trkpt lat="45.56257" lon="5.56297">
        <ele>354</ele>
        <time>2023-02-14T11:11:28.688Z</time>
      </trkpt>
      <trkpt lat="45.56252" lon="5.56304">
        <ele>354</ele>
        <time>2023-02-14T11:11:29.688Z</time>
      </trkpt>
      <trkpt lat="45.56247" lon="5.5631">
        <ele>353</ele>
        <time>2023-02-14T11:11:30.688Z</time>
      </trkpt>
      <trkpt lat="45.56242" lon="5.56315">
        <ele>353</ele>
        <time>2023-02-14T11:11:31.688Z</time>
      </trkpt>
      <trkpt lat="45.56238" lon="5.56321">
        <ele>353</ele>
        <time>2023-02-14T11:11:32.688Z</time>
      </trkpt>
      <trkpt lat="45.56233" lon="5.56327">
        <ele>353</ele>
        <time>2023-02-14T11:11:33.688Z</time>
      </trkpt>
      <trkpt lat="45.56229" lon="5.56333">
        <ele>352</ele>
        <time>2023-02-14T11:11:34.688Z</time>
      </trkpt>
      <trkpt lat="45.56225" lon="5.56339">
        <ele>353</ele>
        <time>2023-02-14T11:11:35.688Z</time>
      </trkpt>
      <trkpt lat="45.56221" lon="5.56345">
        <ele>353</ele>
        <time>2023-02-14T11:11:36.688Z</time>
      </trkpt>
      <trkpt lat="45.56218" lon="5.5635">
        <ele>353</ele>
        <time>2023-02-14T11:11:37.688Z</time>
      </trkpt>
      <trkpt lat="45.56214" lon="5.56356">
        <ele>353</ele>
        <time>2023-02-14T11:11:38.688Z</time>
      </trkpt>
      <trkpt lat="45.56211" lon="5.5636">
        <ele>353</ele>
        <time>2023-02-14T11:11:39.688Z</time>
      </trkpt>
      <trkpt lat="45.56208" lon="5.56365">
        <ele>354</ele>
        <time>2023-02-14T11:11:40.688Z</time>
      </trkpt>
      <trkpt lat="45.56205" lon="5.56369">
        <ele>354</ele>
        <time>2023-02-14T11:11:41.688Z</time>
      </trkpt>
      <trkpt lat="45.56202" lon="5.56373">
        <ele>354</ele>
        <time>2023-02-14T11:11:42.688Z</time>
      </trkpt>
      <trkpt lat="45.562" lon="5.56377">
        <ele>354</ele>
        <time>2023-02-14T11:11:43.688Z</time>
      </trkpt>
      <trkpt lat="45.56197" lon="5.5638">
        <ele>355</ele>
        <time>2023-02-14T11:11:44.688Z</time>
      </trkpt>
      <trkpt lat="45.56195" lon="5.56383">
        <ele>355</ele>
        <time>2023-02-14T11:11:45.688Z</time>
      </trkpt>
      <trkpt lat="45.56193" lon="5.56386">
        <ele>355</ele>
        <time>2023-02-14T11:11:46.688Z</time>
      </trkpt>
      <trkpt lat="45.56191" lon="5.56389">
        <ele>356</ele>
        <time>2023-02-14T11:11:47.688Z</time>
      </trkpt>
      <trkpt lat="45.56189" lon="5.56392">
        <ele>356</ele>
        <time>2023-02-14T11:11:48.688Z</time>
      </trkpt>
      <trkpt lat="45.56187" lon="5.56395">
        <ele>356</ele>
        <time>2023-02-14T11:11:49.688Z</time>
      </trkpt>
      <trkpt lat="45.56185" lon="5.56397">
        <ele>356</ele>
        <time>2023-02-14T11:11:50.688Z</time>
      </trkpt>
      <trkpt lat="45.56183" lon="5.564">
        <ele>356</ele>
        <time>2023-02-14T11:11:51.688Z</time>
      </trkpt>
      <trkpt lat="45.56181" lon="5.56402">
        <ele>356</ele>
        <time>2023-02-14T11:11:52.688Z</time>
      </trkpt>
      <trkpt lat="45.56179" lon="5.56405">
        <ele>356</ele>
        <time>2023-02-14T11:11:53.688Z</time>
      </trkpt>
      <trkpt lat="45.56178" lon="5.56407">
        <ele>356</ele>
        <time>2023-02-14T11:11:54.688Z</time>
      </trkpt>
      <trkpt lat="45.56176" lon="5.56409">
        <ele>357</ele>
        <time>2023-02-14T11:11:55.688Z</time>
      </trkpt>
      <trkpt lat="45.56174" lon="5.56412">
        <ele>357</ele>
        <time>2023-02-14T11:11:56.688Z</time>
      </trkpt>
      <trkpt lat="45.56173" lon="5.56414">
        <ele>357</ele>
        <time>2023-02-14T11:11:57.688Z</time>
      </trkpt>
      <trkpt lat="45.56171" lon="5.56416">
        <ele>357</ele>
        <time>2023-02-14T11:11:58.688Z</time>
      </trkpt>
      <trkpt lat="45.5617" lon="5.56418">
        <ele>357</ele>
        <time>2023-02-14T11:11:59.688Z</time>
      </trkpt>
      <trkpt lat="45.56168" lon="5.5642">
        <ele>357</ele>
        <time>2023-02-14T11:12:00.688Z</time>
      </trkpt>
      <trkpt lat="45.56167" lon="5.56421">
        <ele>358</ele>
        <time>2023-02-14T11:12:01.688Z</time>
      </trkpt>
      <trkpt lat="45.56165" lon="5.56423">
        <ele>358</ele>
        <time>2023-02-14T11:12:02.688Z</time>
      </trkpt>
      <trkpt lat="45.56164" lon="5.56425">
        <ele>358</ele>
        <time>2023-02-14T11:12:03.688Z</time>
      </trkpt>
      <trkpt lat="45.56163" lon="5.56426">
        <ele>358</ele>
        <time>2023-02-14T11:12:04.688Z</time>
      </trkpt>
      <trkpt lat="45.56161" lon="5.56428">
        <ele>358</ele>
        <time>2023-02-14T11:12:05.688Z</time>
      </trkpt>
      <trkpt lat="45.5616" lon="5.56429">
        <ele>358</ele>
        <time>2023-02-14T11:12:06.688Z</time>
      </trkpt>
      <trkpt lat="45.56159" lon="5.56431">
        <ele>358</ele>
        <time>2023-02-14T11:12:07.688Z</time>
      </trkpt>
      <trkpt lat="45.56157" lon="5.56433">
        <ele>358</ele>
        <time>2023-02-14T11:12:08.688Z</time>
      </trkpt>
      <trkpt lat="45.56156" lon="5.56434">
        <ele>358</ele>
        <time>2023-02-14T11:12:09.688Z</time>
      </trkpt>
      <trkpt lat="45.56154" lon="5.56436">
        <ele>359</ele>
        <time>2023-02-14T11:12:10.688Z</time>
      </trkpt>
      <trkpt lat="45.56153" lon="5.56437">
        <ele>359</ele>
        <time>2023-02-14T11:12:11.688Z</time>
      </trkpt>
      <trkpt lat="45.56152" lon="5.56439">
        <ele>359</ele>
        <time>2023-02-14T11:12:12.688Z</time>
      </trkpt>
      <trkpt lat="45.5615" lon="5.5644">
        <ele>359</ele>
        <time>2023-02-14T11:12:13.688Z</time>
      </trkpt>
      <trkpt lat="45.56149" lon="5.56442">
        <ele>359</ele>
        <time>2023-02-14T11:12:14.688Z</time>
      </trkpt>
      <trkpt lat="45.56147" lon="5.56444">
        <ele>359</ele>
        <time>2023-02-14T11:12:15.688Z</time>
      </trkpt>
      <trkpt lat="45.56146" lon="5.56445">
        <ele>360</ele>
        <time>2023-02-14T11:12:16.688Z</time>
      </trkpt>
      <trkpt lat="45.56145" lon="5.56447">
        <ele>360</ele>
        <time>2023-02-14T11:12:17.688Z</time>
      </trkpt>
      <trkpt lat="45.56143" lon="5.56449">
        <ele>360</ele>
        <time>2023-02-14T11:12:18.688Z</time>
      </trkpt>
      <trkpt lat="45.56142" lon="5.5645">
        <ele>360</ele>
        <time>2023-02-14T11:12:19.688Z</time>
      </trkpt>
      <trkpt lat="45.5614" lon="5.56452">
        <ele>360</ele>
        <time>2023-02-14T11:12:20.688Z</time>
      </trkpt>
      <trkpt lat="45.56139" lon="5.56454">
        <ele>360</ele>
        <time>2023-02-14T11:12:21.688Z</time>
      </trkpt>
      <trkpt lat="45.56137" lon="5.56455">
        <ele>360</ele>
        <time>2023-02-14T11:12:22.688Z</time>
      </trkpt>
      <trkpt lat="45.56136" lon="5.56457">
        <ele>360</ele>
        <time>2023-02-14T11:12:23.688Z</time>
      </trkpt>
      <trkpt lat="45.56134" lon="5.56459">
        <ele>360</ele>
        <time>2023-02-14T11:12:24.688Z</time>
      </trkpt>
      <trkpt lat="45.56133" lon="5.56461">
        <ele>360</ele>
        <time>2023-02-14T11:12:25.688Z</time>
      </trkpt>
      <trkpt lat="45.56132" lon="5.56462">
        <ele>360</ele>
        <time>2023-02-14T11:12:26.688Z</time>
      </trkpt>
      <trkpt lat="45.5613" lon="5.56464">
        <ele>360</ele>
        <time>2023-02-14T11:12:27.688Z</time>
      </trkpt>
      <trkpt lat="45.56129" lon="5.56465">
        <ele>360</ele>
        <time>2023-02-14T11:12:28.688Z</time>
      </trkpt>
      <trkpt lat="45.56127" lon="5.56467">
        <ele>360</ele>
        <time>2023-02-14T11:12:29.688Z</time>
      </trkpt>
      <trkpt lat="45.56126" lon="5.56469">
        <ele>360</ele>
        <time>2023-02-14T11:12:30.688Z</time>
      </trkpt>
      <trkpt lat="45.56124" lon="5.5647">
        <ele>360</ele>
        <time>2023-02-14T11:12:31.688Z</time>
      </trkpt>
      <trkpt lat="45.56123" lon="5.56472">
        <ele>360</ele>
        <time>2023-02-14T11:12:32.688Z</time>
      </trkpt>
      <trkpt lat="45.56122" lon="5.56474">
        <ele>360</ele>
        <time>2023-02-14T11:12:33.688Z</time>
      </trkpt>
      <trkpt lat="45.5612" lon="5.56475">
        <ele>361</ele>
        <time>2023-02-14T11:12:34.688Z</time>
      </trkpt>
      <trkpt lat="45.56119" lon="5.56477">
        <ele>361</ele>
        <time>2023-02-14T11:12:35.688Z</time>
      </trkpt>
      <trkpt lat="45.56117" lon="5.56479">
        <ele>361</ele>
        <time>2023-02-14T11:12:36.688Z</time>
      </trkpt>
      <trkpt lat="45.56115" lon="5.5648">
        <ele>361</ele>
        <time>2023-02-14T11:12:37.688Z</time>
      </trkpt>
      <trkpt lat="45.56114" lon="5.56482">
        <ele>361</ele>
        <time>2023-02-14T11:12:38.688Z</time>
      </trkpt>
      <trkpt lat="45.56112" lon="5.56483">
        <ele>361</ele>
        <time>2023-02-14T11:12:39.688Z</time>
      </trkpt>
      <trkpt lat="45.56111" lon="5.56485">
        <ele>361</ele>
        <time>2023-02-14T11:12:40.688Z</time>
      </trkpt>
      <trkpt lat="45.56109" lon="5.56487">
        <ele>361</ele>
        <time>2023-02-14T11:12:41.688Z</time>
      </trkpt>
      <trkpt lat="45.56108" lon="5.56489">
        <ele>361</ele>
        <time>2023-02-14T11:12:42.688Z</time>
      </trkpt>
      <trkpt lat="45.56106" lon="5.5649">
        <ele>361</ele>
        <time>2023-02-14T11:12:43.688Z</time>
      </trkpt>
      <trkpt lat="45.56105" lon="5.56492">
        <ele>362</ele>
        <time>2023-02-14T11:12:44.688Z</time>
      </trkpt>
      <trkpt lat="45.56103" lon="5.56494">
        <ele>362</ele>
        <time>2023-02-14T11:12:45.688Z</time>
      </trkpt>
      <trkpt lat="45.56102" lon="5.56496">
        <ele>362</ele>
        <time>2023-02-14T11:12:46.688Z</time>
      </trkpt>
      <trkpt lat="45.561" lon="5.56498">
        <ele>362</ele>
        <time>2023-02-14T11:12:47.688Z</time>
      </trkpt>
      <trkpt lat="45.56098" lon="5.565">
        <ele>362</ele>
        <time>2023-02-14T11:12:48.688Z</time>
      </trkpt>
      <trkpt lat="45.56097" lon="5.56502">
        <ele>363</ele>
        <time>2023-02-14T11:12:49.688Z</time>
      </trkpt>
      <trkpt lat="45.56095" lon="5.56504">
        <ele>363</ele>
        <time>2023-02-14T11:12:50.688Z</time>
      </trkpt>
      <trkpt lat="45.56094" lon="5.56505">
        <ele>363</ele>
        <time>2023-02-14T11:12:51.688Z</time>
      </trkpt>
      <trkpt lat="45.56092" lon="5.56507">
        <ele>363</ele>
        <time>2023-02-14T11:12:52.688Z</time>
      </trkpt>
      <trkpt lat="45.56091" lon="5.56509">
        <ele>363</ele>
        <time>2023-02-14T11:12:53.688Z</time>
      </trkpt>
      <trkpt lat="45.56089" lon="5.56511">
        <ele>363</ele>
        <time>2023-02-14T11:12:54.688Z</time>
      </trkpt>
      <trkpt lat="45.56087" lon="5.56513">
        <ele>363</ele>
        <time>2023-02-14T11:12:55.688Z</time>
      </trkpt>
      <trkpt lat="45.56085" lon="5.56515">
        <ele>363</ele>
        <time>2023-02-14T11:12:56.688Z</time>
      </trkpt>
      <trkpt lat="45.56083" lon="5.56518">
        <ele>363</ele>
        <time>2023-02-14T11:12:57.688Z</time>
      </trkpt>
      <trkpt lat="45.56081" lon="5.5652">
        <ele>364</ele>
        <time>2023-02-14T11:12:58.688Z</time>
      </trkpt>
      <trkpt lat="45.56079" lon="5.56522">
        <ele>364</ele>
        <time>2023-02-14T11:12:59.688Z</time>
      </trkpt>
      <trkpt lat="45.56078" lon="5.56525">
        <ele>363</ele>
        <time>2023-02-14T11:13:00.688Z</time>
      </trkpt>
      <trkpt lat="45.56076" lon="5.56527">
        <ele>364</ele>
        <time>2023-02-14T11:13:01.688Z</time>
      </trkpt>
      <trkpt lat="45.56074" lon="5.56529">
        <ele>364</ele>
        <time>2023-02-14T11:13:02.688Z</time>
      </trkpt>
      <trkpt lat="45.56072" lon="5.56531">
        <ele>364</ele>
        <time>2023-02-14T11:13:03.688Z</time>
      </trkpt>
      <trkpt lat="45.5607" lon="5.56534">
        <ele>364</ele>
        <time>2023-02-14T11:13:04.688Z</time>
      </trkpt>
      <trkpt lat="45.56068" lon="5.56536">
        <ele>364</ele>
        <time>2023-02-14T11:13:05.688Z</time>
      </trkpt>
      <trkpt lat="45.56066" lon="5.56539">
        <ele>364</ele>
        <time>2023-02-14T11:13:06.688Z</time>
      </trkpt>
      <trkpt lat="45.56064" lon="5.56541">
        <ele>364</ele>
        <time>2023-02-14T11:13:07.688Z</time>
      </trkpt>
      <trkpt lat="45.56062" lon="5.56544">
        <ele>365</ele>
        <time>2023-02-14T11:13:08.688Z</time>
      </trkpt>
      <trkpt lat="45.5606" lon="5.56546">
        <ele>365</ele>
        <time>2023-02-14T11:13:09.688Z</time>
      </trkpt>
      <trkpt lat="45.56058" lon="5.56549">
        <ele>365</ele>
        <time>2023-02-14T11:13:10.688Z</time>
      </trkpt>
      <trkpt lat="45.56055" lon="5.56551">
        <ele>365</ele>
        <time>2023-02-14T11:13:11.688Z</time>
      </trkpt>
      <trkpt lat="45.56053" lon="5.56554">
        <ele>364</ele>
        <time>2023-02-14T11:13:12.688Z</time>
      </trkpt>
      <trkpt lat="45.5605" lon="5.56556">
        <ele>365</ele>
        <time>2023-02-14T11:13:13.688Z</time>
      </trkpt>
      <trkpt lat="45.56047" lon="5.56558">
        <ele>365</ele>
        <time>2023-02-14T11:13:14.688Z</time>
      </trkpt>
      <trkpt lat="45.56045" lon="5.5656">
        <ele>365</ele>
        <time>2023-02-14T11:13:15.688Z</time>
      </trkpt>
      <trkpt lat="45.56042" lon="5.56563">
        <ele>365</ele>
        <time>2023-02-14T11:13:16.688Z</time>
      </trkpt>
      <trkpt lat="45.5604" lon="5.56566">
        <ele>365</ele>
        <time>2023-02-14T11:13:17.688Z</time>
      </trkpt>
      <trkpt lat="45.56037" lon="5.56569">
        <ele>365</ele>
        <time>2023-02-14T11:13:18.688Z</time>
      </trkpt>
      <trkpt lat="45.56035" lon="5.56572">
        <ele>365</ele>
        <time>2023-02-14T11:13:19.688Z</time>
      </trkpt>
      <trkpt lat="45.56033" lon="5.56574">
        <ele>365</ele>
        <time>2023-02-14T11:13:20.688Z</time>
      </trkpt>
      <trkpt lat="45.5603" lon="5.56577">
        <ele>365</ele>
        <time>2023-02-14T11:13:21.688Z</time>
      </trkpt>
      <trkpt lat="45.56028" lon="5.5658">
        <ele>365</ele>
        <time>2023-02-14T11:13:22.688Z</time>
      </trkpt>
      <trkpt lat="45.56025" lon="5.56583">
        <ele>365</ele>
        <time>2023-02-14T11:13:23.688Z</time>
      </trkpt>
      <trkpt lat="45.56023" lon="5.56586">
        <ele>365</ele>
        <time>2023-02-14T11:13:24.688Z</time>
      </trkpt>
      <trkpt lat="45.5602" lon="5.56589">
        <ele>365</ele>
        <time>2023-02-14T11:13:25.688Z</time>
      </trkpt>
      <trkpt lat="45.56018" lon="5.56592">
        <ele>365</ele>
        <time>2023-02-14T11:13:26.688Z</time>
      </trkpt>
      <trkpt lat="45.56015" lon="5.56595">
        <ele>365</ele>
        <time>2023-02-14T11:13:27.688Z</time>
      </trkpt>
      <trkpt lat="45.56013" lon="5.56597">
        <ele>366</ele>
        <time>2023-02-14T11:13:28.688Z</time>
      </trkpt>
      <trkpt lat="45.5601" lon="5.566">
        <ele>366</ele>
        <time>2023-02-14T11:13:29.688Z</time>
      </trkpt>
      <trkpt lat="45.56008" lon="5.56603">
        <ele>366</ele>
        <time>2023-02-14T11:13:30.688Z</time>
      </trkpt>
      <trkpt lat="45.56005" lon="5.56606">
        <ele>366</ele>
        <time>2023-02-14T11:13:31.688Z</time>
      </trkpt>
      <trkpt lat="45.56003" lon="5.56609">
        <ele>366</ele>
        <time>2023-02-14T11:13:32.688Z</time>
      </trkpt>
      <trkpt lat="45.56" lon="5.56612">
        <ele>366</ele>
        <time>2023-02-14T11:13:33.688Z</time>
      </trkpt>
      <trkpt lat="45.55998" lon="5.56614">
        <ele>366</ele>
        <time>2023-02-14T11:13:34.688Z</time>
      </trkpt>
      <trkpt lat="45.55996" lon="5.56617">
        <ele>366</ele>
        <time>2023-02-14T11:13:35.688Z</time>
      </trkpt>
      <trkpt lat="45.55993" lon="5.5662">
        <ele>366</ele>
        <time>2023-02-14T11:13:36.688Z</time>
      </trkpt>
      <trkpt lat="45.55991" lon="5.56622">
        <ele>366</ele>
        <time>2023-02-14T11:13:37.688Z</time>
      </trkpt>
      <trkpt lat="45.55989" lon="5.56625">
        <ele>366</ele>
        <time>2023-02-14T11:13:38.688Z</time>
      </trkpt>
      <trkpt lat="45.55986" lon="5.56627">
        <ele>366</ele>
        <time>2023-02-14T11:13:39.688Z</time>
      </trkpt>
      <trkpt lat="45.55984" lon="5.56629">
        <ele>367</ele>
        <time>2023-02-14T11:13:40.688Z</time>
      </trkpt>
      <trkpt lat="45.55982" lon="5.56632">
        <ele>367</ele>
        <time>2023-02-14T11:13:41.688Z</time>
      </trkpt>
      <trkpt lat="45.55979" lon="5.56633">
        <ele>367</ele>
        <time>2023-02-14T11:13:42.688Z</time>
      </trkpt>
      <trkpt lat="45.55977" lon="5.56635">
        <ele>367</ele>
        <time>2023-02-14T11:13:43.688Z</time>
      </trkpt>
      <trkpt lat="45.55975" lon="5.56637">
        <ele>368</ele>
        <time>2023-02-14T11:13:44.688Z</time>
      </trkpt>
      <trkpt lat="45.55973" lon="5.56638">
        <ele>368</ele>
        <time>2023-02-14T11:13:45.688Z</time>
      </trkpt>
      <trkpt lat="45.5597" lon="5.5664">
        <ele>368</ele>
        <time>2023-02-14T11:13:46.688Z</time>
      </trkpt>
      <trkpt lat="45.55968" lon="5.56641">
        <ele>368</ele>
        <time>2023-02-14T11:13:47.688Z</time>
      </trkpt>
      <trkpt lat="45.55966" lon="5.56642">
        <ele>368</ele>
        <time>2023-02-14T11:13:48.688Z</time>
      </trkpt>
      <trkpt lat="45.55964" lon="5.56644">
        <ele>368</ele>
        <time>2023-02-14T11:13:49.688Z</time>
      </trkpt>
      <trkpt lat="45.55961" lon="5.56645">
        <ele>368</ele>
        <time>2023-02-14T11:13:50.688Z</time>
      </trkpt>
      <trkpt lat="45.55959" lon="5.56646">
        <ele>368</ele>
        <time>2023-02-14T11:13:51.688Z</time>
      </trkpt>
      <trkpt lat="45.55956" lon="5.56647">
        <ele>369</ele>
        <time>2023-02-14T11:13:52.688Z</time>
      </trkpt>
      <trkpt lat="45.55954" lon="5.56648">
        <ele>369</ele>
        <time>2023-02-14T11:13:53.688Z</time>
      </trkpt>
      <trkpt lat="45.55951" lon="5.5665">
        <ele>369</ele>
        <time>2023-02-14T11:13:54.688Z</time>
      </trkpt>
      <trkpt lat="45.55949" lon="5.56651">
        <ele>369</ele>
        <time>2023-02-14T11:13:55.688Z</time>
      </trkpt>
      <trkpt lat="45.55946" lon="5.56652">
        <ele>369</ele>
        <time>2023-02-14T11:13:56.688Z</time>
      </trkpt>
      <trkpt lat="45.55944" lon="5.56653">
        <ele>369</ele>
        <time>2023-02-14T11:13:57.688Z</time>
      </trkpt>
      <trkpt lat="45.55941" lon="5.56654">
        <ele>370</ele>
        <time>2023-02-14T11:13:58.688Z</time>
      </trkpt>
      <trkpt lat="45.55939" lon="5.56656">
        <ele>370</ele>
        <time>2023-02-14T11:13:59.688Z</time>
      </trkpt>
      <trkpt lat="45.55936" lon="5.56657">
        <ele>370</ele>
        <time>2023-02-14T11:14:00.688Z</time>
      </trkpt>
      <trkpt lat="45.55934" lon="5.56659">
        <ele>370</ele>
        <time>2023-02-14T11:14:01.688Z</time>
      </trkpt>
      <trkpt lat="45.55931" lon="5.5666">
        <ele>370</ele>
        <time>2023-02-14T11:14:02.688Z</time>
      </trkpt>
      <trkpt lat="45.55929" lon="5.56661">
        <ele>370</ele>
        <time>2023-02-14T11:14:03.688Z</time>
      </trkpt>
      <trkpt lat="45.55927" lon="5.56663">
        <ele>371</ele>
        <time>2023-02-14T11:14:04.688Z</time>
      </trkpt>
      <trkpt lat="45.55924" lon="5.56664">
        <ele>371</ele>
        <time>2023-02-14T11:14:05.688Z</time>
      </trkpt>
      <trkpt lat="45.55922" lon="5.56666">
        <ele>371</ele>
        <time>2023-02-14T11:14:06.688Z</time>
      </trkpt>
      <trkpt lat="45.55919" lon="5.56667">
        <ele>371</ele>
        <time>2023-02-14T11:14:07.688Z</time>
      </trkpt>
      <trkpt lat="45.55917" lon="5.56669">
        <ele>371</ele>
        <time>2023-02-14T11:14:08.688Z</time>
      </trkpt>
      <trkpt lat="45.55914" lon="5.56671">
        <ele>371</ele>
        <time>2023-02-14T11:14:09.688Z</time>
      </trkpt>
      <trkpt lat="45.55912" lon="5.56672">
        <ele>371</ele>
        <time>2023-02-14T11:14:10.688Z</time>
      </trkpt>
      <trkpt lat="45.5591" lon="5.56674">
        <ele>371</ele>
        <time>2023-02-14T11:14:11.688Z</time>
      </trkpt>
      <trkpt lat="45.55907" lon="5.56676">
        <ele>371</ele>
        <time>2023-02-14T11:14:12.688Z</time>
      </trkpt>
      <trkpt lat="45.55905" lon="5.56677">
        <ele>371</ele>
        <time>2023-02-14T11:14:13.688Z</time>
      </trkpt>
      <trkpt lat="45.55902" lon="5.56679">
        <ele>371</ele>
        <time>2023-02-14T11:14:14.688Z</time>
      </trkpt>
      <trkpt lat="45.559" lon="5.56682">
        <ele>371</ele>
        <time>2023-02-14T11:14:15.688Z</time>
      </trkpt>
      <trkpt lat="45.55897" lon="5.56684">
        <ele>371</ele>
        <time>2023-02-14T11:14:16.688Z</time>
      </trkpt>
      <trkpt lat="45.55895" lon="5.56687">
        <ele>371</ele>
        <time>2023-02-14T11:14:17.688Z</time>
      </trkpt>
      <trkpt lat="45.55893" lon="5.5669">
        <ele>371</ele>
        <time>2023-02-14T11:14:18.688Z</time>
      </trkpt>
      <trkpt lat="45.55891" lon="5.56693">
        <ele>371</ele>
        <time>2023-02-14T11:14:19.688Z</time>
      </trkpt>
      <trkpt lat="45.55889" lon="5.56696">
        <ele>371</ele>
        <time>2023-02-14T11:14:20.688Z</time>
      </trkpt>
      <trkpt lat="45.55887" lon="5.56699">
        <ele>371</ele>
        <time>2023-02-14T11:14:21.688Z</time>
      </trkpt>
      <trkpt lat="45.55885" lon="5.56702">
        <ele>371</ele>
        <time>2023-02-14T11:14:22.688Z</time>
      </trkpt>
      <trkpt lat="45.55883" lon="5.56706">
        <ele>371</ele>
        <time>2023-02-14T11:14:23.688Z</time>
      </trkpt>
      <trkpt lat="45.55881" lon="5.56709">
        <ele>371</ele>
        <time>2023-02-14T11:14:24.688Z</time>
      </trkpt>
      <trkpt lat="45.55879" lon="5.56713">
        <ele>372</ele>
        <time>2023-02-14T11:14:25.688Z</time>
      </trkpt>
      <trkpt lat="45.55878" lon="5.56717">
        <ele>371</ele>
        <time>2023-02-14T11:14:26.688Z</time>
      </trkpt>
      <trkpt lat="45.55876" lon="5.5672">
        <ele>371</ele>
        <time>2023-02-14T11:14:27.688Z</time>
      </trkpt>
      <trkpt lat="45.55874" lon="5.56724">
        <ele>371</ele>
        <time>2023-02-14T11:14:28.688Z</time>
      </trkpt>
      <trkpt lat="45.55872" lon="5.56728">
        <ele>371</ele>
        <time>2023-02-14T11:14:29.688Z</time>
      </trkpt>
      <trkpt lat="45.5587" lon="5.56732">
        <ele>371</ele>
        <time>2023-02-14T11:14:30.688Z</time>
      </trkpt>
      <trkpt lat="45.55868" lon="5.56737">
        <ele>371</ele>
        <time>2023-02-14T11:14:31.688Z</time>
      </trkpt>
      <trkpt lat="45.55866" lon="5.56741">
        <ele>371</ele>
        <time>2023-02-14T11:14:32.688Z</time>
      </trkpt>
      <trkpt lat="45.55864" lon="5.56746">
        <ele>371</ele>
        <time>2023-02-14T11:14:33.688Z</time>
      </trkpt>
      <trkpt lat="45.55862" lon="5.56751">
        <ele>371</ele>
        <time>2023-02-14T11:14:34.688Z</time>
      </trkpt>
      <trkpt lat="45.5586" lon="5.56756">
        <ele>370</ele>
        <time>2023-02-14T11:14:35.688Z</time>
      </trkpt>
      <trkpt lat="45.55858" lon="5.56761">
        <ele>371</ele>
        <time>2023-02-14T11:14:36.688Z</time>
      </trkpt>
      <trkpt lat="45.55856" lon="5.56765">
        <ele>371</ele>
        <time>2023-02-14T11:14:37.688Z</time>
      </trkpt>
      <trkpt lat="45.55853" lon="5.56769">
        <ele>371</ele>
        <time>2023-02-14T11:14:38.688Z</time>
      </trkpt>
      <trkpt lat="45.5585" lon="5.56773">
        <ele>371</ele>
        <time>2023-02-14T11:14:39.688Z</time>
      </trkpt>
      <trkpt lat="45.55847" lon="5.56776">
        <ele>371</ele>
        <time>2023-02-14T11:14:40.688Z</time>
      </trkpt>
      <trkpt lat="45.55844" lon="5.56779">
        <ele>371</ele>
        <time>2023-02-14T11:14:41.688Z</time>
      </trkpt>
      <trkpt lat="45.55841" lon="5.56781">
        <ele>371</ele>
        <time>2023-02-14T11:14:42.688Z</time>
      </trkpt>
      <trkpt lat="45.55837" lon="5.56783">
        <ele>371</ele>
        <time>2023-02-14T11:14:43.688Z</time>
      </trkpt>
      <trkpt lat="45.55834" lon="5.56785">
        <ele>371</ele>
        <time>2023-02-14T11:14:44.688Z</time>
      </trkpt>
      <trkpt lat="45.55831" lon="5.56787">
        <ele>371</ele>
        <time>2023-02-14T11:14:45.688Z</time>
      </trkpt>
      <trkpt lat="45.55827" lon="5.5679">
        <ele>372</ele>
        <time>2023-02-14T11:14:46.688Z</time>
      </trkpt>
      <trkpt lat="45.55824" lon="5.56792">
        <ele>372</ele>
        <time>2023-02-14T11:14:47.688Z</time>
      </trkpt>
      <trkpt lat="45.55821" lon="5.56795">
        <ele>372</ele>
        <time>2023-02-14T11:14:48.688Z</time>
      </trkpt>
      <trkpt lat="45.55817" lon="5.56797">
        <ele>372</ele>
        <time>2023-02-14T11:14:49.688Z</time>
      </trkpt>
      <trkpt lat="45.55814" lon="5.56799">
        <ele>372</ele>
        <time>2023-02-14T11:14:50.688Z</time>
      </trkpt>
      <trkpt lat="45.55811" lon="5.56802">
        <ele>373</ele>
        <time>2023-02-14T11:14:51.688Z</time>
      </trkpt>
      <trkpt lat="45.55807" lon="5.56804">
        <ele>373</ele>
        <time>2023-02-14T11:14:52.688Z</time>
      </trkpt>
      <trkpt lat="45.55804" lon="5.56806">
        <ele>373</ele>
        <time>2023-02-14T11:14:53.688Z</time>
      </trkpt>
      <trkpt lat="45.55801" lon="5.56807">
        <ele>373</ele>
        <time>2023-02-14T11:14:54.688Z</time>
      </trkpt>
      <trkpt lat="45.55798" lon="5.56809">
        <ele>373</ele>
        <time>2023-02-14T11:14:55.688Z</time>
      </trkpt>
      <trkpt lat="45.55795" lon="5.56811">
        <ele>373</ele>
        <time>2023-02-14T11:14:56.688Z</time>
      </trkpt>
      <trkpt lat="45.55792" lon="5.56812">
        <ele>373</ele>
        <time>2023-02-14T11:14:57.688Z</time>
      </trkpt>
      <trkpt lat="45.55788" lon="5.56814">
        <ele>373</ele>
        <time>2023-02-14T11:14:58.688Z</time>
      </trkpt>
      <trkpt lat="45.55785" lon="5.56815">
        <ele>373</ele>
        <time>2023-02-14T11:14:59.688Z</time>
      </trkpt>
      <trkpt lat="45.55782" lon="5.56816">
        <ele>374</ele>
        <time>2023-02-14T11:15:00.688Z</time>
      </trkpt>
      <trkpt lat="45.55779" lon="5.56818">
        <ele>374</ele>
        <time>2023-02-14T11:15:01.688Z</time>
      </trkpt>
      <trkpt lat="45.55776" lon="5.56819">
        <ele>374</ele>
        <time>2023-02-14T11:15:02.688Z</time>
      </trkpt>
      <trkpt lat="45.55773" lon="5.5682">
        <ele>374</ele>
        <time>2023-02-14T11:15:03.688Z</time>
      </trkpt>
      <trkpt lat="45.5577" lon="5.56821">
        <ele>374</ele>
        <time>2023-02-14T11:15:04.688Z</time>
      </trkpt>
      <trkpt lat="45.55767" lon="5.56822">
        <ele>375</ele>
        <time>2023-02-14T11:15:05.688Z</time>
      </trkpt>
      <trkpt lat="45.55764" lon="5.56823">
        <ele>375</ele>
        <time>2023-02-14T11:15:06.688Z</time>
      </trkpt>
      <trkpt lat="45.55761" lon="5.56825">
        <ele>375</ele>
        <time>2023-02-14T11:15:07.688Z</time>
      </trkpt>
      <trkpt lat="45.55758" lon="5.56826">
        <ele>375</ele>
        <time>2023-02-14T11:15:08.688Z</time>
      </trkpt>
      <trkpt lat="45.55755" lon="5.56827">
        <ele>375</ele>
        <time>2023-02-14T11:15:09.688Z</time>
      </trkpt>
      <trkpt lat="45.55752" lon="5.56829">
        <ele>375</ele>
        <time>2023-02-14T11:15:10.688Z</time>
      </trkpt>
      <trkpt lat="45.55749" lon="5.5683">
        <ele>375</ele>
        <time>2023-02-14T11:15:11.688Z</time>
      </trkpt>
      <trkpt lat="45.55746" lon="5.56832">
        <ele>375</ele>
        <time>2023-02-14T11:15:12.688Z</time>
      </trkpt>
      <trkpt lat="45.55742" lon="5.56833">
        <ele>375</ele>
        <time>2023-02-14T11:15:13.688Z</time>
      </trkpt>
      <trkpt lat="45.55739" lon="5.56834">
        <ele>375</ele>
        <time>2023-02-14T11:15:14.688Z</time>
      </trkpt>
      <trkpt lat="45.55736" lon="5.56836">
        <ele>375</ele>
        <time>2023-02-14T11:15:15.688Z</time>
      </trkpt>
      <trkpt lat="45.55733" lon="5.56837">
        <ele>375</ele>
        <time>2023-02-14T11:15:16.688Z</time>
      </trkpt>
      <trkpt lat="45.5573" lon="5.56839">
        <ele>375</ele>
        <time>2023-02-14T11:15:17.688Z</time>
      </trkpt>
      <trkpt lat="45.55727" lon="5.5684">
        <ele>376</ele>
        <time>2023-02-14T11:15:18.688Z</time>
      </trkpt>
      <trkpt lat="45.55724" lon="5.56842">
        <ele>376</ele>
        <time>2023-02-14T11:15:19.688Z</time>
      </trkpt>
      <trkpt lat="45.5572" lon="5.56843">
        <ele>376</ele>
        <time>2023-02-14T11:15:20.688Z</time>
      </trkpt>
      <trkpt lat="45.55717" lon="5.56844">
        <ele>375</ele>
        <time>2023-02-14T11:15:21.688Z</time>
      </trkpt>
      <trkpt lat="45.55714" lon="5.56846">
        <ele>376</ele>
        <time>2023-02-14T11:15:22.688Z</time>
      </trkpt>
      <trkpt lat="45.5571" lon="5.56848">
        <ele>376</ele>
        <time>2023-02-14T11:15:23.688Z</time>
      </trkpt>
      <trkpt lat="45.55707" lon="5.5685">
        <ele>376</ele>
        <time>2023-02-14T11:15:24.688Z</time>
      </trkpt>
      <trkpt lat="45.55704" lon="5.56851">
        <ele>376</ele>
        <time>2023-02-14T11:15:25.688Z</time>
      </trkpt>
      <trkpt lat="45.55701" lon="5.56853">
        <ele>376</ele>
        <time>2023-02-14T11:15:26.688Z</time>
      </trkpt>
      <trkpt lat="45.55698" lon="5.56853">
        <ele>377</ele>
        <time>2023-02-14T11:15:27.688Z</time>
      </trkpt>
      <trkpt lat="45.55695" lon="5.56854">
        <ele>377</ele>
        <time>2023-02-14T11:15:28.688Z</time>
      </trkpt>
      <trkpt lat="45.55692" lon="5.56855">
        <ele>377</ele>
        <time>2023-02-14T11:15:29.688Z</time>
      </trkpt>
      <trkpt lat="45.55689" lon="5.56856">
        <ele>377</ele>
        <time>2023-02-14T11:15:30.688Z</time>
      </trkpt>
      <trkpt lat="45.55686" lon="5.56857">
        <ele>377</ele>
        <time>2023-02-14T11:15:31.688Z</time>
      </trkpt>
      <trkpt lat="45.55683" lon="5.56859">
        <ele>377</ele>
        <time>2023-02-14T11:15:32.688Z</time>
      </trkpt>
      <trkpt lat="45.5568" lon="5.5686">
        <ele>377</ele>
        <time>2023-02-14T11:15:33.688Z</time>
      </trkpt>
      <trkpt lat="45.55677" lon="5.56861">
        <ele>377</ele>
        <time>2023-02-14T11:15:34.688Z</time>
      </trkpt>
      <trkpt lat="45.55674" lon="5.56862">
        <ele>377</ele>
        <time>2023-02-14T11:15:35.688Z</time>
      </trkpt>
      <trkpt lat="45.55671" lon="5.56863">
        <ele>377</ele>
        <time>2023-02-14T11:15:36.688Z</time>
      </trkpt>
      <trkpt lat="45.55668" lon="5.56863">
        <ele>378</ele>
        <time>2023-02-14T11:15:37.688Z</time>
      </trkpt>
      <trkpt lat="45.55666" lon="5.56864">
        <ele>378</ele>
        <time>2023-02-14T11:15:38.688Z</time>
      </trkpt>
      <trkpt lat="45.55663" lon="5.56865">
        <ele>378</ele>
        <time>2023-02-14T11:15:39.688Z</time>
      </trkpt>
      <trkpt lat="45.5566" lon="5.56866">
        <ele>378</ele>
        <time>2023-02-14T11:15:40.688Z</time>
      </trkpt>
      <trkpt lat="45.55657" lon="5.56867">
        <ele>378</ele>
        <time>2023-02-14T11:15:41.688Z</time>
      </trkpt>
      <trkpt lat="45.55654" lon="5.56867">
        <ele>378</ele>
        <time>2023-02-14T11:15:42.688Z</time>
      </trkpt>
      <trkpt lat="45.55651" lon="5.56868">
        <ele>378</ele>
        <time>2023-02-14T11:15:43.688Z</time>
      </trkpt>
      <trkpt lat="45.55648" lon="5.56869">
        <ele>379</ele>
        <time>2023-02-14T11:15:44.688Z</time>
      </trkpt>
      <trkpt lat="45.55645" lon="5.56869">
        <ele>379</ele>
        <time>2023-02-14T11:15:45.688Z</time>
      </trkpt>
      <trkpt lat="45.55643" lon="5.5687">
        <ele>379</ele>
        <time>2023-02-14T11:15:46.688Z</time>
      </trkpt>
      <trkpt lat="45.5564" lon="5.56871">
        <ele>379</ele>
        <time>2023-02-14T11:15:47.688Z</time>
      </trkpt>
      <trkpt lat="45.55637" lon="5.56872">
        <ele>379</ele>
        <time>2023-02-14T11:15:48.688Z</time>
      </trkpt>
      <trkpt lat="45.55634" lon="5.56873">
        <ele>379</ele>
        <time>2023-02-14T11:15:49.688Z</time>
      </trkpt>
      <trkpt lat="45.55631" lon="5.56873">
        <ele>379</ele>
        <time>2023-02-14T11:15:50.688Z</time>
      </trkpt>
      <trkpt lat="45.55628" lon="5.56874">
        <ele>379</ele>
        <time>2023-02-14T11:15:51.688Z</time>
      </trkpt>
      <trkpt lat="45.55625" lon="5.56874">
        <ele>379</ele>
        <time>2023-02-14T11:15:52.688Z</time>
      </trkpt>
      <trkpt lat="45.55622" lon="5.56875">
        <ele>379</ele>
        <time>2023-02-14T11:15:53.688Z</time>
      </trkpt>
      <trkpt lat="45.55619" lon="5.56876">
        <ele>379</ele>
        <time>2023-02-14T11:15:54.688Z</time>
      </trkpt>
      <trkpt lat="45.55616" lon="5.56877">
        <ele>379</ele>
        <time>2023-02-14T11:15:55.688Z</time>
      </trkpt>
      <trkpt lat="45.55613" lon="5.56877">
        <ele>379</ele>
        <time>2023-02-14T11:15:56.688Z</time>
      </trkpt>
      <trkpt lat="45.5561" lon="5.56878">
        <ele>379</ele>
        <time>2023-02-14T11:15:57.688Z</time>
      </trkpt>
      <trkpt lat="45.55607" lon="5.56878">
        <ele>379</ele>
        <time>2023-02-14T11:15:58.688Z</time>
      </trkpt>
      <trkpt lat="45.55604" lon="5.56879">
        <ele>379</ele>
        <time>2023-02-14T11:15:59.688Z</time>
      </trkpt>
      <trkpt lat="45.55601" lon="5.56879">
        <ele>379</ele>
        <time>2023-02-14T11:16:00.688Z</time>
      </trkpt>
      <trkpt lat="45.55598" lon="5.5688">
        <ele>379</ele>
        <time>2023-02-14T11:16:01.688Z</time>
      </trkpt>
      <trkpt lat="45.55595" lon="5.56881">
        <ele>379</ele>
        <time>2023-02-14T11:16:02.688Z</time>
      </trkpt>
      <trkpt lat="45.55592" lon="5.56881">
        <ele>379</ele>
        <time>2023-02-14T11:16:03.688Z</time>
      </trkpt>
      <trkpt lat="45.55589" lon="5.56882">
        <ele>379</ele>
        <time>2023-02-14T11:16:04.688Z</time>
      </trkpt>
      <trkpt lat="45.55585" lon="5.56883">
        <ele>378</ele>
        <time>2023-02-14T11:16:05.688Z</time>
      </trkpt>
      <trkpt lat="45.55582" lon="5.56884">
        <ele>378</ele>
        <time>2023-02-14T11:16:06.688Z</time>
      </trkpt>
      <trkpt lat="45.55578" lon="5.56885">
        <ele>378</ele>
        <time>2023-02-14T11:16:07.688Z</time>
      </trkpt>
      <trkpt lat="45.55575" lon="5.56886">
        <ele>378</ele>
        <time>2023-02-14T11:16:08.688Z</time>
      </trkpt>
      <trkpt lat="45.55571" lon="5.56888">
        <ele>378</ele>
        <time>2023-02-14T11:16:09.688Z</time>
      </trkpt>
      <trkpt lat="45.55567" lon="5.5689">
        <ele>377</ele>
        <time>2023-02-14T11:16:10.688Z</time>
      </trkpt>
      <trkpt lat="45.55563" lon="5.56892">
        <ele>377</ele>
        <time>2023-02-14T11:16:11.688Z</time>
      </trkpt>
      <trkpt lat="45.55558" lon="5.56894">
        <ele>377</ele>
        <time>2023-02-14T11:16:12.688Z</time>
      </trkpt>
      <trkpt lat="45.55554" lon="5.56896">
        <ele>376</ele>
        <time>2023-02-14T11:16:13.688Z</time>
      </trkpt>
      <trkpt lat="45.5555" lon="5.56898">
        <ele>376</ele>
        <time>2023-02-14T11:16:14.688Z</time>
      </trkpt>
      <trkpt lat="45.55546" lon="5.569">
        <ele>375</ele>
        <time>2023-02-14T11:16:15.688Z</time>
      </trkpt>
      <trkpt lat="45.55542" lon="5.56903">
        <ele>375</ele>
        <time>2023-02-14T11:16:16.688Z</time>
      </trkpt>
      <trkpt lat="45.55538" lon="5.56905">
        <ele>375</ele>
        <time>2023-02-14T11:16:17.688Z</time>
      </trkpt>
      <trkpt lat="45.55535" lon="5.56907">
        <ele>375</ele>
        <time>2023-02-14T11:16:18.688Z</time>
      </trkpt>
      <trkpt lat="45.55531" lon="5.56909">
        <ele>375</ele>
        <time>2023-02-14T11:16:19.688Z</time>
      </trkpt>
      <trkpt lat="45.55527" lon="5.56911">
        <ele>374</ele>
        <time>2023-02-14T11:16:20.688Z</time>
      </trkpt>
      <trkpt lat="45.55524" lon="5.56914">
        <ele>374</ele>
        <time>2023-02-14T11:16:21.688Z</time>
      </trkpt>
      <trkpt lat="45.5552" lon="5.56916">
        <ele>374</ele>
        <time>2023-02-14T11:16:22.688Z</time>
      </trkpt>
      <trkpt lat="45.55517" lon="5.56918">
        <ele>374</ele>
        <time>2023-02-14T11:16:23.688Z</time>
      </trkpt>
      <trkpt lat="45.55514" lon="5.5692">
        <ele>374</ele>
        <time>2023-02-14T11:16:24.688Z</time>
      </trkpt>
      <trkpt lat="45.55511" lon="5.56921">
        <ele>374</ele>
        <time>2023-02-14T11:16:25.688Z</time>
      </trkpt>
      <trkpt lat="45.55508" lon="5.56923">
        <ele>374</ele>
        <time>2023-02-14T11:16:26.688Z</time>
      </trkpt>
      <trkpt lat="45.55505" lon="5.56924">
        <ele>373</ele>
        <time>2023-02-14T11:16:27.688Z</time>
      </trkpt>
      <trkpt lat="45.55503" lon="5.56925">
        <ele>373</ele>
        <time>2023-02-14T11:16:28.688Z</time>
      </trkpt>
      <trkpt lat="45.555" lon="5.56926">
        <ele>373</ele>
        <time>2023-02-14T11:16:29.688Z</time>
      </trkpt>
      <trkpt lat="45.55497" lon="5.56926">
        <ele>373</ele>
        <time>2023-02-14T11:16:30.688Z</time>
      </trkpt>
      <trkpt lat="45.55494" lon="5.56926">
        <ele>373</ele>
        <time>2023-02-14T11:16:31.688Z</time>
      </trkpt>
      <trkpt lat="45.55491" lon="5.56927">
        <ele>373</ele>
        <time>2023-02-14T11:16:32.688Z</time>
      </trkpt>
      <trkpt lat="45.55488" lon="5.56928">
        <ele>373</ele>
        <time>2023-02-14T11:16:33.688Z</time>
      </trkpt>
      <trkpt lat="45.55485" lon="5.56929">
        <ele>373</ele>
        <time>2023-02-14T11:16:34.688Z</time>
      </trkpt>
      <trkpt lat="45.55482" lon="5.5693">
        <ele>373</ele>
        <time>2023-02-14T11:16:35.688Z</time>
      </trkpt>
      <trkpt lat="45.55478" lon="5.56931">
        <ele>373</ele>
        <time>2023-02-14T11:16:36.688Z</time>
      </trkpt>
      <trkpt lat="45.55475" lon="5.56931">
        <ele>373</ele>
        <time>2023-02-14T11:16:37.688Z</time>
      </trkpt>
      <trkpt lat="45.55472" lon="5.56932">
        <ele>373</ele>
        <time>2023-02-14T11:16:38.688Z</time>
      </trkpt>
      <trkpt lat="45.55468" lon="5.56932">
        <ele>372</ele>
        <time>2023-02-14T11:16:39.688Z</time>
      </trkpt>
      <trkpt lat="45.55465" lon="5.56933">
        <ele>371</ele>
        <time>2023-02-14T11:16:40.688Z</time>
      </trkpt>
      <trkpt lat="45.55462" lon="5.56932">
        <ele>370</ele>
        <time>2023-02-14T11:16:41.688Z</time>
      </trkpt>
      <trkpt lat="45.55458" lon="5.56931">
        <ele>369</ele>
        <time>2023-02-14T11:16:42.688Z</time>
      </trkpt>
      <trkpt lat="45.55454" lon="5.56929">
        <ele>368</ele>
        <time>2023-02-14T11:16:43.688Z</time>
      </trkpt>
      <trkpt lat="45.5545" lon="5.56928">
        <ele>368</ele>
        <time>2023-02-14T11:16:44.688Z</time>
      </trkpt>
      <trkpt lat="45.55445" lon="5.56928">
        <ele>369</ele>
        <time>2023-02-14T11:16:45.688Z</time>
      </trkpt>
      <trkpt lat="45.55441" lon="5.56928">
        <ele>369</ele>
        <time>2023-02-14T11:16:46.688Z</time>
      </trkpt>
      <trkpt lat="45.55438" lon="5.56929">
        <ele>368</ele>
        <time>2023-02-14T11:16:47.688Z</time>
      </trkpt>
      <trkpt lat="45.55434" lon="5.5693">
        <ele>369</ele>
        <time>2023-02-14T11:16:48.688Z</time>
      </trkpt>
      <trkpt lat="45.55431" lon="5.56932">
        <ele>369</ele>
        <time>2023-02-14T11:16:49.688Z</time>
      </trkpt>
      <trkpt lat="45.55428" lon="5.56934">
        <ele>368</ele>
        <time>2023-02-14T11:16:50.688Z</time>
      </trkpt>
      <trkpt lat="45.55426" lon="5.56935">
        <ele>368</ele>
        <time>2023-02-14T11:16:51.688Z</time>
      </trkpt>
      <trkpt lat="45.55424" lon="5.56937">
        <ele>368</ele>
        <time>2023-02-14T11:16:52.688Z</time>
      </trkpt>
      <trkpt lat="45.55423" lon="5.56939">
        <ele>368</ele>
        <time>2023-02-14T11:16:53.688Z</time>
      </trkpt>
      <trkpt lat="45.55421" lon="5.56941">
        <ele>368</ele>
        <time>2023-02-14T11:16:54.688Z</time>
      </trkpt>
      <trkpt lat="45.55419" lon="5.56943">
        <ele>369</ele>
        <time>2023-02-14T11:16:55.688Z</time>
      </trkpt>
      <trkpt lat="45.55417" lon="5.56946">
        <ele>370</ele>
        <time>2023-02-14T11:16:56.688Z</time>
      </trkpt>
      <trkpt lat="45.55416" lon="5.56948">
        <ele>370</ele>
        <time>2023-02-14T11:16:57.688Z</time>
      </trkpt>
      <trkpt lat="45.55414" lon="5.5695">
        <ele>370</ele>
        <time>2023-02-14T11:16:58.688Z</time>
      </trkpt>
      <trkpt lat="45.55413" lon="5.56952">
        <ele>370</ele>
        <time>2023-02-14T11:16:59.688Z</time>
      </trkpt>
      <trkpt lat="45.55411" lon="5.56953">
        <ele>370</ele>
        <time>2023-02-14T11:17:00.688Z</time>
      </trkpt>
      <trkpt lat="45.55409" lon="5.56955">
        <ele>370</ele>
        <time>2023-02-14T11:17:01.688Z</time>
      </trkpt>
      <trkpt lat="45.55408" lon="5.56957">
        <ele>370</ele>
        <time>2023-02-14T11:17:02.688Z</time>
      </trkpt>
      <trkpt lat="45.55407" lon="5.56958">
        <ele>370</ele>
        <time>2023-02-14T11:17:03.688Z</time>
      </trkpt>
      <trkpt lat="45.55406" lon="5.5696">
        <ele>370</ele>
        <time>2023-02-14T11:17:04.688Z</time>
      </trkpt>
      <trkpt lat="45.55404" lon="5.56962">
        <ele>370</ele>
        <time>2023-02-14T11:17:05.688Z</time>
      </trkpt>
      <trkpt lat="45.55403" lon="5.56964">
        <ele>370</ele>
        <time>2023-02-14T11:17:06.688Z</time>
      </trkpt>
      <trkpt lat="45.55401" lon="5.56965">
        <ele>370</ele>
        <time>2023-02-14T11:17:07.688Z</time>
      </trkpt>
      <trkpt lat="45.554" lon="5.56968">
        <ele>370</ele>
        <time>2023-02-14T11:17:08.688Z</time>
      </trkpt>
      <trkpt lat="45.55398" lon="5.5697">
        <ele>372</ele>
        <time>2023-02-14T11:17:09.688Z</time>
      </trkpt>
      <trkpt lat="45.55396" lon="5.56973">
        <ele>372</ele>
        <time>2023-02-14T11:17:10.688Z</time>
      </trkpt>
      <trkpt lat="45.55393" lon="5.56976">
        <ele>372</ele>
        <time>2023-02-14T11:17:11.688Z</time>
      </trkpt>
      <trkpt lat="45.55391" lon="5.56979">
        <ele>371</ele>
        <time>2023-02-14T11:17:12.688Z</time>
      </trkpt>
      <trkpt lat="45.55388" lon="5.56982">
        <ele>371</ele>
        <time>2023-02-14T11:17:13.688Z</time>
      </trkpt>
      <trkpt lat="45.55386" lon="5.56984">
        <ele>372</ele>
        <time>2023-02-14T11:17:14.688Z</time>
      </trkpt>
      <trkpt lat="45.55383" lon="5.56987">
        <ele>372</ele>
        <time>2023-02-14T11:17:15.688Z</time>
      </trkpt>
      <trkpt lat="45.5538" lon="5.56989">
        <ele>372</ele>
        <time>2023-02-14T11:17:16.688Z</time>
      </trkpt>
      <trkpt lat="45.55377" lon="5.56992">
        <ele>373</ele>
        <time>2023-02-14T11:17:17.688Z</time>
      </trkpt>
      <trkpt lat="45.55375" lon="5.56994">
        <ele>373</ele>
        <time>2023-02-14T11:17:18.688Z</time>
      </trkpt>
      <trkpt lat="45.55372" lon="5.56997">
        <ele>374</ele>
        <time>2023-02-14T11:17:19.688Z</time>
      </trkpt>
      <trkpt lat="45.5537" lon="5.56999">
        <ele>375</ele>
        <time>2023-02-14T11:17:20.688Z</time>
      </trkpt>
      <trkpt lat="45.55368" lon="5.57002">
        <ele>375</ele>
        <time>2023-02-14T11:17:21.688Z</time>
      </trkpt>
      <trkpt lat="45.55365" lon="5.57004">
        <ele>376</ele>
        <time>2023-02-14T11:17:22.688Z</time>
      </trkpt>
      <trkpt lat="45.55363" lon="5.57007">
        <ele>376</ele>
        <time>2023-02-14T11:17:23.688Z</time>
      </trkpt>
      <trkpt lat="45.5536" lon="5.57009">
        <ele>376</ele>
        <time>2023-02-14T11:17:24.688Z</time>
      </trkpt>
      <trkpt lat="45.55358" lon="5.57012">
        <ele>376</ele>
        <time>2023-02-14T11:17:25.688Z</time>
      </trkpt>
      <trkpt lat="45.55356" lon="5.57014">
        <ele>376</ele>
        <time>2023-02-14T11:17:26.688Z</time>
      </trkpt>
      <trkpt lat="45.55353" lon="5.57017">
        <ele>376</ele>
        <time>2023-02-14T11:17:27.688Z</time>
      </trkpt>
      <trkpt lat="45.5535" lon="5.57019">
        <ele>376</ele>
        <time>2023-02-14T11:17:28.688Z</time>
      </trkpt>
      <trkpt lat="45.55347" lon="5.57021">
        <ele>376</ele>
        <time>2023-02-14T11:17:29.688Z</time>
      </trkpt>
      <trkpt lat="45.55345" lon="5.57023">
        <ele>376</ele>
        <time>2023-02-14T11:17:30.688Z</time>
      </trkpt>
      <trkpt lat="45.55342" lon="5.57025">
        <ele>377</ele>
        <time>2023-02-14T11:17:31.688Z</time>
      </trkpt>
      <trkpt lat="45.55339" lon="5.57028">
        <ele>377</ele>
        <time>2023-02-14T11:17:32.688Z</time>
      </trkpt>
      <trkpt lat="45.55336" lon="5.5703">
        <ele>377</ele>
        <time>2023-02-14T11:17:33.688Z</time>
      </trkpt>
      <trkpt lat="45.55333" lon="5.57033">
        <ele>377</ele>
        <time>2023-02-14T11:17:34.688Z</time>
      </trkpt>
      <trkpt lat="45.55331" lon="5.57035">
        <ele>377</ele>
        <time>2023-02-14T11:17:35.688Z</time>
      </trkpt>
      <trkpt lat="45.55328" lon="5.57038">
        <ele>377</ele>
        <time>2023-02-14T11:17:36.688Z</time>
      </trkpt>
      <trkpt lat="45.55325" lon="5.57041">
        <ele>377</ele>
        <time>2023-02-14T11:17:37.688Z</time>
      </trkpt>
      <trkpt lat="45.55322" lon="5.57043">
        <ele>377</ele>
        <time>2023-02-14T11:17:38.688Z</time>
      </trkpt>
      <trkpt lat="45.55319" lon="5.57046">
        <ele>377</ele>
        <time>2023-02-14T11:17:39.688Z</time>
      </trkpt>
      <trkpt lat="45.55316" lon="5.57048">
        <ele>377</ele>
        <time>2023-02-14T11:17:40.688Z</time>
      </trkpt>
      <trkpt lat="45.55313" lon="5.5705">
        <ele>378</ele>
        <time>2023-02-14T11:17:41.688Z</time>
      </trkpt>
      <trkpt lat="45.5531" lon="5.57053">
        <ele>378</ele>
        <time>2023-02-14T11:17:42.688Z</time>
      </trkpt>
      <trkpt lat="45.55307" lon="5.57055">
        <ele>378</ele>
        <time>2023-02-14T11:17:43.688Z</time>
      </trkpt>
      <trkpt lat="45.55304" lon="5.57057">
        <ele>378</ele>
        <time>2023-02-14T11:17:44.688Z</time>
      </trkpt>
      <trkpt lat="45.55301" lon="5.57059">
        <ele>378</ele>
        <time>2023-02-14T11:17:45.688Z</time>
      </trkpt>
      <trkpt lat="45.55298" lon="5.57061">
        <ele>378</ele>
        <time>2023-02-14T11:17:46.688Z</time>
      </trkpt>
      <trkpt lat="45.55295" lon="5.57064">
        <ele>378</ele>
        <time>2023-02-14T11:17:47.688Z</time>
      </trkpt>
      <trkpt lat="45.55292" lon="5.57067">
        <ele>377</ele>
        <time>2023-02-14T11:17:48.688Z</time>
      </trkpt>
      <trkpt lat="45.5529" lon="5.5707">
        <ele>377</ele>
        <time>2023-02-14T11:17:49.688Z</time>
      </trkpt>
      <trkpt lat="45.55287" lon="5.57073">
        <ele>376</ele>
        <time>2023-02-14T11:17:50.688Z</time>
      </trkpt>
      <trkpt lat="45.55285" lon="5.57077">
        <ele>376</ele>
        <time>2023-02-14T11:17:51.688Z</time>
      </trkpt>
      <trkpt lat="45.55283" lon="5.57082">
        <ele>376</ele>
        <time>2023-02-14T11:17:52.688Z</time>
      </trkpt>
      <trkpt lat="45.55281" lon="5.57087">
        <ele>375</ele>
        <time>2023-02-14T11:17:53.688Z</time>
      </trkpt>
      <trkpt lat="45.55279" lon="5.57092">
        <ele>376</ele>
        <time>2023-02-14T11:17:54.688Z</time>
      </trkpt>
      <trkpt lat="45.55277" lon="5.57097">
        <ele>376</ele>
        <time>2023-02-14T11:17:55.688Z</time>
      </trkpt>
      <trkpt lat="45.55275" lon="5.57101">
        <ele>376</ele>
        <time>2023-02-14T11:17:56.688Z</time>
      </trkpt>
      <trkpt lat="45.55273" lon="5.57105">
        <ele>376</ele>
        <time>2023-02-14T11:17:57.688Z</time>
      </trkpt>
      <trkpt lat="45.55271" lon="5.5711">
        <ele>376</ele>
        <time>2023-02-14T11:17:58.688Z</time>
      </trkpt>
      <trkpt lat="45.55269" lon="5.57115">
        <ele>376</ele>
        <time>2023-02-14T11:17:59.688Z</time>
      </trkpt>
      <trkpt lat="45.55267" lon="5.57119">
        <ele>376</ele>
        <time>2023-02-14T11:18:00.688Z</time>
      </trkpt>
      <trkpt lat="45.55265" lon="5.57124">
        <ele>375</ele>
        <time>2023-02-14T11:18:01.688Z</time>
      </trkpt>
      <trkpt lat="45.55263" lon="5.5713">
        <ele>375</ele>
        <time>2023-02-14T11:18:02.688Z</time>
      </trkpt>
      <trkpt lat="45.55261" lon="5.57135">
        <ele>375</ele>
        <time>2023-02-14T11:18:03.688Z</time>
      </trkpt>
      <trkpt lat="45.5526" lon="5.57141">
        <ele>375</ele>
        <time>2023-02-14T11:18:04.688Z</time>
      </trkpt>
      <trkpt lat="45.55259" lon="5.57146">
        <ele>375</ele>
        <time>2023-02-14T11:18:05.688Z</time>
      </trkpt>
      <trkpt lat="45.55258" lon="5.57152">
        <ele>375</ele>
        <time>2023-02-14T11:18:06.688Z</time>
      </trkpt>
      <trkpt lat="45.55257" lon="5.57158">
        <ele>375</ele>
        <time>2023-02-14T11:18:07.688Z</time>
      </trkpt>
      <trkpt lat="45.55256" lon="5.57164">
        <ele>375</ele>
        <time>2023-02-14T11:18:08.688Z</time>
      </trkpt>
      <trkpt lat="45.55256" lon="5.5717">
        <ele>375</ele>
        <time>2023-02-14T11:18:09.688Z</time>
      </trkpt>
      <trkpt lat="45.55255" lon="5.57175">
        <ele>376</ele>
        <time>2023-02-14T11:18:10.688Z</time>
      </trkpt>
      <trkpt lat="45.55254" lon="5.57181">
        <ele>376</ele>
        <time>2023-02-14T11:18:11.688Z</time>
      </trkpt>
      <trkpt lat="45.55254" lon="5.57187">
        <ele>376</ele>
        <time>2023-02-14T11:18:12.688Z</time>
      </trkpt>
      <trkpt lat="45.55253" lon="5.57193">
        <ele>376</ele>
        <time>2023-02-14T11:18:13.688Z</time>
      </trkpt>
      <trkpt lat="45.55252" lon="5.57199">
        <ele>376</ele>
        <time>2023-02-14T11:18:14.688Z</time>
      </trkpt>
      <trkpt lat="45.55252" lon="5.57205">
        <ele>376</ele>
        <time>2023-02-14T11:18:15.688Z</time>
      </trkpt>
      <trkpt lat="45.55251" lon="5.57211">
        <ele>376</ele>
        <time>2023-02-14T11:18:16.688Z</time>
      </trkpt>
      <trkpt lat="45.5525" lon="5.57217">
        <ele>376</ele>
        <time>2023-02-14T11:18:17.688Z</time>
      </trkpt>
      <trkpt lat="45.55249" lon="5.57223">
        <ele>376</ele>
        <time>2023-02-14T11:18:18.688Z</time>
      </trkpt>
      <trkpt lat="45.55249" lon="5.57228">
        <ele>376</ele>
        <time>2023-02-14T11:18:19.688Z</time>
      </trkpt>
      <trkpt lat="45.55248" lon="5.57234">
        <ele>376</ele>
        <time>2023-02-14T11:18:20.688Z</time>
      </trkpt>
      <trkpt lat="45.55248" lon="5.5724">
        <ele>376</ele>
        <time>2023-02-14T11:18:21.688Z</time>
      </trkpt>
      <trkpt lat="45.55248" lon="5.57246">
        <ele>376</ele>
        <time>2023-02-14T11:18:22.688Z</time>
      </trkpt>
      <trkpt lat="45.55247" lon="5.57251">
        <ele>376</ele>
        <time>2023-02-14T11:18:23.688Z</time>
      </trkpt>
      <trkpt lat="45.55247" lon="5.57257">
        <ele>376</ele>
        <time>2023-02-14T11:18:24.688Z</time>
      </trkpt>
      <trkpt lat="45.55247" lon="5.57263">
        <ele>376</ele>
        <time>2023-02-14T11:18:25.688Z</time>
      </trkpt>
      <trkpt lat="45.55247" lon="5.57268">
        <ele>376</ele>
        <time>2023-02-14T11:18:26.688Z</time>
      </trkpt>
      <trkpt lat="45.55247" lon="5.57274">
        <ele>376</ele>
        <time>2023-02-14T11:18:27.688Z</time>
      </trkpt>
      <trkpt lat="45.55247" lon="5.5728">
        <ele>376</ele>
        <time>2023-02-14T11:18:28.688Z</time>
      </trkpt>
      <trkpt lat="45.55247" lon="5.57285">
        <ele>376</ele>
        <time>2023-02-14T11:18:29.688Z</time>
      </trkpt>
      <trkpt lat="45.55247" lon="5.5729">
        <ele>376</ele>
        <time>2023-02-14T11:18:30.688Z</time>
      </trkpt>
      <trkpt lat="45.55247" lon="5.57294">
        <ele>376</ele>
        <time>2023-02-14T11:18:31.688Z</time>
      </trkpt>
      <trkpt lat="45.55248" lon="5.57299">
        <ele>376</ele>
        <time>2023-02-14T11:18:32.688Z</time>
      </trkpt>
      <trkpt lat="45.55248" lon="5.57303">
        <ele>376</ele>
        <time>2023-02-14T11:18:33.688Z</time>
      </trkpt>
      <trkpt lat="45.55248" lon="5.57308">
        <ele>376</ele>
        <time>2023-02-14T11:18:34.688Z</time>
      </trkpt>
      <trkpt lat="45.55248" lon="5.57313">
        <ele>377</ele>
        <time>2023-02-14T11:18:35.688Z</time>
      </trkpt>
      <trkpt lat="45.55249" lon="5.57318">
        <ele>376</ele>
        <time>2023-02-14T11:18:36.688Z</time>
      </trkpt>
      <trkpt lat="45.55249" lon="5.57322">
        <ele>377</ele>
        <time>2023-02-14T11:18:37.688Z</time>
      </trkpt>
      <trkpt lat="45.5525" lon="5.57327">
        <ele>377</ele>
        <time>2023-02-14T11:18:38.688Z</time>
      </trkpt>
      <trkpt lat="45.55251" lon="5.57332">
        <ele>377</ele>
        <time>2023-02-14T11:18:39.688Z</time>
      </trkpt>
      <trkpt lat="45.55252" lon="5.57337">
        <ele>377</ele>
        <time>2023-02-14T11:18:40.688Z</time>
      </trkpt>
      <trkpt lat="45.55253" lon="5.57342">
        <ele>377</ele>
        <time>2023-02-14T11:18:41.688Z</time>
      </trkpt>
      <trkpt lat="45.55255" lon="5.57346">
        <ele>377</ele>
        <time>2023-02-14T11:18:42.688Z</time>
      </trkpt>
      <trkpt lat="45.55256" lon="5.57351">
        <ele>377</ele>
        <time>2023-02-14T11:18:43.688Z</time>
      </trkpt>
      <trkpt lat="45.55257" lon="5.57355">
        <ele>377</ele>
        <time>2023-02-14T11:18:44.688Z</time>
      </trkpt>
      <trkpt lat="45.55259" lon="5.5736">
        <ele>377</ele>
        <time>2023-02-14T11:18:45.688Z</time>
      </trkpt>
      <trkpt lat="45.5526" lon="5.57364">
        <ele>376</ele>
        <time>2023-02-14T11:18:46.688Z</time>
      </trkpt>
      <trkpt lat="45.55261" lon="5.57369">
        <ele>376</ele>
        <time>2023-02-14T11:18:47.688Z</time>
      </trkpt>
      <trkpt lat="45.55262" lon="5.57374">
        <ele>376</ele>
        <time>2023-02-14T11:18:48.688Z</time>
      </trkpt>
      <trkpt lat="45.55263" lon="5.57378">
        <ele>375</ele>
        <time>2023-02-14T11:18:49.688Z</time>
      </trkpt>
      <trkpt lat="45.55265" lon="5.57383">
        <ele>375</ele>
        <time>2023-02-14T11:18:50.688Z</time>
      </trkpt>
      <trkpt lat="45.55266" lon="5.57388">
        <ele>376</ele>
        <time>2023-02-14T11:18:51.688Z</time>
      </trkpt>
      <trkpt lat="45.55268" lon="5.57393">
        <ele>376</ele>
        <time>2023-02-14T11:18:52.688Z</time>
      </trkpt>
      <trkpt lat="45.5527" lon="5.57397">
        <ele>376</ele>
        <time>2023-02-14T11:18:53.688Z</time>
      </trkpt>
      <trkpt lat="45.55272" lon="5.57402">
        <ele>376</ele>
        <time>2023-02-14T11:18:54.688Z</time>
      </trkpt>
      <trkpt lat="45.55274" lon="5.57407">
        <ele>376</ele>
        <time>2023-02-14T11:18:55.688Z</time>
      </trkpt>
      <trkpt lat="45.55276" lon="5.57412">
        <ele>377</ele>
        <time>2023-02-14T11:18:56.688Z</time>
      </trkpt>
      <trkpt lat="45.55278" lon="5.57417">
        <ele>377</ele>
        <time>2023-02-14T11:18:57.688Z</time>
      </trkpt>
      <trkpt lat="45.55279" lon="5.57422">
        <ele>377</ele>
        <time>2023-02-14T11:18:58.688Z</time>
      </trkpt>
      <trkpt lat="45.55281" lon="5.57427">
        <ele>377</ele>
        <time>2023-02-14T11:18:59.688Z</time>
      </trkpt>
      <trkpt lat="45.55283" lon="5.57432">
        <ele>377</ele>
        <time>2023-02-14T11:19:00.688Z</time>
      </trkpt>
      <trkpt lat="45.55285" lon="5.57437">
        <ele>377</ele>
        <time>2023-02-14T11:19:01.688Z</time>
      </trkpt>
      <trkpt lat="45.55286" lon="5.57442">
        <ele>377</ele>
        <time>2023-02-14T11:19:02.688Z</time>
      </trkpt>
      <trkpt lat="45.55288" lon="5.57447">
        <ele>377</ele>
        <time>2023-02-14T11:19:03.688Z</time>
      </trkpt>
      <trkpt lat="45.55289" lon="5.57452">
        <ele>377</ele>
        <time>2023-02-14T11:19:04.688Z</time>
      </trkpt>
      <trkpt lat="45.55291" lon="5.57458">
        <ele>377</ele>
        <time>2023-02-14T11:19:05.688Z</time>
      </trkpt>
      <trkpt lat="45.55292" lon="5.57463">
        <ele>377</ele>
        <time>2023-02-14T11:19:06.688Z</time>
      </trkpt>
      <trkpt lat="45.55292" lon="5.57469">
        <ele>377</ele>
        <time>2023-02-14T11:19:07.688Z</time>
      </trkpt>
      <trkpt lat="45.55293" lon="5.57475">
        <ele>377</ele>
        <time>2023-02-14T11:19:08.688Z</time>
      </trkpt>
      <trkpt lat="45.55293" lon="5.5748">
        <ele>377</ele>
        <time>2023-02-14T11:19:09.688Z</time>
      </trkpt>
      <trkpt lat="45.55293" lon="5.57486">
        <ele>377</ele>
        <time>2023-02-14T11:19:10.688Z</time>
      </trkpt>
      <trkpt lat="45.55293" lon="5.57492">
        <ele>377</ele>
        <time>2023-02-14T11:19:11.688Z</time>
      </trkpt>
      <trkpt lat="45.55293" lon="5.57498">
        <ele>377</ele>
        <time>2023-02-14T11:19:12.688Z</time>
      </trkpt>
      <trkpt lat="45.55293" lon="5.57504">
        <ele>377</ele>
        <time>2023-02-14T11:19:13.688Z</time>
      </trkpt>
      <trkpt lat="45.55293" lon="5.57509">
        <ele>378</ele>
        <time>2023-02-14T11:19:14.688Z</time>
      </trkpt>
      <trkpt lat="45.55293" lon="5.57515">
        <ele>378</ele>
        <time>2023-02-14T11:19:15.688Z</time>
      </trkpt>
      <trkpt lat="45.55293" lon="5.5752">
        <ele>378</ele>
        <time>2023-02-14T11:19:16.688Z</time>
      </trkpt>
      <trkpt lat="45.55292" lon="5.57526">
        <ele>378</ele>
        <time>2023-02-14T11:19:17.688Z</time>
      </trkpt>
      <trkpt lat="45.55292" lon="5.57531">
        <ele>378</ele>
        <time>2023-02-14T11:19:18.688Z</time>
      </trkpt>
      <trkpt lat="45.55291" lon="5.57537">
        <ele>378</ele>
        <time>2023-02-14T11:19:19.688Z</time>
      </trkpt>
      <trkpt lat="45.55291" lon="5.57543">
        <ele>378</ele>
        <time>2023-02-14T11:19:20.688Z</time>
      </trkpt>
      <trkpt lat="45.5529" lon="5.57548">
        <ele>378</ele>
        <time>2023-02-14T11:19:21.688Z</time>
      </trkpt>
      <trkpt lat="45.5529" lon="5.57554">
        <ele>378</ele>
        <time>2023-02-14T11:19:22.688Z</time>
      </trkpt>
      <trkpt lat="45.5529" lon="5.5756">
        <ele>378</ele>
        <time>2023-02-14T11:19:23.688Z</time>
      </trkpt>
      <trkpt lat="45.55289" lon="5.57566">
        <ele>378</ele>
        <time>2023-02-14T11:19:24.688Z</time>
      </trkpt>
      <trkpt lat="45.55289" lon="5.57572">
        <ele>378</ele>
        <time>2023-02-14T11:19:25.688Z</time>
      </trkpt>
      <trkpt lat="45.55288" lon="5.57577">
        <ele>378</ele>
        <time>2023-02-14T11:19:26.688Z</time>
      </trkpt>
      <trkpt lat="45.55288" lon="5.57583">
        <ele>378</ele>
        <time>2023-02-14T11:19:27.688Z</time>
      </trkpt>
      <trkpt lat="45.55288" lon="5.57589">
        <ele>378</ele>
        <time>2023-02-14T11:19:28.688Z</time>
      </trkpt>
      <trkpt lat="45.55287" lon="5.57595">
        <ele>378</ele>
        <time>2023-02-14T11:19:29.688Z</time>
      </trkpt>
      <trkpt lat="45.55286" lon="5.57602">
        <ele>378</ele>
        <time>2023-02-14T11:19:30.688Z</time>
      </trkpt>
      <trkpt lat="45.55286" lon="5.57608">
        <ele>378</ele>
        <time>2023-02-14T11:19:31.688Z</time>
      </trkpt>
      <trkpt lat="45.55285" lon="5.57614">
        <ele>377</ele>
        <time>2023-02-14T11:19:32.688Z</time>
      </trkpt>
      <trkpt lat="45.55284" lon="5.57621">
        <ele>377</ele>
        <time>2023-02-14T11:19:33.688Z</time>
      </trkpt>
      <trkpt lat="45.55284" lon="5.57627">
        <ele>377</ele>
        <time>2023-02-14T11:19:34.688Z</time>
      </trkpt>
      <trkpt lat="45.55283" lon="5.57633">
        <ele>377</ele>
        <time>2023-02-14T11:19:35.688Z</time>
      </trkpt>
      <trkpt lat="45.55282" lon="5.57639">
        <ele>377</ele>
        <time>2023-02-14T11:19:36.688Z</time>
      </trkpt>
      <trkpt lat="45.55281" lon="5.57646">
        <ele>377</ele>
        <time>2023-02-14T11:19:37.688Z</time>
      </trkpt>
      <trkpt lat="45.55281" lon="5.57652">
        <ele>377</ele>
        <time>2023-02-14T11:19:38.688Z</time>
      </trkpt>
      <trkpt lat="45.5528" lon="5.57658">
        <ele>377</ele>
        <time>2023-02-14T11:19:39.688Z</time>
      </trkpt>
      <trkpt lat="45.55279" lon="5.57664">
        <ele>377</ele>
        <time>2023-02-14T11:19:40.688Z</time>
      </trkpt>
      <trkpt lat="45.55278" lon="5.5767">
        <ele>377</ele>
        <time>2023-02-14T11:19:41.688Z</time>
      </trkpt>
      <trkpt lat="45.55278" lon="5.57676">
        <ele>377</ele>
        <time>2023-02-14T11:19:42.688Z</time>
      </trkpt>
      <trkpt lat="45.55277" lon="5.57682">
        <ele>376</ele>
        <time>2023-02-14T11:19:43.688Z</time>
      </trkpt>
      <trkpt lat="45.55276" lon="5.57689">
        <ele>376</ele>
        <time>2023-02-14T11:19:44.688Z</time>
      </trkpt>
      <trkpt lat="45.55276" lon="5.57695">
        <ele>376</ele>
        <time>2023-02-14T11:19:45.688Z</time>
      </trkpt>
      <trkpt lat="45.55275" lon="5.57701">
        <ele>376</ele>
        <time>2023-02-14T11:19:46.688Z</time>
      </trkpt>
      <trkpt lat="45.55274" lon="5.57707">
        <ele>376</ele>
        <time>2023-02-14T11:19:47.688Z</time>
      </trkpt>
      <trkpt lat="45.55274" lon="5.57714">
        <ele>376</ele>
        <time>2023-02-14T11:19:48.688Z</time>
      </trkpt>
      <trkpt lat="45.55273" lon="5.57721">
        <ele>376</ele>
        <time>2023-02-14T11:19:49.688Z</time>
      </trkpt>
      <trkpt lat="45.55272" lon="5.57727">
        <ele>376</ele>
        <time>2023-02-14T11:19:50.688Z</time>
      </trkpt>
      <trkpt lat="45.55271" lon="5.57734">
        <ele>376</ele>
        <time>2023-02-14T11:19:51.688Z</time>
      </trkpt>
      <trkpt lat="45.5527" lon="5.57741">
        <ele>376</ele>
        <time>2023-02-14T11:19:52.688Z</time>
      </trkpt>
      <trkpt lat="45.5527" lon="5.57748">
        <ele>376</ele>
        <time>2023-02-14T11:19:53.688Z</time>
      </trkpt>
      <trkpt lat="45.55269" lon="5.57755">
        <ele>376</ele>
        <time>2023-02-14T11:19:54.688Z</time>
      </trkpt>
      <trkpt lat="45.55268" lon="5.57762">
        <ele>376</ele>
        <time>2023-02-14T11:19:55.688Z</time>
      </trkpt>
      <trkpt lat="45.55268" lon="5.57769">
        <ele>376</ele>
        <time>2023-02-14T11:19:56.688Z</time>
      </trkpt>
      <trkpt lat="45.55267" lon="5.57776">
        <ele>376</ele>
        <time>2023-02-14T11:19:57.688Z</time>
      </trkpt>
      <trkpt lat="45.55267" lon="5.57783">
        <ele>376</ele>
        <time>2023-02-14T11:19:58.688Z</time>
      </trkpt>
      <trkpt lat="45.55266" lon="5.5779">
        <ele>376</ele>
        <time>2023-02-14T11:19:59.688Z</time>
      </trkpt>
      <trkpt lat="45.55266" lon="5.57797">
        <ele>376</ele>
        <time>2023-02-14T11:20:00.688Z</time>
      </trkpt>
      <trkpt lat="45.55266" lon="5.57804">
        <ele>376</ele>
        <time>2023-02-14T11:20:01.688Z</time>
      </trkpt>
      <trkpt lat="45.55265" lon="5.5781">
        <ele>376</ele>
        <time>2023-02-14T11:20:02.688Z</time>
      </trkpt>
      <trkpt lat="45.55265" lon="5.57817">
        <ele>376</ele>
        <time>2023-02-14T11:20:03.688Z</time>
      </trkpt>
      <trkpt lat="45.55265" lon="5.57824">
        <ele>376</ele>
        <time>2023-02-14T11:20:04.688Z</time>
      </trkpt>
      <trkpt lat="45.55264" lon="5.57831">
        <ele>375</ele>
        <time>2023-02-14T11:20:05.688Z</time>
      </trkpt>
      <trkpt lat="45.55264" lon="5.57837">
        <ele>375</ele>
        <time>2023-02-14T11:20:06.688Z</time>
      </trkpt>
      <trkpt lat="45.55263" lon="5.57845">
        <ele>375</ele>
        <time>2023-02-14T11:20:07.688Z</time>
      </trkpt>
      <trkpt lat="45.55263" lon="5.57852">
        <ele>375</ele>
        <time>2023-02-14T11:20:08.688Z</time>
      </trkpt>
      <trkpt lat="45.55262" lon="5.57858">
        <ele>375</ele>
        <time>2023-02-14T11:20:09.688Z</time>
      </trkpt>
      <trkpt lat="45.55262" lon="5.57865">
        <ele>375</ele>
        <time>2023-02-14T11:20:10.688Z</time>
      </trkpt>
      <trkpt lat="45.55261" lon="5.57872">
        <ele>375</ele>
        <time>2023-02-14T11:20:11.688Z</time>
      </trkpt>
      <trkpt lat="45.55261" lon="5.57879">
        <ele>375</ele>
        <time>2023-02-14T11:20:12.688Z</time>
      </trkpt>
      <trkpt lat="45.5526" lon="5.57886">
        <ele>375</ele>
        <time>2023-02-14T11:20:13.688Z</time>
      </trkpt>
      <trkpt lat="45.55259" lon="5.57893">
        <ele>375</ele>
        <time>2023-02-14T11:20:14.688Z</time>
      </trkpt>
      <trkpt lat="45.55258" lon="5.579">
        <ele>375</ele>
        <time>2023-02-14T11:20:15.688Z</time>
      </trkpt>
      <trkpt lat="45.55257" lon="5.57907">
        <ele>376</ele>
        <time>2023-02-14T11:20:16.688Z</time>
      </trkpt>
      <trkpt lat="45.55257" lon="5.57914">
        <ele>376</ele>
        <time>2023-02-14T11:20:17.688Z</time>
      </trkpt>
      <trkpt lat="45.55256" lon="5.57921">
        <ele>375</ele>
        <time>2023-02-14T11:20:18.688Z</time>
      </trkpt>
      <trkpt lat="45.55255" lon="5.57928">
        <ele>376</ele>
        <time>2023-02-14T11:20:19.688Z</time>
      </trkpt>
      <trkpt lat="45.55254" lon="5.57934">
        <ele>376</ele>
        <time>2023-02-14T11:20:20.688Z</time>
      </trkpt>
      <trkpt lat="45.55254" lon="5.57941">
        <ele>376</ele>
        <time>2023-02-14T11:20:21.688Z</time>
      </trkpt>
      <trkpt lat="45.55253" lon="5.57948">
        <ele>376</ele>
        <time>2023-02-14T11:20:22.688Z</time>
      </trkpt>
      <trkpt lat="45.55253" lon="5.57955">
        <ele>376</ele>
        <time>2023-02-14T11:20:23.688Z</time>
      </trkpt>
      <trkpt lat="45.55252" lon="5.57962">
        <ele>375</ele>
        <time>2023-02-14T11:20:24.688Z</time>
      </trkpt>
      <trkpt lat="45.55251" lon="5.57969">
        <ele>375</ele>
        <time>2023-02-14T11:20:25.688Z</time>
      </trkpt>
      <trkpt lat="45.55251" lon="5.57976">
        <ele>375</ele>
        <time>2023-02-14T11:20:26.688Z</time>
      </trkpt>
      <trkpt lat="45.5525" lon="5.57982">
        <ele>375</ele>
        <time>2023-02-14T11:20:27.688Z</time>
      </trkpt>
      <trkpt lat="45.5525" lon="5.57989">
        <ele>375</ele>
        <time>2023-02-14T11:20:28.688Z</time>
      </trkpt>
      <trkpt lat="45.55249" lon="5.57996">
        <ele>375</ele>
        <time>2023-02-14T11:20:29.688Z</time>
      </trkpt>
      <trkpt lat="45.55249" lon="5.58003">
        <ele>375</ele>
        <time>2023-02-14T11:20:30.688Z</time>
      </trkpt>
      <trkpt lat="45.55248" lon="5.5801">
        <ele>375</ele>
        <time>2023-02-14T11:20:31.688Z</time>
      </trkpt>
      <trkpt lat="45.55247" lon="5.58017">
        <ele>375</ele>
        <time>2023-02-14T11:20:32.688Z</time>
      </trkpt>
      <trkpt lat="45.55247" lon="5.58023">
        <ele>375</ele>
        <time>2023-02-14T11:20:33.688Z</time>
      </trkpt>
      <trkpt lat="45.55246" lon="5.5803">
        <ele>375</ele>
        <time>2023-02-14T11:20:34.688Z</time>
      </trkpt>
      <trkpt lat="45.55245" lon="5.58036">
        <ele>375</ele>
        <time>2023-02-14T11:20:35.688Z</time>
      </trkpt>
      <trkpt lat="45.55245" lon="5.58043">
        <ele>375</ele>
        <time>2023-02-14T11:20:36.688Z</time>
      </trkpt>
      <trkpt lat="45.55245" lon="5.58049">
        <ele>375</ele>
        <time>2023-02-14T11:20:37.688Z</time>
      </trkpt>
      <trkpt lat="45.55244" lon="5.58056">
        <ele>375</ele>
        <time>2023-02-14T11:20:38.688Z</time>
      </trkpt>
      <trkpt lat="45.55244" lon="5.58062">
        <ele>375</ele>
        <time>2023-02-14T11:20:39.688Z</time>
      </trkpt>
      <trkpt lat="45.55244" lon="5.58069">
        <ele>375</ele>
        <time>2023-02-14T11:20:40.688Z</time>
      </trkpt>
      <trkpt lat="45.55244" lon="5.58075">
        <ele>375</ele>
        <time>2023-02-14T11:20:41.688Z</time>
      </trkpt>
      <trkpt lat="45.55244" lon="5.58082">
        <ele>374</ele>
        <time>2023-02-14T11:20:42.688Z</time>
      </trkpt>
      <trkpt lat="45.55244" lon="5.58089">
        <ele>374</ele>
        <time>2023-02-14T11:20:43.688Z</time>
      </trkpt>
      <trkpt lat="45.55245" lon="5.58096">
        <ele>374</ele>
        <time>2023-02-14T11:20:44.688Z</time>
      </trkpt>
      <trkpt lat="45.55245" lon="5.58104">
        <ele>374</ele>
        <time>2023-02-14T11:20:45.688Z</time>
      </trkpt>
      <trkpt lat="45.55245" lon="5.58111">
        <ele>374</ele>
        <time>2023-02-14T11:20:46.688Z</time>
      </trkpt>
      <trkpt lat="45.55245" lon="5.58119">
        <ele>373</ele>
        <time>2023-02-14T11:20:47.688Z</time>
      </trkpt>
      <trkpt lat="45.55245" lon="5.58127">
        <ele>373</ele>
        <time>2023-02-14T11:20:48.688Z</time>
      </trkpt>
      <trkpt lat="45.55245" lon="5.58135">
        <ele>373</ele>
        <time>2023-02-14T11:20:49.688Z</time>
      </trkpt>
      <trkpt lat="45.55245" lon="5.58143">
        <ele>373</ele>
        <time>2023-02-14T11:20:50.688Z</time>
      </trkpt>
      <trkpt lat="45.55245" lon="5.58151">
        <ele>373</ele>
        <time>2023-02-14T11:20:51.688Z</time>
      </trkpt>
      <trkpt lat="45.55245" lon="5.58158">
        <ele>373</ele>
        <time>2023-02-14T11:20:52.688Z</time>
      </trkpt>
      <trkpt lat="45.55245" lon="5.58165">
        <ele>372</ele>
        <time>2023-02-14T11:20:53.688Z</time>
      </trkpt>
      <trkpt lat="45.55245" lon="5.58173">
        <ele>372</ele>
        <time>2023-02-14T11:20:54.688Z</time>
      </trkpt>
      <trkpt lat="45.55244" lon="5.5818">
        <ele>371</ele>
        <time>2023-02-14T11:20:55.688Z</time>
      </trkpt>
      <trkpt lat="45.55243" lon="5.58186">
        <ele>371</ele>
        <time>2023-02-14T11:20:56.688Z</time>
      </trkpt>
      <trkpt lat="45.55243" lon="5.58192">
        <ele>370</ele>
        <time>2023-02-14T11:20:57.688Z</time>
      </trkpt>
      <trkpt lat="45.55244" lon="5.58196">
        <ele>369</ele>
        <time>2023-02-14T11:20:58.688Z</time>
      </trkpt>
      <trkpt lat="45.55246" lon="5.58199">
        <ele>369</ele>
        <time>2023-02-14T11:20:59.688Z</time>
      </trkpt>
      <trkpt lat="45.55249" lon="5.58201">
        <ele>370</ele>
        <time>2023-02-14T11:21:00.688Z</time>
      </trkpt>
      <trkpt lat="45.55252" lon="5.58202">
        <ele>370</ele>
        <time>2023-02-14T11:21:01.688Z</time>
      </trkpt>
      <trkpt lat="45.55255" lon="5.58203">
        <ele>370</ele>
        <time>2023-02-14T11:21:02.688Z</time>
      </trkpt>
      <trkpt lat="45.55258" lon="5.58203">
        <ele>370</ele>
        <time>2023-02-14T11:21:03.688Z</time>
      </trkpt>
      <trkpt lat="45.55261" lon="5.58203">
        <ele>370</ele>
        <time>2023-02-14T11:21:04.688Z</time>
      </trkpt>
      <trkpt lat="45.55265" lon="5.58203">
        <ele>370</ele>
        <time>2023-02-14T11:21:05.688Z</time>
      </trkpt>
      <trkpt lat="45.55269" lon="5.58204">
        <ele>370</ele>
        <time>2023-02-14T11:21:06.688Z</time>
      </trkpt>
      <trkpt lat="45.55272" lon="5.58204">
        <ele>370</ele>
        <time>2023-02-14T11:21:07.688Z</time>
      </trkpt>
      <trkpt lat="45.55276" lon="5.58205">
        <ele>369</ele>
        <time>2023-02-14T11:21:08.688Z</time>
      </trkpt>
      <trkpt lat="45.5528" lon="5.58205">
        <ele>369</ele>
        <time>2023-02-14T11:21:09.688Z</time>
      </trkpt>
      <trkpt lat="45.55284" lon="5.58205">
        <ele>369</ele>
        <time>2023-02-14T11:21:10.688Z</time>
      </trkpt>
      <trkpt lat="45.55288" lon="5.58206">
        <ele>369</ele>
        <time>2023-02-14T11:21:11.688Z</time>
      </trkpt>
      <trkpt lat="45.55292" lon="5.58206">
        <ele>369</ele>
        <time>2023-02-14T11:21:12.688Z</time>
      </trkpt>
      <trkpt lat="45.55295" lon="5.58207">
        <ele>369</ele>
        <time>2023-02-14T11:21:13.688Z</time>
      </trkpt>
      <trkpt lat="45.55299" lon="5.58207">
        <ele>369</ele>
        <time>2023-02-14T11:21:14.688Z</time>
      </trkpt>
      <trkpt lat="45.55303" lon="5.58207">
        <ele>369</ele>
        <time>2023-02-14T11:21:15.688Z</time>
      </trkpt>
      <trkpt lat="45.55307" lon="5.58208">
        <ele>370</ele>
        <time>2023-02-14T11:21:16.688Z</time>
      </trkpt>
      <trkpt lat="45.5531" lon="5.58208">
        <ele>370</ele>
        <time>2023-02-14T11:21:17.688Z</time>
      </trkpt>
      <trkpt lat="45.55314" lon="5.58209">
        <ele>370</ele>
        <time>2023-02-14T11:21:18.688Z</time>
      </trkpt>
      <trkpt lat="45.55317" lon="5.58209">
        <ele>370</ele>
        <time>2023-02-14T11:21:19.688Z</time>
      </trkpt>
      <trkpt lat="45.55321" lon="5.5821">
        <ele>370</ele>
        <time>2023-02-14T11:21:20.688Z</time>
      </trkpt>
      <trkpt lat="45.55325" lon="5.5821">
        <ele>370</ele>
        <time>2023-02-14T11:21:21.688Z</time>
      </trkpt>
      <trkpt lat="45.55328" lon="5.5821">
        <ele>370</ele>
        <time>2023-02-14T11:21:22.688Z</time>
      </trkpt>
      <trkpt lat="45.55332" lon="5.58211">
        <ele>370</ele>
        <time>2023-02-14T11:21:23.688Z</time>
      </trkpt>
      <trkpt lat="45.55336" lon="5.58211">
        <ele>370</ele>
        <time>2023-02-14T11:21:24.688Z</time>
      </trkpt>
      <trkpt lat="45.5534" lon="5.58212">
        <ele>369</ele>
        <time>2023-02-14T11:21:25.688Z</time>
      </trkpt>
      <trkpt lat="45.55344" lon="5.58212">
        <ele>370</ele>
        <time>2023-02-14T11:21:26.688Z</time>
      </trkpt>
      <trkpt lat="45.55348" lon="5.58212">
        <ele>369</ele>
        <time>2023-02-14T11:21:27.688Z</time>
      </trkpt>
      <trkpt lat="45.55352" lon="5.58213">
        <ele>369</ele>
        <time>2023-02-14T11:21:28.688Z</time>
      </trkpt>
      <trkpt lat="45.55356" lon="5.58213">
        <ele>369</ele>
        <time>2023-02-14T11:21:29.688Z</time>
      </trkpt>
      <trkpt lat="45.5536" lon="5.58214">
        <ele>369</ele>
        <time>2023-02-14T11:21:30.688Z</time>
      </trkpt>
      <trkpt lat="45.55364" lon="5.58214">
        <ele>369</ele>
        <time>2023-02-14T11:21:31.688Z</time>
      </trkpt>
      <trkpt lat="45.55368" lon="5.58215">
        <ele>369</ele>
        <time>2023-02-14T11:21:32.688Z</time>
      </trkpt>
      <trkpt lat="45.55372" lon="5.58215">
        <ele>369</ele>
        <time>2023-02-14T11:21:33.688Z</time>
      </trkpt>
      <trkpt lat="45.55376" lon="5.58215">
        <ele>369</ele>
        <time>2023-02-14T11:21:34.688Z</time>
      </trkpt>
      <trkpt lat="45.5538" lon="5.58215">
        <ele>369</ele>
        <time>2023-02-14T11:21:35.688Z</time>
      </trkpt>
      <trkpt lat="45.55384" lon="5.58216">
        <ele>369</ele>
        <time>2023-02-14T11:21:36.688Z</time>
      </trkpt>
      <trkpt lat="45.55387" lon="5.58216">
        <ele>369</ele>
        <time>2023-02-14T11:21:37.688Z</time>
      </trkpt>
      <trkpt lat="45.55391" lon="5.58217">
        <ele>369</ele>
        <time>2023-02-14T11:21:38.688Z</time>
      </trkpt>
      <trkpt lat="45.55394" lon="5.58217">
        <ele>369</ele>
        <time>2023-02-14T11:21:39.688Z</time>
      </trkpt>
      <trkpt lat="45.55398" lon="5.58217">
        <ele>369</ele>
        <time>2023-02-14T11:21:40.688Z</time>
      </trkpt>
      <trkpt lat="45.55401" lon="5.58218">
        <ele>369</ele>
        <time>2023-02-14T11:21:41.688Z</time>
      </trkpt>
      <trkpt lat="45.55405" lon="5.58218">
        <ele>370</ele>
        <time>2023-02-14T11:21:42.688Z</time>
      </trkpt>
      <trkpt lat="45.55408" lon="5.58219">
        <ele>370</ele>
        <time>2023-02-14T11:21:43.688Z</time>
      </trkpt>
      <trkpt lat="45.55411" lon="5.58219">
        <ele>370</ele>
        <time>2023-02-14T11:21:44.688Z</time>
      </trkpt>
      <trkpt lat="45.55414" lon="5.58219">
        <ele>370</ele>
        <time>2023-02-14T11:21:45.688Z</time>
      </trkpt>
      <trkpt lat="45.55418" lon="5.5822">
        <ele>370</ele>
        <time>2023-02-14T11:21:46.688Z</time>
      </trkpt>
      <trkpt lat="45.55421" lon="5.5822">
        <ele>370</ele>
        <time>2023-02-14T11:21:47.688Z</time>
      </trkpt>
      <trkpt lat="45.55424" lon="5.5822">
        <ele>370</ele>
        <time>2023-02-14T11:21:48.688Z</time>
      </trkpt>
      <trkpt lat="45.55426" lon="5.5822">
        <ele>370</ele>
        <time>2023-02-14T11:21:49.688Z</time>
      </trkpt>
      <trkpt lat="45.55429" lon="5.58221">
        <ele>370</ele>
        <time>2023-02-14T11:21:50.688Z</time>
      </trkpt>
      <trkpt lat="45.55432" lon="5.58221">
        <ele>371</ele>
        <time>2023-02-14T11:21:51.688Z</time>
      </trkpt>
      <trkpt lat="45.55434" lon="5.58221">
        <ele>371</ele>
        <time>2023-02-14T11:21:52.688Z</time>
      </trkpt>
      <trkpt lat="45.55437" lon="5.58221">
        <ele>371</ele>
        <time>2023-02-14T11:21:53.688Z</time>
      </trkpt>
      <trkpt lat="45.55439" lon="5.58222">
        <ele>371</ele>
        <time>2023-02-14T11:21:54.688Z</time>
      </trkpt>
      <trkpt lat="45.55442" lon="5.58222">
        <ele>371</ele>
        <time>2023-02-14T11:21:55.688Z</time>
      </trkpt>
      <trkpt lat="45.55444" lon="5.58222">
        <ele>371</ele>
        <time>2023-02-14T11:21:56.688Z</time>
      </trkpt>
      <trkpt lat="45.55446" lon="5.58222">
        <ele>371</ele>
        <time>2023-02-14T11:21:57.688Z</time>
      </trkpt>
      <trkpt lat="45.55448" lon="5.58223">
        <ele>372</ele>
        <time>2023-02-14T11:21:58.688Z</time>
      </trkpt>
      <trkpt lat="45.5545" lon="5.58223">
        <ele>372</ele>
        <time>2023-02-14T11:21:59.688Z</time>
      </trkpt>
      <trkpt lat="45.55452" lon="5.58223">
        <ele>372</ele>
        <time>2023-02-14T11:22:00.688Z</time>
      </trkpt>
      <trkpt lat="45.55454" lon="5.58223">
        <ele>372</ele>
        <time>2023-02-14T11:22:01.688Z</time>
      </trkpt>
      <trkpt lat="45.55456" lon="5.58224">
        <ele>372</ele>
        <time>2023-02-14T11:22:02.688Z</time>
      </trkpt>
      <trkpt lat="45.55457" lon="5.58224">
        <ele>373</ele>
        <time>2023-02-14T11:22:03.688Z</time>
      </trkpt>
      <trkpt lat="45.55459" lon="5.58224">
        <ele>373</ele>
        <time>2023-02-14T11:22:04.688Z</time>
      </trkpt>
      <trkpt lat="45.55461" lon="5.58224">
        <ele>373</ele>
        <time>2023-02-14T11:22:05.688Z</time>
      </trkpt>
      <trkpt lat="45.55463" lon="5.58224">
        <ele>373</ele>
        <time>2023-02-14T11:22:06.688Z</time>
      </trkpt>
      <trkpt lat="45.55465" lon="5.58225">
        <ele>373</ele>
        <time>2023-02-14T11:22:07.688Z</time>
      </trkpt>
      <trkpt lat="45.55467" lon="5.58225">
        <ele>373</ele>
        <time>2023-02-14T11:22:08.688Z</time>
      </trkpt>
      <trkpt lat="45.55469" lon="5.58225">
        <ele>374</ele>
        <time>2023-02-14T11:22:09.688Z</time>
      </trkpt>
      <trkpt lat="45.55471" lon="5.58225">
        <ele>374</ele>
        <time>2023-02-14T11:22:10.688Z</time>
      </trkpt>
      <trkpt lat="45.55473" lon="5.58225">
        <ele>374</ele>
        <time>2023-02-14T11:22:11.688Z</time>
      </trkpt>
      <trkpt lat="45.55475" lon="5.58224">
        <ele>374</ele>
        <time>2023-02-14T11:22:12.688Z</time>
      </trkpt>
      <trkpt lat="45.55477" lon="5.58224">
        <ele>374</ele>
        <time>2023-02-14T11:22:13.688Z</time>
      </trkpt>
      <trkpt lat="45.55479" lon="5.58224">
        <ele>374</ele>
        <time>2023-02-14T11:22:14.688Z</time>
      </trkpt>
      <trkpt lat="45.55481" lon="5.58223">
        <ele>375</ele>
        <time>2023-02-14T11:22:15.688Z</time>
      </trkpt>
      <trkpt lat="45.55483" lon="5.58223">
        <ele>375</ele>
        <time>2023-02-14T11:22:16.688Z</time>
      </trkpt>
      <trkpt lat="45.55485" lon="5.58223">
        <ele>375</ele>
        <time>2023-02-14T11:22:17.688Z</time>
      </trkpt>
      <trkpt lat="45.55487" lon="5.58223">
        <ele>375</ele>
        <time>2023-02-14T11:22:18.688Z</time>
      </trkpt>
      <trkpt lat="45.55488" lon="5.58224">
        <ele>375</ele>
        <time>2023-02-14T11:22:19.688Z</time>
      </trkpt>
      <trkpt lat="45.5549" lon="5.58224">
        <ele>375</ele>
        <time>2023-02-14T11:22:20.688Z</time>
      </trkpt>
      <trkpt lat="45.55492" lon="5.58224">
        <ele>375</ele>
        <time>2023-02-14T11:22:21.688Z</time>
      </trkpt>
      <trkpt lat="45.55495" lon="5.58225">
        <ele>375</ele>
        <time>2023-02-14T11:22:22.688Z</time>
      </trkpt>
      <trkpt lat="45.55497" lon="5.58225">
        <ele>375</ele>
        <time>2023-02-14T11:22:23.688Z</time>
      </trkpt>
      <trkpt lat="45.55499" lon="5.58226">
        <ele>375</ele>
        <time>2023-02-14T11:22:24.688Z</time>
      </trkpt>
      <trkpt lat="45.55501" lon="5.58226">
        <ele>375</ele>
        <time>2023-02-14T11:22:25.688Z</time>
      </trkpt>
      <trkpt lat="45.55503" lon="5.58227">
        <ele>375</ele>
        <time>2023-02-14T11:22:26.688Z</time>
      </trkpt>
      <trkpt lat="45.55506" lon="5.58228">
        <ele>375</ele>
        <time>2023-02-14T11:22:27.688Z</time>
      </trkpt>
      <trkpt lat="45.55508" lon="5.58228">
        <ele>375</ele>
        <time>2023-02-14T11:22:28.688Z</time>
      </trkpt>
      <trkpt lat="45.5551" lon="5.58228">
        <ele>375</ele>
        <time>2023-02-14T11:22:29.688Z</time>
      </trkpt>
      <trkpt lat="45.55512" lon="5.58229">
        <ele>375</ele>
        <time>2023-02-14T11:22:30.688Z</time>
      </trkpt>
      <trkpt lat="45.55514" lon="5.58229">
        <ele>375</ele>
        <time>2023-02-14T11:22:31.688Z</time>
      </trkpt>
      <trkpt lat="45.55516" lon="5.58229">
        <ele>375</ele>
        <time>2023-02-14T11:22:32.688Z</time>
      </trkpt>
      <trkpt lat="45.55519" lon="5.5823">
        <ele>375</ele>
        <time>2023-02-14T11:22:33.688Z</time>
      </trkpt>
      <trkpt lat="45.55521" lon="5.5823">
        <ele>375</ele>
        <time>2023-02-14T11:22:34.688Z</time>
      </trkpt>
      <trkpt lat="45.55523" lon="5.5823">
        <ele>375</ele>
        <time>2023-02-14T11:22:35.688Z</time>
      </trkpt>
      <trkpt lat="45.55526" lon="5.58231">
        <ele>375</ele>
        <time>2023-02-14T11:22:36.688Z</time>
      </trkpt>
      <trkpt lat="45.55528" lon="5.58232">
        <ele>375</ele>
        <time>2023-02-14T11:22:37.688Z</time>
      </trkpt>
      <trkpt lat="45.5553" lon="5.58232">
        <ele>375</ele>
        <time>2023-02-14T11:22:38.688Z</time>
      </trkpt>
      <trkpt lat="45.55533" lon="5.58233">
        <ele>375</ele>
        <time>2023-02-14T11:22:39.688Z</time>
      </trkpt>
      <trkpt lat="45.55535" lon="5.58233">
        <ele>375</ele>
        <time>2023-02-14T11:22:40.688Z</time>
      </trkpt>
      <trkpt lat="45.55538" lon="5.58233">
        <ele>375</ele>
        <time>2023-02-14T11:22:41.688Z</time>
      </trkpt>
      <trkpt lat="45.55541" lon="5.58234">
        <ele>375</ele>
        <time>2023-02-14T11:22:42.688Z</time>
      </trkpt>
      <trkpt lat="45.55543" lon="5.58234">
        <ele>375</ele>
        <time>2023-02-14T11:22:43.688Z</time>
      </trkpt>
      <trkpt lat="45.55546" lon="5.58235">
        <ele>375</ele>
        <time>2023-02-14T11:22:44.688Z</time>
      </trkpt>
      <trkpt lat="45.55549" lon="5.58235">
        <ele>374</ele>
        <time>2023-02-14T11:22:45.688Z</time>
      </trkpt>
      <trkpt lat="45.55551" lon="5.58235">
        <ele>374</ele>
        <time>2023-02-14T11:22:46.688Z</time>
      </trkpt>
      <trkpt lat="45.55554" lon="5.58236">
        <ele>374</ele>
        <time>2023-02-14T11:22:47.688Z</time>
      </trkpt>
      <trkpt lat="45.55557" lon="5.58237">
        <ele>374</ele>
        <time>2023-02-14T11:22:48.688Z</time>
      </trkpt>
      <trkpt lat="45.5556" lon="5.58237">
        <ele>374</ele>
        <time>2023-02-14T11:22:49.688Z</time>
      </trkpt>
      <trkpt lat="45.55563" lon="5.58237">
        <ele>374</ele>
        <time>2023-02-14T11:22:50.688Z</time>
      </trkpt>
      <trkpt lat="45.55565" lon="5.58237">
        <ele>374</ele>
        <time>2023-02-14T11:22:51.688Z</time>
      </trkpt>
      <trkpt lat="45.55568" lon="5.58237">
        <ele>374</ele>
        <time>2023-02-14T11:22:52.688Z</time>
      </trkpt>
      <trkpt lat="45.55571" lon="5.58237">
        <ele>374</ele>
        <time>2023-02-14T11:22:53.688Z</time>
      </trkpt>
      <trkpt lat="45.55574" lon="5.58236">
        <ele>374</ele>
        <time>2023-02-14T11:22:54.688Z</time>
      </trkpt>
      <trkpt lat="45.55577" lon="5.58236">
        <ele>374</ele>
        <time>2023-02-14T11:22:55.688Z</time>
      </trkpt>
      <trkpt lat="45.5558" lon="5.58236">
        <ele>374</ele>
        <time>2023-02-14T11:22:56.688Z</time>
      </trkpt>
      <trkpt lat="45.55583" lon="5.58236">
        <ele>374</ele>
        <time>2023-02-14T11:22:57.688Z</time>
      </trkpt>
      <trkpt lat="45.55586" lon="5.58237">
        <ele>374</ele>
        <time>2023-02-14T11:22:58.688Z</time>
      </trkpt>
      <trkpt lat="45.55589" lon="5.58237">
        <ele>373</ele>
        <time>2023-02-14T11:22:59.688Z</time>
      </trkpt>
      <trkpt lat="45.55592" lon="5.58237">
        <ele>373</ele>
        <time>2023-02-14T11:23:00.688Z</time>
      </trkpt>
      <trkpt lat="45.55595" lon="5.58238">
        <ele>373</ele>
        <time>2023-02-14T11:23:01.688Z</time>
      </trkpt>
      <trkpt lat="45.55598" lon="5.58238">
        <ele>373</ele>
        <time>2023-02-14T11:23:02.688Z</time>
      </trkpt>
      <trkpt lat="45.55602" lon="5.58239">
        <ele>373</ele>
        <time>2023-02-14T11:23:03.688Z</time>
      </trkpt>
      <trkpt lat="45.55605" lon="5.58239">
        <ele>372</ele>
        <time>2023-02-14T11:23:04.688Z</time>
      </trkpt>
      <trkpt lat="45.55609" lon="5.5824">
        <ele>372</ele>
        <time>2023-02-14T11:23:05.688Z</time>
      </trkpt>
      <trkpt lat="45.55613" lon="5.58241">
        <ele>372</ele>
        <time>2023-02-14T11:23:06.688Z</time>
      </trkpt>
      <trkpt lat="45.55617" lon="5.58241">
        <ele>372</ele>
        <time>2023-02-14T11:23:07.688Z</time>
      </trkpt>
      <trkpt lat="45.55621" lon="5.58242">
        <ele>371</ele>
        <time>2023-02-14T11:23:08.688Z</time>
      </trkpt>
      <trkpt lat="45.55625" lon="5.58241">
        <ele>371</ele>
        <time>2023-02-14T11:23:09.688Z</time>
      </trkpt>
      <trkpt lat="45.55629" lon="5.5824">
        <ele>371</ele>
        <time>2023-02-14T11:23:10.688Z</time>
      </trkpt>
      <trkpt lat="45.55633" lon="5.58238">
        <ele>370</ele>
        <time>2023-02-14T11:23:11.688Z</time>
      </trkpt>
      <trkpt lat="45.55636" lon="5.58236">
        <ele>370</ele>
        <time>2023-02-14T11:23:12.688Z</time>
      </trkpt>
      <trkpt lat="45.55639" lon="5.58233">
        <ele>369</ele>
        <time>2023-02-14T11:23:13.688Z</time>
      </trkpt>
      <trkpt lat="45.55642" lon="5.5823">
        <ele>369</ele>
        <time>2023-02-14T11:23:14.688Z</time>
      </trkpt>
      <trkpt lat="45.55644" lon="5.58227">
        <ele>368</ele>
        <time>2023-02-14T11:23:15.688Z</time>
      </trkpt>
      <trkpt lat="45.55647" lon="5.58224">
        <ele>368</ele>
        <time>2023-02-14T11:23:16.688Z</time>
      </trkpt>
      <trkpt lat="45.5565" lon="5.58221">
        <ele>368</ele>
        <time>2023-02-14T11:23:17.688Z</time>
      </trkpt>
      <trkpt lat="45.55653" lon="5.58218">
        <ele>368</ele>
        <time>2023-02-14T11:23:18.688Z</time>
      </trkpt>
      <trkpt lat="45.55656" lon="5.58216">
        <ele>367</ele>
        <time>2023-02-14T11:23:19.688Z</time>
      </trkpt>
      <trkpt lat="45.55659" lon="5.58213">
        <ele>368</ele>
        <time>2023-02-14T11:23:20.688Z</time>
      </trkpt>
      <trkpt lat="45.55661" lon="5.5821">
        <ele>367</ele>
        <time>2023-02-14T11:23:21.688Z</time>
      </trkpt>
      <trkpt lat="45.55664" lon="5.58208">
        <ele>367</ele>
        <time>2023-02-14T11:23:22.688Z</time>
      </trkpt>
      <trkpt lat="45.55666" lon="5.58205">
        <ele>367</ele>
        <time>2023-02-14T11:23:23.688Z</time>
      </trkpt>
      <trkpt lat="45.55669" lon="5.58202">
        <ele>367</ele>
        <time>2023-02-14T11:23:24.688Z</time>
      </trkpt>
      <trkpt lat="45.55671" lon="5.582">
        <ele>367</ele>
        <time>2023-02-14T11:23:25.688Z</time>
      </trkpt>
      <trkpt lat="45.55673" lon="5.58198">
        <ele>367</ele>
        <time>2023-02-14T11:23:26.688Z</time>
      </trkpt>
      <trkpt lat="45.55675" lon="5.58196">
        <ele>367</ele>
        <time>2023-02-14T11:23:27.688Z</time>
      </trkpt>
      <trkpt lat="45.55678" lon="5.58196">
        <ele>366</ele>
        <time>2023-02-14T11:23:28.688Z</time>
      </trkpt>
      <trkpt lat="45.5568" lon="5.58197">
        <ele>365</ele>
        <time>2023-02-14T11:23:29.688Z</time>
      </trkpt>
      <trkpt lat="45.55682" lon="5.58198">
        <ele>365</ele>
        <time>2023-02-14T11:23:30.688Z</time>
      </trkpt>
      <trkpt lat="45.55684" lon="5.58199">
        <ele>365</ele>
        <time>2023-02-14T11:23:31.688Z</time>
      </trkpt>
      <trkpt lat="45.55685" lon="5.582">
        <ele>363</ele>
        <time>2023-02-14T11:23:32.688Z</time>
      </trkpt>
      <trkpt lat="45.55687" lon="5.58201">
        <ele>363</ele>
        <time>2023-02-14T11:23:33.688Z</time>
      </trkpt>
      <trkpt lat="45.55689" lon="5.58201">
        <ele>363</ele>
        <time>2023-02-14T11:23:34.688Z</time>
      </trkpt>
      <trkpt lat="45.55692" lon="5.582">
        <ele>363</ele>
        <time>2023-02-14T11:23:35.688Z</time>
      </trkpt>
      <trkpt lat="45.55694" lon="5.58199">
        <ele>363</ele>
        <time>2023-02-14T11:23:36.688Z</time>
      </trkpt>
      <trkpt lat="45.55696" lon="5.58197">
        <ele>363</ele>
        <time>2023-02-14T11:23:37.688Z</time>
      </trkpt>
      <trkpt lat="45.55696" lon="5.58196">
        <ele>363</ele>
        <time>2023-02-14T11:23:38.688Z</time>
      </trkpt>
      <trkpt lat="45.55697" lon="5.58195">
        <ele>363</ele>
        <time>2023-02-14T11:23:39.688Z</time>
      </trkpt>
      <trkpt lat="45.55698" lon="5.58193">
        <ele>363</ele>
        <time>2023-02-14T11:23:40.688Z</time>
      </trkpt>
      <trkpt lat="45.55699" lon="5.58192">
        <ele>363</ele>
        <time>2023-02-14T11:23:41.688Z</time>
      </trkpt>
      <trkpt lat="45.557" lon="5.58191">
        <ele>363</ele>
        <time>2023-02-14T11:23:42.688Z</time>
      </trkpt>
      <trkpt lat="45.55701" lon="5.58188">
        <ele>363</ele>
        <time>2023-02-14T11:23:43.688Z</time>
      </trkpt>
      <trkpt lat="45.55703" lon="5.58185">
        <ele>362</ele>
        <time>2023-02-14T11:23:44.688Z</time>
      </trkpt>
      <trkpt lat="45.55705" lon="5.58182">
        <ele>361</ele>
        <time>2023-02-14T11:23:45.688Z</time>
      </trkpt>
      <trkpt lat="45.55706" lon="5.58179">
        <ele>360</ele>
        <time>2023-02-14T11:23:46.688Z</time>
      </trkpt>
      <trkpt lat="45.55708" lon="5.58177">
        <ele>360</ele>
        <time>2023-02-14T11:23:47.688Z</time>
      </trkpt>
      <trkpt lat="45.55709" lon="5.58174">
        <ele>360</ele>
        <time>2023-02-14T11:23:48.688Z</time>
      </trkpt>
      <trkpt lat="45.5571" lon="5.5817">
        <ele>360</ele>
        <time>2023-02-14T11:23:49.688Z</time>
      </trkpt>
      <trkpt lat="45.55711" lon="5.58167">
        <ele>360</ele>
        <time>2023-02-14T11:23:50.688Z</time>
      </trkpt>
      <trkpt lat="45.55712" lon="5.58164">
        <ele>361</ele>
        <time>2023-02-14T11:23:51.688Z</time>
      </trkpt>
      <trkpt lat="45.55713" lon="5.58162">
        <ele>361</ele>
        <time>2023-02-14T11:23:52.688Z</time>
      </trkpt>
      <trkpt lat="45.55714" lon="5.5816">
        <ele>362</ele>
        <time>2023-02-14T11:23:53.688Z</time>
      </trkpt>
      <trkpt lat="45.55716" lon="5.58159">
        <ele>363</ele>
        <time>2023-02-14T11:23:54.688Z</time>
      </trkpt>
      <trkpt lat="45.55718" lon="5.58159">
        <ele>363</ele>
        <time>2023-02-14T11:23:55.688Z</time>
      </trkpt>
      <trkpt lat="45.55721" lon="5.5816">
        <ele>363</ele>
        <time>2023-02-14T11:23:56.688Z</time>
      </trkpt>
      <trkpt lat="45.55722" lon="5.58161">
        <ele>361</ele>
        <time>2023-02-14T11:23:57.688Z</time>
      </trkpt>
      <trkpt lat="45.55724" lon="5.58163">
        <ele>360</ele>
        <time>2023-02-14T11:23:58.688Z</time>
      </trkpt>
      <trkpt lat="45.55726" lon="5.58165">
        <ele>359</ele>
        <time>2023-02-14T11:23:59.688Z</time>
      </trkpt>
      <trkpt lat="45.55727" lon="5.58167">
        <ele>359</ele>
        <time>2023-02-14T11:24:00.688Z</time>
      </trkpt>
      <trkpt lat="45.55729" lon="5.5817">
        <ele>358</ele>
        <time>2023-02-14T11:24:01.688Z</time>
      </trkpt>
      <trkpt lat="45.55731" lon="5.58173">
        <ele>357</ele>
        <time>2023-02-14T11:24:02.688Z</time>
      </trkpt>
      <trkpt lat="45.55733" lon="5.58176">
        <ele>357</ele>
        <time>2023-02-14T11:24:03.688Z</time>
      </trkpt>
      <trkpt lat="45.55735" lon="5.58179">
        <ele>356</ele>
        <time>2023-02-14T11:24:04.688Z</time>
      </trkpt>
      <trkpt lat="45.55736" lon="5.58182">
        <ele>355</ele>
        <time>2023-02-14T11:24:05.688Z</time>
      </trkpt>
      <trkpt lat="45.55738" lon="5.58187">
        <ele>354</ele>
        <time>2023-02-14T11:24:06.688Z</time>
      </trkpt>
      <trkpt lat="45.55739" lon="5.58193">
        <ele>355</ele>
        <time>2023-02-14T11:24:07.688Z</time>
      </trkpt>
      <trkpt lat="45.5574" lon="5.58199">
        <ele>355</ele>
        <time>2023-02-14T11:24:08.688Z</time>
      </trkpt>
      <trkpt lat="45.55741" lon="5.58205">
        <ele>354</ele>
        <time>2023-02-14T11:24:09.688Z</time>
      </trkpt>
      <trkpt lat="45.55742" lon="5.5821">
        <ele>353</ele>
        <time>2023-02-14T11:24:10.688Z</time>
      </trkpt>
      <trkpt lat="45.55743" lon="5.58214">
        <ele>352</ele>
        <time>2023-02-14T11:24:11.688Z</time>
      </trkpt>
      <trkpt lat="45.55743" lon="5.58219">
        <ele>351</ele>
        <time>2023-02-14T11:24:12.688Z</time>
      </trkpt>
      <trkpt lat="45.55743" lon="5.58224">
        <ele>350</ele>
        <time>2023-02-14T11:24:13.688Z</time>
      </trkpt>
      <trkpt lat="45.55744" lon="5.58229">
        <ele>350</ele>
        <time>2023-02-14T11:24:14.688Z</time>
      </trkpt>
      <trkpt lat="45.55744" lon="5.58235">
        <ele>350</ele>
        <time>2023-02-14T11:24:15.688Z</time>
      </trkpt>
      <trkpt lat="45.55745" lon="5.5824">
        <ele>350</ele>
        <time>2023-02-14T11:24:16.688Z</time>
      </trkpt>
      <trkpt lat="45.55746" lon="5.58245">
        <ele>350</ele>
        <time>2023-02-14T11:24:17.688Z</time>
      </trkpt>
      <trkpt lat="45.55747" lon="5.5825">
        <ele>350</ele>
        <time>2023-02-14T11:24:18.688Z</time>
      </trkpt>
      <trkpt lat="45.55747" lon="5.58256">
        <ele>349</ele>
        <time>2023-02-14T11:24:19.688Z</time>
      </trkpt>
      <trkpt lat="45.55748" lon="5.58261">
        <ele>349</ele>
        <time>2023-02-14T11:24:20.688Z</time>
      </trkpt>
      <trkpt lat="45.5575" lon="5.58266">
        <ele>349</ele>
        <time>2023-02-14T11:24:21.688Z</time>
      </trkpt>
      <trkpt lat="45.55751" lon="5.5827">
        <ele>348</ele>
        <time>2023-02-14T11:24:22.688Z</time>
      </trkpt>
      <trkpt lat="45.55753" lon="5.58274">
        <ele>348</ele>
        <time>2023-02-14T11:24:23.688Z</time>
      </trkpt>
      <trkpt lat="45.55755" lon="5.58279">
        <ele>347</ele>
        <time>2023-02-14T11:24:24.688Z</time>
      </trkpt>
      <trkpt lat="45.55757" lon="5.58284">
        <ele>346</ele>
        <time>2023-02-14T11:24:25.688Z</time>
      </trkpt>
      <trkpt lat="45.55759" lon="5.58288">
        <ele>345</ele>
        <time>2023-02-14T11:24:26.688Z</time>
      </trkpt>
      <trkpt lat="45.55761" lon="5.58293">
        <ele>344</ele>
        <time>2023-02-14T11:24:27.688Z</time>
      </trkpt>
      <trkpt lat="45.55764" lon="5.58297">
        <ele>343</ele>
        <time>2023-02-14T11:24:28.688Z</time>
      </trkpt>
      <trkpt lat="45.55768" lon="5.583">
        <ele>343</ele>
        <time>2023-02-14T11:24:29.688Z</time>
      </trkpt>
      <trkpt lat="45.55771" lon="5.58304">
        <ele>342</ele>
        <time>2023-02-14T11:24:30.688Z</time>
      </trkpt>
      <trkpt lat="45.55775" lon="5.58306">
        <ele>341</ele>
        <time>2023-02-14T11:24:31.688Z</time>
      </trkpt>
      <trkpt lat="45.55778" lon="5.58309">
        <ele>341</ele>
        <time>2023-02-14T11:24:32.688Z</time>
      </trkpt>
      <trkpt lat="45.55781" lon="5.58312">
        <ele>341</ele>
        <time>2023-02-14T11:24:33.688Z</time>
      </trkpt>
      <trkpt lat="45.55784" lon="5.58315">
        <ele>340</ele>
        <time>2023-02-14T11:24:34.688Z</time>
      </trkpt>
      <trkpt lat="45.55786" lon="5.58319">
        <ele>339</ele>
        <time>2023-02-14T11:24:35.688Z</time>
      </trkpt>
      <trkpt lat="45.55787" lon="5.58324">
        <ele>337</ele>
        <time>2023-02-14T11:24:36.688Z</time>
      </trkpt>
      <trkpt lat="45.55787" lon="5.5833">
        <ele>335</ele>
        <time>2023-02-14T11:24:37.688Z</time>
      </trkpt>
      <trkpt lat="45.55787" lon="5.58337">
        <ele>333</ele>
        <time>2023-02-14T11:24:38.688Z</time>
      </trkpt>
      <trkpt lat="45.55786" lon="5.58344">
        <ele>332</ele>
        <time>2023-02-14T11:24:39.688Z</time>
      </trkpt>
      <trkpt lat="45.55786" lon="5.58349">
        <ele>332</ele>
        <time>2023-02-14T11:24:40.688Z</time>
      </trkpt>
      <trkpt lat="45.55786" lon="5.58355">
        <ele>333</ele>
        <time>2023-02-14T11:24:41.688Z</time>
      </trkpt>
      <trkpt lat="45.55787" lon="5.58361">
        <ele>333</ele>
        <time>2023-02-14T11:24:42.688Z</time>
      </trkpt>
      <trkpt lat="45.55787" lon="5.58366">
        <ele>333</ele>
        <time>2023-02-14T11:24:43.688Z</time>
      </trkpt>
      <trkpt lat="45.55787" lon="5.58371">
        <ele>333</ele>
        <time>2023-02-14T11:24:44.688Z</time>
      </trkpt>
      <trkpt lat="45.55786" lon="5.58375">
        <ele>332</ele>
        <time>2023-02-14T11:24:45.688Z</time>
      </trkpt>
      <trkpt lat="45.55786" lon="5.5838">
        <ele>333</ele>
        <time>2023-02-14T11:24:46.688Z</time>
      </trkpt>
      <trkpt lat="45.55785" lon="5.58384">
        <ele>333</ele>
        <time>2023-02-14T11:24:47.688Z</time>
      </trkpt>
      <trkpt lat="45.55784" lon="5.58388">
        <ele>334</ele>
        <time>2023-02-14T11:24:48.688Z</time>
      </trkpt>
      <trkpt lat="45.55783" lon="5.58391">
        <ele>334</ele>
        <time>2023-02-14T11:24:49.688Z</time>
      </trkpt>
      <trkpt lat="45.55781" lon="5.58395">
        <ele>333</ele>
        <time>2023-02-14T11:24:50.688Z</time>
      </trkpt>
      <trkpt lat="45.5578" lon="5.58398">
        <ele>333</ele>
        <time>2023-02-14T11:24:51.688Z</time>
      </trkpt>
      <trkpt lat="45.55779" lon="5.58401">
        <ele>333</ele>
        <time>2023-02-14T11:24:52.688Z</time>
      </trkpt>
      <trkpt lat="45.55777" lon="5.58405">
        <ele>333</ele>
        <time>2023-02-14T11:24:53.688Z</time>
      </trkpt>
      <trkpt lat="45.55775" lon="5.58409">
        <ele>333</ele>
        <time>2023-02-14T11:24:54.688Z</time>
      </trkpt>
      <trkpt lat="45.55773" lon="5.58413">
        <ele>334</ele>
        <time>2023-02-14T11:24:55.688Z</time>
      </trkpt>
      <trkpt lat="45.55771" lon="5.58416">
        <ele>334</ele>
        <time>2023-02-14T11:24:56.688Z</time>
      </trkpt>
      <trkpt lat="45.55769" lon="5.58419">
        <ele>333</ele>
        <time>2023-02-14T11:24:57.688Z</time>
      </trkpt>
      <trkpt lat="45.55767" lon="5.58423">
        <ele>333</ele>
        <time>2023-02-14T11:24:58.688Z</time>
      </trkpt>
      <trkpt lat="45.55765" lon="5.58427">
        <ele>333</ele>
        <time>2023-02-14T11:24:59.688Z</time>
      </trkpt>
      <trkpt lat="45.55765" lon="5.58432">
        <ele>332</ele>
        <time>2023-02-14T11:25:00.688Z</time>
      </trkpt>
      <trkpt lat="45.55766" lon="5.58435">
        <ele>332</ele>
        <time>2023-02-14T11:25:01.688Z</time>
      </trkpt>
      <trkpt lat="45.55767" lon="5.58438">
        <ele>332</ele>
        <time>2023-02-14T11:25:02.688Z</time>
      </trkpt>
      <trkpt lat="45.55768" lon="5.58439">
        <ele>331</ele>
        <time>2023-02-14T11:25:03.688Z</time>
      </trkpt>
      <trkpt lat="45.5577" lon="5.58439">
        <ele>330</ele>
        <time>2023-02-14T11:25:04.688Z</time>
      </trkpt>
      <trkpt lat="45.55772" lon="5.58439">
        <ele>328</ele>
        <time>2023-02-14T11:25:05.688Z</time>
      </trkpt>
      <trkpt lat="45.55776" lon="5.58437">
        <ele>326</ele>
        <time>2023-02-14T11:25:06.688Z</time>
      </trkpt>
      <trkpt lat="45.5578" lon="5.58434">
        <ele>326</ele>
        <time>2023-02-14T11:25:07.688Z</time>
      </trkpt>
      <trkpt lat="45.55784" lon="5.58433">
        <ele>326</ele>
        <time>2023-02-14T11:25:08.688Z</time>
      </trkpt>
      <trkpt lat="45.55789" lon="5.58432">
        <ele>325</ele>
        <time>2023-02-14T11:25:09.688Z</time>
      </trkpt>
      <trkpt lat="45.55794" lon="5.58432">
        <ele>324</ele>
        <time>2023-02-14T11:25:10.688Z</time>
      </trkpt>
      <trkpt lat="45.55799" lon="5.58432">
        <ele>324</ele>
        <time>2023-02-14T11:25:11.688Z</time>
      </trkpt>
      <trkpt lat="45.55804" lon="5.58433">
        <ele>324</ele>
        <time>2023-02-14T11:25:12.688Z</time>
      </trkpt>
      <trkpt lat="45.55809" lon="5.58434">
        <ele>324</ele>
        <time>2023-02-14T11:25:13.688Z</time>
      </trkpt>
      <trkpt lat="45.55814" lon="5.58435">
        <ele>325</ele>
        <time>2023-02-14T11:25:14.688Z</time>
      </trkpt>
      <trkpt lat="45.5582" lon="5.58435">
        <ele>326</ele>
        <time>2023-02-14T11:25:15.688Z</time>
      </trkpt>
      <trkpt lat="45.55826" lon="5.58436">
        <ele>325</ele>
        <time>2023-02-14T11:25:16.688Z</time>
      </trkpt>
      <trkpt lat="45.55831" lon="5.58437">
        <ele>324</ele>
        <time>2023-02-14T11:25:17.688Z</time>
      </trkpt>
      <trkpt lat="45.55836" lon="5.58438">
        <ele>323</ele>
        <time>2023-02-14T11:25:18.688Z</time>
      </trkpt>
      <trkpt lat="45.5584" lon="5.58439">
        <ele>321</ele>
        <time>2023-02-14T11:25:19.688Z</time>
      </trkpt>
      <trkpt lat="45.55844" lon="5.58439">
        <ele>320</ele>
        <time>2023-02-14T11:25:20.688Z</time>
      </trkpt>
      <trkpt lat="45.55849" lon="5.58439">
        <ele>319</ele>
        <time>2023-02-14T11:25:21.688Z</time>
      </trkpt>
      <trkpt lat="45.55853" lon="5.58439">
        <ele>319</ele>
        <time>2023-02-14T11:25:22.688Z</time>
      </trkpt>
      <trkpt lat="45.55857" lon="5.58439">
        <ele>318</ele>
        <time>2023-02-14T11:25:23.688Z</time>
      </trkpt>
      <trkpt lat="45.55862" lon="5.58439">
        <ele>317</ele>
        <time>2023-02-14T11:25:24.688Z</time>
      </trkpt>
      <trkpt lat="45.55867" lon="5.58439">
        <ele>317</ele>
        <time>2023-02-14T11:25:25.688Z</time>
      </trkpt>
      <trkpt lat="45.55873" lon="5.58439">
        <ele>317</ele>
        <time>2023-02-14T11:25:26.688Z</time>
      </trkpt>
      <trkpt lat="45.55878" lon="5.58438">
        <ele>316</ele>
        <time>2023-02-14T11:25:27.688Z</time>
      </trkpt>
      <trkpt lat="45.55884" lon="5.58437">
        <ele>317</ele>
        <time>2023-02-14T11:25:28.688Z</time>
      </trkpt>
      <trkpt lat="45.55889" lon="5.58436">
        <ele>319</ele>
        <time>2023-02-14T11:25:29.688Z</time>
      </trkpt>
      <trkpt lat="45.55895" lon="5.58435">
        <ele>319</ele>
        <time>2023-02-14T11:25:30.688Z</time>
      </trkpt>
      <trkpt lat="45.55901" lon="5.58433">
        <ele>319</ele>
        <time>2023-02-14T11:25:31.688Z</time>
      </trkpt>
      <trkpt lat="45.55906" lon="5.58432">
        <ele>319</ele>
        <time>2023-02-14T11:25:32.688Z</time>
      </trkpt>
      <trkpt lat="45.55911" lon="5.5843">
        <ele>320</ele>
        <time>2023-02-14T11:25:33.688Z</time>
      </trkpt>
      <trkpt lat="45.55916" lon="5.58428">
        <ele>319</ele>
        <time>2023-02-14T11:25:34.688Z</time>
      </trkpt>
      <trkpt lat="45.55921" lon="5.58427">
        <ele>319</ele>
        <time>2023-02-14T11:25:35.688Z</time>
      </trkpt>
      <trkpt lat="45.55926" lon="5.58425">
        <ele>318</ele>
        <time>2023-02-14T11:25:36.688Z</time>
      </trkpt>
      <trkpt lat="45.55931" lon="5.58422">
        <ele>318</ele>
        <time>2023-02-14T11:25:37.688Z</time>
      </trkpt>
      <trkpt lat="45.55936" lon="5.58419">
        <ele>318</ele>
        <time>2023-02-14T11:25:38.688Z</time>
      </trkpt>
      <trkpt lat="45.55941" lon="5.58416">
        <ele>318</ele>
        <time>2023-02-14T11:25:39.688Z</time>
      </trkpt>
      <trkpt lat="45.55946" lon="5.58412">
        <ele>318</ele>
        <time>2023-02-14T11:25:40.688Z</time>
      </trkpt>
      <trkpt lat="45.55951" lon="5.58408">
        <ele>318</ele>
        <time>2023-02-14T11:25:41.688Z</time>
      </trkpt>
      <trkpt lat="45.55955" lon="5.58403">
        <ele>318</ele>
        <time>2023-02-14T11:25:42.688Z</time>
      </trkpt>
      <trkpt lat="45.5596" lon="5.58398">
        <ele>317</ele>
        <time>2023-02-14T11:25:43.688Z</time>
      </trkpt>
      <trkpt lat="45.55965" lon="5.58392">
        <ele>315</ele>
        <time>2023-02-14T11:25:44.688Z</time>
      </trkpt>
      <trkpt lat="45.5597" lon="5.58387">
        <ele>315</ele>
        <time>2023-02-14T11:25:45.688Z</time>
      </trkpt>
      <trkpt lat="45.55975" lon="5.58382">
        <ele>314</ele>
        <time>2023-02-14T11:25:46.688Z</time>
      </trkpt>
      <trkpt lat="45.5598" lon="5.58376">
        <ele>312</ele>
        <time>2023-02-14T11:25:47.688Z</time>
      </trkpt>
      <trkpt lat="45.55984" lon="5.5837">
        <ele>311</ele>
        <time>2023-02-14T11:25:48.688Z</time>
      </trkpt>
      <trkpt lat="45.55989" lon="5.58364">
        <ele>311</ele>
        <time>2023-02-14T11:25:49.688Z</time>
      </trkpt>
      <trkpt lat="45.55994" lon="5.58358">
        <ele>310</ele>
        <time>2023-02-14T11:25:50.688Z</time>
      </trkpt>
      <trkpt lat="45.55998" lon="5.58352">
        <ele>309</ele>
        <time>2023-02-14T11:25:51.688Z</time>
      </trkpt>
      <trkpt lat="45.56002" lon="5.58347">
        <ele>308</ele>
        <time>2023-02-14T11:25:52.688Z</time>
      </trkpt>
      <trkpt lat="45.56006" lon="5.58342">
        <ele>307</ele>
        <time>2023-02-14T11:25:53.688Z</time>
      </trkpt>
      <trkpt lat="45.5601" lon="5.58337">
        <ele>306</ele>
        <time>2023-02-14T11:25:54.688Z</time>
      </trkpt>
      <trkpt lat="45.56015" lon="5.58332">
        <ele>306</ele>
        <time>2023-02-14T11:25:55.688Z</time>
      </trkpt>
      <trkpt lat="45.5602" lon="5.58328">
        <ele>304</ele>
        <time>2023-02-14T11:25:56.688Z</time>
      </trkpt>
      <trkpt lat="45.56024" lon="5.58325">
        <ele>304</ele>
        <time>2023-02-14T11:25:57.688Z</time>
      </trkpt>
      <trkpt lat="45.56028" lon="5.58323">
        <ele>304</ele>
        <time>2023-02-14T11:25:58.688Z</time>
      </trkpt>
      <trkpt lat="45.56031" lon="5.58321">
        <ele>304</ele>
        <time>2023-02-14T11:25:59.688Z</time>
      </trkpt>
      <trkpt lat="45.56035" lon="5.58321">
        <ele>304</ele>
        <time>2023-02-14T11:26:00.688Z</time>
      </trkpt>
      <trkpt lat="45.56039" lon="5.58322">
        <ele>304</ele>
        <time>2023-02-14T11:26:01.688Z</time>
      </trkpt>
      <trkpt lat="45.56043" lon="5.58324">
        <ele>304</ele>
        <time>2023-02-14T11:26:02.688Z</time>
      </trkpt>
      <trkpt lat="45.56047" lon="5.58328">
        <ele>304</ele>
        <time>2023-02-14T11:26:03.688Z</time>
      </trkpt>
      <trkpt lat="45.56051" lon="5.58333">
        <ele>303</ele>
        <time>2023-02-14T11:26:04.688Z</time>
      </trkpt>
      <trkpt lat="45.56056" lon="5.58339">
        <ele>303</ele>
        <time>2023-02-14T11:26:05.688Z</time>
      </trkpt>
      <trkpt lat="45.56061" lon="5.58344">
        <ele>304</ele>
        <time>2023-02-14T11:26:06.688Z</time>
      </trkpt>
      <trkpt lat="45.56066" lon="5.58348">
        <ele>305</ele>
        <time>2023-02-14T11:26:07.688Z</time>
      </trkpt>
      <trkpt lat="45.56071" lon="5.58352">
        <ele>306</ele>
        <time>2023-02-14T11:26:08.688Z</time>
      </trkpt>
      <trkpt lat="45.56076" lon="5.58355">
        <ele>307</ele>
        <time>2023-02-14T11:26:09.688Z</time>
      </trkpt>
      <trkpt lat="45.56081" lon="5.58358">
        <ele>308</ele>
        <time>2023-02-14T11:26:10.688Z</time>
      </trkpt>
      <trkpt lat="45.56087" lon="5.58361">
        <ele>309</ele>
        <time>2023-02-14T11:26:11.688Z</time>
      </trkpt>
      <trkpt lat="45.56092" lon="5.58364">
        <ele>310</ele>
        <time>2023-02-14T11:26:12.688Z</time>
      </trkpt>
      <trkpt lat="45.56098" lon="5.58366">
        <ele>310</ele>
        <time>2023-02-14T11:26:13.688Z</time>
      </trkpt>
      <trkpt lat="45.56104" lon="5.58368">
        <ele>311</ele>
        <time>2023-02-14T11:26:14.688Z</time>
      </trkpt>
      <trkpt lat="45.56109" lon="5.5837">
        <ele>313</ele>
        <time>2023-02-14T11:26:15.688Z</time>
      </trkpt>
      <trkpt lat="45.56114" lon="5.58372">
        <ele>313</ele>
        <time>2023-02-14T11:26:16.688Z</time>
      </trkpt>
      <trkpt lat="45.56121" lon="5.58373">
        <ele>314</ele>
        <time>2023-02-14T11:26:17.688Z</time>
      </trkpt>
      <trkpt lat="45.56127" lon="5.58374">
        <ele>315</ele>
        <time>2023-02-14T11:26:18.688Z</time>
      </trkpt>
      <trkpt lat="45.56133" lon="5.58374">
        <ele>316</ele>
        <time>2023-02-14T11:26:19.688Z</time>
      </trkpt>
      <trkpt lat="45.56139" lon="5.58374">
        <ele>317</ele>
        <time>2023-02-14T11:26:20.688Z</time>
      </trkpt>
      <trkpt lat="45.56146" lon="5.58374">
        <ele>317</ele>
        <time>2023-02-14T11:26:21.688Z</time>
      </trkpt>
      <trkpt lat="45.56153" lon="5.58373">
        <ele>318</ele>
        <time>2023-02-14T11:26:22.688Z</time>
      </trkpt>
      <trkpt lat="45.5616" lon="5.58373">
        <ele>318</ele>
        <time>2023-02-14T11:26:23.688Z</time>
      </trkpt>
      <trkpt lat="45.56167" lon="5.58373">
        <ele>319</ele>
        <time>2023-02-14T11:26:24.688Z</time>
      </trkpt>
      <trkpt lat="45.56174" lon="5.58372">
        <ele>319</ele>
        <time>2023-02-14T11:26:25.688Z</time>
      </trkpt>
      <trkpt lat="45.56181" lon="5.58371">
        <ele>320</ele>
        <time>2023-02-14T11:26:26.688Z</time>
      </trkpt>
      <trkpt lat="45.56188" lon="5.58371">
        <ele>321</ele>
        <time>2023-02-14T11:26:27.688Z</time>
      </trkpt>
      <trkpt lat="45.56195" lon="5.5837">
        <ele>321</ele>
        <time>2023-02-14T11:26:28.688Z</time>
      </trkpt>
      <trkpt lat="45.56202" lon="5.5837">
        <ele>323</ele>
        <time>2023-02-14T11:26:29.688Z</time>
      </trkpt>
      <trkpt lat="45.56208" lon="5.5837">
        <ele>323</ele>
        <time>2023-02-14T11:26:30.688Z</time>
      </trkpt>
      <trkpt lat="45.56215" lon="5.58371">
        <ele>324</ele>
        <time>2023-02-14T11:26:31.688Z</time>
      </trkpt>
      <trkpt lat="45.56221" lon="5.58372">
        <ele>325</ele>
        <time>2023-02-14T11:26:32.688Z</time>
      </trkpt>
      <trkpt lat="45.56227" lon="5.58374">
        <ele>326</ele>
        <time>2023-02-14T11:26:33.688Z</time>
      </trkpt>
      <trkpt lat="45.56233" lon="5.58376">
        <ele>327</ele>
        <time>2023-02-14T11:26:34.688Z</time>
      </trkpt>
      <trkpt lat="45.56238" lon="5.58377">
        <ele>328</ele>
        <time>2023-02-14T11:26:35.688Z</time>
      </trkpt>
      <trkpt lat="45.56244" lon="5.58379">
        <ele>329</ele>
        <time>2023-02-14T11:26:36.688Z</time>
      </trkpt>
      <trkpt lat="45.5625" lon="5.58382">
        <ele>329</ele>
        <time>2023-02-14T11:26:37.688Z</time>
      </trkpt>
      <trkpt lat="45.56257" lon="5.58385">
        <ele>328</ele>
        <time>2023-02-14T11:26:38.688Z</time>
      </trkpt>
      <trkpt lat="45.56263" lon="5.58388">
        <ele>325</ele>
        <time>2023-02-14T11:26:39.688Z</time>
      </trkpt>
      <trkpt lat="45.56269" lon="5.58391">
        <ele>325</ele>
        <time>2023-02-14T11:26:40.688Z</time>
      </trkpt>
      <trkpt lat="45.56275" lon="5.58393">
        <ele>324</ele>
        <time>2023-02-14T11:26:41.688Z</time>
      </trkpt>
      <trkpt lat="45.56281" lon="5.58396">
        <ele>323</ele>
        <time>2023-02-14T11:26:42.688Z</time>
      </trkpt>
      <trkpt lat="45.56287" lon="5.584">
        <ele>322</ele>
        <time>2023-02-14T11:26:43.688Z</time>
      </trkpt>
      <trkpt lat="45.56292" lon="5.58403">
        <ele>321</ele>
        <time>2023-02-14T11:26:44.688Z</time>
      </trkpt>
      <trkpt lat="45.56298" lon="5.58408">
        <ele>319</ele>
        <time>2023-02-14T11:26:45.688Z</time>
      </trkpt>
      <trkpt lat="45.56302" lon="5.58413">
        <ele>319</ele>
        <time>2023-02-14T11:26:46.688Z</time>
      </trkpt>
      <trkpt lat="45.56307" lon="5.58418">
        <ele>318</ele>
        <time>2023-02-14T11:26:47.688Z</time>
      </trkpt>
      <trkpt lat="45.56312" lon="5.58423">
        <ele>317</ele>
        <time>2023-02-14T11:26:48.688Z</time>
      </trkpt>
      <trkpt lat="45.56316" lon="5.58429">
        <ele>316</ele>
        <time>2023-02-14T11:26:49.688Z</time>
      </trkpt>
      <trkpt lat="45.56321" lon="5.58433">
        <ele>316</ele>
        <time>2023-02-14T11:26:50.688Z</time>
      </trkpt>
      <trkpt lat="45.56326" lon="5.58438">
        <ele>316</ele>
        <time>2023-02-14T11:26:51.688Z</time>
      </trkpt>
      <trkpt lat="45.56331" lon="5.58443">
        <ele>315</ele>
        <time>2023-02-14T11:26:52.688Z</time>
      </trkpt>
      <trkpt lat="45.56335" lon="5.58449">
        <ele>314</ele>
        <time>2023-02-14T11:26:53.688Z</time>
      </trkpt>
      <trkpt lat="45.56339" lon="5.58454">
        <ele>313</ele>
        <time>2023-02-14T11:26:54.688Z</time>
      </trkpt>
      <trkpt lat="45.56342" lon="5.58459">
        <ele>312</ele>
        <time>2023-02-14T11:26:55.688Z</time>
      </trkpt>
      <trkpt lat="45.56346" lon="5.58465">
        <ele>312</ele>
        <time>2023-02-14T11:26:56.688Z</time>
      </trkpt>
      <trkpt lat="45.56349" lon="5.5847">
        <ele>311</ele>
        <time>2023-02-14T11:26:57.688Z</time>
      </trkpt>
      <trkpt lat="45.56352" lon="5.58476">
        <ele>310</ele>
        <time>2023-02-14T11:26:58.688Z</time>
      </trkpt>
      <trkpt lat="45.56355" lon="5.58482">
        <ele>310</ele>
        <time>2023-02-14T11:26:59.688Z</time>
      </trkpt>
      <trkpt lat="45.56358" lon="5.58487">
        <ele>309</ele>
        <time>2023-02-14T11:27:00.688Z</time>
      </trkpt>
      <trkpt lat="45.5636" lon="5.58494">
        <ele>309</ele>
        <time>2023-02-14T11:27:01.688Z</time>
      </trkpt>
      <trkpt lat="45.56362" lon="5.585">
        <ele>308</ele>
        <time>2023-02-14T11:27:02.688Z</time>
      </trkpt>
      <trkpt lat="45.56363" lon="5.58506">
        <ele>307</ele>
        <time>2023-02-14T11:27:03.688Z</time>
      </trkpt>
      <trkpt lat="45.56365" lon="5.58512">
        <ele>306</ele>
        <time>2023-02-14T11:27:04.688Z</time>
      </trkpt>
      <trkpt lat="45.56366" lon="5.58518">
        <ele>306</ele>
        <time>2023-02-14T11:27:05.688Z</time>
      </trkpt>
      <trkpt lat="45.56367" lon="5.58524">
        <ele>305</ele>
        <time>2023-02-14T11:27:06.688Z</time>
      </trkpt>
      <trkpt lat="45.56368" lon="5.58529">
        <ele>304</ele>
        <time>2023-02-14T11:27:07.688Z</time>
      </trkpt>
      <trkpt lat="45.5637" lon="5.58534">
        <ele>304</ele>
        <time>2023-02-14T11:27:08.688Z</time>
      </trkpt>
      <trkpt lat="45.56372" lon="5.58538">
        <ele>303</ele>
        <time>2023-02-14T11:27:09.688Z</time>
      </trkpt>
      <trkpt lat="45.56374" lon="5.58542">
        <ele>303</ele>
        <time>2023-02-14T11:27:10.688Z</time>
      </trkpt>
      <trkpt lat="45.56376" lon="5.58545">
        <ele>303</ele>
        <time>2023-02-14T11:27:11.688Z</time>
      </trkpt>
      <trkpt lat="45.56379" lon="5.58547">
        <ele>302</ele>
        <time>2023-02-14T11:27:12.688Z</time>
      </trkpt>
      <trkpt lat="45.56382" lon="5.58546">
        <ele>302</ele>
        <time>2023-02-14T11:27:13.688Z</time>
      </trkpt>
      <trkpt lat="45.56385" lon="5.58544">
        <ele>301</ele>
        <time>2023-02-14T11:27:14.688Z</time>
      </trkpt>
      <trkpt lat="45.56387" lon="5.58541">
        <ele>301</ele>
        <time>2023-02-14T11:27:15.688Z</time>
      </trkpt>
      <trkpt lat="45.5639" lon="5.58538">
        <ele>300</ele>
        <time>2023-02-14T11:27:16.688Z</time>
      </trkpt>
      <trkpt lat="45.56393" lon="5.58535">
        <ele>300</ele>
        <time>2023-02-14T11:27:17.688Z</time>
      </trkpt>
      <trkpt lat="45.56395" lon="5.58531">
        <ele>300</ele>
        <time>2023-02-14T11:27:18.688Z</time>
      </trkpt>
      <trkpt lat="45.56397" lon="5.58528">
        <ele>300</ele>
        <time>2023-02-14T11:27:19.688Z</time>
      </trkpt>
      <trkpt lat="45.564" lon="5.58524">
        <ele>300</ele>
        <time>2023-02-14T11:27:20.688Z</time>
      </trkpt>
      <trkpt lat="45.56402" lon="5.58521">
        <ele>299</ele>
        <time>2023-02-14T11:27:21.688Z</time>
      </trkpt>
      <trkpt lat="45.56405" lon="5.58517">
        <ele>299</ele>
        <time>2023-02-14T11:27:22.688Z</time>
      </trkpt>
      <trkpt lat="45.56407" lon="5.58513">
        <ele>299</ele>
        <time>2023-02-14T11:27:23.688Z</time>
      </trkpt>
      <trkpt lat="45.5641" lon="5.58509">
        <ele>299</ele>
        <time>2023-02-14T11:27:24.688Z</time>
      </trkpt>
      <trkpt lat="45.56412" lon="5.58505">
        <ele>298</ele>
        <time>2023-02-14T11:27:25.688Z</time>
      </trkpt>
      <trkpt lat="45.56415" lon="5.58501">
        <ele>298</ele>
        <time>2023-02-14T11:27:26.688Z</time>
      </trkpt>
      <trkpt lat="45.56417" lon="5.58498">
        <ele>298</ele>
        <time>2023-02-14T11:27:27.688Z</time>
      </trkpt>
      <trkpt lat="45.5642" lon="5.58494">
        <ele>298</ele>
        <time>2023-02-14T11:27:28.688Z</time>
      </trkpt>
      <trkpt lat="45.56423" lon="5.58489">
        <ele>297</ele>
        <time>2023-02-14T11:27:29.688Z</time>
      </trkpt>
      <trkpt lat="45.56426" lon="5.58485">
        <ele>297</ele>
        <time>2023-02-14T11:27:30.688Z</time>
      </trkpt>
      <trkpt lat="45.56428" lon="5.58481">
        <ele>297</ele>
        <time>2023-02-14T11:27:31.688Z</time>
      </trkpt>
      <trkpt lat="45.56431" lon="5.58477">
        <ele>297</ele>
        <time>2023-02-14T11:27:32.688Z</time>
      </trkpt>
      <trkpt lat="45.56434" lon="5.58472">
        <ele>297</ele>
        <time>2023-02-14T11:27:33.688Z</time>
      </trkpt>
      <trkpt lat="45.56437" lon="5.58468">
        <ele>297</ele>
        <time>2023-02-14T11:27:34.688Z</time>
      </trkpt>
      <trkpt lat="45.5644" lon="5.58463">
        <ele>297</ele>
        <time>2023-02-14T11:27:35.688Z</time>
      </trkpt>
      <trkpt lat="45.56443" lon="5.58458">
        <ele>297</ele>
        <time>2023-02-14T11:27:36.688Z</time>
      </trkpt>
      <trkpt lat="45.56445" lon="5.58452">
        <ele>297</ele>
        <time>2023-02-14T11:27:37.688Z</time>
      </trkpt>
      <trkpt lat="45.56448" lon="5.58447">
        <ele>297</ele>
        <time>2023-02-14T11:27:38.688Z</time>
      </trkpt>
      <trkpt lat="45.56451" lon="5.58442">
        <ele>297</ele>
        <time>2023-02-14T11:27:39.688Z</time>
      </trkpt>
      <trkpt lat="45.56453" lon="5.58437">
        <ele>297</ele>
        <time>2023-02-14T11:27:40.688Z</time>
      </trkpt>
      <trkpt lat="45.56456" lon="5.58432">
        <ele>297</ele>
        <time>2023-02-14T11:27:41.688Z</time>
      </trkpt>
      <trkpt lat="45.56458" lon="5.58427">
        <ele>297</ele>
        <time>2023-02-14T11:27:42.688Z</time>
      </trkpt>
      <trkpt lat="45.56461" lon="5.58421">
        <ele>297</ele>
        <time>2023-02-14T11:27:43.688Z</time>
      </trkpt>
      <trkpt lat="45.56464" lon="5.58416">
        <ele>297</ele>
        <time>2023-02-14T11:27:44.688Z</time>
      </trkpt>
      <trkpt lat="45.56467" lon="5.5841">
        <ele>296</ele>
        <time>2023-02-14T11:27:45.688Z</time>
      </trkpt>
      <trkpt lat="45.56469" lon="5.58405">
        <ele>296</ele>
        <time>2023-02-14T11:27:46.688Z</time>
      </trkpt>
      <trkpt lat="45.56471" lon="5.58399">
        <ele>296</ele>
        <time>2023-02-14T11:27:47.688Z</time>
      </trkpt>
      <trkpt lat="45.56474" lon="5.58393">
        <ele>296</ele>
        <time>2023-02-14T11:27:48.688Z</time>
      </trkpt>
      <trkpt lat="45.56476" lon="5.58388">
        <ele>295</ele>
        <time>2023-02-14T11:27:49.688Z</time>
      </trkpt>
      <trkpt lat="45.56478" lon="5.58381">
        <ele>295</ele>
        <time>2023-02-14T11:27:50.688Z</time>
      </trkpt>
      <trkpt lat="45.5648" lon="5.58376">
        <ele>294</ele>
        <time>2023-02-14T11:27:51.688Z</time>
      </trkpt>
      <trkpt lat="45.56483" lon="5.58369">
        <ele>294</ele>
        <time>2023-02-14T11:27:52.688Z</time>
      </trkpt>
      <trkpt lat="45.56486" lon="5.58363">
        <ele>293</ele>
        <time>2023-02-14T11:27:53.688Z</time>
      </trkpt>
      <trkpt lat="45.56489" lon="5.58357">
        <ele>293</ele>
        <time>2023-02-14T11:27:54.688Z</time>
      </trkpt>
      <trkpt lat="45.56493" lon="5.58351">
        <ele>293</ele>
        <time>2023-02-14T11:27:55.688Z</time>
      </trkpt>
      <trkpt lat="45.56496" lon="5.58345">
        <ele>292</ele>
        <time>2023-02-14T11:27:56.688Z</time>
      </trkpt>
      <trkpt lat="45.565" lon="5.58339">
        <ele>291</ele>
        <time>2023-02-14T11:27:57.688Z</time>
      </trkpt>
      <trkpt lat="45.56504" lon="5.58334">
        <ele>290</ele>
        <time>2023-02-14T11:27:58.688Z</time>
      </trkpt>
      <trkpt lat="45.56508" lon="5.58329">
        <ele>289</ele>
        <time>2023-02-14T11:27:59.688Z</time>
      </trkpt>
      <trkpt lat="45.56512" lon="5.58324">
        <ele>287</ele>
        <time>2023-02-14T11:28:00.688Z</time>
      </trkpt>
      <trkpt lat="45.56516" lon="5.58319">
        <ele>287</ele>
        <time>2023-02-14T11:28:01.688Z</time>
      </trkpt>
      <trkpt lat="45.5652" lon="5.58314">
        <ele>286</ele>
        <time>2023-02-14T11:28:02.688Z</time>
      </trkpt>
      <trkpt lat="45.56523" lon="5.58309">
        <ele>285</ele>
        <time>2023-02-14T11:28:03.688Z</time>
      </trkpt>
      <trkpt lat="45.56527" lon="5.58304">
        <ele>284</ele>
        <time>2023-02-14T11:28:04.688Z</time>
      </trkpt>
      <trkpt lat="45.56531" lon="5.583">
        <ele>283</ele>
        <time>2023-02-14T11:28:05.688Z</time>
      </trkpt>
      <trkpt lat="45.56535" lon="5.58295">
        <ele>283</ele>
        <time>2023-02-14T11:28:06.688Z</time>
      </trkpt>
      <trkpt lat="45.56539" lon="5.5829">
        <ele>283</ele>
        <time>2023-02-14T11:28:07.688Z</time>
      </trkpt>
      <trkpt lat="45.56544" lon="5.58285">
        <ele>284</ele>
        <time>2023-02-14T11:28:08.688Z</time>
      </trkpt>
      <trkpt lat="45.56548" lon="5.58279">
        <ele>285</ele>
        <time>2023-02-14T11:28:09.688Z</time>
      </trkpt>
      <trkpt lat="45.56552" lon="5.58274">
        <ele>285</ele>
        <time>2023-02-14T11:28:10.688Z</time>
      </trkpt>
      <trkpt lat="45.56556" lon="5.58269">
        <ele>285</ele>
        <time>2023-02-14T11:28:11.688Z</time>
      </trkpt>
      <trkpt lat="45.5656" lon="5.58264">
        <ele>285</ele>
        <time>2023-02-14T11:28:12.688Z</time>
      </trkpt>
      <trkpt lat="45.56564" lon="5.58258">
        <ele>285</ele>
        <time>2023-02-14T11:28:13.688Z</time>
      </trkpt>
      <trkpt lat="45.56567" lon="5.58253">
        <ele>284</ele>
        <time>2023-02-14T11:28:14.688Z</time>
      </trkpt>
      <trkpt lat="45.56571" lon="5.58248">
        <ele>284</ele>
        <time>2023-02-14T11:28:15.688Z</time>
      </trkpt>
      <trkpt lat="45.56575" lon="5.58242">
        <ele>283</ele>
        <time>2023-02-14T11:28:16.688Z</time>
      </trkpt>
      <trkpt lat="45.56578" lon="5.58237">
        <ele>283</ele>
        <time>2023-02-14T11:28:17.688Z</time>
      </trkpt>
      <trkpt lat="45.56582" lon="5.58232">
        <ele>283</ele>
        <time>2023-02-14T11:28:18.688Z</time>
      </trkpt>
      <trkpt lat="45.56586" lon="5.58226">
        <ele>283</ele>
        <time>2023-02-14T11:28:19.688Z</time>
      </trkpt>
      <trkpt lat="45.5659" lon="5.5822">
        <ele>282</ele>
        <time>2023-02-14T11:28:20.688Z</time>
      </trkpt>
      <trkpt lat="45.56594" lon="5.58215">
        <ele>282</ele>
        <time>2023-02-14T11:28:21.688Z</time>
      </trkpt>
      <trkpt lat="45.56598" lon="5.58209">
        <ele>282</ele>
        <time>2023-02-14T11:28:22.688Z</time>
      </trkpt>
      <trkpt lat="45.56601" lon="5.58203">
        <ele>281</ele>
        <time>2023-02-14T11:28:23.688Z</time>
      </trkpt>
      <trkpt lat="45.56605" lon="5.58197">
        <ele>281</ele>
        <time>2023-02-14T11:28:24.688Z</time>
      </trkpt>
      <trkpt lat="45.56609" lon="5.58191">
        <ele>281</ele>
        <time>2023-02-14T11:28:25.688Z</time>
      </trkpt>
      <trkpt lat="45.56613" lon="5.58185">
        <ele>281</ele>
        <time>2023-02-14T11:28:26.688Z</time>
      </trkpt>
      <trkpt lat="45.56617" lon="5.58179">
        <ele>281</ele>
        <time>2023-02-14T11:28:27.688Z</time>
      </trkpt>
      <trkpt lat="45.56621" lon="5.58173">
        <ele>281</ele>
        <time>2023-02-14T11:28:28.688Z</time>
      </trkpt>
      <trkpt lat="45.56624" lon="5.58167">
        <ele>282</ele>
        <time>2023-02-14T11:28:29.688Z</time>
      </trkpt>
      <trkpt lat="45.56628" lon="5.5816">
        <ele>281</ele>
        <time>2023-02-14T11:28:30.688Z</time>
      </trkpt>
      <trkpt lat="45.56631" lon="5.58154">
        <ele>281</ele>
        <time>2023-02-14T11:28:31.688Z</time>
      </trkpt>
      <trkpt lat="45.56634" lon="5.58148">
        <ele>281</ele>
        <time>2023-02-14T11:28:32.688Z</time>
      </trkpt>
      <trkpt lat="45.56638" lon="5.58142">
        <ele>282</ele>
        <time>2023-02-14T11:28:33.688Z</time>
      </trkpt>
      <trkpt lat="45.56642" lon="5.58135">
        <ele>281</ele>
        <time>2023-02-14T11:28:34.688Z</time>
      </trkpt>
      <trkpt lat="45.56646" lon="5.58129">
        <ele>281</ele>
        <time>2023-02-14T11:28:35.688Z</time>
      </trkpt>
      <trkpt lat="45.56649" lon="5.58122">
        <ele>281</ele>
        <time>2023-02-14T11:28:36.688Z</time>
      </trkpt>
      <trkpt lat="45.56653" lon="5.58116">
        <ele>281</ele>
        <time>2023-02-14T11:28:37.688Z</time>
      </trkpt>
      <trkpt lat="45.56657" lon="5.5811">
        <ele>281</ele>
        <time>2023-02-14T11:28:38.688Z</time>
      </trkpt>
      <trkpt lat="45.56661" lon="5.58104">
        <ele>281</ele>
        <time>2023-02-14T11:28:39.688Z</time>
      </trkpt>
      <trkpt lat="45.56665" lon="5.58098">
        <ele>281</ele>
        <time>2023-02-14T11:28:40.688Z</time>
      </trkpt>
      <trkpt lat="45.56668" lon="5.58093">
        <ele>281</ele>
        <time>2023-02-14T11:28:41.688Z</time>
      </trkpt>
      <trkpt lat="45.56672" lon="5.58088">
        <ele>280</ele>
        <time>2023-02-14T11:28:42.688Z</time>
      </trkpt>
      <trkpt lat="45.56677" lon="5.58083">
        <ele>280</ele>
        <time>2023-02-14T11:28:43.688Z</time>
      </trkpt>
      <trkpt lat="45.56681" lon="5.5808">
        <ele>279</ele>
        <time>2023-02-14T11:28:44.688Z</time>
      </trkpt>
      <trkpt lat="45.56686" lon="5.58078">
        <ele>278</ele>
        <time>2023-02-14T11:28:45.688Z</time>
      </trkpt>
      <trkpt lat="45.56692" lon="5.58078">
        <ele>278</ele>
        <time>2023-02-14T11:28:46.688Z</time>
      </trkpt>
      <trkpt lat="45.56697" lon="5.58079">
        <ele>278</ele>
        <time>2023-02-14T11:28:47.688Z</time>
      </trkpt>
      <trkpt lat="45.56703" lon="5.5808">
        <ele>279</ele>
        <time>2023-02-14T11:28:48.688Z</time>
      </trkpt>
      <trkpt lat="45.56709" lon="5.58082">
        <ele>279</ele>
        <time>2023-02-14T11:28:49.688Z</time>
      </trkpt>
      <trkpt lat="45.56715" lon="5.58084">
        <ele>279</ele>
        <time>2023-02-14T11:28:50.688Z</time>
      </trkpt>
      <trkpt lat="45.56721" lon="5.58086">
        <ele>279</ele>
        <time>2023-02-14T11:28:51.688Z</time>
      </trkpt>
      <trkpt lat="45.56727" lon="5.58088">
        <ele>279</ele>
        <time>2023-02-14T11:28:52.688Z</time>
      </trkpt>
      <trkpt lat="45.56734" lon="5.5809">
        <ele>279</ele>
        <time>2023-02-14T11:28:53.688Z</time>
      </trkpt>
      <trkpt lat="45.5674" lon="5.58092">
        <ele>278</ele>
        <time>2023-02-14T11:28:54.688Z</time>
      </trkpt>
      <trkpt lat="45.56746" lon="5.58094">
        <ele>278</ele>
        <time>2023-02-14T11:28:55.688Z</time>
      </trkpt>
      <trkpt lat="45.56752" lon="5.58096">
        <ele>278</ele>
        <time>2023-02-14T11:28:56.688Z</time>
      </trkpt>
      <trkpt lat="45.56759" lon="5.58098">
        <ele>278</ele>
        <time>2023-02-14T11:28:57.688Z</time>
      </trkpt>
      <trkpt lat="45.56765" lon="5.581">
        <ele>278</ele>
        <time>2023-02-14T11:28:58.688Z</time>
      </trkpt>
      <trkpt lat="45.56771" lon="5.58102">
        <ele>277</ele>
        <time>2023-02-14T11:28:59.688Z</time>
      </trkpt>
      <trkpt lat="45.56777" lon="5.58104">
        <ele>277</ele>
        <time>2023-02-14T11:29:00.688Z</time>
      </trkpt>
      <trkpt lat="45.56784" lon="5.58106">
        <ele>277</ele>
        <time>2023-02-14T11:29:01.688Z</time>
      </trkpt>
      <trkpt lat="45.5679" lon="5.58108">
        <ele>277</ele>
        <time>2023-02-14T11:29:02.688Z</time>
      </trkpt>
      <trkpt lat="45.56797" lon="5.5811">
        <ele>277</ele>
        <time>2023-02-14T11:29:03.688Z</time>
      </trkpt>
      <trkpt lat="45.56803" lon="5.58112">
        <ele>276</ele>
        <time>2023-02-14T11:29:04.688Z</time>
      </trkpt>
      <trkpt lat="45.5681" lon="5.58113">
        <ele>275</ele>
        <time>2023-02-14T11:29:05.688Z</time>
      </trkpt>
      <trkpt lat="45.56816" lon="5.58115">
        <ele>275</ele>
        <time>2023-02-14T11:29:06.688Z</time>
      </trkpt>
      <trkpt lat="45.56822" lon="5.58117">
        <ele>274</ele>
        <time>2023-02-14T11:29:07.688Z</time>
      </trkpt>
      <trkpt lat="45.56828" lon="5.58119">
        <ele>274</ele>
        <time>2023-02-14T11:29:08.688Z</time>
      </trkpt>
      <trkpt lat="45.56834" lon="5.58122">
        <ele>274</ele>
        <time>2023-02-14T11:29:09.688Z</time>
      </trkpt>
      <trkpt lat="45.5684" lon="5.58124">
        <ele>272</ele>
        <time>2023-02-14T11:29:10.688Z</time>
      </trkpt>
      <trkpt lat="45.56846" lon="5.58126">
        <ele>272</ele>
        <time>2023-02-14T11:29:11.688Z</time>
      </trkpt>
      <trkpt lat="45.56852" lon="5.58129">
        <ele>271</ele>
        <time>2023-02-14T11:29:12.688Z</time>
      </trkpt>
      <trkpt lat="45.56858" lon="5.58131">
        <ele>272</ele>
        <time>2023-02-14T11:29:13.688Z</time>
      </trkpt>
      <trkpt lat="45.56864" lon="5.58134">
        <ele>272</ele>
        <time>2023-02-14T11:29:14.688Z</time>
      </trkpt>
      <trkpt lat="45.56871" lon="5.58136">
        <ele>272</ele>
        <time>2023-02-14T11:29:15.688Z</time>
      </trkpt>
      <trkpt lat="45.56877" lon="5.58139">
        <ele>273</ele>
        <time>2023-02-14T11:29:16.688Z</time>
      </trkpt>
      <trkpt lat="45.56884" lon="5.58142">
        <ele>273</ele>
        <time>2023-02-14T11:29:17.688Z</time>
      </trkpt>
      <trkpt lat="45.5689" lon="5.58145">
        <ele>273</ele>
        <time>2023-02-14T11:29:18.688Z</time>
      </trkpt>
      <trkpt lat="45.56896" lon="5.58147">
        <ele>273</ele>
        <time>2023-02-14T11:29:19.688Z</time>
      </trkpt>
      <trkpt lat="45.56902" lon="5.58149">
        <ele>273</ele>
        <time>2023-02-14T11:29:20.688Z</time>
      </trkpt>
      <trkpt lat="45.56908" lon="5.58152">
        <ele>273</ele>
        <time>2023-02-14T11:29:21.688Z</time>
      </trkpt>
      <trkpt lat="45.56914" lon="5.58155">
        <ele>273</ele>
        <time>2023-02-14T11:29:22.688Z</time>
      </trkpt>
      <trkpt lat="45.56919" lon="5.58158">
        <ele>273</ele>
        <time>2023-02-14T11:29:23.688Z</time>
      </trkpt>
      <trkpt lat="45.56924" lon="5.58163">
        <ele>274</ele>
        <time>2023-02-14T11:29:24.688Z</time>
      </trkpt>
      <trkpt lat="45.56928" lon="5.58167">
        <ele>273</ele>
        <time>2023-02-14T11:29:25.688Z</time>
      </trkpt>
      <trkpt lat="45.56932" lon="5.58171">
        <ele>273</ele>
        <time>2023-02-14T11:29:26.688Z</time>
      </trkpt>
      <trkpt lat="45.56937" lon="5.58176">
        <ele>273</ele>
        <time>2023-02-14T11:29:27.688Z</time>
      </trkpt>
      <trkpt lat="45.56941" lon="5.5818">
        <ele>273</ele>
        <time>2023-02-14T11:29:28.688Z</time>
      </trkpt>
      <trkpt lat="45.56945" lon="5.58185">
        <ele>273</ele>
        <time>2023-02-14T11:29:29.688Z</time>
      </trkpt>
      <trkpt lat="45.56948" lon="5.5819">
        <ele>273</ele>
        <time>2023-02-14T11:29:30.688Z</time>
      </trkpt>
      <trkpt lat="45.56951" lon="5.58195">
        <ele>273</ele>
        <time>2023-02-14T11:29:31.688Z</time>
      </trkpt>
      <trkpt lat="45.56953" lon="5.58201">
        <ele>274</ele>
        <time>2023-02-14T11:29:32.688Z</time>
      </trkpt>
      <trkpt lat="45.56956" lon="5.58206">
        <ele>274</ele>
        <time>2023-02-14T11:29:33.688Z</time>
      </trkpt>
      <trkpt lat="45.56958" lon="5.58212">
        <ele>275</ele>
        <time>2023-02-14T11:29:34.688Z</time>
      </trkpt>
      <trkpt lat="45.56961" lon="5.58217">
        <ele>275</ele>
        <time>2023-02-14T11:29:35.688Z</time>
      </trkpt>
      <trkpt lat="45.56963" lon="5.58221">
        <ele>275</ele>
        <time>2023-02-14T11:29:36.688Z</time>
      </trkpt>
      <trkpt lat="45.56964" lon="5.58226">
        <ele>275</ele>
        <time>2023-02-14T11:29:37.688Z</time>
      </trkpt>
      <trkpt lat="45.56965" lon="5.5823">
        <ele>275</ele>
        <time>2023-02-14T11:29:38.688Z</time>
      </trkpt>
      <trkpt lat="45.56966" lon="5.58233">
        <ele>275</ele>
        <time>2023-02-14T11:29:39.688Z</time>
      </trkpt>
      <trkpt lat="45.56967" lon="5.58236">
        <ele>276</ele>
        <time>2023-02-14T11:29:40.688Z</time>
      </trkpt>
      <trkpt lat="45.56968" lon="5.58239">
        <ele>276</ele>
        <time>2023-02-14T11:29:41.688Z</time>
      </trkpt>
      <trkpt lat="45.56969" lon="5.58242">
        <ele>276</ele>
        <time>2023-02-14T11:29:42.688Z</time>
      </trkpt>
      <trkpt lat="45.56969" lon="5.58245">
        <ele>275</ele>
        <time>2023-02-14T11:29:43.688Z</time>
      </trkpt>
      <trkpt lat="45.5697" lon="5.58248">
        <ele>276</ele>
        <time>2023-02-14T11:29:44.688Z</time>
      </trkpt>
      <trkpt lat="45.5697" lon="5.58251">
        <ele>276</ele>
        <time>2023-02-14T11:29:45.688Z</time>
      </trkpt>
      <trkpt lat="45.56971" lon="5.58254">
        <ele>276</ele>
        <time>2023-02-14T11:29:46.688Z</time>
      </trkpt>
      <trkpt lat="45.56972" lon="5.58257">
        <ele>277</ele>
        <time>2023-02-14T11:29:47.688Z</time>
      </trkpt>
      <trkpt lat="45.56972" lon="5.5826">
        <ele>277</ele>
        <time>2023-02-14T11:29:48.688Z</time>
      </trkpt>
      <trkpt lat="45.56973" lon="5.58263">
        <ele>277</ele>
        <time>2023-02-14T11:29:49.688Z</time>
      </trkpt>
      <trkpt lat="45.56973" lon="5.58266">
        <ele>277</ele>
        <time>2023-02-14T11:29:50.688Z</time>
      </trkpt>
      <trkpt lat="45.56974" lon="5.58269">
        <ele>278</ele>
        <time>2023-02-14T11:29:51.688Z</time>
      </trkpt>
      <trkpt lat="45.56974" lon="5.58273">
        <ele>278</ele>
        <time>2023-02-14T11:29:52.688Z</time>
      </trkpt>
      <trkpt lat="45.56975" lon="5.58276">
        <ele>278</ele>
        <time>2023-02-14T11:29:53.688Z</time>
      </trkpt>
      <trkpt lat="45.56975" lon="5.58279">
        <ele>279</ele>
        <time>2023-02-14T11:29:54.688Z</time>
      </trkpt>
      <trkpt lat="45.56975" lon="5.58282">
        <ele>279</ele>
        <time>2023-02-14T11:29:55.688Z</time>
      </trkpt>
      <trkpt lat="45.56975" lon="5.58286">
        <ele>279</ele>
        <time>2023-02-14T11:29:56.688Z</time>
      </trkpt>
      <trkpt lat="45.56976" lon="5.58289">
        <ele>280</ele>
        <time>2023-02-14T11:29:57.688Z</time>
      </trkpt>
      <trkpt lat="45.56976" lon="5.58292">
        <ele>280</ele>
        <time>2023-02-14T11:29:58.688Z</time>
      </trkpt>
      <trkpt lat="45.56976" lon="5.58295">
        <ele>280</ele>
        <time>2023-02-14T11:29:59.688Z</time>
      </trkpt>
      <trkpt lat="45.56977" lon="5.58298">
        <ele>281</ele>
        <time>2023-02-14T11:30:00.688Z</time>
      </trkpt>
      <trkpt lat="45.56977" lon="5.58301">
        <ele>281</ele>
        <time>2023-02-14T11:30:01.688Z</time>
      </trkpt>
      <trkpt lat="45.56977" lon="5.58304">
        <ele>281</ele>
        <time>2023-02-14T11:30:02.688Z</time>
      </trkpt>
      <trkpt lat="45.56977" lon="5.58307">
        <ele>281</ele>
        <time>2023-02-14T11:30:03.688Z</time>
      </trkpt>
      <trkpt lat="45.56978" lon="5.5831">
        <ele>281</ele>
        <time>2023-02-14T11:30:04.688Z</time>
      </trkpt>
      <trkpt lat="45.56978" lon="5.58313">
        <ele>281</ele>
        <time>2023-02-14T11:30:05.688Z</time>
      </trkpt>
      <trkpt lat="45.56979" lon="5.58316">
        <ele>281</ele>
        <time>2023-02-14T11:30:06.688Z</time>
      </trkpt>
      <trkpt lat="45.56979" lon="5.5832">
        <ele>281</ele>
        <time>2023-02-14T11:30:07.688Z</time>
      </trkpt>
      <trkpt lat="45.56979" lon="5.58323">
        <ele>282</ele>
        <time>2023-02-14T11:30:08.688Z</time>
      </trkpt>
      <trkpt lat="45.56979" lon="5.58326">
        <ele>282</ele>
        <time>2023-02-14T11:30:09.688Z</time>
      </trkpt>
      <trkpt lat="45.5698" lon="5.5833">
        <ele>282</ele>
        <time>2023-02-14T11:30:10.688Z</time>
      </trkpt>
      <trkpt lat="45.5698" lon="5.58333">
        <ele>282</ele>
        <time>2023-02-14T11:30:11.688Z</time>
      </trkpt>
      <trkpt lat="45.5698" lon="5.58336">
        <ele>282</ele>
        <time>2023-02-14T11:30:12.688Z</time>
      </trkpt>
      <trkpt lat="45.5698" lon="5.58339">
        <ele>282</ele>
        <time>2023-02-14T11:30:13.688Z</time>
      </trkpt>
      <trkpt lat="45.56981" lon="5.58343">
        <ele>282</ele>
        <time>2023-02-14T11:30:14.688Z</time>
      </trkpt>
      <trkpt lat="45.56981" lon="5.58346">
        <ele>282</ele>
        <time>2023-02-14T11:30:15.688Z</time>
      </trkpt>
      <trkpt lat="45.56982" lon="5.5835">
        <ele>281</ele>
        <time>2023-02-14T11:30:16.688Z</time>
      </trkpt>
      <trkpt lat="45.56983" lon="5.58355">
        <ele>281</ele>
        <time>2023-02-14T11:30:17.688Z</time>
      </trkpt>
      <trkpt lat="45.56983" lon="5.58359">
        <ele>281</ele>
        <time>2023-02-14T11:30:18.688Z</time>
      </trkpt>
      <trkpt lat="45.56983" lon="5.58364">
        <ele>281</ele>
        <time>2023-02-14T11:30:19.688Z</time>
      </trkpt>
      <trkpt lat="45.56983" lon="5.5837">
        <ele>281</ele>
        <time>2023-02-14T11:30:20.688Z</time>
      </trkpt>
      <trkpt lat="45.56982" lon="5.58375">
        <ele>281</ele>
        <time>2023-02-14T11:30:21.688Z</time>
      </trkpt>
      <trkpt lat="45.56981" lon="5.5838">
        <ele>281</ele>
        <time>2023-02-14T11:30:22.688Z</time>
      </trkpt>
      <trkpt lat="45.5698" lon="5.58384">
        <ele>281</ele>
        <time>2023-02-14T11:30:23.688Z</time>
      </trkpt>
      <trkpt lat="45.56979" lon="5.58388">
        <ele>282</ele>
        <time>2023-02-14T11:30:24.688Z</time>
      </trkpt>
      <trkpt lat="45.56978" lon="5.58392">
        <ele>282</ele>
        <time>2023-02-14T11:30:25.688Z</time>
      </trkpt>
      <trkpt lat="45.56976" lon="5.58395">
        <ele>281</ele>
        <time>2023-02-14T11:30:26.688Z</time>
      </trkpt>
      <trkpt lat="45.56975" lon="5.58399">
        <ele>281</ele>
        <time>2023-02-14T11:30:27.688Z</time>
      </trkpt>
      <trkpt lat="45.56973" lon="5.58403">
        <ele>282</ele>
        <time>2023-02-14T11:30:28.688Z</time>
      </trkpt>
      <trkpt lat="45.56972" lon="5.58407">
        <ele>282</ele>
        <time>2023-02-14T11:30:29.688Z</time>
      </trkpt>
      <trkpt lat="45.56971" lon="5.58411">
        <ele>282</ele>
        <time>2023-02-14T11:30:30.688Z</time>
      </trkpt>
      <trkpt lat="45.5697" lon="5.58415">
        <ele>282</ele>
        <time>2023-02-14T11:30:31.688Z</time>
      </trkpt>
      <trkpt lat="45.56969" lon="5.58419">
        <ele>282</ele>
        <time>2023-02-14T11:30:32.688Z</time>
      </trkpt>
      <trkpt lat="45.56969" lon="5.58423">
        <ele>282</ele>
        <time>2023-02-14T11:30:33.688Z</time>
      </trkpt>
      <trkpt lat="45.56969" lon="5.58428">
        <ele>282</ele>
        <time>2023-02-14T11:30:34.688Z</time>
      </trkpt>
      <trkpt lat="45.56969" lon="5.58433">
        <ele>282</ele>
        <time>2023-02-14T11:30:35.688Z</time>
      </trkpt>
      <trkpt lat="45.56969" lon="5.58437">
        <ele>282</ele>
        <time>2023-02-14T11:30:36.688Z</time>
      </trkpt>
      <trkpt lat="45.56969" lon="5.58443">
        <ele>282</ele>
        <time>2023-02-14T11:30:37.688Z</time>
      </trkpt>
      <trkpt lat="45.56969" lon="5.58449">
        <ele>282</ele>
        <time>2023-02-14T11:30:38.688Z</time>
      </trkpt>
      <trkpt lat="45.56969" lon="5.58455">
        <ele>281</ele>
        <time>2023-02-14T11:30:39.688Z</time>
      </trkpt>
      <trkpt lat="45.56969" lon="5.58462">
        <ele>281</ele>
        <time>2023-02-14T11:30:40.688Z</time>
      </trkpt>
      <trkpt lat="45.56968" lon="5.5847">
        <ele>280</ele>
        <time>2023-02-14T11:30:41.688Z</time>
      </trkpt>
      <trkpt lat="45.56968" lon="5.58478">
        <ele>280</ele>
        <time>2023-02-14T11:30:42.688Z</time>
      </trkpt>
      <trkpt lat="45.56968" lon="5.58486">
        <ele>280</ele>
        <time>2023-02-14T11:30:43.688Z</time>
      </trkpt>
      <trkpt lat="45.56967" lon="5.58495">
        <ele>280</ele>
        <time>2023-02-14T11:30:44.688Z</time>
      </trkpt>
      <trkpt lat="45.56966" lon="5.58503">
        <ele>279</ele>
        <time>2023-02-14T11:30:45.688Z</time>
      </trkpt>
      <trkpt lat="45.56966" lon="5.58512">
        <ele>279</ele>
        <time>2023-02-14T11:30:46.688Z</time>
      </trkpt>
      <trkpt lat="45.56965" lon="5.58521">
        <ele>278</ele>
        <time>2023-02-14T11:30:47.688Z</time>
      </trkpt>
      <trkpt lat="45.56964" lon="5.5853">
        <ele>278</ele>
        <time>2023-02-14T11:30:48.688Z</time>
      </trkpt>
      <trkpt lat="45.56963" lon="5.58539">
        <ele>278</ele>
        <time>2023-02-14T11:30:49.688Z</time>
      </trkpt>
      <trkpt lat="45.56962" lon="5.58547">
        <ele>278</ele>
        <time>2023-02-14T11:30:50.688Z</time>
      </trkpt>
      <trkpt lat="45.56961" lon="5.58555">
        <ele>278</ele>
        <time>2023-02-14T11:30:51.688Z</time>
      </trkpt>
      <trkpt lat="45.5696" lon="5.58563">
        <ele>278</ele>
        <time>2023-02-14T11:30:52.688Z</time>
      </trkpt>
      <trkpt lat="45.56958" lon="5.5857">
        <ele>279</ele>
        <time>2023-02-14T11:30:53.688Z</time>
      </trkpt>
      <trkpt lat="45.56956" lon="5.58577">
        <ele>280</ele>
        <time>2023-02-14T11:30:54.688Z</time>
      </trkpt>
      <trkpt lat="45.56954" lon="5.58582">
        <ele>279</ele>
        <time>2023-02-14T11:30:55.688Z</time>
      </trkpt>
      <trkpt lat="45.56953" lon="5.58587">
        <ele>280</ele>
        <time>2023-02-14T11:30:56.688Z</time>
      </trkpt>
      <trkpt lat="45.56951" lon="5.58592">
        <ele>280</ele>
        <time>2023-02-14T11:30:57.688Z</time>
      </trkpt>
      <trkpt lat="45.5695" lon="5.58596">
        <ele>280</ele>
        <time>2023-02-14T11:30:58.688Z</time>
      </trkpt>
      <trkpt lat="45.56949" lon="5.58599">
        <ele>281</ele>
        <time>2023-02-14T11:30:59.688Z</time>
      </trkpt>
      <trkpt lat="45.56948" lon="5.58603">
        <ele>282</ele>
        <time>2023-02-14T11:31:00.688Z</time>
      </trkpt>
      <trkpt lat="45.56947" lon="5.58606">
        <ele>282</ele>
        <time>2023-02-14T11:31:01.688Z</time>
      </trkpt>
      <trkpt lat="45.56946" lon="5.58609">
        <ele>282</ele>
        <time>2023-02-14T11:31:02.688Z</time>
      </trkpt>
      <trkpt lat="45.56946" lon="5.58612">
        <ele>282</ele>
        <time>2023-02-14T11:31:03.688Z</time>
      </trkpt>
      <trkpt lat="45.56945" lon="5.58614">
        <ele>282</ele>
        <time>2023-02-14T11:31:04.688Z</time>
      </trkpt>
      <trkpt lat="45.56944" lon="5.58617">
        <ele>282</ele>
        <time>2023-02-14T11:31:05.688Z</time>
      </trkpt>
      <trkpt lat="45.56943" lon="5.5862">
        <ele>282</ele>
        <time>2023-02-14T11:31:06.688Z</time>
      </trkpt>
      <trkpt lat="45.56942" lon="5.58623">
        <ele>283</ele>
        <time>2023-02-14T11:31:07.688Z</time>
      </trkpt>
      <trkpt lat="45.56942" lon="5.58627">
        <ele>283</ele>
        <time>2023-02-14T11:31:08.688Z</time>
      </trkpt>
      <trkpt lat="45.56941" lon="5.5863">
        <ele>283</ele>
        <time>2023-02-14T11:31:09.688Z</time>
      </trkpt>
      <trkpt lat="45.5694" lon="5.58633">
        <ele>283</ele>
        <time>2023-02-14T11:31:10.688Z</time>
      </trkpt>
      <trkpt lat="45.56939" lon="5.58636">
        <ele>283</ele>
        <time>2023-02-14T11:31:11.688Z</time>
      </trkpt>
      <trkpt lat="45.56939" lon="5.58639">
        <ele>283</ele>
        <time>2023-02-14T11:31:12.688Z</time>
      </trkpt>
      <trkpt lat="45.56938" lon="5.58643">
        <ele>284</ele>
        <time>2023-02-14T11:31:13.688Z</time>
      </trkpt>
      <trkpt lat="45.56937" lon="5.58646">
        <ele>284</ele>
        <time>2023-02-14T11:31:14.688Z</time>
      </trkpt>
      <trkpt lat="45.56937" lon="5.58649">
        <ele>284</ele>
        <time>2023-02-14T11:31:15.688Z</time>
      </trkpt>
      <trkpt lat="45.56936" lon="5.58653">
        <ele>284</ele>
        <time>2023-02-14T11:31:16.688Z</time>
      </trkpt>
      <trkpt lat="45.56935" lon="5.58656">
        <ele>285</ele>
        <time>2023-02-14T11:31:17.688Z</time>
      </trkpt>
      <trkpt lat="45.56934" lon="5.5866">
        <ele>285</ele>
        <time>2023-02-14T11:31:18.688Z</time>
      </trkpt>
      <trkpt lat="45.56934" lon="5.58663">
        <ele>285</ele>
        <time>2023-02-14T11:31:19.688Z</time>
      </trkpt>
      <trkpt lat="45.56933" lon="5.58667">
        <ele>286</ele>
        <time>2023-02-14T11:31:20.688Z</time>
      </trkpt>
      <trkpt lat="45.56932" lon="5.58671">
        <ele>286</ele>
        <time>2023-02-14T11:31:21.688Z</time>
      </trkpt>
      <trkpt lat="45.56932" lon="5.58675">
        <ele>287</ele>
        <time>2023-02-14T11:31:22.688Z</time>
      </trkpt>
      <trkpt lat="45.56931" lon="5.58679">
        <ele>288</ele>
        <time>2023-02-14T11:31:23.688Z</time>
      </trkpt>
      <trkpt lat="45.56931" lon="5.58683">
        <ele>288</ele>
        <time>2023-02-14T11:31:24.688Z</time>
      </trkpt>
      <trkpt lat="45.5693" lon="5.58687">
        <ele>289</ele>
        <time>2023-02-14T11:31:25.688Z</time>
      </trkpt>
      <trkpt lat="45.5693" lon="5.58691">
        <ele>289</ele>
        <time>2023-02-14T11:31:26.688Z</time>
      </trkpt>
      <trkpt lat="45.56929" lon="5.58695">
        <ele>289</ele>
        <time>2023-02-14T11:31:27.688Z</time>
      </trkpt>
      <trkpt lat="45.56928" lon="5.58698">
        <ele>289</ele>
        <time>2023-02-14T11:31:28.688Z</time>
      </trkpt>
      <trkpt lat="45.56928" lon="5.58702">
        <ele>289</ele>
        <time>2023-02-14T11:31:29.688Z</time>
      </trkpt>
      <trkpt lat="45.56928" lon="5.58706">
        <ele>288</ele>
        <time>2023-02-14T11:31:30.688Z</time>
      </trkpt>
      <trkpt lat="45.56927" lon="5.58709">
        <ele>288</ele>
        <time>2023-02-14T11:31:31.688Z</time>
      </trkpt>
      <trkpt lat="45.56927" lon="5.58713">
        <ele>288</ele>
        <time>2023-02-14T11:31:32.688Z</time>
      </trkpt>
      <trkpt lat="45.56927" lon="5.58716">
        <ele>288</ele>
        <time>2023-02-14T11:31:33.688Z</time>
      </trkpt>
      <trkpt lat="45.56927" lon="5.58719">
        <ele>288</ele>
        <time>2023-02-14T11:31:34.688Z</time>
      </trkpt>
      <trkpt lat="45.56927" lon="5.58722">
        <ele>289</ele>
        <time>2023-02-14T11:31:35.688Z</time>
      </trkpt>
      <trkpt lat="45.56927" lon="5.58725">
        <ele>289</ele>
        <time>2023-02-14T11:31:36.688Z</time>
      </trkpt>
      <trkpt lat="45.56927" lon="5.58728">
        <ele>290</ele>
        <time>2023-02-14T11:31:37.688Z</time>
      </trkpt>
      <trkpt lat="45.56927" lon="5.5873">
        <ele>290</ele>
        <time>2023-02-14T11:31:38.688Z</time>
      </trkpt>
      <trkpt lat="45.56927" lon="5.58733">
        <ele>291</ele>
        <time>2023-02-14T11:31:39.688Z</time>
      </trkpt>
      <trkpt lat="45.56927" lon="5.58735">
        <ele>291</ele>
        <time>2023-02-14T11:31:40.688Z</time>
      </trkpt>
      <trkpt lat="45.56927" lon="5.58737">
        <ele>291</ele>
        <time>2023-02-14T11:31:41.688Z</time>
      </trkpt>
      <trkpt lat="45.56927" lon="5.58739">
        <ele>293</ele>
        <time>2023-02-14T11:31:42.688Z</time>
      </trkpt>
      <trkpt lat="45.56927" lon="5.58741">
        <ele>292</ele>
        <time>2023-02-14T11:31:43.688Z</time>
      </trkpt>
      <trkpt lat="45.56927" lon="5.58743">
        <ele>293</ele>
        <time>2023-02-14T11:31:44.688Z</time>
      </trkpt>
      <trkpt lat="45.56927" lon="5.58745">
        <ele>292</ele>
        <time>2023-02-14T11:31:45.688Z</time>
      </trkpt>
      <trkpt lat="45.56927" lon="5.58747">
        <ele>293</ele>
        <time>2023-02-14T11:31:46.688Z</time>
      </trkpt>
      <trkpt lat="45.56927" lon="5.58749">
        <ele>293</ele>
        <time>2023-02-14T11:31:47.688Z</time>
      </trkpt>
      <trkpt lat="45.56927" lon="5.58751">
        <ele>293</ele>
        <time>2023-02-14T11:31:48.688Z</time>
      </trkpt>
      <trkpt lat="45.56927" lon="5.58752">
        <ele>293</ele>
        <time>2023-02-14T11:31:49.688Z</time>
      </trkpt>
      <trkpt lat="45.56927" lon="5.58754">
        <ele>293</ele>
        <time>2023-02-14T11:31:50.688Z</time>
      </trkpt>
      <trkpt lat="45.56927" lon="5.58756">
        <ele>293</ele>
        <time>2023-02-14T11:31:51.688Z</time>
      </trkpt>
      <trkpt lat="45.56927" lon="5.58757">
        <ele>293</ele>
        <time>2023-02-14T11:31:52.688Z</time>
      </trkpt>
      <trkpt lat="45.56927" lon="5.58759">
        <ele>293</ele>
        <time>2023-02-14T11:31:53.688Z</time>
      </trkpt>
      <trkpt lat="45.56926" lon="5.58761">
        <ele>293</ele>
        <time>2023-02-14T11:31:54.688Z</time>
      </trkpt>
      <trkpt lat="45.56926" lon="5.58763">
        <ele>293</ele>
        <time>2023-02-14T11:31:55.688Z</time>
      </trkpt>
      <trkpt lat="45.56926" lon="5.58764">
        <ele>293</ele>
        <time>2023-02-14T11:31:56.688Z</time>
      </trkpt>
      <trkpt lat="45.56927" lon="5.58766">
        <ele>293</ele>
        <time>2023-02-14T11:31:57.688Z</time>
      </trkpt>
      <trkpt lat="45.56927" lon="5.58768">
        <ele>293</ele>
        <time>2023-02-14T11:31:58.688Z</time>
      </trkpt>
      <trkpt lat="45.56928" lon="5.5877">
        <ele>293</ele>
        <time>2023-02-14T11:31:59.688Z</time>
      </trkpt>
      <trkpt lat="45.56928" lon="5.58773">
        <ele>293</ele>
        <time>2023-02-14T11:32:00.688Z</time>
      </trkpt>
      <trkpt lat="45.56929" lon="5.58775">
        <ele>293</ele>
        <time>2023-02-14T11:32:01.688Z</time>
      </trkpt>
      <trkpt lat="45.56929" lon="5.58777">
        <ele>293</ele>
        <time>2023-02-14T11:32:02.688Z</time>
      </trkpt>
      <trkpt lat="45.56929" lon="5.58779">
        <ele>294</ele>
        <time>2023-02-14T11:32:03.688Z</time>
      </trkpt>
      <trkpt lat="45.5693" lon="5.58781">
        <ele>294</ele>
        <time>2023-02-14T11:32:04.688Z</time>
      </trkpt>
      <trkpt lat="45.5693" lon="5.58782">
        <ele>294</ele>
        <time>2023-02-14T11:32:05.688Z</time>
      </trkpt>
      <trkpt lat="45.5693" lon="5.58785">
        <ele>294</ele>
        <time>2023-02-14T11:32:06.688Z</time>
      </trkpt>
      <trkpt lat="45.5693" lon="5.58787">
        <ele>295</ele>
        <time>2023-02-14T11:32:07.688Z</time>
      </trkpt>
      <trkpt lat="45.5693" lon="5.5879">
        <ele>294</ele>
        <time>2023-02-14T11:32:08.688Z</time>
      </trkpt>
      <trkpt lat="45.5693" lon="5.58793">
        <ele>294</ele>
        <time>2023-02-14T11:32:09.688Z</time>
      </trkpt>
      <trkpt lat="45.5693" lon="5.58795">
        <ele>294</ele>
        <time>2023-02-14T11:32:10.688Z</time>
      </trkpt>
      <trkpt lat="45.5693" lon="5.58798">
        <ele>294</ele>
        <time>2023-02-14T11:32:11.688Z</time>
      </trkpt>
      <trkpt lat="45.5693" lon="5.58801">
        <ele>294</ele>
        <time>2023-02-14T11:32:12.688Z</time>
      </trkpt>
      <trkpt lat="45.56929" lon="5.58804">
        <ele>294</ele>
        <time>2023-02-14T11:32:13.688Z</time>
      </trkpt>
      <trkpt lat="45.56929" lon="5.58807">
        <ele>294</ele>
        <time>2023-02-14T11:32:14.688Z</time>
      </trkpt>
      <trkpt lat="45.56929" lon="5.5881">
        <ele>294</ele>
        <time>2023-02-14T11:32:15.688Z</time>
      </trkpt>
      <trkpt lat="45.56929" lon="5.58813">
        <ele>295</ele>
        <time>2023-02-14T11:32:16.688Z</time>
      </trkpt>
      <trkpt lat="45.56929" lon="5.58816">
        <ele>295</ele>
        <time>2023-02-14T11:32:17.688Z</time>
      </trkpt>
      <trkpt lat="45.5693" lon="5.5882">
        <ele>296</ele>
        <time>2023-02-14T11:32:18.688Z</time>
      </trkpt>
      <trkpt lat="45.5693" lon="5.58823">
        <ele>297</ele>
        <time>2023-02-14T11:32:19.688Z</time>
      </trkpt>
      <trkpt lat="45.5693" lon="5.58827">
        <ele>297</ele>
        <time>2023-02-14T11:32:20.688Z</time>
      </trkpt>
      <trkpt lat="45.5693" lon="5.5883">
        <ele>298</ele>
        <time>2023-02-14T11:32:21.688Z</time>
      </trkpt>
      <trkpt lat="45.5693" lon="5.58834">
        <ele>298</ele>
        <time>2023-02-14T11:32:22.688Z</time>
      </trkpt>
      <trkpt lat="45.5693" lon="5.58837">
        <ele>298</ele>
        <time>2023-02-14T11:32:23.688Z</time>
      </trkpt>
      <trkpt lat="45.5693" lon="5.5884">
        <ele>299</ele>
        <time>2023-02-14T11:32:24.688Z</time>
      </trkpt>
      <trkpt lat="45.56929" lon="5.58842">
        <ele>299</ele>
        <time>2023-02-14T11:32:25.688Z</time>
      </trkpt>
      <trkpt lat="45.56929" lon="5.58845">
        <ele>299</ele>
        <time>2023-02-14T11:32:26.688Z</time>
      </trkpt>
      <trkpt lat="45.56929" lon="5.58847">
        <ele>300</ele>
        <time>2023-02-14T11:32:27.688Z</time>
      </trkpt>
      <trkpt lat="45.56929" lon="5.5885">
        <ele>300</ele>
        <time>2023-02-14T11:32:28.688Z</time>
      </trkpt>
      <trkpt lat="45.56929" lon="5.58852">
        <ele>300</ele>
        <time>2023-02-14T11:32:29.688Z</time>
      </trkpt>
      <trkpt lat="45.56929" lon="5.58854">
        <ele>300</ele>
        <time>2023-02-14T11:32:30.688Z</time>
      </trkpt>
      <trkpt lat="45.56929" lon="5.58856">
        <ele>300</ele>
        <time>2023-02-14T11:32:31.688Z</time>
      </trkpt>
      <trkpt lat="45.56929" lon="5.58858">
        <ele>301</ele>
        <time>2023-02-14T11:32:32.688Z</time>
      </trkpt>
      <trkpt lat="45.56929" lon="5.5886">
        <ele>301</ele>
        <time>2023-02-14T11:32:33.688Z</time>
      </trkpt>
      <trkpt lat="45.56929" lon="5.58862">
        <ele>301</ele>
        <time>2023-02-14T11:32:34.688Z</time>
      </trkpt>
      <trkpt lat="45.56929" lon="5.58864">
        <ele>301</ele>
        <time>2023-02-14T11:32:35.688Z</time>
      </trkpt>
      <trkpt lat="45.56929" lon="5.58866">
        <ele>302</ele>
        <time>2023-02-14T11:32:36.688Z</time>
      </trkpt>
      <trkpt lat="45.56928" lon="5.58868">
        <ele>302</ele>
        <time>2023-02-14T11:32:37.688Z</time>
      </trkpt>
      <trkpt lat="45.56928" lon="5.5887">
        <ele>302</ele>
        <time>2023-02-14T11:32:38.688Z</time>
      </trkpt>
      <trkpt lat="45.56928" lon="5.58872">
        <ele>302</ele>
        <time>2023-02-14T11:32:39.688Z</time>
      </trkpt>
      <trkpt lat="45.56928" lon="5.58873">
        <ele>302</ele>
        <time>2023-02-14T11:32:40.688Z</time>
      </trkpt>
      <trkpt lat="45.56928" lon="5.58875">
        <ele>302</ele>
        <time>2023-02-14T11:32:41.688Z</time>
      </trkpt>
      <trkpt lat="45.56928" lon="5.58877">
        <ele>302</ele>
        <time>2023-02-14T11:32:42.688Z</time>
      </trkpt>
      <trkpt lat="45.56928" lon="5.58879">
        <ele>302</ele>
        <time>2023-02-14T11:32:43.688Z</time>
      </trkpt>
      <trkpt lat="45.56927" lon="5.58881">
        <ele>303</ele>
        <time>2023-02-14T11:32:44.688Z</time>
      </trkpt>
      <trkpt lat="45.56927" lon="5.58883">
        <ele>303</ele>
        <time>2023-02-14T11:32:45.688Z</time>
      </trkpt>
      <trkpt lat="45.56927" lon="5.58885">
        <ele>303</ele>
        <time>2023-02-14T11:32:46.688Z</time>
      </trkpt>
      <trkpt lat="45.56927" lon="5.58887">
        <ele>303</ele>
        <time>2023-02-14T11:32:47.688Z</time>
      </trkpt>
      <trkpt lat="45.56927" lon="5.58889">
        <ele>303</ele>
        <time>2023-02-14T11:32:48.688Z</time>
      </trkpt>
      <trkpt lat="45.56927" lon="5.58891">
        <ele>303</ele>
        <time>2023-02-14T11:32:49.688Z</time>
      </trkpt>
      <trkpt lat="45.56927" lon="5.58893">
        <ele>303</ele>
        <time>2023-02-14T11:32:50.688Z</time>
      </trkpt>
      <trkpt lat="45.56926" lon="5.58896">
        <ele>302</ele>
        <time>2023-02-14T11:32:51.688Z</time>
      </trkpt>
      <trkpt lat="45.56926" lon="5.58898">
        <ele>302</ele>
        <time>2023-02-14T11:32:52.688Z</time>
      </trkpt>
      <trkpt lat="45.56926" lon="5.589">
        <ele>302</ele>
        <time>2023-02-14T11:32:53.688Z</time>
      </trkpt>
      <trkpt lat="45.56925" lon="5.58902">
        <ele>302</ele>
        <time>2023-02-14T11:32:54.688Z</time>
      </trkpt>
      <trkpt lat="45.56925" lon="5.58905">
        <ele>302</ele>
        <time>2023-02-14T11:32:55.688Z</time>
      </trkpt>
      <trkpt lat="45.56925" lon="5.58907">
        <ele>302</ele>
        <time>2023-02-14T11:32:56.688Z</time>
      </trkpt>
      <trkpt lat="45.56924" lon="5.58909">
        <ele>302</ele>
        <time>2023-02-14T11:32:57.688Z</time>
      </trkpt>
      <trkpt lat="45.56924" lon="5.58912">
        <ele>302</ele>
        <time>2023-02-14T11:32:58.688Z</time>
      </trkpt>
      <trkpt lat="45.56924" lon="5.58914">
        <ele>302</ele>
        <time>2023-02-14T11:32:59.688Z</time>
      </trkpt>
      <trkpt lat="45.56923" lon="5.58917">
        <ele>301</ele>
        <time>2023-02-14T11:33:00.688Z</time>
      </trkpt>
      <trkpt lat="45.56922" lon="5.58919">
        <ele>301</ele>
        <time>2023-02-14T11:33:01.688Z</time>
      </trkpt>
      <trkpt lat="45.56922" lon="5.58922">
        <ele>301</ele>
        <time>2023-02-14T11:33:02.688Z</time>
      </trkpt>
      <trkpt lat="45.56921" lon="5.58924">
        <ele>301</ele>
        <time>2023-02-14T11:33:03.688Z</time>
      </trkpt>
      <trkpt lat="45.5692" lon="5.58927">
        <ele>301</ele>
        <time>2023-02-14T11:33:04.688Z</time>
      </trkpt>
      <trkpt lat="45.56919" lon="5.58929">
        <ele>301</ele>
        <time>2023-02-14T11:33:05.688Z</time>
      </trkpt>
      <trkpt lat="45.56918" lon="5.58932">
        <ele>301</ele>
        <time>2023-02-14T11:33:06.688Z</time>
      </trkpt>
      <trkpt lat="45.56916" lon="5.58934">
        <ele>302</ele>
        <time>2023-02-14T11:33:07.688Z</time>
      </trkpt>
      <trkpt lat="45.56915" lon="5.58936">
        <ele>302</ele>
        <time>2023-02-14T11:33:08.688Z</time>
      </trkpt>
      <trkpt lat="45.56913" lon="5.58938">
        <ele>302</ele>
        <time>2023-02-14T11:33:09.688Z</time>
      </trkpt>
      <trkpt lat="45.56912" lon="5.5894">
        <ele>302</ele>
        <time>2023-02-14T11:33:10.688Z</time>
      </trkpt>
      <trkpt lat="45.5691" lon="5.58942">
        <ele>302</ele>
        <time>2023-02-14T11:33:11.688Z</time>
      </trkpt>
      <trkpt lat="45.56909" lon="5.58944">
        <ele>302</ele>
        <time>2023-02-14T11:33:12.688Z</time>
      </trkpt>
      <trkpt lat="45.56907" lon="5.58945">
        <ele>302</ele>
        <time>2023-02-14T11:33:13.688Z</time>
      </trkpt>
      <trkpt lat="45.56905" lon="5.58947">
        <ele>303</ele>
        <time>2023-02-14T11:33:14.688Z</time>
      </trkpt>
      <trkpt lat="45.56904" lon="5.58948">
        <ele>303</ele>
        <time>2023-02-14T11:33:15.688Z</time>
      </trkpt>
      <trkpt lat="45.56902" lon="5.5895">
        <ele>303</ele>
        <time>2023-02-14T11:33:16.688Z</time>
      </trkpt>
      <trkpt lat="45.569" lon="5.58952">
        <ele>303</ele>
        <time>2023-02-14T11:33:17.688Z</time>
      </trkpt>
      <trkpt lat="45.56898" lon="5.58953">
        <ele>303</ele>
        <time>2023-02-14T11:33:18.688Z</time>
      </trkpt>
      <trkpt lat="45.56896" lon="5.58955">
        <ele>304</ele>
        <time>2023-02-14T11:33:19.688Z</time>
      </trkpt>
      <trkpt lat="45.56895" lon="5.58956">
        <ele>304</ele>
        <time>2023-02-14T11:33:20.688Z</time>
      </trkpt>
      <trkpt lat="45.56893" lon="5.58958">
        <ele>304</ele>
        <time>2023-02-14T11:33:21.688Z</time>
      </trkpt>
      <trkpt lat="45.56891" lon="5.5896">
        <ele>304</ele>
        <time>2023-02-14T11:33:22.688Z</time>
      </trkpt>
      <trkpt lat="45.56889" lon="5.58962">
        <ele>304</ele>
        <time>2023-02-14T11:33:23.688Z</time>
      </trkpt>
      <trkpt lat="45.56888" lon="5.58963">
        <ele>304</ele>
        <time>2023-02-14T11:33:24.688Z</time>
      </trkpt>
      <trkpt lat="45.56886" lon="5.58965">
        <ele>304</ele>
        <time>2023-02-14T11:33:25.688Z</time>
      </trkpt>
      <trkpt lat="45.56884" lon="5.58967">
        <ele>304</ele>
        <time>2023-02-14T11:33:26.688Z</time>
      </trkpt>
      <trkpt lat="45.56882" lon="5.58968">
        <ele>304</ele>
        <time>2023-02-14T11:33:27.688Z</time>
      </trkpt>
      <trkpt lat="45.5688" lon="5.5897">
        <ele>304</ele>
        <time>2023-02-14T11:33:28.688Z</time>
      </trkpt>
      <trkpt lat="45.56879" lon="5.58972">
        <ele>304</ele>
        <time>2023-02-14T11:33:29.688Z</time>
      </trkpt>
      <trkpt lat="45.56877" lon="5.58973">
        <ele>304</ele>
        <time>2023-02-14T11:33:30.688Z</time>
      </trkpt>
      <trkpt lat="45.56875" lon="5.58975">
        <ele>304</ele>
        <time>2023-02-14T11:33:31.688Z</time>
      </trkpt>
      <trkpt lat="45.56873" lon="5.58977">
        <ele>304</ele>
        <time>2023-02-14T11:33:32.688Z</time>
      </trkpt>
      <trkpt lat="45.56871" lon="5.58979">
        <ele>305</ele>
        <time>2023-02-14T11:33:33.688Z</time>
      </trkpt>
      <trkpt lat="45.56869" lon="5.58981">
        <ele>305</ele>
        <time>2023-02-14T11:33:34.688Z</time>
      </trkpt>
      <trkpt lat="45.56867" lon="5.58982">
        <ele>305</ele>
        <time>2023-02-14T11:33:35.688Z</time>
      </trkpt>
      <trkpt lat="45.56865" lon="5.58984">
        <ele>305</ele>
        <time>2023-02-14T11:33:36.688Z</time>
      </trkpt>
      <trkpt lat="45.56864" lon="5.58986">
        <ele>305</ele>
        <time>2023-02-14T11:33:37.688Z</time>
      </trkpt>
      <trkpt lat="45.56862" lon="5.58988">
        <ele>305</ele>
        <time>2023-02-14T11:33:38.688Z</time>
      </trkpt>
      <trkpt lat="45.5686" lon="5.5899">
        <ele>305</ele>
        <time>2023-02-14T11:33:39.688Z</time>
      </trkpt>
      <trkpt lat="45.56857" lon="5.58992">
        <ele>305</ele>
        <time>2023-02-14T11:33:40.688Z</time>
      </trkpt>
      <trkpt lat="45.56855" lon="5.58994">
        <ele>305</ele>
        <time>2023-02-14T11:33:41.688Z</time>
      </trkpt>
      <trkpt lat="45.56853" lon="5.58996">
        <ele>305</ele>
        <time>2023-02-14T11:33:42.688Z</time>
      </trkpt>
      <trkpt lat="45.56851" lon="5.58998">
        <ele>305</ele>
        <time>2023-02-14T11:33:43.688Z</time>
      </trkpt>
      <trkpt lat="45.56849" lon="5.59">
        <ele>305</ele>
        <time>2023-02-14T11:33:44.688Z</time>
      </trkpt>
      <trkpt lat="45.56847" lon="5.59002">
        <ele>305</ele>
        <time>2023-02-14T11:33:45.688Z</time>
      </trkpt>
      <trkpt lat="45.56845" lon="5.59004">
        <ele>305</ele>
        <time>2023-02-14T11:33:46.688Z</time>
      </trkpt>
      <trkpt lat="45.56843" lon="5.59006">
        <ele>305</ele>
        <time>2023-02-14T11:33:47.688Z</time>
      </trkpt>
      <trkpt lat="45.56841" lon="5.59008">
        <ele>305</ele>
        <time>2023-02-14T11:33:48.688Z</time>
      </trkpt>
      <trkpt lat="45.56839" lon="5.5901">
        <ele>305</ele>
        <time>2023-02-14T11:33:49.688Z</time>
      </trkpt>
      <trkpt lat="45.56837" lon="5.59011">
        <ele>306</ele>
        <time>2023-02-14T11:33:50.688Z</time>
      </trkpt>
      <trkpt lat="45.56835" lon="5.59013">
        <ele>306</ele>
        <time>2023-02-14T11:33:51.688Z</time>
      </trkpt>
      <trkpt lat="45.56833" lon="5.59015">
        <ele>306</ele>
        <time>2023-02-14T11:33:52.688Z</time>
      </trkpt>
      <trkpt lat="45.56831" lon="5.59017">
        <ele>306</ele>
        <time>2023-02-14T11:33:53.688Z</time>
      </trkpt>
      <trkpt lat="45.5683" lon="5.59019">
        <ele>306</ele>
        <time>2023-02-14T11:33:54.688Z</time>
      </trkpt>
      <trkpt lat="45.56828" lon="5.59022">
        <ele>306</ele>
        <time>2023-02-14T11:33:55.688Z</time>
      </trkpt>
      <trkpt lat="45.56826" lon="5.59024">
        <ele>306</ele>
        <time>2023-02-14T11:33:56.688Z</time>
      </trkpt>
      <trkpt lat="45.56824" lon="5.59026">
        <ele>306</ele>
        <time>2023-02-14T11:33:57.688Z</time>
      </trkpt>
      <trkpt lat="45.56822" lon="5.59028">
        <ele>306</ele>
        <time>2023-02-14T11:33:58.688Z</time>
      </trkpt>
      <trkpt lat="45.5682" lon="5.5903">
        <ele>306</ele>
        <time>2023-02-14T11:33:59.688Z</time>
      </trkpt>
      <trkpt lat="45.56819" lon="5.59032">
        <ele>306</ele>
        <time>2023-02-14T11:34:00.688Z</time>
      </trkpt>
      <trkpt lat="45.56817" lon="5.59034">
        <ele>306</ele>
        <time>2023-02-14T11:34:01.688Z</time>
      </trkpt>
      <trkpt lat="45.56815" lon="5.59037">
        <ele>306</ele>
        <time>2023-02-14T11:34:02.688Z</time>
      </trkpt>
      <trkpt lat="45.56813" lon="5.59039">
        <ele>306</ele>
        <time>2023-02-14T11:34:03.688Z</time>
      </trkpt>
      <trkpt lat="45.56811" lon="5.59042">
        <ele>306</ele>
        <time>2023-02-14T11:34:04.688Z</time>
      </trkpt>
      <trkpt lat="45.56809" lon="5.59044">
        <ele>307</ele>
        <time>2023-02-14T11:34:05.688Z</time>
      </trkpt>
      <trkpt lat="45.56807" lon="5.59046">
        <ele>307</ele>
        <time>2023-02-14T11:34:06.688Z</time>
      </trkpt>
      <trkpt lat="45.56805" lon="5.59048">
        <ele>307</ele>
        <time>2023-02-14T11:34:07.688Z</time>
      </trkpt>
      <trkpt lat="45.56803" lon="5.5905">
        <ele>307</ele>
        <time>2023-02-14T11:34:08.688Z</time>
      </trkpt>
      <trkpt lat="45.56802" lon="5.59053">
        <ele>307</ele>
        <time>2023-02-14T11:34:09.688Z</time>
      </trkpt>
      <trkpt lat="45.568" lon="5.59055">
        <ele>307</ele>
        <time>2023-02-14T11:34:10.688Z</time>
      </trkpt>
      <trkpt lat="45.56798" lon="5.59057">
        <ele>307</ele>
        <time>2023-02-14T11:34:11.688Z</time>
      </trkpt>
      <trkpt lat="45.56795" lon="5.59059">
        <ele>307</ele>
        <time>2023-02-14T11:34:12.688Z</time>
      </trkpt>
      <trkpt lat="45.56793" lon="5.59062">
        <ele>307</ele>
        <time>2023-02-14T11:34:13.688Z</time>
      </trkpt>
      <trkpt lat="45.56791" lon="5.59065">
        <ele>307</ele>
        <time>2023-02-14T11:34:14.688Z</time>
      </trkpt>
      <trkpt lat="45.56789" lon="5.59068">
        <ele>307</ele>
        <time>2023-02-14T11:34:15.688Z</time>
      </trkpt>
      <trkpt lat="45.56787" lon="5.59071">
        <ele>308</ele>
        <time>2023-02-14T11:34:16.688Z</time>
      </trkpt>
      <trkpt lat="45.56785" lon="5.59074">
        <ele>308</ele>
        <time>2023-02-14T11:34:17.688Z</time>
      </trkpt>
      <trkpt lat="45.56783" lon="5.59077">
        <ele>308</ele>
        <time>2023-02-14T11:34:18.688Z</time>
      </trkpt>
      <trkpt lat="45.56781" lon="5.5908">
        <ele>308</ele>
        <time>2023-02-14T11:34:19.688Z</time>
      </trkpt>
      <trkpt lat="45.5678" lon="5.59083">
        <ele>308</ele>
        <time>2023-02-14T11:34:20.688Z</time>
      </trkpt>
      <trkpt lat="45.56778" lon="5.59086">
        <ele>308</ele>
        <time>2023-02-14T11:34:21.688Z</time>
      </trkpt>
      <trkpt lat="45.56776" lon="5.59089">
        <ele>308</ele>
        <time>2023-02-14T11:34:22.688Z</time>
      </trkpt>
      <trkpt lat="45.56773" lon="5.59092">
        <ele>308</ele>
        <time>2023-02-14T11:34:23.688Z</time>
      </trkpt>
      <trkpt lat="45.56771" lon="5.59094">
        <ele>308</ele>
        <time>2023-02-14T11:34:24.688Z</time>
      </trkpt>
      <trkpt lat="45.56769" lon="5.59097">
        <ele>308</ele>
        <time>2023-02-14T11:34:25.688Z</time>
      </trkpt>
      <trkpt lat="45.56766" lon="5.59101">
        <ele>308</ele>
        <time>2023-02-14T11:34:26.688Z</time>
      </trkpt>
      <trkpt lat="45.56764" lon="5.59104">
        <ele>308</ele>
        <time>2023-02-14T11:34:27.688Z</time>
      </trkpt>
      <trkpt lat="45.56761" lon="5.59107">
        <ele>308</ele>
        <time>2023-02-14T11:34:28.688Z</time>
      </trkpt>
      <trkpt lat="45.56759" lon="5.59111">
        <ele>308</ele>
        <time>2023-02-14T11:34:29.688Z</time>
      </trkpt>
      <trkpt lat="45.56757" lon="5.59114">
        <ele>308</ele>
        <time>2023-02-14T11:34:30.688Z</time>
      </trkpt>
      <trkpt lat="45.56754" lon="5.59117">
        <ele>308</ele>
        <time>2023-02-14T11:34:31.688Z</time>
      </trkpt>
      <trkpt lat="45.56752" lon="5.59121">
        <ele>308</ele>
        <time>2023-02-14T11:34:32.688Z</time>
      </trkpt>
      <trkpt lat="45.56749" lon="5.59124">
        <ele>308</ele>
        <time>2023-02-14T11:34:33.688Z</time>
      </trkpt>
      <trkpt lat="45.56747" lon="5.59127">
        <ele>309</ele>
        <time>2023-02-14T11:34:34.688Z</time>
      </trkpt>
      <trkpt lat="45.56745" lon="5.5913">
        <ele>309</ele>
        <time>2023-02-14T11:34:35.688Z</time>
      </trkpt>
      <trkpt lat="45.56742" lon="5.59133">
        <ele>309</ele>
        <time>2023-02-14T11:34:36.688Z</time>
      </trkpt>
      <trkpt lat="45.5674" lon="5.59136">
        <ele>309</ele>
        <time>2023-02-14T11:34:37.688Z</time>
      </trkpt>
      <trkpt lat="45.56737" lon="5.59139">
        <ele>309</ele>
        <time>2023-02-14T11:34:38.688Z</time>
      </trkpt>
      <trkpt lat="45.56734" lon="5.59142">
        <ele>309</ele>
        <time>2023-02-14T11:34:39.688Z</time>
      </trkpt>
      <trkpt lat="45.56731" lon="5.59145">
        <ele>309</ele>
        <time>2023-02-14T11:34:40.688Z</time>
      </trkpt>
      <trkpt lat="45.56728" lon="5.59148">
        <ele>309</ele>
        <time>2023-02-14T11:34:41.688Z</time>
      </trkpt>
      <trkpt lat="45.56724" lon="5.59151">
        <ele>309</ele>
        <time>2023-02-14T11:34:42.688Z</time>
      </trkpt>
      <trkpt lat="45.56721" lon="5.59153">
        <ele>309</ele>
        <time>2023-02-14T11:34:43.688Z</time>
      </trkpt>
      <trkpt lat="45.56719" lon="5.59156">
        <ele>309</ele>
        <time>2023-02-14T11:34:44.688Z</time>
      </trkpt>
      <trkpt lat="45.56716" lon="5.59159">
        <ele>309</ele>
        <time>2023-02-14T11:34:45.688Z</time>
      </trkpt>
      <trkpt lat="45.56713" lon="5.59162">
        <ele>309</ele>
        <time>2023-02-14T11:34:46.688Z</time>
      </trkpt>
      <trkpt lat="45.5671" lon="5.59165">
        <ele>309</ele>
        <time>2023-02-14T11:34:47.688Z</time>
      </trkpt>
      <trkpt lat="45.56707" lon="5.59168">
        <ele>309</ele>
        <time>2023-02-14T11:34:48.688Z</time>
      </trkpt>
      <trkpt lat="45.56705" lon="5.59171">
        <ele>309</ele>
        <time>2023-02-14T11:34:49.688Z</time>
      </trkpt>
      <trkpt lat="45.56702" lon="5.59175">
        <ele>309</ele>
        <time>2023-02-14T11:34:50.688Z</time>
      </trkpt>
      <trkpt lat="45.56699" lon="5.59178">
        <ele>309</ele>
        <time>2023-02-14T11:34:51.688Z</time>
      </trkpt>
      <trkpt lat="45.56696" lon="5.59181">
        <ele>310</ele>
        <time>2023-02-14T11:34:52.688Z</time>
      </trkpt>
      <trkpt lat="45.56694" lon="5.59185">
        <ele>310</ele>
        <time>2023-02-14T11:34:53.688Z</time>
      </trkpt>
      <trkpt lat="45.56691" lon="5.59188">
        <ele>310</ele>
        <time>2023-02-14T11:34:54.688Z</time>
      </trkpt>
      <trkpt lat="45.56688" lon="5.59191">
        <ele>310</ele>
        <time>2023-02-14T11:34:55.688Z</time>
      </trkpt>
      <trkpt lat="45.56685" lon="5.59194">
        <ele>310</ele>
        <time>2023-02-14T11:34:56.688Z</time>
      </trkpt>
      <trkpt lat="45.56681" lon="5.59197">
        <ele>310</ele>
        <time>2023-02-14T11:34:57.688Z</time>
      </trkpt>
      <trkpt lat="45.56678" lon="5.592">
        <ele>310</ele>
        <time>2023-02-14T11:34:58.688Z</time>
      </trkpt>
      <trkpt lat="45.56675" lon="5.59203">
        <ele>310</ele>
        <time>2023-02-14T11:34:59.688Z</time>
      </trkpt>
      <trkpt lat="45.56672" lon="5.59205">
        <ele>311</ele>
        <time>2023-02-14T11:35:00.688Z</time>
      </trkpt>
      <trkpt lat="45.56669" lon="5.59208">
        <ele>311</ele>
        <time>2023-02-14T11:35:01.688Z</time>
      </trkpt>
      <trkpt lat="45.56665" lon="5.59211">
        <ele>311</ele>
        <time>2023-02-14T11:35:02.688Z</time>
      </trkpt>
      <trkpt lat="45.56662" lon="5.59213">
        <ele>311</ele>
        <time>2023-02-14T11:35:03.688Z</time>
      </trkpt>
      <trkpt lat="45.56659" lon="5.59216">
        <ele>311</ele>
        <time>2023-02-14T11:35:04.688Z</time>
      </trkpt>
      <trkpt lat="45.56655" lon="5.59218">
        <ele>312</ele>
        <time>2023-02-14T11:35:05.688Z</time>
      </trkpt>
      <trkpt lat="45.56652" lon="5.5922">
        <ele>311</ele>
        <time>2023-02-14T11:35:06.688Z</time>
      </trkpt>
      <trkpt lat="45.56649" lon="5.59222">
        <ele>311</ele>
        <time>2023-02-14T11:35:07.688Z</time>
      </trkpt>
      <trkpt lat="45.56645" lon="5.59224">
        <ele>312</ele>
        <time>2023-02-14T11:35:08.688Z</time>
      </trkpt>
      <trkpt lat="45.56642" lon="5.59226">
        <ele>312</ele>
        <time>2023-02-14T11:35:09.688Z</time>
      </trkpt>
      <trkpt lat="45.56638" lon="5.59227">
        <ele>312</ele>
        <time>2023-02-14T11:35:10.688Z</time>
      </trkpt>
      <trkpt lat="45.56635" lon="5.59229">
        <ele>312</ele>
        <time>2023-02-14T11:35:11.688Z</time>
      </trkpt>
      <trkpt lat="45.56632" lon="5.59231">
        <ele>312</ele>
        <time>2023-02-14T11:35:12.688Z</time>
      </trkpt>
      <trkpt lat="45.56629" lon="5.59232">
        <ele>312</ele>
        <time>2023-02-14T11:35:13.688Z</time>
      </trkpt>
      <trkpt lat="45.56625" lon="5.59234">
        <ele>312</ele>
        <time>2023-02-14T11:35:14.688Z</time>
      </trkpt>
      <trkpt lat="45.56622" lon="5.59236">
        <ele>312</ele>
        <time>2023-02-14T11:35:15.688Z</time>
      </trkpt>
      <trkpt lat="45.56619" lon="5.59237">
        <ele>312</ele>
        <time>2023-02-14T11:35:16.688Z</time>
      </trkpt>
      <trkpt lat="45.56616" lon="5.59239">
        <ele>312</ele>
        <time>2023-02-14T11:35:17.688Z</time>
      </trkpt>
      <trkpt lat="45.56613" lon="5.59241">
        <ele>312</ele>
        <time>2023-02-14T11:35:18.688Z</time>
      </trkpt>
      <trkpt lat="45.56609" lon="5.59242">
        <ele>312</ele>
        <time>2023-02-14T11:35:19.688Z</time>
      </trkpt>
      <trkpt lat="45.56606" lon="5.59244">
        <ele>312</ele>
        <time>2023-02-14T11:35:20.688Z</time>
      </trkpt>
      <trkpt lat="45.56603" lon="5.59246">
        <ele>312</ele>
        <time>2023-02-14T11:35:21.688Z</time>
      </trkpt>
      <trkpt lat="45.566" lon="5.59248">
        <ele>311</ele>
        <time>2023-02-14T11:35:22.688Z</time>
      </trkpt>
      <trkpt lat="45.56598" lon="5.5925">
        <ele>310</ele>
        <time>2023-02-14T11:35:23.688Z</time>
      </trkpt>
      <trkpt lat="45.56595" lon="5.59253">
        <ele>310</ele>
        <time>2023-02-14T11:35:24.688Z</time>
      </trkpt>
      <trkpt lat="45.56594" lon="5.59256">
        <ele>309</ele>
        <time>2023-02-14T11:35:25.688Z</time>
      </trkpt>
      <trkpt lat="45.56592" lon="5.59261">
        <ele>309</ele>
        <time>2023-02-14T11:35:26.688Z</time>
      </trkpt>
      <trkpt lat="45.56591" lon="5.59266">
        <ele>308</ele>
        <time>2023-02-14T11:35:27.688Z</time>
      </trkpt>
      <trkpt lat="45.5659" lon="5.59272">
        <ele>308</ele>
        <time>2023-02-14T11:35:28.688Z</time>
      </trkpt>
      <trkpt lat="45.56591" lon="5.59278">
        <ele>307</ele>
        <time>2023-02-14T11:35:29.688Z</time>
      </trkpt>
      <trkpt lat="45.56592" lon="5.59284">
        <ele>305</ele>
        <time>2023-02-14T11:35:30.688Z</time>
      </trkpt>
      <trkpt lat="45.56595" lon="5.5929">
        <ele>304</ele>
        <time>2023-02-14T11:35:31.688Z</time>
      </trkpt>
      <trkpt lat="45.56598" lon="5.59296">
        <ele>303</ele>
        <time>2023-02-14T11:35:32.688Z</time>
      </trkpt>
      <trkpt lat="45.56602" lon="5.59302">
        <ele>302</ele>
        <time>2023-02-14T11:35:33.688Z</time>
      </trkpt>
      <trkpt lat="45.56606" lon="5.59309">
        <ele>301</ele>
        <time>2023-02-14T11:35:34.688Z</time>
      </trkpt>
      <trkpt lat="45.56611" lon="5.59315">
        <ele>300</ele>
        <time>2023-02-14T11:35:35.688Z</time>
      </trkpt>
      <trkpt lat="45.56616" lon="5.59323">
        <ele>299</ele>
        <time>2023-02-14T11:35:36.688Z</time>
      </trkpt>
      <trkpt lat="45.56621" lon="5.59331">
        <ele>299</ele>
        <time>2023-02-14T11:35:37.688Z</time>
      </trkpt>
      <trkpt lat="45.56626" lon="5.59339">
        <ele>298</ele>
        <time>2023-02-14T11:35:38.688Z</time>
      </trkpt>
      <trkpt lat="45.56631" lon="5.59347">
        <ele>297</ele>
        <time>2023-02-14T11:35:39.688Z</time>
      </trkpt>
      <trkpt lat="45.56636" lon="5.59355">
        <ele>296</ele>
        <time>2023-02-14T11:35:40.688Z</time>
      </trkpt>
      <trkpt lat="45.56641" lon="5.59364">
        <ele>297</ele>
        <time>2023-02-14T11:35:41.688Z</time>
      </trkpt>
      <trkpt lat="45.56647" lon="5.59372">
        <ele>296</ele>
        <time>2023-02-14T11:35:42.688Z</time>
      </trkpt>
      <trkpt lat="45.56654" lon="5.5938">
        <ele>295</ele>
        <time>2023-02-14T11:35:43.688Z</time>
      </trkpt>
      <trkpt lat="45.5666" lon="5.59387">
        <ele>294</ele>
        <time>2023-02-14T11:35:44.688Z</time>
      </trkpt>
      <trkpt lat="45.56667" lon="5.59394">
        <ele>294</ele>
        <time>2023-02-14T11:35:45.688Z</time>
      </trkpt>
      <trkpt lat="45.56674" lon="5.59401">
        <ele>293</ele>
        <time>2023-02-14T11:35:46.688Z</time>
      </trkpt>
      <trkpt lat="45.56682" lon="5.59408">
        <ele>292</ele>
        <time>2023-02-14T11:35:47.688Z</time>
      </trkpt>
      <trkpt lat="45.56689" lon="5.59415">
        <ele>291</ele>
        <time>2023-02-14T11:35:48.688Z</time>
      </trkpt>
      <trkpt lat="45.56696" lon="5.59422">
        <ele>290</ele>
        <time>2023-02-14T11:35:49.688Z</time>
      </trkpt>
      <trkpt lat="45.56703" lon="5.5943">
        <ele>290</ele>
        <time>2023-02-14T11:35:50.688Z</time>
      </trkpt>
      <trkpt lat="45.5671" lon="5.59439">
        <ele>289</ele>
        <time>2023-02-14T11:35:51.688Z</time>
      </trkpt>
      <trkpt lat="45.56716" lon="5.59448">
        <ele>289</ele>
        <time>2023-02-14T11:35:52.688Z</time>
      </trkpt>
      <trkpt lat="45.56723" lon="5.59458">
        <ele>289</ele>
        <time>2023-02-14T11:35:53.688Z</time>
      </trkpt>
      <trkpt lat="45.56728" lon="5.59467">
        <ele>289</ele>
        <time>2023-02-14T11:35:54.688Z</time>
      </trkpt>
      <trkpt lat="45.56734" lon="5.59478">
        <ele>288</ele>
        <time>2023-02-14T11:35:55.688Z</time>
      </trkpt>
      <trkpt lat="45.56739" lon="5.59488">
        <ele>288</ele>
        <time>2023-02-14T11:35:56.688Z</time>
      </trkpt>
      <trkpt lat="45.56744" lon="5.59497">
        <ele>287</ele>
        <time>2023-02-14T11:35:57.688Z</time>
      </trkpt>
      <trkpt lat="45.56748" lon="5.59507">
        <ele>287</ele>
        <time>2023-02-14T11:35:58.688Z</time>
      </trkpt>
      <trkpt lat="45.56752" lon="5.59516">
        <ele>287</ele>
        <time>2023-02-14T11:35:59.688Z</time>
      </trkpt>
      <trkpt lat="45.56757" lon="5.59525">
        <ele>287</ele>
        <time>2023-02-14T11:36:00.688Z</time>
      </trkpt>
      <trkpt lat="45.56761" lon="5.59533">
        <ele>287</ele>
        <time>2023-02-14T11:36:01.688Z</time>
      </trkpt>
      <trkpt lat="45.56765" lon="5.59542">
        <ele>286</ele>
        <time>2023-02-14T11:36:02.688Z</time>
      </trkpt>
      <trkpt lat="45.56769" lon="5.5955">
        <ele>287</ele>
        <time>2023-02-14T11:36:03.688Z</time>
      </trkpt>
      <trkpt lat="45.56773" lon="5.59559">
        <ele>286</ele>
        <time>2023-02-14T11:36:04.688Z</time>
      </trkpt>
      <trkpt lat="45.56777" lon="5.59567">
        <ele>286</ele>
        <time>2023-02-14T11:36:05.688Z</time>
      </trkpt>
      <trkpt lat="45.56781" lon="5.59575">
        <ele>286</ele>
        <time>2023-02-14T11:36:06.688Z</time>
      </trkpt>
      <trkpt lat="45.56785" lon="5.59583">
        <ele>285</ele>
        <time>2023-02-14T11:36:07.688Z</time>
      </trkpt>
      <trkpt lat="45.56789" lon="5.5959">
        <ele>284</ele>
        <time>2023-02-14T11:36:08.688Z</time>
      </trkpt>
      <trkpt lat="45.56794" lon="5.59595">
        <ele>284</ele>
        <time>2023-02-14T11:36:09.688Z</time>
      </trkpt>
      <trkpt lat="45.56799" lon="5.59599">
        <ele>285</ele>
        <time>2023-02-14T11:36:10.688Z</time>
      </trkpt>
      <trkpt lat="45.56804" lon="5.59601">
        <ele>286</ele>
        <time>2023-02-14T11:36:11.688Z</time>
      </trkpt>
      <trkpt lat="45.56811" lon="5.59602">
        <ele>285</ele>
        <time>2023-02-14T11:36:12.688Z</time>
      </trkpt>
      <trkpt lat="45.56817" lon="5.59602">
        <ele>284</ele>
        <time>2023-02-14T11:36:13.688Z</time>
      </trkpt>
      <trkpt lat="45.56823" lon="5.59602">
        <ele>284</ele>
        <time>2023-02-14T11:36:14.688Z</time>
      </trkpt>
      <trkpt lat="45.56829" lon="5.59601">
        <ele>284</ele>
        <time>2023-02-14T11:36:15.688Z</time>
      </trkpt>
      <trkpt lat="45.56835" lon="5.59601">
        <ele>284</ele>
        <time>2023-02-14T11:36:16.688Z</time>
      </trkpt>
      <trkpt lat="45.56841" lon="5.596">
        <ele>284</ele>
        <time>2023-02-14T11:36:17.688Z</time>
      </trkpt>
      <trkpt lat="45.56847" lon="5.596">
        <ele>283</ele>
        <time>2023-02-14T11:36:18.688Z</time>
      </trkpt>
      <trkpt lat="45.56852" lon="5.596">
        <ele>283</ele>
        <time>2023-02-14T11:36:19.688Z</time>
      </trkpt>
      <trkpt lat="45.56858" lon="5.596">
        <ele>282</ele>
        <time>2023-02-14T11:36:20.688Z</time>
      </trkpt>
      <trkpt lat="45.56863" lon="5.59599">
        <ele>282</ele>
        <time>2023-02-14T11:36:21.688Z</time>
      </trkpt>
      <trkpt lat="45.56869" lon="5.59599">
        <ele>282</ele>
        <time>2023-02-14T11:36:22.688Z</time>
      </trkpt>
      <trkpt lat="45.56875" lon="5.59599">
        <ele>282</ele>
        <time>2023-02-14T11:36:23.688Z</time>
      </trkpt>
      <trkpt lat="45.56881" lon="5.59598">
        <ele>282</ele>
        <time>2023-02-14T11:36:24.688Z</time>
      </trkpt>
      <trkpt lat="45.56887" lon="5.59598">
        <ele>282</ele>
        <time>2023-02-14T11:36:25.688Z</time>
      </trkpt>
      <trkpt lat="45.56892" lon="5.59598">
        <ele>281</ele>
        <time>2023-02-14T11:36:26.688Z</time>
      </trkpt>
      <trkpt lat="45.56898" lon="5.59598">
        <ele>281</ele>
        <time>2023-02-14T11:36:27.688Z</time>
      </trkpt>
      <trkpt lat="45.56904" lon="5.59598">
        <ele>281</ele>
        <time>2023-02-14T11:36:28.688Z</time>
      </trkpt>
      <trkpt lat="45.56909" lon="5.59598">
        <ele>281</ele>
        <time>2023-02-14T11:36:29.688Z</time>
      </trkpt>
      <trkpt lat="45.56915" lon="5.59598">
        <ele>281</ele>
        <time>2023-02-14T11:36:30.688Z</time>
      </trkpt>
      <trkpt lat="45.5692" lon="5.59598">
        <ele>281</ele>
        <time>2023-02-14T11:36:31.688Z</time>
      </trkpt>
      <trkpt lat="45.56925" lon="5.59598">
        <ele>281</ele>
        <time>2023-02-14T11:36:32.688Z</time>
      </trkpt>
      <trkpt lat="45.56931" lon="5.59598">
        <ele>281</ele>
        <time>2023-02-14T11:36:33.688Z</time>
      </trkpt>
      <trkpt lat="45.56936" lon="5.59598">
        <ele>281</ele>
        <time>2023-02-14T11:36:34.688Z</time>
      </trkpt>
      <trkpt lat="45.56942" lon="5.59598">
        <ele>280</ele>
        <time>2023-02-14T11:36:35.688Z</time>
      </trkpt>
      <trkpt lat="45.56948" lon="5.59598">
        <ele>280</ele>
        <time>2023-02-14T11:36:36.688Z</time>
      </trkpt>
      <trkpt lat="45.56954" lon="5.59598">
        <ele>280</ele>
        <time>2023-02-14T11:36:37.688Z</time>
      </trkpt>
      <trkpt lat="45.5696" lon="5.59598">
        <ele>280</ele>
        <time>2023-02-14T11:36:38.688Z</time>
      </trkpt>
      <trkpt lat="45.56966" lon="5.59598">
        <ele>280</ele>
        <time>2023-02-14T11:36:39.688Z</time>
      </trkpt>
      <trkpt lat="45.56973" lon="5.59598">
        <ele>279</ele>
        <time>2023-02-14T11:36:40.688Z</time>
      </trkpt>
      <trkpt lat="45.56979" lon="5.59599">
        <ele>279</ele>
        <time>2023-02-14T11:36:41.688Z</time>
      </trkpt>
      <trkpt lat="45.56986" lon="5.59599">
        <ele>279</ele>
        <time>2023-02-14T11:36:42.688Z</time>
      </trkpt>
      <trkpt lat="45.56992" lon="5.59599">
        <ele>278</ele>
        <time>2023-02-14T11:36:43.688Z</time>
      </trkpt>
      <trkpt lat="45.56999" lon="5.59599">
        <ele>278</ele>
        <time>2023-02-14T11:36:44.688Z</time>
      </trkpt>
      <trkpt lat="45.57006" lon="5.59598">
        <ele>278</ele>
        <time>2023-02-14T11:36:45.688Z</time>
      </trkpt>
      <trkpt lat="45.57013" lon="5.59597">
        <ele>277</ele>
        <time>2023-02-14T11:36:46.688Z</time>
      </trkpt>
      <trkpt lat="45.5702" lon="5.59596">
        <ele>277</ele>
        <time>2023-02-14T11:36:47.688Z</time>
      </trkpt>
      <trkpt lat="45.57026" lon="5.59595">
        <ele>277</ele>
        <time>2023-02-14T11:36:48.688Z</time>
      </trkpt>
      <trkpt lat="45.57033" lon="5.59593">
        <ele>276</ele>
        <time>2023-02-14T11:36:49.688Z</time>
      </trkpt>
      <trkpt lat="45.5704" lon="5.59592">
        <ele>276</ele>
        <time>2023-02-14T11:36:50.688Z</time>
      </trkpt>
      <trkpt lat="45.57047" lon="5.5959">
        <ele>276</ele>
        <time>2023-02-14T11:36:51.688Z</time>
      </trkpt>
      <trkpt lat="45.57054" lon="5.59588">
        <ele>275</ele>
        <time>2023-02-14T11:36:52.688Z</time>
      </trkpt>
      <trkpt lat="45.57061" lon="5.59586">
        <ele>275</ele>
        <time>2023-02-14T11:36:53.688Z</time>
      </trkpt>
      <trkpt lat="45.57068" lon="5.59584">
        <ele>275</ele>
        <time>2023-02-14T11:36:54.688Z</time>
      </trkpt>
      <trkpt lat="45.57074" lon="5.59582">
        <ele>275</ele>
        <time>2023-02-14T11:36:55.688Z</time>
      </trkpt>
      <trkpt lat="45.57081" lon="5.5958">
        <ele>275</ele>
        <time>2023-02-14T11:36:56.688Z</time>
      </trkpt>
      <trkpt lat="45.57087" lon="5.59579">
        <ele>275</ele>
        <time>2023-02-14T11:36:57.688Z</time>
      </trkpt>
      <trkpt lat="45.57094" lon="5.59576">
        <ele>274</ele>
        <time>2023-02-14T11:36:58.688Z</time>
      </trkpt>
      <trkpt lat="45.571" lon="5.59575">
        <ele>274</ele>
        <time>2023-02-14T11:36:59.688Z</time>
      </trkpt>
      <trkpt lat="45.57106" lon="5.59573">
        <ele>274</ele>
        <time>2023-02-14T11:37:00.688Z</time>
      </trkpt>
      <trkpt lat="45.57112" lon="5.59571">
        <ele>274</ele>
        <time>2023-02-14T11:37:01.688Z</time>
      </trkpt>
      <trkpt lat="45.57119" lon="5.59569">
        <ele>274</ele>
        <time>2023-02-14T11:37:02.688Z</time>
      </trkpt>
      <trkpt lat="45.57125" lon="5.59568">
        <ele>274</ele>
        <time>2023-02-14T11:37:03.688Z</time>
      </trkpt>
      <trkpt lat="45.57131" lon="5.59567">
        <ele>274</ele>
        <time>2023-02-14T11:37:04.688Z</time>
      </trkpt>
      <trkpt lat="45.57136" lon="5.59566">
        <ele>274</ele>
        <time>2023-02-14T11:37:05.688Z</time>
      </trkpt>
      <trkpt lat="45.57142" lon="5.59566">
        <ele>274</ele>
        <time>2023-02-14T11:37:06.688Z</time>
      </trkpt>
      <trkpt lat="45.57148" lon="5.59566">
        <ele>274</ele>
        <time>2023-02-14T11:37:07.688Z</time>
      </trkpt>
      <trkpt lat="45.57153" lon="5.59566">
        <ele>274</ele>
        <time>2023-02-14T11:37:08.688Z</time>
      </trkpt>
      <trkpt lat="45.57158" lon="5.59567">
        <ele>274</ele>
        <time>2023-02-14T11:37:09.688Z</time>
      </trkpt>
      <trkpt lat="45.57163" lon="5.59568">
        <ele>275</ele>
        <time>2023-02-14T11:37:10.688Z</time>
      </trkpt>
      <trkpt lat="45.57167" lon="5.59569">
        <ele>275</ele>
        <time>2023-02-14T11:37:11.688Z</time>
      </trkpt>
      <trkpt lat="45.57172" lon="5.5957">
        <ele>275</ele>
        <time>2023-02-14T11:37:12.688Z</time>
      </trkpt>
      <trkpt lat="45.57176" lon="5.59571">
        <ele>275</ele>
        <time>2023-02-14T11:37:13.688Z</time>
      </trkpt>
      <trkpt lat="45.5718" lon="5.59572">
        <ele>275</ele>
        <time>2023-02-14T11:37:14.688Z</time>
      </trkpt>
      <trkpt lat="45.57184" lon="5.59573">
        <ele>275</ele>
        <time>2023-02-14T11:37:15.688Z</time>
      </trkpt>
      <trkpt lat="45.57187" lon="5.59574">
        <ele>276</ele>
        <time>2023-02-14T11:37:16.688Z</time>
      </trkpt>
      <trkpt lat="45.57191" lon="5.59576">
        <ele>276</ele>
        <time>2023-02-14T11:37:17.688Z</time>
      </trkpt>
      <trkpt lat="45.57194" lon="5.59578">
        <ele>276</ele>
        <time>2023-02-14T11:37:18.688Z</time>
      </trkpt>
      <trkpt lat="45.57198" lon="5.59581">
        <ele>276</ele>
        <time>2023-02-14T11:37:19.688Z</time>
      </trkpt>
      <trkpt lat="45.57201" lon="5.59584">
        <ele>276</ele>
        <time>2023-02-14T11:37:20.688Z</time>
      </trkpt>
      <trkpt lat="45.57203" lon="5.59587">
        <ele>276</ele>
        <time>2023-02-14T11:37:21.688Z</time>
      </trkpt>
      <trkpt lat="45.57206" lon="5.5959">
        <ele>276</ele>
        <time>2023-02-14T11:37:22.688Z</time>
      </trkpt>
      <trkpt lat="45.57209" lon="5.59593">
        <ele>276</ele>
        <time>2023-02-14T11:37:23.688Z</time>
      </trkpt>
      <trkpt lat="45.57212" lon="5.59595">
        <ele>277</ele>
        <time>2023-02-14T11:37:24.688Z</time>
      </trkpt>
      <trkpt lat="45.57216" lon="5.59597">
        <ele>277</ele>
        <time>2023-02-14T11:37:25.688Z</time>
      </trkpt>
      <trkpt lat="45.57219" lon="5.59598">
        <ele>277</ele>
        <time>2023-02-14T11:37:26.688Z</time>
      </trkpt>
      <trkpt lat="45.57223" lon="5.59598">
        <ele>277</ele>
        <time>2023-02-14T11:37:27.688Z</time>
      </trkpt>
      <trkpt lat="45.57227" lon="5.59598">
        <ele>277</ele>
        <time>2023-02-14T11:37:28.688Z</time>
      </trkpt>
      <trkpt lat="45.5723" lon="5.59597">
        <ele>277</ele>
        <time>2023-02-14T11:37:29.688Z</time>
      </trkpt>
      <trkpt lat="45.57234" lon="5.59597">
        <ele>277</ele>
        <time>2023-02-14T11:37:30.688Z</time>
      </trkpt>
      <trkpt lat="45.57237" lon="5.59597">
        <ele>277</ele>
        <time>2023-02-14T11:37:31.688Z</time>
      </trkpt>
      <trkpt lat="45.57241" lon="5.59597">
        <ele>277</ele>
        <time>2023-02-14T11:37:32.688Z</time>
      </trkpt>
      <trkpt lat="45.57245" lon="5.59597">
        <ele>277</ele>
        <time>2023-02-14T11:37:33.688Z</time>
      </trkpt>
      <trkpt lat="45.57249" lon="5.59597">
        <ele>277</ele>
        <time>2023-02-14T11:37:34.688Z</time>
      </trkpt>
      <trkpt lat="45.57253" lon="5.59597">
        <ele>277</ele>
        <time>2023-02-14T11:37:35.688Z</time>
      </trkpt>
      <trkpt lat="45.57257" lon="5.59597">
        <ele>277</ele>
        <time>2023-02-14T11:37:36.688Z</time>
      </trkpt>
      <trkpt lat="45.57261" lon="5.59597">
        <ele>276</ele>
        <time>2023-02-14T11:37:37.688Z</time>
      </trkpt>
      <trkpt lat="45.57265" lon="5.59598">
        <ele>276</ele>
        <time>2023-02-14T11:37:38.688Z</time>
      </trkpt>
      <trkpt lat="45.57269" lon="5.59598">
        <ele>276</ele>
        <time>2023-02-14T11:37:39.688Z</time>
      </trkpt>
      <trkpt lat="45.57273" lon="5.59598">
        <ele>277</ele>
        <time>2023-02-14T11:37:40.688Z</time>
      </trkpt>
      <trkpt lat="45.57278" lon="5.59598">
        <ele>276</ele>
        <time>2023-02-14T11:37:41.688Z</time>
      </trkpt>
      <trkpt lat="45.57282" lon="5.59598">
        <ele>276</ele>
        <time>2023-02-14T11:37:42.688Z</time>
      </trkpt>
      <trkpt lat="45.57286" lon="5.59598">
        <ele>276</ele>
        <time>2023-02-14T11:37:43.688Z</time>
      </trkpt>
      <trkpt lat="45.5729" lon="5.59599">
        <ele>276</ele>
        <time>2023-02-14T11:37:44.688Z</time>
      </trkpt>
      <trkpt lat="45.57295" lon="5.59599">
        <ele>275</ele>
        <time>2023-02-14T11:37:45.688Z</time>
      </trkpt>
      <trkpt lat="45.573" lon="5.596">
        <ele>275</ele>
        <time>2023-02-14T11:37:46.688Z</time>
      </trkpt>
      <trkpt lat="45.57305" lon="5.59599">
        <ele>275</ele>
        <time>2023-02-14T11:37:47.688Z</time>
      </trkpt>
      <trkpt lat="45.57311" lon="5.59599">
        <ele>275</ele>
        <time>2023-02-14T11:37:48.688Z</time>
      </trkpt>
      <trkpt lat="45.57317" lon="5.596">
        <ele>275</ele>
        <time>2023-02-14T11:37:49.688Z</time>
      </trkpt>
      <trkpt lat="45.57322" lon="5.59601">
        <ele>275</ele>
        <time>2023-02-14T11:37:50.688Z</time>
      </trkpt>
      <trkpt lat="45.57328" lon="5.59603">
        <ele>275</ele>
        <time>2023-02-14T11:37:51.688Z</time>
      </trkpt>
      <trkpt lat="45.57334" lon="5.59606">
        <ele>275</ele>
        <time>2023-02-14T11:37:52.688Z</time>
      </trkpt>
      <trkpt lat="45.5734" lon="5.59608">
        <ele>274</ele>
        <time>2023-02-14T11:37:53.688Z</time>
      </trkpt>
      <trkpt lat="45.57347" lon="5.59611">
        <ele>273</ele>
        <time>2023-02-14T11:37:54.688Z</time>
      </trkpt>
      <trkpt lat="45.57353" lon="5.59614">
        <ele>273</ele>
        <time>2023-02-14T11:37:55.688Z</time>
      </trkpt>
      <trkpt lat="45.57359" lon="5.59618">
        <ele>272</ele>
        <time>2023-02-14T11:37:56.688Z</time>
      </trkpt>
      <trkpt lat="45.57366" lon="5.59621">
        <ele>272</ele>
        <time>2023-02-14T11:37:57.688Z</time>
      </trkpt>
      <trkpt lat="45.57373" lon="5.59624">
        <ele>272</ele>
        <time>2023-02-14T11:37:58.688Z</time>
      </trkpt>
      <trkpt lat="45.5738" lon="5.59628">
        <ele>271</ele>
        <time>2023-02-14T11:37:59.688Z</time>
      </trkpt>
      <trkpt lat="45.57387" lon="5.59631">
        <ele>270</ele>
        <time>2023-02-14T11:38:00.688Z</time>
      </trkpt>
      <trkpt lat="45.57395" lon="5.59635">
        <ele>270</ele>
        <time>2023-02-14T11:38:01.688Z</time>
      </trkpt>
      <trkpt lat="45.57402" lon="5.59639">
        <ele>269</ele>
        <time>2023-02-14T11:38:02.688Z</time>
      </trkpt>
      <trkpt lat="45.5741" lon="5.59643">
        <ele>268</ele>
        <time>2023-02-14T11:38:03.688Z</time>
      </trkpt>
      <trkpt lat="45.57418" lon="5.59647">
        <ele>267</ele>
        <time>2023-02-14T11:38:04.688Z</time>
      </trkpt>
      <trkpt lat="45.57425" lon="5.59651">
        <ele>267</ele>
        <time>2023-02-14T11:38:05.688Z</time>
      </trkpt>
      <trkpt lat="45.57433" lon="5.59656">
        <ele>267</ele>
        <time>2023-02-14T11:38:06.688Z</time>
      </trkpt>
      <trkpt lat="45.57441" lon="5.59661">
        <ele>266</ele>
        <time>2023-02-14T11:38:07.688Z</time>
      </trkpt>
      <trkpt lat="45.57449" lon="5.59666">
        <ele>266</ele>
        <time>2023-02-14T11:38:08.688Z</time>
      </trkpt>
      <trkpt lat="45.57457" lon="5.59671">
        <ele>266</ele>
        <time>2023-02-14T11:38:09.688Z</time>
      </trkpt>
      <trkpt lat="45.57464" lon="5.59676">
        <ele>266</ele>
        <time>2023-02-14T11:38:10.688Z</time>
      </trkpt>
      <trkpt lat="45.57471" lon="5.59682">
        <ele>265</ele>
        <time>2023-02-14T11:38:11.688Z</time>
      </trkpt>
      <trkpt lat="45.57477" lon="5.59687">
        <ele>265</ele>
        <time>2023-02-14T11:38:12.688Z</time>
      </trkpt>
      <trkpt lat="45.57483" lon="5.59692">
        <ele>265</ele>
        <time>2023-02-14T11:38:13.688Z</time>
      </trkpt>
      <trkpt lat="45.57489" lon="5.59697">
        <ele>265</ele>
        <time>2023-02-14T11:38:14.688Z</time>
      </trkpt>
      <trkpt lat="45.57495" lon="5.59702">
        <ele>265</ele>
        <time>2023-02-14T11:38:15.688Z</time>
      </trkpt>
      <trkpt lat="45.57501" lon="5.59707">
        <ele>265</ele>
        <time>2023-02-14T11:38:16.688Z</time>
      </trkpt>
      <trkpt lat="45.57506" lon="5.59711">
        <ele>265</ele>
        <time>2023-02-14T11:38:17.688Z</time>
      </trkpt>
      <trkpt lat="45.57511" lon="5.59716">
        <ele>265</ele>
        <time>2023-02-14T11:38:18.688Z</time>
      </trkpt>
      <trkpt lat="45.57516" lon="5.59721">
        <ele>265</ele>
        <time>2023-02-14T11:38:19.688Z</time>
      </trkpt>
      <trkpt lat="45.57521" lon="5.59725">
        <ele>265</ele>
        <time>2023-02-14T11:38:20.688Z</time>
      </trkpt>
      <trkpt lat="45.57525" lon="5.5973">
        <ele>265</ele>
        <time>2023-02-14T11:38:21.688Z</time>
      </trkpt>
      <trkpt lat="45.5753" lon="5.59734">
        <ele>265</ele>
        <time>2023-02-14T11:38:22.688Z</time>
      </trkpt>
      <trkpt lat="45.57534" lon="5.59738">
        <ele>265</ele>
        <time>2023-02-14T11:38:23.688Z</time>
      </trkpt>
      <trkpt lat="45.57538" lon="5.59742">
        <ele>265</ele>
        <time>2023-02-14T11:38:24.688Z</time>
      </trkpt>
      <trkpt lat="45.57541" lon="5.59745">
        <ele>265</ele>
        <time>2023-02-14T11:38:25.688Z</time>
      </trkpt>
      <trkpt lat="45.57545" lon="5.59749">
        <ele>265</ele>
        <time>2023-02-14T11:38:26.688Z</time>
      </trkpt>
      <trkpt lat="45.57548" lon="5.59752">
        <ele>265</ele>
        <time>2023-02-14T11:38:27.688Z</time>
      </trkpt>
      <trkpt lat="45.57551" lon="5.59755">
        <ele>265</ele>
        <time>2023-02-14T11:38:28.688Z</time>
      </trkpt>
      <trkpt lat="45.57554" lon="5.59758">
        <ele>265</ele>
        <time>2023-02-14T11:38:29.688Z</time>
      </trkpt>
      <trkpt lat="45.57557" lon="5.5976">
        <ele>265</ele>
        <time>2023-02-14T11:38:30.688Z</time>
      </trkpt>
      <trkpt lat="45.5756" lon="5.59763">
        <ele>265</ele>
        <time>2023-02-14T11:38:31.688Z</time>
      </trkpt>
      <trkpt lat="45.57563" lon="5.59766">
        <ele>265</ele>
        <time>2023-02-14T11:38:32.688Z</time>
      </trkpt>
      <trkpt lat="45.57566" lon="5.59768">
        <ele>265</ele>
        <time>2023-02-14T11:38:33.688Z</time>
      </trkpt>
      <trkpt lat="45.57569" lon="5.59771">
        <ele>266</ele>
        <time>2023-02-14T11:38:34.688Z</time>
      </trkpt>
      <trkpt lat="45.57572" lon="5.59774">
        <ele>266</ele>
        <time>2023-02-14T11:38:35.688Z</time>
      </trkpt>
      <trkpt lat="45.57576" lon="5.59776">
        <ele>266</ele>
        <time>2023-02-14T11:38:36.688Z</time>
      </trkpt>
      <trkpt lat="45.57579" lon="5.59779">
        <ele>266</ele>
        <time>2023-02-14T11:38:37.688Z</time>
      </trkpt>
      <trkpt lat="45.57582" lon="5.59781">
        <ele>266</ele>
        <time>2023-02-14T11:38:38.688Z</time>
      </trkpt>
      <trkpt lat="45.57585" lon="5.59784">
        <ele>266</ele>
        <time>2023-02-14T11:38:39.688Z</time>
      </trkpt>
      <trkpt lat="45.57589" lon="5.59786">
        <ele>266</ele>
        <time>2023-02-14T11:38:40.688Z</time>
      </trkpt>
      <trkpt lat="45.57593" lon="5.59788">
        <ele>265</ele>
        <time>2023-02-14T11:38:41.688Z</time>
      </trkpt>
      <trkpt lat="45.57596" lon="5.5979">
        <ele>265</ele>
        <time>2023-02-14T11:38:42.688Z</time>
      </trkpt>
      <trkpt lat="45.576" lon="5.59792">
        <ele>265</ele>
        <time>2023-02-14T11:38:43.688Z</time>
      </trkpt>
      <trkpt lat="45.57604" lon="5.59794">
        <ele>265</ele>
        <time>2023-02-14T11:38:44.688Z</time>
      </trkpt>
      <trkpt lat="45.57609" lon="5.59795">
        <ele>265</ele>
        <time>2023-02-14T11:38:45.688Z</time>
      </trkpt>
      <trkpt lat="45.57613" lon="5.59797">
        <ele>265</ele>
        <time>2023-02-14T11:38:46.688Z</time>
      </trkpt>
      <trkpt lat="45.57619" lon="5.59798">
        <ele>264</ele>
        <time>2023-02-14T11:38:47.688Z</time>
      </trkpt>
      <trkpt lat="45.57624" lon="5.598">
        <ele>264</ele>
        <time>2023-02-14T11:38:48.688Z</time>
      </trkpt>
      <trkpt lat="45.57629" lon="5.59802">
        <ele>264</ele>
        <time>2023-02-14T11:38:49.688Z</time>
      </trkpt>
      <trkpt lat="45.57635" lon="5.59804">
        <ele>263</ele>
        <time>2023-02-14T11:38:50.688Z</time>
      </trkpt>
      <trkpt lat="45.5764" lon="5.59806">
        <ele>263</ele>
        <time>2023-02-14T11:38:51.688Z</time>
      </trkpt>
      <trkpt lat="45.57646" lon="5.59808">
        <ele>263</ele>
        <time>2023-02-14T11:38:52.688Z</time>
      </trkpt>
      <trkpt lat="45.57651" lon="5.5981">
        <ele>263</ele>
        <time>2023-02-14T11:38:53.688Z</time>
      </trkpt>
      <trkpt lat="45.57657" lon="5.59812">
        <ele>263</ele>
        <time>2023-02-14T11:38:54.688Z</time>
      </trkpt>
      <trkpt lat="45.57662" lon="5.59815">
        <ele>262</ele>
        <time>2023-02-14T11:38:55.688Z</time>
      </trkpt>
      <trkpt lat="45.57667" lon="5.59819">
        <ele>262</ele>
        <time>2023-02-14T11:38:56.688Z</time>
      </trkpt>
      <trkpt lat="45.57673" lon="5.59823">
        <ele>262</ele>
        <time>2023-02-14T11:38:57.688Z</time>
      </trkpt>
      <trkpt lat="45.57677" lon="5.59828">
        <ele>262</ele>
        <time>2023-02-14T11:38:58.688Z</time>
      </trkpt>
      <trkpt lat="45.57681" lon="5.59834">
        <ele>263</ele>
        <time>2023-02-14T11:38:59.688Z</time>
      </trkpt>
      <trkpt lat="45.57685" lon="5.5984">
        <ele>263</ele>
        <time>2023-02-14T11:39:00.688Z</time>
      </trkpt>
      <trkpt lat="45.57688" lon="5.59846">
        <ele>262</ele>
        <time>2023-02-14T11:39:01.688Z</time>
      </trkpt>
      <trkpt lat="45.5769" lon="5.59852">
        <ele>262</ele>
        <time>2023-02-14T11:39:02.688Z</time>
      </trkpt>
      <trkpt lat="45.57692" lon="5.59859">
        <ele>261</ele>
        <time>2023-02-14T11:39:03.688Z</time>
      </trkpt>
      <trkpt lat="45.57693" lon="5.59866">
        <ele>261</ele>
        <time>2023-02-14T11:39:04.688Z</time>
      </trkpt>
      <trkpt lat="45.57694" lon="5.59872">
        <ele>260</ele>
        <time>2023-02-14T11:39:05.688Z</time>
      </trkpt>
      <trkpt lat="45.57694" lon="5.59879">
        <ele>261</ele>
        <time>2023-02-14T11:39:06.688Z</time>
      </trkpt>
      <trkpt lat="45.57694" lon="5.59886">
        <ele>262</ele>
        <time>2023-02-14T11:39:07.688Z</time>
      </trkpt>
      <trkpt lat="45.57694" lon="5.59893">
        <ele>261</ele>
        <time>2023-02-14T11:39:08.688Z</time>
      </trkpt>
      <trkpt lat="45.57693" lon="5.599">
        <ele>261</ele>
        <time>2023-02-14T11:39:09.688Z</time>
      </trkpt>
      <trkpt lat="45.57692" lon="5.59907">
        <ele>261</ele>
        <time>2023-02-14T11:39:10.688Z</time>
      </trkpt>
      <trkpt lat="45.57691" lon="5.59913">
        <ele>261</ele>
        <time>2023-02-14T11:39:11.688Z</time>
      </trkpt>
      <trkpt lat="45.5769" lon="5.5992">
        <ele>260</ele>
        <time>2023-02-14T11:39:12.688Z</time>
      </trkpt>
      <trkpt lat="45.57689" lon="5.59926">
        <ele>261</ele>
        <time>2023-02-14T11:39:13.688Z</time>
      </trkpt>
      <trkpt lat="45.57688" lon="5.59932">
        <ele>260</ele>
        <time>2023-02-14T11:39:14.688Z</time>
      </trkpt>
      <trkpt lat="45.57687" lon="5.59939">
        <ele>260</ele>
        <time>2023-02-14T11:39:15.688Z</time>
      </trkpt>
      <trkpt lat="45.57687" lon="5.59946">
        <ele>260</ele>
        <time>2023-02-14T11:39:16.688Z</time>
      </trkpt>
      <trkpt lat="45.57687" lon="5.59953">
        <ele>259</ele>
        <time>2023-02-14T11:39:17.688Z</time>
      </trkpt>
      <trkpt lat="45.57687" lon="5.5996">
        <ele>259</ele>
        <time>2023-02-14T11:39:18.688Z</time>
      </trkpt>
      <trkpt lat="45.57687" lon="5.59967">
        <ele>259</ele>
        <time>2023-02-14T11:39:19.688Z</time>
      </trkpt>
      <trkpt lat="45.57687" lon="5.59974">
        <ele>259</ele>
        <time>2023-02-14T11:39:20.688Z</time>
      </trkpt>
      <trkpt lat="45.57687" lon="5.59981">
        <ele>259</ele>
        <time>2023-02-14T11:39:21.688Z</time>
      </trkpt>
      <trkpt lat="45.57687" lon="5.59987">
        <ele>259</ele>
        <time>2023-02-14T11:39:22.688Z</time>
      </trkpt>
      <trkpt lat="45.57687" lon="5.59993">
        <ele>259</ele>
        <time>2023-02-14T11:39:23.688Z</time>
      </trkpt>
      <trkpt lat="45.57685" lon="5.59998">
        <ele>257</ele>
        <time>2023-02-14T11:39:24.688Z</time>
      </trkpt>
      <trkpt lat="45.57683" lon="5.60003">
        <ele>259</ele>
        <time>2023-02-14T11:39:25.688Z</time>
      </trkpt>
      <trkpt lat="45.57682" lon="5.60008">
        <ele>260</ele>
        <time>2023-02-14T11:39:26.688Z</time>
      </trkpt>
      <trkpt lat="45.57681" lon="5.60012">
        <ele>261</ele>
        <time>2023-02-14T11:39:27.688Z</time>
      </trkpt>
      <trkpt lat="45.5768" lon="5.60017">
        <ele>262</ele>
        <time>2023-02-14T11:39:28.688Z</time>
      </trkpt>
      <trkpt lat="45.5768" lon="5.60021">
        <ele>262</ele>
        <time>2023-02-14T11:39:29.688Z</time>
      </trkpt>
      <trkpt lat="45.57679" lon="5.60025">
        <ele>262</ele>
        <time>2023-02-14T11:39:30.688Z</time>
      </trkpt>
      <trkpt lat="45.57678" lon="5.60028">
        <ele>262</ele>
        <time>2023-02-14T11:39:31.688Z</time>
      </trkpt>
      <trkpt lat="45.57677" lon="5.60031">
        <ele>262</ele>
        <time>2023-02-14T11:39:32.688Z</time>
      </trkpt>
      <trkpt lat="45.57675" lon="5.60033">
        <ele>262</ele>
        <time>2023-02-14T11:39:33.688Z</time>
      </trkpt>
      <trkpt lat="45.57673" lon="5.60035">
        <ele>262</ele>
        <time>2023-02-14T11:39:34.688Z</time>
      </trkpt>
      <trkpt lat="45.57671" lon="5.60036">
        <ele>262</ele>
        <time>2023-02-14T11:39:35.688Z</time>
      </trkpt>
      <trkpt lat="45.57669" lon="5.60036">
        <ele>262</ele>
        <time>2023-02-14T11:39:36.688Z</time>
      </trkpt>
      <trkpt lat="45.57667" lon="5.60037">
        <ele>262</ele>
        <time>2023-02-14T11:39:37.688Z</time>
      </trkpt>
      <trkpt lat="45.57666" lon="5.60037">
        <ele>262</ele>
        <time>2023-02-14T11:39:38.688Z</time>
      </trkpt>
    </trkseg>
  </trk>
</gpx>